<?xml version="1.0" encoding="UTF-8" standalone="no" ?>
<gpx xmlns="http://www.topografix.com/GPX/1/1" xmlns:xsi="http://www.w3.org/2001/XMLSchema-instance" xsi:schemaLocation="http://www.topografix.com/GPX/1/1 http://www.topografix.com/GPX/1/1/gpx.xsd" version="1.1" creator="VisuGPX - https://www.visugpx.com">
  <metadata>
    <name>Balade à Saint-Pierre-La-Mer</name>
  </metadata>
  <trk>
    <name><![CDATA[20210720_094029.gpx]]></name>
    <extensions>
      <line xmlns="http://www.topografix.com/GPX/gpx_style/0/2">
        <color>0000FF</color>
        <width>4</width>
      </line>
    </extensions>
    <trkseg>
      <trkpt lat="43.10986" lon="3.0982">
        <ele>4.2</ele>
        <time>2021-07-20T07:40:45Z</time>
      </trkpt>
      <trkpt lat="43.10983" lon="3.09821">
        <ele>4.1</ele>
        <time>2021-07-20T07:40:46Z</time>
      </trkpt>
      <trkpt lat="43.10984" lon="3.09824">
        <ele>4.1</ele>
        <time>2021-07-20T07:40:47Z</time>
      </trkpt>
      <trkpt lat="43.10983" lon="3.09827">
        <ele>4.1</ele>
        <time>2021-07-20T07:40:48Z</time>
      </trkpt>
      <trkpt lat="43.10982" lon="3.09828">
        <ele>4.1</ele>
        <time>2021-07-20T07:40:50Z</time>
      </trkpt>
      <trkpt lat="43.1098" lon="3.0983">
        <ele>4</ele>
        <time>2021-07-20T07:40:51Z</time>
      </trkpt>
      <trkpt lat="43.10979" lon="3.09834">
        <ele>4</ele>
        <time>2021-07-20T07:40:52Z</time>
      </trkpt>
      <trkpt lat="43.10978" lon="3.09838">
        <ele>4</ele>
        <time>2021-07-20T07:40:53Z</time>
      </trkpt>
      <trkpt lat="43.10976" lon="3.09842">
        <ele>4</ele>
        <time>2021-07-20T07:40:54Z</time>
      </trkpt>
      <trkpt lat="43.10975" lon="3.09845">
        <ele>4</ele>
        <time>2021-07-20T07:40:55Z</time>
      </trkpt>
      <trkpt lat="43.10974" lon="3.09847">
        <ele>3.9</ele>
        <time>2021-07-20T07:40:56Z</time>
      </trkpt>
      <trkpt lat="43.10973" lon="3.0985">
        <ele>-1.6528451</ele>
        <time>2021-07-20T07:40:57Z</time>
      </trkpt>
      <trkpt lat="43.10972" lon="3.09852">
        <ele>3.9</ele>
        <time>2021-07-20T07:40:58Z</time>
      </trkpt>
      <trkpt lat="43.10971" lon="3.09853">
        <ele>3.8</ele>
        <time>2021-07-20T07:40:59Z</time>
      </trkpt>
      <trkpt lat="43.10971" lon="3.09853">
        <ele>3.8</ele>
        <time>2021-07-20T07:41:00Z</time>
      </trkpt>
      <trkpt lat="43.10971" lon="3.09853">
        <ele>-1.9433594</ele>
        <time>2021-07-20T07:41:01Z</time>
      </trkpt>
      <trkpt lat="43.10971" lon="3.09853">
        <ele>3.8</ele>
        <time>2021-07-20T07:41:02Z</time>
      </trkpt>
      <trkpt lat="43.10971" lon="3.09853">
        <ele>3.8</ele>
        <time>2021-07-20T07:41:03Z</time>
      </trkpt>
      <trkpt lat="43.10971" lon="3.09853">
        <ele>3.8</ele>
        <time>2021-07-20T07:41:04Z</time>
      </trkpt>
      <trkpt lat="43.10971" lon="3.09853">
        <ele>3.8</ele>
        <time>2021-07-20T07:41:05Z</time>
      </trkpt>
      <trkpt lat="43.1097" lon="3.09852">
        <ele>3.8</ele>
        <time>2021-07-20T07:41:06Z</time>
      </trkpt>
      <trkpt lat="43.10971" lon="3.09852">
        <ele>3.8</ele>
        <time>2021-07-20T07:41:07Z</time>
      </trkpt>
      <trkpt lat="43.10971" lon="3.09852">
        <ele>3.8</ele>
        <time>2021-07-20T07:41:08Z</time>
      </trkpt>
      <trkpt lat="43.10971" lon="3.09852">
        <ele>3.8</ele>
        <time>2021-07-20T07:41:09Z</time>
      </trkpt>
      <trkpt lat="43.1097" lon="3.09853">
        <ele>3.8</ele>
        <time>2021-07-20T07:41:10Z</time>
      </trkpt>
      <trkpt lat="43.1097" lon="3.09853">
        <ele>-2.367711</ele>
        <time>2021-07-20T07:41:11Z</time>
      </trkpt>
      <trkpt lat="43.1097" lon="3.09853">
        <ele>3.8</ele>
        <time>2021-07-20T07:41:12Z</time>
      </trkpt>
      <trkpt lat="43.1097" lon="3.09853">
        <ele>3.8</ele>
        <time>2021-07-20T07:41:13Z</time>
      </trkpt>
      <trkpt lat="43.1097" lon="3.09853">
        <ele>3.8</ele>
        <time>2021-07-20T07:41:14Z</time>
      </trkpt>
      <trkpt lat="43.1097" lon="3.09853">
        <ele>3.8</ele>
        <time>2021-07-20T07:41:15Z</time>
      </trkpt>
      <trkpt lat="43.1097" lon="3.09853">
        <ele>3.8</ele>
        <time>2021-07-20T07:41:16Z</time>
      </trkpt>
      <trkpt lat="43.1097" lon="3.09853">
        <ele>3.8</ele>
        <time>2021-07-20T07:41:17Z</time>
      </trkpt>
      <trkpt lat="43.1097" lon="3.09853">
        <ele>3.8</ele>
        <time>2021-07-20T07:41:18Z</time>
      </trkpt>
      <trkpt lat="43.1097" lon="3.09853">
        <ele>3.8</ele>
        <time>2021-07-20T07:41:19Z</time>
      </trkpt>
      <trkpt lat="43.1097" lon="3.09853">
        <ele>3.8</ele>
        <time>2021-07-20T07:41:20Z</time>
      </trkpt>
      <trkpt lat="43.1097" lon="3.09853">
        <ele>3.8</ele>
        <time>2021-07-20T07:41:21Z</time>
      </trkpt>
      <trkpt lat="43.1097" lon="3.09853">
        <ele>-2.1975563</ele>
        <time>2021-07-20T07:41:22Z</time>
      </trkpt>
      <trkpt lat="43.1097" lon="3.09853">
        <ele>3.8</ele>
        <time>2021-07-20T07:41:23Z</time>
      </trkpt>
      <trkpt lat="43.1097" lon="3.09853">
        <ele>3.8</ele>
        <time>2021-07-20T07:41:24Z</time>
      </trkpt>
      <trkpt lat="43.1097" lon="3.09853">
        <ele>3.8</ele>
        <time>2021-07-20T07:41:25Z</time>
      </trkpt>
      <trkpt lat="43.1097" lon="3.09853">
        <ele>3.8</ele>
        <time>2021-07-20T07:41:26Z</time>
      </trkpt>
      <trkpt lat="43.1097" lon="3.09853">
        <ele>3.8</ele>
        <time>2021-07-20T07:41:27Z</time>
      </trkpt>
      <trkpt lat="43.1097" lon="3.09853">
        <ele>3.8</ele>
        <time>2021-07-20T07:41:28Z</time>
      </trkpt>
      <trkpt lat="43.1097" lon="3.09853">
        <ele>3.8</ele>
        <time>2021-07-20T07:41:29Z</time>
      </trkpt>
      <trkpt lat="43.10968" lon="3.09854">
        <ele>3.7</ele>
        <time>2021-07-20T07:41:30Z</time>
      </trkpt>
      <trkpt lat="43.10968" lon="3.09855">
        <ele>3.7</ele>
        <time>2021-07-20T07:41:31Z</time>
      </trkpt>
      <trkpt lat="43.10967" lon="3.09856">
        <ele>-2.3096097</ele>
        <time>2021-07-20T07:41:32Z</time>
      </trkpt>
      <trkpt lat="43.10967" lon="3.09858">
        <ele>3.7</ele>
        <time>2021-07-20T07:41:33Z</time>
      </trkpt>
      <trkpt lat="43.10966" lon="3.09859">
        <ele>3.7</ele>
        <time>2021-07-20T07:41:34Z</time>
      </trkpt>
      <trkpt lat="43.10965" lon="3.09861">
        <ele>3.7</ele>
        <time>2021-07-20T07:41:35Z</time>
      </trkpt>
      <trkpt lat="43.10965" lon="3.09864">
        <ele>3.7</ele>
        <time>2021-07-20T07:41:36Z</time>
      </trkpt>
      <trkpt lat="43.10965" lon="3.09866">
        <ele>3.7</ele>
        <time>2021-07-20T07:41:37Z</time>
      </trkpt>
      <trkpt lat="43.10965" lon="3.09868">
        <ele>3.7</ele>
        <time>2021-07-20T07:41:38Z</time>
      </trkpt>
      <trkpt lat="43.10966" lon="3.09871">
        <ele>3.8</ele>
        <time>2021-07-20T07:41:39Z</time>
      </trkpt>
      <trkpt lat="43.10966" lon="3.09874">
        <ele>3.9</ele>
        <time>2021-07-20T07:41:40Z</time>
      </trkpt>
      <trkpt lat="43.10967" lon="3.09878">
        <ele>3.9</ele>
        <time>2021-07-20T07:41:41Z</time>
      </trkpt>
      <trkpt lat="43.10967" lon="3.09881">
        <ele>-2.3116846</ele>
        <time>2021-07-20T07:41:42Z</time>
      </trkpt>
      <trkpt lat="43.10966" lon="3.09885">
        <ele>4</ele>
        <time>2021-07-20T07:41:43Z</time>
      </trkpt>
      <trkpt lat="43.10966" lon="3.09888">
        <ele>4</ele>
        <time>2021-07-20T07:41:44Z</time>
      </trkpt>
      <trkpt lat="43.10965" lon="3.09892">
        <ele>4</ele>
        <time>2021-07-20T07:41:45Z</time>
      </trkpt>
      <trkpt lat="43.10965" lon="3.09895">
        <ele>4.1</ele>
        <time>2021-07-20T07:41:46Z</time>
      </trkpt>
      <trkpt lat="43.10965" lon="3.09899">
        <ele>4.1</ele>
        <time>2021-07-20T07:41:47Z</time>
      </trkpt>
      <trkpt lat="43.10964" lon="3.09903">
        <ele>4.1</ele>
        <time>2021-07-20T07:41:48Z</time>
      </trkpt>
      <trkpt lat="43.10964" lon="3.09907">
        <ele>4.2</ele>
        <time>2021-07-20T07:41:49Z</time>
      </trkpt>
      <trkpt lat="43.10963" lon="3.09911">
        <ele>4.2</ele>
        <time>2021-07-20T07:41:50Z</time>
      </trkpt>
      <trkpt lat="43.10963" lon="3.09915">
        <ele>4.2</ele>
        <time>2021-07-20T07:41:51Z</time>
      </trkpt>
      <trkpt lat="43.10963" lon="3.09919">
        <ele>-2.3884616</ele>
        <time>2021-07-20T07:41:52Z</time>
      </trkpt>
      <trkpt lat="43.10963" lon="3.09923">
        <ele>4.3</ele>
        <time>2021-07-20T07:41:53Z</time>
      </trkpt>
      <trkpt lat="43.10963" lon="3.09927">
        <ele>4.4</ele>
        <time>2021-07-20T07:41:54Z</time>
      </trkpt>
      <trkpt lat="43.10963" lon="3.0993">
        <ele>4.4</ele>
        <time>2021-07-20T07:41:55Z</time>
      </trkpt>
      <trkpt lat="43.10962" lon="3.09933">
        <ele>4.5</ele>
        <time>2021-07-20T07:41:56Z</time>
      </trkpt>
      <trkpt lat="43.10962" lon="3.09937">
        <ele>4.5</ele>
        <time>2021-07-20T07:41:57Z</time>
      </trkpt>
      <trkpt lat="43.10962" lon="3.09939">
        <ele>4.6</ele>
        <time>2021-07-20T07:41:58Z</time>
      </trkpt>
      <trkpt lat="43.10962" lon="3.09943">
        <ele>4.6</ele>
        <time>2021-07-20T07:41:59Z</time>
      </trkpt>
      <trkpt lat="43.10962" lon="3.09946">
        <ele>4.7</ele>
        <time>2021-07-20T07:42:00Z</time>
      </trkpt>
      <trkpt lat="43.10963" lon="3.0995">
        <ele>4.8</ele>
        <time>2021-07-20T07:42:01Z</time>
      </trkpt>
      <trkpt lat="43.10964" lon="3.09953">
        <ele>-2.3666735</ele>
        <time>2021-07-20T07:42:02Z</time>
      </trkpt>
      <trkpt lat="43.10964" lon="3.09957">
        <ele>5</ele>
        <time>2021-07-20T07:42:03Z</time>
      </trkpt>
      <trkpt lat="43.10964" lon="3.0996">
        <ele>5</ele>
        <time>2021-07-20T07:42:04Z</time>
      </trkpt>
      <trkpt lat="43.10965" lon="3.09963">
        <ele>5.1</ele>
        <time>2021-07-20T07:42:05Z</time>
      </trkpt>
      <trkpt lat="43.10966" lon="3.09966">
        <ele>5.2</ele>
        <time>2021-07-20T07:42:06Z</time>
      </trkpt>
      <trkpt lat="43.10967" lon="3.09969">
        <ele>5.3</ele>
        <time>2021-07-20T07:42:07Z</time>
      </trkpt>
      <trkpt lat="43.10968" lon="3.09973">
        <ele>5.4</ele>
        <time>2021-07-20T07:42:08Z</time>
      </trkpt>
      <trkpt lat="43.10971" lon="3.09974">
        <ele>5.5</ele>
        <time>2021-07-20T07:42:09Z</time>
      </trkpt>
      <trkpt lat="43.10974" lon="3.09976">
        <ele>5.7</ele>
        <time>2021-07-20T07:42:10Z</time>
      </trkpt>
      <trkpt lat="43.10977" lon="3.09977">
        <ele>5.8</ele>
        <time>2021-07-20T07:42:11Z</time>
      </trkpt>
      <trkpt lat="43.1098" lon="3.09978">
        <ele>-2.0606017</ele>
        <time>2021-07-20T07:42:12Z</time>
      </trkpt>
      <trkpt lat="43.10981" lon="3.09982">
        <ele>6.1</ele>
        <time>2021-07-20T07:42:13Z</time>
      </trkpt>
      <trkpt lat="43.10983" lon="3.09985">
        <ele>6.2</ele>
        <time>2021-07-20T07:42:14Z</time>
      </trkpt>
      <trkpt lat="43.10983" lon="3.09989">
        <ele>6.2</ele>
        <time>2021-07-20T07:42:15Z</time>
      </trkpt>
      <trkpt lat="43.10982" lon="3.09993">
        <ele>6.2</ele>
        <time>2021-07-20T07:42:16Z</time>
      </trkpt>
      <trkpt lat="43.10982" lon="3.09996">
        <ele>6.3</ele>
        <time>2021-07-20T07:42:17Z</time>
      </trkpt>
      <trkpt lat="43.10982" lon="3.1">
        <ele>6.3</ele>
        <time>2021-07-20T07:42:18Z</time>
      </trkpt>
      <trkpt lat="43.10981" lon="3.10003">
        <ele>6.4</ele>
        <time>2021-07-20T07:42:19Z</time>
      </trkpt>
      <trkpt lat="43.1098" lon="3.10007">
        <ele>6.4</ele>
        <time>2021-07-20T07:42:20Z</time>
      </trkpt>
      <trkpt lat="43.1098" lon="3.10011">
        <ele>-1.9371341</ele>
        <time>2021-07-20T07:42:21Z</time>
      </trkpt>
      <trkpt lat="43.10979" lon="3.10016">
        <ele>6.4</ele>
        <time>2021-07-20T07:42:22Z</time>
      </trkpt>
      <trkpt lat="43.10978" lon="3.1002">
        <ele>6.5</ele>
        <time>2021-07-20T07:42:23Z</time>
      </trkpt>
      <trkpt lat="43.10978" lon="3.10024">
        <ele>6.5</ele>
        <time>2021-07-20T07:42:24Z</time>
      </trkpt>
      <trkpt lat="43.10977" lon="3.10028">
        <ele>6.5</ele>
        <time>2021-07-20T07:42:25Z</time>
      </trkpt>
      <trkpt lat="43.10976" lon="3.10032">
        <ele>6.5</ele>
        <time>2021-07-20T07:42:26Z</time>
      </trkpt>
      <trkpt lat="43.10976" lon="3.10037">
        <ele>6.6</ele>
        <time>2021-07-20T07:42:27Z</time>
      </trkpt>
      <trkpt lat="43.10975" lon="3.10041">
        <ele>6.6</ele>
        <time>2021-07-20T07:42:28Z</time>
      </trkpt>
      <trkpt lat="43.10975" lon="3.10046">
        <ele>6.6</ele>
        <time>2021-07-20T07:42:29Z</time>
      </trkpt>
      <trkpt lat="43.10974" lon="3.1005">
        <ele>6.7</ele>
        <time>2021-07-20T07:42:30Z</time>
      </trkpt>
      <trkpt lat="43.10973" lon="3.10055">
        <ele>-2.1830308</ele>
        <time>2021-07-20T07:42:31Z</time>
      </trkpt>
      <trkpt lat="43.10973" lon="3.10059">
        <ele>6.7</ele>
        <time>2021-07-20T07:42:32Z</time>
      </trkpt>
      <trkpt lat="43.10972" lon="3.10064">
        <ele>6.8</ele>
        <time>2021-07-20T07:42:33Z</time>
      </trkpt>
      <trkpt lat="43.10971" lon="3.10068">
        <ele>6.8</ele>
        <time>2021-07-20T07:42:34Z</time>
      </trkpt>
      <trkpt lat="43.10971" lon="3.10073">
        <ele>6.8</ele>
        <time>2021-07-20T07:42:35Z</time>
      </trkpt>
      <trkpt lat="43.1097" lon="3.10077">
        <ele>6.8</ele>
        <time>2021-07-20T07:42:36Z</time>
      </trkpt>
      <trkpt lat="43.1097" lon="3.1008">
        <ele>6.9</ele>
        <time>2021-07-20T07:42:37Z</time>
      </trkpt>
      <trkpt lat="43.10969" lon="3.10084">
        <ele>6.9</ele>
        <time>2021-07-20T07:42:38Z</time>
      </trkpt>
      <trkpt lat="43.10968" lon="3.10088">
        <ele>6.8</ele>
        <time>2021-07-20T07:42:39Z</time>
      </trkpt>
      <trkpt lat="43.10968" lon="3.10091">
        <ele>6.8</ele>
        <time>2021-07-20T07:42:40Z</time>
      </trkpt>
      <trkpt lat="43.10968" lon="3.10095">
        <ele>-2.1508672</ele>
        <time>2021-07-20T07:42:41Z</time>
      </trkpt>
      <trkpt lat="43.10967" lon="3.10099">
        <ele>6.8</ele>
        <time>2021-07-20T07:42:42Z</time>
      </trkpt>
      <trkpt lat="43.10967" lon="3.10102">
        <ele>6.7</ele>
        <time>2021-07-20T07:42:43Z</time>
      </trkpt>
      <trkpt lat="43.10967" lon="3.10106">
        <ele>6.7</ele>
        <time>2021-07-20T07:42:44Z</time>
      </trkpt>
      <trkpt lat="43.10966" lon="3.10109">
        <ele>6.7</ele>
        <time>2021-07-20T07:42:45Z</time>
      </trkpt>
      <trkpt lat="43.10965" lon="3.10112">
        <ele>6.7</ele>
        <time>2021-07-20T07:42:46Z</time>
      </trkpt>
      <trkpt lat="43.10965" lon="3.10116">
        <ele>6.7</ele>
        <time>2021-07-20T07:42:47Z</time>
      </trkpt>
      <trkpt lat="43.10964" lon="3.10119">
        <ele>6.7</ele>
        <time>2021-07-20T07:42:48Z</time>
      </trkpt>
      <trkpt lat="43.10963" lon="3.10122">
        <ele>6.6</ele>
        <time>2021-07-20T07:42:49Z</time>
      </trkpt>
      <trkpt lat="43.1096" lon="3.10124">
        <ele>6.6</ele>
        <time>2021-07-20T07:42:50Z</time>
      </trkpt>
      <trkpt lat="43.10958" lon="3.10125">
        <ele>-1.8261166</ele>
        <time>2021-07-20T07:42:51Z</time>
      </trkpt>
      <trkpt lat="43.10955" lon="3.10127">
        <ele>6.4</ele>
        <time>2021-07-20T07:42:52Z</time>
      </trkpt>
      <trkpt lat="43.10954" lon="3.10129">
        <ele>6.4</ele>
        <time>2021-07-20T07:42:53Z</time>
      </trkpt>
      <trkpt lat="43.10952" lon="3.1013">
        <ele>6.3</ele>
        <time>2021-07-20T07:42:54Z</time>
      </trkpt>
      <trkpt lat="43.1095" lon="3.10131">
        <ele>6.3</ele>
        <time>2021-07-20T07:42:55Z</time>
      </trkpt>
      <trkpt lat="43.10948" lon="3.10131">
        <ele>6.3</ele>
        <time>2021-07-20T07:42:56Z</time>
      </trkpt>
      <trkpt lat="43.10946" lon="3.10132">
        <ele>6.2</ele>
        <time>2021-07-20T07:42:57Z</time>
      </trkpt>
      <trkpt lat="43.10945" lon="3.10134">
        <ele>6.2</ele>
        <time>2021-07-20T07:42:58Z</time>
      </trkpt>
      <trkpt lat="43.10944" lon="3.10136">
        <ele>6.2</ele>
        <time>2021-07-20T07:42:59Z</time>
      </trkpt>
      <trkpt lat="43.10943" lon="3.1014">
        <ele>6.2</ele>
        <time>2021-07-20T07:43:00Z</time>
      </trkpt>
      <trkpt lat="43.10942" lon="3.10143">
        <ele>6.2</ele>
        <time>2021-07-20T07:43:01Z</time>
      </trkpt>
      <trkpt lat="43.1094" lon="3.10147">
        <ele>-1.8831817</ele>
        <time>2021-07-20T07:43:02Z</time>
      </trkpt>
      <trkpt lat="43.10939" lon="3.10151">
        <ele>6.2</ele>
        <time>2021-07-20T07:43:03Z</time>
      </trkpt>
      <trkpt lat="43.10937" lon="3.10155">
        <ele>6.2</ele>
        <time>2021-07-20T07:43:04Z</time>
      </trkpt>
      <trkpt lat="43.10936" lon="3.10159">
        <ele>6.2</ele>
        <time>2021-07-20T07:43:05Z</time>
      </trkpt>
      <trkpt lat="43.10935" lon="3.10163">
        <ele>6.2</ele>
        <time>2021-07-20T07:43:06Z</time>
      </trkpt>
      <trkpt lat="43.10934" lon="3.10167">
        <ele>6.2</ele>
        <time>2021-07-20T07:43:07Z</time>
      </trkpt>
      <trkpt lat="43.10933" lon="3.10171">
        <ele>6.2</ele>
        <time>2021-07-20T07:43:08Z</time>
      </trkpt>
      <trkpt lat="43.10932" lon="3.10176">
        <ele>6.3</ele>
        <time>2021-07-20T07:43:09Z</time>
      </trkpt>
      <trkpt lat="43.10931" lon="3.1018">
        <ele>6.3</ele>
        <time>2021-07-20T07:43:10Z</time>
      </trkpt>
      <trkpt lat="43.10931" lon="3.10183">
        <ele>6.3</ele>
        <time>2021-07-20T07:43:11Z</time>
      </trkpt>
      <trkpt lat="43.1093" lon="3.10187">
        <ele>-1.669446</ele>
        <time>2021-07-20T07:43:12Z</time>
      </trkpt>
      <trkpt lat="43.1093" lon="3.10191">
        <ele>6.4</ele>
        <time>2021-07-20T07:43:13Z</time>
      </trkpt>
      <trkpt lat="43.10929" lon="3.10196">
        <ele>6.4</ele>
        <time>2021-07-20T07:43:14Z</time>
      </trkpt>
      <trkpt lat="43.10929" lon="3.102">
        <ele>6.5</ele>
        <time>2021-07-20T07:43:15Z</time>
      </trkpt>
      <trkpt lat="43.10929" lon="3.10204">
        <ele>6.5</ele>
        <time>2021-07-20T07:43:16Z</time>
      </trkpt>
      <trkpt lat="43.10928" lon="3.10208">
        <ele>6.6</ele>
        <time>2021-07-20T07:43:17Z</time>
      </trkpt>
      <trkpt lat="43.10928" lon="3.10213">
        <ele>6.6</ele>
        <time>2021-07-20T07:43:18Z</time>
      </trkpt>
      <trkpt lat="43.10927" lon="3.10217">
        <ele>6.7</ele>
        <time>2021-07-20T07:43:19Z</time>
      </trkpt>
      <trkpt lat="43.10927" lon="3.10221">
        <ele>6.7</ele>
        <time>2021-07-20T07:43:20Z</time>
      </trkpt>
      <trkpt lat="43.10926" lon="3.10226">
        <ele>6.7</ele>
        <time>2021-07-20T07:43:21Z</time>
      </trkpt>
      <trkpt lat="43.10925" lon="3.1023">
        <ele>-1.5812535</ele>
        <time>2021-07-20T07:43:22Z</time>
      </trkpt>
      <trkpt lat="43.10924" lon="3.10234">
        <ele>6.8</ele>
        <time>2021-07-20T07:43:23Z</time>
      </trkpt>
      <trkpt lat="43.10923" lon="3.10239">
        <ele>6.9</ele>
        <time>2021-07-20T07:43:24Z</time>
      </trkpt>
      <trkpt lat="43.10922" lon="3.10244">
        <ele>6.9</ele>
        <time>2021-07-20T07:43:25Z</time>
      </trkpt>
      <trkpt lat="43.10921" lon="3.10249">
        <ele>7</ele>
        <time>2021-07-20T07:43:26Z</time>
      </trkpt>
      <trkpt lat="43.1092" lon="3.10253">
        <ele>7</ele>
        <time>2021-07-20T07:43:27Z</time>
      </trkpt>
      <trkpt lat="43.1092" lon="3.10258">
        <ele>6.9</ele>
        <time>2021-07-20T07:43:28Z</time>
      </trkpt>
      <trkpt lat="43.1092" lon="3.10263">
        <ele>6.8</ele>
        <time>2021-07-20T07:43:29Z</time>
      </trkpt>
      <trkpt lat="43.10918" lon="3.10267">
        <ele>6.8</ele>
        <time>2021-07-20T07:43:30Z</time>
      </trkpt>
      <trkpt lat="43.10918" lon="3.10272">
        <ele>6.7</ele>
        <time>2021-07-20T07:43:31Z</time>
      </trkpt>
      <trkpt lat="43.10917" lon="3.10276">
        <ele>-1.7524505</ele>
        <time>2021-07-20T07:43:32Z</time>
      </trkpt>
      <trkpt lat="43.10916" lon="3.1028">
        <ele>6.96</ele>
        <time>2021-07-20T07:43:33Z</time>
      </trkpt>
      <trkpt lat="43.10915" lon="3.10285">
        <ele>6.92</ele>
        <time>2021-07-20T07:43:34Z</time>
      </trkpt>
      <trkpt lat="43.10914" lon="3.10289">
        <ele>6.87</ele>
        <time>2021-07-20T07:43:35Z</time>
      </trkpt>
      <trkpt lat="43.10913" lon="3.10294">
        <ele>6.82</ele>
        <time>2021-07-20T07:43:36Z</time>
      </trkpt>
      <trkpt lat="43.10913" lon="3.10298">
        <ele>6.81</ele>
        <time>2021-07-20T07:43:37Z</time>
      </trkpt>
      <trkpt lat="43.10914" lon="3.10303">
        <ele>6.87</ele>
        <time>2021-07-20T07:43:38Z</time>
      </trkpt>
      <trkpt lat="43.10916" lon="3.10306">
        <ele>6.96</ele>
        <time>2021-07-20T07:43:39Z</time>
      </trkpt>
      <trkpt lat="43.10918" lon="3.10308">
        <ele>6.3</ele>
        <time>2021-07-20T07:43:40Z</time>
      </trkpt>
      <trkpt lat="43.10922" lon="3.1031">
        <ele>6.3</ele>
        <time>2021-07-20T07:43:41Z</time>
      </trkpt>
      <trkpt lat="43.10925" lon="3.10311">
        <ele>-2.1861434</ele>
        <time>2021-07-20T07:43:42Z</time>
      </trkpt>
      <trkpt lat="43.10929" lon="3.10312">
        <ele>6.3</ele>
        <time>2021-07-20T07:43:43Z</time>
      </trkpt>
      <trkpt lat="43.10933" lon="3.10314">
        <ele>6.2</ele>
        <time>2021-07-20T07:43:44Z</time>
      </trkpt>
      <trkpt lat="43.10936" lon="3.10316">
        <ele>6.2</ele>
        <time>2021-07-20T07:43:45Z</time>
      </trkpt>
      <trkpt lat="43.10939" lon="3.10317">
        <ele>6.2</ele>
        <time>2021-07-20T07:43:46Z</time>
      </trkpt>
      <trkpt lat="43.10943" lon="3.10319">
        <ele>6.2</ele>
        <time>2021-07-20T07:43:47Z</time>
      </trkpt>
      <trkpt lat="43.10946" lon="3.10321">
        <ele>6.2</ele>
        <time>2021-07-20T07:43:48Z</time>
      </trkpt>
      <trkpt lat="43.1095" lon="3.10322">
        <ele>6.1</ele>
        <time>2021-07-20T07:43:49Z</time>
      </trkpt>
      <trkpt lat="43.10954" lon="3.10323">
        <ele>6.1</ele>
        <time>2021-07-20T07:43:50Z</time>
      </trkpt>
      <trkpt lat="43.10957" lon="3.10324">
        <ele>6.1</ele>
        <time>2021-07-20T07:43:51Z</time>
      </trkpt>
      <trkpt lat="43.10961" lon="3.10325">
        <ele>-1.9433594</ele>
        <time>2021-07-20T07:43:52Z</time>
      </trkpt>
      <trkpt lat="43.10964" lon="3.10324">
        <ele>6.1</ele>
        <time>2021-07-20T07:43:53Z</time>
      </trkpt>
      <trkpt lat="43.10968" lon="3.10323">
        <ele>6.1</ele>
        <time>2021-07-20T07:43:54Z</time>
      </trkpt>
      <trkpt lat="43.10971" lon="3.1032">
        <ele>6.2</ele>
        <time>2021-07-20T07:43:55Z</time>
      </trkpt>
      <trkpt lat="43.10974" lon="3.10318">
        <ele>6.2</ele>
        <time>2021-07-20T07:43:56Z</time>
      </trkpt>
      <trkpt lat="43.10978" lon="3.10316">
        <ele>6.2</ele>
        <time>2021-07-20T07:43:57Z</time>
      </trkpt>
      <trkpt lat="43.10981" lon="3.10314">
        <ele>6.2</ele>
        <time>2021-07-20T07:43:58Z</time>
      </trkpt>
      <trkpt lat="43.10984" lon="3.10312">
        <ele>6.3</ele>
        <time>2021-07-20T07:43:59Z</time>
      </trkpt>
      <trkpt lat="43.10988" lon="3.10311">
        <ele>6.3</ele>
        <time>2021-07-20T07:44:00Z</time>
      </trkpt>
      <trkpt lat="43.10991" lon="3.10311">
        <ele>-2.0336256</ele>
        <time>2021-07-20T07:44:01Z</time>
      </trkpt>
      <trkpt lat="43.10994" lon="3.10313">
        <ele>6.2</ele>
        <time>2021-07-20T07:44:02Z</time>
      </trkpt>
      <trkpt lat="43.10997" lon="3.10316">
        <ele>6.2</ele>
        <time>2021-07-20T07:44:03Z</time>
      </trkpt>
      <trkpt lat="43.10999" lon="3.10319">
        <ele>6.2</ele>
        <time>2021-07-20T07:44:04Z</time>
      </trkpt>
      <trkpt lat="43.11001" lon="3.10322">
        <ele>6.1</ele>
        <time>2021-07-20T07:44:05Z</time>
      </trkpt>
      <trkpt lat="43.11004" lon="3.10325">
        <ele>6.1</ele>
        <time>2021-07-20T07:44:06Z</time>
      </trkpt>
      <trkpt lat="43.11006" lon="3.10328">
        <ele>6.1</ele>
        <time>2021-07-20T07:44:07Z</time>
      </trkpt>
      <trkpt lat="43.11008" lon="3.10332">
        <ele>6</ele>
        <time>2021-07-20T07:44:08Z</time>
      </trkpt>
      <trkpt lat="43.11011" lon="3.10335">
        <ele>6</ele>
        <time>2021-07-20T07:44:09Z</time>
      </trkpt>
      <trkpt lat="43.11013" lon="3.10339">
        <ele>5.9</ele>
        <time>2021-07-20T07:44:10Z</time>
      </trkpt>
      <trkpt lat="43.11016" lon="3.10342">
        <ele>-2.0336256</ele>
        <time>2021-07-20T07:44:11Z</time>
      </trkpt>
      <trkpt lat="43.11018" lon="3.10345">
        <ele>5.9</ele>
        <time>2021-07-20T07:44:12Z</time>
      </trkpt>
      <trkpt lat="43.11021" lon="3.10349">
        <ele>5.8</ele>
        <time>2021-07-20T07:44:13Z</time>
      </trkpt>
      <trkpt lat="43.11024" lon="3.10352">
        <ele>5.8</ele>
        <time>2021-07-20T07:44:14Z</time>
      </trkpt>
      <trkpt lat="43.11026" lon="3.10355">
        <ele>5.7</ele>
        <time>2021-07-20T07:44:15Z</time>
      </trkpt>
      <trkpt lat="43.11029" lon="3.10359">
        <ele>5.7</ele>
        <time>2021-07-20T07:44:16Z</time>
      </trkpt>
      <trkpt lat="43.11031" lon="3.10362">
        <ele>5.7</ele>
        <time>2021-07-20T07:44:17Z</time>
      </trkpt>
      <trkpt lat="43.11034" lon="3.10365">
        <ele>5.6</ele>
        <time>2021-07-20T07:44:18Z</time>
      </trkpt>
      <trkpt lat="43.11036" lon="3.10369">
        <ele>5.6</ele>
        <time>2021-07-20T07:44:19Z</time>
      </trkpt>
      <trkpt lat="43.11039" lon="3.10372">
        <ele>5.5</ele>
        <time>2021-07-20T07:44:20Z</time>
      </trkpt>
      <trkpt lat="43.11042" lon="3.10376">
        <ele>-1.8427174</ele>
        <time>2021-07-20T07:44:21Z</time>
      </trkpt>
      <trkpt lat="43.11044" lon="3.10379">
        <ele>5.5</ele>
        <time>2021-07-20T07:44:22Z</time>
      </trkpt>
      <trkpt lat="43.11047" lon="3.10382">
        <ele>5.4</ele>
        <time>2021-07-20T07:44:23Z</time>
      </trkpt>
      <trkpt lat="43.11049" lon="3.10386">
        <ele>5.4</ele>
        <time>2021-07-20T07:44:24Z</time>
      </trkpt>
      <trkpt lat="43.11052" lon="3.10389">
        <ele>5.3</ele>
        <time>2021-07-20T07:44:25Z</time>
      </trkpt>
      <trkpt lat="43.11054" lon="3.10393">
        <ele>5.3</ele>
        <time>2021-07-20T07:44:26Z</time>
      </trkpt>
      <trkpt lat="43.11057" lon="3.10396">
        <ele>5.2</ele>
        <time>2021-07-20T07:44:27Z</time>
      </trkpt>
      <trkpt lat="43.11059" lon="3.10399">
        <ele>5.2</ele>
        <time>2021-07-20T07:44:28Z</time>
      </trkpt>
      <trkpt lat="43.11062" lon="3.10403">
        <ele>5.2</ele>
        <time>2021-07-20T07:44:29Z</time>
      </trkpt>
      <trkpt lat="43.11064" lon="3.10406">
        <ele>5.1</ele>
        <time>2021-07-20T07:44:30Z</time>
      </trkpt>
      <trkpt lat="43.11066" lon="3.10409">
        <ele>-1.5895541</ele>
        <time>2021-07-20T07:44:31Z</time>
      </trkpt>
      <trkpt lat="43.11069" lon="3.10412">
        <ele>5.1</ele>
        <time>2021-07-20T07:44:32Z</time>
      </trkpt>
      <trkpt lat="43.11071" lon="3.10416">
        <ele>5</ele>
        <time>2021-07-20T07:44:33Z</time>
      </trkpt>
      <trkpt lat="43.11074" lon="3.10419">
        <ele>5</ele>
        <time>2021-07-20T07:44:34Z</time>
      </trkpt>
      <trkpt lat="43.11076" lon="3.10423">
        <ele>5</ele>
        <time>2021-07-20T07:44:35Z</time>
      </trkpt>
      <trkpt lat="43.11076" lon="3.10426">
        <ele>5</ele>
        <time>2021-07-20T07:44:36Z</time>
      </trkpt>
      <trkpt lat="43.11077" lon="3.10429">
        <ele>5</ele>
        <time>2021-07-20T07:44:37Z</time>
      </trkpt>
      <trkpt lat="43.11078" lon="3.10431">
        <ele>5</ele>
        <time>2021-07-20T07:44:38Z</time>
      </trkpt>
      <trkpt lat="43.11078" lon="3.10433">
        <ele>5</ele>
        <time>2021-07-20T07:44:39Z</time>
      </trkpt>
      <trkpt lat="43.11078" lon="3.10435">
        <ele>5</ele>
        <time>2021-07-20T07:44:40Z</time>
      </trkpt>
      <trkpt lat="43.11079" lon="3.10436">
        <ele>5</ele>
        <time>2021-07-20T07:44:41Z</time>
      </trkpt>
      <trkpt lat="43.11079" lon="3.10437">
        <ele>-1.9163833</ele>
        <time>2021-07-20T07:44:42Z</time>
      </trkpt>
      <trkpt lat="43.11079" lon="3.10437">
        <ele>5</ele>
        <time>2021-07-20T07:44:43Z</time>
      </trkpt>
      <trkpt lat="43.11079" lon="3.10437">
        <ele>5</ele>
        <time>2021-07-20T07:44:44Z</time>
      </trkpt>
      <trkpt lat="43.11079" lon="3.10437">
        <ele>5</ele>
        <time>2021-07-20T07:44:45Z</time>
      </trkpt>
      <trkpt lat="43.11079" lon="3.10438">
        <ele>5</ele>
        <time>2021-07-20T07:44:46Z</time>
      </trkpt>
      <trkpt lat="43.11079" lon="3.10438">
        <ele>5</ele>
        <time>2021-07-20T07:44:47Z</time>
      </trkpt>
      <trkpt lat="43.11079" lon="3.10438">
        <ele>5</ele>
        <time>2021-07-20T07:44:48Z</time>
      </trkpt>
      <trkpt lat="43.11079" lon="3.10438">
        <ele>5</ele>
        <time>2021-07-20T07:44:49Z</time>
      </trkpt>
      <trkpt lat="43.1108" lon="3.10438">
        <ele>5</ele>
        <time>2021-07-20T07:44:50Z</time>
      </trkpt>
      <trkpt lat="43.1108" lon="3.10438">
        <ele>5</ele>
        <time>2021-07-20T07:44:51Z</time>
      </trkpt>
      <trkpt lat="43.1108" lon="3.10438">
        <ele>-2.2266073</ele>
        <time>2021-07-20T07:44:52Z</time>
      </trkpt>
      <trkpt lat="43.11081" lon="3.10439">
        <ele>5</ele>
        <time>2021-07-20T07:44:53Z</time>
      </trkpt>
      <trkpt lat="43.11081" lon="3.10439">
        <ele>5</ele>
        <time>2021-07-20T07:44:54Z</time>
      </trkpt>
      <trkpt lat="43.1108" lon="3.1044">
        <ele>5</ele>
        <time>2021-07-20T07:44:55Z</time>
      </trkpt>
      <trkpt lat="43.1108" lon="3.1044">
        <ele>5</ele>
        <time>2021-07-20T07:44:56Z</time>
      </trkpt>
      <trkpt lat="43.1108" lon="3.1044">
        <ele>5</ele>
        <time>2021-07-20T07:44:57Z</time>
      </trkpt>
      <trkpt lat="43.1108" lon="3.1044">
        <ele>5</ele>
        <time>2021-07-20T07:44:58Z</time>
      </trkpt>
      <trkpt lat="43.11079" lon="3.10439">
        <ele>5</ele>
        <time>2021-07-20T07:44:59Z</time>
      </trkpt>
      <trkpt lat="43.11078" lon="3.10439">
        <ele>5</ele>
        <time>2021-07-20T07:45:00Z</time>
      </trkpt>
      <trkpt lat="43.11078" lon="3.10439">
        <ele>5</ele>
        <time>2021-07-20T07:45:01Z</time>
      </trkpt>
      <trkpt lat="43.11079" lon="3.10439">
        <ele>-2.3822365</ele>
        <time>2021-07-20T07:45:02Z</time>
      </trkpt>
      <trkpt lat="43.11079" lon="3.10439">
        <ele>5</ele>
        <time>2021-07-20T07:45:03Z</time>
      </trkpt>
      <trkpt lat="43.11079" lon="3.10439">
        <ele>5</ele>
        <time>2021-07-20T07:45:04Z</time>
      </trkpt>
      <trkpt lat="43.11079" lon="3.10439">
        <ele>5</ele>
        <time>2021-07-20T07:45:05Z</time>
      </trkpt>
      <trkpt lat="43.11079" lon="3.10439">
        <ele>5</ele>
        <time>2021-07-20T07:45:06Z</time>
      </trkpt>
      <trkpt lat="43.11079" lon="3.10439">
        <ele>5</ele>
        <time>2021-07-20T07:45:07Z</time>
      </trkpt>
      <trkpt lat="43.11079" lon="3.10439">
        <ele>5</ele>
        <time>2021-07-20T07:45:08Z</time>
      </trkpt>
      <trkpt lat="43.11079" lon="3.10439">
        <ele>5</ele>
        <time>2021-07-20T07:45:09Z</time>
      </trkpt>
      <trkpt lat="43.11079" lon="3.10439">
        <ele>5</ele>
        <time>2021-07-20T07:45:10Z</time>
      </trkpt>
      <trkpt lat="43.11079" lon="3.10439">
        <ele>5</ele>
        <time>2021-07-20T07:45:11Z</time>
      </trkpt>
      <trkpt lat="43.11079" lon="3.10439">
        <ele>-2.2681084</ele>
        <time>2021-07-20T07:45:12Z</time>
      </trkpt>
      <trkpt lat="43.11079" lon="3.10439">
        <ele>5</ele>
        <time>2021-07-20T07:45:13Z</time>
      </trkpt>
      <trkpt lat="43.11079" lon="3.10439">
        <ele>5</ele>
        <time>2021-07-20T07:45:14Z</time>
      </trkpt>
      <trkpt lat="43.11079" lon="3.10439">
        <ele>5</ele>
        <time>2021-07-20T07:45:15Z</time>
      </trkpt>
      <trkpt lat="43.11079" lon="3.10439">
        <ele>5</ele>
        <time>2021-07-20T07:45:16Z</time>
      </trkpt>
      <trkpt lat="43.11079" lon="3.10439">
        <ele>5</ele>
        <time>2021-07-20T07:45:17Z</time>
      </trkpt>
      <trkpt lat="43.11079" lon="3.10439">
        <ele>5</ele>
        <time>2021-07-20T07:45:18Z</time>
      </trkpt>
      <trkpt lat="43.11079" lon="3.10439">
        <ele>5</ele>
        <time>2021-07-20T07:45:19Z</time>
      </trkpt>
      <trkpt lat="43.11079" lon="3.10439">
        <ele>5</ele>
        <time>2021-07-20T07:45:20Z</time>
      </trkpt>
      <trkpt lat="43.11079" lon="3.10437">
        <ele>5</ele>
        <time>2021-07-20T07:45:21Z</time>
      </trkpt>
      <trkpt lat="43.11079" lon="3.10437">
        <ele>-2.1944437</ele>
        <time>2021-07-20T07:45:22Z</time>
      </trkpt>
      <trkpt lat="43.11079" lon="3.10437">
        <ele>5</ele>
        <time>2021-07-20T07:45:23Z</time>
      </trkpt>
      <trkpt lat="43.11079" lon="3.10437">
        <ele>5</ele>
        <time>2021-07-20T07:45:24Z</time>
      </trkpt>
      <trkpt lat="43.11079" lon="3.10437">
        <ele>5</ele>
        <time>2021-07-20T07:45:25Z</time>
      </trkpt>
      <trkpt lat="43.11079" lon="3.10437">
        <ele>5</ele>
        <time>2021-07-20T07:45:26Z</time>
      </trkpt>
      <trkpt lat="43.11079" lon="3.10437">
        <ele>5</ele>
        <time>2021-07-20T07:45:27Z</time>
      </trkpt>
      <trkpt lat="43.11079" lon="3.10437">
        <ele>5</ele>
        <time>2021-07-20T07:45:28Z</time>
      </trkpt>
      <trkpt lat="43.11079" lon="3.10437">
        <ele>5</ele>
        <time>2021-07-20T07:45:29Z</time>
      </trkpt>
      <trkpt lat="43.11079" lon="3.10437">
        <ele>5</ele>
        <time>2021-07-20T07:45:30Z</time>
      </trkpt>
      <trkpt lat="43.1108" lon="3.10438">
        <ele>5</ele>
        <time>2021-07-20T07:45:31Z</time>
      </trkpt>
      <trkpt lat="43.1108" lon="3.10438">
        <ele>-2.1674678</ele>
        <time>2021-07-20T07:45:32Z</time>
      </trkpt>
      <trkpt lat="43.1108" lon="3.10439">
        <ele>5</ele>
        <time>2021-07-20T07:45:33Z</time>
      </trkpt>
      <trkpt lat="43.1108" lon="3.1044">
        <ele>5</ele>
        <time>2021-07-20T07:45:34Z</time>
      </trkpt>
      <trkpt lat="43.11081" lon="3.1044">
        <ele>5</ele>
        <time>2021-07-20T07:45:35Z</time>
      </trkpt>
      <trkpt lat="43.11081" lon="3.1044">
        <ele>5</ele>
        <time>2021-07-20T07:45:36Z</time>
      </trkpt>
      <trkpt lat="43.11081" lon="3.1044">
        <ele>5</ele>
        <time>2021-07-20T07:45:37Z</time>
      </trkpt>
      <trkpt lat="43.11081" lon="3.1044">
        <ele>5</ele>
        <time>2021-07-20T07:45:38Z</time>
      </trkpt>
      <trkpt lat="43.11081" lon="3.1044">
        <ele>5</ele>
        <time>2021-07-20T07:45:39Z</time>
      </trkpt>
      <trkpt lat="43.11081" lon="3.1044">
        <ele>5</ele>
        <time>2021-07-20T07:45:40Z</time>
      </trkpt>
      <trkpt lat="43.11083" lon="3.10441">
        <ele>-2.3013093</ele>
        <time>2021-07-20T07:45:41Z</time>
      </trkpt>
      <trkpt lat="43.11084" lon="3.10441">
        <ele>5</ele>
        <time>2021-07-20T07:45:42Z</time>
      </trkpt>
      <trkpt lat="43.11086" lon="3.10442">
        <ele>5</ele>
        <time>2021-07-20T07:45:43Z</time>
      </trkpt>
      <trkpt lat="43.11087" lon="3.10443">
        <ele>5</ele>
        <time>2021-07-20T07:45:44Z</time>
      </trkpt>
      <trkpt lat="43.11089" lon="3.10445">
        <ele>4.9</ele>
        <time>2021-07-20T07:45:45Z</time>
      </trkpt>
      <trkpt lat="43.11091" lon="3.10447">
        <ele>4.9</ele>
        <time>2021-07-20T07:45:46Z</time>
      </trkpt>
      <trkpt lat="43.11093" lon="3.1045">
        <ele>4.9</ele>
        <time>2021-07-20T07:45:47Z</time>
      </trkpt>
      <trkpt lat="43.11094" lon="3.10453">
        <ele>4.9</ele>
        <time>2021-07-20T07:45:48Z</time>
      </trkpt>
      <trkpt lat="43.11095" lon="3.10457">
        <ele>4.9</ele>
        <time>2021-07-20T07:45:49Z</time>
      </trkpt>
      <trkpt lat="43.11096" lon="3.10461">
        <ele>4.8</ele>
        <time>2021-07-20T07:45:50Z</time>
      </trkpt>
      <trkpt lat="43.11097" lon="3.10464">
        <ele>-2.2079318</ele>
        <time>2021-07-20T07:45:51Z</time>
      </trkpt>
      <trkpt lat="43.11098" lon="3.10468">
        <ele>4.8</ele>
        <time>2021-07-20T07:45:52Z</time>
      </trkpt>
      <trkpt lat="43.111" lon="3.10471">
        <ele>4.8</ele>
        <time>2021-07-20T07:45:53Z</time>
      </trkpt>
      <trkpt lat="43.11102" lon="3.10474">
        <ele>4.8</ele>
        <time>2021-07-20T07:45:54Z</time>
      </trkpt>
      <trkpt lat="43.11104" lon="3.10474">
        <ele>4.7</ele>
        <time>2021-07-20T07:45:55Z</time>
      </trkpt>
      <trkpt lat="43.11107" lon="3.10474">
        <ele>4.7</ele>
        <time>2021-07-20T07:45:56Z</time>
      </trkpt>
      <trkpt lat="43.11109" lon="3.10472">
        <ele>4.7</ele>
        <time>2021-07-20T07:45:57Z</time>
      </trkpt>
      <trkpt lat="43.11111" lon="3.1047">
        <ele>4.7</ele>
        <time>2021-07-20T07:45:58Z</time>
      </trkpt>
      <trkpt lat="43.11112" lon="3.10467">
        <ele>4.7</ele>
        <time>2021-07-20T07:45:59Z</time>
      </trkpt>
      <trkpt lat="43.11113" lon="3.10465">
        <ele>4.6</ele>
        <time>2021-07-20T07:46:00Z</time>
      </trkpt>
      <trkpt lat="43.11115" lon="3.10464">
        <ele>-2.1363418</ele>
        <time>2021-07-20T07:46:01Z</time>
      </trkpt>
      <trkpt lat="43.11116" lon="3.10464">
        <ele>4.6</ele>
        <time>2021-07-20T07:46:02Z</time>
      </trkpt>
      <trkpt lat="43.11118" lon="3.10463">
        <ele>4.6</ele>
        <time>2021-07-20T07:46:03Z</time>
      </trkpt>
      <trkpt lat="43.1112" lon="3.10464">
        <ele>4.6</ele>
        <time>2021-07-20T07:46:04Z</time>
      </trkpt>
      <trkpt lat="43.11121" lon="3.10466">
        <ele>4.5</ele>
        <time>2021-07-20T07:46:05Z</time>
      </trkpt>
      <trkpt lat="43.11123" lon="3.10467">
        <ele>4.5</ele>
        <time>2021-07-20T07:46:06Z</time>
      </trkpt>
      <trkpt lat="43.11124" lon="3.1047">
        <ele>4.5</ele>
        <time>2021-07-20T07:46:07Z</time>
      </trkpt>
      <trkpt lat="43.11124" lon="3.10473">
        <ele>4.5</ele>
        <time>2021-07-20T07:46:08Z</time>
      </trkpt>
      <trkpt lat="43.11124" lon="3.10476">
        <ele>4.5</ele>
        <time>2021-07-20T07:46:09Z</time>
      </trkpt>
      <trkpt lat="43.11123" lon="3.10478">
        <ele>4.5</ele>
        <time>2021-07-20T07:46:10Z</time>
      </trkpt>
      <trkpt lat="43.11121" lon="3.1048">
        <ele>-2.109366</ele>
        <time>2021-07-20T07:46:11Z</time>
      </trkpt>
      <trkpt lat="43.1112" lon="3.10483">
        <ele>4.6</ele>
        <time>2021-07-20T07:46:12Z</time>
      </trkpt>
      <trkpt lat="43.11119" lon="3.10486">
        <ele>4.6</ele>
        <time>2021-07-20T07:46:13Z</time>
      </trkpt>
      <trkpt lat="43.11119" lon="3.1049">
        <ele>4.6</ele>
        <time>2021-07-20T07:46:14Z</time>
      </trkpt>
      <trkpt lat="43.1112" lon="3.10493">
        <ele>4.6</ele>
        <time>2021-07-20T07:46:15Z</time>
      </trkpt>
      <trkpt lat="43.11121" lon="3.10496">
        <ele>4.5</ele>
        <time>2021-07-20T07:46:16Z</time>
      </trkpt>
      <trkpt lat="43.11123" lon="3.10497">
        <ele>4.5</ele>
        <time>2021-07-20T07:46:17Z</time>
      </trkpt>
      <trkpt lat="43.11123" lon="3.10498">
        <ele>4.5</ele>
        <time>2021-07-20T07:46:18Z</time>
      </trkpt>
      <trkpt lat="43.11123" lon="3.10497">
        <ele>4.5</ele>
        <time>2021-07-20T07:46:19Z</time>
      </trkpt>
      <trkpt lat="43.11123" lon="3.10497">
        <ele>4.5</ele>
        <time>2021-07-20T07:46:20Z</time>
      </trkpt>
      <trkpt lat="43.11123" lon="3.10497">
        <ele>4.5</ele>
        <time>2021-07-20T07:46:21Z</time>
      </trkpt>
      <trkpt lat="43.11123" lon="3.10497">
        <ele>-2.171618</ele>
        <time>2021-07-20T07:46:22Z</time>
      </trkpt>
      <trkpt lat="43.11123" lon="3.10497">
        <ele>4.5</ele>
        <time>2021-07-20T07:46:23Z</time>
      </trkpt>
      <trkpt lat="43.11123" lon="3.10497">
        <ele>4.5</ele>
        <time>2021-07-20T07:46:24Z</time>
      </trkpt>
      <trkpt lat="43.11123" lon="3.10497">
        <ele>4.5</ele>
        <time>2021-07-20T07:46:25Z</time>
      </trkpt>
      <trkpt lat="43.11123" lon="3.10497">
        <ele>4.5</ele>
        <time>2021-07-20T07:46:26Z</time>
      </trkpt>
      <trkpt lat="43.11123" lon="3.10497">
        <ele>4.5</ele>
        <time>2021-07-20T07:46:27Z</time>
      </trkpt>
      <trkpt lat="43.11123" lon="3.10497">
        <ele>4.5</ele>
        <time>2021-07-20T07:46:28Z</time>
      </trkpt>
      <trkpt lat="43.11123" lon="3.10497">
        <ele>4.5</ele>
        <time>2021-07-20T07:46:29Z</time>
      </trkpt>
      <trkpt lat="43.11123" lon="3.10497">
        <ele>4.5</ele>
        <time>2021-07-20T07:46:30Z</time>
      </trkpt>
      <trkpt lat="43.11124" lon="3.10497">
        <ele>4.5</ele>
        <time>2021-07-20T07:46:31Z</time>
      </trkpt>
      <trkpt lat="43.11125" lon="3.10498">
        <ele>-2.0523012</ele>
        <time>2021-07-20T07:46:32Z</time>
      </trkpt>
      <trkpt lat="43.11127" lon="3.105">
        <ele>4.5</ele>
        <time>2021-07-20T07:46:33Z</time>
      </trkpt>
      <trkpt lat="43.11128" lon="3.10502">
        <ele>4.5</ele>
        <time>2021-07-20T07:46:34Z</time>
      </trkpt>
      <trkpt lat="43.11129" lon="3.10505">
        <ele>4.5</ele>
        <time>2021-07-20T07:46:35Z</time>
      </trkpt>
      <trkpt lat="43.11131" lon="3.10508">
        <ele>4.5</ele>
        <time>2021-07-20T07:46:36Z</time>
      </trkpt>
      <trkpt lat="43.11133" lon="3.10511">
        <ele>4.5</ele>
        <time>2021-07-20T07:46:37Z</time>
      </trkpt>
      <trkpt lat="43.11134" lon="3.10515">
        <ele>4.5</ele>
        <time>2021-07-20T07:46:38Z</time>
      </trkpt>
      <trkpt lat="43.11136" lon="3.10519">
        <ele>4.5</ele>
        <time>2021-07-20T07:46:39Z</time>
      </trkpt>
      <trkpt lat="43.11138" lon="3.10522">
        <ele>4.5</ele>
        <time>2021-07-20T07:46:40Z</time>
      </trkpt>
      <trkpt lat="43.11139" lon="3.10527">
        <ele>4.5</ele>
        <time>2021-07-20T07:46:41Z</time>
      </trkpt>
      <trkpt lat="43.11141" lon="3.10531">
        <ele>-2.131154</ele>
        <time>2021-07-20T07:46:42Z</time>
      </trkpt>
      <trkpt lat="43.11142" lon="3.10535">
        <ele>4.6</ele>
        <time>2021-07-20T07:46:43Z</time>
      </trkpt>
      <trkpt lat="43.11143" lon="3.1054">
        <ele>4.6</ele>
        <time>2021-07-20T07:46:44Z</time>
      </trkpt>
      <trkpt lat="43.11145" lon="3.10545">
        <ele>4.7</ele>
        <time>2021-07-20T07:46:45Z</time>
      </trkpt>
      <trkpt lat="43.11147" lon="3.1055">
        <ele>4.7</ele>
        <time>2021-07-20T07:46:46Z</time>
      </trkpt>
      <trkpt lat="43.11149" lon="3.10554">
        <ele>4.7</ele>
        <time>2021-07-20T07:46:47Z</time>
      </trkpt>
      <trkpt lat="43.11151" lon="3.10559">
        <ele>4.8</ele>
        <time>2021-07-20T07:46:48Z</time>
      </trkpt>
      <trkpt lat="43.11153" lon="3.10564">
        <ele>4.8</ele>
        <time>2021-07-20T07:46:49Z</time>
      </trkpt>
      <trkpt lat="43.11156" lon="3.10569">
        <ele>4.9</ele>
        <time>2021-07-20T07:46:50Z</time>
      </trkpt>
      <trkpt lat="43.11158" lon="3.10574">
        <ele>4.9</ele>
        <time>2021-07-20T07:46:51Z</time>
      </trkpt>
      <trkpt lat="43.1116" lon="3.10579">
        <ele>-1.7669761</ele>
        <time>2021-07-20T07:46:52Z</time>
      </trkpt>
      <trkpt lat="43.11162" lon="3.10584">
        <ele>5</ele>
        <time>2021-07-20T07:46:53Z</time>
      </trkpt>
      <trkpt lat="43.11165" lon="3.10588">
        <ele>4.9</ele>
        <time>2021-07-20T07:46:54Z</time>
      </trkpt>
      <trkpt lat="43.11168" lon="3.10592">
        <ele>4.8</ele>
        <time>2021-07-20T07:46:55Z</time>
      </trkpt>
      <trkpt lat="43.11172" lon="3.10595">
        <ele>4.8</ele>
        <time>2021-07-20T07:46:56Z</time>
      </trkpt>
      <trkpt lat="43.11176" lon="3.10599">
        <ele>4.7</ele>
        <time>2021-07-20T07:46:57Z</time>
      </trkpt>
      <trkpt lat="43.11179" lon="3.10604">
        <ele>4.6</ele>
        <time>2021-07-20T07:46:58Z</time>
      </trkpt>
      <trkpt lat="43.11181" lon="3.10609">
        <ele>4.6</ele>
        <time>2021-07-20T07:46:59Z</time>
      </trkpt>
      <trkpt lat="43.11184" lon="3.10614">
        <ele>4.5</ele>
        <time>2021-07-20T07:47:00Z</time>
      </trkpt>
      <trkpt lat="43.11186" lon="3.10619">
        <ele>4.4</ele>
        <time>2021-07-20T07:47:01Z</time>
      </trkpt>
      <trkpt lat="43.11189" lon="3.10625">
        <ele>-1.5262628</ele>
        <time>2021-07-20T07:47:02Z</time>
      </trkpt>
      <trkpt lat="43.1119" lon="3.10631">
        <ele>4.1</ele>
        <time>2021-07-20T07:47:03Z</time>
      </trkpt>
      <trkpt lat="43.11193" lon="3.10636">
        <ele>4</ele>
        <time>2021-07-20T07:47:04Z</time>
      </trkpt>
      <trkpt lat="43.11196" lon="3.10642">
        <ele>4</ele>
        <time>2021-07-20T07:47:05Z</time>
      </trkpt>
      <trkpt lat="43.11198" lon="3.10647">
        <ele>3.8</ele>
        <time>2021-07-20T07:47:06Z</time>
      </trkpt>
      <trkpt lat="43.11201" lon="3.10653">
        <ele>3.7</ele>
        <time>2021-07-20T07:47:07Z</time>
      </trkpt>
      <trkpt lat="43.11203" lon="3.10658">
        <ele>3.6</ele>
        <time>2021-07-20T07:47:08Z</time>
      </trkpt>
      <trkpt lat="43.11206" lon="3.10663">
        <ele>3.5</ele>
        <time>2021-07-20T07:47:09Z</time>
      </trkpt>
      <trkpt lat="43.11208" lon="3.10669">
        <ele>3.5</ele>
        <time>2021-07-20T07:47:10Z</time>
      </trkpt>
      <trkpt lat="43.11211" lon="3.10675">
        <ele>3.4</ele>
        <time>2021-07-20T07:47:11Z</time>
      </trkpt>
      <trkpt lat="43.11213" lon="3.1068">
        <ele>-1.4536332</ele>
        <time>2021-07-20T07:47:12Z</time>
      </trkpt>
      <trkpt lat="43.11216" lon="3.10686">
        <ele>3.2</ele>
        <time>2021-07-20T07:47:13Z</time>
      </trkpt>
      <trkpt lat="43.11218" lon="3.10691">
        <ele>3.1</ele>
        <time>2021-07-20T07:47:14Z</time>
      </trkpt>
      <trkpt lat="43.11221" lon="3.10697">
        <ele>3.1</ele>
        <time>2021-07-20T07:47:15Z</time>
      </trkpt>
      <trkpt lat="43.11224" lon="3.10702">
        <ele>3</ele>
        <time>2021-07-20T07:47:16Z</time>
      </trkpt>
      <trkpt lat="43.11226" lon="3.10708">
        <ele>2.9</ele>
        <time>2021-07-20T07:47:17Z</time>
      </trkpt>
      <trkpt lat="43.11229" lon="3.10714">
        <ele>2.8</ele>
        <time>2021-07-20T07:47:18Z</time>
      </trkpt>
      <trkpt lat="43.11231" lon="3.10719">
        <ele>2.7</ele>
        <time>2021-07-20T07:47:19Z</time>
      </trkpt>
      <trkpt lat="43.11234" lon="3.10725">
        <ele>2.5</ele>
        <time>2021-07-20T07:47:20Z</time>
      </trkpt>
      <trkpt lat="43.11236" lon="3.10731">
        <ele>-1.4484454</ele>
        <time>2021-07-20T07:47:21Z</time>
      </trkpt>
      <trkpt lat="43.11239" lon="3.10736">
        <ele>2.3</ele>
        <time>2021-07-20T07:47:22Z</time>
      </trkpt>
      <trkpt lat="43.11241" lon="3.10742">
        <ele>2.2</ele>
        <time>2021-07-20T07:47:23Z</time>
      </trkpt>
      <trkpt lat="43.11244" lon="3.10747">
        <ele>2.1</ele>
        <time>2021-07-20T07:47:24Z</time>
      </trkpt>
      <trkpt lat="43.11246" lon="3.10752">
        <ele>2</ele>
        <time>2021-07-20T07:47:25Z</time>
      </trkpt>
      <trkpt lat="43.11248" lon="3.10757">
        <ele>2</ele>
        <time>2021-07-20T07:47:26Z</time>
      </trkpt>
      <trkpt lat="43.11251" lon="3.10761">
        <ele>2.3</ele>
        <time>2021-07-20T07:47:27Z</time>
      </trkpt>
      <trkpt lat="43.11253" lon="3.10765">
        <ele>2.4</ele>
        <time>2021-07-20T07:47:28Z</time>
      </trkpt>
      <trkpt lat="43.11255" lon="3.10769">
        <ele>2.5</ele>
        <time>2021-07-20T07:47:29Z</time>
      </trkpt>
      <trkpt lat="43.11258" lon="3.10773">
        <ele>2.6</ele>
        <time>2021-07-20T07:47:30Z</time>
      </trkpt>
      <trkpt lat="43.1126" lon="3.10778">
        <ele>-1.3706278</ele>
        <time>2021-07-20T07:47:31Z</time>
      </trkpt>
      <trkpt lat="43.11261" lon="3.10782">
        <ele>2.8</ele>
        <time>2021-07-20T07:47:32Z</time>
      </trkpt>
      <trkpt lat="43.11263" lon="3.10786">
        <ele>2.9</ele>
        <time>2021-07-20T07:47:33Z</time>
      </trkpt>
      <trkpt lat="43.11266" lon="3.10791">
        <ele>3</ele>
        <time>2021-07-20T07:47:34Z</time>
      </trkpt>
      <trkpt lat="43.11268" lon="3.10796">
        <ele>3.1</ele>
        <time>2021-07-20T07:47:35Z</time>
      </trkpt>
      <trkpt lat="43.1127" lon="3.10801">
        <ele>3.2</ele>
        <time>2021-07-20T07:47:36Z</time>
      </trkpt>
      <trkpt lat="43.11272" lon="3.10806">
        <ele>3.3</ele>
        <time>2021-07-20T07:47:37Z</time>
      </trkpt>
      <trkpt lat="43.11275" lon="3.1081">
        <ele>3.5</ele>
        <time>2021-07-20T07:47:38Z</time>
      </trkpt>
      <trkpt lat="43.11277" lon="3.10815">
        <ele>3.6</ele>
        <time>2021-07-20T07:47:39Z</time>
      </trkpt>
      <trkpt lat="43.11279" lon="3.10819">
        <ele>3.7</ele>
        <time>2021-07-20T07:47:40Z</time>
      </trkpt>
      <trkpt lat="43.1128" lon="3.10823">
        <ele>-1.8541304</ele>
        <time>2021-07-20T07:47:41Z</time>
      </trkpt>
      <trkpt lat="43.11282" lon="3.10826">
        <ele>3.8</ele>
        <time>2021-07-20T07:47:42Z</time>
      </trkpt>
      <trkpt lat="43.11284" lon="3.1083">
        <ele>3.9</ele>
        <time>2021-07-20T07:47:43Z</time>
      </trkpt>
      <trkpt lat="43.11285" lon="3.10833">
        <ele>4</ele>
        <time>2021-07-20T07:47:44Z</time>
      </trkpt>
      <trkpt lat="43.11287" lon="3.10837">
        <ele>4</ele>
        <time>2021-07-20T07:47:45Z</time>
      </trkpt>
      <trkpt lat="43.11289" lon="3.1084">
        <ele>4</ele>
        <time>2021-07-20T07:47:46Z</time>
      </trkpt>
      <trkpt lat="43.1129" lon="3.10844">
        <ele>4</ele>
        <time>2021-07-20T07:47:47Z</time>
      </trkpt>
      <trkpt lat="43.11292" lon="3.10847">
        <ele>4</ele>
        <time>2021-07-20T07:47:48Z</time>
      </trkpt>
      <trkpt lat="43.11294" lon="3.10851">
        <ele>4</ele>
        <time>2021-07-20T07:47:49Z</time>
      </trkpt>
      <trkpt lat="43.11296" lon="3.10854">
        <ele>4</ele>
        <time>2021-07-20T07:47:50Z</time>
      </trkpt>
      <trkpt lat="43.11297" lon="3.10858">
        <ele>-1.9962741</ele>
        <time>2021-07-20T07:47:51Z</time>
      </trkpt>
      <trkpt lat="43.11299" lon="3.10862">
        <ele>4</ele>
        <time>2021-07-20T07:47:52Z</time>
      </trkpt>
      <trkpt lat="43.113" lon="3.10865">
        <ele>4</ele>
        <time>2021-07-20T07:47:53Z</time>
      </trkpt>
      <trkpt lat="43.11302" lon="3.10869">
        <ele>4</ele>
        <time>2021-07-20T07:47:54Z</time>
      </trkpt>
      <trkpt lat="43.11304" lon="3.10873">
        <ele>4</ele>
        <time>2021-07-20T07:47:55Z</time>
      </trkpt>
      <trkpt lat="43.11305" lon="3.10876">
        <ele>4</ele>
        <time>2021-07-20T07:47:56Z</time>
      </trkpt>
      <trkpt lat="43.11307" lon="3.1088">
        <ele>4</ele>
        <time>2021-07-20T07:47:57Z</time>
      </trkpt>
      <trkpt lat="43.11308" lon="3.10884">
        <ele>4</ele>
        <time>2021-07-20T07:47:58Z</time>
      </trkpt>
      <trkpt lat="43.1131" lon="3.10887">
        <ele>4</ele>
        <time>2021-07-20T07:47:59Z</time>
      </trkpt>
      <trkpt lat="43.11312" lon="3.10891">
        <ele>4</ele>
        <time>2021-07-20T07:48:00Z</time>
      </trkpt>
      <trkpt lat="43.11314" lon="3.10894">
        <ele>4</ele>
        <time>2021-07-20T07:48:01Z</time>
      </trkpt>
      <trkpt lat="43.11316" lon="3.10898">
        <ele>-2.1301167</ele>
        <time>2021-07-20T07:48:02Z</time>
      </trkpt>
      <trkpt lat="43.11317" lon="3.10902">
        <ele>4</ele>
        <time>2021-07-20T07:48:03Z</time>
      </trkpt>
      <trkpt lat="43.11319" lon="3.10905">
        <ele>4</ele>
        <time>2021-07-20T07:48:04Z</time>
      </trkpt>
      <trkpt lat="43.11321" lon="3.10909">
        <ele>4</ele>
        <time>2021-07-20T07:48:05Z</time>
      </trkpt>
      <trkpt lat="43.11322" lon="3.10912">
        <ele>4</ele>
        <time>2021-07-20T07:48:06Z</time>
      </trkpt>
      <trkpt lat="43.11324" lon="3.10916">
        <ele>4</ele>
        <time>2021-07-20T07:48:07Z</time>
      </trkpt>
      <trkpt lat="43.11326" lon="3.1092">
        <ele>4</ele>
        <time>2021-07-20T07:48:08Z</time>
      </trkpt>
      <trkpt lat="43.11327" lon="3.10924">
        <ele>4</ele>
        <time>2021-07-20T07:48:09Z</time>
      </trkpt>
      <trkpt lat="43.11329" lon="3.10927">
        <ele>4</ele>
        <time>2021-07-20T07:48:10Z</time>
      </trkpt>
      <trkpt lat="43.1133" lon="3.10931">
        <ele>4</ele>
        <time>2021-07-20T07:48:11Z</time>
      </trkpt>
      <trkpt lat="43.11332" lon="3.10934">
        <ele>-1.9858986</ele>
        <time>2021-07-20T07:48:12Z</time>
      </trkpt>
      <trkpt lat="43.11333" lon="3.10938">
        <ele>4</ele>
        <time>2021-07-20T07:48:13Z</time>
      </trkpt>
      <trkpt lat="43.11334" lon="3.10942">
        <ele>4</ele>
        <time>2021-07-20T07:48:14Z</time>
      </trkpt>
      <trkpt lat="43.11335" lon="3.10946">
        <ele>4</ele>
        <time>2021-07-20T07:48:15Z</time>
      </trkpt>
      <trkpt lat="43.11337" lon="3.1095">
        <ele>4.1</ele>
        <time>2021-07-20T07:48:16Z</time>
      </trkpt>
      <trkpt lat="43.11338" lon="3.10955">
        <ele>4.1</ele>
        <time>2021-07-20T07:48:17Z</time>
      </trkpt>
      <trkpt lat="43.11339" lon="3.10959">
        <ele>4.1</ele>
        <time>2021-07-20T07:48:18Z</time>
      </trkpt>
      <trkpt lat="43.1134" lon="3.10963">
        <ele>4.1</ele>
        <time>2021-07-20T07:48:19Z</time>
      </trkpt>
      <trkpt lat="43.11342" lon="3.10967">
        <ele>4.1</ele>
        <time>2021-07-20T07:48:20Z</time>
      </trkpt>
      <trkpt lat="43.11343" lon="3.10971">
        <ele>4.2</ele>
        <time>2021-07-20T07:48:21Z</time>
      </trkpt>
      <trkpt lat="43.11344" lon="3.10975">
        <ele>-1.9890113</ele>
        <time>2021-07-20T07:48:22Z</time>
      </trkpt>
      <trkpt lat="43.11345" lon="3.10979">
        <ele>4.2</ele>
        <time>2021-07-20T07:48:23Z</time>
      </trkpt>
      <trkpt lat="43.11346" lon="3.10983">
        <ele>4.2</ele>
        <time>2021-07-20T07:48:24Z</time>
      </trkpt>
      <trkpt lat="43.11348" lon="3.10988">
        <ele>4.2</ele>
        <time>2021-07-20T07:48:25Z</time>
      </trkpt>
      <trkpt lat="43.11349" lon="3.10992">
        <ele>4.2</ele>
        <time>2021-07-20T07:48:26Z</time>
      </trkpt>
      <trkpt lat="43.1135" lon="3.10996">
        <ele>4.2</ele>
        <time>2021-07-20T07:48:27Z</time>
      </trkpt>
      <trkpt lat="43.11351" lon="3.11">
        <ele>4.2</ele>
        <time>2021-07-20T07:48:28Z</time>
      </trkpt>
      <trkpt lat="43.11352" lon="3.11004">
        <ele>4.1</ele>
        <time>2021-07-20T07:48:29Z</time>
      </trkpt>
      <trkpt lat="43.11353" lon="3.11007">
        <ele>4.1</ele>
        <time>2021-07-20T07:48:30Z</time>
      </trkpt>
      <trkpt lat="43.11354" lon="3.11011">
        <ele>4</ele>
        <time>2021-07-20T07:48:31Z</time>
      </trkpt>
      <trkpt lat="43.11356" lon="3.11015">
        <ele>-1.8883694</ele>
        <time>2021-07-20T07:48:32Z</time>
      </trkpt>
      <trkpt lat="43.11357" lon="3.11019">
        <ele>3.8</ele>
        <time>2021-07-20T07:48:33Z</time>
      </trkpt>
      <trkpt lat="43.11359" lon="3.11024">
        <ele>3.7</ele>
        <time>2021-07-20T07:48:34Z</time>
      </trkpt>
      <trkpt lat="43.1136" lon="3.11029">
        <ele>3.6</ele>
        <time>2021-07-20T07:48:35Z</time>
      </trkpt>
      <trkpt lat="43.11361" lon="3.11033">
        <ele>3.5</ele>
        <time>2021-07-20T07:48:36Z</time>
      </trkpt>
      <trkpt lat="43.11363" lon="3.11038">
        <ele>3.4</ele>
        <time>2021-07-20T07:48:37Z</time>
      </trkpt>
      <trkpt lat="43.11364" lon="3.11043">
        <ele>3.3</ele>
        <time>2021-07-20T07:48:38Z</time>
      </trkpt>
      <trkpt lat="43.11364" lon="3.11048">
        <ele>3.2</ele>
        <time>2021-07-20T07:48:39Z</time>
      </trkpt>
      <trkpt lat="43.11365" lon="3.11053">
        <ele>3.1</ele>
        <time>2021-07-20T07:48:40Z</time>
      </trkpt>
      <trkpt lat="43.11366" lon="3.11058">
        <ele>3</ele>
        <time>2021-07-20T07:48:41Z</time>
      </trkpt>
      <trkpt lat="43.11367" lon="3.11062">
        <ele>-1.8427174</ele>
        <time>2021-07-20T07:48:42Z</time>
      </trkpt>
      <trkpt lat="43.11369" lon="3.11067">
        <ele>2.8</ele>
        <time>2021-07-20T07:48:43Z</time>
      </trkpt>
      <trkpt lat="43.11371" lon="3.11072">
        <ele>2.7</ele>
        <time>2021-07-20T07:48:44Z</time>
      </trkpt>
      <trkpt lat="43.11372" lon="3.11076">
        <ele>2.6</ele>
        <time>2021-07-20T07:48:45Z</time>
      </trkpt>
      <trkpt lat="43.11373" lon="3.1108">
        <ele>2.6</ele>
        <time>2021-07-20T07:48:46Z</time>
      </trkpt>
      <trkpt lat="43.11374" lon="3.11085">
        <ele>2.5</ele>
        <time>2021-07-20T07:48:47Z</time>
      </trkpt>
      <trkpt lat="43.11375" lon="3.11089">
        <ele>2.5</ele>
        <time>2021-07-20T07:48:48Z</time>
      </trkpt>
      <trkpt lat="43.11377" lon="3.11094">
        <ele>2.6</ele>
        <time>2021-07-20T07:48:49Z</time>
      </trkpt>
      <trkpt lat="43.11378" lon="3.11098">
        <ele>2.6</ele>
        <time>2021-07-20T07:48:50Z</time>
      </trkpt>
      <trkpt lat="43.11379" lon="3.11103">
        <ele>2.7</ele>
        <time>2021-07-20T07:48:51Z</time>
      </trkpt>
      <trkpt lat="43.11379" lon="3.11108">
        <ele>-1.8562055</ele>
        <time>2021-07-20T07:48:52Z</time>
      </trkpt>
      <trkpt lat="43.1138" lon="3.11113">
        <ele>2.7</ele>
        <time>2021-07-20T07:48:53Z</time>
      </trkpt>
      <trkpt lat="43.11382" lon="3.11118">
        <ele>2.8</ele>
        <time>2021-07-20T07:48:54Z</time>
      </trkpt>
      <trkpt lat="43.11382" lon="3.11123">
        <ele>2.8</ele>
        <time>2021-07-20T07:48:55Z</time>
      </trkpt>
      <trkpt lat="43.11383" lon="3.11127">
        <ele>2.8</ele>
        <time>2021-07-20T07:48:56Z</time>
      </trkpt>
      <trkpt lat="43.11385" lon="3.11132">
        <ele>2.8</ele>
        <time>2021-07-20T07:48:57Z</time>
      </trkpt>
      <trkpt lat="43.11386" lon="3.11137">
        <ele>2.9</ele>
        <time>2021-07-20T07:48:58Z</time>
      </trkpt>
      <trkpt lat="43.11387" lon="3.11141">
        <ele>2.9</ele>
        <time>2021-07-20T07:48:59Z</time>
      </trkpt>
      <trkpt lat="43.11388" lon="3.11146">
        <ele>2.9</ele>
        <time>2021-07-20T07:49:00Z</time>
      </trkpt>
      <trkpt lat="43.11389" lon="3.1115">
        <ele>-1.8053656</ele>
        <time>2021-07-20T07:49:01Z</time>
      </trkpt>
      <trkpt lat="43.1139" lon="3.11154">
        <ele>3</ele>
        <time>2021-07-20T07:49:02Z</time>
      </trkpt>
      <trkpt lat="43.11391" lon="3.11159">
        <ele>3</ele>
        <time>2021-07-20T07:49:03Z</time>
      </trkpt>
      <trkpt lat="43.11392" lon="3.11164">
        <ele>3</ele>
        <time>2021-07-20T07:49:04Z</time>
      </trkpt>
      <trkpt lat="43.11394" lon="3.11168">
        <ele>3</ele>
        <time>2021-07-20T07:49:05Z</time>
      </trkpt>
      <trkpt lat="43.11395" lon="3.11173">
        <ele>2.9</ele>
        <time>2021-07-20T07:49:06Z</time>
      </trkpt>
      <trkpt lat="43.11396" lon="3.11178">
        <ele>2.7</ele>
        <time>2021-07-20T07:49:07Z</time>
      </trkpt>
      <trkpt lat="43.11397" lon="3.11183">
        <ele>2.6</ele>
        <time>2021-07-20T07:49:08Z</time>
      </trkpt>
      <trkpt lat="43.11398" lon="3.11187">
        <ele>2.5</ele>
        <time>2021-07-20T07:49:09Z</time>
      </trkpt>
      <trkpt lat="43.114" lon="3.11192">
        <ele>2.4</ele>
        <time>2021-07-20T07:49:10Z</time>
      </trkpt>
      <trkpt lat="43.11401" lon="3.11197">
        <ele>-1.8230039</ele>
        <time>2021-07-20T07:49:11Z</time>
      </trkpt>
      <trkpt lat="43.11402" lon="3.11202">
        <ele>2.1</ele>
        <time>2021-07-20T07:49:12Z</time>
      </trkpt>
      <trkpt lat="43.11403" lon="3.11207">
        <ele>2</ele>
        <time>2021-07-20T07:49:13Z</time>
      </trkpt>
      <trkpt lat="43.11404" lon="3.11212">
        <ele>1.9</ele>
        <time>2021-07-20T07:49:14Z</time>
      </trkpt>
      <trkpt lat="43.11406" lon="3.11217">
        <ele>1.8</ele>
        <time>2021-07-20T07:49:15Z</time>
      </trkpt>
      <trkpt lat="43.11407" lon="3.11223">
        <ele>1.7</ele>
        <time>2021-07-20T07:49:16Z</time>
      </trkpt>
      <trkpt lat="43.11408" lon="3.11228">
        <ele>1.5</ele>
        <time>2021-07-20T07:49:17Z</time>
      </trkpt>
      <trkpt lat="43.11409" lon="3.11233">
        <ele>1.4</ele>
        <time>2021-07-20T07:49:18Z</time>
      </trkpt>
      <trkpt lat="43.1141" lon="3.11238">
        <ele>1.3</ele>
        <time>2021-07-20T07:49:19Z</time>
      </trkpt>
      <trkpt lat="43.11411" lon="3.11243">
        <ele>1.2</ele>
        <time>2021-07-20T07:49:20Z</time>
      </trkpt>
      <trkpt lat="43.11412" lon="3.11248">
        <ele>-1.7078356</ele>
        <time>2021-07-20T07:49:21Z</time>
      </trkpt>
      <trkpt lat="43.11412" lon="3.11254">
        <ele>1</ele>
        <time>2021-07-20T07:49:22Z</time>
      </trkpt>
      <trkpt lat="43.11412" lon="3.11259">
        <ele>1</ele>
        <time>2021-07-20T07:49:23Z</time>
      </trkpt>
      <trkpt lat="43.11412" lon="3.11265">
        <ele>1</ele>
        <time>2021-07-20T07:49:24Z</time>
      </trkpt>
      <trkpt lat="43.11411" lon="3.1127">
        <ele>1</ele>
        <time>2021-07-20T07:49:25Z</time>
      </trkpt>
      <trkpt lat="43.11411" lon="3.11275">
        <ele>1</ele>
        <time>2021-07-20T07:49:26Z</time>
      </trkpt>
      <trkpt lat="43.1141" lon="3.11281">
        <ele>1</ele>
        <time>2021-07-20T07:49:27Z</time>
      </trkpt>
      <trkpt lat="43.1141" lon="3.11287">
        <ele>1</ele>
        <time>2021-07-20T07:49:28Z</time>
      </trkpt>
      <trkpt lat="43.11409" lon="3.11292">
        <ele>1</ele>
        <time>2021-07-20T07:49:29Z</time>
      </trkpt>
      <trkpt lat="43.11409" lon="3.11298">
        <ele>1</ele>
        <time>2021-07-20T07:49:30Z</time>
      </trkpt>
      <trkpt lat="43.11409" lon="3.11303">
        <ele>-1.5387135</ele>
        <time>2021-07-20T07:49:31Z</time>
      </trkpt>
      <trkpt lat="43.11408" lon="3.11308">
        <ele>1</ele>
        <time>2021-07-20T07:49:32Z</time>
      </trkpt>
      <trkpt lat="43.11408" lon="3.11313">
        <ele>1</ele>
        <time>2021-07-20T07:49:33Z</time>
      </trkpt>
      <trkpt lat="43.11407" lon="3.11318">
        <ele>1</ele>
        <time>2021-07-20T07:49:34Z</time>
      </trkpt>
      <trkpt lat="43.11406" lon="3.11323">
        <ele>1</ele>
        <time>2021-07-20T07:49:35Z</time>
      </trkpt>
      <trkpt lat="43.11406" lon="3.11328">
        <ele>1</ele>
        <time>2021-07-20T07:49:36Z</time>
      </trkpt>
      <trkpt lat="43.11405" lon="3.11334">
        <ele>1</ele>
        <time>2021-07-20T07:49:37Z</time>
      </trkpt>
      <trkpt lat="43.11404" lon="3.11339">
        <ele>1.2</ele>
        <time>2021-07-20T07:49:38Z</time>
      </trkpt>
      <trkpt lat="43.11404" lon="3.11344">
        <ele>1.4</ele>
        <time>2021-07-20T07:49:39Z</time>
      </trkpt>
      <trkpt lat="43.11403" lon="3.11349">
        <ele>1.6</ele>
        <time>2021-07-20T07:49:40Z</time>
      </trkpt>
      <trkpt lat="43.11403" lon="3.11354">
        <ele>1.7</ele>
        <time>2021-07-20T07:49:41Z</time>
      </trkpt>
      <trkpt lat="43.11404" lon="3.11358">
        <ele>-1.6020048</ele>
        <time>2021-07-20T07:49:42Z</time>
      </trkpt>
      <trkpt lat="43.11406" lon="3.11361">
        <ele>2</ele>
        <time>2021-07-20T07:49:43Z</time>
      </trkpt>
      <trkpt lat="43.11409" lon="3.11363">
        <ele>1.9</ele>
        <time>2021-07-20T07:49:44Z</time>
      </trkpt>
      <trkpt lat="43.11412" lon="3.11365">
        <ele>1.9</ele>
        <time>2021-07-20T07:49:45Z</time>
      </trkpt>
      <trkpt lat="43.11415" lon="3.11366">
        <ele>1.8</ele>
        <time>2021-07-20T07:49:46Z</time>
      </trkpt>
      <trkpt lat="43.11418" lon="3.11368">
        <ele>1.8</ele>
        <time>2021-07-20T07:49:47Z</time>
      </trkpt>
      <trkpt lat="43.1142" lon="3.1137">
        <ele>1.9</ele>
        <time>2021-07-20T07:49:48Z</time>
      </trkpt>
      <trkpt lat="43.11422" lon="3.11372">
        <ele>1.9</ele>
        <time>2021-07-20T07:49:49Z</time>
      </trkpt>
      <trkpt lat="43.11423" lon="3.11374">
        <ele>2</ele>
        <time>2021-07-20T07:49:50Z</time>
      </trkpt>
      <trkpt lat="43.11424" lon="3.11375">
        <ele>2</ele>
        <time>2021-07-20T07:49:51Z</time>
      </trkpt>
      <trkpt lat="43.11425" lon="3.11376">
        <ele>-1.9350591</ele>
        <time>2021-07-20T07:49:52Z</time>
      </trkpt>
      <trkpt lat="43.11425" lon="3.11376">
        <ele>2</ele>
        <time>2021-07-20T07:49:53Z</time>
      </trkpt>
      <trkpt lat="43.11425" lon="3.11376">
        <ele>2</ele>
        <time>2021-07-20T07:49:54Z</time>
      </trkpt>
      <trkpt lat="43.11425" lon="3.11376">
        <ele>2</ele>
        <time>2021-07-20T07:49:55Z</time>
      </trkpt>
      <trkpt lat="43.11425" lon="3.11376">
        <ele>2</ele>
        <time>2021-07-20T07:49:56Z</time>
      </trkpt>
      <trkpt lat="43.11425" lon="3.11376">
        <ele>2</ele>
        <time>2021-07-20T07:49:57Z</time>
      </trkpt>
      <trkpt lat="43.11425" lon="3.11376">
        <ele>2</ele>
        <time>2021-07-20T07:49:58Z</time>
      </trkpt>
      <trkpt lat="43.11425" lon="3.11376">
        <ele>2</ele>
        <time>2021-07-20T07:49:59Z</time>
      </trkpt>
      <trkpt lat="43.11425" lon="3.11376">
        <ele>2</ele>
        <time>2021-07-20T07:50:00Z</time>
      </trkpt>
      <trkpt lat="43.11425" lon="3.11376">
        <ele>2</ele>
        <time>2021-07-20T07:50:01Z</time>
      </trkpt>
      <trkpt lat="43.11425" lon="3.11376">
        <ele>-2.1301167</ele>
        <time>2021-07-20T07:50:02Z</time>
      </trkpt>
      <trkpt lat="43.11425" lon="3.11376">
        <ele>2</ele>
        <time>2021-07-20T07:50:03Z</time>
      </trkpt>
      <trkpt lat="43.11425" lon="3.11376">
        <ele>2</ele>
        <time>2021-07-20T07:50:04Z</time>
      </trkpt>
      <trkpt lat="43.11426" lon="3.11376">
        <ele>2</ele>
        <time>2021-07-20T07:50:05Z</time>
      </trkpt>
      <trkpt lat="43.11426" lon="3.11376">
        <ele>2</ele>
        <time>2021-07-20T07:50:06Z</time>
      </trkpt>
      <trkpt lat="43.11426" lon="3.11376">
        <ele>2</ele>
        <time>2021-07-20T07:50:07Z</time>
      </trkpt>
      <trkpt lat="43.11426" lon="3.11376">
        <ele>2</ele>
        <time>2021-07-20T07:50:08Z</time>
      </trkpt>
      <trkpt lat="43.11426" lon="3.11376">
        <ele>2</ele>
        <time>2021-07-20T07:50:09Z</time>
      </trkpt>
      <trkpt lat="43.11426" lon="3.11376">
        <ele>2</ele>
        <time>2021-07-20T07:50:10Z</time>
      </trkpt>
      <trkpt lat="43.11426" lon="3.11376">
        <ele>2</ele>
        <time>2021-07-20T07:50:11Z</time>
      </trkpt>
      <trkpt lat="43.11426" lon="3.11376">
        <ele>-2.0917277</ele>
        <time>2021-07-20T07:50:12Z</time>
      </trkpt>
      <trkpt lat="43.11426" lon="3.11376">
        <ele>2</ele>
        <time>2021-07-20T07:50:13Z</time>
      </trkpt>
      <trkpt lat="43.11426" lon="3.11376">
        <ele>2</ele>
        <time>2021-07-20T07:50:14Z</time>
      </trkpt>
      <trkpt lat="43.11426" lon="3.11376">
        <ele>2</ele>
        <time>2021-07-20T07:50:15Z</time>
      </trkpt>
      <trkpt lat="43.1143" lon="3.11372">
        <ele>1.9</ele>
        <time>2021-07-20T07:52:10Z</time>
      </trkpt>
      <trkpt lat="43.11437" lon="3.1137">
        <ele>1.9</ele>
        <time>2021-07-20T07:52:10Z</time>
      </trkpt>
      <trkpt lat="43.11442" lon="3.11367">
        <ele>1.8</ele>
        <time>2021-07-20T07:52:10Z</time>
      </trkpt>
      <trkpt lat="43.11448" lon="3.11364">
        <ele>1.7</ele>
        <time>2021-07-20T07:52:10Z</time>
      </trkpt>
      <trkpt lat="43.1145" lon="3.11362">
        <ele>1.7</ele>
        <time>2021-07-20T07:52:11Z</time>
      </trkpt>
      <trkpt lat="43.11453" lon="3.11361">
        <ele>1.7</ele>
        <time>2021-07-20T07:52:12Z</time>
      </trkpt>
      <trkpt lat="43.11456" lon="3.11359">
        <ele>1.6</ele>
        <time>2021-07-20T07:52:13Z</time>
      </trkpt>
      <trkpt lat="43.1146" lon="3.11358">
        <ele>1.6</ele>
        <time>2021-07-20T07:52:14Z</time>
      </trkpt>
      <trkpt lat="43.11463" lon="3.11356">
        <ele>1.5</ele>
        <time>2021-07-20T07:52:15Z</time>
      </trkpt>
      <trkpt lat="43.11466" lon="3.11354">
        <ele>-2.1830308</ele>
        <time>2021-07-20T07:52:16Z</time>
      </trkpt>
      <trkpt lat="43.11469" lon="3.11352">
        <ele>1.5</ele>
        <time>2021-07-20T07:52:17Z</time>
      </trkpt>
      <trkpt lat="43.11472" lon="3.11351">
        <ele>1.4</ele>
        <time>2021-07-20T07:52:18Z</time>
      </trkpt>
      <trkpt lat="43.11475" lon="3.11349">
        <ele>1.4</ele>
        <time>2021-07-20T07:52:19Z</time>
      </trkpt>
      <trkpt lat="43.11478" lon="3.11347">
        <ele>1.3</ele>
        <time>2021-07-20T07:52:20Z</time>
      </trkpt>
      <trkpt lat="43.11481" lon="3.11345">
        <ele>1.3</ele>
        <time>2021-07-20T07:52:21Z</time>
      </trkpt>
      <trkpt lat="43.11483" lon="3.11344">
        <ele>1.2</ele>
        <time>2021-07-20T07:52:22Z</time>
      </trkpt>
      <trkpt lat="43.11486" lon="3.11343">
        <ele>1.2</ele>
        <time>2021-07-20T07:52:23Z</time>
      </trkpt>
      <trkpt lat="43.11488" lon="3.11342">
        <ele>1.2</ele>
        <time>2021-07-20T07:52:24Z</time>
      </trkpt>
      <trkpt lat="43.11491" lon="3.11341">
        <ele>1.2</ele>
        <time>2021-07-20T07:52:25Z</time>
      </trkpt>
      <trkpt lat="43.11493" lon="3.11339">
        <ele>-1.9329839</ele>
        <time>2021-07-20T07:52:26Z</time>
      </trkpt>
      <trkpt lat="43.11496" lon="3.11338">
        <ele>1.1</ele>
        <time>2021-07-20T07:52:27Z</time>
      </trkpt>
      <trkpt lat="43.11499" lon="3.11336">
        <ele>1.1</ele>
        <time>2021-07-20T07:52:28Z</time>
      </trkpt>
      <trkpt lat="43.11502" lon="3.11335">
        <ele>1.1</ele>
        <time>2021-07-20T07:52:29Z</time>
      </trkpt>
      <trkpt lat="43.11505" lon="3.11334">
        <ele>1.1</ele>
        <time>2021-07-20T07:52:30Z</time>
      </trkpt>
      <trkpt lat="43.11509" lon="3.11333">
        <ele>1.2</ele>
        <time>2021-07-20T07:52:31Z</time>
      </trkpt>
      <trkpt lat="43.11512" lon="3.11332">
        <ele>1.3</ele>
        <time>2021-07-20T07:52:32Z</time>
      </trkpt>
      <trkpt lat="43.11515" lon="3.1133">
        <ele>1.4</ele>
        <time>2021-07-20T07:52:33Z</time>
      </trkpt>
      <trkpt lat="43.11518" lon="3.11328">
        <ele>1.5</ele>
        <time>2021-07-20T07:52:34Z</time>
      </trkpt>
      <trkpt lat="43.11521" lon="3.11325">
        <ele>1.6</ele>
        <time>2021-07-20T07:52:35Z</time>
      </trkpt>
      <trkpt lat="43.11525" lon="3.11323">
        <ele>-1.8198912</ele>
        <time>2021-07-20T07:52:36Z</time>
      </trkpt>
      <trkpt lat="43.11528" lon="3.11321">
        <ele>1.8</ele>
        <time>2021-07-20T07:52:37Z</time>
      </trkpt>
      <trkpt lat="43.11532" lon="3.1132">
        <ele>1.9</ele>
        <time>2021-07-20T07:52:38Z</time>
      </trkpt>
      <trkpt lat="43.11535" lon="3.11318">
        <ele>2</ele>
        <time>2021-07-20T07:52:39Z</time>
      </trkpt>
      <trkpt lat="43.11539" lon="3.11316">
        <ele>2.1</ele>
        <time>2021-07-20T07:52:40Z</time>
      </trkpt>
      <trkpt lat="43.11542" lon="3.11314">
        <ele>2.2</ele>
        <time>2021-07-20T07:52:41Z</time>
      </trkpt>
      <trkpt lat="43.11546" lon="3.11313">
        <ele>2.3</ele>
        <time>2021-07-20T07:52:42Z</time>
      </trkpt>
      <trkpt lat="43.11549" lon="3.11312">
        <ele>2.4</ele>
        <time>2021-07-20T07:52:43Z</time>
      </trkpt>
      <trkpt lat="43.11553" lon="3.11311">
        <ele>2.5</ele>
        <time>2021-07-20T07:52:44Z</time>
      </trkpt>
      <trkpt lat="43.11556" lon="3.1131">
        <ele>2.6</ele>
        <time>2021-07-20T07:52:45Z</time>
      </trkpt>
      <trkpt lat="43.1156" lon="3.11309">
        <ele>-1.5978545</ele>
        <time>2021-07-20T07:52:46Z</time>
      </trkpt>
      <trkpt lat="43.11564" lon="3.11308">
        <ele>2.8</ele>
        <time>2021-07-20T07:52:47Z</time>
      </trkpt>
      <trkpt lat="43.11567" lon="3.11306">
        <ele>2.9</ele>
        <time>2021-07-20T07:52:48Z</time>
      </trkpt>
      <trkpt lat="43.1157" lon="3.11305">
        <ele>3</ele>
        <time>2021-07-20T07:52:49Z</time>
      </trkpt>
      <trkpt lat="43.11574" lon="3.11304">
        <ele>3.1</ele>
        <time>2021-07-20T07:52:50Z</time>
      </trkpt>
      <trkpt lat="43.11578" lon="3.11303">
        <ele>3.2</ele>
        <time>2021-07-20T07:52:51Z</time>
      </trkpt>
      <trkpt lat="43.11581" lon="3.11302">
        <ele>3.3</ele>
        <time>2021-07-20T07:52:52Z</time>
      </trkpt>
      <trkpt lat="43.11585" lon="3.11301">
        <ele>3.4</ele>
        <time>2021-07-20T07:52:53Z</time>
      </trkpt>
      <trkpt lat="43.11588" lon="3.113">
        <ele>3.3</ele>
        <time>2021-07-20T07:52:54Z</time>
      </trkpt>
      <trkpt lat="43.11591" lon="3.113">
        <ele>3.3</ele>
        <time>2021-07-20T07:52:55Z</time>
      </trkpt>
      <trkpt lat="43.11594" lon="3.11299">
        <ele>-1.539751</ele>
        <time>2021-07-20T07:52:56Z</time>
      </trkpt>
      <trkpt lat="43.11597" lon="3.11299">
        <ele>3.2</ele>
        <time>2021-07-20T07:52:57Z</time>
      </trkpt>
      <trkpt lat="43.116" lon="3.11298">
        <ele>3.1</ele>
        <time>2021-07-20T07:52:58Z</time>
      </trkpt>
      <trkpt lat="43.11604" lon="3.11297">
        <ele>3.1</ele>
        <time>2021-07-20T07:52:59Z</time>
      </trkpt>
      <trkpt lat="43.11607" lon="3.11296">
        <ele>3</ele>
        <time>2021-07-20T07:53:00Z</time>
      </trkpt>
      <trkpt lat="43.1161" lon="3.11295">
        <ele>3</ele>
        <time>2021-07-20T07:53:01Z</time>
      </trkpt>
      <trkpt lat="43.11614" lon="3.11295">
        <ele>2.9</ele>
        <time>2021-07-20T07:53:02Z</time>
      </trkpt>
      <trkpt lat="43.11617" lon="3.11294">
        <ele>2.9</ele>
        <time>2021-07-20T07:53:03Z</time>
      </trkpt>
      <trkpt lat="43.1162" lon="3.11294">
        <ele>2.8</ele>
        <time>2021-07-20T07:53:04Z</time>
      </trkpt>
      <trkpt lat="43.11623" lon="3.11294">
        <ele>-1.5013613</ele>
        <time>2021-07-20T07:53:05Z</time>
      </trkpt>
      <trkpt lat="43.11626" lon="3.11293">
        <ele>2.7</ele>
        <time>2021-07-20T07:53:06Z</time>
      </trkpt>
      <trkpt lat="43.11629" lon="3.11293">
        <ele>2.7</ele>
        <time>2021-07-20T07:53:07Z</time>
      </trkpt>
      <trkpt lat="43.11632" lon="3.11292">
        <ele>2.6</ele>
        <time>2021-07-20T07:53:08Z</time>
      </trkpt>
      <trkpt lat="43.11635" lon="3.11291">
        <ele>2.6</ele>
        <time>2021-07-20T07:53:09Z</time>
      </trkpt>
      <trkpt lat="43.11638" lon="3.11291">
        <ele>2.5</ele>
        <time>2021-07-20T07:53:10Z</time>
      </trkpt>
      <trkpt lat="43.11641" lon="3.1129">
        <ele>2.5</ele>
        <time>2021-07-20T07:53:11Z</time>
      </trkpt>
      <trkpt lat="43.11644" lon="3.11289">
        <ele>2.4</ele>
        <time>2021-07-20T07:53:12Z</time>
      </trkpt>
      <trkpt lat="43.11648" lon="3.11289">
        <ele>2.3</ele>
        <time>2021-07-20T07:53:13Z</time>
      </trkpt>
      <trkpt lat="43.11651" lon="3.11288">
        <ele>2.3</ele>
        <time>2021-07-20T07:53:14Z</time>
      </trkpt>
      <trkpt lat="43.11654" lon="3.11287">
        <ele>-1.2772462</ele>
        <time>2021-07-20T07:53:15Z</time>
      </trkpt>
      <trkpt lat="43.11658" lon="3.11286">
        <ele>2.2</ele>
        <time>2021-07-20T07:53:16Z</time>
      </trkpt>
      <trkpt lat="43.11661" lon="3.11286">
        <ele>2.1</ele>
        <time>2021-07-20T07:53:17Z</time>
      </trkpt>
      <trkpt lat="43.11663" lon="3.11285">
        <ele>2.1</ele>
        <time>2021-07-20T07:53:18Z</time>
      </trkpt>
      <trkpt lat="43.11667" lon="3.11284">
        <ele>2</ele>
        <time>2021-07-20T07:53:19Z</time>
      </trkpt>
      <trkpt lat="43.1167" lon="3.11283">
        <ele>2</ele>
        <time>2021-07-20T07:53:20Z</time>
      </trkpt>
      <trkpt lat="43.11673" lon="3.11283">
        <ele>2</ele>
        <time>2021-07-20T07:53:21Z</time>
      </trkpt>
      <trkpt lat="43.11675" lon="3.11282">
        <ele>2</ele>
        <time>2021-07-20T07:53:22Z</time>
      </trkpt>
      <trkpt lat="43.11678" lon="3.11282">
        <ele>2</ele>
        <time>2021-07-20T07:53:23Z</time>
      </trkpt>
      <trkpt lat="43.11681" lon="3.11281">
        <ele>2</ele>
        <time>2021-07-20T07:53:24Z</time>
      </trkpt>
      <trkpt lat="43.11683" lon="3.11281">
        <ele>-1.0749184</ele>
        <time>2021-07-20T07:53:25Z</time>
      </trkpt>
      <trkpt lat="43.11685" lon="3.11283">
        <ele>2</ele>
        <time>2021-07-20T07:53:26Z</time>
      </trkpt>
      <trkpt lat="43.11688" lon="3.11284">
        <ele>2</ele>
        <time>2021-07-20T07:53:27Z</time>
      </trkpt>
      <trkpt lat="43.11689" lon="3.11286">
        <ele>2</ele>
        <time>2021-07-20T07:53:28Z</time>
      </trkpt>
      <trkpt lat="43.11691" lon="3.11289">
        <ele>2</ele>
        <time>2021-07-20T07:53:29Z</time>
      </trkpt>
      <trkpt lat="43.11694" lon="3.11291">
        <ele>2</ele>
        <time>2021-07-20T07:53:30Z</time>
      </trkpt>
      <trkpt lat="43.11696" lon="3.11294">
        <ele>2</ele>
        <time>2021-07-20T07:53:31Z</time>
      </trkpt>
      <trkpt lat="43.11699" lon="3.11297">
        <ele>2</ele>
        <time>2021-07-20T07:53:32Z</time>
      </trkpt>
      <trkpt lat="43.11702" lon="3.11301">
        <ele>2</ele>
        <time>2021-07-20T07:53:33Z</time>
      </trkpt>
      <trkpt lat="43.11704" lon="3.11305">
        <ele>2</ele>
        <time>2021-07-20T07:53:34Z</time>
      </trkpt>
      <trkpt lat="43.11705" lon="3.11309">
        <ele>-1.0271895</ele>
        <time>2021-07-20T07:53:35Z</time>
      </trkpt>
      <trkpt lat="43.11706" lon="3.11313">
        <ele>2</ele>
        <time>2021-07-20T07:53:36Z</time>
      </trkpt>
      <trkpt lat="43.11707" lon="3.11317">
        <ele>2</ele>
        <time>2021-07-20T07:53:37Z</time>
      </trkpt>
      <trkpt lat="43.11708" lon="3.1132">
        <ele>2</ele>
        <time>2021-07-20T07:53:38Z</time>
      </trkpt>
      <trkpt lat="43.11709" lon="3.11323">
        <ele>2</ele>
        <time>2021-07-20T07:53:39Z</time>
      </trkpt>
      <trkpt lat="43.11711" lon="3.11324">
        <ele>2</ele>
        <time>2021-07-20T07:53:40Z</time>
      </trkpt>
      <trkpt lat="43.11713" lon="3.11326">
        <ele>2</ele>
        <time>2021-07-20T07:53:41Z</time>
      </trkpt>
      <trkpt lat="43.11715" lon="3.11327">
        <ele>2</ele>
        <time>2021-07-20T07:53:42Z</time>
      </trkpt>
      <trkpt lat="43.11718" lon="3.11327">
        <ele>2</ele>
        <time>2021-07-20T07:53:43Z</time>
      </trkpt>
      <trkpt lat="43.1172" lon="3.11326">
        <ele>2</ele>
        <time>2021-07-20T07:53:44Z</time>
      </trkpt>
      <trkpt lat="43.11722" lon="3.11324">
        <ele>-0.8788142</ele>
        <time>2021-07-20T07:53:45Z</time>
      </trkpt>
      <trkpt lat="43.11723" lon="3.11322">
        <ele>2</ele>
        <time>2021-07-20T07:53:46Z</time>
      </trkpt>
      <trkpt lat="43.11725" lon="3.11318">
        <ele>2</ele>
        <time>2021-07-20T07:53:47Z</time>
      </trkpt>
      <trkpt lat="43.11726" lon="3.11315">
        <ele>2</ele>
        <time>2021-07-20T07:53:48Z</time>
      </trkpt>
      <trkpt lat="43.11728" lon="3.11312">
        <ele>2</ele>
        <time>2021-07-20T07:53:49Z</time>
      </trkpt>
      <trkpt lat="43.11729" lon="3.11308">
        <ele>2</ele>
        <time>2021-07-20T07:53:50Z</time>
      </trkpt>
      <trkpt lat="43.11731" lon="3.11304">
        <ele>2</ele>
        <time>2021-07-20T07:53:51Z</time>
      </trkpt>
      <trkpt lat="43.11733" lon="3.11301">
        <ele>2</ele>
        <time>2021-07-20T07:53:52Z</time>
      </trkpt>
      <trkpt lat="43.11734" lon="3.11298">
        <ele>2</ele>
        <time>2021-07-20T07:53:53Z</time>
      </trkpt>
      <trkpt lat="43.11736" lon="3.11296">
        <ele>2</ele>
        <time>2021-07-20T07:53:54Z</time>
      </trkpt>
      <trkpt lat="43.11737" lon="3.11293">
        <ele>2</ele>
        <time>2021-07-20T07:53:55Z</time>
      </trkpt>
      <trkpt lat="43.11739" lon="3.1129">
        <ele>-0.7926939</ele>
        <time>2021-07-20T07:53:56Z</time>
      </trkpt>
      <trkpt lat="43.11741" lon="3.11287">
        <ele>2</ele>
        <time>2021-07-20T07:53:57Z</time>
      </trkpt>
      <trkpt lat="43.11742" lon="3.11285">
        <ele>2</ele>
        <time>2021-07-20T07:53:58Z</time>
      </trkpt>
      <trkpt lat="43.11744" lon="3.11282">
        <ele>2</ele>
        <time>2021-07-20T07:53:59Z</time>
      </trkpt>
      <trkpt lat="43.11745" lon="3.1128">
        <ele>2</ele>
        <time>2021-07-20T07:54:00Z</time>
      </trkpt>
      <trkpt lat="43.11745" lon="3.11278">
        <ele>2</ele>
        <time>2021-07-20T07:54:01Z</time>
      </trkpt>
      <trkpt lat="43.11745" lon="3.11278">
        <ele>2</ele>
        <time>2021-07-20T07:54:02Z</time>
      </trkpt>
      <trkpt lat="43.11745" lon="3.11276">
        <ele>2</ele>
        <time>2021-07-20T07:54:03Z</time>
      </trkpt>
      <trkpt lat="43.11746" lon="3.11274">
        <ele>2</ele>
        <time>2021-07-20T07:54:04Z</time>
      </trkpt>
      <trkpt lat="43.11746" lon="3.11271">
        <ele>2</ele>
        <time>2021-07-20T07:54:05Z</time>
      </trkpt>
      <trkpt lat="43.11746" lon="3.11268">
        <ele>-0.90060365</ele>
        <time>2021-07-20T07:54:06Z</time>
      </trkpt>
      <trkpt lat="43.11746" lon="3.11264">
        <ele>2</ele>
        <time>2021-07-20T07:54:07Z</time>
      </trkpt>
      <trkpt lat="43.11747" lon="3.11261">
        <ele>2</ele>
        <time>2021-07-20T07:54:08Z</time>
      </trkpt>
      <trkpt lat="43.11749" lon="3.1126">
        <ele>2</ele>
        <time>2021-07-20T07:54:09Z</time>
      </trkpt>
      <trkpt lat="43.11752" lon="3.1126">
        <ele>1.9</ele>
        <time>2021-07-20T07:54:10Z</time>
      </trkpt>
      <trkpt lat="43.11755" lon="3.11259">
        <ele>1.9</ele>
        <time>2021-07-20T07:54:11Z</time>
      </trkpt>
      <trkpt lat="43.11758" lon="3.11259">
        <ele>2</ele>
        <time>2021-07-20T07:54:12Z</time>
      </trkpt>
      <trkpt lat="43.11761" lon="3.11259">
        <ele>2</ele>
        <time>2021-07-20T07:54:13Z</time>
      </trkpt>
      <trkpt lat="43.11764" lon="3.11259">
        <ele>2</ele>
        <time>2021-07-20T07:54:14Z</time>
      </trkpt>
      <trkpt lat="43.11767" lon="3.11259">
        <ele>2.1</ele>
        <time>2021-07-20T07:54:15Z</time>
      </trkpt>
      <trkpt lat="43.1177" lon="3.11259">
        <ele>-0.853912</ele>
        <time>2021-07-20T07:54:16Z</time>
      </trkpt>
      <trkpt lat="43.11773" lon="3.11259">
        <ele>2.1</ele>
        <time>2021-07-20T07:54:17Z</time>
      </trkpt>
      <trkpt lat="43.11776" lon="3.11259">
        <ele>2.2</ele>
        <time>2021-07-20T07:54:18Z</time>
      </trkpt>
      <trkpt lat="43.11778" lon="3.11258">
        <ele>2.2</ele>
        <time>2021-07-20T07:54:19Z</time>
      </trkpt>
      <trkpt lat="43.11781" lon="3.11258">
        <ele>2.2</ele>
        <time>2021-07-20T07:54:20Z</time>
      </trkpt>
      <trkpt lat="43.11784" lon="3.11258">
        <ele>2.3</ele>
        <time>2021-07-20T07:54:21Z</time>
      </trkpt>
      <trkpt lat="43.11787" lon="3.11257">
        <ele>2.3</ele>
        <time>2021-07-20T07:54:22Z</time>
      </trkpt>
      <trkpt lat="43.11791" lon="3.11257">
        <ele>2.4</ele>
        <time>2021-07-20T07:54:23Z</time>
      </trkpt>
      <trkpt lat="43.11793" lon="3.11257">
        <ele>2.4</ele>
        <time>2021-07-20T07:54:24Z</time>
      </trkpt>
      <trkpt lat="43.11796" lon="3.11257">
        <ele>2.4</ele>
        <time>2021-07-20T07:54:25Z</time>
      </trkpt>
      <trkpt lat="43.11799" lon="3.11257">
        <ele>-0.47311202</ele>
        <time>2021-07-20T07:54:26Z</time>
      </trkpt>
      <trkpt lat="43.11801" lon="3.11257">
        <ele>2.5</ele>
        <time>2021-07-20T07:54:27Z</time>
      </trkpt>
      <trkpt lat="43.11804" lon="3.11256">
        <ele>2.5</ele>
        <time>2021-07-20T07:54:28Z</time>
      </trkpt>
      <trkpt lat="43.11807" lon="3.11256">
        <ele>2.6</ele>
        <time>2021-07-20T07:54:29Z</time>
      </trkpt>
      <trkpt lat="43.1181" lon="3.11256">
        <ele>2.6</ele>
        <time>2021-07-20T07:54:30Z</time>
      </trkpt>
      <trkpt lat="43.11813" lon="3.11255">
        <ele>2.6</ele>
        <time>2021-07-20T07:54:31Z</time>
      </trkpt>
      <trkpt lat="43.11816" lon="3.11255">
        <ele>2.7</ele>
        <time>2021-07-20T07:54:32Z</time>
      </trkpt>
      <trkpt lat="43.11819" lon="3.11254">
        <ele>2.7</ele>
        <time>2021-07-20T07:54:33Z</time>
      </trkpt>
      <trkpt lat="43.11823" lon="3.11253">
        <ele>2.8</ele>
        <time>2021-07-20T07:54:34Z</time>
      </trkpt>
      <trkpt lat="43.11825" lon="3.11252">
        <ele>2.8</ele>
        <time>2021-07-20T07:54:35Z</time>
      </trkpt>
      <trkpt lat="43.11828" lon="3.11251">
        <ele>-0.2137079</ele>
        <time>2021-07-20T07:54:36Z</time>
      </trkpt>
      <trkpt lat="43.11831" lon="3.1125">
        <ele>3</ele>
        <time>2021-07-20T07:54:37Z</time>
      </trkpt>
      <trkpt lat="43.11834" lon="3.11248">
        <ele>3</ele>
        <time>2021-07-20T07:54:38Z</time>
      </trkpt>
      <trkpt lat="43.11837" lon="3.11246">
        <ele>3.1</ele>
        <time>2021-07-20T07:54:39Z</time>
      </trkpt>
      <trkpt lat="43.11839" lon="3.11245">
        <ele>3.1</ele>
        <time>2021-07-20T07:54:40Z</time>
      </trkpt>
      <trkpt lat="43.11842" lon="3.11243">
        <ele>3.2</ele>
        <time>2021-07-20T07:54:41Z</time>
      </trkpt>
      <trkpt lat="43.11845" lon="3.11241">
        <ele>3.2</ele>
        <time>2021-07-20T07:54:42Z</time>
      </trkpt>
      <trkpt lat="43.11847" lon="3.11239">
        <ele>3.2</ele>
        <time>2021-07-20T07:54:43Z</time>
      </trkpt>
      <trkpt lat="43.1185" lon="3.11237">
        <ele>3.2</ele>
        <time>2021-07-20T07:54:44Z</time>
      </trkpt>
      <trkpt lat="43.11853" lon="3.11235">
        <ele>-0.0404243</ele>
        <time>2021-07-20T07:54:45Z</time>
      </trkpt>
      <trkpt lat="43.11855" lon="3.11233">
        <ele>3.3</ele>
        <time>2021-07-20T07:54:46Z</time>
      </trkpt>
      <trkpt lat="43.11857" lon="3.11231">
        <ele>3.3</ele>
        <time>2021-07-20T07:54:47Z</time>
      </trkpt>
      <trkpt lat="43.1186" lon="3.11229">
        <ele>3.2</ele>
        <time>2021-07-20T07:54:48Z</time>
      </trkpt>
      <trkpt lat="43.11862" lon="3.11227">
        <ele>3.2</ele>
        <time>2021-07-20T07:54:49Z</time>
      </trkpt>
      <trkpt lat="43.11864" lon="3.11225">
        <ele>3.2</ele>
        <time>2021-07-20T07:54:50Z</time>
      </trkpt>
      <trkpt lat="43.11867" lon="3.11223">
        <ele>3.2</ele>
        <time>2021-07-20T07:54:51Z</time>
      </trkpt>
      <trkpt lat="43.11869" lon="3.1122">
        <ele>3.2</ele>
        <time>2021-07-20T07:54:52Z</time>
      </trkpt>
      <trkpt lat="43.11871" lon="3.11218">
        <ele>3.1</ele>
        <time>2021-07-20T07:54:53Z</time>
      </trkpt>
      <trkpt lat="43.11874" lon="3.11216">
        <ele>3.1</ele>
        <time>2021-07-20T07:54:54Z</time>
      </trkpt>
      <trkpt lat="43.11876" lon="3.11214">
        <ele>0.041548632</ele>
        <time>2021-07-20T07:54:55Z</time>
      </trkpt>
      <trkpt lat="43.11878" lon="3.11213">
        <ele>3</ele>
        <time>2021-07-20T07:54:56Z</time>
      </trkpt>
      <trkpt lat="43.1188" lon="3.11211">
        <ele>3</ele>
        <time>2021-07-20T07:54:57Z</time>
      </trkpt>
      <trkpt lat="43.11882" lon="3.1121">
        <ele>2.9</ele>
        <time>2021-07-20T07:54:58Z</time>
      </trkpt>
      <trkpt lat="43.11883" lon="3.11207">
        <ele>2.9</ele>
        <time>2021-07-20T07:54:59Z</time>
      </trkpt>
      <trkpt lat="43.11884" lon="3.11204">
        <ele>2.8</ele>
        <time>2021-07-20T07:55:00Z</time>
      </trkpt>
      <trkpt lat="43.11885" lon="3.11201">
        <ele>2.7</ele>
        <time>2021-07-20T07:55:01Z</time>
      </trkpt>
      <trkpt lat="43.11886" lon="3.11198">
        <ele>2.7</ele>
        <time>2021-07-20T07:55:02Z</time>
      </trkpt>
      <trkpt lat="43.11886" lon="3.11194">
        <ele>2.6</ele>
        <time>2021-07-20T07:55:03Z</time>
      </trkpt>
      <trkpt lat="43.11886" lon="3.11191">
        <ele>2.5</ele>
        <time>2021-07-20T07:55:04Z</time>
      </trkpt>
      <trkpt lat="43.11886" lon="3.11187">
        <ele>0.059188414</ele>
        <time>2021-07-20T07:55:05Z</time>
      </trkpt>
      <trkpt lat="43.11886" lon="3.11183">
        <ele>2.4</ele>
        <time>2021-07-20T07:55:06Z</time>
      </trkpt>
      <trkpt lat="43.11886" lon="3.1118">
        <ele>2.4</ele>
        <time>2021-07-20T07:55:07Z</time>
      </trkpt>
      <trkpt lat="43.11885" lon="3.11177">
        <ele>2.3</ele>
        <time>2021-07-20T07:55:08Z</time>
      </trkpt>
      <trkpt lat="43.11885" lon="3.11174">
        <ele>2.3</ele>
        <time>2021-07-20T07:55:09Z</time>
      </trkpt>
      <trkpt lat="43.11884" lon="3.1117">
        <ele>2.2</ele>
        <time>2021-07-20T07:55:10Z</time>
      </trkpt>
      <trkpt lat="43.11885" lon="3.11166">
        <ele>2.2</ele>
        <time>2021-07-20T07:55:11Z</time>
      </trkpt>
      <trkpt lat="43.11887" lon="3.11163">
        <ele>2.1</ele>
        <time>2021-07-20T07:55:12Z</time>
      </trkpt>
      <trkpt lat="43.11889" lon="3.11161">
        <ele>2.1</ele>
        <time>2021-07-20T07:55:13Z</time>
      </trkpt>
      <trkpt lat="43.11891" lon="3.11158">
        <ele>2.1</ele>
        <time>2021-07-20T07:55:14Z</time>
      </trkpt>
      <trkpt lat="43.11894" lon="3.11156">
        <ele>0.2853939</ele>
        <time>2021-07-20T07:55:15Z</time>
      </trkpt>
      <trkpt lat="43.11897" lon="3.11156">
        <ele>1.9</ele>
        <time>2021-07-20T07:55:16Z</time>
      </trkpt>
      <trkpt lat="43.11901" lon="3.11156">
        <ele>1.8</ele>
        <time>2021-07-20T07:55:17Z</time>
      </trkpt>
      <trkpt lat="43.11904" lon="3.11156">
        <ele>1.7</ele>
        <time>2021-07-20T07:55:18Z</time>
      </trkpt>
      <trkpt lat="43.11907" lon="3.11155">
        <ele>1.6</ele>
        <time>2021-07-20T07:55:19Z</time>
      </trkpt>
      <trkpt lat="43.1191" lon="3.11152">
        <ele>1.6</ele>
        <time>2021-07-20T07:55:20Z</time>
      </trkpt>
      <trkpt lat="43.11912" lon="3.11148">
        <ele>1.6</ele>
        <time>2021-07-20T07:55:21Z</time>
      </trkpt>
      <trkpt lat="43.11914" lon="3.11143">
        <ele>1.7</ele>
        <time>2021-07-20T07:55:22Z</time>
      </trkpt>
      <trkpt lat="43.11916" lon="3.11138">
        <ele>1.7</ele>
        <time>2021-07-20T07:55:23Z</time>
      </trkpt>
      <trkpt lat="43.11919" lon="3.11133">
        <ele>1.8</ele>
        <time>2021-07-20T07:55:24Z</time>
      </trkpt>
      <trkpt lat="43.11921" lon="3.11128">
        <ele>-0.1130583</ele>
        <time>2021-07-20T07:55:25Z</time>
      </trkpt>
      <trkpt lat="43.11924" lon="3.11123">
        <ele>2</ele>
        <time>2021-07-20T07:55:26Z</time>
      </trkpt>
      <trkpt lat="43.11927" lon="3.11118">
        <ele>2.1</ele>
        <time>2021-07-20T07:55:27Z</time>
      </trkpt>
      <trkpt lat="43.11929" lon="3.11113">
        <ele>2.2</ele>
        <time>2021-07-20T07:55:28Z</time>
      </trkpt>
      <trkpt lat="43.11932" lon="3.11108">
        <ele>2.3</ele>
        <time>2021-07-20T07:55:29Z</time>
      </trkpt>
      <trkpt lat="43.11934" lon="3.11103">
        <ele>2.4</ele>
        <time>2021-07-20T07:55:30Z</time>
      </trkpt>
      <trkpt lat="43.11937" lon="3.11098">
        <ele>2.4</ele>
        <time>2021-07-20T07:55:31Z</time>
      </trkpt>
      <trkpt lat="43.1194" lon="3.11094">
        <ele>2.5</ele>
        <time>2021-07-20T07:55:32Z</time>
      </trkpt>
      <trkpt lat="43.11943" lon="3.11089">
        <ele>2.6</ele>
        <time>2021-07-20T07:55:33Z</time>
      </trkpt>
      <trkpt lat="43.11945" lon="3.11085">
        <ele>2.6</ele>
        <time>2021-07-20T07:55:34Z</time>
      </trkpt>
      <trkpt lat="43.11948" lon="3.1108">
        <ele>2.6</ele>
        <time>2021-07-20T07:55:35Z</time>
      </trkpt>
      <trkpt lat="43.11951" lon="3.11075">
        <ele>-1.0043626</ele>
        <time>2021-07-20T07:55:36Z</time>
      </trkpt>
      <trkpt lat="43.11953" lon="3.11071">
        <ele>2.3</ele>
        <time>2021-07-20T07:55:37Z</time>
      </trkpt>
      <trkpt lat="43.11956" lon="3.11066">
        <ele>2.2</ele>
        <time>2021-07-20T07:55:38Z</time>
      </trkpt>
      <trkpt lat="43.11958" lon="3.11061">
        <ele>2.1</ele>
        <time>2021-07-20T07:55:39Z</time>
      </trkpt>
      <trkpt lat="43.1196" lon="3.11057">
        <ele>2</ele>
        <time>2021-07-20T07:55:40Z</time>
      </trkpt>
      <trkpt lat="43.11963" lon="3.11053">
        <ele>1.9</ele>
        <time>2021-07-20T07:55:41Z</time>
      </trkpt>
      <trkpt lat="43.11965" lon="3.11049">
        <ele>1.8</ele>
        <time>2021-07-20T07:55:42Z</time>
      </trkpt>
      <trkpt lat="43.11967" lon="3.11045">
        <ele>1.8</ele>
        <time>2021-07-20T07:55:43Z</time>
      </trkpt>
      <trkpt lat="43.1197" lon="3.11042">
        <ele>1.7</ele>
        <time>2021-07-20T07:55:44Z</time>
      </trkpt>
      <trkpt lat="43.11972" lon="3.11039">
        <ele>1.6</ele>
        <time>2021-07-20T07:55:45Z</time>
      </trkpt>
      <trkpt lat="43.11975" lon="3.11036">
        <ele>-1.1444364</ele>
        <time>2021-07-20T07:55:46Z</time>
      </trkpt>
      <trkpt lat="43.11977" lon="3.11033">
        <ele>1.5</ele>
        <time>2021-07-20T07:55:47Z</time>
      </trkpt>
      <trkpt lat="43.11979" lon="3.11029">
        <ele>1.4</ele>
        <time>2021-07-20T07:55:48Z</time>
      </trkpt>
      <trkpt lat="43.11981" lon="3.11025">
        <ele>1.4</ele>
        <time>2021-07-20T07:55:49Z</time>
      </trkpt>
      <trkpt lat="43.11983" lon="3.11021">
        <ele>1.3</ele>
        <time>2021-07-20T07:55:50Z</time>
      </trkpt>
      <trkpt lat="43.11985" lon="3.11016">
        <ele>1.2</ele>
        <time>2021-07-20T07:55:51Z</time>
      </trkpt>
      <trkpt lat="43.11987" lon="3.11012">
        <ele>1.2</ele>
        <time>2021-07-20T07:55:52Z</time>
      </trkpt>
      <trkpt lat="43.1199" lon="3.11009">
        <ele>1.1</ele>
        <time>2021-07-20T07:55:53Z</time>
      </trkpt>
      <trkpt lat="43.11992" lon="3.11005">
        <ele>1.1</ele>
        <time>2021-07-20T07:55:54Z</time>
      </trkpt>
      <trkpt lat="43.11995" lon="3.11001">
        <ele>1</ele>
        <time>2021-07-20T07:55:55Z</time>
      </trkpt>
      <trkpt lat="43.11997" lon="3.10997">
        <ele>-1.3654399</ele>
        <time>2021-07-20T07:55:56Z</time>
      </trkpt>
      <trkpt lat="43.11999" lon="3.10993">
        <ele>1.2</ele>
        <time>2021-07-20T07:55:57Z</time>
      </trkpt>
      <trkpt lat="43.12001" lon="3.1099">
        <ele>1.3</ele>
        <time>2021-07-20T07:55:58Z</time>
      </trkpt>
      <trkpt lat="43.12003" lon="3.10986">
        <ele>1.4</ele>
        <time>2021-07-20T07:55:59Z</time>
      </trkpt>
      <trkpt lat="43.12006" lon="3.10982">
        <ele>1.5</ele>
        <time>2021-07-20T07:56:00Z</time>
      </trkpt>
      <trkpt lat="43.12008" lon="3.10978">
        <ele>1.6</ele>
        <time>2021-07-20T07:56:01Z</time>
      </trkpt>
      <trkpt lat="43.1201" lon="3.10974">
        <ele>1.7</ele>
        <time>2021-07-20T07:56:02Z</time>
      </trkpt>
      <trkpt lat="43.12012" lon="3.10971">
        <ele>1.8</ele>
        <time>2021-07-20T07:56:03Z</time>
      </trkpt>
      <trkpt lat="43.12014" lon="3.10967">
        <ele>1.9</ele>
        <time>2021-07-20T07:56:04Z</time>
      </trkpt>
      <trkpt lat="43.12017" lon="3.10963">
        <ele>2</ele>
        <time>2021-07-20T07:56:05Z</time>
      </trkpt>
      <trkpt lat="43.12019" lon="3.10959">
        <ele>-1.2544196</ele>
        <time>2021-07-20T07:56:06Z</time>
      </trkpt>
      <trkpt lat="43.12021" lon="3.10955">
        <ele>2.2</ele>
        <time>2021-07-20T07:56:07Z</time>
      </trkpt>
      <trkpt lat="43.12023" lon="3.10952">
        <ele>2.3</ele>
        <time>2021-07-20T07:56:08Z</time>
      </trkpt>
      <trkpt lat="43.12026" lon="3.10949">
        <ele>2.3</ele>
        <time>2021-07-20T07:56:09Z</time>
      </trkpt>
      <trkpt lat="43.12028" lon="3.10945">
        <ele>2.4</ele>
        <time>2021-07-20T07:56:10Z</time>
      </trkpt>
      <trkpt lat="43.1203" lon="3.10942">
        <ele>2.5</ele>
        <time>2021-07-20T07:56:11Z</time>
      </trkpt>
      <trkpt lat="43.12032" lon="3.10938">
        <ele>2.6</ele>
        <time>2021-07-20T07:56:12Z</time>
      </trkpt>
      <trkpt lat="43.12035" lon="3.10935">
        <ele>2.7</ele>
        <time>2021-07-20T07:56:13Z</time>
      </trkpt>
      <trkpt lat="43.12037" lon="3.10931">
        <ele>2.7</ele>
        <time>2021-07-20T07:56:14Z</time>
      </trkpt>
      <trkpt lat="43.12039" lon="3.10927">
        <ele>2.8</ele>
        <time>2021-07-20T07:56:15Z</time>
      </trkpt>
      <trkpt lat="43.12042" lon="3.10923">
        <ele>-1.2896972</ele>
        <time>2021-07-20T07:56:16Z</time>
      </trkpt>
      <trkpt lat="43.12044" lon="3.1092">
        <ele>2.9</ele>
        <time>2021-07-20T07:56:17Z</time>
      </trkpt>
      <trkpt lat="43.12046" lon="3.10916">
        <ele>3</ele>
        <time>2021-07-20T07:56:18Z</time>
      </trkpt>
      <trkpt lat="43.12048" lon="3.10912">
        <ele>3</ele>
        <time>2021-07-20T07:56:19Z</time>
      </trkpt>
      <trkpt lat="43.1205" lon="3.10907">
        <ele>3</ele>
        <time>2021-07-20T07:56:20Z</time>
      </trkpt>
      <trkpt lat="43.12053" lon="3.10904">
        <ele>3</ele>
        <time>2021-07-20T07:56:21Z</time>
      </trkpt>
      <trkpt lat="43.12056" lon="3.109">
        <ele>3</ele>
        <time>2021-07-20T07:56:22Z</time>
      </trkpt>
      <trkpt lat="43.12058" lon="3.10896">
        <ele>3</ele>
        <time>2021-07-20T07:56:23Z</time>
      </trkpt>
      <trkpt lat="43.12061" lon="3.10892">
        <ele>3</ele>
        <time>2021-07-20T07:56:24Z</time>
      </trkpt>
      <trkpt lat="43.12063" lon="3.10888">
        <ele>-1.1247222</ele>
        <time>2021-07-20T07:56:25Z</time>
      </trkpt>
      <trkpt lat="43.12066" lon="3.10884">
        <ele>3</ele>
        <time>2021-07-20T07:56:26Z</time>
      </trkpt>
      <trkpt lat="43.12069" lon="3.1088">
        <ele>3</ele>
        <time>2021-07-20T07:56:27Z</time>
      </trkpt>
      <trkpt lat="43.12071" lon="3.10877">
        <ele>3</ele>
        <time>2021-07-20T07:56:28Z</time>
      </trkpt>
      <trkpt lat="43.12073" lon="3.10873">
        <ele>3</ele>
        <time>2021-07-20T07:56:29Z</time>
      </trkpt>
      <trkpt lat="43.12075" lon="3.10868">
        <ele>3</ele>
        <time>2021-07-20T07:56:30Z</time>
      </trkpt>
      <trkpt lat="43.12077" lon="3.10864">
        <ele>3</ele>
        <time>2021-07-20T07:56:31Z</time>
      </trkpt>
      <trkpt lat="43.12079" lon="3.1086">
        <ele>3</ele>
        <time>2021-07-20T07:56:32Z</time>
      </trkpt>
      <trkpt lat="43.12081" lon="3.10855">
        <ele>3</ele>
        <time>2021-07-20T07:56:33Z</time>
      </trkpt>
      <trkpt lat="43.12082" lon="3.10851">
        <ele>3</ele>
        <time>2021-07-20T07:56:34Z</time>
      </trkpt>
      <trkpt lat="43.12083" lon="3.10846">
        <ele>-1.211879</ele>
        <time>2021-07-20T07:56:35Z</time>
      </trkpt>
      <trkpt lat="43.12085" lon="3.10841">
        <ele>3</ele>
        <time>2021-07-20T07:56:36Z</time>
      </trkpt>
      <trkpt lat="43.12086" lon="3.10836">
        <ele>3</ele>
        <time>2021-07-20T07:56:37Z</time>
      </trkpt>
      <trkpt lat="43.12087" lon="3.10831">
        <ele>2.9</ele>
        <time>2021-07-20T07:56:38Z</time>
      </trkpt>
      <trkpt lat="43.12088" lon="3.10827">
        <ele>2.9</ele>
        <time>2021-07-20T07:56:39Z</time>
      </trkpt>
      <trkpt lat="43.12089" lon="3.10822">
        <ele>2.8</ele>
        <time>2021-07-20T07:56:40Z</time>
      </trkpt>
      <trkpt lat="43.1209" lon="3.10818">
        <ele>2.8</ele>
        <time>2021-07-20T07:56:41Z</time>
      </trkpt>
      <trkpt lat="43.1209" lon="3.10813">
        <ele>2.7</ele>
        <time>2021-07-20T07:56:42Z</time>
      </trkpt>
      <trkpt lat="43.12091" lon="3.10809">
        <ele>2.7</ele>
        <time>2021-07-20T07:56:43Z</time>
      </trkpt>
      <trkpt lat="43.12093" lon="3.10805">
        <ele>2.6</ele>
        <time>2021-07-20T07:56:44Z</time>
      </trkpt>
      <trkpt lat="43.12093" lon="3.10801">
        <ele>-1.1890522</ele>
        <time>2021-07-20T07:56:45Z</time>
      </trkpt>
      <trkpt lat="43.12095" lon="3.10796">
        <ele>2.5</ele>
        <time>2021-07-20T07:56:46Z</time>
      </trkpt>
      <trkpt lat="43.12096" lon="3.10792">
        <ele>2.5</ele>
        <time>2021-07-20T07:56:47Z</time>
      </trkpt>
      <trkpt lat="43.12097" lon="3.10788">
        <ele>2.5</ele>
        <time>2021-07-20T07:56:48Z</time>
      </trkpt>
      <trkpt lat="43.12098" lon="3.10783">
        <ele>2.4</ele>
        <time>2021-07-20T07:56:49Z</time>
      </trkpt>
      <trkpt lat="43.121" lon="3.10779">
        <ele>2.4</ele>
        <time>2021-07-20T07:56:50Z</time>
      </trkpt>
      <trkpt lat="43.12101" lon="3.10775">
        <ele>2.4</ele>
        <time>2021-07-20T07:56:51Z</time>
      </trkpt>
      <trkpt lat="43.12103" lon="3.10771">
        <ele>2.4</ele>
        <time>2021-07-20T07:56:52Z</time>
      </trkpt>
      <trkpt lat="43.12104" lon="3.10767">
        <ele>2.3</ele>
        <time>2021-07-20T07:56:53Z</time>
      </trkpt>
      <trkpt lat="43.12105" lon="3.10762">
        <ele>2.3</ele>
        <time>2021-07-20T07:56:54Z</time>
      </trkpt>
      <trkpt lat="43.12107" lon="3.10758">
        <ele>-1.0884069</ele>
        <time>2021-07-20T07:56:55Z</time>
      </trkpt>
      <trkpt lat="43.12109" lon="3.10754">
        <ele>2.3</ele>
        <time>2021-07-20T07:56:56Z</time>
      </trkpt>
      <trkpt lat="43.1211" lon="3.1075">
        <ele>2.3</ele>
        <time>2021-07-20T07:56:57Z</time>
      </trkpt>
      <trkpt lat="43.12112" lon="3.10745">
        <ele>2.3</ele>
        <time>2021-07-20T07:56:58Z</time>
      </trkpt>
      <trkpt lat="43.12114" lon="3.10742">
        <ele>2.4</ele>
        <time>2021-07-20T07:56:59Z</time>
      </trkpt>
      <trkpt lat="43.12116" lon="3.10738">
        <ele>2.4</ele>
        <time>2021-07-20T07:57:00Z</time>
      </trkpt>
      <trkpt lat="43.12118" lon="3.10734">
        <ele>2.4</ele>
        <time>2021-07-20T07:57:01Z</time>
      </trkpt>
      <trkpt lat="43.1212" lon="3.1073">
        <ele>2.4</ele>
        <time>2021-07-20T07:57:02Z</time>
      </trkpt>
      <trkpt lat="43.12122" lon="3.10725">
        <ele>2.5</ele>
        <time>2021-07-20T07:57:03Z</time>
      </trkpt>
      <trkpt lat="43.12123" lon="3.10721">
        <ele>2.5</ele>
        <time>2021-07-20T07:57:04Z</time>
      </trkpt>
      <trkpt lat="43.12125" lon="3.10717">
        <ele>-1.0801063</ele>
        <time>2021-07-20T07:57:05Z</time>
      </trkpt>
      <trkpt lat="43.12127" lon="3.10713">
        <ele>2.5</ele>
        <time>2021-07-20T07:57:06Z</time>
      </trkpt>
      <trkpt lat="43.12128" lon="3.10709">
        <ele>2.5</ele>
        <time>2021-07-20T07:57:07Z</time>
      </trkpt>
      <trkpt lat="43.1213" lon="3.10705">
        <ele>2.6</ele>
        <time>2021-07-20T07:57:08Z</time>
      </trkpt>
      <trkpt lat="43.12131" lon="3.10701">
        <ele>2.6</ele>
        <time>2021-07-20T07:57:09Z</time>
      </trkpt>
      <trkpt lat="43.12133" lon="3.10697">
        <ele>2.6</ele>
        <time>2021-07-20T07:57:10Z</time>
      </trkpt>
      <trkpt lat="43.12135" lon="3.10693">
        <ele>2.6</ele>
        <time>2021-07-20T07:57:11Z</time>
      </trkpt>
      <trkpt lat="43.12137" lon="3.1069">
        <ele>2.6</ele>
        <time>2021-07-20T07:57:12Z</time>
      </trkpt>
      <trkpt lat="43.12139" lon="3.10686">
        <ele>2.7</ele>
        <time>2021-07-20T07:57:13Z</time>
      </trkpt>
      <trkpt lat="43.12141" lon="3.10682">
        <ele>2.7</ele>
        <time>2021-07-20T07:57:14Z</time>
      </trkpt>
      <trkpt lat="43.12143" lon="3.10678">
        <ele>2.7</ele>
        <time>2021-07-20T07:57:15Z</time>
      </trkpt>
      <trkpt lat="43.12145" lon="3.10674">
        <ele>-0.94314486</ele>
        <time>2021-07-20T07:57:16Z</time>
      </trkpt>
      <trkpt lat="43.12147" lon="3.1067">
        <ele>2.8</ele>
        <time>2021-07-20T07:57:17Z</time>
      </trkpt>
      <trkpt lat="43.12149" lon="3.10665">
        <ele>2.8</ele>
        <time>2021-07-20T07:57:18Z</time>
      </trkpt>
      <trkpt lat="43.12151" lon="3.10661">
        <ele>2.8</ele>
        <time>2021-07-20T07:57:19Z</time>
      </trkpt>
      <trkpt lat="43.12153" lon="3.10657">
        <ele>2.8</ele>
        <time>2021-07-20T07:57:20Z</time>
      </trkpt>
      <trkpt lat="43.12155" lon="3.10653">
        <ele>2.7</ele>
        <time>2021-07-20T07:57:21Z</time>
      </trkpt>
      <trkpt lat="43.12157" lon="3.1065">
        <ele>2.7</ele>
        <time>2021-07-20T07:57:22Z</time>
      </trkpt>
      <trkpt lat="43.12159" lon="3.10646">
        <ele>2.7</ele>
        <time>2021-07-20T07:57:23Z</time>
      </trkpt>
      <trkpt lat="43.12161" lon="3.10642">
        <ele>2.7</ele>
        <time>2021-07-20T07:57:24Z</time>
      </trkpt>
      <trkpt lat="43.12163" lon="3.10639">
        <ele>2.7</ele>
        <time>2021-07-20T07:57:25Z</time>
      </trkpt>
      <trkpt lat="43.12164" lon="3.10636">
        <ele>-0.8248594</ele>
        <time>2021-07-20T07:57:26Z</time>
      </trkpt>
      <trkpt lat="43.12166" lon="3.10632">
        <ele>2.6</ele>
        <time>2021-07-20T07:57:27Z</time>
      </trkpt>
      <trkpt lat="43.12168" lon="3.10629">
        <ele>2.6</ele>
        <time>2021-07-20T07:57:28Z</time>
      </trkpt>
      <trkpt lat="43.1217" lon="3.10626">
        <ele>2.5</ele>
        <time>2021-07-20T07:57:29Z</time>
      </trkpt>
      <trkpt lat="43.12171" lon="3.10622">
        <ele>2.5</ele>
        <time>2021-07-20T07:57:30Z</time>
      </trkpt>
      <trkpt lat="43.12172" lon="3.10619">
        <ele>2.5</ele>
        <time>2021-07-20T07:57:31Z</time>
      </trkpt>
      <trkpt lat="43.12173" lon="3.10616">
        <ele>2.5</ele>
        <time>2021-07-20T07:57:32Z</time>
      </trkpt>
      <trkpt lat="43.12175" lon="3.10614">
        <ele>2.5</ele>
        <time>2021-07-20T07:57:33Z</time>
      </trkpt>
      <trkpt lat="43.12177" lon="3.10613">
        <ele>2.5</ele>
        <time>2021-07-20T07:57:34Z</time>
      </trkpt>
      <trkpt lat="43.12178" lon="3.10613">
        <ele>2.5</ele>
        <time>2021-07-20T07:57:35Z</time>
      </trkpt>
      <trkpt lat="43.1218" lon="3.10615">
        <ele>-0.7916563</ele>
        <time>2021-07-20T07:57:36Z</time>
      </trkpt>
      <trkpt lat="43.12182" lon="3.10617">
        <ele>2.6</ele>
        <time>2021-07-20T07:57:37Z</time>
      </trkpt>
      <trkpt lat="43.12183" lon="3.1062">
        <ele>2.6</ele>
        <time>2021-07-20T07:57:38Z</time>
      </trkpt>
      <trkpt lat="43.12185" lon="3.10623">
        <ele>2.7</ele>
        <time>2021-07-20T07:57:39Z</time>
      </trkpt>
      <trkpt lat="43.12186" lon="3.10625">
        <ele>2.7</ele>
        <time>2021-07-20T07:57:40Z</time>
      </trkpt>
      <trkpt lat="43.12188" lon="3.10628">
        <ele>2.8</ele>
        <time>2021-07-20T07:57:41Z</time>
      </trkpt>
      <trkpt lat="43.12189" lon="3.1063">
        <ele>2.8</ele>
        <time>2021-07-20T07:57:42Z</time>
      </trkpt>
      <trkpt lat="43.12191" lon="3.10633">
        <ele>2.9</ele>
        <time>2021-07-20T07:57:43Z</time>
      </trkpt>
      <trkpt lat="43.12193" lon="3.10635">
        <ele>2.9</ele>
        <time>2021-07-20T07:57:44Z</time>
      </trkpt>
      <trkpt lat="43.12194" lon="3.10637">
        <ele>3</ele>
        <time>2021-07-20T07:57:45Z</time>
      </trkpt>
      <trkpt lat="43.12196" lon="3.1064">
        <ele>-0.881927</ele>
        <time>2021-07-20T07:57:46Z</time>
      </trkpt>
      <trkpt lat="43.12198" lon="3.10643">
        <ele>3.1</ele>
        <time>2021-07-20T07:57:47Z</time>
      </trkpt>
      <trkpt lat="43.122" lon="3.10647">
        <ele>3.2</ele>
        <time>2021-07-20T07:57:48Z</time>
      </trkpt>
      <trkpt lat="43.12202" lon="3.10651">
        <ele>3.2</ele>
        <time>2021-07-20T07:57:49Z</time>
      </trkpt>
      <trkpt lat="43.12204" lon="3.10654">
        <ele>3.3</ele>
        <time>2021-07-20T07:57:50Z</time>
      </trkpt>
      <trkpt lat="43.12206" lon="3.10658">
        <ele>3.4</ele>
        <time>2021-07-20T07:57:51Z</time>
      </trkpt>
      <trkpt lat="43.12208" lon="3.10662">
        <ele>3.4</ele>
        <time>2021-07-20T07:57:52Z</time>
      </trkpt>
      <trkpt lat="43.1221" lon="3.10666">
        <ele>3.5</ele>
        <time>2021-07-20T07:57:53Z</time>
      </trkpt>
      <trkpt lat="43.12212" lon="3.10669">
        <ele>3.5</ele>
        <time>2021-07-20T07:57:54Z</time>
      </trkpt>
      <trkpt lat="43.12214" lon="3.10673">
        <ele>3.5</ele>
        <time>2021-07-20T07:57:55Z</time>
      </trkpt>
      <trkpt lat="43.12216" lon="3.10676">
        <ele>-0.5384814</ele>
        <time>2021-07-20T07:57:56Z</time>
      </trkpt>
      <trkpt lat="43.12218" lon="3.10679">
        <ele>3.5</ele>
        <time>2021-07-20T07:57:57Z</time>
      </trkpt>
      <trkpt lat="43.12219" lon="3.10683">
        <ele>3.5</ele>
        <time>2021-07-20T07:57:58Z</time>
      </trkpt>
      <trkpt lat="43.12222" lon="3.10687">
        <ele>3.5</ele>
        <time>2021-07-20T07:57:59Z</time>
      </trkpt>
      <trkpt lat="43.12223" lon="3.10691">
        <ele>3.5</ele>
        <time>2021-07-20T07:58:00Z</time>
      </trkpt>
      <trkpt lat="43.12225" lon="3.10694">
        <ele>3.5</ele>
        <time>2021-07-20T07:58:01Z</time>
      </trkpt>
      <trkpt lat="43.12227" lon="3.10698">
        <ele>3.5</ele>
        <time>2021-07-20T07:58:02Z</time>
      </trkpt>
      <trkpt lat="43.1223" lon="3.10702">
        <ele>3.4</ele>
        <time>2021-07-20T07:58:03Z</time>
      </trkpt>
      <trkpt lat="43.12231" lon="3.10706">
        <ele>3.4</ele>
        <time>2021-07-20T07:58:04Z</time>
      </trkpt>
      <trkpt lat="43.12233" lon="3.1071">
        <ele>-0.37142596</ele>
        <time>2021-07-20T07:58:05Z</time>
      </trkpt>
      <trkpt lat="43.12236" lon="3.10714">
        <ele>3.4</ele>
        <time>2021-07-20T07:58:06Z</time>
      </trkpt>
      <trkpt lat="43.12238" lon="3.10718">
        <ele>3.3</ele>
        <time>2021-07-20T07:58:07Z</time>
      </trkpt>
      <trkpt lat="43.1224" lon="3.10722">
        <ele>3.3</ele>
        <time>2021-07-20T07:58:08Z</time>
      </trkpt>
      <trkpt lat="43.12241" lon="3.10725">
        <ele>3.3</ele>
        <time>2021-07-20T07:58:09Z</time>
      </trkpt>
      <trkpt lat="43.12243" lon="3.10729">
        <ele>3.2</ele>
        <time>2021-07-20T07:58:10Z</time>
      </trkpt>
      <trkpt lat="43.12246" lon="3.10733">
        <ele>3.2</ele>
        <time>2021-07-20T07:58:11Z</time>
      </trkpt>
      <trkpt lat="43.12247" lon="3.10737">
        <ele>3.2</ele>
        <time>2021-07-20T07:58:12Z</time>
      </trkpt>
      <trkpt lat="43.12249" lon="3.10741">
        <ele>3.1</ele>
        <time>2021-07-20T07:58:13Z</time>
      </trkpt>
      <trkpt lat="43.12251" lon="3.10745">
        <ele>3.1</ele>
        <time>2021-07-20T07:58:14Z</time>
      </trkpt>
      <trkpt lat="43.12252" lon="3.1075">
        <ele>-0.04353719</ele>
        <time>2021-07-20T07:58:15Z</time>
      </trkpt>
      <trkpt lat="43.12254" lon="3.10754">
        <ele>3.1</ele>
        <time>2021-07-20T07:58:16Z</time>
      </trkpt>
      <trkpt lat="43.12256" lon="3.10758">
        <ele>3.1</ele>
        <time>2021-07-20T07:58:17Z</time>
      </trkpt>
      <trkpt lat="43.12257" lon="3.10763">
        <ele>3.1</ele>
        <time>2021-07-20T07:58:18Z</time>
      </trkpt>
      <trkpt lat="43.12259" lon="3.10768">
        <ele>3.1</ele>
        <time>2021-07-20T07:58:19Z</time>
      </trkpt>
      <trkpt lat="43.12261" lon="3.10772">
        <ele>3.2</ele>
        <time>2021-07-20T07:58:20Z</time>
      </trkpt>
      <trkpt lat="43.12262" lon="3.10777">
        <ele>3.2</ele>
        <time>2021-07-20T07:58:21Z</time>
      </trkpt>
      <trkpt lat="43.12264" lon="3.10781">
        <ele>3.2</ele>
        <time>2021-07-20T07:58:22Z</time>
      </trkpt>
      <trkpt lat="43.12266" lon="3.10784">
        <ele>3.3</ele>
        <time>2021-07-20T07:58:23Z</time>
      </trkpt>
      <trkpt lat="43.12268" lon="3.10788">
        <ele>3.3</ele>
        <time>2021-07-20T07:58:24Z</time>
      </trkpt>
      <trkpt lat="43.1227" lon="3.10791">
        <ele>0.40679866</ele>
        <time>2021-07-20T07:58:25Z</time>
      </trkpt>
      <trkpt lat="43.12271" lon="3.10794">
        <ele>3.4</ele>
        <time>2021-07-20T07:58:26Z</time>
      </trkpt>
      <trkpt lat="43.12272" lon="3.10796">
        <ele>3.4</ele>
        <time>2021-07-20T07:58:27Z</time>
      </trkpt>
      <trkpt lat="43.12273" lon="3.10798">
        <ele>3.4</ele>
        <time>2021-07-20T07:58:28Z</time>
      </trkpt>
      <trkpt lat="43.12273" lon="3.10799">
        <ele>3.4</ele>
        <time>2021-07-20T07:58:29Z</time>
      </trkpt>
      <trkpt lat="43.12273" lon="3.10799">
        <ele>3.4</ele>
        <time>2021-07-20T07:58:30Z</time>
      </trkpt>
      <trkpt lat="43.12273" lon="3.10799">
        <ele>3.4</ele>
        <time>2021-07-20T07:58:31Z</time>
      </trkpt>
      <trkpt lat="43.12273" lon="3.10799">
        <ele>3.4</ele>
        <time>2021-07-20T07:58:32Z</time>
      </trkpt>
      <trkpt lat="43.12273" lon="3.10799">
        <ele>3.4</ele>
        <time>2021-07-20T07:58:33Z</time>
      </trkpt>
      <trkpt lat="43.12273" lon="3.10799">
        <ele>3.4</ele>
        <time>2021-07-20T07:58:34Z</time>
      </trkpt>
      <trkpt lat="43.12273" lon="3.108">
        <ele>0.29784563</ele>
        <time>2021-07-20T07:58:35Z</time>
      </trkpt>
      <trkpt lat="43.12274" lon="3.108">
        <ele>3.5</ele>
        <time>2021-07-20T07:58:36Z</time>
      </trkpt>
      <trkpt lat="43.12274" lon="3.10801">
        <ele>3.5</ele>
        <time>2021-07-20T07:58:37Z</time>
      </trkpt>
      <trkpt lat="43.12274" lon="3.10801">
        <ele>3.5</ele>
        <time>2021-07-20T07:58:38Z</time>
      </trkpt>
      <trkpt lat="43.12274" lon="3.10801">
        <ele>3.5</ele>
        <time>2021-07-20T07:58:39Z</time>
      </trkpt>
      <trkpt lat="43.12274" lon="3.10801">
        <ele>3.5</ele>
        <time>2021-07-20T07:58:40Z</time>
      </trkpt>
      <trkpt lat="43.12275" lon="3.10802">
        <ele>3.5</ele>
        <time>2021-07-20T07:58:41Z</time>
      </trkpt>
      <trkpt lat="43.12275" lon="3.10803">
        <ele>3.5</ele>
        <time>2021-07-20T07:58:42Z</time>
      </trkpt>
      <trkpt lat="43.12275" lon="3.10804">
        <ele>3.5</ele>
        <time>2021-07-20T07:58:43Z</time>
      </trkpt>
      <trkpt lat="43.12275" lon="3.10805">
        <ele>3.5</ele>
        <time>2021-07-20T07:58:44Z</time>
      </trkpt>
      <trkpt lat="43.12276" lon="3.10807">
        <ele>0.32171148</ele>
        <time>2021-07-20T07:58:45Z</time>
      </trkpt>
      <trkpt lat="43.12276" lon="3.10808">
        <ele>3.5</ele>
        <time>2021-07-20T07:58:46Z</time>
      </trkpt>
      <trkpt lat="43.12276" lon="3.10808">
        <ele>3.5</ele>
        <time>2021-07-20T07:58:47Z</time>
      </trkpt>
      <trkpt lat="43.12276" lon="3.10808">
        <ele>3.5</ele>
        <time>2021-07-20T07:58:48Z</time>
      </trkpt>
      <trkpt lat="43.12276" lon="3.10808">
        <ele>3.5</ele>
        <time>2021-07-20T07:58:49Z</time>
      </trkpt>
      <trkpt lat="43.12276" lon="3.10808">
        <ele>3.5</ele>
        <time>2021-07-20T07:58:50Z</time>
      </trkpt>
      <trkpt lat="43.12276" lon="3.10808">
        <ele>3.5</ele>
        <time>2021-07-20T07:58:51Z</time>
      </trkpt>
      <trkpt lat="43.12276" lon="3.10808">
        <ele>3.5</ele>
        <time>2021-07-20T07:58:52Z</time>
      </trkpt>
      <trkpt lat="43.12276" lon="3.10808">
        <ele>3.5</ele>
        <time>2021-07-20T07:58:53Z</time>
      </trkpt>
      <trkpt lat="43.12276" lon="3.10808">
        <ele>3.5</ele>
        <time>2021-07-20T07:58:54Z</time>
      </trkpt>
      <trkpt lat="43.12276" lon="3.10808">
        <ele>3.5</ele>
        <time>2021-07-20T07:58:55Z</time>
      </trkpt>
      <trkpt lat="43.12276" lon="3.10808">
        <ele>0.29161975</ele>
        <time>2021-07-20T07:58:56Z</time>
      </trkpt>
      <trkpt lat="43.12276" lon="3.10808">
        <ele>3.5</ele>
        <time>2021-07-20T07:58:57Z</time>
      </trkpt>
      <trkpt lat="43.12276" lon="3.10808">
        <ele>3.5</ele>
        <time>2021-07-20T07:58:58Z</time>
      </trkpt>
      <trkpt lat="43.12276" lon="3.10808">
        <ele>3.5</ele>
        <time>2021-07-20T07:58:59Z</time>
      </trkpt>
      <trkpt lat="43.12276" lon="3.10808">
        <ele>3.5</ele>
        <time>2021-07-20T07:59:00Z</time>
      </trkpt>
      <trkpt lat="43.12276" lon="3.10808">
        <ele>3.5</ele>
        <time>2021-07-20T07:59:01Z</time>
      </trkpt>
      <trkpt lat="43.12276" lon="3.10808">
        <ele>3.5</ele>
        <time>2021-07-20T07:59:02Z</time>
      </trkpt>
      <trkpt lat="43.12276" lon="3.10808">
        <ele>3.5</ele>
        <time>2021-07-20T07:59:03Z</time>
      </trkpt>
      <trkpt lat="43.12276" lon="3.10808">
        <ele>3.5</ele>
        <time>2021-07-20T07:59:04Z</time>
      </trkpt>
      <trkpt lat="43.12276" lon="3.10808">
        <ele>3.5</ele>
        <time>2021-07-20T07:59:05Z</time>
      </trkpt>
      <trkpt lat="43.12276" lon="3.10808">
        <ele>0.4887732</ele>
        <time>2021-07-20T07:59:06Z</time>
      </trkpt>
      <trkpt lat="43.12276" lon="3.10808">
        <ele>3.5</ele>
        <time>2021-07-20T07:59:07Z</time>
      </trkpt>
      <trkpt lat="43.12276" lon="3.10808">
        <ele>3.5</ele>
        <time>2021-07-20T07:59:08Z</time>
      </trkpt>
      <trkpt lat="43.12276" lon="3.10808">
        <ele>3.5</ele>
        <time>2021-07-20T07:59:09Z</time>
      </trkpt>
      <trkpt lat="43.12276" lon="3.10808">
        <ele>3.5</ele>
        <time>2021-07-20T07:59:10Z</time>
      </trkpt>
      <trkpt lat="43.12276" lon="3.10808">
        <ele>3.5</ele>
        <time>2021-07-20T07:59:11Z</time>
      </trkpt>
      <trkpt lat="43.12276" lon="3.10808">
        <ele>3.5</ele>
        <time>2021-07-20T07:59:12Z</time>
      </trkpt>
      <trkpt lat="43.12276" lon="3.10808">
        <ele>3.5</ele>
        <time>2021-07-20T07:59:13Z</time>
      </trkpt>
      <trkpt lat="43.12276" lon="3.10808">
        <ele>3.5</ele>
        <time>2021-07-20T07:59:14Z</time>
      </trkpt>
      <trkpt lat="43.12276" lon="3.10808">
        <ele>3.5</ele>
        <time>2021-07-20T07:59:15Z</time>
      </trkpt>
      <trkpt lat="43.12276" lon="3.10808">
        <ele>0.36425504</ele>
        <time>2021-07-20T07:59:16Z</time>
      </trkpt>
      <trkpt lat="43.12276" lon="3.10808">
        <ele>3.5</ele>
        <time>2021-07-20T07:59:17Z</time>
      </trkpt>
      <trkpt lat="43.12276" lon="3.10808">
        <ele>3.5</ele>
        <time>2021-07-20T07:59:18Z</time>
      </trkpt>
      <trkpt lat="43.12276" lon="3.10808">
        <ele>3.5</ele>
        <time>2021-07-20T07:59:19Z</time>
      </trkpt>
      <trkpt lat="43.12277" lon="3.10808">
        <ele>3.5</ele>
        <time>2021-07-20T07:59:20Z</time>
      </trkpt>
      <trkpt lat="43.12276" lon="3.10808">
        <ele>3.5</ele>
        <time>2021-07-20T07:59:21Z</time>
      </trkpt>
      <trkpt lat="43.12276" lon="3.10808">
        <ele>3.5</ele>
        <time>2021-07-20T07:59:22Z</time>
      </trkpt>
      <trkpt lat="43.12276" lon="3.10808">
        <ele>3.5</ele>
        <time>2021-07-20T07:59:23Z</time>
      </trkpt>
      <trkpt lat="43.12276" lon="3.10808">
        <ele>3.5</ele>
        <time>2021-07-20T07:59:24Z</time>
      </trkpt>
      <trkpt lat="43.12276" lon="3.10808">
        <ele>3.5</ele>
        <time>2021-07-20T07:59:25Z</time>
      </trkpt>
      <trkpt lat="43.12276" lon="3.10808">
        <ele>0.50641334</ele>
        <time>2021-07-20T07:59:26Z</time>
      </trkpt>
      <trkpt lat="43.12276" lon="3.10808">
        <ele>3.5</ele>
        <time>2021-07-20T07:59:27Z</time>
      </trkpt>
      <trkpt lat="43.12276" lon="3.10808">
        <ele>3.5</ele>
        <time>2021-07-20T07:59:28Z</time>
      </trkpt>
      <trkpt lat="43.12277" lon="3.10808">
        <ele>3.5</ele>
        <time>2021-07-20T07:59:29Z</time>
      </trkpt>
      <trkpt lat="43.12277" lon="3.10809">
        <ele>3.5</ele>
        <time>2021-07-20T07:59:30Z</time>
      </trkpt>
      <trkpt lat="43.12277" lon="3.10809">
        <ele>3.5</ele>
        <time>2021-07-20T07:59:31Z</time>
      </trkpt>
      <trkpt lat="43.12277" lon="3.10809">
        <ele>3.5</ele>
        <time>2021-07-20T07:59:32Z</time>
      </trkpt>
      <trkpt lat="43.12277" lon="3.10809">
        <ele>3.5</ele>
        <time>2021-07-20T07:59:33Z</time>
      </trkpt>
      <trkpt lat="43.12277" lon="3.10809">
        <ele>3.5</ele>
        <time>2021-07-20T07:59:34Z</time>
      </trkpt>
      <trkpt lat="43.12277" lon="3.10809">
        <ele>3.5</ele>
        <time>2021-07-20T07:59:35Z</time>
      </trkpt>
      <trkpt lat="43.12277" lon="3.10809">
        <ele>0.4815096</ele>
        <time>2021-07-20T07:59:36Z</time>
      </trkpt>
      <trkpt lat="43.12277" lon="3.10809">
        <ele>3.5</ele>
        <time>2021-07-20T07:59:37Z</time>
      </trkpt>
      <trkpt lat="43.12277" lon="3.10809">
        <ele>3.5</ele>
        <time>2021-07-20T07:59:38Z</time>
      </trkpt>
      <trkpt lat="43.12277" lon="3.10809">
        <ele>3.5</ele>
        <time>2021-07-20T07:59:39Z</time>
      </trkpt>
      <trkpt lat="43.12277" lon="3.10809">
        <ele>3.5</ele>
        <time>2021-07-20T07:59:40Z</time>
      </trkpt>
      <trkpt lat="43.12277" lon="3.10809">
        <ele>3.5</ele>
        <time>2021-07-20T07:59:41Z</time>
      </trkpt>
      <trkpt lat="43.12277" lon="3.10809">
        <ele>3.5</ele>
        <time>2021-07-20T07:59:42Z</time>
      </trkpt>
      <trkpt lat="43.12277" lon="3.10809">
        <ele>3.5</ele>
        <time>2021-07-20T07:59:43Z</time>
      </trkpt>
      <trkpt lat="43.12277" lon="3.10809">
        <ele>3.5</ele>
        <time>2021-07-20T07:59:44Z</time>
      </trkpt>
      <trkpt lat="43.12277" lon="3.10809">
        <ele>0.5520702</ele>
        <time>2021-07-20T07:59:45Z</time>
      </trkpt>
      <trkpt lat="43.12277" lon="3.10809">
        <ele>3.5</ele>
        <time>2021-07-20T07:59:46Z</time>
      </trkpt>
      <trkpt lat="43.12277" lon="3.10809">
        <ele>3.5</ele>
        <time>2021-07-20T07:59:47Z</time>
      </trkpt>
      <trkpt lat="43.12277" lon="3.10809">
        <ele>3.5</ele>
        <time>2021-07-20T07:59:48Z</time>
      </trkpt>
      <trkpt lat="43.12277" lon="3.10809">
        <ele>3.5</ele>
        <time>2021-07-20T07:59:49Z</time>
      </trkpt>
      <trkpt lat="43.12277" lon="3.10809">
        <ele>3.5</ele>
        <time>2021-07-20T07:59:50Z</time>
      </trkpt>
      <trkpt lat="43.12277" lon="3.10809">
        <ele>3.5</ele>
        <time>2021-07-20T07:59:51Z</time>
      </trkpt>
      <trkpt lat="43.12277" lon="3.10809">
        <ele>3.5</ele>
        <time>2021-07-20T07:59:52Z</time>
      </trkpt>
      <trkpt lat="43.12277" lon="3.10809">
        <ele>3.5</ele>
        <time>2021-07-20T07:59:53Z</time>
      </trkpt>
      <trkpt lat="43.12277" lon="3.10809">
        <ele>3.5</ele>
        <time>2021-07-20T07:59:54Z</time>
      </trkpt>
      <trkpt lat="43.12277" lon="3.10809">
        <ele>0.42443871</ele>
        <time>2021-07-20T07:59:55Z</time>
      </trkpt>
      <trkpt lat="43.12277" lon="3.10809">
        <ele>3.5</ele>
        <time>2021-07-20T07:59:56Z</time>
      </trkpt>
      <trkpt lat="43.12277" lon="3.10809">
        <ele>3.5</ele>
        <time>2021-07-20T07:59:57Z</time>
      </trkpt>
      <trkpt lat="43.12277" lon="3.10809">
        <ele>3.5</ele>
        <time>2021-07-20T07:59:58Z</time>
      </trkpt>
      <trkpt lat="43.12277" lon="3.10809">
        <ele>3.5</ele>
        <time>2021-07-20T07:59:59Z</time>
      </trkpt>
      <trkpt lat="43.12277" lon="3.10809">
        <ele>3.5</ele>
        <time>2021-07-20T08:00:00Z</time>
      </trkpt>
      <trkpt lat="43.12277" lon="3.10809">
        <ele>3.5</ele>
        <time>2021-07-20T08:00:01Z</time>
      </trkpt>
      <trkpt lat="43.12277" lon="3.10809">
        <ele>3.5</ele>
        <time>2021-07-20T08:00:02Z</time>
      </trkpt>
      <trkpt lat="43.12277" lon="3.10809">
        <ele>3.5</ele>
        <time>2021-07-20T08:00:03Z</time>
      </trkpt>
      <trkpt lat="43.12277" lon="3.10809">
        <ele>3.5</ele>
        <time>2021-07-20T08:00:04Z</time>
      </trkpt>
      <trkpt lat="43.12277" lon="3.10809">
        <ele>0.4099116</ele>
        <time>2021-07-20T08:00:05Z</time>
      </trkpt>
      <trkpt lat="43.12277" lon="3.10809">
        <ele>3.5</ele>
        <time>2021-07-20T08:00:06Z</time>
      </trkpt>
      <trkpt lat="43.12277" lon="3.10809">
        <ele>3.5</ele>
        <time>2021-07-20T08:00:07Z</time>
      </trkpt>
      <trkpt lat="43.12277" lon="3.10809">
        <ele>3.5</ele>
        <time>2021-07-20T08:00:08Z</time>
      </trkpt>
      <trkpt lat="43.12277" lon="3.10809">
        <ele>3.5</ele>
        <time>2021-07-20T08:00:09Z</time>
      </trkpt>
      <trkpt lat="43.12277" lon="3.10809">
        <ele>3.5</ele>
        <time>2021-07-20T08:00:10Z</time>
      </trkpt>
      <trkpt lat="43.12277" lon="3.10809">
        <ele>3.5</ele>
        <time>2021-07-20T08:00:11Z</time>
      </trkpt>
      <trkpt lat="43.12277" lon="3.10809">
        <ele>3.5</ele>
        <time>2021-07-20T08:00:12Z</time>
      </trkpt>
      <trkpt lat="43.12277" lon="3.10809">
        <ele>3.5</ele>
        <time>2021-07-20T08:00:13Z</time>
      </trkpt>
      <trkpt lat="43.12277" lon="3.10809">
        <ele>3.5</ele>
        <time>2021-07-20T08:00:14Z</time>
      </trkpt>
      <trkpt lat="43.12277" lon="3.10809">
        <ele>0.39642215</ele>
        <time>2021-07-20T08:00:15Z</time>
      </trkpt>
      <trkpt lat="43.12277" lon="3.10809">
        <ele>3.5</ele>
        <time>2021-07-20T08:00:16Z</time>
      </trkpt>
      <trkpt lat="43.12277" lon="3.10809">
        <ele>3.5</ele>
        <time>2021-07-20T08:00:17Z</time>
      </trkpt>
      <trkpt lat="43.12277" lon="3.10809">
        <ele>3.5</ele>
        <time>2021-07-20T08:00:18Z</time>
      </trkpt>
      <trkpt lat="43.12277" lon="3.10809">
        <ele>3.5</ele>
        <time>2021-07-20T08:00:19Z</time>
      </trkpt>
      <trkpt lat="43.12277" lon="3.10809">
        <ele>3.5</ele>
        <time>2021-07-20T08:00:20Z</time>
      </trkpt>
      <trkpt lat="43.12277" lon="3.10809">
        <ele>3.5</ele>
        <time>2021-07-20T08:00:21Z</time>
      </trkpt>
      <trkpt lat="43.12277" lon="3.10809">
        <ele>3.5</ele>
        <time>2021-07-20T08:00:22Z</time>
      </trkpt>
      <trkpt lat="43.12277" lon="3.10809">
        <ele>3.5</ele>
        <time>2021-07-20T08:00:23Z</time>
      </trkpt>
      <trkpt lat="43.12277" lon="3.10809">
        <ele>3.5</ele>
        <time>2021-07-20T08:00:24Z</time>
      </trkpt>
      <trkpt lat="43.12277" lon="3.10809">
        <ele>0.47217074</ele>
        <time>2021-07-20T08:00:25Z</time>
      </trkpt>
      <trkpt lat="43.12277" lon="3.10809">
        <ele>3.5</ele>
        <time>2021-07-20T08:00:26Z</time>
      </trkpt>
      <trkpt lat="43.12277" lon="3.10809">
        <ele>3.5</ele>
        <time>2021-07-20T08:00:27Z</time>
      </trkpt>
      <trkpt lat="43.12277" lon="3.10809">
        <ele>3.5</ele>
        <time>2021-07-20T08:00:28Z</time>
      </trkpt>
      <trkpt lat="43.12277" lon="3.10809">
        <ele>3.5</ele>
        <time>2021-07-20T08:00:29Z</time>
      </trkpt>
      <trkpt lat="43.12277" lon="3.10809">
        <ele>3.5</ele>
        <time>2021-07-20T08:00:30Z</time>
      </trkpt>
      <trkpt lat="43.12277" lon="3.1081">
        <ele>3.5</ele>
        <time>2021-07-20T08:00:31Z</time>
      </trkpt>
      <trkpt lat="43.12277" lon="3.10811">
        <ele>3.6</ele>
        <time>2021-07-20T08:00:32Z</time>
      </trkpt>
      <trkpt lat="43.12278" lon="3.10813">
        <ele>3.6</ele>
        <time>2021-07-20T08:00:33Z</time>
      </trkpt>
      <trkpt lat="43.12278" lon="3.10814">
        <ele>3.6</ele>
        <time>2021-07-20T08:00:34Z</time>
      </trkpt>
      <trkpt lat="43.1228" lon="3.10816">
        <ele>3.6</ele>
        <time>2021-07-20T08:00:35Z</time>
      </trkpt>
      <trkpt lat="43.12281" lon="3.10818">
        <ele>0.42132577</ele>
        <time>2021-07-20T08:00:36Z</time>
      </trkpt>
      <trkpt lat="43.12282" lon="3.10821">
        <ele>3.7</ele>
        <time>2021-07-20T08:00:37Z</time>
      </trkpt>
      <trkpt lat="43.12283" lon="3.10823">
        <ele>3.8</ele>
        <time>2021-07-20T08:00:38Z</time>
      </trkpt>
      <trkpt lat="43.12285" lon="3.10826">
        <ele>3.8</ele>
        <time>2021-07-20T08:00:39Z</time>
      </trkpt>
      <trkpt lat="43.12286" lon="3.10829">
        <ele>3.8</ele>
        <time>2021-07-20T08:00:40Z</time>
      </trkpt>
      <trkpt lat="43.12287" lon="3.10832">
        <ele>3.9</ele>
        <time>2021-07-20T08:00:41Z</time>
      </trkpt>
      <trkpt lat="43.12289" lon="3.10835">
        <ele>3.9</ele>
        <time>2021-07-20T08:00:42Z</time>
      </trkpt>
      <trkpt lat="43.1229" lon="3.10838">
        <ele>3.9</ele>
        <time>2021-07-20T08:00:43Z</time>
      </trkpt>
      <trkpt lat="43.12291" lon="3.10841">
        <ele>3.9</ele>
        <time>2021-07-20T08:00:44Z</time>
      </trkpt>
      <trkpt lat="43.12293" lon="3.10843">
        <ele>4</ele>
        <time>2021-07-20T08:00:45Z</time>
      </trkpt>
      <trkpt lat="43.12294" lon="3.10846">
        <ele>0.70668155</ele>
        <time>2021-07-20T08:00:46Z</time>
      </trkpt>
      <trkpt lat="43.12296" lon="3.10849">
        <ele>4</ele>
        <time>2021-07-20T08:00:47Z</time>
      </trkpt>
      <trkpt lat="43.12297" lon="3.10852">
        <ele>4</ele>
        <time>2021-07-20T08:00:48Z</time>
      </trkpt>
      <trkpt lat="43.12298" lon="3.10855">
        <ele>4</ele>
        <time>2021-07-20T08:00:49Z</time>
      </trkpt>
      <trkpt lat="43.123" lon="3.10858">
        <ele>4.1</ele>
        <time>2021-07-20T08:00:50Z</time>
      </trkpt>
      <trkpt lat="43.12301" lon="3.10862">
        <ele>4.1</ele>
        <time>2021-07-20T08:00:51Z</time>
      </trkpt>
      <trkpt lat="43.12303" lon="3.10865">
        <ele>4.1</ele>
        <time>2021-07-20T08:00:52Z</time>
      </trkpt>
      <trkpt lat="43.12304" lon="3.10869">
        <ele>4.2</ele>
        <time>2021-07-20T08:00:53Z</time>
      </trkpt>
      <trkpt lat="43.12306" lon="3.10873">
        <ele>4.2</ele>
        <time>2021-07-20T08:00:54Z</time>
      </trkpt>
      <trkpt lat="43.12308" lon="3.10877">
        <ele>4.2</ele>
        <time>2021-07-20T08:00:55Z</time>
      </trkpt>
      <trkpt lat="43.1231" lon="3.10881">
        <ele>1.5378654</ele>
        <time>2021-07-20T08:00:56Z</time>
      </trkpt>
      <trkpt lat="43.12312" lon="3.10885">
        <ele>4.3</ele>
        <time>2021-07-20T08:00:57Z</time>
      </trkpt>
      <trkpt lat="43.12313" lon="3.1089">
        <ele>4.3</ele>
        <time>2021-07-20T08:00:58Z</time>
      </trkpt>
      <trkpt lat="43.12315" lon="3.10894">
        <ele>4.4</ele>
        <time>2021-07-20T08:00:59Z</time>
      </trkpt>
      <trkpt lat="43.12317" lon="3.10899">
        <ele>4.5</ele>
        <time>2021-07-20T08:01:00Z</time>
      </trkpt>
      <trkpt lat="43.12319" lon="3.10903">
        <ele>4.5</ele>
        <time>2021-07-20T08:01:01Z</time>
      </trkpt>
      <trkpt lat="43.1232" lon="3.10907">
        <ele>4.5</ele>
        <time>2021-07-20T08:01:02Z</time>
      </trkpt>
      <trkpt lat="43.12322" lon="3.10912">
        <ele>4.6</ele>
        <time>2021-07-20T08:01:03Z</time>
      </trkpt>
      <trkpt lat="43.12324" lon="3.10916">
        <ele>4.7</ele>
        <time>2021-07-20T08:01:04Z</time>
      </trkpt>
      <trkpt lat="43.12326" lon="3.1092">
        <ele>4.7</ele>
        <time>2021-07-20T08:01:05Z</time>
      </trkpt>
      <trkpt lat="43.12328" lon="3.10924">
        <ele>2.1438909</ele>
        <time>2021-07-20T08:01:06Z</time>
      </trkpt>
      <trkpt lat="43.1233" lon="3.10928">
        <ele>4.6</ele>
        <time>2021-07-20T08:01:07Z</time>
      </trkpt>
      <trkpt lat="43.12331" lon="3.10931">
        <ele>4.6</ele>
        <time>2021-07-20T08:01:08Z</time>
      </trkpt>
      <trkpt lat="43.12333" lon="3.10935">
        <ele>4.5</ele>
        <time>2021-07-20T08:01:09Z</time>
      </trkpt>
      <trkpt lat="43.12335" lon="3.10939">
        <ele>4.5</ele>
        <time>2021-07-20T08:01:10Z</time>
      </trkpt>
      <trkpt lat="43.12337" lon="3.10942">
        <ele>4.4</ele>
        <time>2021-07-20T08:01:11Z</time>
      </trkpt>
      <trkpt lat="43.12341" lon="3.1095">
        <ele>4.3</ele>
        <time>2021-07-20T08:01:12Z</time>
      </trkpt>
      <trkpt lat="43.12343" lon="3.10955">
        <ele>4.2</ele>
        <time>2021-07-20T08:01:13Z</time>
      </trkpt>
      <trkpt lat="43.12345" lon="3.10959">
        <ele>4.1</ele>
        <time>2021-07-20T08:01:14Z</time>
      </trkpt>
      <trkpt lat="43.12347" lon="3.10964">
        <ele>4</ele>
        <time>2021-07-20T08:01:15Z</time>
      </trkpt>
      <trkpt lat="43.12349" lon="3.10969">
        <ele>2.0120997</ele>
        <time>2021-07-20T08:01:16Z</time>
      </trkpt>
      <trkpt lat="43.12352" lon="3.10974">
        <ele>3.9</ele>
        <time>2021-07-20T08:01:17Z</time>
      </trkpt>
      <trkpt lat="43.12354" lon="3.10979">
        <ele>3.9</ele>
        <time>2021-07-20T08:01:18Z</time>
      </trkpt>
      <trkpt lat="43.12357" lon="3.10984">
        <ele>3.8</ele>
        <time>2021-07-20T08:01:19Z</time>
      </trkpt>
      <trkpt lat="43.12359" lon="3.1099">
        <ele>3.8</ele>
        <time>2021-07-20T08:01:20Z</time>
      </trkpt>
      <trkpt lat="43.12361" lon="3.10995">
        <ele>3.7</ele>
        <time>2021-07-20T08:01:21Z</time>
      </trkpt>
      <trkpt lat="43.12363" lon="3.11">
        <ele>3.7</ele>
        <time>2021-07-20T08:01:22Z</time>
      </trkpt>
      <trkpt lat="43.12365" lon="3.11005">
        <ele>3.6</ele>
        <time>2021-07-20T08:01:23Z</time>
      </trkpt>
      <trkpt lat="43.12367" lon="3.1101">
        <ele>3.6</ele>
        <time>2021-07-20T08:01:24Z</time>
      </trkpt>
      <trkpt lat="43.1237" lon="3.11015">
        <ele>1.914554</ele>
        <time>2021-07-20T08:01:25Z</time>
      </trkpt>
      <trkpt lat="43.12371" lon="3.1102">
        <ele>3.4</ele>
        <time>2021-07-20T08:01:26Z</time>
      </trkpt>
      <trkpt lat="43.12374" lon="3.11024">
        <ele>3.4</ele>
        <time>2021-07-20T08:01:27Z</time>
      </trkpt>
      <trkpt lat="43.12376" lon="3.11029">
        <ele>3.3</ele>
        <time>2021-07-20T08:01:28Z</time>
      </trkpt>
      <trkpt lat="43.12378" lon="3.11034">
        <ele>3.3</ele>
        <time>2021-07-20T08:01:29Z</time>
      </trkpt>
      <trkpt lat="43.1238" lon="3.11038">
        <ele>3.2</ele>
        <time>2021-07-20T08:01:30Z</time>
      </trkpt>
      <trkpt lat="43.12382" lon="3.11043">
        <ele>3.1</ele>
        <time>2021-07-20T08:01:31Z</time>
      </trkpt>
      <trkpt lat="43.12384" lon="3.11047">
        <ele>3.1</ele>
        <time>2021-07-20T08:01:32Z</time>
      </trkpt>
      <trkpt lat="43.12386" lon="3.11052">
        <ele>3</ele>
        <time>2021-07-20T08:01:33Z</time>
      </trkpt>
      <trkpt lat="43.12388" lon="3.11056">
        <ele>3</ele>
        <time>2021-07-20T08:01:34Z</time>
      </trkpt>
      <trkpt lat="43.1239" lon="3.11061">
        <ele>1.4008892</ele>
        <time>2021-07-20T08:01:35Z</time>
      </trkpt>
      <trkpt lat="43.12392" lon="3.11065">
        <ele>2.8</ele>
        <time>2021-07-20T08:01:36Z</time>
      </trkpt>
      <trkpt lat="43.12394" lon="3.11069">
        <ele>2.8</ele>
        <time>2021-07-20T08:01:37Z</time>
      </trkpt>
      <trkpt lat="43.12396" lon="3.11073">
        <ele>2.7</ele>
        <time>2021-07-20T08:01:38Z</time>
      </trkpt>
      <trkpt lat="43.12397" lon="3.11078">
        <ele>2.7</ele>
        <time>2021-07-20T08:01:39Z</time>
      </trkpt>
      <trkpt lat="43.12399" lon="3.11083">
        <ele>2.6</ele>
        <time>2021-07-20T08:01:40Z</time>
      </trkpt>
      <trkpt lat="43.12401" lon="3.11087">
        <ele>2.7</ele>
        <time>2021-07-20T08:01:41Z</time>
      </trkpt>
      <trkpt lat="43.12403" lon="3.11092">
        <ele>2.8</ele>
        <time>2021-07-20T08:01:42Z</time>
      </trkpt>
      <trkpt lat="43.12405" lon="3.11097">
        <ele>2.9</ele>
        <time>2021-07-20T08:01:43Z</time>
      </trkpt>
      <trkpt lat="43.12407" lon="3.11101">
        <ele>3</ele>
        <time>2021-07-20T08:01:44Z</time>
      </trkpt>
      <trkpt lat="43.12409" lon="3.11106">
        <ele>0.7865818</ele>
        <time>2021-07-20T08:01:45Z</time>
      </trkpt>
      <trkpt lat="43.12411" lon="3.11111">
        <ele>3.2</ele>
        <time>2021-07-20T08:01:46Z</time>
      </trkpt>
      <trkpt lat="43.12413" lon="3.11115">
        <ele>3.3</ele>
        <time>2021-07-20T08:01:47Z</time>
      </trkpt>
      <trkpt lat="43.12415" lon="3.1112">
        <ele>3.4</ele>
        <time>2021-07-20T08:01:48Z</time>
      </trkpt>
      <trkpt lat="43.12416" lon="3.11124">
        <ele>3.5</ele>
        <time>2021-07-20T08:01:49Z</time>
      </trkpt>
      <trkpt lat="43.12418" lon="3.11129">
        <ele>3.6</ele>
        <time>2021-07-20T08:01:50Z</time>
      </trkpt>
      <trkpt lat="43.1242" lon="3.11134">
        <ele>3.7</ele>
        <time>2021-07-20T08:01:51Z</time>
      </trkpt>
      <trkpt lat="43.12422" lon="3.11139">
        <ele>3.8</ele>
        <time>2021-07-20T08:01:52Z</time>
      </trkpt>
      <trkpt lat="43.12424" lon="3.11144">
        <ele>3.9</ele>
        <time>2021-07-20T08:01:53Z</time>
      </trkpt>
      <trkpt lat="43.12426" lon="3.11149">
        <ele>4</ele>
        <time>2021-07-20T08:01:54Z</time>
      </trkpt>
      <trkpt lat="43.12428" lon="3.11155">
        <ele>0.74507517</ele>
        <time>2021-07-20T08:01:55Z</time>
      </trkpt>
      <trkpt lat="43.1243" lon="3.1116">
        <ele>4.3</ele>
        <time>2021-07-20T08:01:56Z</time>
      </trkpt>
      <trkpt lat="43.12433" lon="3.11165">
        <ele>4.4</ele>
        <time>2021-07-20T08:01:57Z</time>
      </trkpt>
      <trkpt lat="43.12435" lon="3.1117">
        <ele>4.4</ele>
        <time>2021-07-20T08:01:58Z</time>
      </trkpt>
      <trkpt lat="43.12437" lon="3.11175">
        <ele>4.5</ele>
        <time>2021-07-20T08:01:59Z</time>
      </trkpt>
      <trkpt lat="43.12439" lon="3.11181">
        <ele>4.5</ele>
        <time>2021-07-20T08:02:00Z</time>
      </trkpt>
      <trkpt lat="43.12442" lon="3.11186">
        <ele>4.6</ele>
        <time>2021-07-20T08:02:01Z</time>
      </trkpt>
      <trkpt lat="43.12444" lon="3.11191">
        <ele>4.6</ele>
        <time>2021-07-20T08:02:02Z</time>
      </trkpt>
      <trkpt lat="43.12446" lon="3.11196">
        <ele>4.7</ele>
        <time>2021-07-20T08:02:03Z</time>
      </trkpt>
      <trkpt lat="43.12448" lon="3.11202">
        <ele>4.8</ele>
        <time>2021-07-20T08:02:04Z</time>
      </trkpt>
      <trkpt lat="43.1245" lon="3.11207">
        <ele>0.6392335</ele>
        <time>2021-07-20T08:02:05Z</time>
      </trkpt>
      <trkpt lat="43.12452" lon="3.11212">
        <ele>4.8</ele>
        <time>2021-07-20T08:02:06Z</time>
      </trkpt>
      <trkpt lat="43.12453" lon="3.11218">
        <ele>4.9</ele>
        <time>2021-07-20T08:02:07Z</time>
      </trkpt>
      <trkpt lat="43.12455" lon="3.11223">
        <ele>4.9</ele>
        <time>2021-07-20T08:02:08Z</time>
      </trkpt>
      <trkpt lat="43.12456" lon="3.11229">
        <ele>4.9</ele>
        <time>2021-07-20T08:02:09Z</time>
      </trkpt>
      <trkpt lat="43.12457" lon="3.11235">
        <ele>5</ele>
        <time>2021-07-20T08:02:10Z</time>
      </trkpt>
      <trkpt lat="43.12458" lon="3.11241">
        <ele>5</ele>
        <time>2021-07-20T08:02:11Z</time>
      </trkpt>
      <trkpt lat="43.12459" lon="3.11247">
        <ele>5</ele>
        <time>2021-07-20T08:02:12Z</time>
      </trkpt>
      <trkpt lat="43.1246" lon="3.11253">
        <ele>5</ele>
        <time>2021-07-20T08:02:13Z</time>
      </trkpt>
      <trkpt lat="43.12462" lon="3.11259">
        <ele>5</ele>
        <time>2021-07-20T08:02:14Z</time>
      </trkpt>
      <trkpt lat="43.12463" lon="3.11265">
        <ele>5</ele>
        <time>2021-07-20T08:02:15Z</time>
      </trkpt>
      <trkpt lat="43.12463" lon="3.11271">
        <ele>0.90798926</ele>
        <time>2021-07-20T08:02:16Z</time>
      </trkpt>
      <trkpt lat="43.12465" lon="3.11277">
        <ele>5</ele>
        <time>2021-07-20T08:02:17Z</time>
      </trkpt>
      <trkpt lat="43.12466" lon="3.11283">
        <ele>5</ele>
        <time>2021-07-20T08:02:18Z</time>
      </trkpt>
      <trkpt lat="43.12468" lon="3.11288">
        <ele>5.1</ele>
        <time>2021-07-20T08:02:19Z</time>
      </trkpt>
      <trkpt lat="43.1247" lon="3.11294">
        <ele>5.1</ele>
        <time>2021-07-20T08:02:20Z</time>
      </trkpt>
      <trkpt lat="43.12472" lon="3.11299">
        <ele>5.1</ele>
        <time>2021-07-20T08:02:21Z</time>
      </trkpt>
      <trkpt lat="43.12474" lon="3.11304">
        <ele>5.2</ele>
        <time>2021-07-20T08:02:22Z</time>
      </trkpt>
      <trkpt lat="43.12476" lon="3.1131">
        <ele>5.2</ele>
        <time>2021-07-20T08:02:23Z</time>
      </trkpt>
      <trkpt lat="43.12479" lon="3.11315">
        <ele>5.3</ele>
        <time>2021-07-20T08:02:24Z</time>
      </trkpt>
      <trkpt lat="43.12481" lon="3.1132">
        <ele>5.3</ele>
        <time>2021-07-20T08:02:25Z</time>
      </trkpt>
      <trkpt lat="43.12483" lon="3.11325">
        <ele>1.0034554</ele>
        <time>2021-07-20T08:02:26Z</time>
      </trkpt>
      <trkpt lat="43.12485" lon="3.11331">
        <ele>5.5</ele>
        <time>2021-07-20T08:02:27Z</time>
      </trkpt>
      <trkpt lat="43.12487" lon="3.11336">
        <ele>5.6</ele>
        <time>2021-07-20T08:02:28Z</time>
      </trkpt>
      <trkpt lat="43.12489" lon="3.11342">
        <ele>5.7</ele>
        <time>2021-07-20T08:02:29Z</time>
      </trkpt>
      <trkpt lat="43.12491" lon="3.11347">
        <ele>5.8</ele>
        <time>2021-07-20T08:02:30Z</time>
      </trkpt>
      <trkpt lat="43.12493" lon="3.11353">
        <ele>5.9</ele>
        <time>2021-07-20T08:02:31Z</time>
      </trkpt>
      <trkpt lat="43.12495" lon="3.11358">
        <ele>6.1</ele>
        <time>2021-07-20T08:02:32Z</time>
      </trkpt>
      <trkpt lat="43.12496" lon="3.11364">
        <ele>6.2</ele>
        <time>2021-07-20T08:02:33Z</time>
      </trkpt>
      <trkpt lat="43.12498" lon="3.11369">
        <ele>6.3</ele>
        <time>2021-07-20T08:02:34Z</time>
      </trkpt>
      <trkpt lat="43.12499" lon="3.11374">
        <ele>6.4</ele>
        <time>2021-07-20T08:02:35Z</time>
      </trkpt>
      <trkpt lat="43.125" lon="3.1138">
        <ele>1.3936254</ele>
        <time>2021-07-20T08:02:36Z</time>
      </trkpt>
      <trkpt lat="43.125" lon="3.11385">
        <ele>6.6</ele>
        <time>2021-07-20T08:02:37Z</time>
      </trkpt>
      <trkpt lat="43.12501" lon="3.1139">
        <ele>6.7</ele>
        <time>2021-07-20T08:02:38Z</time>
      </trkpt>
      <trkpt lat="43.12502" lon="3.11395">
        <ele>6.8</ele>
        <time>2021-07-20T08:02:39Z</time>
      </trkpt>
      <trkpt lat="43.12502" lon="3.114">
        <ele>6.9</ele>
        <time>2021-07-20T08:02:40Z</time>
      </trkpt>
      <trkpt lat="43.12503" lon="3.11406">
        <ele>7</ele>
        <time>2021-07-20T08:02:41Z</time>
      </trkpt>
      <trkpt lat="43.12504" lon="3.11411">
        <ele>7.1</ele>
        <time>2021-07-20T08:02:42Z</time>
      </trkpt>
      <trkpt lat="43.12505" lon="3.11416">
        <ele>7.2</ele>
        <time>2021-07-20T08:02:43Z</time>
      </trkpt>
      <trkpt lat="43.12506" lon="3.11421">
        <ele>7.3</ele>
        <time>2021-07-20T08:02:44Z</time>
      </trkpt>
      <trkpt lat="43.12508" lon="3.11427">
        <ele>7.4</ele>
        <time>2021-07-20T08:02:45Z</time>
      </trkpt>
      <trkpt lat="43.12509" lon="3.11432">
        <ele>2.0401182</ele>
        <time>2021-07-20T08:02:46Z</time>
      </trkpt>
      <trkpt lat="43.12511" lon="3.11437">
        <ele>7.5</ele>
        <time>2021-07-20T08:02:47Z</time>
      </trkpt>
      <trkpt lat="43.12513" lon="3.11443">
        <ele>7.7</ele>
        <time>2021-07-20T08:02:48Z</time>
      </trkpt>
      <trkpt lat="43.12514" lon="3.11448">
        <ele>7.7</ele>
        <time>2021-07-20T08:02:49Z</time>
      </trkpt>
      <trkpt lat="43.12516" lon="3.11452">
        <ele>7.9</ele>
        <time>2021-07-20T08:02:50Z</time>
      </trkpt>
      <trkpt lat="43.12518" lon="3.11457">
        <ele>8</ele>
        <time>2021-07-20T08:02:51Z</time>
      </trkpt>
      <trkpt lat="43.1252" lon="3.11462">
        <ele>8.1</ele>
        <time>2021-07-20T08:02:52Z</time>
      </trkpt>
      <trkpt lat="43.12522" lon="3.11466">
        <ele>8.2</ele>
        <time>2021-07-20T08:02:53Z</time>
      </trkpt>
      <trkpt lat="43.12524" lon="3.1147">
        <ele>8.3</ele>
        <time>2021-07-20T08:02:54Z</time>
      </trkpt>
      <trkpt lat="43.12526" lon="3.11474">
        <ele>8.5</ele>
        <time>2021-07-20T08:02:55Z</time>
      </trkpt>
      <trkpt lat="43.12528" lon="3.11478">
        <ele>2.717762</ele>
        <time>2021-07-20T08:02:56Z</time>
      </trkpt>
      <trkpt lat="43.1253" lon="3.11482">
        <ele>8.7</ele>
        <time>2021-07-20T08:02:57Z</time>
      </trkpt>
      <trkpt lat="43.12532" lon="3.11486">
        <ele>8.9</ele>
        <time>2021-07-20T08:02:58Z</time>
      </trkpt>
      <trkpt lat="43.12534" lon="3.1149">
        <ele>9</ele>
        <time>2021-07-20T08:02:59Z</time>
      </trkpt>
      <trkpt lat="43.12536" lon="3.11494">
        <ele>9.1</ele>
        <time>2021-07-20T08:03:00Z</time>
      </trkpt>
      <trkpt lat="43.12538" lon="3.11498">
        <ele>9.3</ele>
        <time>2021-07-20T08:03:01Z</time>
      </trkpt>
      <trkpt lat="43.12539" lon="3.11503">
        <ele>9.4</ele>
        <time>2021-07-20T08:03:02Z</time>
      </trkpt>
      <trkpt lat="43.12541" lon="3.11507">
        <ele>9.5</ele>
        <time>2021-07-20T08:03:03Z</time>
      </trkpt>
      <trkpt lat="43.12542" lon="3.11512">
        <ele>9.7</ele>
        <time>2021-07-20T08:03:04Z</time>
      </trkpt>
      <trkpt lat="43.12544" lon="3.11517">
        <ele>3.7275195</ele>
        <time>2021-07-20T08:03:05Z</time>
      </trkpt>
      <trkpt lat="43.12545" lon="3.11522">
        <ele>10</ele>
        <time>2021-07-20T08:03:06Z</time>
      </trkpt>
      <trkpt lat="43.12547" lon="3.11527">
        <ele>10.2</ele>
        <time>2021-07-20T08:03:07Z</time>
      </trkpt>
      <trkpt lat="43.12548" lon="3.11532">
        <ele>10.3</ele>
        <time>2021-07-20T08:03:08Z</time>
      </trkpt>
      <trkpt lat="43.1255" lon="3.11537">
        <ele>10.5</ele>
        <time>2021-07-20T08:03:09Z</time>
      </trkpt>
      <trkpt lat="43.12551" lon="3.11542">
        <ele>10.7</ele>
        <time>2021-07-20T08:03:10Z</time>
      </trkpt>
      <trkpt lat="43.12552" lon="3.11547">
        <ele>10.9</ele>
        <time>2021-07-20T08:03:11Z</time>
      </trkpt>
      <trkpt lat="43.12554" lon="3.11553">
        <ele>11</ele>
        <time>2021-07-20T08:03:12Z</time>
      </trkpt>
      <trkpt lat="43.12555" lon="3.11558">
        <ele>11.2</ele>
        <time>2021-07-20T08:03:13Z</time>
      </trkpt>
      <trkpt lat="43.12557" lon="3.11563">
        <ele>11.5</ele>
        <time>2021-07-20T08:03:14Z</time>
      </trkpt>
      <trkpt lat="43.12558" lon="3.11568">
        <ele>4.7009964</ele>
        <time>2021-07-20T08:03:15Z</time>
      </trkpt>
      <trkpt lat="43.1256" lon="3.11573">
        <ele>11.9</ele>
        <time>2021-07-20T08:03:16Z</time>
      </trkpt>
      <trkpt lat="43.12562" lon="3.11578">
        <ele>12.1</ele>
        <time>2021-07-20T08:03:17Z</time>
      </trkpt>
      <trkpt lat="43.12563" lon="3.11583">
        <ele>12.3</ele>
        <time>2021-07-20T08:03:18Z</time>
      </trkpt>
      <trkpt lat="43.12565" lon="3.11588">
        <ele>12.4</ele>
        <time>2021-07-20T08:03:19Z</time>
      </trkpt>
      <trkpt lat="43.12566" lon="3.11593">
        <ele>12.5</ele>
        <time>2021-07-20T08:03:20Z</time>
      </trkpt>
      <trkpt lat="43.12568" lon="3.11598">
        <ele>12.6</ele>
        <time>2021-07-20T08:03:21Z</time>
      </trkpt>
      <trkpt lat="43.1257" lon="3.11603">
        <ele>12.6</ele>
        <time>2021-07-20T08:03:22Z</time>
      </trkpt>
      <trkpt lat="43.12571" lon="3.11608">
        <ele>12.7</ele>
        <time>2021-07-20T08:03:23Z</time>
      </trkpt>
      <trkpt lat="43.12573" lon="3.11613">
        <ele>12.8</ele>
        <time>2021-07-20T08:03:24Z</time>
      </trkpt>
      <trkpt lat="43.12574" lon="3.11618">
        <ele>5.0466013</ele>
        <time>2021-07-20T08:03:25Z</time>
      </trkpt>
      <trkpt lat="43.12576" lon="3.11622">
        <ele>12.9</ele>
        <time>2021-07-20T08:03:26Z</time>
      </trkpt>
      <trkpt lat="43.12578" lon="3.11628">
        <ele>13</ele>
        <time>2021-07-20T08:03:27Z</time>
      </trkpt>
      <trkpt lat="43.1258" lon="3.11632">
        <ele>13.1</ele>
        <time>2021-07-20T08:03:28Z</time>
      </trkpt>
      <trkpt lat="43.12582" lon="3.11637">
        <ele>13.2</ele>
        <time>2021-07-20T08:03:29Z</time>
      </trkpt>
      <trkpt lat="43.12584" lon="3.11641">
        <ele>13.3</ele>
        <time>2021-07-20T08:03:30Z</time>
      </trkpt>
      <trkpt lat="43.12585" lon="3.11646">
        <ele>13.4</ele>
        <time>2021-07-20T08:03:31Z</time>
      </trkpt>
      <trkpt lat="43.12587" lon="3.1165">
        <ele>13.4</ele>
        <time>2021-07-20T08:03:32Z</time>
      </trkpt>
      <trkpt lat="43.1259" lon="3.11655">
        <ele>13.5</ele>
        <time>2021-07-20T08:03:33Z</time>
      </trkpt>
      <trkpt lat="43.12592" lon="3.11659">
        <ele>13.6</ele>
        <time>2021-07-20T08:03:34Z</time>
      </trkpt>
      <trkpt lat="43.12595" lon="3.11663">
        <ele>5.3164463</ele>
        <time>2021-07-20T08:03:35Z</time>
      </trkpt>
      <trkpt lat="43.12597" lon="3.11668">
        <ele>13.7</ele>
        <time>2021-07-20T08:03:36Z</time>
      </trkpt>
      <trkpt lat="43.12599" lon="3.11672">
        <ele>13.6</ele>
        <time>2021-07-20T08:03:37Z</time>
      </trkpt>
      <trkpt lat="43.12602" lon="3.11676">
        <ele>13.5</ele>
        <time>2021-07-20T08:03:38Z</time>
      </trkpt>
      <trkpt lat="43.12605" lon="3.1168">
        <ele>13.4</ele>
        <time>2021-07-20T08:03:39Z</time>
      </trkpt>
      <trkpt lat="43.12607" lon="3.11684">
        <ele>13.3</ele>
        <time>2021-07-20T08:03:40Z</time>
      </trkpt>
      <trkpt lat="43.1261" lon="3.11688">
        <ele>13.2</ele>
        <time>2021-07-20T08:03:41Z</time>
      </trkpt>
      <trkpt lat="43.12612" lon="3.11692">
        <ele>13.1</ele>
        <time>2021-07-20T08:03:42Z</time>
      </trkpt>
      <trkpt lat="43.12615" lon="3.11696">
        <ele>13.1</ele>
        <time>2021-07-20T08:03:43Z</time>
      </trkpt>
      <trkpt lat="43.12617" lon="3.117">
        <ele>13</ele>
        <time>2021-07-20T08:03:44Z</time>
      </trkpt>
      <trkpt lat="43.1262" lon="3.11704">
        <ele>6.029475</ele>
        <time>2021-07-20T08:03:45Z</time>
      </trkpt>
      <trkpt lat="43.12623" lon="3.11708">
        <ele>12.8</ele>
        <time>2021-07-20T08:03:46Z</time>
      </trkpt>
      <trkpt lat="43.12625" lon="3.11712">
        <ele>12.8</ele>
        <time>2021-07-20T08:03:47Z</time>
      </trkpt>
      <trkpt lat="43.12627" lon="3.11716">
        <ele>12.7</ele>
        <time>2021-07-20T08:03:48Z</time>
      </trkpt>
      <trkpt lat="43.1263" lon="3.1172">
        <ele>12.7</ele>
        <time>2021-07-20T08:03:49Z</time>
      </trkpt>
      <trkpt lat="43.12632" lon="3.11723">
        <ele>12.7</ele>
        <time>2021-07-20T08:03:50Z</time>
      </trkpt>
      <trkpt lat="43.12635" lon="3.11727">
        <ele>12.7</ele>
        <time>2021-07-20T08:03:51Z</time>
      </trkpt>
      <trkpt lat="43.12638" lon="3.11731">
        <ele>12.7</ele>
        <time>2021-07-20T08:03:52Z</time>
      </trkpt>
      <trkpt lat="43.1264" lon="3.11735">
        <ele>12.6</ele>
        <time>2021-07-20T08:03:53Z</time>
      </trkpt>
      <trkpt lat="43.12643" lon="3.11739">
        <ele>12.6</ele>
        <time>2021-07-20T08:03:54Z</time>
      </trkpt>
      <trkpt lat="43.12645" lon="3.11742">
        <ele>12.6</ele>
        <time>2021-07-20T08:03:55Z</time>
      </trkpt>
      <trkpt lat="43.12648" lon="3.11746">
        <ele>6.4207683</ele>
        <time>2021-07-20T08:03:56Z</time>
      </trkpt>
      <trkpt lat="43.1265" lon="3.1175">
        <ele>12.6</ele>
        <time>2021-07-20T08:03:57Z</time>
      </trkpt>
      <trkpt lat="43.12653" lon="3.11754">
        <ele>12.7</ele>
        <time>2021-07-20T08:03:58Z</time>
      </trkpt>
      <trkpt lat="43.12656" lon="3.11757">
        <ele>12.7</ele>
        <time>2021-07-20T08:03:59Z</time>
      </trkpt>
      <trkpt lat="43.12658" lon="3.11762">
        <ele>12.7</ele>
        <time>2021-07-20T08:04:00Z</time>
      </trkpt>
      <trkpt lat="43.12661" lon="3.11765">
        <ele>12.8</ele>
        <time>2021-07-20T08:04:01Z</time>
      </trkpt>
      <trkpt lat="43.12664" lon="3.11769">
        <ele>12.8</ele>
        <time>2021-07-20T08:04:02Z</time>
      </trkpt>
      <trkpt lat="43.12666" lon="3.11773">
        <ele>12.9</ele>
        <time>2021-07-20T08:04:03Z</time>
      </trkpt>
      <trkpt lat="43.12669" lon="3.11776">
        <ele>12.9</ele>
        <time>2021-07-20T08:04:04Z</time>
      </trkpt>
      <trkpt lat="43.12672" lon="3.1178">
        <ele>12.8</ele>
        <time>2021-07-20T08:04:05Z</time>
      </trkpt>
      <trkpt lat="43.12675" lon="3.11783">
        <ele>5.9236093</ele>
        <time>2021-07-20T08:04:06Z</time>
      </trkpt>
      <trkpt lat="43.12677" lon="3.11787">
        <ele>12.7</ele>
        <time>2021-07-20T08:04:07Z</time>
      </trkpt>
      <trkpt lat="43.1268" lon="3.1179">
        <ele>12.6</ele>
        <time>2021-07-20T08:04:08Z</time>
      </trkpt>
      <trkpt lat="43.12683" lon="3.11794">
        <ele>12.6</ele>
        <time>2021-07-20T08:04:09Z</time>
      </trkpt>
      <trkpt lat="43.12685" lon="3.11797">
        <ele>12.5</ele>
        <time>2021-07-20T08:04:10Z</time>
      </trkpt>
      <trkpt lat="43.12688" lon="3.118">
        <ele>12.5</ele>
        <time>2021-07-20T08:04:11Z</time>
      </trkpt>
      <trkpt lat="43.1269" lon="3.11803">
        <ele>12.5</ele>
        <time>2021-07-20T08:04:12Z</time>
      </trkpt>
      <trkpt lat="43.12693" lon="3.11806">
        <ele>12.4</ele>
        <time>2021-07-20T08:04:13Z</time>
      </trkpt>
      <trkpt lat="43.12695" lon="3.1181">
        <ele>12.4</ele>
        <time>2021-07-20T08:04:14Z</time>
      </trkpt>
      <trkpt lat="43.12698" lon="3.11814">
        <ele>12.4</ele>
        <time>2021-07-20T08:04:15Z</time>
      </trkpt>
      <trkpt lat="43.12701" lon="3.11817">
        <ele>5.488734</ele>
        <time>2021-07-20T08:04:16Z</time>
      </trkpt>
      <trkpt lat="43.12703" lon="3.11821">
        <ele>12.3</ele>
        <time>2021-07-20T08:04:17Z</time>
      </trkpt>
      <trkpt lat="43.12706" lon="3.11824">
        <ele>12.3</ele>
        <time>2021-07-20T08:04:18Z</time>
      </trkpt>
      <trkpt lat="43.12709" lon="3.11828">
        <ele>12.3</ele>
        <time>2021-07-20T08:04:19Z</time>
      </trkpt>
      <trkpt lat="43.12711" lon="3.11831">
        <ele>12.2</ele>
        <time>2021-07-20T08:04:20Z</time>
      </trkpt>
      <trkpt lat="43.12714" lon="3.11834">
        <ele>12.3</ele>
        <time>2021-07-20T08:04:21Z</time>
      </trkpt>
      <trkpt lat="43.12718" lon="3.11837">
        <ele>12.3</ele>
        <time>2021-07-20T08:04:22Z</time>
      </trkpt>
      <trkpt lat="43.12721" lon="3.11839">
        <ele>12.3</ele>
        <time>2021-07-20T08:04:23Z</time>
      </trkpt>
      <trkpt lat="43.12725" lon="3.11842">
        <ele>12.4</ele>
        <time>2021-07-20T08:04:24Z</time>
      </trkpt>
      <trkpt lat="43.12729" lon="3.11845">
        <ele>12.4</ele>
        <time>2021-07-20T08:04:25Z</time>
      </trkpt>
      <trkpt lat="43.12732" lon="3.11847">
        <ele>5.7066894</ele>
        <time>2021-07-20T08:04:26Z</time>
      </trkpt>
      <trkpt lat="43.12736" lon="3.1185">
        <ele>12.5</ele>
        <time>2021-07-20T08:04:27Z</time>
      </trkpt>
      <trkpt lat="43.12739" lon="3.11853">
        <ele>12.5</ele>
        <time>2021-07-20T08:04:28Z</time>
      </trkpt>
      <trkpt lat="43.12743" lon="3.11855">
        <ele>12.6</ele>
        <time>2021-07-20T08:04:29Z</time>
      </trkpt>
      <trkpt lat="43.12746" lon="3.11858">
        <ele>12.6</ele>
        <time>2021-07-20T08:04:30Z</time>
      </trkpt>
      <trkpt lat="43.1275" lon="3.1186">
        <ele>12.7</ele>
        <time>2021-07-20T08:04:31Z</time>
      </trkpt>
      <trkpt lat="43.12753" lon="3.11862">
        <ele>12.6</ele>
        <time>2021-07-20T08:04:32Z</time>
      </trkpt>
      <trkpt lat="43.12757" lon="3.11865">
        <ele>12.5</ele>
        <time>2021-07-20T08:04:33Z</time>
      </trkpt>
      <trkpt lat="43.12761" lon="3.11867">
        <ele>12.4</ele>
        <time>2021-07-20T08:04:34Z</time>
      </trkpt>
      <trkpt lat="43.12765" lon="3.11869">
        <ele>12.3</ele>
        <time>2021-07-20T08:04:35Z</time>
      </trkpt>
      <trkpt lat="43.12769" lon="3.11872">
        <ele>5.147274</ele>
        <time>2021-07-20T08:04:36Z</time>
      </trkpt>
      <trkpt lat="43.12773" lon="3.11874">
        <ele>12.2</ele>
        <time>2021-07-20T08:04:37Z</time>
      </trkpt>
      <trkpt lat="43.12777" lon="3.11876">
        <ele>12.1</ele>
        <time>2021-07-20T08:04:38Z</time>
      </trkpt>
      <trkpt lat="43.12781" lon="3.11877">
        <ele>12.1</ele>
        <time>2021-07-20T08:04:39Z</time>
      </trkpt>
      <trkpt lat="43.12785" lon="3.11878">
        <ele>12.1</ele>
        <time>2021-07-20T08:04:40Z</time>
      </trkpt>
      <trkpt lat="43.12789" lon="3.11879">
        <ele>12.1</ele>
        <time>2021-07-20T08:04:41Z</time>
      </trkpt>
      <trkpt lat="43.12793" lon="3.11879">
        <ele>12.1</ele>
        <time>2021-07-20T08:04:42Z</time>
      </trkpt>
      <trkpt lat="43.12798" lon="3.11879">
        <ele>12.2</ele>
        <time>2021-07-20T08:04:43Z</time>
      </trkpt>
      <trkpt lat="43.12801" lon="3.11879">
        <ele>12.2</ele>
        <time>2021-07-20T08:04:44Z</time>
      </trkpt>
      <trkpt lat="43.12806" lon="3.11879">
        <ele>5.361075</ele>
        <time>2021-07-20T08:04:45Z</time>
      </trkpt>
      <trkpt lat="43.12809" lon="3.11879">
        <ele>12.3</ele>
        <time>2021-07-20T08:04:46Z</time>
      </trkpt>
      <trkpt lat="43.12814" lon="3.11879">
        <ele>12.3</ele>
        <time>2021-07-20T08:04:47Z</time>
      </trkpt>
      <trkpt lat="43.12818" lon="3.1188">
        <ele>12.3</ele>
        <time>2021-07-20T08:04:48Z</time>
      </trkpt>
      <trkpt lat="43.12822" lon="3.1188">
        <ele>12.3</ele>
        <time>2021-07-20T08:04:49Z</time>
      </trkpt>
      <trkpt lat="43.12826" lon="3.1188">
        <ele>12.4</ele>
        <time>2021-07-20T08:04:50Z</time>
      </trkpt>
      <trkpt lat="43.1283" lon="3.1188">
        <ele>12.4</ele>
        <time>2021-07-20T08:04:51Z</time>
      </trkpt>
      <trkpt lat="43.12835" lon="3.11881">
        <ele>12.5</ele>
        <time>2021-07-20T08:04:52Z</time>
      </trkpt>
      <trkpt lat="43.1284" lon="3.11881">
        <ele>12.5</ele>
        <time>2021-07-20T08:04:53Z</time>
      </trkpt>
      <trkpt lat="43.12844" lon="3.11882">
        <ele>12.6</ele>
        <time>2021-07-20T08:04:54Z</time>
      </trkpt>
      <trkpt lat="43.12849" lon="3.11883">
        <ele>5.8405776</ele>
        <time>2021-07-20T08:04:55Z</time>
      </trkpt>
      <trkpt lat="43.12854" lon="3.11883">
        <ele>12.7</ele>
        <time>2021-07-20T08:04:56Z</time>
      </trkpt>
      <trkpt lat="43.12858" lon="3.11884">
        <ele>12.8</ele>
        <time>2021-07-20T08:04:57Z</time>
      </trkpt>
      <trkpt lat="43.12864" lon="3.11884">
        <ele>12.8</ele>
        <time>2021-07-20T08:04:58Z</time>
      </trkpt>
      <trkpt lat="43.12868" lon="3.11885">
        <ele>12.9</ele>
        <time>2021-07-20T08:04:59Z</time>
      </trkpt>
      <trkpt lat="43.12873" lon="3.11886">
        <ele>12.9</ele>
        <time>2021-07-20T08:05:00Z</time>
      </trkpt>
      <trkpt lat="43.12878" lon="3.11886">
        <ele>13</ele>
        <time>2021-07-20T08:05:01Z</time>
      </trkpt>
      <trkpt lat="43.12882" lon="3.11887">
        <ele>13</ele>
        <time>2021-07-20T08:05:02Z</time>
      </trkpt>
      <trkpt lat="43.12887" lon="3.11887">
        <ele>13</ele>
        <time>2021-07-20T08:05:03Z</time>
      </trkpt>
      <trkpt lat="43.12892" lon="3.11888">
        <ele>13.1</ele>
        <time>2021-07-20T08:05:04Z</time>
      </trkpt>
      <trkpt lat="43.12897" lon="3.11888">
        <ele>5.409855</ele>
        <time>2021-07-20T08:05:05Z</time>
      </trkpt>
      <trkpt lat="43.12902" lon="3.11889">
        <ele>13.1</ele>
        <time>2021-07-20T08:05:06Z</time>
      </trkpt>
      <trkpt lat="43.12906" lon="3.1189">
        <ele>13.1</ele>
        <time>2021-07-20T08:05:07Z</time>
      </trkpt>
      <trkpt lat="43.12911" lon="3.11892">
        <ele>13.1</ele>
        <time>2021-07-20T08:05:08Z</time>
      </trkpt>
      <trkpt lat="43.12916" lon="3.11893">
        <ele>13.1</ele>
        <time>2021-07-20T08:05:09Z</time>
      </trkpt>
      <trkpt lat="43.1292" lon="3.11894">
        <ele>13.1</ele>
        <time>2021-07-20T08:05:10Z</time>
      </trkpt>
      <trkpt lat="43.12925" lon="3.11895">
        <ele>13</ele>
        <time>2021-07-20T08:05:11Z</time>
      </trkpt>
      <trkpt lat="43.1293" lon="3.11897">
        <ele>12.9</ele>
        <time>2021-07-20T08:05:12Z</time>
      </trkpt>
      <trkpt lat="43.12935" lon="3.11898">
        <ele>12.8</ele>
        <time>2021-07-20T08:05:13Z</time>
      </trkpt>
      <trkpt lat="43.12939" lon="3.119">
        <ele>12.8</ele>
        <time>2021-07-20T08:05:14Z</time>
      </trkpt>
      <trkpt lat="43.12944" lon="3.11901">
        <ele>5.183599</ele>
        <time>2021-07-20T08:05:15Z</time>
      </trkpt>
      <trkpt lat="43.12948" lon="3.11903">
        <ele>12.6</ele>
        <time>2021-07-20T08:05:16Z</time>
      </trkpt>
      <trkpt lat="43.12952" lon="3.11904">
        <ele>12.5</ele>
        <time>2021-07-20T08:05:17Z</time>
      </trkpt>
      <trkpt lat="43.12957" lon="3.11906">
        <ele>12.4</ele>
        <time>2021-07-20T08:05:18Z</time>
      </trkpt>
      <trkpt lat="43.12961" lon="3.11908">
        <ele>12.4</ele>
        <time>2021-07-20T08:05:19Z</time>
      </trkpt>
      <trkpt lat="43.12965" lon="3.11909">
        <ele>12.3</ele>
        <time>2021-07-20T08:05:20Z</time>
      </trkpt>
      <trkpt lat="43.12969" lon="3.1191">
        <ele>12.3</ele>
        <time>2021-07-20T08:05:21Z</time>
      </trkpt>
      <trkpt lat="43.12973" lon="3.1191">
        <ele>12.3</ele>
        <time>2021-07-20T08:05:22Z</time>
      </trkpt>
      <trkpt lat="43.12978" lon="3.1191">
        <ele>12.3</ele>
        <time>2021-07-20T08:05:23Z</time>
      </trkpt>
      <trkpt lat="43.12983" lon="3.11908">
        <ele>12.3</ele>
        <time>2021-07-20T08:05:24Z</time>
      </trkpt>
      <trkpt lat="43.12988" lon="3.11906">
        <ele>5.758584</ele>
        <time>2021-07-20T08:05:25Z</time>
      </trkpt>
      <trkpt lat="43.12994" lon="3.11904">
        <ele>12.5</ele>
        <time>2021-07-20T08:05:26Z</time>
      </trkpt>
      <trkpt lat="43.12999" lon="3.11902">
        <ele>12.5</ele>
        <time>2021-07-20T08:05:27Z</time>
      </trkpt>
      <trkpt lat="43.13005" lon="3.11901">
        <ele>12.7</ele>
        <time>2021-07-20T08:05:28Z</time>
      </trkpt>
      <trkpt lat="43.1301" lon="3.119">
        <ele>12.9</ele>
        <time>2021-07-20T08:05:29Z</time>
      </trkpt>
      <trkpt lat="43.13015" lon="3.11901">
        <ele>13.1</ele>
        <time>2021-07-20T08:05:30Z</time>
      </trkpt>
      <trkpt lat="43.1302" lon="3.11902">
        <ele>13.2</ele>
        <time>2021-07-20T08:05:31Z</time>
      </trkpt>
      <trkpt lat="43.13025" lon="3.11903">
        <ele>13.3</ele>
        <time>2021-07-20T08:05:32Z</time>
      </trkpt>
      <trkpt lat="43.13029" lon="3.11904">
        <ele>13.4</ele>
        <time>2021-07-20T08:05:33Z</time>
      </trkpt>
      <trkpt lat="43.13034" lon="3.11906">
        <ele>13.6</ele>
        <time>2021-07-20T08:05:34Z</time>
      </trkpt>
      <trkpt lat="43.13039" lon="3.11907">
        <ele>13.7</ele>
        <time>2021-07-20T08:05:35Z</time>
      </trkpt>
      <trkpt lat="43.13044" lon="3.11908">
        <ele>5.5229836</ele>
        <time>2021-07-20T08:05:36Z</time>
      </trkpt>
      <trkpt lat="43.13049" lon="3.11909">
        <ele>14</ele>
        <time>2021-07-20T08:05:37Z</time>
      </trkpt>
      <trkpt lat="43.13054" lon="3.1191">
        <ele>14.1</ele>
        <time>2021-07-20T08:05:38Z</time>
      </trkpt>
      <trkpt lat="43.13058" lon="3.11911">
        <ele>14.2</ele>
        <time>2021-07-20T08:05:39Z</time>
      </trkpt>
      <trkpt lat="43.13063" lon="3.11912">
        <ele>14.4</ele>
        <time>2021-07-20T08:05:40Z</time>
      </trkpt>
      <trkpt lat="43.13067" lon="3.11914">
        <ele>14.5</ele>
        <time>2021-07-20T08:05:41Z</time>
      </trkpt>
      <trkpt lat="43.13072" lon="3.11915">
        <ele>14.6</ele>
        <time>2021-07-20T08:05:42Z</time>
      </trkpt>
      <trkpt lat="43.13076" lon="3.11916">
        <ele>14.7</ele>
        <time>2021-07-20T08:05:43Z</time>
      </trkpt>
      <trkpt lat="43.1308" lon="3.11917">
        <ele>14.9</ele>
        <time>2021-07-20T08:05:44Z</time>
      </trkpt>
      <trkpt lat="43.13084" lon="3.11918">
        <ele>15</ele>
        <time>2021-07-20T08:05:45Z</time>
      </trkpt>
      <trkpt lat="43.13088" lon="3.1192">
        <ele>5.48562</ele>
        <time>2021-07-20T08:05:46Z</time>
      </trkpt>
      <trkpt lat="43.13092" lon="3.11921">
        <ele>16.1</ele>
        <time>2021-07-20T08:05:47Z</time>
      </trkpt>
      <trkpt lat="43.13096" lon="3.11924">
        <ele>16.6</ele>
        <time>2021-07-20T08:05:48Z</time>
      </trkpt>
      <trkpt lat="43.13099" lon="3.11927">
        <ele>16.9</ele>
        <time>2021-07-20T08:05:49Z</time>
      </trkpt>
      <trkpt lat="43.13101" lon="3.11931">
        <ele>17.2</ele>
        <time>2021-07-20T08:05:50Z</time>
      </trkpt>
      <trkpt lat="43.13104" lon="3.11935">
        <ele>17.4</ele>
        <time>2021-07-20T08:05:51Z</time>
      </trkpt>
      <trkpt lat="43.13105" lon="3.1194">
        <ele>17.4</ele>
        <time>2021-07-20T08:05:52Z</time>
      </trkpt>
      <trkpt lat="43.13107" lon="3.11945">
        <ele>17.4</ele>
        <time>2021-07-20T08:05:53Z</time>
      </trkpt>
      <trkpt lat="43.13108" lon="3.11949">
        <ele>17.4</ele>
        <time>2021-07-20T08:05:54Z</time>
      </trkpt>
      <trkpt lat="43.13109" lon="3.11954">
        <ele>17.4</ele>
        <time>2021-07-20T08:05:55Z</time>
      </trkpt>
      <trkpt lat="43.1311" lon="3.11958">
        <ele>6.4301095</ele>
        <time>2021-07-20T08:05:56Z</time>
      </trkpt>
      <trkpt lat="43.13111" lon="3.11963">
        <ele>17.2</ele>
        <time>2021-07-20T08:05:57Z</time>
      </trkpt>
      <trkpt lat="43.13112" lon="3.11967">
        <ele>17.2</ele>
        <time>2021-07-20T08:05:58Z</time>
      </trkpt>
      <trkpt lat="43.13113" lon="3.11972">
        <ele>17.1</ele>
        <time>2021-07-20T08:05:59Z</time>
      </trkpt>
      <trkpt lat="43.13113" lon="3.11977">
        <ele>17</ele>
        <time>2021-07-20T08:06:00Z</time>
      </trkpt>
      <trkpt lat="43.13114" lon="3.11982">
        <ele>16.9</ele>
        <time>2021-07-20T08:06:01Z</time>
      </trkpt>
      <trkpt lat="43.13114" lon="3.11986">
        <ele>16.7</ele>
        <time>2021-07-20T08:06:02Z</time>
      </trkpt>
      <trkpt lat="43.13115" lon="3.11991">
        <ele>16.5</ele>
        <time>2021-07-20T08:06:03Z</time>
      </trkpt>
      <trkpt lat="43.13115" lon="3.11997">
        <ele>16.2</ele>
        <time>2021-07-20T08:06:04Z</time>
      </trkpt>
      <trkpt lat="43.13114" lon="3.12003">
        <ele>15.8</ele>
        <time>2021-07-20T08:06:05Z</time>
      </trkpt>
      <trkpt lat="43.13114" lon="3.12009">
        <ele>8.435463</ele>
        <time>2021-07-20T08:06:06Z</time>
      </trkpt>
      <trkpt lat="43.13114" lon="3.12015">
        <ele>14.9</ele>
        <time>2021-07-20T08:06:07Z</time>
      </trkpt>
      <trkpt lat="43.13114" lon="3.12021">
        <ele>14.4</ele>
        <time>2021-07-20T08:06:08Z</time>
      </trkpt>
      <trkpt lat="43.13115" lon="3.12027">
        <ele>14</ele>
        <time>2021-07-20T08:06:09Z</time>
      </trkpt>
      <trkpt lat="43.13115" lon="3.12033">
        <ele>13.5</ele>
        <time>2021-07-20T08:06:10Z</time>
      </trkpt>
      <trkpt lat="43.13115" lon="3.12039">
        <ele>8.762439</ele>
        <time>2021-07-20T08:06:11Z</time>
      </trkpt>
      <trkpt lat="43.13116" lon="3.12046">
        <ele>12.6</ele>
        <time>2021-07-20T08:06:12Z</time>
      </trkpt>
      <trkpt lat="43.13117" lon="3.12053">
        <ele>12.1</ele>
        <time>2021-07-20T08:06:13Z</time>
      </trkpt>
      <trkpt lat="43.13117" lon="3.1206">
        <ele>11.5</ele>
        <time>2021-07-20T08:06:14Z</time>
      </trkpt>
      <trkpt lat="43.13118" lon="3.12068">
        <ele>10.9</ele>
        <time>2021-07-20T08:06:15Z</time>
      </trkpt>
      <trkpt lat="43.13118" lon="3.12075">
        <ele>8.703271</ele>
        <time>2021-07-20T08:06:16Z</time>
      </trkpt>
      <trkpt lat="43.13118" lon="3.12083">
        <ele>9.7</ele>
        <time>2021-07-20T08:06:17Z</time>
      </trkpt>
      <trkpt lat="43.13118" lon="3.12092">
        <ele>9.5</ele>
        <time>2021-07-20T08:06:18Z</time>
      </trkpt>
      <trkpt lat="43.13118" lon="3.12101">
        <ele>9.2</ele>
        <time>2021-07-20T08:06:19Z</time>
      </trkpt>
      <trkpt lat="43.13117" lon="3.12111">
        <ele>9</ele>
        <time>2021-07-20T08:06:20Z</time>
      </trkpt>
      <trkpt lat="43.13117" lon="3.1212">
        <ele>8.7</ele>
        <time>2021-07-20T08:06:21Z</time>
      </trkpt>
      <trkpt lat="43.13117" lon="3.12131">
        <ele>8.5</ele>
        <time>2021-07-20T08:06:22Z</time>
      </trkpt>
      <trkpt lat="43.13117" lon="3.12141">
        <ele>8.2</ele>
        <time>2021-07-20T08:06:23Z</time>
      </trkpt>
      <trkpt lat="43.13117" lon="3.12152">
        <ele>7.9</ele>
        <time>2021-07-20T08:06:24Z</time>
      </trkpt>
      <trkpt lat="43.13116" lon="3.12163">
        <ele>7.151477</ele>
        <time>2021-07-20T08:06:25Z</time>
      </trkpt>
      <trkpt lat="43.13115" lon="3.12173">
        <ele>7.7</ele>
        <time>2021-07-20T08:06:26Z</time>
      </trkpt>
      <trkpt lat="43.13112" lon="3.12183">
        <ele>7.9</ele>
        <time>2021-07-20T08:06:27Z</time>
      </trkpt>
      <trkpt lat="43.1311" lon="3.12193">
        <ele>8.1</ele>
        <time>2021-07-20T08:06:28Z</time>
      </trkpt>
      <trkpt lat="43.13107" lon="3.12202">
        <ele>8.2</ele>
        <time>2021-07-20T08:06:29Z</time>
      </trkpt>
      <trkpt lat="43.13105" lon="3.1221">
        <ele>8.2</ele>
        <time>2021-07-20T08:06:30Z</time>
      </trkpt>
      <trkpt lat="43.13102" lon="3.12219">
        <ele>8.2</ele>
        <time>2021-07-20T08:06:31Z</time>
      </trkpt>
      <trkpt lat="43.13099" lon="3.12227">
        <ele>8.2</ele>
        <time>2021-07-20T08:06:32Z</time>
      </trkpt>
      <trkpt lat="43.13096" lon="3.12235">
        <ele>8.1</ele>
        <time>2021-07-20T08:06:33Z</time>
      </trkpt>
      <trkpt lat="43.13093" lon="3.12243">
        <ele>7.9</ele>
        <time>2021-07-20T08:06:34Z</time>
      </trkpt>
      <trkpt lat="43.1309" lon="3.1225">
        <ele>4.7404346</ele>
        <time>2021-07-20T08:06:35Z</time>
      </trkpt>
      <trkpt lat="43.13086" lon="3.12257">
        <ele>7.7</ele>
        <time>2021-07-20T08:06:36Z</time>
      </trkpt>
      <trkpt lat="43.13083" lon="3.12264">
        <ele>7.8</ele>
        <time>2021-07-20T08:06:37Z</time>
      </trkpt>
      <trkpt lat="43.13079" lon="3.1227">
        <ele>8</ele>
        <time>2021-07-20T08:06:38Z</time>
      </trkpt>
      <trkpt lat="43.13076" lon="3.12275">
        <ele>8.2</ele>
        <time>2021-07-20T08:06:39Z</time>
      </trkpt>
      <trkpt lat="43.13072" lon="3.1228">
        <ele>8.3</ele>
        <time>2021-07-20T08:06:40Z</time>
      </trkpt>
      <trkpt lat="43.13068" lon="3.12283">
        <ele>8.3</ele>
        <time>2021-07-20T08:06:41Z</time>
      </trkpt>
      <trkpt lat="43.13065" lon="3.12286">
        <ele>8.3</ele>
        <time>2021-07-20T08:06:42Z</time>
      </trkpt>
      <trkpt lat="43.13062" lon="3.1229">
        <ele>8.3</ele>
        <time>2021-07-20T08:06:43Z</time>
      </trkpt>
      <trkpt lat="43.13059" lon="3.12293">
        <ele>8.2</ele>
        <time>2021-07-20T08:06:44Z</time>
      </trkpt>
      <trkpt lat="43.13057" lon="3.12297">
        <ele>3.5189226</ele>
        <time>2021-07-20T08:06:45Z</time>
      </trkpt>
      <trkpt lat="43.13057" lon="3.12302">
        <ele>8.4</ele>
        <time>2021-07-20T08:06:46Z</time>
      </trkpt>
      <trkpt lat="43.13056" lon="3.12307">
        <ele>8.5</ele>
        <time>2021-07-20T08:06:47Z</time>
      </trkpt>
      <trkpt lat="43.13057" lon="3.12312">
        <ele>8.8</ele>
        <time>2021-07-20T08:06:48Z</time>
      </trkpt>
      <trkpt lat="43.13059" lon="3.12317">
        <ele>9.1</ele>
        <time>2021-07-20T08:06:49Z</time>
      </trkpt>
      <trkpt lat="43.1306" lon="3.12323">
        <ele>9.4</ele>
        <time>2021-07-20T08:06:50Z</time>
      </trkpt>
      <trkpt lat="43.13062" lon="3.12328">
        <ele>9.8</ele>
        <time>2021-07-20T08:06:51Z</time>
      </trkpt>
      <trkpt lat="43.13065" lon="3.12333">
        <ele>10.2</ele>
        <time>2021-07-20T08:06:52Z</time>
      </trkpt>
      <trkpt lat="43.13068" lon="3.12337">
        <ele>10.3</ele>
        <time>2021-07-20T08:06:53Z</time>
      </trkpt>
      <trkpt lat="43.1307" lon="3.1234">
        <ele>10.3</ele>
        <time>2021-07-20T08:06:54Z</time>
      </trkpt>
      <trkpt lat="43.13073" lon="3.12343">
        <ele>3.556283</ele>
        <time>2021-07-20T08:06:55Z</time>
      </trkpt>
      <trkpt lat="43.13076" lon="3.12346">
        <ele>10.4</ele>
        <time>2021-07-20T08:06:56Z</time>
      </trkpt>
      <trkpt lat="43.13079" lon="3.12349">
        <ele>10.5</ele>
        <time>2021-07-20T08:06:57Z</time>
      </trkpt>
      <trkpt lat="43.13081" lon="3.12352">
        <ele>10.5</ele>
        <time>2021-07-20T08:06:58Z</time>
      </trkpt>
      <trkpt lat="43.13084" lon="3.12355">
        <ele>10.5</ele>
        <time>2021-07-20T08:06:59Z</time>
      </trkpt>
      <trkpt lat="43.13087" lon="3.1236">
        <ele>10.5</ele>
        <time>2021-07-20T08:07:00Z</time>
      </trkpt>
      <trkpt lat="43.1309" lon="3.12364">
        <ele>10.5</ele>
        <time>2021-07-20T08:07:01Z</time>
      </trkpt>
      <trkpt lat="43.13092" lon="3.12369">
        <ele>10.5</ele>
        <time>2021-07-20T08:07:02Z</time>
      </trkpt>
      <trkpt lat="43.13095" lon="3.12373">
        <ele>10.4</ele>
        <time>2021-07-20T08:07:03Z</time>
      </trkpt>
      <trkpt lat="43.13098" lon="3.12379">
        <ele>10.3</ele>
        <time>2021-07-20T08:07:04Z</time>
      </trkpt>
      <trkpt lat="43.131" lon="3.12383">
        <ele>10.2</ele>
        <time>2021-07-20T08:07:05Z</time>
      </trkpt>
      <trkpt lat="43.13103" lon="3.12388">
        <ele>1.2348585</ele>
        <time>2021-07-20T08:07:06Z</time>
      </trkpt>
      <trkpt lat="43.13106" lon="3.12393">
        <ele>10</ele>
        <time>2021-07-20T08:07:07Z</time>
      </trkpt>
      <trkpt lat="43.13109" lon="3.12398">
        <ele>10</ele>
        <time>2021-07-20T08:07:08Z</time>
      </trkpt>
      <trkpt lat="43.13112" lon="3.12402">
        <ele>10</ele>
        <time>2021-07-20T08:07:09Z</time>
      </trkpt>
      <trkpt lat="43.13115" lon="3.12406">
        <ele>9.9</ele>
        <time>2021-07-20T08:07:10Z</time>
      </trkpt>
      <trkpt lat="43.13118" lon="3.1241">
        <ele>9.9</ele>
        <time>2021-07-20T08:07:11Z</time>
      </trkpt>
      <trkpt lat="43.13122" lon="3.12414">
        <ele>9.9</ele>
        <time>2021-07-20T08:07:12Z</time>
      </trkpt>
      <trkpt lat="43.13125" lon="3.12417">
        <ele>10</ele>
        <time>2021-07-20T08:07:13Z</time>
      </trkpt>
      <trkpt lat="43.13128" lon="3.1242">
        <ele>10</ele>
        <time>2021-07-20T08:07:14Z</time>
      </trkpt>
      <trkpt lat="43.13131" lon="3.12423">
        <ele>10.1</ele>
        <time>2021-07-20T08:07:15Z</time>
      </trkpt>
      <trkpt lat="43.13134" lon="3.12426">
        <ele>0.66828805</ele>
        <time>2021-07-20T08:07:16Z</time>
      </trkpt>
      <trkpt lat="43.13137" lon="3.12427">
        <ele>10.3</ele>
        <time>2021-07-20T08:07:17Z</time>
      </trkpt>
      <trkpt lat="43.13141" lon="3.1243">
        <ele>10.5</ele>
        <time>2021-07-20T08:07:18Z</time>
      </trkpt>
      <trkpt lat="43.13145" lon="3.12432">
        <ele>10.6</ele>
        <time>2021-07-20T08:07:19Z</time>
      </trkpt>
      <trkpt lat="43.13149" lon="3.12435">
        <ele>10.8</ele>
        <time>2021-07-20T08:07:20Z</time>
      </trkpt>
      <trkpt lat="43.13154" lon="3.12437">
        <ele>10.9</ele>
        <time>2021-07-20T08:07:21Z</time>
      </trkpt>
      <trkpt lat="43.13158" lon="3.1244">
        <ele>11</ele>
        <time>2021-07-20T08:07:22Z</time>
      </trkpt>
      <trkpt lat="43.13162" lon="3.12443">
        <ele>11.1</ele>
        <time>2021-07-20T08:07:23Z</time>
      </trkpt>
      <trkpt lat="43.13166" lon="3.12447">
        <ele>11</ele>
        <time>2021-07-20T08:07:24Z</time>
      </trkpt>
      <trkpt lat="43.1317" lon="3.1245">
        <ele>11</ele>
        <time>2021-07-20T08:07:25Z</time>
      </trkpt>
      <trkpt lat="43.13174" lon="3.12453">
        <ele>0.97128737</ele>
        <time>2021-07-20T08:07:26Z</time>
      </trkpt>
      <trkpt lat="43.13178" lon="3.12457">
        <ele>10.9</ele>
        <time>2021-07-20T08:07:27Z</time>
      </trkpt>
      <trkpt lat="43.13182" lon="3.12461">
        <ele>10.8</ele>
        <time>2021-07-20T08:07:28Z</time>
      </trkpt>
      <trkpt lat="43.13186" lon="3.12464">
        <ele>10.8</ele>
        <time>2021-07-20T08:07:29Z</time>
      </trkpt>
      <trkpt lat="43.13191" lon="3.12468">
        <ele>10.8</ele>
        <time>2021-07-20T08:07:30Z</time>
      </trkpt>
      <trkpt lat="43.13195" lon="3.12471">
        <ele>10.8</ele>
        <time>2021-07-20T08:07:31Z</time>
      </trkpt>
      <trkpt lat="43.132" lon="3.12475">
        <ele>10.8</ele>
        <time>2021-07-20T08:07:32Z</time>
      </trkpt>
      <trkpt lat="43.13204" lon="3.12478">
        <ele>10.9</ele>
        <time>2021-07-20T08:07:33Z</time>
      </trkpt>
      <trkpt lat="43.13208" lon="3.12481">
        <ele>11</ele>
        <time>2021-07-20T08:07:34Z</time>
      </trkpt>
      <trkpt lat="43.13213" lon="3.12485">
        <ele>11.1</ele>
        <time>2021-07-20T08:07:35Z</time>
      </trkpt>
      <trkpt lat="43.13217" lon="3.12488">
        <ele>0.88931113</ele>
        <time>2021-07-20T08:07:36Z</time>
      </trkpt>
      <trkpt lat="43.1322" lon="3.12493">
        <ele>11</ele>
        <time>2021-07-20T08:07:37Z</time>
      </trkpt>
      <trkpt lat="43.13224" lon="3.12497">
        <ele>11</ele>
        <time>2021-07-20T08:07:38Z</time>
      </trkpt>
      <trkpt lat="43.13228" lon="3.12502">
        <ele>11</ele>
        <time>2021-07-20T08:07:39Z</time>
      </trkpt>
      <trkpt lat="43.13232" lon="3.12505">
        <ele>11.1</ele>
        <time>2021-07-20T08:07:40Z</time>
      </trkpt>
      <trkpt lat="43.13236" lon="3.12508">
        <ele>11.3</ele>
        <time>2021-07-20T08:07:41Z</time>
      </trkpt>
      <trkpt lat="43.1324" lon="3.1251">
        <ele>11.5</ele>
        <time>2021-07-20T08:07:42Z</time>
      </trkpt>
      <trkpt lat="43.13245" lon="3.12511">
        <ele>11.8</ele>
        <time>2021-07-20T08:07:43Z</time>
      </trkpt>
      <trkpt lat="43.1325" lon="3.12513">
        <ele>12</ele>
        <time>2021-07-20T08:07:44Z</time>
      </trkpt>
      <trkpt lat="43.13254" lon="3.12515">
        <ele>12</ele>
        <time>2021-07-20T08:07:45Z</time>
      </trkpt>
      <trkpt lat="43.13258" lon="3.12518">
        <ele>0.41094926</ele>
        <time>2021-07-20T08:07:46Z</time>
      </trkpt>
      <trkpt lat="43.13262" lon="3.12521">
        <ele>12</ele>
        <time>2021-07-20T08:07:47Z</time>
      </trkpt>
      <trkpt lat="43.13266" lon="3.12525">
        <ele>11.9</ele>
        <time>2021-07-20T08:07:48Z</time>
      </trkpt>
      <trkpt lat="43.13268" lon="3.1253">
        <ele>11.7</ele>
        <time>2021-07-20T08:07:49Z</time>
      </trkpt>
      <trkpt lat="43.13271" lon="3.12536">
        <ele>11.5</ele>
        <time>2021-07-20T08:07:50Z</time>
      </trkpt>
      <trkpt lat="43.13272" lon="3.12542">
        <ele>11.3</ele>
        <time>2021-07-20T08:07:51Z</time>
      </trkpt>
      <trkpt lat="43.13273" lon="3.12548">
        <ele>11.1</ele>
        <time>2021-07-20T08:07:52Z</time>
      </trkpt>
      <trkpt lat="43.13274" lon="3.12554">
        <ele>10.8</ele>
        <time>2021-07-20T08:07:53Z</time>
      </trkpt>
      <trkpt lat="43.13274" lon="3.1256">
        <ele>10.5</ele>
        <time>2021-07-20T08:07:54Z</time>
      </trkpt>
      <trkpt lat="43.13275" lon="3.12566">
        <ele>10.3</ele>
        <time>2021-07-20T08:07:55Z</time>
      </trkpt>
      <trkpt lat="43.13276" lon="3.12572">
        <ele>0.61744267</ele>
        <time>2021-07-20T08:07:56Z</time>
      </trkpt>
      <trkpt lat="43.13276" lon="3.12577">
        <ele>9.8</ele>
        <time>2021-07-20T08:07:57Z</time>
      </trkpt>
      <trkpt lat="43.13277" lon="3.12581">
        <ele>9.7</ele>
        <time>2021-07-20T08:07:58Z</time>
      </trkpt>
      <trkpt lat="43.13277" lon="3.12586">
        <ele>9.5</ele>
        <time>2021-07-20T08:07:59Z</time>
      </trkpt>
      <trkpt lat="43.13278" lon="3.1259">
        <ele>9.3</ele>
        <time>2021-07-20T08:08:00Z</time>
      </trkpt>
      <trkpt lat="43.1328" lon="3.12595">
        <ele>9.2</ele>
        <time>2021-07-20T08:08:01Z</time>
      </trkpt>
      <trkpt lat="43.13281" lon="3.12599">
        <ele>9</ele>
        <time>2021-07-20T08:08:02Z</time>
      </trkpt>
      <trkpt lat="43.13281" lon="3.12603">
        <ele>8.8</ele>
        <time>2021-07-20T08:08:03Z</time>
      </trkpt>
      <trkpt lat="43.13282" lon="3.12608">
        <ele>8.6</ele>
        <time>2021-07-20T08:08:04Z</time>
      </trkpt>
      <trkpt lat="43.13284" lon="3.12613">
        <ele>1.8989882</ele>
        <time>2021-07-20T08:08:05Z</time>
      </trkpt>
      <trkpt lat="43.13285" lon="3.12618">
        <ele>8.3</ele>
        <time>2021-07-20T08:08:06Z</time>
      </trkpt>
      <trkpt lat="43.13287" lon="3.12622">
        <ele>8.2</ele>
        <time>2021-07-20T08:08:07Z</time>
      </trkpt>
      <trkpt lat="43.13289" lon="3.12627">
        <ele>8.1</ele>
        <time>2021-07-20T08:08:08Z</time>
      </trkpt>
      <trkpt lat="43.1329" lon="3.12631">
        <ele>8</ele>
        <time>2021-07-20T08:08:09Z</time>
      </trkpt>
      <trkpt lat="43.13292" lon="3.12634">
        <ele>7.9</ele>
        <time>2021-07-20T08:08:10Z</time>
      </trkpt>
      <trkpt lat="43.13293" lon="3.12637">
        <ele>7.9</ele>
        <time>2021-07-20T08:08:11Z</time>
      </trkpt>
      <trkpt lat="43.13294" lon="3.1264">
        <ele>7.9</ele>
        <time>2021-07-20T08:08:12Z</time>
      </trkpt>
      <trkpt lat="43.13296" lon="3.12641">
        <ele>7.9</ele>
        <time>2021-07-20T08:08:13Z</time>
      </trkpt>
      <trkpt lat="43.13297" lon="3.12642">
        <ele>7.9</ele>
        <time>2021-07-20T08:08:14Z</time>
      </trkpt>
      <trkpt lat="43.13297" lon="3.12642">
        <ele>2.6845539</ele>
        <time>2021-07-20T08:08:15Z</time>
      </trkpt>
      <trkpt lat="43.13297" lon="3.12642">
        <ele>8</ele>
        <time>2021-07-20T08:08:16Z</time>
      </trkpt>
      <trkpt lat="43.13297" lon="3.12642">
        <ele>8</ele>
        <time>2021-07-20T08:08:17Z</time>
      </trkpt>
      <trkpt lat="43.13297" lon="3.12642">
        <ele>8</ele>
        <time>2021-07-20T08:08:18Z</time>
      </trkpt>
      <trkpt lat="43.13297" lon="3.12642">
        <ele>8</ele>
        <time>2021-07-20T08:08:19Z</time>
      </trkpt>
      <trkpt lat="43.13297" lon="3.12642">
        <ele>8</ele>
        <time>2021-07-20T08:08:20Z</time>
      </trkpt>
      <trkpt lat="43.13297" lon="3.12642">
        <ele>8</ele>
        <time>2021-07-20T08:08:21Z</time>
      </trkpt>
      <trkpt lat="43.13297" lon="3.12642">
        <ele>8</ele>
        <time>2021-07-20T08:08:22Z</time>
      </trkpt>
      <trkpt lat="43.13297" lon="3.12642">
        <ele>8</ele>
        <time>2021-07-20T08:08:23Z</time>
      </trkpt>
      <trkpt lat="43.13297" lon="3.12642">
        <ele>8</ele>
        <time>2021-07-20T08:08:24Z</time>
      </trkpt>
      <trkpt lat="43.13297" lon="3.12642">
        <ele>1.7059736</ele>
        <time>2021-07-20T08:08:25Z</time>
      </trkpt>
      <trkpt lat="43.13297" lon="3.12642">
        <ele>8</ele>
        <time>2021-07-20T08:08:26Z</time>
      </trkpt>
      <trkpt lat="43.13297" lon="3.12642">
        <ele>8</ele>
        <time>2021-07-20T08:08:27Z</time>
      </trkpt>
      <trkpt lat="43.13297" lon="3.12642">
        <ele>8</ele>
        <time>2021-07-20T08:08:28Z</time>
      </trkpt>
      <trkpt lat="43.13297" lon="3.12642">
        <ele>8</ele>
        <time>2021-07-20T08:08:29Z</time>
      </trkpt>
      <trkpt lat="43.13297" lon="3.12642">
        <ele>8</ele>
        <time>2021-07-20T08:08:30Z</time>
      </trkpt>
      <trkpt lat="43.13297" lon="3.12642">
        <ele>8</ele>
        <time>2021-07-20T08:08:31Z</time>
      </trkpt>
      <trkpt lat="43.13297" lon="3.12642">
        <ele>8</ele>
        <time>2021-07-20T08:08:32Z</time>
      </trkpt>
      <trkpt lat="43.13297" lon="3.12642">
        <ele>8</ele>
        <time>2021-07-20T08:08:33Z</time>
      </trkpt>
      <trkpt lat="43.13297" lon="3.12642">
        <ele>8</ele>
        <time>2021-07-20T08:08:34Z</time>
      </trkpt>
      <trkpt lat="43.13295" lon="3.12639">
        <ele>1.9633268</ele>
        <time>2021-07-20T08:08:35Z</time>
      </trkpt>
      <trkpt lat="43.13295" lon="3.12639">
        <ele>8</ele>
        <time>2021-07-20T08:08:36Z</time>
      </trkpt>
      <trkpt lat="43.13295" lon="3.12639">
        <ele>8</ele>
        <time>2021-07-20T08:08:37Z</time>
      </trkpt>
      <trkpt lat="43.13295" lon="3.12639">
        <ele>8</ele>
        <time>2021-07-20T08:08:38Z</time>
      </trkpt>
      <trkpt lat="43.13295" lon="3.12639">
        <ele>8</ele>
        <time>2021-07-20T08:08:39Z</time>
      </trkpt>
      <trkpt lat="43.13295" lon="3.12639">
        <ele>8</ele>
        <time>2021-07-20T08:08:40Z</time>
      </trkpt>
      <trkpt lat="43.13295" lon="3.12639">
        <ele>8</ele>
        <time>2021-07-20T08:08:41Z</time>
      </trkpt>
      <trkpt lat="43.13296" lon="3.12639">
        <ele>8.1</ele>
        <time>2021-07-20T08:08:42Z</time>
      </trkpt>
      <trkpt lat="43.13296" lon="3.12639">
        <ele>8.1</ele>
        <time>2021-07-20T08:08:43Z</time>
      </trkpt>
      <trkpt lat="43.13298" lon="3.12641">
        <ele>8.2</ele>
        <time>2021-07-20T08:08:44Z</time>
      </trkpt>
      <trkpt lat="43.133" lon="3.12642">
        <ele>8.3</ele>
        <time>2021-07-20T08:08:45Z</time>
      </trkpt>
      <trkpt lat="43.13303" lon="3.12644">
        <ele>1.7101245</ele>
        <time>2021-07-20T08:08:46Z</time>
      </trkpt>
      <trkpt lat="43.13307" lon="3.12647">
        <ele>8.6</ele>
        <time>2021-07-20T08:08:47Z</time>
      </trkpt>
      <trkpt lat="43.13311" lon="3.12651">
        <ele>8.8</ele>
        <time>2021-07-20T08:08:48Z</time>
      </trkpt>
      <trkpt lat="43.13315" lon="3.12654">
        <ele>9</ele>
        <time>2021-07-20T08:08:49Z</time>
      </trkpt>
      <trkpt lat="43.13319" lon="3.12658">
        <ele>9.1</ele>
        <time>2021-07-20T08:08:50Z</time>
      </trkpt>
      <trkpt lat="43.13323" lon="3.12663">
        <ele>9.3</ele>
        <time>2021-07-20T08:08:51Z</time>
      </trkpt>
      <trkpt lat="43.13327" lon="3.12667">
        <ele>9.4</ele>
        <time>2021-07-20T08:08:52Z</time>
      </trkpt>
      <trkpt lat="43.13332" lon="3.12672">
        <ele>9.5</ele>
        <time>2021-07-20T08:08:53Z</time>
      </trkpt>
      <trkpt lat="43.13336" lon="3.12677">
        <ele>9.5</ele>
        <time>2021-07-20T08:08:54Z</time>
      </trkpt>
      <trkpt lat="43.1334" lon="3.12682">
        <ele>9.4</ele>
        <time>2021-07-20T08:08:55Z</time>
      </trkpt>
      <trkpt lat="43.13345" lon="3.12688">
        <ele>1.3220245</ele>
        <time>2021-07-20T08:08:56Z</time>
      </trkpt>
      <trkpt lat="43.1335" lon="3.12693">
        <ele>9.2</ele>
        <time>2021-07-20T08:08:57Z</time>
      </trkpt>
      <trkpt lat="43.13355" lon="3.12697">
        <ele>9.2</ele>
        <time>2021-07-20T08:08:58Z</time>
      </trkpt>
      <trkpt lat="43.1336" lon="3.127">
        <ele>9.2</ele>
        <time>2021-07-20T08:08:59Z</time>
      </trkpt>
      <trkpt lat="43.13365" lon="3.12703">
        <ele>9.2</ele>
        <time>2021-07-20T08:09:00Z</time>
      </trkpt>
      <trkpt lat="43.1337" lon="3.12704">
        <ele>9.4</ele>
        <time>2021-07-20T08:09:01Z</time>
      </trkpt>
      <trkpt lat="43.13376" lon="3.12705">
        <ele>9.6</ele>
        <time>2021-07-20T08:09:02Z</time>
      </trkpt>
      <trkpt lat="43.13381" lon="3.12705">
        <ele>10</ele>
        <time>2021-07-20T08:09:03Z</time>
      </trkpt>
      <trkpt lat="43.13386" lon="3.12704">
        <ele>10.3</ele>
        <time>2021-07-20T08:09:04Z</time>
      </trkpt>
      <trkpt lat="43.13391" lon="3.12703">
        <ele>10.7</ele>
        <time>2021-07-20T08:09:05Z</time>
      </trkpt>
      <trkpt lat="43.13397" lon="3.12702">
        <ele>-0.045612447</ele>
        <time>2021-07-20T08:09:06Z</time>
      </trkpt>
      <trkpt lat="43.13402" lon="3.127">
        <ele>11.7</ele>
        <time>2021-07-20T08:09:07Z</time>
      </trkpt>
      <trkpt lat="43.13407" lon="3.12699">
        <ele>12.1</ele>
        <time>2021-07-20T08:09:08Z</time>
      </trkpt>
      <trkpt lat="43.13413" lon="3.127">
        <ele>12.3</ele>
        <time>2021-07-20T08:09:09Z</time>
      </trkpt>
      <trkpt lat="43.13417" lon="3.12703">
        <ele>12.2</ele>
        <time>2021-07-20T08:09:10Z</time>
      </trkpt>
      <trkpt lat="43.13422" lon="3.12708">
        <ele>11.6</ele>
        <time>2021-07-20T08:09:11Z</time>
      </trkpt>
      <trkpt lat="43.13425" lon="3.12713">
        <ele>11</ele>
        <time>2021-07-20T08:09:12Z</time>
      </trkpt>
      <trkpt lat="43.13429" lon="3.12719">
        <ele>10.2</ele>
        <time>2021-07-20T08:09:13Z</time>
      </trkpt>
      <trkpt lat="43.13432" lon="3.12724">
        <ele>9.5</ele>
        <time>2021-07-20T08:09:14Z</time>
      </trkpt>
      <trkpt lat="43.13436" lon="3.1273">
        <ele>8.8</ele>
        <time>2021-07-20T08:09:15Z</time>
      </trkpt>
      <trkpt lat="43.1344" lon="3.12734">
        <ele>-0.6692196</ele>
        <time>2021-07-20T08:09:16Z</time>
      </trkpt>
      <trkpt lat="43.13444" lon="3.12738">
        <ele>7.9</ele>
        <time>2021-07-20T08:09:17Z</time>
      </trkpt>
      <trkpt lat="43.13449" lon="3.1274">
        <ele>7.6</ele>
        <time>2021-07-20T08:09:18Z</time>
      </trkpt>
      <trkpt lat="43.13454" lon="3.12743">
        <ele>7.3</ele>
        <time>2021-07-20T08:09:19Z</time>
      </trkpt>
      <trkpt lat="43.13459" lon="3.12745">
        <ele>7.1</ele>
        <time>2021-07-20T08:09:20Z</time>
      </trkpt>
      <trkpt lat="43.13465" lon="3.12748">
        <ele>6.8</ele>
        <time>2021-07-20T08:09:21Z</time>
      </trkpt>
      <trkpt lat="43.1347" lon="3.12751">
        <ele>6.6</ele>
        <time>2021-07-20T08:09:22Z</time>
      </trkpt>
      <trkpt lat="43.13475" lon="3.12754">
        <ele>6.5</ele>
        <time>2021-07-20T08:09:23Z</time>
      </trkpt>
      <trkpt lat="43.1348" lon="3.12757">
        <ele>6.4</ele>
        <time>2021-07-20T08:09:24Z</time>
      </trkpt>
      <trkpt lat="43.13485" lon="3.1276">
        <ele>6.3</ele>
        <time>2021-07-20T08:09:25Z</time>
      </trkpt>
      <trkpt lat="43.1349" lon="3.12763">
        <ele>-0.8424985</ele>
        <time>2021-07-20T08:09:26Z</time>
      </trkpt>
      <trkpt lat="43.13495" lon="3.12766">
        <ele>6.2</ele>
        <time>2021-07-20T08:09:27Z</time>
      </trkpt>
      <trkpt lat="43.135" lon="3.12769">
        <ele>6.1</ele>
        <time>2021-07-20T08:09:28Z</time>
      </trkpt>
      <trkpt lat="43.13505" lon="3.12771">
        <ele>6.2</ele>
        <time>2021-07-20T08:09:29Z</time>
      </trkpt>
      <trkpt lat="43.1351" lon="3.12774">
        <ele>6.2</ele>
        <time>2021-07-20T08:09:30Z</time>
      </trkpt>
      <trkpt lat="43.13515" lon="3.12777">
        <ele>6.2</ele>
        <time>2021-07-20T08:09:31Z</time>
      </trkpt>
      <trkpt lat="43.1352" lon="3.1278">
        <ele>6.3</ele>
        <time>2021-07-20T08:09:32Z</time>
      </trkpt>
      <trkpt lat="43.13525" lon="3.12783">
        <ele>6.3</ele>
        <time>2021-07-20T08:09:33Z</time>
      </trkpt>
      <trkpt lat="43.1353" lon="3.12786">
        <ele>6.4</ele>
        <time>2021-07-20T08:09:34Z</time>
      </trkpt>
      <trkpt lat="43.13535" lon="3.1279">
        <ele>6.3</ele>
        <time>2021-07-20T08:09:35Z</time>
      </trkpt>
      <trkpt lat="43.13538" lon="3.12795">
        <ele>-0.9234306</ele>
        <time>2021-07-20T08:09:36Z</time>
      </trkpt>
      <trkpt lat="43.13541" lon="3.12801">
        <ele>6.1</ele>
        <time>2021-07-20T08:09:37Z</time>
      </trkpt>
      <trkpt lat="43.13544" lon="3.12807">
        <ele>5.8</ele>
        <time>2021-07-20T08:09:38Z</time>
      </trkpt>
      <trkpt lat="43.13546" lon="3.12814">
        <ele>5.6</ele>
        <time>2021-07-20T08:09:39Z</time>
      </trkpt>
      <trkpt lat="43.13549" lon="3.1282">
        <ele>5.4</ele>
        <time>2021-07-20T08:09:40Z</time>
      </trkpt>
      <trkpt lat="43.13552" lon="3.12826">
        <ele>5.2</ele>
        <time>2021-07-20T08:09:41Z</time>
      </trkpt>
      <trkpt lat="43.13556" lon="3.12829">
        <ele>5.2</ele>
        <time>2021-07-20T08:09:42Z</time>
      </trkpt>
      <trkpt lat="43.13559" lon="3.12834">
        <ele>5.1</ele>
        <time>2021-07-20T08:09:43Z</time>
      </trkpt>
      <trkpt lat="43.13562" lon="3.12838">
        <ele>5.1</ele>
        <time>2021-07-20T08:09:44Z</time>
      </trkpt>
      <trkpt lat="43.13565" lon="3.12841">
        <ele>-0.8622127</ele>
        <time>2021-07-20T08:09:45Z</time>
      </trkpt>
      <trkpt lat="43.13567" lon="3.12841">
        <ele>5.2</ele>
        <time>2021-07-20T08:09:46Z</time>
      </trkpt>
      <trkpt lat="43.1357" lon="3.1284">
        <ele>5.3</ele>
        <time>2021-07-20T08:09:47Z</time>
      </trkpt>
      <trkpt lat="43.13575" lon="3.12838">
        <ele>5.5</ele>
        <time>2021-07-20T08:09:48Z</time>
      </trkpt>
      <trkpt lat="43.1358" lon="3.12837">
        <ele>5.7</ele>
        <time>2021-07-20T08:09:49Z</time>
      </trkpt>
      <trkpt lat="43.13585" lon="3.12841">
        <ele>5.9</ele>
        <time>2021-07-20T08:09:50Z</time>
      </trkpt>
      <trkpt lat="43.13588" lon="3.12845">
        <ele>6</ele>
        <time>2021-07-20T08:09:51Z</time>
      </trkpt>
      <trkpt lat="43.1359" lon="3.12851">
        <ele>6.1</ele>
        <time>2021-07-20T08:09:52Z</time>
      </trkpt>
      <trkpt lat="43.13591" lon="3.12857">
        <ele>6.1</ele>
        <time>2021-07-20T08:09:53Z</time>
      </trkpt>
      <trkpt lat="43.13593" lon="3.12863">
        <ele>6.1</ele>
        <time>2021-07-20T08:09:54Z</time>
      </trkpt>
      <trkpt lat="43.13595" lon="3.12869">
        <ele>-0.8674007</ele>
        <time>2021-07-20T08:09:55Z</time>
      </trkpt>
      <trkpt lat="43.13598" lon="3.12875">
        <ele>6.3</ele>
        <time>2021-07-20T08:09:56Z</time>
      </trkpt>
      <trkpt lat="43.136" lon="3.12881">
        <ele>6.3</ele>
        <time>2021-07-20T08:09:57Z</time>
      </trkpt>
      <trkpt lat="43.13602" lon="3.12887">
        <ele>6.4</ele>
        <time>2021-07-20T08:09:58Z</time>
      </trkpt>
      <trkpt lat="43.13605" lon="3.12894">
        <ele>6.5</ele>
        <time>2021-07-20T08:09:59Z</time>
      </trkpt>
      <trkpt lat="43.13607" lon="3.129">
        <ele>6.6</ele>
        <time>2021-07-20T08:10:00Z</time>
      </trkpt>
      <trkpt lat="43.13609" lon="3.12907">
        <ele>6.7</ele>
        <time>2021-07-20T08:10:01Z</time>
      </trkpt>
      <trkpt lat="43.13611" lon="3.12913">
        <ele>6.7</ele>
        <time>2021-07-20T08:10:02Z</time>
      </trkpt>
      <trkpt lat="43.13612" lon="3.12919">
        <ele>6.8</ele>
        <time>2021-07-20T08:10:03Z</time>
      </trkpt>
      <trkpt lat="43.13614" lon="3.12926">
        <ele>6.9</ele>
        <time>2021-07-20T08:10:04Z</time>
      </trkpt>
      <trkpt lat="43.13616" lon="3.12932">
        <ele>-0.76779157</ele>
        <time>2021-07-20T08:10:05Z</time>
      </trkpt>
      <trkpt lat="43.1362" lon="3.12938">
        <ele>7.4</ele>
        <time>2021-07-20T08:10:06Z</time>
      </trkpt>
      <trkpt lat="43.13624" lon="3.12944">
        <ele>7.6</ele>
        <time>2021-07-20T08:10:07Z</time>
      </trkpt>
      <trkpt lat="43.13628" lon="3.12948">
        <ele>7.8</ele>
        <time>2021-07-20T08:10:08Z</time>
      </trkpt>
      <trkpt lat="43.13633" lon="3.12953">
        <ele>8</ele>
        <time>2021-07-20T08:10:09Z</time>
      </trkpt>
      <trkpt lat="43.13638" lon="3.12957">
        <ele>8.2</ele>
        <time>2021-07-20T08:10:10Z</time>
      </trkpt>
      <trkpt lat="43.13642" lon="3.12961">
        <ele>8.2</ele>
        <time>2021-07-20T08:10:11Z</time>
      </trkpt>
      <trkpt lat="43.13646" lon="3.12965">
        <ele>8.3</ele>
        <time>2021-07-20T08:10:12Z</time>
      </trkpt>
      <trkpt lat="43.13652" lon="3.12968">
        <ele>8.3</ele>
        <time>2021-07-20T08:10:13Z</time>
      </trkpt>
      <trkpt lat="43.13657" lon="3.12973">
        <ele>8.2</ele>
        <time>2021-07-20T08:10:14Z</time>
      </trkpt>
      <trkpt lat="43.13661" lon="3.12977">
        <ele>-1.1350981</ele>
        <time>2021-07-20T08:10:15Z</time>
      </trkpt>
      <trkpt lat="43.13665" lon="3.12982">
        <ele>7.6</ele>
        <time>2021-07-20T08:10:16Z</time>
      </trkpt>
      <trkpt lat="43.1367" lon="3.12988">
        <ele>7.6</ele>
        <time>2021-07-20T08:10:17Z</time>
      </trkpt>
      <trkpt lat="43.13674" lon="3.12992">
        <ele>7.6</ele>
        <time>2021-07-20T08:10:18Z</time>
      </trkpt>
      <trkpt lat="43.13678" lon="3.12997">
        <ele>7.7</ele>
        <time>2021-07-20T08:10:19Z</time>
      </trkpt>
      <trkpt lat="43.13682" lon="3.13002">
        <ele>7.7</ele>
        <time>2021-07-20T08:10:20Z</time>
      </trkpt>
      <trkpt lat="43.13686" lon="3.13007">
        <ele>7.9</ele>
        <time>2021-07-20T08:10:21Z</time>
      </trkpt>
      <trkpt lat="43.13689" lon="3.13011">
        <ele>8.1</ele>
        <time>2021-07-20T08:10:22Z</time>
      </trkpt>
      <trkpt lat="43.13693" lon="3.13015">
        <ele>8.2</ele>
        <time>2021-07-20T08:10:23Z</time>
      </trkpt>
      <trkpt lat="43.13696" lon="3.13019">
        <ele>8.2</ele>
        <time>2021-07-20T08:10:24Z</time>
      </trkpt>
      <trkpt lat="43.13699" lon="3.13024">
        <ele>8.2</ele>
        <time>2021-07-20T08:10:25Z</time>
      </trkpt>
      <trkpt lat="43.13702" lon="3.13028">
        <ele>-1.1444364</ele>
        <time>2021-07-20T08:10:26Z</time>
      </trkpt>
      <trkpt lat="43.13705" lon="3.13031">
        <ele>8.1</ele>
        <time>2021-07-20T08:10:27Z</time>
      </trkpt>
      <trkpt lat="43.13708" lon="3.13035">
        <ele>8</ele>
        <time>2021-07-20T08:10:28Z</time>
      </trkpt>
      <trkpt lat="43.13711" lon="3.13039">
        <ele>7.9</ele>
        <time>2021-07-20T08:10:29Z</time>
      </trkpt>
      <trkpt lat="43.13714" lon="3.13044">
        <ele>7.7</ele>
        <time>2021-07-20T08:10:30Z</time>
      </trkpt>
      <trkpt lat="43.13717" lon="3.13048">
        <ele>7.5</ele>
        <time>2021-07-20T08:10:31Z</time>
      </trkpt>
      <trkpt lat="43.1372" lon="3.13052">
        <ele>7.3</ele>
        <time>2021-07-20T08:10:32Z</time>
      </trkpt>
      <trkpt lat="43.13723" lon="3.13056">
        <ele>7.1</ele>
        <time>2021-07-20T08:10:33Z</time>
      </trkpt>
      <trkpt lat="43.13726" lon="3.13059">
        <ele>7</ele>
        <time>2021-07-20T08:10:34Z</time>
      </trkpt>
      <trkpt lat="43.1373" lon="3.13062">
        <ele>6.8</ele>
        <time>2021-07-20T08:10:35Z</time>
      </trkpt>
      <trkpt lat="43.13734" lon="3.13065">
        <ele>-1.3685526</ele>
        <time>2021-07-20T08:10:36Z</time>
      </trkpt>
      <trkpt lat="43.13738" lon="3.13068">
        <ele>6.6</ele>
        <time>2021-07-20T08:10:37Z</time>
      </trkpt>
      <trkpt lat="43.13743" lon="3.1307">
        <ele>6.5</ele>
        <time>2021-07-20T08:10:38Z</time>
      </trkpt>
      <trkpt lat="43.13747" lon="3.13072">
        <ele>6.4</ele>
        <time>2021-07-20T08:10:39Z</time>
      </trkpt>
      <trkpt lat="43.13751" lon="3.13074">
        <ele>6.3</ele>
        <time>2021-07-20T08:10:40Z</time>
      </trkpt>
      <trkpt lat="43.13755" lon="3.13075">
        <ele>6.2</ele>
        <time>2021-07-20T08:10:41Z</time>
      </trkpt>
      <trkpt lat="43.1376" lon="3.13076">
        <ele>6.1</ele>
        <time>2021-07-20T08:10:42Z</time>
      </trkpt>
      <trkpt lat="43.13764" lon="3.13077">
        <ele>6.1</ele>
        <time>2021-07-20T08:10:43Z</time>
      </trkpt>
      <trkpt lat="43.13768" lon="3.13077">
        <ele>6</ele>
        <time>2021-07-20T08:10:44Z</time>
      </trkpt>
      <trkpt lat="43.13772" lon="3.13078">
        <ele>6</ele>
        <time>2021-07-20T08:10:45Z</time>
      </trkpt>
      <trkpt lat="43.13776" lon="3.13079">
        <ele>-0.99087393</ele>
        <time>2021-07-20T08:10:46Z</time>
      </trkpt>
      <trkpt lat="43.1378" lon="3.13079">
        <ele>5.9</ele>
        <time>2021-07-20T08:10:47Z</time>
      </trkpt>
      <trkpt lat="43.13784" lon="3.1308">
        <ele>5.9</ele>
        <time>2021-07-20T08:10:48Z</time>
      </trkpt>
      <trkpt lat="43.13788" lon="3.13081">
        <ele>5.8</ele>
        <time>2021-07-20T08:10:49Z</time>
      </trkpt>
      <trkpt lat="43.13792" lon="3.13081">
        <ele>5.8</ele>
        <time>2021-07-20T08:10:50Z</time>
      </trkpt>
      <trkpt lat="43.13796" lon="3.13081">
        <ele>5.8</ele>
        <time>2021-07-20T08:10:51Z</time>
      </trkpt>
      <trkpt lat="43.138" lon="3.13082">
        <ele>5.8</ele>
        <time>2021-07-20T08:10:52Z</time>
      </trkpt>
      <trkpt lat="43.13804" lon="3.13082">
        <ele>5.8</ele>
        <time>2021-07-20T08:10:53Z</time>
      </trkpt>
      <trkpt lat="43.13808" lon="3.13083">
        <ele>5.8</ele>
        <time>2021-07-20T08:10:54Z</time>
      </trkpt>
      <trkpt lat="43.13813" lon="3.13084">
        <ele>5.7</ele>
        <time>2021-07-20T08:10:55Z</time>
      </trkpt>
      <trkpt lat="43.13817" lon="3.13084">
        <ele>-1.4764596</ele>
        <time>2021-07-20T08:10:56Z</time>
      </trkpt>
      <trkpt lat="43.13821" lon="3.13084">
        <ele>5.8</ele>
        <time>2021-07-20T08:10:57Z</time>
      </trkpt>
      <trkpt lat="43.13825" lon="3.13085">
        <ele>5.8</ele>
        <time>2021-07-20T08:10:58Z</time>
      </trkpt>
      <trkpt lat="43.13829" lon="3.13085">
        <ele>5.9</ele>
        <time>2021-07-20T08:10:59Z</time>
      </trkpt>
      <trkpt lat="43.13834" lon="3.13086">
        <ele>5.9</ele>
        <time>2021-07-20T08:11:00Z</time>
      </trkpt>
      <trkpt lat="43.13838" lon="3.13086">
        <ele>6.2</ele>
        <time>2021-07-20T08:11:01Z</time>
      </trkpt>
      <trkpt lat="43.13842" lon="3.13087">
        <ele>6.4</ele>
        <time>2021-07-20T08:11:02Z</time>
      </trkpt>
      <trkpt lat="43.13846" lon="3.13087">
        <ele>6.6</ele>
        <time>2021-07-20T08:11:03Z</time>
      </trkpt>
      <trkpt lat="43.1385" lon="3.13088">
        <ele>6.8</ele>
        <time>2021-07-20T08:11:04Z</time>
      </trkpt>
      <trkpt lat="43.13854" lon="3.13088">
        <ele>7</ele>
        <time>2021-07-20T08:11:05Z</time>
      </trkpt>
      <trkpt lat="43.13858" lon="3.13089">
        <ele>-1.5999296</ele>
        <time>2021-07-20T08:11:06Z</time>
      </trkpt>
      <trkpt lat="43.13862" lon="3.13089">
        <ele>7.4</ele>
        <time>2021-07-20T08:11:07Z</time>
      </trkpt>
      <trkpt lat="43.13866" lon="3.1309">
        <ele>7.6</ele>
        <time>2021-07-20T08:11:08Z</time>
      </trkpt>
      <trkpt lat="43.1387" lon="3.1309">
        <ele>7.8</ele>
        <time>2021-07-20T08:11:09Z</time>
      </trkpt>
      <trkpt lat="43.13874" lon="3.13091">
        <ele>8</ele>
        <time>2021-07-20T08:11:10Z</time>
      </trkpt>
      <trkpt lat="43.13879" lon="3.13092">
        <ele>8.2</ele>
        <time>2021-07-20T08:11:11Z</time>
      </trkpt>
      <trkpt lat="43.13883" lon="3.13092">
        <ele>8.4</ele>
        <time>2021-07-20T08:11:12Z</time>
      </trkpt>
      <trkpt lat="43.13887" lon="3.13093">
        <ele>8.6</ele>
        <time>2021-07-20T08:11:13Z</time>
      </trkpt>
      <trkpt lat="43.13892" lon="3.13093">
        <ele>8.8</ele>
        <time>2021-07-20T08:11:14Z</time>
      </trkpt>
      <trkpt lat="43.13896" lon="3.13094">
        <ele>9</ele>
        <time>2021-07-20T08:11:15Z</time>
      </trkpt>
      <trkpt lat="43.139" lon="3.13094">
        <ele>-1.3706278</ele>
        <time>2021-07-20T08:11:16Z</time>
      </trkpt>
      <trkpt lat="43.13904" lon="3.13095">
        <ele>9.3</ele>
        <time>2021-07-20T08:11:17Z</time>
      </trkpt>
      <trkpt lat="43.13908" lon="3.13095">
        <ele>9.5</ele>
        <time>2021-07-20T08:11:18Z</time>
      </trkpt>
      <trkpt lat="43.13913" lon="3.13096">
        <ele>9.7</ele>
        <time>2021-07-20T08:11:19Z</time>
      </trkpt>
      <trkpt lat="43.13917" lon="3.13096">
        <ele>9.9</ele>
        <time>2021-07-20T08:11:20Z</time>
      </trkpt>
      <trkpt lat="43.13921" lon="3.13096">
        <ele>10.3</ele>
        <time>2021-07-20T08:11:21Z</time>
      </trkpt>
      <trkpt lat="43.13926" lon="3.13097">
        <ele>10.6</ele>
        <time>2021-07-20T08:11:22Z</time>
      </trkpt>
      <trkpt lat="43.1393" lon="3.13098">
        <ele>10.9</ele>
        <time>2021-07-20T08:11:23Z</time>
      </trkpt>
      <trkpt lat="43.13934" lon="3.13099">
        <ele>11.2</ele>
        <time>2021-07-20T08:11:24Z</time>
      </trkpt>
      <trkpt lat="43.13939" lon="3.13099">
        <ele>-1.3519515</ele>
        <time>2021-07-20T08:11:25Z</time>
      </trkpt>
      <trkpt lat="43.13943" lon="3.131">
        <ele>11.8</ele>
        <time>2021-07-20T08:11:26Z</time>
      </trkpt>
      <trkpt lat="43.13947" lon="3.13102">
        <ele>12</ele>
        <time>2021-07-20T08:11:27Z</time>
      </trkpt>
      <trkpt lat="43.13952" lon="3.13103">
        <ele>12.2</ele>
        <time>2021-07-20T08:11:28Z</time>
      </trkpt>
      <trkpt lat="43.13956" lon="3.13105">
        <ele>12.3</ele>
        <time>2021-07-20T08:11:29Z</time>
      </trkpt>
      <trkpt lat="43.1396" lon="3.13107">
        <ele>12.4</ele>
        <time>2021-07-20T08:11:30Z</time>
      </trkpt>
      <trkpt lat="43.13964" lon="3.1311">
        <ele>12.4</ele>
        <time>2021-07-20T08:11:31Z</time>
      </trkpt>
      <trkpt lat="43.13968" lon="3.13113">
        <ele>12.4</ele>
        <time>2021-07-20T08:11:32Z</time>
      </trkpt>
      <trkpt lat="43.13971" lon="3.13115">
        <ele>12.3</ele>
        <time>2021-07-20T08:11:33Z</time>
      </trkpt>
      <trkpt lat="43.13975" lon="3.13118">
        <ele>12.2</ele>
        <time>2021-07-20T08:11:34Z</time>
      </trkpt>
      <trkpt lat="43.13978" lon="3.13121">
        <ele>-1.1994281</ele>
        <time>2021-07-20T08:11:35Z</time>
      </trkpt>
      <trkpt lat="43.13982" lon="3.13124">
        <ele>12</ele>
        <time>2021-07-20T08:11:36Z</time>
      </trkpt>
      <trkpt lat="43.13985" lon="3.13127">
        <ele>11.8</ele>
        <time>2021-07-20T08:11:37Z</time>
      </trkpt>
      <trkpt lat="43.13989" lon="3.1313">
        <ele>11.6</ele>
        <time>2021-07-20T08:11:38Z</time>
      </trkpt>
      <trkpt lat="43.13992" lon="3.13133">
        <ele>11.4</ele>
        <time>2021-07-20T08:11:39Z</time>
      </trkpt>
      <trkpt lat="43.13995" lon="3.13135">
        <ele>11.3</ele>
        <time>2021-07-20T08:11:40Z</time>
      </trkpt>
      <trkpt lat="43.13999" lon="3.13138">
        <ele>11.1</ele>
        <time>2021-07-20T08:11:41Z</time>
      </trkpt>
      <trkpt lat="43.14002" lon="3.1314">
        <ele>10.9</ele>
        <time>2021-07-20T08:11:42Z</time>
      </trkpt>
      <trkpt lat="43.14006" lon="3.13143">
        <ele>10.8</ele>
        <time>2021-07-20T08:11:43Z</time>
      </trkpt>
      <trkpt lat="43.1401" lon="3.13145">
        <ele>10.6</ele>
        <time>2021-07-20T08:11:44Z</time>
      </trkpt>
      <trkpt lat="43.14014" lon="3.13148">
        <ele>-1.0603921</ele>
        <time>2021-07-20T08:11:45Z</time>
      </trkpt>
      <trkpt lat="43.14017" lon="3.1315">
        <ele>10.3</ele>
        <time>2021-07-20T08:11:46Z</time>
      </trkpt>
      <trkpt lat="43.14021" lon="3.13153">
        <ele>10.2</ele>
        <time>2021-07-20T08:11:47Z</time>
      </trkpt>
      <trkpt lat="43.14024" lon="3.13155">
        <ele>10</ele>
        <time>2021-07-20T08:11:48Z</time>
      </trkpt>
      <trkpt lat="43.14028" lon="3.13157">
        <ele>9.8</ele>
        <time>2021-07-20T08:11:49Z</time>
      </trkpt>
      <trkpt lat="43.14032" lon="3.13159">
        <ele>9.7</ele>
        <time>2021-07-20T08:11:50Z</time>
      </trkpt>
      <trkpt lat="43.14035" lon="3.13161">
        <ele>9.6</ele>
        <time>2021-07-20T08:11:51Z</time>
      </trkpt>
      <trkpt lat="43.14039" lon="3.13163">
        <ele>9.4</ele>
        <time>2021-07-20T08:11:52Z</time>
      </trkpt>
      <trkpt lat="43.14043" lon="3.13165">
        <ele>9.3</ele>
        <time>2021-07-20T08:11:53Z</time>
      </trkpt>
      <trkpt lat="43.14047" lon="3.13167">
        <ele>9.2</ele>
        <time>2021-07-20T08:11:54Z</time>
      </trkpt>
      <trkpt lat="43.1405" lon="3.13169">
        <ele>-0.8383481</ele>
        <time>2021-07-20T08:11:55Z</time>
      </trkpt>
      <trkpt lat="43.14054" lon="3.13171">
        <ele>9.3</ele>
        <time>2021-07-20T08:11:56Z</time>
      </trkpt>
      <trkpt lat="43.14058" lon="3.13173">
        <ele>9.3</ele>
        <time>2021-07-20T08:11:57Z</time>
      </trkpt>
      <trkpt lat="43.14061" lon="3.13176">
        <ele>9.3</ele>
        <time>2021-07-20T08:11:58Z</time>
      </trkpt>
      <trkpt lat="43.14065" lon="3.13178">
        <ele>9.3</ele>
        <time>2021-07-20T08:11:59Z</time>
      </trkpt>
      <trkpt lat="43.14069" lon="3.13179">
        <ele>9.3</ele>
        <time>2021-07-20T08:12:00Z</time>
      </trkpt>
      <trkpt lat="43.14073" lon="3.13181">
        <ele>9.4</ele>
        <time>2021-07-20T08:12:01Z</time>
      </trkpt>
      <trkpt lat="43.14077" lon="3.13182">
        <ele>9.4</ele>
        <time>2021-07-20T08:12:02Z</time>
      </trkpt>
      <trkpt lat="43.1408" lon="3.13184">
        <ele>9.4</ele>
        <time>2021-07-20T08:12:03Z</time>
      </trkpt>
      <trkpt lat="43.14084" lon="3.13186">
        <ele>9.4</ele>
        <time>2021-07-20T08:12:04Z</time>
      </trkpt>
      <trkpt lat="43.14088" lon="3.13188">
        <ele>9.4</ele>
        <time>2021-07-20T08:12:05Z</time>
      </trkpt>
      <trkpt lat="43.14092" lon="3.13189">
        <ele>-0.32784608</ele>
        <time>2021-07-20T08:12:06Z</time>
      </trkpt>
      <trkpt lat="43.14096" lon="3.1319">
        <ele>9.5</ele>
        <time>2021-07-20T08:12:07Z</time>
      </trkpt>
      <trkpt lat="43.141" lon="3.13192">
        <ele>9.5</ele>
        <time>2021-07-20T08:12:08Z</time>
      </trkpt>
      <trkpt lat="43.14104" lon="3.13193">
        <ele>9.5</ele>
        <time>2021-07-20T08:12:09Z</time>
      </trkpt>
      <trkpt lat="43.14108" lon="3.13193">
        <ele>9.5</ele>
        <time>2021-07-20T08:12:10Z</time>
      </trkpt>
      <trkpt lat="43.14111" lon="3.13194">
        <ele>9.6</ele>
        <time>2021-07-20T08:12:11Z</time>
      </trkpt>
      <trkpt lat="43.14115" lon="3.13194">
        <ele>9.8</ele>
        <time>2021-07-20T08:12:12Z</time>
      </trkpt>
      <trkpt lat="43.14118" lon="3.13194">
        <ele>9.9</ele>
        <time>2021-07-20T08:12:13Z</time>
      </trkpt>
      <trkpt lat="43.14122" lon="3.13193">
        <ele>10.1</ele>
        <time>2021-07-20T08:12:14Z</time>
      </trkpt>
      <trkpt lat="43.14125" lon="3.13192">
        <ele>10.3</ele>
        <time>2021-07-20T08:12:15Z</time>
      </trkpt>
      <trkpt lat="43.14129" lon="3.13191">
        <ele>-0.4907514</ele>
        <time>2021-07-20T08:12:16Z</time>
      </trkpt>
      <trkpt lat="43.14132" lon="3.1319">
        <ele>10.7</ele>
        <time>2021-07-20T08:12:17Z</time>
      </trkpt>
      <trkpt lat="43.14136" lon="3.13189">
        <ele>11</ele>
        <time>2021-07-20T08:12:18Z</time>
      </trkpt>
      <trkpt lat="43.14139" lon="3.13188">
        <ele>11.2</ele>
        <time>2021-07-20T08:12:19Z</time>
      </trkpt>
      <trkpt lat="43.14142" lon="3.13187">
        <ele>11.4</ele>
        <time>2021-07-20T08:12:20Z</time>
      </trkpt>
      <trkpt lat="43.14146" lon="3.13186">
        <ele>11.7</ele>
        <time>2021-07-20T08:12:21Z</time>
      </trkpt>
      <trkpt lat="43.14149" lon="3.13185">
        <ele>11.9</ele>
        <time>2021-07-20T08:12:22Z</time>
      </trkpt>
      <trkpt lat="43.14153" lon="3.13185">
        <ele>12.1</ele>
        <time>2021-07-20T08:12:23Z</time>
      </trkpt>
      <trkpt lat="43.14156" lon="3.13185">
        <ele>12.2</ele>
        <time>2021-07-20T08:12:24Z</time>
      </trkpt>
      <trkpt lat="43.14159" lon="3.13185">
        <ele>12.2</ele>
        <time>2021-07-20T08:12:25Z</time>
      </trkpt>
      <trkpt lat="43.14163" lon="3.13186">
        <ele>0.1276724</ele>
        <time>2021-07-20T08:12:26Z</time>
      </trkpt>
      <trkpt lat="43.14166" lon="3.13187">
        <ele>12.3</ele>
        <time>2021-07-20T08:12:27Z</time>
      </trkpt>
      <trkpt lat="43.1417" lon="3.13189">
        <ele>12.3</ele>
        <time>2021-07-20T08:12:28Z</time>
      </trkpt>
      <trkpt lat="43.14173" lon="3.13192">
        <ele>12.2</ele>
        <time>2021-07-20T08:12:29Z</time>
      </trkpt>
      <trkpt lat="43.14177" lon="3.13195">
        <ele>12</ele>
        <time>2021-07-20T08:12:30Z</time>
      </trkpt>
      <trkpt lat="43.1418" lon="3.13198">
        <ele>11.8</ele>
        <time>2021-07-20T08:12:31Z</time>
      </trkpt>
      <trkpt lat="43.14183" lon="3.13202">
        <ele>11.6</ele>
        <time>2021-07-20T08:12:32Z</time>
      </trkpt>
      <trkpt lat="43.14187" lon="3.13205">
        <ele>11.5</ele>
        <time>2021-07-20T08:12:33Z</time>
      </trkpt>
      <trkpt lat="43.1419" lon="3.13208">
        <ele>11.3</ele>
        <time>2021-07-20T08:12:34Z</time>
      </trkpt>
      <trkpt lat="43.14194" lon="3.13211">
        <ele>11.2</ele>
        <time>2021-07-20T08:12:35Z</time>
      </trkpt>
      <trkpt lat="43.14198" lon="3.13213">
        <ele>0.9868525</ele>
        <time>2021-07-20T08:12:36Z</time>
      </trkpt>
      <trkpt lat="43.14202" lon="3.13215">
        <ele>11.3</ele>
        <time>2021-07-20T08:12:37Z</time>
      </trkpt>
      <trkpt lat="43.14206" lon="3.13218">
        <ele>11.4</ele>
        <time>2021-07-20T08:12:38Z</time>
      </trkpt>
      <trkpt lat="43.1421" lon="3.13219">
        <ele>11.5</ele>
        <time>2021-07-20T08:12:39Z</time>
      </trkpt>
      <trkpt lat="43.14214" lon="3.13221">
        <ele>11.7</ele>
        <time>2021-07-20T08:12:40Z</time>
      </trkpt>
      <trkpt lat="43.14219" lon="3.13222">
        <ele>11.8</ele>
        <time>2021-07-20T08:12:41Z</time>
      </trkpt>
      <trkpt lat="43.14222" lon="3.13223">
        <ele>12</ele>
        <time>2021-07-20T08:12:42Z</time>
      </trkpt>
      <trkpt lat="43.14226" lon="3.13225">
        <ele>12.1</ele>
        <time>2021-07-20T08:12:43Z</time>
      </trkpt>
      <trkpt lat="43.1423" lon="3.13226">
        <ele>12.2</ele>
        <time>2021-07-20T08:12:44Z</time>
      </trkpt>
      <trkpt lat="43.14233" lon="3.13228">
        <ele>12.3</ele>
        <time>2021-07-20T08:12:45Z</time>
      </trkpt>
      <trkpt lat="43.14237" lon="3.13229">
        <ele>-0.002031949</ele>
        <time>2021-07-20T08:12:46Z</time>
      </trkpt>
      <trkpt lat="43.14241" lon="3.13231">
        <ele>12.5</ele>
        <time>2021-07-20T08:12:47Z</time>
      </trkpt>
      <trkpt lat="43.14244" lon="3.13233">
        <ele>12.6</ele>
        <time>2021-07-20T08:12:48Z</time>
      </trkpt>
      <trkpt lat="43.14248" lon="3.13235">
        <ele>12.6</ele>
        <time>2021-07-20T08:12:49Z</time>
      </trkpt>
      <trkpt lat="43.14251" lon="3.13237">
        <ele>12.6</ele>
        <time>2021-07-20T08:12:50Z</time>
      </trkpt>
      <trkpt lat="43.14254" lon="3.13239">
        <ele>12.6</ele>
        <time>2021-07-20T08:12:51Z</time>
      </trkpt>
      <trkpt lat="43.14258" lon="3.13242">
        <ele>12.5</ele>
        <time>2021-07-20T08:12:52Z</time>
      </trkpt>
      <trkpt lat="43.14261" lon="3.13245">
        <ele>12.4</ele>
        <time>2021-07-20T08:12:53Z</time>
      </trkpt>
      <trkpt lat="43.14265" lon="3.13247">
        <ele>12.4</ele>
        <time>2021-07-20T08:12:54Z</time>
      </trkpt>
      <trkpt lat="43.14268" lon="3.1325">
        <ele>12.3</ele>
        <time>2021-07-20T08:12:55Z</time>
      </trkpt>
      <trkpt lat="43.14271" lon="3.13253">
        <ele>-0.26143846</ele>
        <time>2021-07-20T08:12:56Z</time>
      </trkpt>
      <trkpt lat="43.14274" lon="3.13256">
        <ele>12.1</ele>
        <time>2021-07-20T08:12:57Z</time>
      </trkpt>
      <trkpt lat="43.14277" lon="3.13259">
        <ele>12</ele>
        <time>2021-07-20T08:12:58Z</time>
      </trkpt>
      <trkpt lat="43.14281" lon="3.13262">
        <ele>11.8</ele>
        <time>2021-07-20T08:12:59Z</time>
      </trkpt>
      <trkpt lat="43.14284" lon="3.13266">
        <ele>11.6</ele>
        <time>2021-07-20T08:13:00Z</time>
      </trkpt>
      <trkpt lat="43.14287" lon="3.13269">
        <ele>11.4</ele>
        <time>2021-07-20T08:13:01Z</time>
      </trkpt>
      <trkpt lat="43.1429" lon="3.13273">
        <ele>11.2</ele>
        <time>2021-07-20T08:13:02Z</time>
      </trkpt>
      <trkpt lat="43.14293" lon="3.13276">
        <ele>11</ele>
        <time>2021-07-20T08:13:03Z</time>
      </trkpt>
      <trkpt lat="43.14297" lon="3.1328">
        <ele>10.7</ele>
        <time>2021-07-20T08:13:04Z</time>
      </trkpt>
      <trkpt lat="43.143" lon="3.13283">
        <ele>-0.11617118</ele>
        <time>2021-07-20T08:13:05Z</time>
      </trkpt>
      <trkpt lat="43.14303" lon="3.13285">
        <ele>10.2</ele>
        <time>2021-07-20T08:13:06Z</time>
      </trkpt>
      <trkpt lat="43.14306" lon="3.13288">
        <ele>10</ele>
        <time>2021-07-20T08:13:07Z</time>
      </trkpt>
      <trkpt lat="43.14308" lon="3.1329">
        <ele>9.8</ele>
        <time>2021-07-20T08:13:08Z</time>
      </trkpt>
      <trkpt lat="43.14311" lon="3.13292">
        <ele>9.6</ele>
        <time>2021-07-20T08:13:09Z</time>
      </trkpt>
      <trkpt lat="43.14315" lon="3.13293">
        <ele>9.6</ele>
        <time>2021-07-20T08:13:10Z</time>
      </trkpt>
      <trkpt lat="43.14319" lon="3.13295">
        <ele>9.6</ele>
        <time>2021-07-20T08:13:11Z</time>
      </trkpt>
      <trkpt lat="43.14323" lon="3.13296">
        <ele>9.5</ele>
        <time>2021-07-20T08:13:12Z</time>
      </trkpt>
      <trkpt lat="43.14327" lon="3.13298">
        <ele>9.3</ele>
        <time>2021-07-20T08:13:13Z</time>
      </trkpt>
      <trkpt lat="43.14331" lon="3.133">
        <ele>9.1</ele>
        <time>2021-07-20T08:13:14Z</time>
      </trkpt>
      <trkpt lat="43.14336" lon="3.13302">
        <ele>-0.23757319</ele>
        <time>2021-07-20T08:13:15Z</time>
      </trkpt>
      <trkpt lat="43.14339" lon="3.13303">
        <ele>8.8</ele>
        <time>2021-07-20T08:13:16Z</time>
      </trkpt>
      <trkpt lat="43.14343" lon="3.13305">
        <ele>8.7</ele>
        <time>2021-07-20T08:13:17Z</time>
      </trkpt>
      <trkpt lat="43.14347" lon="3.13307">
        <ele>8.5</ele>
        <time>2021-07-20T08:13:18Z</time>
      </trkpt>
      <trkpt lat="43.14351" lon="3.13309">
        <ele>8.3</ele>
        <time>2021-07-20T08:13:19Z</time>
      </trkpt>
      <trkpt lat="43.14354" lon="3.1331">
        <ele>8.2</ele>
        <time>2021-07-20T08:13:20Z</time>
      </trkpt>
      <trkpt lat="43.14358" lon="3.13312">
        <ele>8.1</ele>
        <time>2021-07-20T08:13:21Z</time>
      </trkpt>
      <trkpt lat="43.14362" lon="3.13313">
        <ele>8</ele>
        <time>2021-07-20T08:13:22Z</time>
      </trkpt>
      <trkpt lat="43.14365" lon="3.13314">
        <ele>7.9</ele>
        <time>2021-07-20T08:13:23Z</time>
      </trkpt>
      <trkpt lat="43.14369" lon="3.13316">
        <ele>7.8</ele>
        <time>2021-07-20T08:13:24Z</time>
      </trkpt>
      <trkpt lat="43.14373" lon="3.13317">
        <ele>-0.6214899</ele>
        <time>2021-07-20T08:13:25Z</time>
      </trkpt>
      <trkpt lat="43.14377" lon="3.13319">
        <ele>7.6</ele>
        <time>2021-07-20T08:13:26Z</time>
      </trkpt>
      <trkpt lat="43.14381" lon="3.1332">
        <ele>7.6</ele>
        <time>2021-07-20T08:13:27Z</time>
      </trkpt>
      <trkpt lat="43.14385" lon="3.13322">
        <ele>7.4</ele>
        <time>2021-07-20T08:13:28Z</time>
      </trkpt>
      <trkpt lat="43.14388" lon="3.13324">
        <ele>7.3</ele>
        <time>2021-07-20T08:13:29Z</time>
      </trkpt>
      <trkpt lat="43.14392" lon="3.13325">
        <ele>7.3</ele>
        <time>2021-07-20T08:13:30Z</time>
      </trkpt>
      <trkpt lat="43.14396" lon="3.13326">
        <ele>7.3</ele>
        <time>2021-07-20T08:13:31Z</time>
      </trkpt>
      <trkpt lat="43.14399" lon="3.13327">
        <ele>7.3</ele>
        <time>2021-07-20T08:13:32Z</time>
      </trkpt>
      <trkpt lat="43.14403" lon="3.13328">
        <ele>7.3</ele>
        <time>2021-07-20T08:13:33Z</time>
      </trkpt>
      <trkpt lat="43.14407" lon="3.13329">
        <ele>7.2</ele>
        <time>2021-07-20T08:13:34Z</time>
      </trkpt>
      <trkpt lat="43.1441" lon="3.1333">
        <ele>-0.950408</ele>
        <time>2021-07-20T08:13:35Z</time>
      </trkpt>
      <trkpt lat="43.14414" lon="3.13332">
        <ele>7.1</ele>
        <time>2021-07-20T08:13:36Z</time>
      </trkpt>
      <trkpt lat="43.14418" lon="3.13333">
        <ele>7.1</ele>
        <time>2021-07-20T08:13:37Z</time>
      </trkpt>
      <trkpt lat="43.14422" lon="3.13336">
        <ele>7.5</ele>
        <time>2021-07-20T08:13:38Z</time>
      </trkpt>
      <trkpt lat="43.14425" lon="3.13338">
        <ele>7.9</ele>
        <time>2021-07-20T08:13:39Z</time>
      </trkpt>
      <trkpt lat="43.14429" lon="3.1334">
        <ele>8.2</ele>
        <time>2021-07-20T08:13:40Z</time>
      </trkpt>
      <trkpt lat="43.14433" lon="3.13342">
        <ele>8.5</ele>
        <time>2021-07-20T08:13:41Z</time>
      </trkpt>
      <trkpt lat="43.14436" lon="3.13344">
        <ele>8.9</ele>
        <time>2021-07-20T08:13:42Z</time>
      </trkpt>
      <trkpt lat="43.1444" lon="3.13347">
        <ele>9.2</ele>
        <time>2021-07-20T08:13:43Z</time>
      </trkpt>
      <trkpt lat="43.14444" lon="3.13349">
        <ele>9.5</ele>
        <time>2021-07-20T08:13:44Z</time>
      </trkpt>
      <trkpt lat="43.14447" lon="3.13351">
        <ele>9.7</ele>
        <time>2021-07-20T08:13:45Z</time>
      </trkpt>
      <trkpt lat="43.14451" lon="3.13353">
        <ele>-0.8653255</ele>
        <time>2021-07-20T08:13:46Z</time>
      </trkpt>
      <trkpt lat="43.14454" lon="3.13356">
        <ele>10.2</ele>
        <time>2021-07-20T08:13:47Z</time>
      </trkpt>
      <trkpt lat="43.14458" lon="3.13358">
        <ele>10.3</ele>
        <time>2021-07-20T08:13:48Z</time>
      </trkpt>
      <trkpt lat="43.14461" lon="3.1336">
        <ele>10.5</ele>
        <time>2021-07-20T08:13:49Z</time>
      </trkpt>
      <trkpt lat="43.14465" lon="3.13363">
        <ele>10.7</ele>
        <time>2021-07-20T08:13:50Z</time>
      </trkpt>
      <trkpt lat="43.14468" lon="3.13366">
        <ele>10.7</ele>
        <time>2021-07-20T08:13:51Z</time>
      </trkpt>
      <trkpt lat="43.14471" lon="3.13369">
        <ele>10.8</ele>
        <time>2021-07-20T08:13:52Z</time>
      </trkpt>
      <trkpt lat="43.14474" lon="3.13371">
        <ele>10.9</ele>
        <time>2021-07-20T08:13:53Z</time>
      </trkpt>
      <trkpt lat="43.14477" lon="3.13375">
        <ele>10.8</ele>
        <time>2021-07-20T08:13:54Z</time>
      </trkpt>
      <trkpt lat="43.1448" lon="3.13378">
        <ele>10.8</ele>
        <time>2021-07-20T08:13:55Z</time>
      </trkpt>
      <trkpt lat="43.14484" lon="3.13382">
        <ele>-0.47726247</ele>
        <time>2021-07-20T08:13:56Z</time>
      </trkpt>
      <trkpt lat="43.14487" lon="3.13385">
        <ele>10.7</ele>
        <time>2021-07-20T08:13:57Z</time>
      </trkpt>
      <trkpt lat="43.1449" lon="3.13388">
        <ele>10.6</ele>
        <time>2021-07-20T08:13:58Z</time>
      </trkpt>
      <trkpt lat="43.14492" lon="3.13391">
        <ele>10.5</ele>
        <time>2021-07-20T08:13:59Z</time>
      </trkpt>
      <trkpt lat="43.14496" lon="3.13394">
        <ele>10.4</ele>
        <time>2021-07-20T08:14:00Z</time>
      </trkpt>
      <trkpt lat="43.14498" lon="3.13396">
        <ele>10.3</ele>
        <time>2021-07-20T08:14:01Z</time>
      </trkpt>
      <trkpt lat="43.14501" lon="3.13399">
        <ele>10.1</ele>
        <time>2021-07-20T08:14:02Z</time>
      </trkpt>
      <trkpt lat="43.14505" lon="3.13401">
        <ele>9.7</ele>
        <time>2021-07-20T08:14:03Z</time>
      </trkpt>
      <trkpt lat="43.14508" lon="3.13402">
        <ele>9.3</ele>
        <time>2021-07-20T08:14:04Z</time>
      </trkpt>
      <trkpt lat="43.14512" lon="3.13404">
        <ele>9</ele>
        <time>2021-07-20T08:14:05Z</time>
      </trkpt>
      <trkpt lat="43.14515" lon="3.13405">
        <ele>0.24181284</ele>
        <time>2021-07-20T08:14:06Z</time>
      </trkpt>
      <trkpt lat="43.14518" lon="3.13405">
        <ele>8.6</ele>
        <time>2021-07-20T08:14:07Z</time>
      </trkpt>
      <trkpt lat="43.14522" lon="3.13406">
        <ele>8.4</ele>
        <time>2021-07-20T08:14:08Z</time>
      </trkpt>
      <trkpt lat="43.14526" lon="3.13405">
        <ele>8.2</ele>
        <time>2021-07-20T08:14:09Z</time>
      </trkpt>
      <trkpt lat="43.1453" lon="3.13404">
        <ele>8.1</ele>
        <time>2021-07-20T08:14:10Z</time>
      </trkpt>
      <trkpt lat="43.14534" lon="3.13403">
        <ele>8.1</ele>
        <time>2021-07-20T08:14:11Z</time>
      </trkpt>
      <trkpt lat="43.14537" lon="3.134">
        <ele>8.2</ele>
        <time>2021-07-20T08:14:12Z</time>
      </trkpt>
      <trkpt lat="43.1454" lon="3.13397">
        <ele>8.3</ele>
        <time>2021-07-20T08:14:13Z</time>
      </trkpt>
      <trkpt lat="43.14543" lon="3.13394">
        <ele>8.4</ele>
        <time>2021-07-20T08:14:14Z</time>
      </trkpt>
      <trkpt lat="43.14546" lon="3.13391">
        <ele>8.6</ele>
        <time>2021-07-20T08:14:15Z</time>
      </trkpt>
      <trkpt lat="43.14548" lon="3.13388">
        <ele>0.5572585</ele>
        <time>2021-07-20T08:14:16Z</time>
      </trkpt>
      <trkpt lat="43.1455" lon="3.13384">
        <ele>9</ele>
        <time>2021-07-20T08:14:17Z</time>
      </trkpt>
      <trkpt lat="43.14552" lon="3.1338">
        <ele>9.2</ele>
        <time>2021-07-20T08:14:18Z</time>
      </trkpt>
      <trkpt lat="43.14555" lon="3.13376">
        <ele>9.3</ele>
        <time>2021-07-20T08:14:19Z</time>
      </trkpt>
      <trkpt lat="43.14557" lon="3.13372">
        <ele>9.4</ele>
        <time>2021-07-20T08:14:20Z</time>
      </trkpt>
      <trkpt lat="43.1456" lon="3.13369">
        <ele>9.6</ele>
        <time>2021-07-20T08:14:21Z</time>
      </trkpt>
      <trkpt lat="43.14562" lon="3.13365">
        <ele>9.7</ele>
        <time>2021-07-20T08:14:22Z</time>
      </trkpt>
      <trkpt lat="43.14564" lon="3.13361">
        <ele>9.8</ele>
        <time>2021-07-20T08:14:23Z</time>
      </trkpt>
      <trkpt lat="43.14566" lon="3.13358">
        <ele>9.9</ele>
        <time>2021-07-20T08:14:24Z</time>
      </trkpt>
      <trkpt lat="43.14568" lon="3.13354">
        <ele>10</ele>
        <time>2021-07-20T08:14:25Z</time>
      </trkpt>
      <trkpt lat="43.14571" lon="3.13351">
        <ele>0.4929238</ele>
        <time>2021-07-20T08:14:26Z</time>
      </trkpt>
      <trkpt lat="43.14573" lon="3.13348">
        <ele>10</ele>
        <time>2021-07-20T08:14:27Z</time>
      </trkpt>
      <trkpt lat="43.14575" lon="3.13345">
        <ele>10</ele>
        <time>2021-07-20T08:14:28Z</time>
      </trkpt>
      <trkpt lat="43.14576" lon="3.13342">
        <ele>10.2</ele>
        <time>2021-07-20T08:14:29Z</time>
      </trkpt>
      <trkpt lat="43.14577" lon="3.13339">
        <ele>10.3</ele>
        <time>2021-07-20T08:14:30Z</time>
      </trkpt>
      <trkpt lat="43.14578" lon="3.13336">
        <ele>10.3</ele>
        <time>2021-07-20T08:14:31Z</time>
      </trkpt>
      <trkpt lat="43.14579" lon="3.13334">
        <ele>10.4</ele>
        <time>2021-07-20T08:14:32Z</time>
      </trkpt>
      <trkpt lat="43.1458" lon="3.13331">
        <ele>10.5</ele>
        <time>2021-07-20T08:14:33Z</time>
      </trkpt>
      <trkpt lat="43.14581" lon="3.1333">
        <ele>10.7</ele>
        <time>2021-07-20T08:14:34Z</time>
      </trkpt>
      <trkpt lat="43.14581" lon="3.1333">
        <ele>10.7</ele>
        <time>2021-07-20T08:14:35Z</time>
      </trkpt>
      <trkpt lat="43.14581" lon="3.1333">
        <ele>0.56037146</ele>
        <time>2021-07-20T08:14:36Z</time>
      </trkpt>
      <trkpt lat="43.14581" lon="3.1333">
        <ele>10.7</ele>
        <time>2021-07-20T08:14:37Z</time>
      </trkpt>
      <trkpt lat="43.14581" lon="3.1333">
        <ele>10.7</ele>
        <time>2021-07-20T08:14:38Z</time>
      </trkpt>
      <trkpt lat="43.14581" lon="3.1333">
        <ele>10.7</ele>
        <time>2021-07-20T08:14:39Z</time>
      </trkpt>
      <trkpt lat="43.14581" lon="3.1333">
        <ele>10.7</ele>
        <time>2021-07-20T08:14:40Z</time>
      </trkpt>
      <trkpt lat="43.14581" lon="3.1333">
        <ele>10.7</ele>
        <time>2021-07-20T08:14:41Z</time>
      </trkpt>
      <trkpt lat="43.14581" lon="3.1333">
        <ele>10.7</ele>
        <time>2021-07-20T08:14:42Z</time>
      </trkpt>
      <trkpt lat="43.14581" lon="3.1333">
        <ele>10.7</ele>
        <time>2021-07-20T08:14:43Z</time>
      </trkpt>
      <trkpt lat="43.14581" lon="3.1333">
        <ele>10.7</ele>
        <time>2021-07-20T08:14:44Z</time>
      </trkpt>
      <trkpt lat="43.14581" lon="3.1333">
        <ele>0.9878902</ele>
        <time>2021-07-20T08:14:45Z</time>
      </trkpt>
      <trkpt lat="43.14581" lon="3.1333">
        <ele>10.7</ele>
        <time>2021-07-20T08:14:46Z</time>
      </trkpt>
      <trkpt lat="43.14581" lon="3.1333">
        <ele>10.7</ele>
        <time>2021-07-20T08:14:47Z</time>
      </trkpt>
      <trkpt lat="43.14581" lon="3.1333">
        <ele>10.7</ele>
        <time>2021-07-20T08:14:48Z</time>
      </trkpt>
      <trkpt lat="43.14581" lon="3.1333">
        <ele>10.7</ele>
        <time>2021-07-20T08:14:49Z</time>
      </trkpt>
      <trkpt lat="43.14581" lon="3.1333">
        <ele>10.7</ele>
        <time>2021-07-20T08:14:50Z</time>
      </trkpt>
      <trkpt lat="43.14581" lon="3.1333">
        <ele>10.7</ele>
        <time>2021-07-20T08:14:51Z</time>
      </trkpt>
      <trkpt lat="43.14581" lon="3.1333">
        <ele>10.7</ele>
        <time>2021-07-20T08:14:52Z</time>
      </trkpt>
      <trkpt lat="43.14581" lon="3.1333">
        <ele>10.7</ele>
        <time>2021-07-20T08:14:53Z</time>
      </trkpt>
      <trkpt lat="43.14581" lon="3.1333">
        <ele>10.7</ele>
        <time>2021-07-20T08:14:54Z</time>
      </trkpt>
      <trkpt lat="43.14581" lon="3.1333">
        <ele>1.2836299</ele>
        <time>2021-07-20T08:14:55Z</time>
      </trkpt>
      <trkpt lat="43.14581" lon="3.1333">
        <ele>10.7</ele>
        <time>2021-07-20T08:14:56Z</time>
      </trkpt>
      <trkpt lat="43.14581" lon="3.1333">
        <ele>10.7</ele>
        <time>2021-07-20T08:14:57Z</time>
      </trkpt>
      <trkpt lat="43.14581" lon="3.1333">
        <ele>10.7</ele>
        <time>2021-07-20T08:14:58Z</time>
      </trkpt>
      <trkpt lat="43.14581" lon="3.1333">
        <ele>10.7</ele>
        <time>2021-07-20T08:14:59Z</time>
      </trkpt>
      <trkpt lat="43.14581" lon="3.1333">
        <ele>10.7</ele>
        <time>2021-07-20T08:15:00Z</time>
      </trkpt>
      <trkpt lat="43.14581" lon="3.1333">
        <ele>10.7</ele>
        <time>2021-07-20T08:15:01Z</time>
      </trkpt>
      <trkpt lat="43.14581" lon="3.1333">
        <ele>10.7</ele>
        <time>2021-07-20T08:15:02Z</time>
      </trkpt>
      <trkpt lat="43.14581" lon="3.1333">
        <ele>10.7</ele>
        <time>2021-07-20T08:15:03Z</time>
      </trkpt>
      <trkpt lat="43.14581" lon="3.1333">
        <ele>10.7</ele>
        <time>2021-07-20T08:15:04Z</time>
      </trkpt>
      <trkpt lat="43.14581" lon="3.1333">
        <ele>1.4206054</ele>
        <time>2021-07-20T08:15:05Z</time>
      </trkpt>
      <trkpt lat="43.14581" lon="3.1333">
        <ele>10.7</ele>
        <time>2021-07-20T08:15:06Z</time>
      </trkpt>
      <trkpt lat="43.14581" lon="3.1333">
        <ele>10.7</ele>
        <time>2021-07-20T08:15:07Z</time>
      </trkpt>
      <trkpt lat="43.14581" lon="3.1333">
        <ele>10.7</ele>
        <time>2021-07-20T08:15:08Z</time>
      </trkpt>
      <trkpt lat="43.14581" lon="3.1333">
        <ele>10.7</ele>
        <time>2021-07-20T08:15:09Z</time>
      </trkpt>
      <trkpt lat="43.14581" lon="3.1333">
        <ele>10.7</ele>
        <time>2021-07-20T08:15:10Z</time>
      </trkpt>
      <trkpt lat="43.14581" lon="3.1333">
        <ele>10.7</ele>
        <time>2021-07-20T08:15:11Z</time>
      </trkpt>
      <trkpt lat="43.14581" lon="3.1333">
        <ele>10.7</ele>
        <time>2021-07-20T08:15:12Z</time>
      </trkpt>
      <trkpt lat="43.14581" lon="3.1333">
        <ele>10.7</ele>
        <time>2021-07-20T08:15:13Z</time>
      </trkpt>
      <trkpt lat="43.14581" lon="3.1333">
        <ele>10.7</ele>
        <time>2021-07-20T08:15:14Z</time>
      </trkpt>
      <trkpt lat="43.14581" lon="3.1333">
        <ele>1.4984328</ele>
        <time>2021-07-20T08:15:15Z</time>
      </trkpt>
      <trkpt lat="43.14581" lon="3.1333">
        <ele>10.7</ele>
        <time>2021-07-20T08:15:16Z</time>
      </trkpt>
      <trkpt lat="43.14581" lon="3.1333">
        <ele>10.7</ele>
        <time>2021-07-20T08:15:17Z</time>
      </trkpt>
      <trkpt lat="43.14581" lon="3.1333">
        <ele>10.7</ele>
        <time>2021-07-20T08:15:18Z</time>
      </trkpt>
      <trkpt lat="43.14581" lon="3.1333">
        <ele>10.7</ele>
        <time>2021-07-20T08:15:19Z</time>
      </trkpt>
      <trkpt lat="43.14581" lon="3.1333">
        <ele>10.7</ele>
        <time>2021-07-20T08:15:20Z</time>
      </trkpt>
      <trkpt lat="43.14581" lon="3.1333">
        <ele>10.7</ele>
        <time>2021-07-20T08:15:21Z</time>
      </trkpt>
      <trkpt lat="43.14581" lon="3.1333">
        <ele>10.7</ele>
        <time>2021-07-20T08:15:22Z</time>
      </trkpt>
      <trkpt lat="43.14581" lon="3.1333">
        <ele>10.7</ele>
        <time>2021-07-20T08:15:23Z</time>
      </trkpt>
      <trkpt lat="43.14581" lon="3.1333">
        <ele>10.7</ele>
        <time>2021-07-20T08:15:24Z</time>
      </trkpt>
      <trkpt lat="43.14581" lon="3.1333">
        <ele>10.7</ele>
        <time>2021-07-20T08:15:25Z</time>
      </trkpt>
      <trkpt lat="43.14581" lon="3.1333">
        <ele>1.4517363</ele>
        <time>2021-07-20T08:15:26Z</time>
      </trkpt>
      <trkpt lat="43.14581" lon="3.1333">
        <ele>10.7</ele>
        <time>2021-07-20T08:15:27Z</time>
      </trkpt>
      <trkpt lat="43.14581" lon="3.1333">
        <ele>10.7</ele>
        <time>2021-07-20T08:15:28Z</time>
      </trkpt>
      <trkpt lat="43.14581" lon="3.1333">
        <ele>10.7</ele>
        <time>2021-07-20T08:15:29Z</time>
      </trkpt>
      <trkpt lat="43.14581" lon="3.1333">
        <ele>10.7</ele>
        <time>2021-07-20T08:15:30Z</time>
      </trkpt>
      <trkpt lat="43.14579" lon="3.13328">
        <ele>11</ele>
        <time>2021-07-20T08:15:31Z</time>
      </trkpt>
      <trkpt lat="43.14579" lon="3.13328">
        <ele>11</ele>
        <time>2021-07-20T08:15:32Z</time>
      </trkpt>
      <trkpt lat="43.14579" lon="3.13328">
        <ele>11</ele>
        <time>2021-07-20T08:15:33Z</time>
      </trkpt>
      <trkpt lat="43.14579" lon="3.13328">
        <ele>11</ele>
        <time>2021-07-20T08:15:34Z</time>
      </trkpt>
      <trkpt lat="43.14579" lon="3.13328">
        <ele>11</ele>
        <time>2021-07-20T08:15:35Z</time>
      </trkpt>
      <trkpt lat="43.1458" lon="3.13327">
        <ele>1.1767482</ele>
        <time>2021-07-20T08:15:36Z</time>
      </trkpt>
      <trkpt lat="43.14581" lon="3.13328">
        <ele>10.9</ele>
        <time>2021-07-20T08:15:37Z</time>
      </trkpt>
      <trkpt lat="43.14582" lon="3.13329">
        <ele>10.7</ele>
        <time>2021-07-20T08:15:38Z</time>
      </trkpt>
      <trkpt lat="43.14583" lon="3.13329">
        <ele>10.5</ele>
        <time>2021-07-20T08:15:39Z</time>
      </trkpt>
      <trkpt lat="43.14584" lon="3.1333">
        <ele>10.4</ele>
        <time>2021-07-20T08:15:40Z</time>
      </trkpt>
      <trkpt lat="43.14584" lon="3.13331">
        <ele>10.3</ele>
        <time>2021-07-20T08:15:41Z</time>
      </trkpt>
      <trkpt lat="43.14585" lon="3.13331">
        <ele>10.3</ele>
        <time>2021-07-20T08:15:42Z</time>
      </trkpt>
      <trkpt lat="43.14585" lon="3.13331">
        <ele>10.3</ele>
        <time>2021-07-20T08:15:43Z</time>
      </trkpt>
      <trkpt lat="43.14585" lon="3.13331">
        <ele>10.3</ele>
        <time>2021-07-20T08:15:44Z</time>
      </trkpt>
      <trkpt lat="43.14585" lon="3.13331">
        <ele>10.3</ele>
        <time>2021-07-20T08:15:45Z</time>
      </trkpt>
      <trkpt lat="43.14585" lon="3.13331">
        <ele>0.90798926</ele>
        <time>2021-07-20T08:15:46Z</time>
      </trkpt>
      <trkpt lat="43.14585" lon="3.13331">
        <ele>10.3</ele>
        <time>2021-07-20T08:15:47Z</time>
      </trkpt>
      <trkpt lat="43.14585" lon="3.13331">
        <ele>10.3</ele>
        <time>2021-07-20T08:15:48Z</time>
      </trkpt>
      <trkpt lat="43.14585" lon="3.13331">
        <ele>10.3</ele>
        <time>2021-07-20T08:15:49Z</time>
      </trkpt>
      <trkpt lat="43.14585" lon="3.13331">
        <ele>10.3</ele>
        <time>2021-07-20T08:15:50Z</time>
      </trkpt>
      <trkpt lat="43.14585" lon="3.13331">
        <ele>10.3</ele>
        <time>2021-07-20T08:15:51Z</time>
      </trkpt>
      <trkpt lat="43.14585" lon="3.13331">
        <ele>10.3</ele>
        <time>2021-07-20T08:15:52Z</time>
      </trkpt>
      <trkpt lat="43.14585" lon="3.13331">
        <ele>10.3</ele>
        <time>2021-07-20T08:15:53Z</time>
      </trkpt>
      <trkpt lat="43.14585" lon="3.13331">
        <ele>10.3</ele>
        <time>2021-07-20T08:15:54Z</time>
      </trkpt>
      <trkpt lat="43.14585" lon="3.13331">
        <ele>10.3</ele>
        <time>2021-07-20T08:15:55Z</time>
      </trkpt>
      <trkpt lat="43.14585" lon="3.13331">
        <ele>0.6983803</ele>
        <time>2021-07-20T08:15:56Z</time>
      </trkpt>
      <trkpt lat="43.14585" lon="3.13331">
        <ele>10.3</ele>
        <time>2021-07-20T08:15:57Z</time>
      </trkpt>
      <trkpt lat="43.14585" lon="3.13331">
        <ele>10.3</ele>
        <time>2021-07-20T08:15:58Z</time>
      </trkpt>
      <trkpt lat="43.14585" lon="3.13331">
        <ele>10.3</ele>
        <time>2021-07-20T08:15:59Z</time>
      </trkpt>
      <trkpt lat="43.14585" lon="3.13331">
        <ele>10.3</ele>
        <time>2021-07-20T08:16:00Z</time>
      </trkpt>
      <trkpt lat="43.14585" lon="3.13331">
        <ele>10.3</ele>
        <time>2021-07-20T08:16:01Z</time>
      </trkpt>
      <trkpt lat="43.14585" lon="3.13331">
        <ele>10.3</ele>
        <time>2021-07-20T08:16:02Z</time>
      </trkpt>
      <trkpt lat="43.14585" lon="3.13331">
        <ele>10.3</ele>
        <time>2021-07-20T08:16:03Z</time>
      </trkpt>
      <trkpt lat="43.14585" lon="3.13331">
        <ele>10.3</ele>
        <time>2021-07-20T08:16:04Z</time>
      </trkpt>
      <trkpt lat="43.14585" lon="3.13331">
        <ele>10.3</ele>
        <time>2021-07-20T08:16:05Z</time>
      </trkpt>
      <trkpt lat="43.14585" lon="3.13331">
        <ele>1.033548</ele>
        <time>2021-07-20T08:16:06Z</time>
      </trkpt>
      <trkpt lat="43.14585" lon="3.13331">
        <ele>10.3</ele>
        <time>2021-07-20T08:16:07Z</time>
      </trkpt>
      <trkpt lat="43.14585" lon="3.13331">
        <ele>10.3</ele>
        <time>2021-07-20T08:16:08Z</time>
      </trkpt>
      <trkpt lat="43.14585" lon="3.13331">
        <ele>10.3</ele>
        <time>2021-07-20T08:16:09Z</time>
      </trkpt>
      <trkpt lat="43.14585" lon="3.13331">
        <ele>10.3</ele>
        <time>2021-07-20T08:16:10Z</time>
      </trkpt>
      <trkpt lat="43.14585" lon="3.13331">
        <ele>10.3</ele>
        <time>2021-07-20T08:16:11Z</time>
      </trkpt>
      <trkpt lat="43.14585" lon="3.13331">
        <ele>10.3</ele>
        <time>2021-07-20T08:16:12Z</time>
      </trkpt>
      <trkpt lat="43.14585" lon="3.13331">
        <ele>10.3</ele>
        <time>2021-07-20T08:16:13Z</time>
      </trkpt>
      <trkpt lat="43.14585" lon="3.13331">
        <ele>10.3</ele>
        <time>2021-07-20T08:16:14Z</time>
      </trkpt>
      <trkpt lat="43.14585" lon="3.13331">
        <ele>10.3</ele>
        <time>2021-07-20T08:16:15Z</time>
      </trkpt>
      <trkpt lat="43.14585" lon="3.13331">
        <ele>1.1186378</ele>
        <time>2021-07-20T08:16:16Z</time>
      </trkpt>
      <trkpt lat="43.14585" lon="3.13331">
        <ele>10.3</ele>
        <time>2021-07-20T08:16:17Z</time>
      </trkpt>
      <trkpt lat="43.14585" lon="3.13331">
        <ele>10.3</ele>
        <time>2021-07-20T08:16:18Z</time>
      </trkpt>
      <trkpt lat="43.14585" lon="3.13331">
        <ele>10.3</ele>
        <time>2021-07-20T08:16:19Z</time>
      </trkpt>
      <trkpt lat="43.14585" lon="3.13331">
        <ele>10.3</ele>
        <time>2021-07-20T08:16:20Z</time>
      </trkpt>
      <trkpt lat="43.14586" lon="3.13332">
        <ele>10</ele>
        <time>2021-07-20T08:16:21Z</time>
      </trkpt>
      <trkpt lat="43.14587" lon="3.13333">
        <ele>9.9</ele>
        <time>2021-07-20T08:16:22Z</time>
      </trkpt>
      <trkpt lat="43.14588" lon="3.13334">
        <ele>9.9</ele>
        <time>2021-07-20T08:16:23Z</time>
      </trkpt>
      <trkpt lat="43.1459" lon="3.13335">
        <ele>9.7</ele>
        <time>2021-07-20T08:16:24Z</time>
      </trkpt>
      <trkpt lat="43.14592" lon="3.13337">
        <ele>0.81459886</ele>
        <time>2021-07-20T08:16:25Z</time>
      </trkpt>
      <trkpt lat="43.14595" lon="3.13339">
        <ele>9.5</ele>
        <time>2021-07-20T08:16:26Z</time>
      </trkpt>
      <trkpt lat="43.14597" lon="3.13342">
        <ele>9.3</ele>
        <time>2021-07-20T08:16:27Z</time>
      </trkpt>
      <trkpt lat="43.14599" lon="3.13346">
        <ele>9.1</ele>
        <time>2021-07-20T08:16:28Z</time>
      </trkpt>
      <trkpt lat="43.146" lon="3.13351">
        <ele>8.8</ele>
        <time>2021-07-20T08:16:29Z</time>
      </trkpt>
      <trkpt lat="43.14601" lon="3.13356">
        <ele>8.6</ele>
        <time>2021-07-20T08:16:30Z</time>
      </trkpt>
      <trkpt lat="43.14602" lon="3.13362">
        <ele>8.4</ele>
        <time>2021-07-20T08:16:31Z</time>
      </trkpt>
      <trkpt lat="43.14602" lon="3.13367">
        <ele>8.2</ele>
        <time>2021-07-20T08:16:32Z</time>
      </trkpt>
      <trkpt lat="43.14603" lon="3.13372">
        <ele>8</ele>
        <time>2021-07-20T08:16:33Z</time>
      </trkpt>
      <trkpt lat="43.14603" lon="3.13378">
        <ele>7.8</ele>
        <time>2021-07-20T08:16:34Z</time>
      </trkpt>
      <trkpt lat="43.14604" lon="3.13383">
        <ele>0.7336609</ele>
        <time>2021-07-20T08:16:35Z</time>
      </trkpt>
      <trkpt lat="43.14605" lon="3.13388">
        <ele>7.4</ele>
        <time>2021-07-20T08:16:36Z</time>
      </trkpt>
      <trkpt lat="43.14605" lon="3.13394">
        <ele>7.2</ele>
        <time>2021-07-20T08:16:37Z</time>
      </trkpt>
      <trkpt lat="43.14606" lon="3.13399">
        <ele>7</ele>
        <time>2021-07-20T08:16:38Z</time>
      </trkpt>
      <trkpt lat="43.14607" lon="3.13404">
        <ele>6.9</ele>
        <time>2021-07-20T08:16:39Z</time>
      </trkpt>
      <trkpt lat="43.14608" lon="3.13408">
        <ele>6.8</ele>
        <time>2021-07-20T08:16:40Z</time>
      </trkpt>
      <trkpt lat="43.14608" lon="3.13413">
        <ele>6.6</ele>
        <time>2021-07-20T08:16:41Z</time>
      </trkpt>
      <trkpt lat="43.14609" lon="3.13418">
        <ele>6.6</ele>
        <time>2021-07-20T08:16:42Z</time>
      </trkpt>
      <trkpt lat="43.1461" lon="3.13423">
        <ele>6.6</ele>
        <time>2021-07-20T08:16:43Z</time>
      </trkpt>
      <trkpt lat="43.1461" lon="3.13428">
        <ele>6.7</ele>
        <time>2021-07-20T08:16:44Z</time>
      </trkpt>
      <trkpt lat="43.14611" lon="3.13434">
        <ele>0.6215933</ele>
        <time>2021-07-20T08:16:45Z</time>
      </trkpt>
      <trkpt lat="43.14611" lon="3.13441">
        <ele>6.9</ele>
        <time>2021-07-20T08:16:46Z</time>
      </trkpt>
      <trkpt lat="43.14612" lon="3.13447">
        <ele>7.1</ele>
        <time>2021-07-20T08:16:47Z</time>
      </trkpt>
      <trkpt lat="43.14613" lon="3.13453">
        <ele>7.3</ele>
        <time>2021-07-20T08:16:48Z</time>
      </trkpt>
      <trkpt lat="43.14614" lon="3.13459">
        <ele>7.4</ele>
        <time>2021-07-20T08:16:49Z</time>
      </trkpt>
      <trkpt lat="43.14614" lon="3.13465">
        <ele>7.5</ele>
        <time>2021-07-20T08:16:50Z</time>
      </trkpt>
      <trkpt lat="43.14614" lon="3.13471">
        <ele>7.6</ele>
        <time>2021-07-20T08:16:51Z</time>
      </trkpt>
      <trkpt lat="43.14615" lon="3.13477">
        <ele>7.7</ele>
        <time>2021-07-20T08:16:52Z</time>
      </trkpt>
      <trkpt lat="43.14615" lon="3.13482">
        <ele>7.8</ele>
        <time>2021-07-20T08:16:53Z</time>
      </trkpt>
      <trkpt lat="43.14616" lon="3.13487">
        <ele>8</ele>
        <time>2021-07-20T08:16:54Z</time>
      </trkpt>
      <trkpt lat="43.14617" lon="3.13493">
        <ele>0.65998673</ele>
        <time>2021-07-20T08:16:55Z</time>
      </trkpt>
      <trkpt lat="43.14618" lon="3.13498">
        <ele>8.3</ele>
        <time>2021-07-20T08:16:56Z</time>
      </trkpt>
      <trkpt lat="43.14618" lon="3.13504">
        <ele>8.3</ele>
        <time>2021-07-20T08:16:57Z</time>
      </trkpt>
      <trkpt lat="43.14619" lon="3.13509">
        <ele>8.2</ele>
        <time>2021-07-20T08:16:58Z</time>
      </trkpt>
      <trkpt lat="43.1462" lon="3.13515">
        <ele>8.2</ele>
        <time>2021-07-20T08:16:59Z</time>
      </trkpt>
      <trkpt lat="43.14621" lon="3.13521">
        <ele>8.2</ele>
        <time>2021-07-20T08:17:00Z</time>
      </trkpt>
      <trkpt lat="43.14622" lon="3.13527">
        <ele>8.2</ele>
        <time>2021-07-20T08:17:01Z</time>
      </trkpt>
      <trkpt lat="43.14623" lon="3.13532">
        <ele>8.2</ele>
        <time>2021-07-20T08:17:02Z</time>
      </trkpt>
      <trkpt lat="43.14624" lon="3.13538">
        <ele>8.2</ele>
        <time>2021-07-20T08:17:03Z</time>
      </trkpt>
      <trkpt lat="43.14624" lon="3.13543">
        <ele>8.2</ele>
        <time>2021-07-20T08:17:04Z</time>
      </trkpt>
      <trkpt lat="43.14625" lon="3.13549">
        <ele>8.1</ele>
        <time>2021-07-20T08:17:05Z</time>
      </trkpt>
      <trkpt lat="43.14626" lon="3.13554">
        <ele>0.26360336</ele>
        <time>2021-07-20T08:17:06Z</time>
      </trkpt>
      <trkpt lat="43.14627" lon="3.13559">
        <ele>8.1</ele>
        <time>2021-07-20T08:17:07Z</time>
      </trkpt>
      <trkpt lat="43.14627" lon="3.13565">
        <ele>8</ele>
        <time>2021-07-20T08:17:08Z</time>
      </trkpt>
      <trkpt lat="43.14628" lon="3.1357">
        <ele>8.1</ele>
        <time>2021-07-20T08:17:09Z</time>
      </trkpt>
      <trkpt lat="43.14629" lon="3.13575">
        <ele>8</ele>
        <time>2021-07-20T08:17:10Z</time>
      </trkpt>
      <trkpt lat="43.14629" lon="3.13581">
        <ele>8</ele>
        <time>2021-07-20T08:17:11Z</time>
      </trkpt>
      <trkpt lat="43.1463" lon="3.13586">
        <ele>7.9</ele>
        <time>2021-07-20T08:17:12Z</time>
      </trkpt>
      <trkpt lat="43.14631" lon="3.13592">
        <ele>7.8</ele>
        <time>2021-07-20T08:17:13Z</time>
      </trkpt>
      <trkpt lat="43.14631" lon="3.13597">
        <ele>7.6</ele>
        <time>2021-07-20T08:17:14Z</time>
      </trkpt>
      <trkpt lat="43.14632" lon="3.13603">
        <ele>7.5</ele>
        <time>2021-07-20T08:17:15Z</time>
      </trkpt>
      <trkpt lat="43.14633" lon="3.13608">
        <ele>0.093430385</ele>
        <time>2021-07-20T08:17:16Z</time>
      </trkpt>
      <trkpt lat="43.14635" lon="3.13612">
        <ele>7.4</ele>
        <time>2021-07-20T08:17:17Z</time>
      </trkpt>
      <trkpt lat="43.14637" lon="3.13616">
        <ele>7.4</ele>
        <time>2021-07-20T08:17:18Z</time>
      </trkpt>
      <trkpt lat="43.1464" lon="3.1362">
        <ele>7.5</ele>
        <time>2021-07-20T08:17:19Z</time>
      </trkpt>
      <trkpt lat="43.14643" lon="3.13623">
        <ele>7.6</ele>
        <time>2021-07-20T08:17:20Z</time>
      </trkpt>
      <trkpt lat="43.14646" lon="3.13626">
        <ele>7.7</ele>
        <time>2021-07-20T08:17:21Z</time>
      </trkpt>
      <trkpt lat="43.14649" lon="3.13629">
        <ele>7.8</ele>
        <time>2021-07-20T08:17:22Z</time>
      </trkpt>
      <trkpt lat="43.14652" lon="3.13632">
        <ele>8</ele>
        <time>2021-07-20T08:17:23Z</time>
      </trkpt>
      <trkpt lat="43.14656" lon="3.13635">
        <ele>8.1</ele>
        <time>2021-07-20T08:17:24Z</time>
      </trkpt>
      <trkpt lat="43.14659" lon="3.13638">
        <ele>8.2</ele>
        <time>2021-07-20T08:17:25Z</time>
      </trkpt>
      <trkpt lat="43.14663" lon="3.13641">
        <ele>-0.020709315</ele>
        <time>2021-07-20T08:17:26Z</time>
      </trkpt>
      <trkpt lat="43.14666" lon="3.13645">
        <ele>8.3</ele>
        <time>2021-07-20T08:17:27Z</time>
      </trkpt>
      <trkpt lat="43.14669" lon="3.13648">
        <ele>8.5</ele>
        <time>2021-07-20T08:17:28Z</time>
      </trkpt>
      <trkpt lat="43.14672" lon="3.13652">
        <ele>8.8</ele>
        <time>2021-07-20T08:17:29Z</time>
      </trkpt>
      <trkpt lat="43.14675" lon="3.13655">
        <ele>9.2</ele>
        <time>2021-07-20T08:17:30Z</time>
      </trkpt>
      <trkpt lat="43.14678" lon="3.13658">
        <ele>9.6</ele>
        <time>2021-07-20T08:17:31Z</time>
      </trkpt>
      <trkpt lat="43.14681" lon="3.13662">
        <ele>9.9</ele>
        <time>2021-07-20T08:17:32Z</time>
      </trkpt>
      <trkpt lat="43.14684" lon="3.13665">
        <ele>10.2</ele>
        <time>2021-07-20T08:17:33Z</time>
      </trkpt>
      <trkpt lat="43.14687" lon="3.13669">
        <ele>10.5</ele>
        <time>2021-07-20T08:17:34Z</time>
      </trkpt>
      <trkpt lat="43.1469" lon="3.13674">
        <ele>10.6</ele>
        <time>2021-07-20T08:17:35Z</time>
      </trkpt>
      <trkpt lat="43.14692" lon="3.13679">
        <ele>0.5427313</ele>
        <time>2021-07-20T08:17:36Z</time>
      </trkpt>
      <trkpt lat="43.14695" lon="3.13683">
        <ele>10.9</ele>
        <time>2021-07-20T08:17:37Z</time>
      </trkpt>
      <trkpt lat="43.14698" lon="3.13688">
        <ele>11</ele>
        <time>2021-07-20T08:17:38Z</time>
      </trkpt>
      <trkpt lat="43.147" lon="3.13693">
        <ele>11</ele>
        <time>2021-07-20T08:17:39Z</time>
      </trkpt>
      <trkpt lat="43.14703" lon="3.13697">
        <ele>11.1</ele>
        <time>2021-07-20T08:17:40Z</time>
      </trkpt>
      <trkpt lat="43.14706" lon="3.13702">
        <ele>11.2</ele>
        <time>2021-07-20T08:17:41Z</time>
      </trkpt>
      <trkpt lat="43.14709" lon="3.13707">
        <ele>11.2</ele>
        <time>2021-07-20T08:17:42Z</time>
      </trkpt>
      <trkpt lat="43.14711" lon="3.13711">
        <ele>11.2</ele>
        <time>2021-07-20T08:17:43Z</time>
      </trkpt>
      <trkpt lat="43.14714" lon="3.13716">
        <ele>11.1</ele>
        <time>2021-07-20T08:17:44Z</time>
      </trkpt>
      <trkpt lat="43.14717" lon="3.1372">
        <ele>11.1</ele>
        <time>2021-07-20T08:17:45Z</time>
      </trkpt>
      <trkpt lat="43.1472" lon="3.13725">
        <ele>0.13389823</ele>
        <time>2021-07-20T08:17:46Z</time>
      </trkpt>
      <trkpt lat="43.14723" lon="3.13729">
        <ele>11.1</ele>
        <time>2021-07-20T08:17:47Z</time>
      </trkpt>
      <trkpt lat="43.14725" lon="3.13734">
        <ele>10.9</ele>
        <time>2021-07-20T08:17:48Z</time>
      </trkpt>
      <trkpt lat="43.14728" lon="3.13739">
        <ele>10.8</ele>
        <time>2021-07-20T08:17:49Z</time>
      </trkpt>
      <trkpt lat="43.14731" lon="3.13744">
        <ele>10.6</ele>
        <time>2021-07-20T08:17:50Z</time>
      </trkpt>
      <trkpt lat="43.14733" lon="3.13749">
        <ele>10.3</ele>
        <time>2021-07-20T08:17:51Z</time>
      </trkpt>
      <trkpt lat="43.14736" lon="3.13753">
        <ele>10.3</ele>
        <time>2021-07-20T08:17:52Z</time>
      </trkpt>
      <trkpt lat="43.14739" lon="3.13758">
        <ele>10.5</ele>
        <time>2021-07-20T08:17:53Z</time>
      </trkpt>
      <trkpt lat="43.14742" lon="3.13763">
        <ele>10.6</ele>
        <time>2021-07-20T08:17:54Z</time>
      </trkpt>
      <trkpt lat="43.14745" lon="3.13768">
        <ele>10.6</ele>
        <time>2021-07-20T08:17:55Z</time>
      </trkpt>
      <trkpt lat="43.14747" lon="3.13773">
        <ele>-0.22927222</ele>
        <time>2021-07-20T08:17:56Z</time>
      </trkpt>
      <trkpt lat="43.14749" lon="3.13777">
        <ele>10.6</ele>
        <time>2021-07-20T08:17:57Z</time>
      </trkpt>
      <trkpt lat="43.14751" lon="3.13782">
        <ele>10.8</ele>
        <time>2021-07-20T08:17:58Z</time>
      </trkpt>
      <trkpt lat="43.14754" lon="3.13787">
        <ele>11.2</ele>
        <time>2021-07-20T08:17:59Z</time>
      </trkpt>
      <trkpt lat="43.14757" lon="3.13792">
        <ele>11.6</ele>
        <time>2021-07-20T08:18:00Z</time>
      </trkpt>
      <trkpt lat="43.14759" lon="3.13796">
        <ele>11.9</ele>
        <time>2021-07-20T08:18:01Z</time>
      </trkpt>
      <trkpt lat="43.14761" lon="3.13801">
        <ele>12.1</ele>
        <time>2021-07-20T08:18:02Z</time>
      </trkpt>
      <trkpt lat="43.14763" lon="3.13806">
        <ele>12.5</ele>
        <time>2021-07-20T08:18:03Z</time>
      </trkpt>
      <trkpt lat="43.14766" lon="3.13811">
        <ele>12.7</ele>
        <time>2021-07-20T08:18:04Z</time>
      </trkpt>
      <trkpt lat="43.14768" lon="3.13816">
        <ele>-0.29049182</ele>
        <time>2021-07-20T08:18:05Z</time>
      </trkpt>
      <trkpt lat="43.1477" lon="3.13821">
        <ele>13.4</ele>
        <time>2021-07-20T08:18:06Z</time>
      </trkpt>
      <trkpt lat="43.14772" lon="3.13826">
        <ele>13.7</ele>
        <time>2021-07-20T08:18:07Z</time>
      </trkpt>
      <trkpt lat="43.14774" lon="3.13831">
        <ele>13.9</ele>
        <time>2021-07-20T08:18:08Z</time>
      </trkpt>
      <trkpt lat="43.14776" lon="3.13836">
        <ele>14</ele>
        <time>2021-07-20T08:18:09Z</time>
      </trkpt>
      <trkpt lat="43.14777" lon="3.13841">
        <ele>14</ele>
        <time>2021-07-20T08:18:10Z</time>
      </trkpt>
      <trkpt lat="43.14779" lon="3.13847">
        <ele>13.8</ele>
        <time>2021-07-20T08:18:11Z</time>
      </trkpt>
      <trkpt lat="43.1478" lon="3.13853">
        <ele>13.7</ele>
        <time>2021-07-20T08:18:12Z</time>
      </trkpt>
      <trkpt lat="43.14781" lon="3.13858">
        <ele>13.5</ele>
        <time>2021-07-20T08:18:13Z</time>
      </trkpt>
      <trkpt lat="43.14783" lon="3.13864">
        <ele>13.4</ele>
        <time>2021-07-20T08:18:14Z</time>
      </trkpt>
      <trkpt lat="43.14784" lon="3.1387">
        <ele>-0.29671752</ele>
        <time>2021-07-20T08:18:15Z</time>
      </trkpt>
      <trkpt lat="43.14785" lon="3.13876">
        <ele>13</ele>
        <time>2021-07-20T08:18:16Z</time>
      </trkpt>
      <trkpt lat="43.14787" lon="3.13881">
        <ele>12.9</ele>
        <time>2021-07-20T08:18:17Z</time>
      </trkpt>
      <trkpt lat="43.14788" lon="3.13886">
        <ele>12.7</ele>
        <time>2021-07-20T08:18:18Z</time>
      </trkpt>
      <trkpt lat="43.14789" lon="3.13892">
        <ele>12.6</ele>
        <time>2021-07-20T08:18:19Z</time>
      </trkpt>
      <trkpt lat="43.14791" lon="3.13897">
        <ele>12.5</ele>
        <time>2021-07-20T08:18:20Z</time>
      </trkpt>
      <trkpt lat="43.14793" lon="3.13902">
        <ele>12.4</ele>
        <time>2021-07-20T08:18:21Z</time>
      </trkpt>
      <trkpt lat="43.14795" lon="3.13907">
        <ele>12.5</ele>
        <time>2021-07-20T08:18:22Z</time>
      </trkpt>
      <trkpt lat="43.14798" lon="3.13911">
        <ele>12.6</ele>
        <time>2021-07-20T08:18:23Z</time>
      </trkpt>
      <trkpt lat="43.14801" lon="3.13916">
        <ele>12.9</ele>
        <time>2021-07-20T08:18:24Z</time>
      </trkpt>
      <trkpt lat="43.14805" lon="3.1392">
        <ele>-0.4803753</ele>
        <time>2021-07-20T08:18:25Z</time>
      </trkpt>
      <trkpt lat="43.14808" lon="3.13924">
        <ele>13.7</ele>
        <time>2021-07-20T08:18:26Z</time>
      </trkpt>
      <trkpt lat="43.14811" lon="3.13928">
        <ele>13.9</ele>
        <time>2021-07-20T08:18:27Z</time>
      </trkpt>
      <trkpt lat="43.14814" lon="3.13933">
        <ele>14.1</ele>
        <time>2021-07-20T08:18:28Z</time>
      </trkpt>
      <trkpt lat="43.14817" lon="3.13937">
        <ele>14.2</ele>
        <time>2021-07-20T08:18:29Z</time>
      </trkpt>
      <trkpt lat="43.1482" lon="3.13942">
        <ele>14.3</ele>
        <time>2021-07-20T08:18:30Z</time>
      </trkpt>
      <trkpt lat="43.14822" lon="3.13946">
        <ele>14.3</ele>
        <time>2021-07-20T08:18:31Z</time>
      </trkpt>
      <trkpt lat="43.14824" lon="3.13951">
        <ele>14.3</ele>
        <time>2021-07-20T08:18:32Z</time>
      </trkpt>
      <trkpt lat="43.14827" lon="3.13956">
        <ele>14.2</ele>
        <time>2021-07-20T08:18:33Z</time>
      </trkpt>
      <trkpt lat="43.14829" lon="3.13961">
        <ele>14.1</ele>
        <time>2021-07-20T08:18:34Z</time>
      </trkpt>
      <trkpt lat="43.14831" lon="3.13966">
        <ele>-0.45339742</ele>
        <time>2021-07-20T08:18:35Z</time>
      </trkpt>
      <trkpt lat="43.14833" lon="3.13971">
        <ele>13.7</ele>
        <time>2021-07-20T08:18:36Z</time>
      </trkpt>
      <trkpt lat="43.14835" lon="3.13976">
        <ele>13.6</ele>
        <time>2021-07-20T08:18:37Z</time>
      </trkpt>
      <trkpt lat="43.14836" lon="3.13981">
        <ele>13.4</ele>
        <time>2021-07-20T08:18:38Z</time>
      </trkpt>
      <trkpt lat="43.14838" lon="3.13986">
        <ele>13.3</ele>
        <time>2021-07-20T08:18:39Z</time>
      </trkpt>
      <trkpt lat="43.1484" lon="3.1399">
        <ele>13.2</ele>
        <time>2021-07-20T08:18:40Z</time>
      </trkpt>
      <trkpt lat="43.14842" lon="3.13995">
        <ele>13.1</ele>
        <time>2021-07-20T08:18:41Z</time>
      </trkpt>
      <trkpt lat="43.14844" lon="3.14">
        <ele>12.9</ele>
        <time>2021-07-20T08:18:42Z</time>
      </trkpt>
      <trkpt lat="43.14845" lon="3.14004">
        <ele>12.8</ele>
        <time>2021-07-20T08:18:43Z</time>
      </trkpt>
      <trkpt lat="43.14847" lon="3.14009">
        <ele>12.7</ele>
        <time>2021-07-20T08:18:44Z</time>
      </trkpt>
      <trkpt lat="43.14848" lon="3.14013">
        <ele>12.6</ele>
        <time>2021-07-20T08:18:45Z</time>
      </trkpt>
      <trkpt lat="43.1485" lon="3.14018">
        <ele>-0.36623788</ele>
        <time>2021-07-20T08:18:46Z</time>
      </trkpt>
      <trkpt lat="43.14851" lon="3.14022">
        <ele>12.3</ele>
        <time>2021-07-20T08:18:47Z</time>
      </trkpt>
      <trkpt lat="43.14853" lon="3.14027">
        <ele>12.2</ele>
        <time>2021-07-20T08:18:48Z</time>
      </trkpt>
      <trkpt lat="43.14855" lon="3.14031">
        <ele>12.1</ele>
        <time>2021-07-20T08:18:49Z</time>
      </trkpt>
      <trkpt lat="43.14857" lon="3.14036">
        <ele>11.9</ele>
        <time>2021-07-20T08:18:50Z</time>
      </trkpt>
      <trkpt lat="43.14859" lon="3.14041">
        <ele>11.7</ele>
        <time>2021-07-20T08:18:51Z</time>
      </trkpt>
      <trkpt lat="43.14861" lon="3.14045">
        <ele>11.6</ele>
        <time>2021-07-20T08:18:52Z</time>
      </trkpt>
      <trkpt lat="43.14862" lon="3.1405">
        <ele>11.3</ele>
        <time>2021-07-20T08:18:53Z</time>
      </trkpt>
      <trkpt lat="43.14864" lon="3.14055">
        <ele>11.1</ele>
        <time>2021-07-20T08:18:54Z</time>
      </trkpt>
      <trkpt lat="43.14867" lon="3.1406">
        <ele>11</ele>
        <time>2021-07-20T08:18:55Z</time>
      </trkpt>
      <trkpt lat="43.14869" lon="3.14065">
        <ele>-0.1701277</ele>
        <time>2021-07-20T08:18:56Z</time>
      </trkpt>
      <trkpt lat="43.14871" lon="3.1407">
        <ele>10.4</ele>
        <time>2021-07-20T08:18:57Z</time>
      </trkpt>
      <trkpt lat="43.14873" lon="3.14075">
        <ele>10.2</ele>
        <time>2021-07-20T08:18:58Z</time>
      </trkpt>
      <trkpt lat="43.14875" lon="3.1408">
        <ele>10</ele>
        <time>2021-07-20T08:18:59Z</time>
      </trkpt>
      <trkpt lat="43.14878" lon="3.14084">
        <ele>9.8</ele>
        <time>2021-07-20T08:19:00Z</time>
      </trkpt>
      <trkpt lat="43.14881" lon="3.14089">
        <ele>9.8</ele>
        <time>2021-07-20T08:19:01Z</time>
      </trkpt>
      <trkpt lat="43.14883" lon="3.14094">
        <ele>9.7</ele>
        <time>2021-07-20T08:19:02Z</time>
      </trkpt>
      <trkpt lat="43.14885" lon="3.14099">
        <ele>9.6</ele>
        <time>2021-07-20T08:19:03Z</time>
      </trkpt>
      <trkpt lat="43.14887" lon="3.14103">
        <ele>9.5</ele>
        <time>2021-07-20T08:19:04Z</time>
      </trkpt>
      <trkpt lat="43.14888" lon="3.14108">
        <ele>9.4</ele>
        <time>2021-07-20T08:19:05Z</time>
      </trkpt>
      <trkpt lat="43.1489" lon="3.14112">
        <ele>-0.37038833</ele>
        <time>2021-07-20T08:19:06Z</time>
      </trkpt>
      <trkpt lat="43.14892" lon="3.14117">
        <ele>9.1</ele>
        <time>2021-07-20T08:19:07Z</time>
      </trkpt>
      <trkpt lat="43.14894" lon="3.14122">
        <ele>8.9</ele>
        <time>2021-07-20T08:19:08Z</time>
      </trkpt>
      <trkpt lat="43.14896" lon="3.14127">
        <ele>8.7</ele>
        <time>2021-07-20T08:19:09Z</time>
      </trkpt>
      <trkpt lat="43.14898" lon="3.14132">
        <ele>8.5</ele>
        <time>2021-07-20T08:19:10Z</time>
      </trkpt>
      <trkpt lat="43.14899" lon="3.14136">
        <ele>8.3</ele>
        <time>2021-07-20T08:19:11Z</time>
      </trkpt>
      <trkpt lat="43.14901" lon="3.14141">
        <ele>8.1</ele>
        <time>2021-07-20T08:19:12Z</time>
      </trkpt>
      <trkpt lat="43.14903" lon="3.14146">
        <ele>7.9</ele>
        <time>2021-07-20T08:19:13Z</time>
      </trkpt>
      <trkpt lat="43.14905" lon="3.14151">
        <ele>7.6</ele>
        <time>2021-07-20T08:19:14Z</time>
      </trkpt>
      <trkpt lat="43.14907" lon="3.14156">
        <ele>7.3</ele>
        <time>2021-07-20T08:19:15Z</time>
      </trkpt>
      <trkpt lat="43.14909" lon="3.14161">
        <ele>-0.119284056</ele>
        <time>2021-07-20T08:19:16Z</time>
      </trkpt>
      <trkpt lat="43.14911" lon="3.14166">
        <ele>6.7</ele>
        <time>2021-07-20T08:19:17Z</time>
      </trkpt>
      <trkpt lat="43.14912" lon="3.14171">
        <ele>6.5</ele>
        <time>2021-07-20T08:19:18Z</time>
      </trkpt>
      <trkpt lat="43.14914" lon="3.14175">
        <ele>6.4</ele>
        <time>2021-07-20T08:19:19Z</time>
      </trkpt>
      <trkpt lat="43.14916" lon="3.1418">
        <ele>6.2</ele>
        <time>2021-07-20T08:19:20Z</time>
      </trkpt>
      <trkpt lat="43.14917" lon="3.14185">
        <ele>6</ele>
        <time>2021-07-20T08:19:21Z</time>
      </trkpt>
      <trkpt lat="43.14919" lon="3.14189">
        <ele>5.8</ele>
        <time>2021-07-20T08:19:22Z</time>
      </trkpt>
      <trkpt lat="43.14919" lon="3.14194">
        <ele>5.6</ele>
        <time>2021-07-20T08:19:23Z</time>
      </trkpt>
      <trkpt lat="43.14919" lon="3.14199">
        <ele>5.2</ele>
        <time>2021-07-20T08:19:24Z</time>
      </trkpt>
      <trkpt lat="43.14917" lon="3.14205">
        <ele>4.7</ele>
        <time>2021-07-20T08:19:25Z</time>
      </trkpt>
      <trkpt lat="43.14915" lon="3.1421">
        <ele>0.24181284</ele>
        <time>2021-07-20T08:19:26Z</time>
      </trkpt>
      <trkpt lat="43.14912" lon="3.14215">
        <ele>4</ele>
        <time>2021-07-20T08:19:27Z</time>
      </trkpt>
      <trkpt lat="43.14909" lon="3.1422">
        <ele>3.7</ele>
        <time>2021-07-20T08:19:28Z</time>
      </trkpt>
      <trkpt lat="43.14906" lon="3.14224">
        <ele>3.4</ele>
        <time>2021-07-20T08:19:29Z</time>
      </trkpt>
      <trkpt lat="43.14903" lon="3.14228">
        <ele>3.1</ele>
        <time>2021-07-20T08:19:30Z</time>
      </trkpt>
      <trkpt lat="43.14899" lon="3.14233">
        <ele>2.9</ele>
        <time>2021-07-20T08:19:31Z</time>
      </trkpt>
      <trkpt lat="43.14896" lon="3.14237">
        <ele>2.6</ele>
        <time>2021-07-20T08:19:32Z</time>
      </trkpt>
      <trkpt lat="43.14893" lon="3.14241">
        <ele>2.4</ele>
        <time>2021-07-20T08:19:33Z</time>
      </trkpt>
      <trkpt lat="43.14889" lon="3.14245">
        <ele>2.2</ele>
        <time>2021-07-20T08:19:34Z</time>
      </trkpt>
      <trkpt lat="43.14885" lon="3.14249">
        <ele>2</ele>
        <time>2021-07-20T08:19:35Z</time>
      </trkpt>
      <trkpt lat="43.14882" lon="3.14254">
        <ele>0.06956477</ele>
        <time>2021-07-20T08:19:36Z</time>
      </trkpt>
      <trkpt lat="43.14879" lon="3.14258">
        <ele>1.9</ele>
        <time>2021-07-20T08:19:37Z</time>
      </trkpt>
      <trkpt lat="43.14876" lon="3.14263">
        <ele>1.9</ele>
        <time>2021-07-20T08:19:38Z</time>
      </trkpt>
      <trkpt lat="43.14873" lon="3.14267">
        <ele>1.9</ele>
        <time>2021-07-20T08:19:39Z</time>
      </trkpt>
      <trkpt lat="43.1487" lon="3.14272">
        <ele>1.9</ele>
        <time>2021-07-20T08:19:40Z</time>
      </trkpt>
      <trkpt lat="43.14867" lon="3.14277">
        <ele>1.9</ele>
        <time>2021-07-20T08:19:41Z</time>
      </trkpt>
      <trkpt lat="43.14864" lon="3.14281">
        <ele>1.9</ele>
        <time>2021-07-20T08:19:42Z</time>
      </trkpt>
      <trkpt lat="43.14862" lon="3.14286">
        <ele>1.9</ele>
        <time>2021-07-20T08:19:43Z</time>
      </trkpt>
      <trkpt lat="43.14859" lon="3.14291">
        <ele>1.9</ele>
        <time>2021-07-20T08:19:44Z</time>
      </trkpt>
      <trkpt lat="43.14855" lon="3.14295">
        <ele>-0.7179868</ele>
        <time>2021-07-20T08:19:45Z</time>
      </trkpt>
      <trkpt lat="43.14852" lon="3.14299">
        <ele>1.9</ele>
        <time>2021-07-20T08:19:46Z</time>
      </trkpt>
      <trkpt lat="43.14848" lon="3.14303">
        <ele>1.9</ele>
        <time>2021-07-20T08:19:47Z</time>
      </trkpt>
      <trkpt lat="43.14845" lon="3.14307">
        <ele>1.9</ele>
        <time>2021-07-20T08:19:48Z</time>
      </trkpt>
      <trkpt lat="43.14842" lon="3.14311">
        <ele>1.9</ele>
        <time>2021-07-20T08:19:49Z</time>
      </trkpt>
      <trkpt lat="43.14838" lon="3.14314">
        <ele>2</ele>
        <time>2021-07-20T08:19:50Z</time>
      </trkpt>
      <trkpt lat="43.14835" lon="3.14318">
        <ele>2</ele>
        <time>2021-07-20T08:19:51Z</time>
      </trkpt>
      <trkpt lat="43.14831" lon="3.14321">
        <ele>2</ele>
        <time>2021-07-20T08:19:52Z</time>
      </trkpt>
      <trkpt lat="43.14827" lon="3.14325">
        <ele>1.9</ele>
        <time>2021-07-20T08:19:53Z</time>
      </trkpt>
      <trkpt lat="43.14824" lon="3.14329">
        <ele>1.9</ele>
        <time>2021-07-20T08:19:54Z</time>
      </trkpt>
      <trkpt lat="43.1482" lon="3.14332">
        <ele>-0.97012216</ele>
        <time>2021-07-20T08:19:55Z</time>
      </trkpt>
      <trkpt lat="43.14817" lon="3.14336">
        <ele>1.8</ele>
        <time>2021-07-20T08:19:56Z</time>
      </trkpt>
      <trkpt lat="43.14814" lon="3.14341">
        <ele>1.9</ele>
        <time>2021-07-20T08:19:57Z</time>
      </trkpt>
      <trkpt lat="43.14811" lon="3.14346">
        <ele>1.9</ele>
        <time>2021-07-20T08:19:58Z</time>
      </trkpt>
      <trkpt lat="43.14809" lon="3.14351">
        <ele>2</ele>
        <time>2021-07-20T08:19:59Z</time>
      </trkpt>
      <trkpt lat="43.14808" lon="3.14356">
        <ele>2.1</ele>
        <time>2021-07-20T08:20:00Z</time>
      </trkpt>
      <trkpt lat="43.14808" lon="3.14362">
        <ele>2.1</ele>
        <time>2021-07-20T08:20:01Z</time>
      </trkpt>
      <trkpt lat="43.14808" lon="3.14368">
        <ele>2.2</ele>
        <time>2021-07-20T08:20:02Z</time>
      </trkpt>
      <trkpt lat="43.14809" lon="3.14374">
        <ele>2.3</ele>
        <time>2021-07-20T08:20:03Z</time>
      </trkpt>
      <trkpt lat="43.1481" lon="3.14379">
        <ele>2.4</ele>
        <time>2021-07-20T08:20:04Z</time>
      </trkpt>
      <trkpt lat="43.14812" lon="3.14384">
        <ele>-1.3478012</ele>
        <time>2021-07-20T08:20:05Z</time>
      </trkpt>
      <trkpt lat="43.14814" lon="3.1439">
        <ele>2.6</ele>
        <time>2021-07-20T08:20:06Z</time>
      </trkpt>
      <trkpt lat="43.14816" lon="3.14395">
        <ele>2.7</ele>
        <time>2021-07-20T08:20:07Z</time>
      </trkpt>
      <trkpt lat="43.14819" lon="3.144">
        <ele>2.8</ele>
        <time>2021-07-20T08:20:08Z</time>
      </trkpt>
      <trkpt lat="43.14821" lon="3.14405">
        <ele>2.8</ele>
        <time>2021-07-20T08:20:09Z</time>
      </trkpt>
      <trkpt lat="43.14823" lon="3.1441">
        <ele>2.9</ele>
        <time>2021-07-20T08:20:10Z</time>
      </trkpt>
      <trkpt lat="43.14825" lon="3.14415">
        <ele>3</ele>
        <time>2021-07-20T08:20:11Z</time>
      </trkpt>
      <trkpt lat="43.14827" lon="3.1442">
        <ele>3</ele>
        <time>2021-07-20T08:20:12Z</time>
      </trkpt>
      <trkpt lat="43.1483" lon="3.14425">
        <ele>2.9</ele>
        <time>2021-07-20T08:20:13Z</time>
      </trkpt>
      <trkpt lat="43.14832" lon="3.1443">
        <ele>2.8</ele>
        <time>2021-07-20T08:20:14Z</time>
      </trkpt>
      <trkpt lat="43.14834" lon="3.14435">
        <ele>-1.0904821</ele>
        <time>2021-07-20T08:20:15Z</time>
      </trkpt>
      <trkpt lat="43.14836" lon="3.1444">
        <ele>2.9</ele>
        <time>2021-07-20T08:20:16Z</time>
      </trkpt>
      <trkpt lat="43.14838" lon="3.14446">
        <ele>3</ele>
        <time>2021-07-20T08:20:17Z</time>
      </trkpt>
      <trkpt lat="43.14841" lon="3.14451">
        <ele>3.1</ele>
        <time>2021-07-20T08:20:18Z</time>
      </trkpt>
      <trkpt lat="43.14843" lon="3.14456">
        <ele>3.2</ele>
        <time>2021-07-20T08:20:19Z</time>
      </trkpt>
      <trkpt lat="43.14846" lon="3.1446">
        <ele>3.4</ele>
        <time>2021-07-20T08:20:20Z</time>
      </trkpt>
      <trkpt lat="43.14848" lon="3.14464">
        <ele>3.6</ele>
        <time>2021-07-20T08:20:21Z</time>
      </trkpt>
      <trkpt lat="43.14852" lon="3.14467">
        <ele>3.9</ele>
        <time>2021-07-20T08:20:22Z</time>
      </trkpt>
      <trkpt lat="43.14855" lon="3.1447">
        <ele>4.2</ele>
        <time>2021-07-20T08:20:23Z</time>
      </trkpt>
      <trkpt lat="43.14859" lon="3.14472">
        <ele>4.5</ele>
        <time>2021-07-20T08:20:24Z</time>
      </trkpt>
      <trkpt lat="43.14862" lon="3.14475">
        <ele>4.8</ele>
        <time>2021-07-20T08:20:25Z</time>
      </trkpt>
      <trkpt lat="43.14866" lon="3.14477">
        <ele>-0.99502426</ele>
        <time>2021-07-20T08:20:26Z</time>
      </trkpt>
      <trkpt lat="43.1487" lon="3.14479">
        <ele>5.5</ele>
        <time>2021-07-20T08:20:27Z</time>
      </trkpt>
      <trkpt lat="43.14873" lon="3.14482">
        <ele>5.9</ele>
        <time>2021-07-20T08:20:28Z</time>
      </trkpt>
      <trkpt lat="43.14877" lon="3.14485">
        <ele>6.3</ele>
        <time>2021-07-20T08:20:29Z</time>
      </trkpt>
      <trkpt lat="43.1488" lon="3.14488">
        <ele>6.7</ele>
        <time>2021-07-20T08:20:30Z</time>
      </trkpt>
      <trkpt lat="43.14883" lon="3.14492">
        <ele>7.1</ele>
        <time>2021-07-20T08:20:31Z</time>
      </trkpt>
      <trkpt lat="43.14885" lon="3.14497">
        <ele>7.5</ele>
        <time>2021-07-20T08:20:32Z</time>
      </trkpt>
      <trkpt lat="43.14887" lon="3.14502">
        <ele>7.8</ele>
        <time>2021-07-20T08:20:33Z</time>
      </trkpt>
      <trkpt lat="43.14888" lon="3.14507">
        <ele>8</ele>
        <time>2021-07-20T08:20:34Z</time>
      </trkpt>
      <trkpt lat="43.1489" lon="3.14513">
        <ele>8.2</ele>
        <time>2021-07-20T08:20:35Z</time>
      </trkpt>
      <trkpt lat="43.14891" lon="3.14518">
        <ele>-1.2232924</ele>
        <time>2021-07-20T08:20:36Z</time>
      </trkpt>
      <trkpt lat="43.14893" lon="3.14524">
        <ele>8.5</ele>
        <time>2021-07-20T08:20:37Z</time>
      </trkpt>
      <trkpt lat="43.14894" lon="3.14529">
        <ele>8.6</ele>
        <time>2021-07-20T08:20:38Z</time>
      </trkpt>
      <trkpt lat="43.14895" lon="3.14534">
        <ele>8.8</ele>
        <time>2021-07-20T08:20:39Z</time>
      </trkpt>
      <trkpt lat="43.14896" lon="3.1454">
        <ele>8.9</ele>
        <time>2021-07-20T08:20:40Z</time>
      </trkpt>
      <trkpt lat="43.14898" lon="3.14545">
        <ele>9.1</ele>
        <time>2021-07-20T08:20:41Z</time>
      </trkpt>
      <trkpt lat="43.14899" lon="3.1455">
        <ele>9.2</ele>
        <time>2021-07-20T08:20:42Z</time>
      </trkpt>
      <trkpt lat="43.149" lon="3.14555">
        <ele>9.4</ele>
        <time>2021-07-20T08:20:43Z</time>
      </trkpt>
      <trkpt lat="43.14902" lon="3.1456">
        <ele>9.5</ele>
        <time>2021-07-20T08:20:44Z</time>
      </trkpt>
      <trkpt lat="43.14903" lon="3.14565">
        <ele>9.7</ele>
        <time>2021-07-20T08:20:45Z</time>
      </trkpt>
      <trkpt lat="43.14904" lon="3.1457">
        <ele>-0.99813706</ele>
        <time>2021-07-20T08:20:46Z</time>
      </trkpt>
      <trkpt lat="43.14906" lon="3.14575">
        <ele>10</ele>
        <time>2021-07-20T08:20:47Z</time>
      </trkpt>
      <trkpt lat="43.14907" lon="3.1458">
        <ele>10.1</ele>
        <time>2021-07-20T08:20:48Z</time>
      </trkpt>
      <trkpt lat="43.14909" lon="3.14586">
        <ele>10.1</ele>
        <time>2021-07-20T08:20:49Z</time>
      </trkpt>
      <trkpt lat="43.1491" lon="3.14591">
        <ele>9.9</ele>
        <time>2021-07-20T08:20:50Z</time>
      </trkpt>
      <trkpt lat="43.14912" lon="3.14596">
        <ele>9.8</ele>
        <time>2021-07-20T08:20:51Z</time>
      </trkpt>
      <trkpt lat="43.14914" lon="3.14601">
        <ele>9.7</ele>
        <time>2021-07-20T08:20:52Z</time>
      </trkpt>
      <trkpt lat="43.14916" lon="3.14606">
        <ele>9.5</ele>
        <time>2021-07-20T08:20:53Z</time>
      </trkpt>
      <trkpt lat="43.14917" lon="3.14611">
        <ele>9.4</ele>
        <time>2021-07-20T08:20:54Z</time>
      </trkpt>
      <trkpt lat="43.14919" lon="3.14616">
        <ele>9.4</ele>
        <time>2021-07-20T08:20:55Z</time>
      </trkpt>
      <trkpt lat="43.14922" lon="3.14621">
        <ele>-1.0977452</ele>
        <time>2021-07-20T08:20:56Z</time>
      </trkpt>
      <trkpt lat="43.14924" lon="3.14626">
        <ele>9.6</ele>
        <time>2021-07-20T08:20:57Z</time>
      </trkpt>
      <trkpt lat="43.14927" lon="3.14631">
        <ele>9.7</ele>
        <time>2021-07-20T08:20:58Z</time>
      </trkpt>
      <trkpt lat="43.14929" lon="3.14636">
        <ele>9.7</ele>
        <time>2021-07-20T08:20:59Z</time>
      </trkpt>
      <trkpt lat="43.14932" lon="3.1464">
        <ele>9.8</ele>
        <time>2021-07-20T08:21:00Z</time>
      </trkpt>
      <trkpt lat="43.14934" lon="3.14645">
        <ele>9.9</ele>
        <time>2021-07-20T08:21:01Z</time>
      </trkpt>
      <trkpt lat="43.14936" lon="3.14649">
        <ele>9.9</ele>
        <time>2021-07-20T08:21:02Z</time>
      </trkpt>
      <trkpt lat="43.14938" lon="3.14653">
        <ele>10</ele>
        <time>2021-07-20T08:21:03Z</time>
      </trkpt>
      <trkpt lat="43.1494" lon="3.14657">
        <ele>10.1</ele>
        <time>2021-07-20T08:21:04Z</time>
      </trkpt>
      <trkpt lat="43.14943" lon="3.14661">
        <ele>10.1</ele>
        <time>2021-07-20T08:21:05Z</time>
      </trkpt>
      <trkpt lat="43.14945" lon="3.14666">
        <ele>-1.1216096</ele>
        <time>2021-07-20T08:21:06Z</time>
      </trkpt>
      <trkpt lat="43.14948" lon="3.1467">
        <ele>10.2</ele>
        <time>2021-07-20T08:21:07Z</time>
      </trkpt>
      <trkpt lat="43.1495" lon="3.14675">
        <ele>10.3</ele>
        <time>2021-07-20T08:21:08Z</time>
      </trkpt>
      <trkpt lat="43.14953" lon="3.14679">
        <ele>10.4</ele>
        <time>2021-07-20T08:21:09Z</time>
      </trkpt>
      <trkpt lat="43.14955" lon="3.14683">
        <ele>10.4</ele>
        <time>2021-07-20T08:21:10Z</time>
      </trkpt>
      <trkpt lat="43.14958" lon="3.14688">
        <ele>10.5</ele>
        <time>2021-07-20T08:21:11Z</time>
      </trkpt>
      <trkpt lat="43.14961" lon="3.14692">
        <ele>10.5</ele>
        <time>2021-07-20T08:21:12Z</time>
      </trkpt>
      <trkpt lat="43.14964" lon="3.14696">
        <ele>10.4</ele>
        <time>2021-07-20T08:21:13Z</time>
      </trkpt>
      <trkpt lat="43.14967" lon="3.147">
        <ele>10.4</ele>
        <time>2021-07-20T08:21:14Z</time>
      </trkpt>
      <trkpt lat="43.1497" lon="3.14705">
        <ele>10.4</ele>
        <time>2021-07-20T08:21:15Z</time>
      </trkpt>
      <trkpt lat="43.14972" lon="3.14709">
        <ele>-0.73355085</ele>
        <time>2021-07-20T08:21:16Z</time>
      </trkpt>
      <trkpt lat="43.14975" lon="3.14714">
        <ele>10.1</ele>
        <time>2021-07-20T08:21:17Z</time>
      </trkpt>
      <trkpt lat="43.14978" lon="3.14718">
        <ele>10</ele>
        <time>2021-07-20T08:21:18Z</time>
      </trkpt>
      <trkpt lat="43.14981" lon="3.14722">
        <ele>9.8</ele>
        <time>2021-07-20T08:21:19Z</time>
      </trkpt>
      <trkpt lat="43.14984" lon="3.14726">
        <ele>9.6</ele>
        <time>2021-07-20T08:21:20Z</time>
      </trkpt>
      <trkpt lat="43.14987" lon="3.14731">
        <ele>9.4</ele>
        <time>2021-07-20T08:21:21Z</time>
      </trkpt>
      <trkpt lat="43.1499" lon="3.14735">
        <ele>9.1</ele>
        <time>2021-07-20T08:21:22Z</time>
      </trkpt>
      <trkpt lat="43.14993" lon="3.1474">
        <ele>8.8</ele>
        <time>2021-07-20T08:21:23Z</time>
      </trkpt>
      <trkpt lat="43.14995" lon="3.14744">
        <ele>8.5</ele>
        <time>2021-07-20T08:21:24Z</time>
      </trkpt>
      <trkpt lat="43.14998" lon="3.14748">
        <ele>-0.694122</ele>
        <time>2021-07-20T08:21:25Z</time>
      </trkpt>
      <trkpt lat="43.15001" lon="3.14753">
        <ele>8.1</ele>
        <time>2021-07-20T08:21:26Z</time>
      </trkpt>
      <trkpt lat="43.15004" lon="3.14757">
        <ele>8.3</ele>
        <time>2021-07-20T08:21:27Z</time>
      </trkpt>
      <trkpt lat="43.15007" lon="3.14761">
        <ele>8.7</ele>
        <time>2021-07-20T08:21:28Z</time>
      </trkpt>
      <trkpt lat="43.15009" lon="3.14765">
        <ele>8.9</ele>
        <time>2021-07-20T08:21:29Z</time>
      </trkpt>
      <trkpt lat="43.15012" lon="3.1477">
        <ele>9.2</ele>
        <time>2021-07-20T08:21:30Z</time>
      </trkpt>
      <trkpt lat="43.15015" lon="3.14774">
        <ele>9.4</ele>
        <time>2021-07-20T08:21:31Z</time>
      </trkpt>
      <trkpt lat="43.15018" lon="3.14778">
        <ele>9.6</ele>
        <time>2021-07-20T08:21:32Z</time>
      </trkpt>
      <trkpt lat="43.1502" lon="3.14782">
        <ele>9.8</ele>
        <time>2021-07-20T08:21:33Z</time>
      </trkpt>
      <trkpt lat="43.15023" lon="3.14787">
        <ele>9.9</ele>
        <time>2021-07-20T08:21:34Z</time>
      </trkpt>
      <trkpt lat="43.15026" lon="3.14792">
        <ele>-0.8559872</ele>
        <time>2021-07-20T08:21:35Z</time>
      </trkpt>
      <trkpt lat="43.15028" lon="3.14796">
        <ele>10.2</ele>
        <time>2021-07-20T08:21:36Z</time>
      </trkpt>
      <trkpt lat="43.15031" lon="3.148">
        <ele>10.3</ele>
        <time>2021-07-20T08:21:37Z</time>
      </trkpt>
      <trkpt lat="43.15034" lon="3.14805">
        <ele>10.4</ele>
        <time>2021-07-20T08:21:39Z</time>
      </trkpt>
      <trkpt lat="43.15036" lon="3.14809">
        <ele>10.4</ele>
        <time>2021-07-20T08:21:40Z</time>
      </trkpt>
      <trkpt lat="43.15039" lon="3.14814">
        <ele>10.5</ele>
        <time>2021-07-20T08:21:41Z</time>
      </trkpt>
      <trkpt lat="43.15042" lon="3.14818">
        <ele>10.5</ele>
        <time>2021-07-20T08:21:42Z</time>
      </trkpt>
      <trkpt lat="43.15045" lon="3.14823">
        <ele>10.6</ele>
        <time>2021-07-20T08:21:43Z</time>
      </trkpt>
      <trkpt lat="43.15048" lon="3.14827">
        <ele>10.6</ele>
        <time>2021-07-20T08:21:44Z</time>
      </trkpt>
      <trkpt lat="43.15051" lon="3.14832">
        <ele>-0.8248594</ele>
        <time>2021-07-20T08:21:45Z</time>
      </trkpt>
      <trkpt lat="43.15053" lon="3.14836">
        <ele>10.6</ele>
        <time>2021-07-20T08:21:46Z</time>
      </trkpt>
      <trkpt lat="43.15056" lon="3.1484">
        <ele>10.6</ele>
        <time>2021-07-20T08:21:47Z</time>
      </trkpt>
      <trkpt lat="43.15058" lon="3.14845">
        <ele>10.6</ele>
        <time>2021-07-20T08:21:48Z</time>
      </trkpt>
      <trkpt lat="43.15061" lon="3.14849">
        <ele>10.6</ele>
        <time>2021-07-20T08:21:49Z</time>
      </trkpt>
      <trkpt lat="43.15064" lon="3.14854">
        <ele>10.6</ele>
        <time>2021-07-20T08:21:50Z</time>
      </trkpt>
      <trkpt lat="43.15066" lon="3.14858">
        <ele>10.6</ele>
        <time>2021-07-20T08:21:51Z</time>
      </trkpt>
      <trkpt lat="43.15069" lon="3.14862">
        <ele>10.6</ele>
        <time>2021-07-20T08:21:52Z</time>
      </trkpt>
      <trkpt lat="43.15072" lon="3.14866">
        <ele>10.6</ele>
        <time>2021-07-20T08:21:53Z</time>
      </trkpt>
      <trkpt lat="43.15074" lon="3.1487">
        <ele>10.5</ele>
        <time>2021-07-20T08:21:54Z</time>
      </trkpt>
      <trkpt lat="43.15076" lon="3.14874">
        <ele>-0.7553404</ele>
        <time>2021-07-20T08:21:55Z</time>
      </trkpt>
      <trkpt lat="43.15079" lon="3.14878">
        <ele>10.4</ele>
        <time>2021-07-20T08:21:56Z</time>
      </trkpt>
      <trkpt lat="43.15081" lon="3.14881">
        <ele>10.4</ele>
        <time>2021-07-20T08:21:57Z</time>
      </trkpt>
      <trkpt lat="43.15084" lon="3.14885">
        <ele>10.3</ele>
        <time>2021-07-20T08:21:58Z</time>
      </trkpt>
      <trkpt lat="43.15086" lon="3.14889">
        <ele>10.2</ele>
        <time>2021-07-20T08:21:59Z</time>
      </trkpt>
      <trkpt lat="43.15089" lon="3.14892">
        <ele>10.2</ele>
        <time>2021-07-20T08:22:00Z</time>
      </trkpt>
      <trkpt lat="43.15091" lon="3.14896">
        <ele>10.1</ele>
        <time>2021-07-20T08:22:01Z</time>
      </trkpt>
      <trkpt lat="43.15094" lon="3.149">
        <ele>10.1</ele>
        <time>2021-07-20T08:22:02Z</time>
      </trkpt>
      <trkpt lat="43.15096" lon="3.14903">
        <ele>10</ele>
        <time>2021-07-20T08:22:03Z</time>
      </trkpt>
      <trkpt lat="43.15099" lon="3.14907">
        <ele>9.9</ele>
        <time>2021-07-20T08:22:04Z</time>
      </trkpt>
      <trkpt lat="43.15101" lon="3.14911">
        <ele>9.7</ele>
        <time>2021-07-20T08:22:05Z</time>
      </trkpt>
      <trkpt lat="43.15103" lon="3.14914">
        <ele>-0.568572</ele>
        <time>2021-07-20T08:22:06Z</time>
      </trkpt>
      <trkpt lat="43.15105" lon="3.14917">
        <ele>9.5</ele>
        <time>2021-07-20T08:22:07Z</time>
      </trkpt>
      <trkpt lat="43.15108" lon="3.14922">
        <ele>9.5</ele>
        <time>2021-07-20T08:22:08Z</time>
      </trkpt>
      <trkpt lat="43.15111" lon="3.14926">
        <ele>9.5</ele>
        <time>2021-07-20T08:22:09Z</time>
      </trkpt>
      <trkpt lat="43.15114" lon="3.14929">
        <ele>9.5</ele>
        <time>2021-07-20T08:22:10Z</time>
      </trkpt>
      <trkpt lat="43.15117" lon="3.14933">
        <ele>9.5</ele>
        <time>2021-07-20T08:22:11Z</time>
      </trkpt>
      <trkpt lat="43.15119" lon="3.14935">
        <ele>9.5</ele>
        <time>2021-07-20T08:22:12Z</time>
      </trkpt>
      <trkpt lat="43.15121" lon="3.14938">
        <ele>9.3</ele>
        <time>2021-07-20T08:22:13Z</time>
      </trkpt>
      <trkpt lat="43.15124" lon="3.14943">
        <ele>9.2</ele>
        <time>2021-07-20T08:22:14Z</time>
      </trkpt>
      <trkpt lat="43.15127" lon="3.14947">
        <ele>9</ele>
        <time>2021-07-20T08:22:15Z</time>
      </trkpt>
      <trkpt lat="43.1513" lon="3.14951">
        <ele>-0.43783322</ele>
        <time>2021-07-20T08:22:16Z</time>
      </trkpt>
      <trkpt lat="43.15132" lon="3.14955">
        <ele>8.7</ele>
        <time>2021-07-20T08:22:17Z</time>
      </trkpt>
      <trkpt lat="43.15134" lon="3.14959">
        <ele>8.5</ele>
        <time>2021-07-20T08:22:18Z</time>
      </trkpt>
      <trkpt lat="43.15136" lon="3.14961">
        <ele>8.4</ele>
        <time>2021-07-20T08:22:19Z</time>
      </trkpt>
      <trkpt lat="43.15139" lon="3.14963">
        <ele>8.3</ele>
        <time>2021-07-20T08:22:20Z</time>
      </trkpt>
      <trkpt lat="43.15142" lon="3.14964">
        <ele>8.3</ele>
        <time>2021-07-20T08:22:21Z</time>
      </trkpt>
      <trkpt lat="43.15146" lon="3.14965">
        <ele>8.3</ele>
        <time>2021-07-20T08:22:22Z</time>
      </trkpt>
      <trkpt lat="43.15149" lon="3.14965">
        <ele>8.4</ele>
        <time>2021-07-20T08:22:23Z</time>
      </trkpt>
      <trkpt lat="43.15151" lon="3.14965">
        <ele>8.4</ele>
        <time>2021-07-20T08:22:24Z</time>
      </trkpt>
      <trkpt lat="43.15154" lon="3.14964">
        <ele>8.6</ele>
        <time>2021-07-20T08:22:25Z</time>
      </trkpt>
      <trkpt lat="43.15156" lon="3.14963">
        <ele>-0.21993363</ele>
        <time>2021-07-20T08:22:26Z</time>
      </trkpt>
      <trkpt lat="43.15158" lon="3.14963">
        <ele>8.8</ele>
        <time>2021-07-20T08:22:27Z</time>
      </trkpt>
      <trkpt lat="43.1516" lon="3.14962">
        <ele>8.9</ele>
        <time>2021-07-20T08:22:28Z</time>
      </trkpt>
      <trkpt lat="43.15161" lon="3.14962">
        <ele>8.9</ele>
        <time>2021-07-20T08:22:29Z</time>
      </trkpt>
      <trkpt lat="43.15161" lon="3.14962">
        <ele>8.9</ele>
        <time>2021-07-20T08:22:30Z</time>
      </trkpt>
      <trkpt lat="43.15161" lon="3.14962">
        <ele>8.9</ele>
        <time>2021-07-20T08:22:31Z</time>
      </trkpt>
      <trkpt lat="43.15161" lon="3.14962">
        <ele>8.9</ele>
        <time>2021-07-20T08:22:32Z</time>
      </trkpt>
      <trkpt lat="43.15161" lon="3.14962">
        <ele>8.9</ele>
        <time>2021-07-20T08:22:33Z</time>
      </trkpt>
      <trkpt lat="43.15161" lon="3.14962">
        <ele>8.9</ele>
        <time>2021-07-20T08:22:34Z</time>
      </trkpt>
      <trkpt lat="43.15161" lon="3.14962">
        <ele>8.9</ele>
        <time>2021-07-20T08:22:35Z</time>
      </trkpt>
      <trkpt lat="43.15161" lon="3.14962">
        <ele>-0.3745388</ele>
        <time>2021-07-20T08:22:36Z</time>
      </trkpt>
      <trkpt lat="43.15161" lon="3.14962">
        <ele>8.9</ele>
        <time>2021-07-20T08:22:37Z</time>
      </trkpt>
      <trkpt lat="43.15165" lon="3.14961">
        <ele>9.1</ele>
        <time>2021-07-20T08:22:38Z</time>
      </trkpt>
      <trkpt lat="43.15168" lon="3.14961">
        <ele>9.2</ele>
        <time>2021-07-20T08:22:39Z</time>
      </trkpt>
      <trkpt lat="43.15171" lon="3.1496">
        <ele>9.4</ele>
        <time>2021-07-20T08:22:40Z</time>
      </trkpt>
      <trkpt lat="43.15175" lon="3.1496">
        <ele>9.5</ele>
        <time>2021-07-20T08:22:41Z</time>
      </trkpt>
      <trkpt lat="43.15178" lon="3.1496">
        <ele>9.6</ele>
        <time>2021-07-20T08:22:42Z</time>
      </trkpt>
      <trkpt lat="43.15181" lon="3.1496">
        <ele>9.7</ele>
        <time>2021-07-20T08:22:43Z</time>
      </trkpt>
      <trkpt lat="43.15184" lon="3.14959">
        <ele>9.8</ele>
        <time>2021-07-20T08:22:44Z</time>
      </trkpt>
      <trkpt lat="43.15188" lon="3.14958">
        <ele>10</ele>
        <time>2021-07-20T08:22:45Z</time>
      </trkpt>
      <trkpt lat="43.15192" lon="3.14958">
        <ele>-0.23446032</ele>
        <time>2021-07-20T08:22:46Z</time>
      </trkpt>
      <trkpt lat="43.15196" lon="3.14957">
        <ele>10.3</ele>
        <time>2021-07-20T08:22:47Z</time>
      </trkpt>
      <trkpt lat="43.152" lon="3.14957">
        <ele>10.4</ele>
        <time>2021-07-20T08:22:48Z</time>
      </trkpt>
      <trkpt lat="43.15204" lon="3.14956">
        <ele>10.5</ele>
        <time>2021-07-20T08:22:49Z</time>
      </trkpt>
      <trkpt lat="43.15208" lon="3.14955">
        <ele>10.7</ele>
        <time>2021-07-20T08:22:50Z</time>
      </trkpt>
      <trkpt lat="43.15212" lon="3.14953">
        <ele>10.9</ele>
        <time>2021-07-20T08:22:51Z</time>
      </trkpt>
      <trkpt lat="43.15216" lon="3.14951">
        <ele>11.1</ele>
        <time>2021-07-20T08:22:52Z</time>
      </trkpt>
      <trkpt lat="43.1522" lon="3.14949">
        <ele>11.2</ele>
        <time>2021-07-20T08:22:53Z</time>
      </trkpt>
      <trkpt lat="43.15224" lon="3.14947">
        <ele>11.3</ele>
        <time>2021-07-20T08:22:54Z</time>
      </trkpt>
      <trkpt lat="43.15227" lon="3.14946">
        <ele>11.4</ele>
        <time>2021-07-20T08:22:55Z</time>
      </trkpt>
      <trkpt lat="43.1523" lon="3.14946">
        <ele>0.0965433</ele>
        <time>2021-07-20T08:22:56Z</time>
      </trkpt>
      <trkpt lat="43.15233" lon="3.14945">
        <ele>11.5</ele>
        <time>2021-07-20T08:22:57Z</time>
      </trkpt>
      <trkpt lat="43.15235" lon="3.14947">
        <ele>11.5</ele>
        <time>2021-07-20T08:22:58Z</time>
      </trkpt>
      <trkpt lat="43.15237" lon="3.1495">
        <ele>11.4</ele>
        <time>2021-07-20T08:22:59Z</time>
      </trkpt>
      <trkpt lat="43.15239" lon="3.14954">
        <ele>11.4</ele>
        <time>2021-07-20T08:23:00Z</time>
      </trkpt>
      <trkpt lat="43.15241" lon="3.14959">
        <ele>11.3</ele>
        <time>2021-07-20T08:23:01Z</time>
      </trkpt>
      <trkpt lat="43.15241" lon="3.14965">
        <ele>11.1</ele>
        <time>2021-07-20T08:23:02Z</time>
      </trkpt>
      <trkpt lat="43.15239" lon="3.14972">
        <ele>10.9</ele>
        <time>2021-07-20T08:23:03Z</time>
      </trkpt>
      <trkpt lat="43.15237" lon="3.14979">
        <ele>10.6</ele>
        <time>2021-07-20T08:23:04Z</time>
      </trkpt>
      <trkpt lat="43.15236" lon="3.14988">
        <ele>0.5396183</ele>
        <time>2021-07-20T08:23:05Z</time>
      </trkpt>
      <trkpt lat="43.15236" lon="3.14996">
        <ele>10.1</ele>
        <time>2021-07-20T08:23:06Z</time>
      </trkpt>
      <trkpt lat="43.15235" lon="3.15003">
        <ele>9.8</ele>
        <time>2021-07-20T08:23:07Z</time>
      </trkpt>
      <trkpt lat="43.15235" lon="3.15009">
        <ele>9.6</ele>
        <time>2021-07-20T08:23:08Z</time>
      </trkpt>
      <trkpt lat="43.15235" lon="3.15015">
        <ele>9.4</ele>
        <time>2021-07-20T08:23:09Z</time>
      </trkpt>
      <trkpt lat="43.15236" lon="3.15022">
        <ele>9.3</ele>
        <time>2021-07-20T08:23:10Z</time>
      </trkpt>
      <trkpt lat="43.15236" lon="3.15027">
        <ele>9.1</ele>
        <time>2021-07-20T08:23:11Z</time>
      </trkpt>
      <trkpt lat="43.15237" lon="3.15033">
        <ele>9</ele>
        <time>2021-07-20T08:23:12Z</time>
      </trkpt>
      <trkpt lat="43.15237" lon="3.15039">
        <ele>8.8</ele>
        <time>2021-07-20T08:23:13Z</time>
      </trkpt>
      <trkpt lat="43.15238" lon="3.15045">
        <ele>8.7</ele>
        <time>2021-07-20T08:23:14Z</time>
      </trkpt>
      <trkpt lat="43.15239" lon="3.15051">
        <ele>0.033247564</ele>
        <time>2021-07-20T08:23:15Z</time>
      </trkpt>
      <trkpt lat="43.15241" lon="3.15056">
        <ele>8.5</ele>
        <time>2021-07-20T08:23:16Z</time>
      </trkpt>
      <trkpt lat="43.15243" lon="3.15061">
        <ele>8.4</ele>
        <time>2021-07-20T08:23:17Z</time>
      </trkpt>
      <trkpt lat="43.15245" lon="3.15066">
        <ele>8.4</ele>
        <time>2021-07-20T08:23:18Z</time>
      </trkpt>
      <trkpt lat="43.15247" lon="3.15071">
        <ele>8.3</ele>
        <time>2021-07-20T08:23:19Z</time>
      </trkpt>
      <trkpt lat="43.1525" lon="3.15076">
        <ele>8.3</ele>
        <time>2021-07-20T08:23:20Z</time>
      </trkpt>
      <trkpt lat="43.15253" lon="3.1508">
        <ele>8.7</ele>
        <time>2021-07-20T08:23:21Z</time>
      </trkpt>
      <trkpt lat="43.15256" lon="3.15084">
        <ele>9.1</ele>
        <time>2021-07-20T08:23:22Z</time>
      </trkpt>
      <trkpt lat="43.15259" lon="3.15087">
        <ele>9.5</ele>
        <time>2021-07-20T08:23:23Z</time>
      </trkpt>
      <trkpt lat="43.15263" lon="3.1509">
        <ele>10</ele>
        <time>2021-07-20T08:23:24Z</time>
      </trkpt>
      <trkpt lat="43.15266" lon="3.15094">
        <ele>-0.56130874</ele>
        <time>2021-07-20T08:23:25Z</time>
      </trkpt>
      <trkpt lat="43.1527" lon="3.15097">
        <ele>10.9</ele>
        <time>2021-07-20T08:23:26Z</time>
      </trkpt>
      <trkpt lat="43.15273" lon="3.151">
        <ele>11.3</ele>
        <time>2021-07-20T08:23:27Z</time>
      </trkpt>
      <trkpt lat="43.15277" lon="3.15104">
        <ele>11.7</ele>
        <time>2021-07-20T08:23:28Z</time>
      </trkpt>
      <trkpt lat="43.1528" lon="3.15107">
        <ele>12</ele>
        <time>2021-07-20T08:23:29Z</time>
      </trkpt>
      <trkpt lat="43.15284" lon="3.15111">
        <ele>12.3</ele>
        <time>2021-07-20T08:23:30Z</time>
      </trkpt>
      <trkpt lat="43.15287" lon="3.15115">
        <ele>12.5</ele>
        <time>2021-07-20T08:23:31Z</time>
      </trkpt>
      <trkpt lat="43.1529" lon="3.1512">
        <ele>12.6</ele>
        <time>2021-07-20T08:23:32Z</time>
      </trkpt>
      <trkpt lat="43.15293" lon="3.15125">
        <ele>12.7</ele>
        <time>2021-07-20T08:23:33Z</time>
      </trkpt>
      <trkpt lat="43.15296" lon="3.1513">
        <ele>12.7</ele>
        <time>2021-07-20T08:23:34Z</time>
      </trkpt>
      <trkpt lat="43.15298" lon="3.15136">
        <ele>-0.89749086</ele>
        <time>2021-07-20T08:23:35Z</time>
      </trkpt>
      <trkpt lat="43.153" lon="3.15143">
        <ele>12.3</ele>
        <time>2021-07-20T08:23:36Z</time>
      </trkpt>
      <trkpt lat="43.15303" lon="3.15149">
        <ele>12.1</ele>
        <time>2021-07-20T08:23:37Z</time>
      </trkpt>
      <trkpt lat="43.15305" lon="3.15155">
        <ele>11.8</ele>
        <time>2021-07-20T08:23:38Z</time>
      </trkpt>
      <trkpt lat="43.15307" lon="3.15161">
        <ele>11.5</ele>
        <time>2021-07-20T08:23:39Z</time>
      </trkpt>
      <trkpt lat="43.15309" lon="3.15167">
        <ele>11.2</ele>
        <time>2021-07-20T08:23:40Z</time>
      </trkpt>
      <trkpt lat="43.15311" lon="3.15173">
        <ele>11.1</ele>
        <time>2021-07-20T08:23:41Z</time>
      </trkpt>
      <trkpt lat="43.15313" lon="3.15179">
        <ele>11</ele>
        <time>2021-07-20T08:23:42Z</time>
      </trkpt>
      <trkpt lat="43.15314" lon="3.15184">
        <ele>10.9</ele>
        <time>2021-07-20T08:23:43Z</time>
      </trkpt>
      <trkpt lat="43.15316" lon="3.1519">
        <ele>10.8</ele>
        <time>2021-07-20T08:23:44Z</time>
      </trkpt>
      <trkpt lat="43.15317" lon="3.15195">
        <ele>10.6</ele>
        <time>2021-07-20T08:23:45Z</time>
      </trkpt>
      <trkpt lat="43.15319" lon="3.152">
        <ele>-0.43887085</ele>
        <time>2021-07-20T08:23:46Z</time>
      </trkpt>
      <trkpt lat="43.15321" lon="3.15204">
        <ele>10.4</ele>
        <time>2021-07-20T08:23:47Z</time>
      </trkpt>
      <trkpt lat="43.15322" lon="3.15209">
        <ele>10.2</ele>
        <time>2021-07-20T08:23:48Z</time>
      </trkpt>
      <trkpt lat="43.15323" lon="3.15214">
        <ele>10</ele>
        <time>2021-07-20T08:23:49Z</time>
      </trkpt>
      <trkpt lat="43.15325" lon="3.1522">
        <ele>9.8</ele>
        <time>2021-07-20T08:23:50Z</time>
      </trkpt>
      <trkpt lat="43.15326" lon="3.15225">
        <ele>9.5</ele>
        <time>2021-07-20T08:23:51Z</time>
      </trkpt>
      <trkpt lat="43.15328" lon="3.15229">
        <ele>9.3</ele>
        <time>2021-07-20T08:23:52Z</time>
      </trkpt>
      <trkpt lat="43.1533" lon="3.15234">
        <ele>9.1</ele>
        <time>2021-07-20T08:23:53Z</time>
      </trkpt>
      <trkpt lat="43.1533" lon="3.15237">
        <ele>8.8</ele>
        <time>2021-07-20T08:23:54Z</time>
      </trkpt>
      <trkpt lat="43.15331" lon="3.15238">
        <ele>8.8</ele>
        <time>2021-07-20T08:23:55Z</time>
      </trkpt>
      <trkpt lat="43.15331" lon="3.15238">
        <ele>-0.88711494</ele>
        <time>2021-07-20T08:23:56Z</time>
      </trkpt>
      <trkpt lat="43.15331" lon="3.15239">
        <ele>8.8</ele>
        <time>2021-07-20T08:23:57Z</time>
      </trkpt>
      <trkpt lat="43.15331" lon="3.1524">
        <ele>8.7</ele>
        <time>2021-07-20T08:23:58Z</time>
      </trkpt>
      <trkpt lat="43.15331" lon="3.15241">
        <ele>8.6</ele>
        <time>2021-07-20T08:23:59Z</time>
      </trkpt>
      <trkpt lat="43.15332" lon="3.15242">
        <ele>8.6</ele>
        <time>2021-07-20T08:24:00Z</time>
      </trkpt>
      <trkpt lat="43.15332" lon="3.15242">
        <ele>8.6</ele>
        <time>2021-07-20T08:24:01Z</time>
      </trkpt>
      <trkpt lat="43.15333" lon="3.15243">
        <ele>8.5</ele>
        <time>2021-07-20T08:24:02Z</time>
      </trkpt>
      <trkpt lat="43.15334" lon="3.15244">
        <ele>8.6</ele>
        <time>2021-07-20T08:24:03Z</time>
      </trkpt>
      <trkpt lat="43.15335" lon="3.15246">
        <ele>8.6</ele>
        <time>2021-07-20T08:24:04Z</time>
      </trkpt>
      <trkpt lat="43.15336" lon="3.15247">
        <ele>8.6</ele>
        <time>2021-07-20T08:24:05Z</time>
      </trkpt>
      <trkpt lat="43.15337" lon="3.15249">
        <ele>-1.5003237</ele>
        <time>2021-07-20T08:24:06Z</time>
      </trkpt>
      <trkpt lat="43.15338" lon="3.15251">
        <ele>8.6</ele>
        <time>2021-07-20T08:24:07Z</time>
      </trkpt>
      <trkpt lat="43.15339" lon="3.15254">
        <ele>8.6</ele>
        <time>2021-07-20T08:24:08Z</time>
      </trkpt>
      <trkpt lat="43.15339" lon="3.15257">
        <ele>8.5</ele>
        <time>2021-07-20T08:24:09Z</time>
      </trkpt>
      <trkpt lat="43.1534" lon="3.1526">
        <ele>8.4</ele>
        <time>2021-07-20T08:24:10Z</time>
      </trkpt>
      <trkpt lat="43.15342" lon="3.15263">
        <ele>8.5</ele>
        <time>2021-07-20T08:24:11Z</time>
      </trkpt>
      <trkpt lat="43.15343" lon="3.15266">
        <ele>8.5</ele>
        <time>2021-07-20T08:24:12Z</time>
      </trkpt>
      <trkpt lat="43.15345" lon="3.15269">
        <ele>8.6</ele>
        <time>2021-07-20T08:24:13Z</time>
      </trkpt>
      <trkpt lat="43.15347" lon="3.15272">
        <ele>8.7</ele>
        <time>2021-07-20T08:24:14Z</time>
      </trkpt>
      <trkpt lat="43.15348" lon="3.15276">
        <ele>8.7</ele>
        <time>2021-07-20T08:24:15Z</time>
      </trkpt>
      <trkpt lat="43.1535" lon="3.15279">
        <ele>-1.3312</ele>
        <time>2021-07-20T08:24:16Z</time>
      </trkpt>
      <trkpt lat="43.15352" lon="3.15282">
        <ele>8.9</ele>
        <time>2021-07-20T08:24:17Z</time>
      </trkpt>
      <trkpt lat="43.15353" lon="3.15285">
        <ele>9</ele>
        <time>2021-07-20T08:24:18Z</time>
      </trkpt>
      <trkpt lat="43.15356" lon="3.15288">
        <ele>9.2</ele>
        <time>2021-07-20T08:24:19Z</time>
      </trkpt>
      <trkpt lat="43.15358" lon="3.1529">
        <ele>9.4</ele>
        <time>2021-07-20T08:24:20Z</time>
      </trkpt>
      <trkpt lat="43.1536" lon="3.15293">
        <ele>9.6</ele>
        <time>2021-07-20T08:24:21Z</time>
      </trkpt>
      <trkpt lat="43.15362" lon="3.15296">
        <ele>9.7</ele>
        <time>2021-07-20T08:24:22Z</time>
      </trkpt>
      <trkpt lat="43.15365" lon="3.15299">
        <ele>9.9</ele>
        <time>2021-07-20T08:24:23Z</time>
      </trkpt>
      <trkpt lat="43.15367" lon="3.15302">
        <ele>10.1</ele>
        <time>2021-07-20T08:24:24Z</time>
      </trkpt>
      <trkpt lat="43.15369" lon="3.15304">
        <ele>10.3</ele>
        <time>2021-07-20T08:24:25Z</time>
      </trkpt>
      <trkpt lat="43.15372" lon="3.15308">
        <ele>-1.4463702</ele>
        <time>2021-07-20T08:24:26Z</time>
      </trkpt>
      <trkpt lat="43.15374" lon="3.1531">
        <ele>10.8</ele>
        <time>2021-07-20T08:24:27Z</time>
      </trkpt>
      <trkpt lat="43.15377" lon="3.15313">
        <ele>11.1</ele>
        <time>2021-07-20T08:24:28Z</time>
      </trkpt>
      <trkpt lat="43.1538" lon="3.15317">
        <ele>11.3</ele>
        <time>2021-07-20T08:24:29Z</time>
      </trkpt>
      <trkpt lat="43.15382" lon="3.15321">
        <ele>11.4</ele>
        <time>2021-07-20T08:24:30Z</time>
      </trkpt>
      <trkpt lat="43.15385" lon="3.15324">
        <ele>11.6</ele>
        <time>2021-07-20T08:24:31Z</time>
      </trkpt>
      <trkpt lat="43.15388" lon="3.15327">
        <ele>11.9</ele>
        <time>2021-07-20T08:24:32Z</time>
      </trkpt>
      <trkpt lat="43.1539" lon="3.1533">
        <ele>12.1</ele>
        <time>2021-07-20T08:24:33Z</time>
      </trkpt>
      <trkpt lat="43.15393" lon="3.15334">
        <ele>12.3</ele>
        <time>2021-07-20T08:24:34Z</time>
      </trkpt>
      <trkpt lat="43.15396" lon="3.15337">
        <ele>12.4</ele>
        <time>2021-07-20T08:24:35Z</time>
      </trkpt>
      <trkpt lat="43.15398" lon="3.1534">
        <ele>-1.2959226</ele>
        <time>2021-07-20T08:24:36Z</time>
      </trkpt>
      <trkpt lat="43.15401" lon="3.15344">
        <ele>12.5</ele>
        <time>2021-07-20T08:24:37Z</time>
      </trkpt>
      <trkpt lat="43.15404" lon="3.15348">
        <ele>12.5</ele>
        <time>2021-07-20T08:24:38Z</time>
      </trkpt>
      <trkpt lat="43.15406" lon="3.15351">
        <ele>12.5</ele>
        <time>2021-07-20T08:24:39Z</time>
      </trkpt>
      <trkpt lat="43.1541" lon="3.15355">
        <ele>12.5</ele>
        <time>2021-07-20T08:24:40Z</time>
      </trkpt>
      <trkpt lat="43.15412" lon="3.15359">
        <ele>12.4</ele>
        <time>2021-07-20T08:24:41Z</time>
      </trkpt>
      <trkpt lat="43.15415" lon="3.15363">
        <ele>12.3</ele>
        <time>2021-07-20T08:24:42Z</time>
      </trkpt>
      <trkpt lat="43.15418" lon="3.15367">
        <ele>12.1</ele>
        <time>2021-07-20T08:24:43Z</time>
      </trkpt>
      <trkpt lat="43.15421" lon="3.15371">
        <ele>11.9</ele>
        <time>2021-07-20T08:24:44Z</time>
      </trkpt>
      <trkpt lat="43.15424" lon="3.15376">
        <ele>-1.2336681</ele>
        <time>2021-07-20T08:24:45Z</time>
      </trkpt>
      <trkpt lat="43.15426" lon="3.1538">
        <ele>11.4</ele>
        <time>2021-07-20T08:24:46Z</time>
      </trkpt>
      <trkpt lat="43.15429" lon="3.15385">
        <ele>11.2</ele>
        <time>2021-07-20T08:24:47Z</time>
      </trkpt>
      <trkpt lat="43.15432" lon="3.1539">
        <ele>10.9</ele>
        <time>2021-07-20T08:24:48Z</time>
      </trkpt>
      <trkpt lat="43.15434" lon="3.15395">
        <ele>10.6</ele>
        <time>2021-07-20T08:24:49Z</time>
      </trkpt>
      <trkpt lat="43.15437" lon="3.154">
        <ele>10.3</ele>
        <time>2021-07-20T08:24:50Z</time>
      </trkpt>
      <trkpt lat="43.15439" lon="3.15405">
        <ele>10</ele>
        <time>2021-07-20T08:24:51Z</time>
      </trkpt>
      <trkpt lat="43.15441" lon="3.1541">
        <ele>9.7</ele>
        <time>2021-07-20T08:24:52Z</time>
      </trkpt>
      <trkpt lat="43.15443" lon="3.15415">
        <ele>9.4</ele>
        <time>2021-07-20T08:24:53Z</time>
      </trkpt>
      <trkpt lat="43.15445" lon="3.15419">
        <ele>9.3</ele>
        <time>2021-07-20T08:24:54Z</time>
      </trkpt>
      <trkpt lat="43.15448" lon="3.15424">
        <ele>-0.9514456</ele>
        <time>2021-07-20T08:24:55Z</time>
      </trkpt>
      <trkpt lat="43.1545" lon="3.15429">
        <ele>9.2</ele>
        <time>2021-07-20T08:24:56Z</time>
      </trkpt>
      <trkpt lat="43.15452" lon="3.15433">
        <ele>9.2</ele>
        <time>2021-07-20T08:24:57Z</time>
      </trkpt>
      <trkpt lat="43.15454" lon="3.15438">
        <ele>9.1</ele>
        <time>2021-07-20T08:24:58Z</time>
      </trkpt>
      <trkpt lat="43.15456" lon="3.15442">
        <ele>9.1</ele>
        <time>2021-07-20T08:24:59Z</time>
      </trkpt>
      <trkpt lat="43.15459" lon="3.15447">
        <ele>9.1</ele>
        <time>2021-07-20T08:25:00Z</time>
      </trkpt>
      <trkpt lat="43.15461" lon="3.15451">
        <ele>9</ele>
        <time>2021-07-20T08:25:01Z</time>
      </trkpt>
      <trkpt lat="43.15464" lon="3.15456">
        <ele>8.9</ele>
        <time>2021-07-20T08:25:02Z</time>
      </trkpt>
      <trkpt lat="43.15466" lon="3.1546">
        <ele>8.9</ele>
        <time>2021-07-20T08:25:03Z</time>
      </trkpt>
      <trkpt lat="43.15469" lon="3.15464">
        <ele>8.8</ele>
        <time>2021-07-20T08:25:04Z</time>
      </trkpt>
      <trkpt lat="43.15472" lon="3.15468">
        <ele>-0.8041074</ele>
        <time>2021-07-20T08:25:05Z</time>
      </trkpt>
      <trkpt lat="43.15475" lon="3.15473">
        <ele>8.6</ele>
        <time>2021-07-20T08:25:06Z</time>
      </trkpt>
      <trkpt lat="43.15477" lon="3.15478">
        <ele>8.4</ele>
        <time>2021-07-20T08:25:07Z</time>
      </trkpt>
      <trkpt lat="43.15479" lon="3.15483">
        <ele>8.1</ele>
        <time>2021-07-20T08:25:08Z</time>
      </trkpt>
      <trkpt lat="43.15481" lon="3.15488">
        <ele>7.8</ele>
        <time>2021-07-20T08:25:09Z</time>
      </trkpt>
      <trkpt lat="43.15483" lon="3.15494">
        <ele>7.5</ele>
        <time>2021-07-20T08:25:10Z</time>
      </trkpt>
      <trkpt lat="43.15484" lon="3.15499">
        <ele>7.1</ele>
        <time>2021-07-20T08:25:11Z</time>
      </trkpt>
      <trkpt lat="43.15485" lon="3.15504">
        <ele>6.9</ele>
        <time>2021-07-20T08:25:12Z</time>
      </trkpt>
      <trkpt lat="43.15485" lon="3.15509">
        <ele>6.6</ele>
        <time>2021-07-20T08:25:13Z</time>
      </trkpt>
      <trkpt lat="43.15486" lon="3.15515">
        <ele>6.4</ele>
        <time>2021-07-20T08:25:14Z</time>
      </trkpt>
      <trkpt lat="43.15487" lon="3.1552">
        <ele>-0.47311202</ele>
        <time>2021-07-20T08:25:15Z</time>
      </trkpt>
      <trkpt lat="43.15487" lon="3.15525">
        <ele>5.9</ele>
        <time>2021-07-20T08:25:16Z</time>
      </trkpt>
      <trkpt lat="43.15489" lon="3.1553">
        <ele>5.7</ele>
        <time>2021-07-20T08:25:17Z</time>
      </trkpt>
      <trkpt lat="43.15491" lon="3.15535">
        <ele>5.5</ele>
        <time>2021-07-20T08:25:18Z</time>
      </trkpt>
      <trkpt lat="43.15493" lon="3.15539">
        <ele>5.3</ele>
        <time>2021-07-20T08:25:19Z</time>
      </trkpt>
      <trkpt lat="43.15495" lon="3.15543">
        <ele>5.2</ele>
        <time>2021-07-20T08:25:20Z</time>
      </trkpt>
      <trkpt lat="43.15496" lon="3.15546">
        <ele>5.1</ele>
        <time>2021-07-20T08:25:21Z</time>
      </trkpt>
      <trkpt lat="43.15498" lon="3.15548">
        <ele>5</ele>
        <time>2021-07-20T08:25:22Z</time>
      </trkpt>
      <trkpt lat="43.15499" lon="3.15551">
        <ele>4.9</ele>
        <time>2021-07-20T08:25:23Z</time>
      </trkpt>
      <trkpt lat="43.155" lon="3.15553">
        <ele>4.8</ele>
        <time>2021-07-20T08:25:24Z</time>
      </trkpt>
      <trkpt lat="43.15501" lon="3.15555">
        <ele>4.7</ele>
        <time>2021-07-20T08:25:25Z</time>
      </trkpt>
      <trkpt lat="43.15501" lon="3.15556">
        <ele>-0.72628766</ele>
        <time>2021-07-20T08:25:26Z</time>
      </trkpt>
      <trkpt lat="43.15501" lon="3.15556">
        <ele>4.6</ele>
        <time>2021-07-20T08:25:27Z</time>
      </trkpt>
      <trkpt lat="43.15501" lon="3.15556">
        <ele>4.6</ele>
        <time>2021-07-20T08:25:28Z</time>
      </trkpt>
      <trkpt lat="43.15501" lon="3.15556">
        <ele>4.6</ele>
        <time>2021-07-20T08:25:29Z</time>
      </trkpt>
      <trkpt lat="43.15501" lon="3.15556">
        <ele>4.6</ele>
        <time>2021-07-20T08:25:30Z</time>
      </trkpt>
      <trkpt lat="43.15501" lon="3.15556">
        <ele>4.6</ele>
        <time>2021-07-20T08:25:31Z</time>
      </trkpt>
      <trkpt lat="43.15501" lon="3.15556">
        <ele>4.6</ele>
        <time>2021-07-20T08:25:32Z</time>
      </trkpt>
      <trkpt lat="43.15501" lon="3.15556">
        <ele>4.6</ele>
        <time>2021-07-20T08:25:33Z</time>
      </trkpt>
      <trkpt lat="43.15501" lon="3.15556">
        <ele>4.6</ele>
        <time>2021-07-20T08:25:34Z</time>
      </trkpt>
      <trkpt lat="43.15501" lon="3.15556">
        <ele>4.6</ele>
        <time>2021-07-20T08:25:35Z</time>
      </trkpt>
      <trkpt lat="43.15501" lon="3.15556">
        <ele>-0.7646788</ele>
        <time>2021-07-20T08:25:36Z</time>
      </trkpt>
      <trkpt lat="43.15501" lon="3.15556">
        <ele>4.6</ele>
        <time>2021-07-20T08:25:37Z</time>
      </trkpt>
      <trkpt lat="43.15501" lon="3.15556">
        <ele>4.6</ele>
        <time>2021-07-20T08:25:38Z</time>
      </trkpt>
      <trkpt lat="43.15501" lon="3.15556">
        <ele>4.6</ele>
        <time>2021-07-20T08:25:39Z</time>
      </trkpt>
      <trkpt lat="43.15501" lon="3.15556">
        <ele>4.6</ele>
        <time>2021-07-20T08:25:40Z</time>
      </trkpt>
      <trkpt lat="43.15501" lon="3.15556">
        <ele>4.6</ele>
        <time>2021-07-20T08:25:41Z</time>
      </trkpt>
      <trkpt lat="43.15501" lon="3.15556">
        <ele>4.6</ele>
        <time>2021-07-20T08:25:42Z</time>
      </trkpt>
      <trkpt lat="43.15501" lon="3.15556">
        <ele>4.6</ele>
        <time>2021-07-20T08:25:43Z</time>
      </trkpt>
      <trkpt lat="43.15501" lon="3.15556">
        <ele>4.6</ele>
        <time>2021-07-20T08:25:44Z</time>
      </trkpt>
      <trkpt lat="43.15501" lon="3.15556">
        <ele>4.6</ele>
        <time>2021-07-20T08:25:45Z</time>
      </trkpt>
      <trkpt lat="43.15501" lon="3.15556">
        <ele>-0.7584532</ele>
        <time>2021-07-20T08:25:46Z</time>
      </trkpt>
      <trkpt lat="43.15501" lon="3.15556">
        <ele>4.6</ele>
        <time>2021-07-20T08:25:47Z</time>
      </trkpt>
      <trkpt lat="43.15501" lon="3.15556">
        <ele>4.6</ele>
        <time>2021-07-20T08:25:48Z</time>
      </trkpt>
      <trkpt lat="43.15501" lon="3.15556">
        <ele>4.6</ele>
        <time>2021-07-20T08:25:49Z</time>
      </trkpt>
      <trkpt lat="43.15501" lon="3.15556">
        <ele>4.6</ele>
        <time>2021-07-20T08:25:50Z</time>
      </trkpt>
      <trkpt lat="43.15501" lon="3.15556">
        <ele>4.6</ele>
        <time>2021-07-20T08:25:51Z</time>
      </trkpt>
      <trkpt lat="43.15501" lon="3.15556">
        <ele>4.6</ele>
        <time>2021-07-20T08:25:52Z</time>
      </trkpt>
      <trkpt lat="43.15501" lon="3.15556">
        <ele>4.6</ele>
        <time>2021-07-20T08:25:53Z</time>
      </trkpt>
      <trkpt lat="43.15501" lon="3.15556">
        <ele>4.6</ele>
        <time>2021-07-20T08:25:54Z</time>
      </trkpt>
      <trkpt lat="43.15501" lon="3.15556">
        <ele>4.6</ele>
        <time>2021-07-20T08:25:55Z</time>
      </trkpt>
      <trkpt lat="43.15501" lon="3.15556">
        <ele>-0.72836286</ele>
        <time>2021-07-20T08:25:56Z</time>
      </trkpt>
      <trkpt lat="43.15501" lon="3.15556">
        <ele>4.6</ele>
        <time>2021-07-20T08:25:57Z</time>
      </trkpt>
      <trkpt lat="43.15501" lon="3.15556">
        <ele>4.6</ele>
        <time>2021-07-20T08:25:58Z</time>
      </trkpt>
      <trkpt lat="43.15501" lon="3.15556">
        <ele>4.6</ele>
        <time>2021-07-20T08:25:59Z</time>
      </trkpt>
      <trkpt lat="43.15501" lon="3.15556">
        <ele>4.6</ele>
        <time>2021-07-20T08:26:00Z</time>
      </trkpt>
      <trkpt lat="43.15501" lon="3.15556">
        <ele>4.6</ele>
        <time>2021-07-20T08:26:01Z</time>
      </trkpt>
      <trkpt lat="43.15501" lon="3.15556">
        <ele>4.6</ele>
        <time>2021-07-20T08:26:02Z</time>
      </trkpt>
      <trkpt lat="43.15501" lon="3.15556">
        <ele>4.6</ele>
        <time>2021-07-20T08:26:03Z</time>
      </trkpt>
      <trkpt lat="43.15501" lon="3.15556">
        <ele>4.6</ele>
        <time>2021-07-20T08:26:04Z</time>
      </trkpt>
      <trkpt lat="43.15501" lon="3.15556">
        <ele>4.6</ele>
        <time>2021-07-20T08:26:05Z</time>
      </trkpt>
      <trkpt lat="43.15501" lon="3.15556">
        <ele>-0.89645326</ele>
        <time>2021-07-20T08:26:06Z</time>
      </trkpt>
      <trkpt lat="43.15501" lon="3.15556">
        <ele>4.6</ele>
        <time>2021-07-20T08:26:07Z</time>
      </trkpt>
      <trkpt lat="43.15501" lon="3.15556">
        <ele>4.6</ele>
        <time>2021-07-20T08:26:08Z</time>
      </trkpt>
      <trkpt lat="43.15501" lon="3.15556">
        <ele>4.6</ele>
        <time>2021-07-20T08:26:09Z</time>
      </trkpt>
      <trkpt lat="43.15501" lon="3.15556">
        <ele>4.6</ele>
        <time>2021-07-20T08:26:10Z</time>
      </trkpt>
      <trkpt lat="43.15501" lon="3.15556">
        <ele>4.6</ele>
        <time>2021-07-20T08:26:11Z</time>
      </trkpt>
      <trkpt lat="43.15501" lon="3.15556">
        <ele>4.6</ele>
        <time>2021-07-20T08:26:12Z</time>
      </trkpt>
      <trkpt lat="43.15501" lon="3.15556">
        <ele>4.6</ele>
        <time>2021-07-20T08:26:13Z</time>
      </trkpt>
      <trkpt lat="43.15501" lon="3.15556">
        <ele>4.6</ele>
        <time>2021-07-20T08:26:14Z</time>
      </trkpt>
      <trkpt lat="43.15501" lon="3.15556">
        <ele>4.6</ele>
        <time>2021-07-20T08:26:15Z</time>
      </trkpt>
      <trkpt lat="43.15501" lon="3.15556">
        <ele>-0.8642879</ele>
        <time>2021-07-20T08:26:16Z</time>
      </trkpt>
      <trkpt lat="43.15501" lon="3.15556">
        <ele>4.6</ele>
        <time>2021-07-20T08:26:17Z</time>
      </trkpt>
      <trkpt lat="43.15501" lon="3.15556">
        <ele>4.6</ele>
        <time>2021-07-20T08:26:18Z</time>
      </trkpt>
      <trkpt lat="43.15501" lon="3.15556">
        <ele>4.6</ele>
        <time>2021-07-20T08:26:19Z</time>
      </trkpt>
      <trkpt lat="43.15501" lon="3.15556">
        <ele>4.6</ele>
        <time>2021-07-20T08:26:20Z</time>
      </trkpt>
      <trkpt lat="43.15501" lon="3.15556">
        <ele>4.6</ele>
        <time>2021-07-20T08:26:21Z</time>
      </trkpt>
      <trkpt lat="43.15501" lon="3.15556">
        <ele>4.6</ele>
        <time>2021-07-20T08:26:22Z</time>
      </trkpt>
      <trkpt lat="43.15501" lon="3.15556">
        <ele>4.6</ele>
        <time>2021-07-20T08:26:23Z</time>
      </trkpt>
      <trkpt lat="43.15501" lon="3.15556">
        <ele>4.6</ele>
        <time>2021-07-20T08:26:24Z</time>
      </trkpt>
      <trkpt lat="43.15501" lon="3.15556">
        <ele>-0.8570248</ele>
        <time>2021-07-20T08:26:25Z</time>
      </trkpt>
      <trkpt lat="43.15501" lon="3.15556">
        <ele>4.6</ele>
        <time>2021-07-20T08:26:26Z</time>
      </trkpt>
      <trkpt lat="43.15501" lon="3.15556">
        <ele>4.6</ele>
        <time>2021-07-20T08:26:27Z</time>
      </trkpt>
      <trkpt lat="43.15501" lon="3.15556">
        <ele>4.6</ele>
        <time>2021-07-20T08:26:28Z</time>
      </trkpt>
      <trkpt lat="43.15501" lon="3.15556">
        <ele>4.6</ele>
        <time>2021-07-20T08:26:29Z</time>
      </trkpt>
      <trkpt lat="43.15501" lon="3.15556">
        <ele>4.6</ele>
        <time>2021-07-20T08:26:30Z</time>
      </trkpt>
      <trkpt lat="43.15501" lon="3.15556">
        <ele>4.6</ele>
        <time>2021-07-20T08:26:31Z</time>
      </trkpt>
      <trkpt lat="43.15501" lon="3.15556">
        <ele>4.6</ele>
        <time>2021-07-20T08:26:32Z</time>
      </trkpt>
      <trkpt lat="43.15501" lon="3.15556">
        <ele>4.6</ele>
        <time>2021-07-20T08:26:33Z</time>
      </trkpt>
      <trkpt lat="43.15501" lon="3.15556">
        <ele>4.6</ele>
        <time>2021-07-20T08:26:34Z</time>
      </trkpt>
      <trkpt lat="43.15501" lon="3.15556">
        <ele>-0.694122</ele>
        <time>2021-07-20T08:26:35Z</time>
      </trkpt>
      <trkpt lat="43.15501" lon="3.15556">
        <ele>4.6</ele>
        <time>2021-07-20T08:26:36Z</time>
      </trkpt>
      <trkpt lat="43.15501" lon="3.15556">
        <ele>4.6</ele>
        <time>2021-07-20T08:26:37Z</time>
      </trkpt>
      <trkpt lat="43.15501" lon="3.15556">
        <ele>4.6</ele>
        <time>2021-07-20T08:26:38Z</time>
      </trkpt>
      <trkpt lat="43.15501" lon="3.15556">
        <ele>4.6</ele>
        <time>2021-07-20T08:26:39Z</time>
      </trkpt>
      <trkpt lat="43.15501" lon="3.15556">
        <ele>4.6</ele>
        <time>2021-07-20T08:26:40Z</time>
      </trkpt>
      <trkpt lat="43.15501" lon="3.15556">
        <ele>4.6</ele>
        <time>2021-07-20T08:26:41Z</time>
      </trkpt>
      <trkpt lat="43.15501" lon="3.15556">
        <ele>4.6</ele>
        <time>2021-07-20T08:26:42Z</time>
      </trkpt>
      <trkpt lat="43.15501" lon="3.15556">
        <ele>4.6</ele>
        <time>2021-07-20T08:26:43Z</time>
      </trkpt>
      <trkpt lat="43.15501" lon="3.15556">
        <ele>4.6</ele>
        <time>2021-07-20T08:26:44Z</time>
      </trkpt>
      <trkpt lat="43.15501" lon="3.15556">
        <ele>-0.7646788</ele>
        <time>2021-07-20T08:26:45Z</time>
      </trkpt>
      <trkpt lat="43.15501" lon="3.15556">
        <ele>4.6</ele>
        <time>2021-07-20T08:26:46Z</time>
      </trkpt>
      <trkpt lat="43.15501" lon="3.15556">
        <ele>4.6</ele>
        <time>2021-07-20T08:26:47Z</time>
      </trkpt>
      <trkpt lat="43.15501" lon="3.15556">
        <ele>4.6</ele>
        <time>2021-07-20T08:26:48Z</time>
      </trkpt>
      <trkpt lat="43.15501" lon="3.15556">
        <ele>4.6</ele>
        <time>2021-07-20T08:26:49Z</time>
      </trkpt>
      <trkpt lat="43.15501" lon="3.15556">
        <ele>4.6</ele>
        <time>2021-07-20T08:26:50Z</time>
      </trkpt>
      <trkpt lat="43.15501" lon="3.15556">
        <ele>4.6</ele>
        <time>2021-07-20T08:26:51Z</time>
      </trkpt>
      <trkpt lat="43.15501" lon="3.15556">
        <ele>4.6</ele>
        <time>2021-07-20T08:26:52Z</time>
      </trkpt>
      <trkpt lat="43.15501" lon="3.15556">
        <ele>4.6</ele>
        <time>2021-07-20T08:26:53Z</time>
      </trkpt>
      <trkpt lat="43.15501" lon="3.15556">
        <ele>4.6</ele>
        <time>2021-07-20T08:26:54Z</time>
      </trkpt>
      <trkpt lat="43.15501" lon="3.15556">
        <ele>-0.7657164</ele>
        <time>2021-07-20T08:26:55Z</time>
      </trkpt>
      <trkpt lat="43.15501" lon="3.15556">
        <ele>4.6</ele>
        <time>2021-07-20T08:26:56Z</time>
      </trkpt>
      <trkpt lat="43.15501" lon="3.15556">
        <ele>4.6</ele>
        <time>2021-07-20T08:26:57Z</time>
      </trkpt>
      <trkpt lat="43.15501" lon="3.15556">
        <ele>4.6</ele>
        <time>2021-07-20T08:26:58Z</time>
      </trkpt>
      <trkpt lat="43.15501" lon="3.15556">
        <ele>4.6</ele>
        <time>2021-07-20T08:26:59Z</time>
      </trkpt>
      <trkpt lat="43.15501" lon="3.15556">
        <ele>4.6</ele>
        <time>2021-07-20T08:27:00Z</time>
      </trkpt>
      <trkpt lat="43.15501" lon="3.15556">
        <ele>4.6</ele>
        <time>2021-07-20T08:27:01Z</time>
      </trkpt>
      <trkpt lat="43.15501" lon="3.15556">
        <ele>4.6</ele>
        <time>2021-07-20T08:27:02Z</time>
      </trkpt>
      <trkpt lat="43.15501" lon="3.15556">
        <ele>4.6</ele>
        <time>2021-07-20T08:27:03Z</time>
      </trkpt>
      <trkpt lat="43.15501" lon="3.15556">
        <ele>4.6</ele>
        <time>2021-07-20T08:27:04Z</time>
      </trkpt>
      <trkpt lat="43.15501" lon="3.15556">
        <ele>4.6</ele>
        <time>2021-07-20T08:27:05Z</time>
      </trkpt>
      <trkpt lat="43.15501" lon="3.15556">
        <ele>-0.8933405</ele>
        <time>2021-07-20T08:27:06Z</time>
      </trkpt>
      <trkpt lat="43.15501" lon="3.15556">
        <ele>4.6</ele>
        <time>2021-07-20T08:27:07Z</time>
      </trkpt>
      <trkpt lat="43.15501" lon="3.15556">
        <ele>4.6</ele>
        <time>2021-07-20T08:27:08Z</time>
      </trkpt>
      <trkpt lat="43.15501" lon="3.15556">
        <ele>4.6</ele>
        <time>2021-07-20T08:27:09Z</time>
      </trkpt>
      <trkpt lat="43.15501" lon="3.15556">
        <ele>4.6</ele>
        <time>2021-07-20T08:27:10Z</time>
      </trkpt>
      <trkpt lat="43.15501" lon="3.15556">
        <ele>4.6</ele>
        <time>2021-07-20T08:27:11Z</time>
      </trkpt>
      <trkpt lat="43.15501" lon="3.15556">
        <ele>4.6</ele>
        <time>2021-07-20T08:27:12Z</time>
      </trkpt>
      <trkpt lat="43.15501" lon="3.15556">
        <ele>4.6</ele>
        <time>2021-07-20T08:27:13Z</time>
      </trkpt>
      <trkpt lat="43.15501" lon="3.15556">
        <ele>4.6</ele>
        <time>2021-07-20T08:27:14Z</time>
      </trkpt>
      <trkpt lat="43.15502" lon="3.15554">
        <ele>4.8</ele>
        <time>2021-07-20T08:27:15Z</time>
      </trkpt>
      <trkpt lat="43.15503" lon="3.15554">
        <ele>-0.78231794</ele>
        <time>2021-07-20T08:27:16Z</time>
      </trkpt>
      <trkpt lat="43.15503" lon="3.15555">
        <ele>4.7</ele>
        <time>2021-07-20T08:27:17Z</time>
      </trkpt>
      <trkpt lat="43.15504" lon="3.15556">
        <ele>4.6</ele>
        <time>2021-07-20T08:27:18Z</time>
      </trkpt>
      <trkpt lat="43.15505" lon="3.15557">
        <ele>4.5</ele>
        <time>2021-07-20T08:27:19Z</time>
      </trkpt>
      <trkpt lat="43.15507" lon="3.15558">
        <ele>4.5</ele>
        <time>2021-07-20T08:27:20Z</time>
      </trkpt>
      <trkpt lat="43.15508" lon="3.15559">
        <ele>4.4</ele>
        <time>2021-07-20T08:27:21Z</time>
      </trkpt>
      <trkpt lat="43.1551" lon="3.1556">
        <ele>4.3</ele>
        <time>2021-07-20T08:27:22Z</time>
      </trkpt>
      <trkpt lat="43.15511" lon="3.15561">
        <ele>4.3</ele>
        <time>2021-07-20T08:27:23Z</time>
      </trkpt>
      <trkpt lat="43.15513" lon="3.15562">
        <ele>4.2</ele>
        <time>2021-07-20T08:27:24Z</time>
      </trkpt>
      <trkpt lat="43.15515" lon="3.15564">
        <ele>4.1</ele>
        <time>2021-07-20T08:27:25Z</time>
      </trkpt>
      <trkpt lat="43.15517" lon="3.15565">
        <ele>-1.0282271</ele>
        <time>2021-07-20T08:27:26Z</time>
      </trkpt>
      <trkpt lat="43.1552" lon="3.15567">
        <ele>4</ele>
        <time>2021-07-20T08:27:27Z</time>
      </trkpt>
      <trkpt lat="43.15522" lon="3.15569">
        <ele>3.9</ele>
        <time>2021-07-20T08:27:28Z</time>
      </trkpt>
      <trkpt lat="43.15525" lon="3.15571">
        <ele>3.8</ele>
        <time>2021-07-20T08:27:29Z</time>
      </trkpt>
      <trkpt lat="43.15527" lon="3.15573">
        <ele>3.8</ele>
        <time>2021-07-20T08:27:30Z</time>
      </trkpt>
      <trkpt lat="43.1553" lon="3.15575">
        <ele>3.7</ele>
        <time>2021-07-20T08:27:31Z</time>
      </trkpt>
      <trkpt lat="43.15533" lon="3.15577">
        <ele>3.6</ele>
        <time>2021-07-20T08:27:32Z</time>
      </trkpt>
      <trkpt lat="43.15535" lon="3.1558">
        <ele>3.5</ele>
        <time>2021-07-20T08:27:33Z</time>
      </trkpt>
      <trkpt lat="43.15538" lon="3.15581">
        <ele>3.5</ele>
        <time>2021-07-20T08:27:34Z</time>
      </trkpt>
      <trkpt lat="43.1554" lon="3.15583">
        <ele>3.5</ele>
        <time>2021-07-20T08:27:35Z</time>
      </trkpt>
      <trkpt lat="43.15542" lon="3.15585">
        <ele>-0.9794605</ele>
        <time>2021-07-20T08:27:36Z</time>
      </trkpt>
      <trkpt lat="43.15544" lon="3.15587">
        <ele>3.5</ele>
        <time>2021-07-20T08:27:37Z</time>
      </trkpt>
      <trkpt lat="43.15546" lon="3.15589">
        <ele>3.6</ele>
        <time>2021-07-20T08:27:38Z</time>
      </trkpt>
      <trkpt lat="43.15548" lon="3.15591">
        <ele>3.6</ele>
        <time>2021-07-20T08:27:39Z</time>
      </trkpt>
      <trkpt lat="43.15549" lon="3.15593">
        <ele>3.7</ele>
        <time>2021-07-20T08:27:40Z</time>
      </trkpt>
      <trkpt lat="43.15551" lon="3.15594">
        <ele>3.7</ele>
        <time>2021-07-20T08:27:41Z</time>
      </trkpt>
      <trkpt lat="43.15552" lon="3.15597">
        <ele>3.7</ele>
        <time>2021-07-20T08:27:42Z</time>
      </trkpt>
      <trkpt lat="43.15552" lon="3.15598">
        <ele>3.7</ele>
        <time>2021-07-20T08:27:43Z</time>
      </trkpt>
      <trkpt lat="43.15552" lon="3.15599">
        <ele>3.7</ele>
        <time>2021-07-20T08:27:44Z</time>
      </trkpt>
      <trkpt lat="43.15552" lon="3.15599">
        <ele>3.7</ele>
        <time>2021-07-20T08:27:45Z</time>
      </trkpt>
      <trkpt lat="43.15552" lon="3.15599">
        <ele>-0.68374604</ele>
        <time>2021-07-20T08:27:46Z</time>
      </trkpt>
      <trkpt lat="43.15552" lon="3.15599">
        <ele>3.7</ele>
        <time>2021-07-20T08:27:47Z</time>
      </trkpt>
      <trkpt lat="43.15552" lon="3.15599">
        <ele>3.7</ele>
        <time>2021-07-20T08:27:48Z</time>
      </trkpt>
      <trkpt lat="43.15552" lon="3.15599">
        <ele>3.7</ele>
        <time>2021-07-20T08:27:49Z</time>
      </trkpt>
      <trkpt lat="43.15552" lon="3.15599">
        <ele>3.7</ele>
        <time>2021-07-20T08:27:50Z</time>
      </trkpt>
      <trkpt lat="43.15552" lon="3.15599">
        <ele>3.7</ele>
        <time>2021-07-20T08:27:51Z</time>
      </trkpt>
      <trkpt lat="43.15552" lon="3.15599">
        <ele>3.7</ele>
        <time>2021-07-20T08:27:52Z</time>
      </trkpt>
      <trkpt lat="43.15552" lon="3.15599">
        <ele>3.7</ele>
        <time>2021-07-20T08:27:53Z</time>
      </trkpt>
      <trkpt lat="43.15552" lon="3.15599">
        <ele>3.7</ele>
        <time>2021-07-20T08:27:54Z</time>
      </trkpt>
      <trkpt lat="43.15552" lon="3.15599">
        <ele>3.7</ele>
        <time>2021-07-20T08:27:55Z</time>
      </trkpt>
      <trkpt lat="43.15552" lon="3.15599">
        <ele>-0.6588436</ele>
        <time>2021-07-20T08:27:56Z</time>
      </trkpt>
      <trkpt lat="43.15552" lon="3.15599">
        <ele>3.7</ele>
        <time>2021-07-20T08:27:57Z</time>
      </trkpt>
      <trkpt lat="43.15552" lon="3.15599">
        <ele>3.7</ele>
        <time>2021-07-20T08:27:58Z</time>
      </trkpt>
      <trkpt lat="43.15552" lon="3.15599">
        <ele>3.7</ele>
        <time>2021-07-20T08:27:59Z</time>
      </trkpt>
      <trkpt lat="43.15552" lon="3.15599">
        <ele>3.7</ele>
        <time>2021-07-20T08:28:00Z</time>
      </trkpt>
      <trkpt lat="43.15553" lon="3.156">
        <ele>3.8</ele>
        <time>2021-07-20T08:28:01Z</time>
      </trkpt>
      <trkpt lat="43.15554" lon="3.15601">
        <ele>3.8</ele>
        <time>2021-07-20T08:28:02Z</time>
      </trkpt>
      <trkpt lat="43.15554" lon="3.15603">
        <ele>3.8</ele>
        <time>2021-07-20T08:28:03Z</time>
      </trkpt>
      <trkpt lat="43.15555" lon="3.15606">
        <ele>3.8</ele>
        <time>2021-07-20T08:28:04Z</time>
      </trkpt>
      <trkpt lat="43.15556" lon="3.15609">
        <ele>-0.78024274</ele>
        <time>2021-07-20T08:28:05Z</time>
      </trkpt>
      <trkpt lat="43.15557" lon="3.15613">
        <ele>3.9</ele>
        <time>2021-07-20T08:28:06Z</time>
      </trkpt>
      <trkpt lat="43.15557" lon="3.15617">
        <ele>4</ele>
        <time>2021-07-20T08:28:07Z</time>
      </trkpt>
      <trkpt lat="43.15558" lon="3.15622">
        <ele>4</ele>
        <time>2021-07-20T08:28:08Z</time>
      </trkpt>
      <trkpt lat="43.1556" lon="3.15626">
        <ele>4.1</ele>
        <time>2021-07-20T08:28:09Z</time>
      </trkpt>
      <trkpt lat="43.15562" lon="3.1563">
        <ele>4.2</ele>
        <time>2021-07-20T08:28:10Z</time>
      </trkpt>
      <trkpt lat="43.15565" lon="3.15634">
        <ele>4.3</ele>
        <time>2021-07-20T08:28:11Z</time>
      </trkpt>
      <trkpt lat="43.15568" lon="3.15638">
        <ele>4.3</ele>
        <time>2021-07-20T08:28:12Z</time>
      </trkpt>
      <trkpt lat="43.15572" lon="3.1564">
        <ele>4.4</ele>
        <time>2021-07-20T08:28:13Z</time>
      </trkpt>
      <trkpt lat="43.15575" lon="3.15642">
        <ele>4.5</ele>
        <time>2021-07-20T08:28:14Z</time>
      </trkpt>
      <trkpt lat="43.1558" lon="3.15643">
        <ele>-0.46584874</ele>
        <time>2021-07-20T08:28:15Z</time>
      </trkpt>
      <trkpt lat="43.15584" lon="3.15644">
        <ele>4.8</ele>
        <time>2021-07-20T08:28:16Z</time>
      </trkpt>
      <trkpt lat="43.15588" lon="3.15644">
        <ele>5.3</ele>
        <time>2021-07-20T08:28:17Z</time>
      </trkpt>
      <trkpt lat="43.15593" lon="3.15644">
        <ele>5.9</ele>
        <time>2021-07-20T08:28:18Z</time>
      </trkpt>
      <trkpt lat="43.15597" lon="3.15644">
        <ele>6.4</ele>
        <time>2021-07-20T08:28:19Z</time>
      </trkpt>
      <trkpt lat="43.15602" lon="3.15646">
        <ele>7</ele>
        <time>2021-07-20T08:28:20Z</time>
      </trkpt>
      <trkpt lat="43.15606" lon="3.15648">
        <ele>7.6</ele>
        <time>2021-07-20T08:28:21Z</time>
      </trkpt>
      <trkpt lat="43.1561" lon="3.15653">
        <ele>8.1</ele>
        <time>2021-07-20T08:28:22Z</time>
      </trkpt>
      <trkpt lat="43.15613" lon="3.15658">
        <ele>8.5</ele>
        <time>2021-07-20T08:28:23Z</time>
      </trkpt>
      <trkpt lat="43.15616" lon="3.15664">
        <ele>8.9</ele>
        <time>2021-07-20T08:28:24Z</time>
      </trkpt>
      <trkpt lat="43.15618" lon="3.1567">
        <ele>0.11418312</ele>
        <time>2021-07-20T08:28:25Z</time>
      </trkpt>
      <trkpt lat="43.1562" lon="3.15676">
        <ele>9</ele>
        <time>2021-07-20T08:28:26Z</time>
      </trkpt>
      <trkpt lat="43.15622" lon="3.15681">
        <ele>8.9</ele>
        <time>2021-07-20T08:28:27Z</time>
      </trkpt>
      <trkpt lat="43.15624" lon="3.15687">
        <ele>8.9</ele>
        <time>2021-07-20T08:28:28Z</time>
      </trkpt>
      <trkpt lat="43.15626" lon="3.15693">
        <ele>8.8</ele>
        <time>2021-07-20T08:28:29Z</time>
      </trkpt>
      <trkpt lat="43.15627" lon="3.15698">
        <ele>8.7</ele>
        <time>2021-07-20T08:28:30Z</time>
      </trkpt>
      <trkpt lat="43.15628" lon="3.15702">
        <ele>8.7</ele>
        <time>2021-07-20T08:28:31Z</time>
      </trkpt>
      <trkpt lat="43.15629" lon="3.15706">
        <ele>8.6</ele>
        <time>2021-07-20T08:28:32Z</time>
      </trkpt>
      <trkpt lat="43.15628" lon="3.1571">
        <ele>8.3</ele>
        <time>2021-07-20T08:28:33Z</time>
      </trkpt>
      <trkpt lat="43.15627" lon="3.15712">
        <ele>8.1</ele>
        <time>2021-07-20T08:28:34Z</time>
      </trkpt>
      <trkpt lat="43.15626" lon="3.15712">
        <ele>-0.24379891</ele>
        <time>2021-07-20T08:28:35Z</time>
      </trkpt>
      <trkpt lat="43.15625" lon="3.15713">
        <ele>7.8</ele>
        <time>2021-07-20T08:28:36Z</time>
      </trkpt>
      <trkpt lat="43.15624" lon="3.15714">
        <ele>7.6</ele>
        <time>2021-07-20T08:28:37Z</time>
      </trkpt>
      <trkpt lat="43.15623" lon="3.15715">
        <ele>7.5</ele>
        <time>2021-07-20T08:28:38Z</time>
      </trkpt>
      <trkpt lat="43.15622" lon="3.15715">
        <ele>7.3</ele>
        <time>2021-07-20T08:28:39Z</time>
      </trkpt>
      <trkpt lat="43.15621" lon="3.15717">
        <ele>7.1</ele>
        <time>2021-07-20T08:28:40Z</time>
      </trkpt>
      <trkpt lat="43.1562" lon="3.15719">
        <ele>6.9</ele>
        <time>2021-07-20T08:28:41Z</time>
      </trkpt>
      <trkpt lat="43.15618" lon="3.1572">
        <ele>6.6</ele>
        <time>2021-07-20T08:28:42Z</time>
      </trkpt>
      <trkpt lat="43.15616" lon="3.15722">
        <ele>6.3</ele>
        <time>2021-07-20T08:28:43Z</time>
      </trkpt>
      <trkpt lat="43.15614" lon="3.15724">
        <ele>5.9</ele>
        <time>2021-07-20T08:28:44Z</time>
      </trkpt>
      <trkpt lat="43.15612" lon="3.15726">
        <ele>5.6</ele>
        <time>2021-07-20T08:28:45Z</time>
      </trkpt>
      <trkpt lat="43.15611" lon="3.15729">
        <ele>-1.1371733</ele>
        <time>2021-07-20T08:28:46Z</time>
      </trkpt>
      <trkpt lat="43.15612" lon="3.15733">
        <ele>5.2</ele>
        <time>2021-07-20T08:28:47Z</time>
      </trkpt>
      <trkpt lat="43.15614" lon="3.15735">
        <ele>5.4</ele>
        <time>2021-07-20T08:28:48Z</time>
      </trkpt>
      <trkpt lat="43.15616" lon="3.15736">
        <ele>5.5</ele>
        <time>2021-07-20T08:28:49Z</time>
      </trkpt>
      <trkpt lat="43.15618" lon="3.15738">
        <ele>5.7</ele>
        <time>2021-07-20T08:28:50Z</time>
      </trkpt>
      <trkpt lat="43.1562" lon="3.15742">
        <ele>5.8</ele>
        <time>2021-07-20T08:28:51Z</time>
      </trkpt>
      <trkpt lat="43.15622" lon="3.15745">
        <ele>5.9</ele>
        <time>2021-07-20T08:28:52Z</time>
      </trkpt>
      <trkpt lat="43.15624" lon="3.15749">
        <ele>5.9</ele>
        <time>2021-07-20T08:28:53Z</time>
      </trkpt>
      <trkpt lat="43.15626" lon="3.15752">
        <ele>6</ele>
        <time>2021-07-20T08:28:54Z</time>
      </trkpt>
      <trkpt lat="43.15628" lon="3.15756">
        <ele>6.2</ele>
        <time>2021-07-20T08:28:55Z</time>
      </trkpt>
      <trkpt lat="43.15629" lon="3.1576">
        <ele>-1.7265116</ele>
        <time>2021-07-20T08:28:56Z</time>
      </trkpt>
      <trkpt lat="43.15631" lon="3.15764">
        <ele>6.3</ele>
        <time>2021-07-20T08:28:57Z</time>
      </trkpt>
      <trkpt lat="43.15633" lon="3.15768">
        <ele>6.4</ele>
        <time>2021-07-20T08:28:58Z</time>
      </trkpt>
      <trkpt lat="43.15634" lon="3.15772">
        <ele>6.4</ele>
        <time>2021-07-20T08:28:59Z</time>
      </trkpt>
      <trkpt lat="43.15636" lon="3.15776">
        <ele>6.4</ele>
        <time>2021-07-20T08:29:00Z</time>
      </trkpt>
      <trkpt lat="43.15638" lon="3.1578">
        <ele>6.5</ele>
        <time>2021-07-20T08:29:01Z</time>
      </trkpt>
      <trkpt lat="43.1564" lon="3.15784">
        <ele>6.5</ele>
        <time>2021-07-20T08:29:02Z</time>
      </trkpt>
      <trkpt lat="43.15641" lon="3.15788">
        <ele>6.5</ele>
        <time>2021-07-20T08:29:03Z</time>
      </trkpt>
      <trkpt lat="43.15643" lon="3.15792">
        <ele>6.5</ele>
        <time>2021-07-20T08:29:04Z</time>
      </trkpt>
      <trkpt lat="43.15645" lon="3.15795">
        <ele>6.5</ele>
        <time>2021-07-20T08:29:05Z</time>
      </trkpt>
      <trkpt lat="43.15647" lon="3.15799">
        <ele>-1.7524505</ele>
        <time>2021-07-20T08:29:06Z</time>
      </trkpt>
      <trkpt lat="43.15649" lon="3.15803">
        <ele>6.5</ele>
        <time>2021-07-20T08:29:07Z</time>
      </trkpt>
      <trkpt lat="43.15651" lon="3.15807">
        <ele>6.5</ele>
        <time>2021-07-20T08:29:08Z</time>
      </trkpt>
      <trkpt lat="43.15653" lon="3.15811">
        <ele>6.4</ele>
        <time>2021-07-20T08:29:09Z</time>
      </trkpt>
      <trkpt lat="43.15654" lon="3.15814">
        <ele>6.4</ele>
        <time>2021-07-20T08:29:10Z</time>
      </trkpt>
      <trkpt lat="43.15656" lon="3.15818">
        <ele>6.3</ele>
        <time>2021-07-20T08:29:11Z</time>
      </trkpt>
      <trkpt lat="43.15658" lon="3.15821">
        <ele>6.2</ele>
        <time>2021-07-20T08:29:12Z</time>
      </trkpt>
      <trkpt lat="43.15661" lon="3.15825">
        <ele>6.2</ele>
        <time>2021-07-20T08:29:13Z</time>
      </trkpt>
      <trkpt lat="43.15662" lon="3.15829">
        <ele>6</ele>
        <time>2021-07-20T08:29:14Z</time>
      </trkpt>
      <trkpt lat="43.15664" lon="3.15832">
        <ele>5.9</ele>
        <time>2021-07-20T08:29:15Z</time>
      </trkpt>
      <trkpt lat="43.15666" lon="3.15836">
        <ele>-1.539751</ele>
        <time>2021-07-20T08:29:16Z</time>
      </trkpt>
      <trkpt lat="43.15669" lon="3.15839">
        <ele>6</ele>
        <time>2021-07-20T08:29:17Z</time>
      </trkpt>
      <trkpt lat="43.15671" lon="3.15843">
        <ele>6.1</ele>
        <time>2021-07-20T08:29:18Z</time>
      </trkpt>
      <trkpt lat="43.15673" lon="3.15847">
        <ele>6.1</ele>
        <time>2021-07-20T08:29:19Z</time>
      </trkpt>
      <trkpt lat="43.15675" lon="3.15851">
        <ele>6.2</ele>
        <time>2021-07-20T08:29:20Z</time>
      </trkpt>
      <trkpt lat="43.15678" lon="3.15855">
        <ele>6.3</ele>
        <time>2021-07-20T08:29:21Z</time>
      </trkpt>
      <trkpt lat="43.1568" lon="3.15859">
        <ele>6.3</ele>
        <time>2021-07-20T08:29:22Z</time>
      </trkpt>
      <trkpt lat="43.15683" lon="3.15863">
        <ele>6.4</ele>
        <time>2021-07-20T08:29:23Z</time>
      </trkpt>
      <trkpt lat="43.15685" lon="3.15867">
        <ele>6.4</ele>
        <time>2021-07-20T08:29:24Z</time>
      </trkpt>
      <trkpt lat="43.15688" lon="3.15871">
        <ele>6.5</ele>
        <time>2021-07-20T08:29:25Z</time>
      </trkpt>
      <trkpt lat="43.15691" lon="3.15875">
        <ele>-1.5148495</ele>
        <time>2021-07-20T08:29:26Z</time>
      </trkpt>
      <trkpt lat="43.15693" lon="3.15879">
        <ele>6.6</ele>
        <time>2021-07-20T08:29:27Z</time>
      </trkpt>
      <trkpt lat="43.15696" lon="3.15883">
        <ele>6.7</ele>
        <time>2021-07-20T08:29:28Z</time>
      </trkpt>
      <trkpt lat="43.15699" lon="3.15887">
        <ele>6.8</ele>
        <time>2021-07-20T08:29:29Z</time>
      </trkpt>
      <trkpt lat="43.15701" lon="3.15891">
        <ele>6.8</ele>
        <time>2021-07-20T08:29:30Z</time>
      </trkpt>
      <trkpt lat="43.15704" lon="3.15894">
        <ele>6.9</ele>
        <time>2021-07-20T08:29:31Z</time>
      </trkpt>
      <trkpt lat="43.15707" lon="3.15898">
        <ele>6.9</ele>
        <time>2021-07-20T08:29:32Z</time>
      </trkpt>
      <trkpt lat="43.15709" lon="3.15902">
        <ele>7</ele>
        <time>2021-07-20T08:29:33Z</time>
      </trkpt>
      <trkpt lat="43.15712" lon="3.15906">
        <ele>7.1</ele>
        <time>2021-07-20T08:29:34Z</time>
      </trkpt>
      <trkpt lat="43.15715" lon="3.15909">
        <ele>7.1</ele>
        <time>2021-07-20T08:29:35Z</time>
      </trkpt>
      <trkpt lat="43.15717" lon="3.15912">
        <ele>-1.5366384</ele>
        <time>2021-07-20T08:29:36Z</time>
      </trkpt>
      <trkpt lat="43.1572" lon="3.15916">
        <ele>7.2</ele>
        <time>2021-07-20T08:29:37Z</time>
      </trkpt>
      <trkpt lat="43.15723" lon="3.1592">
        <ele>7.3</ele>
        <time>2021-07-20T08:29:38Z</time>
      </trkpt>
      <trkpt lat="43.15726" lon="3.15923">
        <ele>7.3</ele>
        <time>2021-07-20T08:29:39Z</time>
      </trkpt>
      <trkpt lat="43.15729" lon="3.15927">
        <ele>7.3</ele>
        <time>2021-07-20T08:29:40Z</time>
      </trkpt>
      <trkpt lat="43.15732" lon="3.15931">
        <ele>7.4</ele>
        <time>2021-07-20T08:29:41Z</time>
      </trkpt>
      <trkpt lat="43.15735" lon="3.15934">
        <ele>7.4</ele>
        <time>2021-07-20T08:29:42Z</time>
      </trkpt>
      <trkpt lat="43.15738" lon="3.15938">
        <ele>7.4</ele>
        <time>2021-07-20T08:29:43Z</time>
      </trkpt>
      <trkpt lat="43.15741" lon="3.15942">
        <ele>7.4</ele>
        <time>2021-07-20T08:29:44Z</time>
      </trkpt>
      <trkpt lat="43.15744" lon="3.15945">
        <ele>-1.6632206</ele>
        <time>2021-07-20T08:29:45Z</time>
      </trkpt>
      <trkpt lat="43.15748" lon="3.15949">
        <ele>7.3</ele>
        <time>2021-07-20T08:29:46Z</time>
      </trkpt>
      <trkpt lat="43.15751" lon="3.15952">
        <ele>7.3</ele>
        <time>2021-07-20T08:29:47Z</time>
      </trkpt>
      <trkpt lat="43.15754" lon="3.15956">
        <ele>7.3</ele>
        <time>2021-07-20T08:29:48Z</time>
      </trkpt>
      <trkpt lat="43.15757" lon="3.15959">
        <ele>7.2</ele>
        <time>2021-07-20T08:29:49Z</time>
      </trkpt>
      <trkpt lat="43.1576" lon="3.15962">
        <ele>7.1</ele>
        <time>2021-07-20T08:29:50Z</time>
      </trkpt>
      <trkpt lat="43.15764" lon="3.15966">
        <ele>7</ele>
        <time>2021-07-20T08:29:51Z</time>
      </trkpt>
      <trkpt lat="43.15767" lon="3.15969">
        <ele>6.9</ele>
        <time>2021-07-20T08:29:52Z</time>
      </trkpt>
      <trkpt lat="43.1577" lon="3.15973">
        <ele>6.7</ele>
        <time>2021-07-20T08:29:53Z</time>
      </trkpt>
      <trkpt lat="43.15773" lon="3.15976">
        <ele>6.5</ele>
        <time>2021-07-20T08:29:54Z</time>
      </trkpt>
      <trkpt lat="43.15776" lon="3.1598">
        <ele>-1.4494829</ele>
        <time>2021-07-20T08:29:55Z</time>
      </trkpt>
      <trkpt lat="43.15779" lon="3.15984">
        <ele>6.1</ele>
        <time>2021-07-20T08:29:56Z</time>
      </trkpt>
      <trkpt lat="43.15783" lon="3.15987">
        <ele>5.9</ele>
        <time>2021-07-20T08:29:57Z</time>
      </trkpt>
      <trkpt lat="43.15786" lon="3.15991">
        <ele>5.7</ele>
        <time>2021-07-20T08:29:58Z</time>
      </trkpt>
      <trkpt lat="43.15789" lon="3.15995">
        <ele>5.4</ele>
        <time>2021-07-20T08:29:59Z</time>
      </trkpt>
      <trkpt lat="43.15793" lon="3.15998">
        <ele>5.1</ele>
        <time>2021-07-20T08:30:00Z</time>
      </trkpt>
      <trkpt lat="43.15796" lon="3.16002">
        <ele>5</ele>
        <time>2021-07-20T08:30:01Z</time>
      </trkpt>
      <trkpt lat="43.158" lon="3.16006">
        <ele>4.9</ele>
        <time>2021-07-20T08:30:02Z</time>
      </trkpt>
      <trkpt lat="43.15803" lon="3.1601">
        <ele>4.8</ele>
        <time>2021-07-20T08:30:03Z</time>
      </trkpt>
      <trkpt lat="43.15806" lon="3.16013">
        <ele>4.7</ele>
        <time>2021-07-20T08:30:04Z</time>
      </trkpt>
      <trkpt lat="43.1581" lon="3.16017">
        <ele>-1.4930607</ele>
        <time>2021-07-20T08:30:05Z</time>
      </trkpt>
      <trkpt lat="43.15813" lon="3.16021">
        <ele>4.5</ele>
        <time>2021-07-20T08:30:06Z</time>
      </trkpt>
      <trkpt lat="43.15817" lon="3.16024">
        <ele>4.4</ele>
        <time>2021-07-20T08:30:07Z</time>
      </trkpt>
      <trkpt lat="43.1582" lon="3.16028">
        <ele>4.3</ele>
        <time>2021-07-20T08:30:08Z</time>
      </trkpt>
      <trkpt lat="43.15823" lon="3.16032">
        <ele>4.2</ele>
        <time>2021-07-20T08:30:09Z</time>
      </trkpt>
      <trkpt lat="43.15826" lon="3.16035">
        <ele>4.2</ele>
        <time>2021-07-20T08:30:10Z</time>
      </trkpt>
      <trkpt lat="43.1583" lon="3.16039">
        <ele>4.1</ele>
        <time>2021-07-20T08:30:11Z</time>
      </trkpt>
      <trkpt lat="43.15833" lon="3.16042">
        <ele>4</ele>
        <time>2021-07-20T08:30:12Z</time>
      </trkpt>
      <trkpt lat="43.15837" lon="3.16046">
        <ele>4</ele>
        <time>2021-07-20T08:30:13Z</time>
      </trkpt>
      <trkpt lat="43.1584" lon="3.16049">
        <ele>4</ele>
        <time>2021-07-20T08:30:14Z</time>
      </trkpt>
      <trkpt lat="43.15843" lon="3.16053">
        <ele>-1.3228995</ele>
        <time>2021-07-20T08:30:15Z</time>
      </trkpt>
      <trkpt lat="43.15846" lon="3.16057">
        <ele>3.9</ele>
        <time>2021-07-20T08:30:16Z</time>
      </trkpt>
      <trkpt lat="43.1585" lon="3.1606">
        <ele>3.9</ele>
        <time>2021-07-20T08:30:17Z</time>
      </trkpt>
      <trkpt lat="43.15853" lon="3.16064">
        <ele>3.9</ele>
        <time>2021-07-20T08:30:18Z</time>
      </trkpt>
      <trkpt lat="43.15856" lon="3.16067">
        <ele>3.8</ele>
        <time>2021-07-20T08:30:19Z</time>
      </trkpt>
      <trkpt lat="43.15859" lon="3.1607">
        <ele>3.8</ele>
        <time>2021-07-20T08:30:20Z</time>
      </trkpt>
      <trkpt lat="43.15862" lon="3.16074">
        <ele>3.7</ele>
        <time>2021-07-20T08:30:21Z</time>
      </trkpt>
      <trkpt lat="43.15865" lon="3.16077">
        <ele>3.6</ele>
        <time>2021-07-20T08:30:22Z</time>
      </trkpt>
      <trkpt lat="43.15868" lon="3.1608">
        <ele>3.5</ele>
        <time>2021-07-20T08:30:23Z</time>
      </trkpt>
      <trkpt lat="43.15871" lon="3.16083">
        <ele>3.5</ele>
        <time>2021-07-20T08:30:24Z</time>
      </trkpt>
      <trkpt lat="43.15874" lon="3.16087">
        <ele>3.4</ele>
        <time>2021-07-20T08:30:25Z</time>
      </trkpt>
      <trkpt lat="43.15876" lon="3.1609">
        <ele>-1.5501267</ele>
        <time>2021-07-20T08:30:26Z</time>
      </trkpt>
      <trkpt lat="43.15879" lon="3.16093">
        <ele>3.4</ele>
        <time>2021-07-20T08:30:27Z</time>
      </trkpt>
      <trkpt lat="43.15882" lon="3.16096">
        <ele>3.4</ele>
        <time>2021-07-20T08:30:28Z</time>
      </trkpt>
      <trkpt lat="43.15884" lon="3.16099">
        <ele>3.4</ele>
        <time>2021-07-20T08:30:29Z</time>
      </trkpt>
      <trkpt lat="43.15887" lon="3.16102">
        <ele>3.4</ele>
        <time>2021-07-20T08:30:30Z</time>
      </trkpt>
      <trkpt lat="43.1589" lon="3.16105">
        <ele>3.4</ele>
        <time>2021-07-20T08:30:31Z</time>
      </trkpt>
      <trkpt lat="43.15893" lon="3.16108">
        <ele>3.4</ele>
        <time>2021-07-20T08:30:32Z</time>
      </trkpt>
      <trkpt lat="43.15896" lon="3.16111">
        <ele>3.4</ele>
        <time>2021-07-20T08:30:33Z</time>
      </trkpt>
      <trkpt lat="43.15899" lon="3.16114">
        <ele>3.4</ele>
        <time>2021-07-20T08:30:34Z</time>
      </trkpt>
      <trkpt lat="43.15901" lon="3.16117">
        <ele>3.4</ele>
        <time>2021-07-20T08:30:35Z</time>
      </trkpt>
      <trkpt lat="43.15904" lon="3.1612">
        <ele>-1.5262628</ele>
        <time>2021-07-20T08:30:36Z</time>
      </trkpt>
      <trkpt lat="43.15907" lon="3.16123">
        <ele>3.4</ele>
        <time>2021-07-20T08:30:37Z</time>
      </trkpt>
      <trkpt lat="43.1591" lon="3.16126">
        <ele>3.4</ele>
        <time>2021-07-20T08:30:38Z</time>
      </trkpt>
      <trkpt lat="43.15912" lon="3.16129">
        <ele>3.4</ele>
        <time>2021-07-20T08:30:39Z</time>
      </trkpt>
      <trkpt lat="43.15915" lon="3.16132">
        <ele>3.4</ele>
        <time>2021-07-20T08:30:40Z</time>
      </trkpt>
      <trkpt lat="43.15918" lon="3.16136">
        <ele>3.5</ele>
        <time>2021-07-20T08:30:41Z</time>
      </trkpt>
      <trkpt lat="43.15921" lon="3.16139">
        <ele>3.5</ele>
        <time>2021-07-20T08:30:42Z</time>
      </trkpt>
      <trkpt lat="43.15925" lon="3.16142">
        <ele>3.6</ele>
        <time>2021-07-20T08:30:43Z</time>
      </trkpt>
      <trkpt lat="43.15928" lon="3.16145">
        <ele>3.7</ele>
        <time>2021-07-20T08:30:44Z</time>
      </trkpt>
      <trkpt lat="43.1593" lon="3.16148">
        <ele>3.7</ele>
        <time>2021-07-20T08:30:45Z</time>
      </trkpt>
      <trkpt lat="43.15933" lon="3.16151">
        <ele>-1.260645</ele>
        <time>2021-07-20T08:30:46Z</time>
      </trkpt>
      <trkpt lat="43.15936" lon="3.16154">
        <ele>3.8</ele>
        <time>2021-07-20T08:30:47Z</time>
      </trkpt>
      <trkpt lat="43.15939" lon="3.16157">
        <ele>3.8</ele>
        <time>2021-07-20T08:30:48Z</time>
      </trkpt>
      <trkpt lat="43.15941" lon="3.16159">
        <ele>3.8</ele>
        <time>2021-07-20T08:30:49Z</time>
      </trkpt>
      <trkpt lat="43.15944" lon="3.16163">
        <ele>3.8</ele>
        <time>2021-07-20T08:30:50Z</time>
      </trkpt>
      <trkpt lat="43.15947" lon="3.16166">
        <ele>3.8</ele>
        <time>2021-07-20T08:30:51Z</time>
      </trkpt>
      <trkpt lat="43.1595" lon="3.1617">
        <ele>3.7</ele>
        <time>2021-07-20T08:30:52Z</time>
      </trkpt>
      <trkpt lat="43.15952" lon="3.16173">
        <ele>3.7</ele>
        <time>2021-07-20T08:30:53Z</time>
      </trkpt>
      <trkpt lat="43.15955" lon="3.16176">
        <ele>3.8</ele>
        <time>2021-07-20T08:30:54Z</time>
      </trkpt>
      <trkpt lat="43.15958" lon="3.16179">
        <ele>3.8</ele>
        <time>2021-07-20T08:30:55Z</time>
      </trkpt>
      <trkpt lat="43.15962" lon="3.16182">
        <ele>-1.1807517</ele>
        <time>2021-07-20T08:30:56Z</time>
      </trkpt>
      <trkpt lat="43.15964" lon="3.16185">
        <ele>3.8</ele>
        <time>2021-07-20T08:30:57Z</time>
      </trkpt>
      <trkpt lat="43.15967" lon="3.16188">
        <ele>3.8</ele>
        <time>2021-07-20T08:30:58Z</time>
      </trkpt>
      <trkpt lat="43.1597" lon="3.16191">
        <ele>3.8</ele>
        <time>2021-07-20T08:30:59Z</time>
      </trkpt>
      <trkpt lat="43.15972" lon="3.16194">
        <ele>3.8</ele>
        <time>2021-07-20T08:31:00Z</time>
      </trkpt>
      <trkpt lat="43.15974" lon="3.16196">
        <ele>3.8</ele>
        <time>2021-07-20T08:31:01Z</time>
      </trkpt>
      <trkpt lat="43.15976" lon="3.16198">
        <ele>3.8</ele>
        <time>2021-07-20T08:31:02Z</time>
      </trkpt>
      <trkpt lat="43.15978" lon="3.16199">
        <ele>3.8</ele>
        <time>2021-07-20T08:31:03Z</time>
      </trkpt>
      <trkpt lat="43.1598" lon="3.16201">
        <ele>3.8</ele>
        <time>2021-07-20T08:31:04Z</time>
      </trkpt>
      <trkpt lat="43.15982" lon="3.16202">
        <ele>3.8</ele>
        <time>2021-07-20T08:31:05Z</time>
      </trkpt>
      <trkpt lat="43.15984" lon="3.16202">
        <ele>-1.5013613</ele>
        <time>2021-07-20T08:31:06Z</time>
      </trkpt>
      <trkpt lat="43.15986" lon="3.16204">
        <ele>3.8</ele>
        <time>2021-07-20T08:31:07Z</time>
      </trkpt>
      <trkpt lat="43.15988" lon="3.16204">
        <ele>3.9</ele>
        <time>2021-07-20T08:31:08Z</time>
      </trkpt>
      <trkpt lat="43.1599" lon="3.16204">
        <ele>3.9</ele>
        <time>2021-07-20T08:31:09Z</time>
      </trkpt>
      <trkpt lat="43.15989" lon="3.16203">
        <ele>3.9</ele>
        <time>2021-07-20T08:31:10Z</time>
      </trkpt>
      <trkpt lat="43.15989" lon="3.16201">
        <ele>4</ele>
        <time>2021-07-20T08:31:11Z</time>
      </trkpt>
      <trkpt lat="43.15989" lon="3.16198">
        <ele>4</ele>
        <time>2021-07-20T08:31:12Z</time>
      </trkpt>
      <trkpt lat="43.15988" lon="3.16196">
        <ele>4.1</ele>
        <time>2021-07-20T08:31:13Z</time>
      </trkpt>
      <trkpt lat="43.15988" lon="3.16193">
        <ele>4.1</ele>
        <time>2021-07-20T08:31:14Z</time>
      </trkpt>
      <trkpt lat="43.15987" lon="3.16189">
        <ele>4.2</ele>
        <time>2021-07-20T08:31:15Z</time>
      </trkpt>
      <trkpt lat="43.15987" lon="3.16186">
        <ele>-1.6984977</ele>
        <time>2021-07-20T08:31:16Z</time>
      </trkpt>
      <trkpt lat="43.15986" lon="3.16182">
        <ele>4.3</ele>
        <time>2021-07-20T08:31:17Z</time>
      </trkpt>
      <trkpt lat="43.15986" lon="3.16178">
        <ele>4.4</ele>
        <time>2021-07-20T08:31:18Z</time>
      </trkpt>
      <trkpt lat="43.15986" lon="3.16173">
        <ele>4.5</ele>
        <time>2021-07-20T08:31:19Z</time>
      </trkpt>
      <trkpt lat="43.15987" lon="3.16167">
        <ele>4.7</ele>
        <time>2021-07-20T08:31:20Z</time>
      </trkpt>
      <trkpt lat="43.15988" lon="3.16162">
        <ele>5</ele>
        <time>2021-07-20T08:31:21Z</time>
      </trkpt>
      <trkpt lat="43.1599" lon="3.16158">
        <ele>5.3</ele>
        <time>2021-07-20T08:31:22Z</time>
      </trkpt>
      <trkpt lat="43.15992" lon="3.16153">
        <ele>5.7</ele>
        <time>2021-07-20T08:31:23Z</time>
      </trkpt>
      <trkpt lat="43.15996" lon="3.1615">
        <ele>6.1</ele>
        <time>2021-07-20T08:31:24Z</time>
      </trkpt>
      <trkpt lat="43.15999" lon="3.16147">
        <ele>-1.6248311</ele>
        <time>2021-07-20T08:31:25Z</time>
      </trkpt>
      <trkpt lat="43.16003" lon="3.16148">
        <ele>6.5</ele>
        <time>2021-07-20T08:31:26Z</time>
      </trkpt>
      <trkpt lat="43.16007" lon="3.16149">
        <ele>6.6</ele>
        <time>2021-07-20T08:31:27Z</time>
      </trkpt>
      <trkpt lat="43.1601" lon="3.1615">
        <ele>6.6</ele>
        <time>2021-07-20T08:31:28Z</time>
      </trkpt>
      <trkpt lat="43.16013" lon="3.16151">
        <ele>6.7</ele>
        <time>2021-07-20T08:31:29Z</time>
      </trkpt>
      <trkpt lat="43.16017" lon="3.16153">
        <ele>6.7</ele>
        <time>2021-07-20T08:31:30Z</time>
      </trkpt>
      <trkpt lat="43.16021" lon="3.16156">
        <ele>6.6</ele>
        <time>2021-07-20T08:31:31Z</time>
      </trkpt>
      <trkpt lat="43.16025" lon="3.16158">
        <ele>6.5</ele>
        <time>2021-07-20T08:31:32Z</time>
      </trkpt>
      <trkpt lat="43.16029" lon="3.16161">
        <ele>6.5</ele>
        <time>2021-07-20T08:31:33Z</time>
      </trkpt>
      <trkpt lat="43.16033" lon="3.16164">
        <ele>6.4</ele>
        <time>2021-07-20T08:31:34Z</time>
      </trkpt>
      <trkpt lat="43.16037" lon="3.16167">
        <ele>-1.2502693</ele>
        <time>2021-07-20T08:31:35Z</time>
      </trkpt>
      <trkpt lat="43.16041" lon="3.1617">
        <ele>6.4</ele>
        <time>2021-07-20T08:31:36Z</time>
      </trkpt>
      <trkpt lat="43.16045" lon="3.16172">
        <ele>6.4</ele>
        <time>2021-07-20T08:31:37Z</time>
      </trkpt>
      <trkpt lat="43.16049" lon="3.16174">
        <ele>6.5</ele>
        <time>2021-07-20T08:31:38Z</time>
      </trkpt>
      <trkpt lat="43.16053" lon="3.16176">
        <ele>6.6</ele>
        <time>2021-07-20T08:31:39Z</time>
      </trkpt>
      <trkpt lat="43.16058" lon="3.16178">
        <ele>6.7</ele>
        <time>2021-07-20T08:31:40Z</time>
      </trkpt>
      <trkpt lat="43.16062" lon="3.1618">
        <ele>6.8</ele>
        <time>2021-07-20T08:31:41Z</time>
      </trkpt>
      <trkpt lat="43.16067" lon="3.16181">
        <ele>6.9</ele>
        <time>2021-07-20T08:31:42Z</time>
      </trkpt>
      <trkpt lat="43.16071" lon="3.16182">
        <ele>7</ele>
        <time>2021-07-20T08:31:43Z</time>
      </trkpt>
      <trkpt lat="43.16076" lon="3.16183">
        <ele>7.2</ele>
        <time>2021-07-20T08:31:44Z</time>
      </trkpt>
      <trkpt lat="43.1608" lon="3.16184">
        <ele>-1.010588</ele>
        <time>2021-07-20T08:31:45Z</time>
      </trkpt>
      <trkpt lat="43.16084" lon="3.16184">
        <ele>7.4</ele>
        <time>2021-07-20T08:31:46Z</time>
      </trkpt>
      <trkpt lat="43.16088" lon="3.16185">
        <ele>7.5</ele>
        <time>2021-07-20T08:31:47Z</time>
      </trkpt>
      <trkpt lat="43.16092" lon="3.16186">
        <ele>7.7</ele>
        <time>2021-07-20T08:31:48Z</time>
      </trkpt>
      <trkpt lat="43.16096" lon="3.16186">
        <ele>7.8</ele>
        <time>2021-07-20T08:31:49Z</time>
      </trkpt>
      <trkpt lat="43.161" lon="3.16187">
        <ele>8</ele>
        <time>2021-07-20T08:31:50Z</time>
      </trkpt>
      <trkpt lat="43.16104" lon="3.16188">
        <ele>8.1</ele>
        <time>2021-07-20T08:31:51Z</time>
      </trkpt>
      <trkpt lat="43.16108" lon="3.16189">
        <ele>8.2</ele>
        <time>2021-07-20T08:31:52Z</time>
      </trkpt>
      <trkpt lat="43.16112" lon="3.1619">
        <ele>8.3</ele>
        <time>2021-07-20T08:31:53Z</time>
      </trkpt>
      <trkpt lat="43.16115" lon="3.1619">
        <ele>8.5</ele>
        <time>2021-07-20T08:31:54Z</time>
      </trkpt>
      <trkpt lat="43.16119" lon="3.16191">
        <ele>-1.0904821</ele>
        <time>2021-07-20T08:31:55Z</time>
      </trkpt>
      <trkpt lat="43.16122" lon="3.16192">
        <ele>8.7</ele>
        <time>2021-07-20T08:31:56Z</time>
      </trkpt>
      <trkpt lat="43.16126" lon="3.16192">
        <ele>8.8</ele>
        <time>2021-07-20T08:31:57Z</time>
      </trkpt>
      <trkpt lat="43.1613" lon="3.16193">
        <ele>8.9</ele>
        <time>2021-07-20T08:31:58Z</time>
      </trkpt>
      <trkpt lat="43.16134" lon="3.16194">
        <ele>9.1</ele>
        <time>2021-07-20T08:31:59Z</time>
      </trkpt>
      <trkpt lat="43.16138" lon="3.16194">
        <ele>9.2</ele>
        <time>2021-07-20T08:32:00Z</time>
      </trkpt>
      <trkpt lat="43.16141" lon="3.16195">
        <ele>9.3</ele>
        <time>2021-07-20T08:32:01Z</time>
      </trkpt>
      <trkpt lat="43.16145" lon="3.16196">
        <ele>9.4</ele>
        <time>2021-07-20T08:32:02Z</time>
      </trkpt>
      <trkpt lat="43.16148" lon="3.16195">
        <ele>9.6</ele>
        <time>2021-07-20T08:32:03Z</time>
      </trkpt>
      <trkpt lat="43.16152" lon="3.16195">
        <ele>9.7</ele>
        <time>2021-07-20T08:32:04Z</time>
      </trkpt>
      <trkpt lat="43.16155" lon="3.16195">
        <ele>9.8</ele>
        <time>2021-07-20T08:32:05Z</time>
      </trkpt>
      <trkpt lat="43.16158" lon="3.16193">
        <ele>-0.8113706</ele>
        <time>2021-07-20T08:32:06Z</time>
      </trkpt>
      <trkpt lat="43.16161" lon="3.16191">
        <ele>10.3</ele>
        <time>2021-07-20T08:32:07Z</time>
      </trkpt>
      <trkpt lat="43.16164" lon="3.1619">
        <ele>10.5</ele>
        <time>2021-07-20T08:32:08Z</time>
      </trkpt>
      <trkpt lat="43.16167" lon="3.16187">
        <ele>10.8</ele>
        <time>2021-07-20T08:32:09Z</time>
      </trkpt>
      <trkpt lat="43.1617" lon="3.16185">
        <ele>11.1</ele>
        <time>2021-07-20T08:32:10Z</time>
      </trkpt>
      <trkpt lat="43.16173" lon="3.16183">
        <ele>11.4</ele>
        <time>2021-07-20T08:32:11Z</time>
      </trkpt>
      <trkpt lat="43.16176" lon="3.1618">
        <ele>11.7</ele>
        <time>2021-07-20T08:32:12Z</time>
      </trkpt>
      <trkpt lat="43.16179" lon="3.16178">
        <ele>12</ele>
        <time>2021-07-20T08:32:13Z</time>
      </trkpt>
      <trkpt lat="43.16182" lon="3.16176">
        <ele>12.3</ele>
        <time>2021-07-20T08:32:14Z</time>
      </trkpt>
      <trkpt lat="43.16185" lon="3.16174">
        <ele>12.6</ele>
        <time>2021-07-20T08:32:15Z</time>
      </trkpt>
      <trkpt lat="43.16188" lon="3.16172">
        <ele>-0.6661068</ele>
        <time>2021-07-20T08:32:16Z</time>
      </trkpt>
      <trkpt lat="43.16192" lon="3.16171">
        <ele>13.2</ele>
        <time>2021-07-20T08:32:17Z</time>
      </trkpt>
      <trkpt lat="43.16195" lon="3.1617">
        <ele>13.4</ele>
        <time>2021-07-20T08:32:18Z</time>
      </trkpt>
      <trkpt lat="43.16198" lon="3.16169">
        <ele>13.7</ele>
        <time>2021-07-20T08:32:19Z</time>
      </trkpt>
      <trkpt lat="43.16201" lon="3.16169">
        <ele>13.9</ele>
        <time>2021-07-20T08:32:20Z</time>
      </trkpt>
      <trkpt lat="43.16205" lon="3.1617">
        <ele>14</ele>
        <time>2021-07-20T08:32:21Z</time>
      </trkpt>
      <trkpt lat="43.16208" lon="3.16172">
        <ele>14</ele>
        <time>2021-07-20T08:32:22Z</time>
      </trkpt>
      <trkpt lat="43.16211" lon="3.16174">
        <ele>14.1</ele>
        <time>2021-07-20T08:32:23Z</time>
      </trkpt>
      <trkpt lat="43.16215" lon="3.16175">
        <ele>14.1</ele>
        <time>2021-07-20T08:32:24Z</time>
      </trkpt>
      <trkpt lat="43.16217" lon="3.16178">
        <ele>14</ele>
        <time>2021-07-20T08:32:25Z</time>
      </trkpt>
      <trkpt lat="43.16221" lon="3.16181">
        <ele>-0.55612075</ele>
        <time>2021-07-20T08:32:26Z</time>
      </trkpt>
      <trkpt lat="43.16223" lon="3.16184">
        <ele>13.8</ele>
        <time>2021-07-20T08:32:27Z</time>
      </trkpt>
      <trkpt lat="43.16226" lon="3.16187">
        <ele>13.6</ele>
        <time>2021-07-20T08:32:28Z</time>
      </trkpt>
      <trkpt lat="43.16228" lon="3.1619">
        <ele>13.4</ele>
        <time>2021-07-20T08:32:29Z</time>
      </trkpt>
      <trkpt lat="43.16231" lon="3.16193">
        <ele>13.3</ele>
        <time>2021-07-20T08:32:30Z</time>
      </trkpt>
      <trkpt lat="43.16233" lon="3.16196">
        <ele>13.1</ele>
        <time>2021-07-20T08:32:31Z</time>
      </trkpt>
      <trkpt lat="43.16235" lon="3.16199">
        <ele>12.9</ele>
        <time>2021-07-20T08:32:32Z</time>
      </trkpt>
      <trkpt lat="43.16237" lon="3.16202">
        <ele>12.7</ele>
        <time>2021-07-20T08:32:33Z</time>
      </trkpt>
      <trkpt lat="43.16239" lon="3.16205">
        <ele>12.5</ele>
        <time>2021-07-20T08:32:34Z</time>
      </trkpt>
      <trkpt lat="43.16242" lon="3.16208">
        <ele>12.3</ele>
        <time>2021-07-20T08:32:35Z</time>
      </trkpt>
      <trkpt lat="43.16244" lon="3.1621">
        <ele>-0.6090386</ele>
        <time>2021-07-20T08:32:36Z</time>
      </trkpt>
      <trkpt lat="43.16246" lon="3.16212">
        <ele>11.9</ele>
        <time>2021-07-20T08:32:37Z</time>
      </trkpt>
      <trkpt lat="43.16249" lon="3.16215">
        <ele>11.7</ele>
        <time>2021-07-20T08:32:38Z</time>
      </trkpt>
      <trkpt lat="43.16252" lon="3.16218">
        <ele>11.6</ele>
        <time>2021-07-20T08:32:39Z</time>
      </trkpt>
      <trkpt lat="43.16255" lon="3.16221">
        <ele>11.4</ele>
        <time>2021-07-20T08:32:40Z</time>
      </trkpt>
      <trkpt lat="43.16258" lon="3.16223">
        <ele>11.3</ele>
        <time>2021-07-20T08:32:41Z</time>
      </trkpt>
      <trkpt lat="43.16261" lon="3.16226">
        <ele>11.2</ele>
        <time>2021-07-20T08:32:42Z</time>
      </trkpt>
      <trkpt lat="43.16264" lon="3.16229">
        <ele>11</ele>
        <time>2021-07-20T08:32:43Z</time>
      </trkpt>
      <trkpt lat="43.16267" lon="3.16232">
        <ele>10.7</ele>
        <time>2021-07-20T08:32:44Z</time>
      </trkpt>
      <trkpt lat="43.1627" lon="3.16235">
        <ele>10.5</ele>
        <time>2021-07-20T08:32:45Z</time>
      </trkpt>
      <trkpt lat="43.16273" lon="3.16238">
        <ele>-0.4897138</ele>
        <time>2021-07-20T08:32:46Z</time>
      </trkpt>
      <trkpt lat="43.16275" lon="3.16241">
        <ele>9.9</ele>
        <time>2021-07-20T08:32:47Z</time>
      </trkpt>
      <trkpt lat="43.16277" lon="3.16244">
        <ele>9.7</ele>
        <time>2021-07-20T08:32:48Z</time>
      </trkpt>
      <trkpt lat="43.1628" lon="3.16246">
        <ele>9.5</ele>
        <time>2021-07-20T08:32:49Z</time>
      </trkpt>
      <trkpt lat="43.16282" lon="3.16249">
        <ele>9.3</ele>
        <time>2021-07-20T08:32:50Z</time>
      </trkpt>
      <trkpt lat="43.16284" lon="3.16251">
        <ele>9.2</ele>
        <time>2021-07-20T08:32:51Z</time>
      </trkpt>
      <trkpt lat="43.16287" lon="3.16253">
        <ele>9.2</ele>
        <time>2021-07-20T08:32:52Z</time>
      </trkpt>
      <trkpt lat="43.16289" lon="3.16255">
        <ele>9.2</ele>
        <time>2021-07-20T08:32:53Z</time>
      </trkpt>
      <trkpt lat="43.16291" lon="3.16257">
        <ele>9.2</ele>
        <time>2021-07-20T08:32:54Z</time>
      </trkpt>
      <trkpt lat="43.16294" lon="3.1626">
        <ele>9.2</ele>
        <time>2021-07-20T08:32:55Z</time>
      </trkpt>
      <trkpt lat="43.16295" lon="3.16262">
        <ele>-0.23030984</ele>
        <time>2021-07-20T08:32:56Z</time>
      </trkpt>
      <trkpt lat="43.16298" lon="3.16263">
        <ele>9.1</ele>
        <time>2021-07-20T08:32:57Z</time>
      </trkpt>
      <trkpt lat="43.163" lon="3.16266">
        <ele>9.1</ele>
        <time>2021-07-20T08:32:58Z</time>
      </trkpt>
      <trkpt lat="43.16301" lon="3.16269">
        <ele>9</ele>
        <time>2021-07-20T08:32:59Z</time>
      </trkpt>
      <trkpt lat="43.16304" lon="3.16272">
        <ele>9</ele>
        <time>2021-07-20T08:33:00Z</time>
      </trkpt>
      <trkpt lat="43.16306" lon="3.16276">
        <ele>8.9</ele>
        <time>2021-07-20T08:33:01Z</time>
      </trkpt>
      <trkpt lat="43.16307" lon="3.16279">
        <ele>8.8</ele>
        <time>2021-07-20T08:33:02Z</time>
      </trkpt>
      <trkpt lat="43.16309" lon="3.16282">
        <ele>8.7</ele>
        <time>2021-07-20T08:33:03Z</time>
      </trkpt>
      <trkpt lat="43.16311" lon="3.16285">
        <ele>8.6</ele>
        <time>2021-07-20T08:33:04Z</time>
      </trkpt>
      <trkpt lat="43.16313" lon="3.16288">
        <ele>-0.20644453</ele>
        <time>2021-07-20T08:33:05Z</time>
      </trkpt>
      <trkpt lat="43.16315" lon="3.1629">
        <ele>8.5</ele>
        <time>2021-07-20T08:33:06Z</time>
      </trkpt>
      <trkpt lat="43.16316" lon="3.16293">
        <ele>8.4</ele>
        <time>2021-07-20T08:33:07Z</time>
      </trkpt>
      <trkpt lat="43.16319" lon="3.16295">
        <ele>8.4</ele>
        <time>2021-07-20T08:33:08Z</time>
      </trkpt>
      <trkpt lat="43.1632" lon="3.16298">
        <ele>8.3</ele>
        <time>2021-07-20T08:33:09Z</time>
      </trkpt>
      <trkpt lat="43.16323" lon="3.163">
        <ele>8.3</ele>
        <time>2021-07-20T08:33:10Z</time>
      </trkpt>
      <trkpt lat="43.16325" lon="3.16303">
        <ele>8.2</ele>
        <time>2021-07-20T08:33:11Z</time>
      </trkpt>
      <trkpt lat="43.16327" lon="3.16306">
        <ele>8.1</ele>
        <time>2021-07-20T08:33:12Z</time>
      </trkpt>
      <trkpt lat="43.16329" lon="3.16308">
        <ele>8.1</ele>
        <time>2021-07-20T08:33:13Z</time>
      </trkpt>
      <trkpt lat="43.16332" lon="3.16311">
        <ele>8</ele>
        <time>2021-07-20T08:33:14Z</time>
      </trkpt>
      <trkpt lat="43.16334" lon="3.16314">
        <ele>-0.28219086</ele>
        <time>2021-07-20T08:33:15Z</time>
      </trkpt>
      <trkpt lat="43.16336" lon="3.16316">
        <ele>8.1</ele>
        <time>2021-07-20T08:33:16Z</time>
      </trkpt>
      <trkpt lat="43.16338" lon="3.16319">
        <ele>8.1</ele>
        <time>2021-07-20T08:33:17Z</time>
      </trkpt>
      <trkpt lat="43.1634" lon="3.16322">
        <ele>8.1</ele>
        <time>2021-07-20T08:33:18Z</time>
      </trkpt>
      <trkpt lat="43.16343" lon="3.16323">
        <ele>8.3</ele>
        <time>2021-07-20T08:33:19Z</time>
      </trkpt>
      <trkpt lat="43.16345" lon="3.16326">
        <ele>8.4</ele>
        <time>2021-07-20T08:33:20Z</time>
      </trkpt>
      <trkpt lat="43.16348" lon="3.16328">
        <ele>8.5</ele>
        <time>2021-07-20T08:33:21Z</time>
      </trkpt>
      <trkpt lat="43.16351" lon="3.16331">
        <ele>8.6</ele>
        <time>2021-07-20T08:33:22Z</time>
      </trkpt>
      <trkpt lat="43.16353" lon="3.16333">
        <ele>8.7</ele>
        <time>2021-07-20T08:33:23Z</time>
      </trkpt>
      <trkpt lat="43.16355" lon="3.16336">
        <ele>8.7</ele>
        <time>2021-07-20T08:33:24Z</time>
      </trkpt>
      <trkpt lat="43.16356" lon="3.16339">
        <ele>0.014570168</ele>
        <time>2021-07-20T08:33:25Z</time>
      </trkpt>
      <trkpt lat="43.16358" lon="3.16342">
        <ele>8.8</ele>
        <time>2021-07-20T08:33:26Z</time>
      </trkpt>
      <trkpt lat="43.1636" lon="3.16345">
        <ele>8.8</ele>
        <time>2021-07-20T08:33:27Z</time>
      </trkpt>
      <trkpt lat="43.16362" lon="3.16347">
        <ele>8.9</ele>
        <time>2021-07-20T08:33:28Z</time>
      </trkpt>
      <trkpt lat="43.16364" lon="3.1635">
        <ele>8.9</ele>
        <time>2021-07-20T08:33:29Z</time>
      </trkpt>
      <trkpt lat="43.16365" lon="3.16353">
        <ele>9</ele>
        <time>2021-07-20T08:33:30Z</time>
      </trkpt>
      <trkpt lat="43.16367" lon="3.16356">
        <ele>9</ele>
        <time>2021-07-20T08:33:31Z</time>
      </trkpt>
      <trkpt lat="43.16369" lon="3.16359">
        <ele>9</ele>
        <time>2021-07-20T08:33:32Z</time>
      </trkpt>
      <trkpt lat="43.1637" lon="3.16362">
        <ele>9.1</ele>
        <time>2021-07-20T08:33:33Z</time>
      </trkpt>
      <trkpt lat="43.16373" lon="3.16364">
        <ele>9.2</ele>
        <time>2021-07-20T08:33:34Z</time>
      </trkpt>
      <trkpt lat="43.16375" lon="3.16367">
        <ele>1.2919315</ele>
        <time>2021-07-20T08:33:35Z</time>
      </trkpt>
      <trkpt lat="43.16376" lon="3.16372">
        <ele>9.2</ele>
        <time>2021-07-20T08:33:36Z</time>
      </trkpt>
      <trkpt lat="43.16377" lon="3.16376">
        <ele>9.1</ele>
        <time>2021-07-20T08:33:37Z</time>
      </trkpt>
      <trkpt lat="43.16378" lon="3.16381">
        <ele>9.1</ele>
        <time>2021-07-20T08:33:38Z</time>
      </trkpt>
      <trkpt lat="43.1638" lon="3.16387">
        <ele>9</ele>
        <time>2021-07-20T08:33:39Z</time>
      </trkpt>
      <trkpt lat="43.1638" lon="3.16392">
        <ele>8.8</ele>
        <time>2021-07-20T08:33:40Z</time>
      </trkpt>
      <trkpt lat="43.16382" lon="3.16397">
        <ele>8.8</ele>
        <time>2021-07-20T08:33:41Z</time>
      </trkpt>
      <trkpt lat="43.16383" lon="3.16402">
        <ele>8.7</ele>
        <time>2021-07-20T08:33:42Z</time>
      </trkpt>
      <trkpt lat="43.16384" lon="3.16407">
        <ele>8.6</ele>
        <time>2021-07-20T08:33:43Z</time>
      </trkpt>
      <trkpt lat="43.16385" lon="3.16412">
        <ele>8.5</ele>
        <time>2021-07-20T08:33:44Z</time>
      </trkpt>
      <trkpt lat="43.16386" lon="3.16417">
        <ele>8.5</ele>
        <time>2021-07-20T08:33:45Z</time>
      </trkpt>
      <trkpt lat="43.16388" lon="3.16422">
        <ele>1.4994705</ele>
        <time>2021-07-20T08:33:46Z</time>
      </trkpt>
      <trkpt lat="43.16389" lon="3.16427">
        <ele>8.4</ele>
        <time>2021-07-20T08:33:47Z</time>
      </trkpt>
      <trkpt lat="43.16391" lon="3.16432">
        <ele>8.4</ele>
        <time>2021-07-20T08:33:48Z</time>
      </trkpt>
      <trkpt lat="43.16392" lon="3.16437">
        <ele>8.4</ele>
        <time>2021-07-20T08:33:49Z</time>
      </trkpt>
      <trkpt lat="43.16394" lon="3.16442">
        <ele>8.4</ele>
        <time>2021-07-20T08:33:50Z</time>
      </trkpt>
      <trkpt lat="43.16395" lon="3.16447">
        <ele>8.4</ele>
        <time>2021-07-20T08:33:51Z</time>
      </trkpt>
      <trkpt lat="43.16397" lon="3.16453">
        <ele>8.3</ele>
        <time>2021-07-20T08:33:52Z</time>
      </trkpt>
      <trkpt lat="43.16399" lon="3.16458">
        <ele>8.3</ele>
        <time>2021-07-20T08:33:53Z</time>
      </trkpt>
      <trkpt lat="43.16401" lon="3.16464">
        <ele>8.3</ele>
        <time>2021-07-20T08:33:54Z</time>
      </trkpt>
      <trkpt lat="43.16402" lon="3.16469">
        <ele>8.2</ele>
        <time>2021-07-20T08:33:55Z</time>
      </trkpt>
      <trkpt lat="43.16404" lon="3.16475">
        <ele>0.61329204</ele>
        <time>2021-07-20T08:33:56Z</time>
      </trkpt>
      <trkpt lat="43.16406" lon="3.1648">
        <ele>8.1</ele>
        <time>2021-07-20T08:33:57Z</time>
      </trkpt>
      <trkpt lat="43.16407" lon="3.16486">
        <ele>8</ele>
        <time>2021-07-20T08:33:58Z</time>
      </trkpt>
      <trkpt lat="43.16408" lon="3.16492">
        <ele>7.8</ele>
        <time>2021-07-20T08:33:59Z</time>
      </trkpt>
      <trkpt lat="43.16407" lon="3.16499">
        <ele>7.6</ele>
        <time>2021-07-20T08:34:00Z</time>
      </trkpt>
      <trkpt lat="43.16407" lon="3.16505">
        <ele>7.4</ele>
        <time>2021-07-20T08:34:01Z</time>
      </trkpt>
      <trkpt lat="43.16406" lon="3.16511">
        <ele>7.3</ele>
        <time>2021-07-20T08:34:02Z</time>
      </trkpt>
      <trkpt lat="43.16404" lon="3.16517">
        <ele>7.1</ele>
        <time>2021-07-20T08:34:03Z</time>
      </trkpt>
      <trkpt lat="43.16403" lon="3.16523">
        <ele>6.9</ele>
        <time>2021-07-20T08:34:04Z</time>
      </trkpt>
      <trkpt lat="43.16402" lon="3.1653">
        <ele>6.7</ele>
        <time>2021-07-20T08:34:05Z</time>
      </trkpt>
      <trkpt lat="43.16401" lon="3.16536">
        <ele>-0.10060677</ele>
        <time>2021-07-20T08:34:06Z</time>
      </trkpt>
      <trkpt lat="43.16401" lon="3.16542">
        <ele>6.4</ele>
        <time>2021-07-20T08:34:07Z</time>
      </trkpt>
      <trkpt lat="43.164" lon="3.16548">
        <ele>6.3</ele>
        <time>2021-07-20T08:34:08Z</time>
      </trkpt>
      <trkpt lat="43.164" lon="3.16554">
        <ele>6.2</ele>
        <time>2021-07-20T08:34:09Z</time>
      </trkpt>
      <trkpt lat="43.16399" lon="3.1656">
        <ele>6</ele>
        <time>2021-07-20T08:34:10Z</time>
      </trkpt>
      <trkpt lat="43.16399" lon="3.16566">
        <ele>5.9</ele>
        <time>2021-07-20T08:34:11Z</time>
      </trkpt>
      <trkpt lat="43.16399" lon="3.16572">
        <ele>5.8</ele>
        <time>2021-07-20T08:34:12Z</time>
      </trkpt>
      <trkpt lat="43.16399" lon="3.16578">
        <ele>5.7</ele>
        <time>2021-07-20T08:34:13Z</time>
      </trkpt>
      <trkpt lat="43.16399" lon="3.16584">
        <ele>5.6</ele>
        <time>2021-07-20T08:34:14Z</time>
      </trkpt>
      <trkpt lat="43.16398" lon="3.16589">
        <ele>5.5</ele>
        <time>2021-07-20T08:34:15Z</time>
      </trkpt>
      <trkpt lat="43.16398" lon="3.16595">
        <ele>-1.09567</ele>
        <time>2021-07-20T08:34:16Z</time>
      </trkpt>
      <trkpt lat="43.16398" lon="3.166">
        <ele>5.5</ele>
        <time>2021-07-20T08:34:17Z</time>
      </trkpt>
      <trkpt lat="43.16398" lon="3.16605">
        <ele>5.5</ele>
        <time>2021-07-20T08:34:18Z</time>
      </trkpt>
      <trkpt lat="43.16398" lon="3.1661">
        <ele>5.5</ele>
        <time>2021-07-20T08:34:19Z</time>
      </trkpt>
      <trkpt lat="43.16398" lon="3.16616">
        <ele>5.5</ele>
        <time>2021-07-20T08:34:20Z</time>
      </trkpt>
      <trkpt lat="43.16399" lon="3.1662">
        <ele>5.5</ele>
        <time>2021-07-20T08:34:21Z</time>
      </trkpt>
      <trkpt lat="43.164" lon="3.16624">
        <ele>5.5</ele>
        <time>2021-07-20T08:34:22Z</time>
      </trkpt>
      <trkpt lat="43.16402" lon="3.16628">
        <ele>5.6</ele>
        <time>2021-07-20T08:34:23Z</time>
      </trkpt>
      <trkpt lat="43.16404" lon="3.1663">
        <ele>5.6</ele>
        <time>2021-07-20T08:34:24Z</time>
      </trkpt>
      <trkpt lat="43.16406" lon="3.16633">
        <ele>5.7</ele>
        <time>2021-07-20T08:34:25Z</time>
      </trkpt>
      <trkpt lat="43.16408" lon="3.16636">
        <ele>-1.5366384</ele>
        <time>2021-07-20T08:34:26Z</time>
      </trkpt>
      <trkpt lat="43.1641" lon="3.16638">
        <ele>5.8</ele>
        <time>2021-07-20T08:34:27Z</time>
      </trkpt>
      <trkpt lat="43.16411" lon="3.16641">
        <ele>5.8</ele>
        <time>2021-07-20T08:34:28Z</time>
      </trkpt>
      <trkpt lat="43.16412" lon="3.16643">
        <ele>5.9</ele>
        <time>2021-07-20T08:34:29Z</time>
      </trkpt>
      <trkpt lat="43.16414" lon="3.16645">
        <ele>5.9</ele>
        <time>2021-07-20T08:34:30Z</time>
      </trkpt>
      <trkpt lat="43.16415" lon="3.16648">
        <ele>5.9</ele>
        <time>2021-07-20T08:34:31Z</time>
      </trkpt>
      <trkpt lat="43.16416" lon="3.1665">
        <ele>6</ele>
        <time>2021-07-20T08:34:32Z</time>
      </trkpt>
      <trkpt lat="43.16417" lon="3.16652">
        <ele>6.1</ele>
        <time>2021-07-20T08:34:33Z</time>
      </trkpt>
      <trkpt lat="43.16419" lon="3.16654">
        <ele>6.3</ele>
        <time>2021-07-20T08:34:34Z</time>
      </trkpt>
      <trkpt lat="43.16419" lon="3.16656">
        <ele>6.4</ele>
        <time>2021-07-20T08:34:35Z</time>
      </trkpt>
      <trkpt lat="43.16421" lon="3.16658">
        <ele>-1.8800691</ele>
        <time>2021-07-20T08:34:36Z</time>
      </trkpt>
      <trkpt lat="43.16422" lon="3.1666">
        <ele>6.8</ele>
        <time>2021-07-20T08:34:37Z</time>
      </trkpt>
      <trkpt lat="43.16422" lon="3.16661">
        <ele>6.9</ele>
        <time>2021-07-20T08:34:38Z</time>
      </trkpt>
      <trkpt lat="43.16424" lon="3.16664">
        <ele>7.2</ele>
        <time>2021-07-20T08:34:39Z</time>
      </trkpt>
      <trkpt lat="43.16425" lon="3.16665">
        <ele>7.4</ele>
        <time>2021-07-20T08:34:40Z</time>
      </trkpt>
      <trkpt lat="43.16426" lon="3.16669">
        <ele>7.5</ele>
        <time>2021-07-20T08:34:41Z</time>
      </trkpt>
      <trkpt lat="43.16428" lon="3.16672">
        <ele>7.7</ele>
        <time>2021-07-20T08:34:42Z</time>
      </trkpt>
      <trkpt lat="43.16429" lon="3.16677">
        <ele>7.8</ele>
        <time>2021-07-20T08:34:43Z</time>
      </trkpt>
      <trkpt lat="43.16431" lon="3.16681">
        <ele>8</ele>
        <time>2021-07-20T08:34:44Z</time>
      </trkpt>
      <trkpt lat="43.16432" lon="3.16686">
        <ele>-2.2421703</ele>
        <time>2021-07-20T08:34:45Z</time>
      </trkpt>
      <trkpt lat="43.16433" lon="3.16691">
        <ele>8</ele>
        <time>2021-07-20T08:34:46Z</time>
      </trkpt>
      <trkpt lat="43.16434" lon="3.16697">
        <ele>8.1</ele>
        <time>2021-07-20T08:34:47Z</time>
      </trkpt>
      <trkpt lat="43.16435" lon="3.16701">
        <ele>8.2</ele>
        <time>2021-07-20T08:34:48Z</time>
      </trkpt>
      <trkpt lat="43.16437" lon="3.16706">
        <ele>8.3</ele>
        <time>2021-07-20T08:34:49Z</time>
      </trkpt>
      <trkpt lat="43.16438" lon="3.16711">
        <ele>8.4</ele>
        <time>2021-07-20T08:34:50Z</time>
      </trkpt>
      <trkpt lat="43.16441" lon="3.16716">
        <ele>8.7</ele>
        <time>2021-07-20T08:34:51Z</time>
      </trkpt>
      <trkpt lat="43.16443" lon="3.16721">
        <ele>8.8</ele>
        <time>2021-07-20T08:34:52Z</time>
      </trkpt>
      <trkpt lat="43.16445" lon="3.16725">
        <ele>9.1</ele>
        <time>2021-07-20T08:34:53Z</time>
      </trkpt>
      <trkpt lat="43.16447" lon="3.16729">
        <ele>9.3</ele>
        <time>2021-07-20T08:34:54Z</time>
      </trkpt>
      <trkpt lat="43.16449" lon="3.16733">
        <ele>-2.2017064</ele>
        <time>2021-07-20T08:34:55Z</time>
      </trkpt>
      <trkpt lat="43.16452" lon="3.16737">
        <ele>9.8</ele>
        <time>2021-07-20T08:34:56Z</time>
      </trkpt>
      <trkpt lat="43.16454" lon="3.16741">
        <ele>10.1</ele>
        <time>2021-07-20T08:34:57Z</time>
      </trkpt>
      <trkpt lat="43.16457" lon="3.16745">
        <ele>10.4</ele>
        <time>2021-07-20T08:34:58Z</time>
      </trkpt>
      <trkpt lat="43.16459" lon="3.16749">
        <ele>10.6</ele>
        <time>2021-07-20T08:34:59Z</time>
      </trkpt>
      <trkpt lat="43.16461" lon="3.16753">
        <ele>10.8</ele>
        <time>2021-07-20T08:35:00Z</time>
      </trkpt>
      <trkpt lat="43.16464" lon="3.16757">
        <ele>10.9</ele>
        <time>2021-07-20T08:35:01Z</time>
      </trkpt>
      <trkpt lat="43.16465" lon="3.16761">
        <ele>11</ele>
        <time>2021-07-20T08:35:02Z</time>
      </trkpt>
      <trkpt lat="43.16467" lon="3.16764">
        <ele>11</ele>
        <time>2021-07-20T08:35:03Z</time>
      </trkpt>
      <trkpt lat="43.16469" lon="3.16768">
        <ele>11.1</ele>
        <time>2021-07-20T08:35:04Z</time>
      </trkpt>
      <trkpt lat="43.16471" lon="3.16772">
        <ele>-2.1819932</ele>
        <time>2021-07-20T08:35:05Z</time>
      </trkpt>
      <trkpt lat="43.16473" lon="3.16776">
        <ele>11.2</ele>
        <time>2021-07-20T08:35:06Z</time>
      </trkpt>
      <trkpt lat="43.16475" lon="3.16779">
        <ele>11.2</ele>
        <time>2021-07-20T08:35:07Z</time>
      </trkpt>
      <trkpt lat="43.16478" lon="3.16783">
        <ele>11.2</ele>
        <time>2021-07-20T08:35:08Z</time>
      </trkpt>
      <trkpt lat="43.1648" lon="3.16787">
        <ele>11.2</ele>
        <time>2021-07-20T08:35:09Z</time>
      </trkpt>
      <trkpt lat="43.16482" lon="3.16791">
        <ele>11.2</ele>
        <time>2021-07-20T08:35:10Z</time>
      </trkpt>
      <trkpt lat="43.16483" lon="3.16795">
        <ele>11.1</ele>
        <time>2021-07-20T08:35:11Z</time>
      </trkpt>
      <trkpt lat="43.16485" lon="3.16799">
        <ele>11.1</ele>
        <time>2021-07-20T08:35:12Z</time>
      </trkpt>
      <trkpt lat="43.16487" lon="3.16803">
        <ele>11</ele>
        <time>2021-07-20T08:35:13Z</time>
      </trkpt>
      <trkpt lat="43.16488" lon="3.16808">
        <ele>10.7</ele>
        <time>2021-07-20T08:35:14Z</time>
      </trkpt>
      <trkpt lat="43.16487" lon="3.16812">
        <ele>-2.3604484</ele>
        <time>2021-07-20T08:35:15Z</time>
      </trkpt>
      <trkpt lat="43.16486" lon="3.16817">
        <ele>9.9</ele>
        <time>2021-07-20T08:35:16Z</time>
      </trkpt>
      <trkpt lat="43.16486" lon="3.16822">
        <ele>9.5</ele>
        <time>2021-07-20T08:35:17Z</time>
      </trkpt>
      <trkpt lat="43.16485" lon="3.16826">
        <ele>9.1</ele>
        <time>2021-07-20T08:35:18Z</time>
      </trkpt>
      <trkpt lat="43.16485" lon="3.16831">
        <ele>8.7</ele>
        <time>2021-07-20T08:35:19Z</time>
      </trkpt>
      <trkpt lat="43.16484" lon="3.16835">
        <ele>8.3</ele>
        <time>2021-07-20T08:35:20Z</time>
      </trkpt>
      <trkpt lat="43.16484" lon="3.16839">
        <ele>8.1</ele>
        <time>2021-07-20T08:35:21Z</time>
      </trkpt>
      <trkpt lat="43.16485" lon="3.16843">
        <ele>7.8</ele>
        <time>2021-07-20T08:35:22Z</time>
      </trkpt>
      <trkpt lat="43.16485" lon="3.16848">
        <ele>7.5</ele>
        <time>2021-07-20T08:35:23Z</time>
      </trkpt>
      <trkpt lat="43.16486" lon="3.16852">
        <ele>7.3</ele>
        <time>2021-07-20T08:35:24Z</time>
      </trkpt>
      <trkpt lat="43.16487" lon="3.16857">
        <ele>7.1</ele>
        <time>2021-07-20T08:35:25Z</time>
      </trkpt>
      <trkpt lat="43.16488" lon="3.16861">
        <ele>-2.1768057</ele>
        <time>2021-07-20T08:35:26Z</time>
      </trkpt>
      <trkpt lat="43.16489" lon="3.16865">
        <ele>6.6</ele>
        <time>2021-07-20T08:35:27Z</time>
      </trkpt>
      <trkpt lat="43.1649" lon="3.16869">
        <ele>6.4</ele>
        <time>2021-07-20T08:35:28Z</time>
      </trkpt>
      <trkpt lat="43.16491" lon="3.16872">
        <ele>6.1</ele>
        <time>2021-07-20T08:35:29Z</time>
      </trkpt>
      <trkpt lat="43.16492" lon="3.16876">
        <ele>5.9</ele>
        <time>2021-07-20T08:35:30Z</time>
      </trkpt>
      <trkpt lat="43.16493" lon="3.1688">
        <ele>5.7</ele>
        <time>2021-07-20T08:35:31Z</time>
      </trkpt>
      <trkpt lat="43.16494" lon="3.16884">
        <ele>5.5</ele>
        <time>2021-07-20T08:35:32Z</time>
      </trkpt>
      <trkpt lat="43.16497" lon="3.16887">
        <ele>5.3</ele>
        <time>2021-07-20T08:35:33Z</time>
      </trkpt>
      <trkpt lat="43.16499" lon="3.1689">
        <ele>5.2</ele>
        <time>2021-07-20T08:35:34Z</time>
      </trkpt>
      <trkpt lat="43.16502" lon="3.16892">
        <ele>5.2</ele>
        <time>2021-07-20T08:35:35Z</time>
      </trkpt>
      <trkpt lat="43.16504" lon="3.16895">
        <ele>-2.1031406</ele>
        <time>2021-07-20T08:35:36Z</time>
      </trkpt>
      <trkpt lat="43.16507" lon="3.16897">
        <ele>5.5</ele>
        <time>2021-07-20T08:35:37Z</time>
      </trkpt>
      <trkpt lat="43.1651" lon="3.169">
        <ele>5.7</ele>
        <time>2021-07-20T08:35:38Z</time>
      </trkpt>
      <trkpt lat="43.16513" lon="3.16902">
        <ele>6</ele>
        <time>2021-07-20T08:35:39Z</time>
      </trkpt>
      <trkpt lat="43.16516" lon="3.16904">
        <ele>6.2</ele>
        <time>2021-07-20T08:35:40Z</time>
      </trkpt>
      <trkpt lat="43.16519" lon="3.16907">
        <ele>6.4</ele>
        <time>2021-07-20T08:35:41Z</time>
      </trkpt>
      <trkpt lat="43.16522" lon="3.16909">
        <ele>6.6</ele>
        <time>2021-07-20T08:35:42Z</time>
      </trkpt>
      <trkpt lat="43.16525" lon="3.16913">
        <ele>6.8</ele>
        <time>2021-07-20T08:35:43Z</time>
      </trkpt>
      <trkpt lat="43.16528" lon="3.16916">
        <ele>7</ele>
        <time>2021-07-20T08:35:44Z</time>
      </trkpt>
      <trkpt lat="43.1653" lon="3.1692">
        <ele>7.2</ele>
        <time>2021-07-20T08:35:45Z</time>
      </trkpt>
      <trkpt lat="43.16532" lon="3.16924">
        <ele>-2.02325</ele>
        <time>2021-07-20T08:35:46Z</time>
      </trkpt>
      <trkpt lat="43.16534" lon="3.16928">
        <ele>7.5</ele>
        <time>2021-07-20T08:35:47Z</time>
      </trkpt>
      <trkpt lat="43.16536" lon="3.16931">
        <ele>7.6</ele>
        <time>2021-07-20T08:35:48Z</time>
      </trkpt>
      <trkpt lat="43.16537" lon="3.16936">
        <ele>7.6</ele>
        <time>2021-07-20T08:35:49Z</time>
      </trkpt>
      <trkpt lat="43.16538" lon="3.16941">
        <ele>7.5</ele>
        <time>2021-07-20T08:35:50Z</time>
      </trkpt>
      <trkpt lat="43.16539" lon="3.16946">
        <ele>7.4</ele>
        <time>2021-07-20T08:35:51Z</time>
      </trkpt>
      <trkpt lat="43.16541" lon="3.16951">
        <ele>7.4</ele>
        <time>2021-07-20T08:35:52Z</time>
      </trkpt>
      <trkpt lat="43.16542" lon="3.16956">
        <ele>7.4</ele>
        <time>2021-07-20T08:35:53Z</time>
      </trkpt>
      <trkpt lat="43.16544" lon="3.16961">
        <ele>7.4</ele>
        <time>2021-07-20T08:35:54Z</time>
      </trkpt>
      <trkpt lat="43.16545" lon="3.16964">
        <ele>7.4</ele>
        <time>2021-07-20T08:35:55Z</time>
      </trkpt>
      <trkpt lat="43.16548" lon="3.16968">
        <ele>-1.8385671</ele>
        <time>2021-07-20T08:35:56Z</time>
      </trkpt>
      <trkpt lat="43.16551" lon="3.16971">
        <ele>7.7</ele>
        <time>2021-07-20T08:35:57Z</time>
      </trkpt>
      <trkpt lat="43.16554" lon="3.16974">
        <ele>7.9</ele>
        <time>2021-07-20T08:35:58Z</time>
      </trkpt>
      <trkpt lat="43.16557" lon="3.16977">
        <ele>8</ele>
        <time>2021-07-20T08:35:59Z</time>
      </trkpt>
      <trkpt lat="43.16559" lon="3.16981">
        <ele>8</ele>
        <time>2021-07-20T08:36:00Z</time>
      </trkpt>
      <trkpt lat="43.16562" lon="3.16984">
        <ele>8</ele>
        <time>2021-07-20T08:36:01Z</time>
      </trkpt>
      <trkpt lat="43.16564" lon="3.16988">
        <ele>8.1</ele>
        <time>2021-07-20T08:36:02Z</time>
      </trkpt>
      <trkpt lat="43.16567" lon="3.16991">
        <ele>8.1</ele>
        <time>2021-07-20T08:36:03Z</time>
      </trkpt>
      <trkpt lat="43.16569" lon="3.16995">
        <ele>8.1</ele>
        <time>2021-07-20T08:36:04Z</time>
      </trkpt>
      <trkpt lat="43.16572" lon="3.16998">
        <ele>8.1</ele>
        <time>2021-07-20T08:36:05Z</time>
      </trkpt>
      <trkpt lat="43.16575" lon="3.17002">
        <ele>-1.6320939</ele>
        <time>2021-07-20T08:36:06Z</time>
      </trkpt>
      <trkpt lat="43.16577" lon="3.17005">
        <ele>8.2</ele>
        <time>2021-07-20T08:36:07Z</time>
      </trkpt>
      <trkpt lat="43.16579" lon="3.17009">
        <ele>8.2</ele>
        <time>2021-07-20T08:36:08Z</time>
      </trkpt>
      <trkpt lat="43.16582" lon="3.17012">
        <ele>8.2</ele>
        <time>2021-07-20T08:36:09Z</time>
      </trkpt>
      <trkpt lat="43.16584" lon="3.17016">
        <ele>8.1</ele>
        <time>2021-07-20T08:36:10Z</time>
      </trkpt>
      <trkpt lat="43.16586" lon="3.17019">
        <ele>8.2</ele>
        <time>2021-07-20T08:36:11Z</time>
      </trkpt>
      <trkpt lat="43.16587" lon="3.17023">
        <ele>8.2</ele>
        <time>2021-07-20T08:36:12Z</time>
      </trkpt>
      <trkpt lat="43.16589" lon="3.17027">
        <ele>8.3</ele>
        <time>2021-07-20T08:36:13Z</time>
      </trkpt>
      <trkpt lat="43.16592" lon="3.17031">
        <ele>8.3</ele>
        <time>2021-07-20T08:36:14Z</time>
      </trkpt>
      <trkpt lat="43.16594" lon="3.17034">
        <ele>8.5</ele>
        <time>2021-07-20T08:36:15Z</time>
      </trkpt>
      <trkpt lat="43.16597" lon="3.17036">
        <ele>-1.6590705</ele>
        <time>2021-07-20T08:36:16Z</time>
      </trkpt>
      <trkpt lat="43.166" lon="3.17039">
        <ele>8.9</ele>
        <time>2021-07-20T08:36:17Z</time>
      </trkpt>
      <trkpt lat="43.16604" lon="3.17042">
        <ele>9</ele>
        <time>2021-07-20T08:36:18Z</time>
      </trkpt>
      <trkpt lat="43.16606" lon="3.17044">
        <ele>9.1</ele>
        <time>2021-07-20T08:36:19Z</time>
      </trkpt>
      <trkpt lat="43.16609" lon="3.17047">
        <ele>9.3</ele>
        <time>2021-07-20T08:36:20Z</time>
      </trkpt>
      <trkpt lat="43.16612" lon="3.17049">
        <ele>9.4</ele>
        <time>2021-07-20T08:36:21Z</time>
      </trkpt>
      <trkpt lat="43.16615" lon="3.17051">
        <ele>9.5</ele>
        <time>2021-07-20T08:36:22Z</time>
      </trkpt>
      <trkpt lat="43.16618" lon="3.17053">
        <ele>9.7</ele>
        <time>2021-07-20T08:36:23Z</time>
      </trkpt>
      <trkpt lat="43.16621" lon="3.17054">
        <ele>9.8</ele>
        <time>2021-07-20T08:36:24Z</time>
      </trkpt>
      <trkpt lat="43.16623" lon="3.17056">
        <ele>-1.7337744</ele>
        <time>2021-07-20T08:36:25Z</time>
      </trkpt>
      <trkpt lat="43.16626" lon="3.17058">
        <ele>10.1</ele>
        <time>2021-07-20T08:36:26Z</time>
      </trkpt>
      <trkpt lat="43.16629" lon="3.1706">
        <ele>10.1</ele>
        <time>2021-07-20T08:36:27Z</time>
      </trkpt>
      <trkpt lat="43.16632" lon="3.17062">
        <ele>10.1</ele>
        <time>2021-07-20T08:36:28Z</time>
      </trkpt>
      <trkpt lat="43.16635" lon="3.17064">
        <ele>10.2</ele>
        <time>2021-07-20T08:36:29Z</time>
      </trkpt>
      <trkpt lat="43.16639" lon="3.17065">
        <ele>10.4</ele>
        <time>2021-07-20T08:36:30Z</time>
      </trkpt>
      <trkpt lat="43.16642" lon="3.17066">
        <ele>10.6</ele>
        <time>2021-07-20T08:36:31Z</time>
      </trkpt>
      <trkpt lat="43.16646" lon="3.17068">
        <ele>10.7</ele>
        <time>2021-07-20T08:36:32Z</time>
      </trkpt>
      <trkpt lat="43.16649" lon="3.17069">
        <ele>10.8</ele>
        <time>2021-07-20T08:36:33Z</time>
      </trkpt>
      <trkpt lat="43.16652" lon="3.1707">
        <ele>10.9</ele>
        <time>2021-07-20T08:36:34Z</time>
      </trkpt>
      <trkpt lat="43.16654" lon="3.17071">
        <ele>-1.7960277</ele>
        <time>2021-07-20T08:36:35Z</time>
      </trkpt>
      <trkpt lat="43.16657" lon="3.17073">
        <ele>11</ele>
        <time>2021-07-20T08:36:36Z</time>
      </trkpt>
      <trkpt lat="43.1666" lon="3.17074">
        <ele>11</ele>
        <time>2021-07-20T08:36:37Z</time>
      </trkpt>
      <trkpt lat="43.16663" lon="3.17076">
        <ele>11</ele>
        <time>2021-07-20T08:36:38Z</time>
      </trkpt>
      <trkpt lat="43.16666" lon="3.17078">
        <ele>10.8</ele>
        <time>2021-07-20T08:36:39Z</time>
      </trkpt>
      <trkpt lat="43.16669" lon="3.17082">
        <ele>10.8</ele>
        <time>2021-07-20T08:36:40Z</time>
      </trkpt>
      <trkpt lat="43.16671" lon="3.17085">
        <ele>10.9</ele>
        <time>2021-07-20T08:36:41Z</time>
      </trkpt>
      <trkpt lat="43.16671" lon="3.17088">
        <ele>10.8</ele>
        <time>2021-07-20T08:36:42Z</time>
      </trkpt>
      <trkpt lat="43.16671" lon="3.17093">
        <ele>10.6</ele>
        <time>2021-07-20T08:36:43Z</time>
      </trkpt>
      <trkpt lat="43.1667" lon="3.17097">
        <ele>10.2</ele>
        <time>2021-07-20T08:36:44Z</time>
      </trkpt>
      <trkpt lat="43.16668" lon="3.17103">
        <ele>-1.732737</ele>
        <time>2021-07-20T08:36:45Z</time>
      </trkpt>
      <trkpt lat="43.16666" lon="3.17108">
        <ele>9.1</ele>
        <time>2021-07-20T08:36:46Z</time>
      </trkpt>
      <trkpt lat="43.16665" lon="3.17112">
        <ele>8.9</ele>
        <time>2021-07-20T08:36:47Z</time>
      </trkpt>
      <trkpt lat="43.16666" lon="3.17115">
        <ele>8.8</ele>
        <time>2021-07-20T08:36:48Z</time>
      </trkpt>
      <trkpt lat="43.16667" lon="3.17117">
        <ele>8.8</ele>
        <time>2021-07-20T08:36:49Z</time>
      </trkpt>
      <trkpt lat="43.16668" lon="3.17119">
        <ele>9</ele>
        <time>2021-07-20T08:36:50Z</time>
      </trkpt>
      <trkpt lat="43.16669" lon="3.17122">
        <ele>9.1</ele>
        <time>2021-07-20T08:36:51Z</time>
      </trkpt>
      <trkpt lat="43.16671" lon="3.17126">
        <ele>9.3</ele>
        <time>2021-07-20T08:36:52Z</time>
      </trkpt>
      <trkpt lat="43.16671" lon="3.17131">
        <ele>9.3</ele>
        <time>2021-07-20T08:36:53Z</time>
      </trkpt>
      <trkpt lat="43.16672" lon="3.17135">
        <ele>9.3</ele>
        <time>2021-07-20T08:36:54Z</time>
      </trkpt>
      <trkpt lat="43.16672" lon="3.17139">
        <ele>-1.8862944</ele>
        <time>2021-07-20T08:36:55Z</time>
      </trkpt>
      <trkpt lat="43.16673" lon="3.17143">
        <ele>9.2</ele>
        <time>2021-07-20T08:36:56Z</time>
      </trkpt>
      <trkpt lat="43.16674" lon="3.17146">
        <ele>9.3</ele>
        <time>2021-07-20T08:36:57Z</time>
      </trkpt>
      <trkpt lat="43.16675" lon="3.17148">
        <ele>9.4</ele>
        <time>2021-07-20T08:36:58Z</time>
      </trkpt>
      <trkpt lat="43.16676" lon="3.17151">
        <ele>9.7</ele>
        <time>2021-07-20T08:36:59Z</time>
      </trkpt>
      <trkpt lat="43.16679" lon="3.17154">
        <ele>10.2</ele>
        <time>2021-07-20T08:37:00Z</time>
      </trkpt>
      <trkpt lat="43.16682" lon="3.17157">
        <ele>10.8</ele>
        <time>2021-07-20T08:37:01Z</time>
      </trkpt>
      <trkpt lat="43.16685" lon="3.17159">
        <ele>11.2</ele>
        <time>2021-07-20T08:37:02Z</time>
      </trkpt>
      <trkpt lat="43.16687" lon="3.17162">
        <ele>11.6</ele>
        <time>2021-07-20T08:37:03Z</time>
      </trkpt>
      <trkpt lat="43.1669" lon="3.17166">
        <ele>12.1</ele>
        <time>2021-07-20T08:37:04Z</time>
      </trkpt>
      <trkpt lat="43.16693" lon="3.17169">
        <ele>12.4</ele>
        <time>2021-07-20T08:37:05Z</time>
      </trkpt>
      <trkpt lat="43.16695" lon="3.17173">
        <ele>-1.8883694</ele>
        <time>2021-07-20T08:37:06Z</time>
      </trkpt>
      <trkpt lat="43.16696" lon="3.17178">
        <ele>12.5</ele>
        <time>2021-07-20T08:37:07Z</time>
      </trkpt>
      <trkpt lat="43.16697" lon="3.17184">
        <ele>12.3</ele>
        <time>2021-07-20T08:37:08Z</time>
      </trkpt>
      <trkpt lat="43.16697" lon="3.17189">
        <ele>12</ele>
        <time>2021-07-20T08:37:09Z</time>
      </trkpt>
      <trkpt lat="43.16698" lon="3.17193">
        <ele>11.8</ele>
        <time>2021-07-20T08:37:10Z</time>
      </trkpt>
      <trkpt lat="43.16699" lon="3.17199">
        <ele>11.7</ele>
        <time>2021-07-20T08:37:11Z</time>
      </trkpt>
      <trkpt lat="43.167" lon="3.17204">
        <ele>11.4</ele>
        <time>2021-07-20T08:37:12Z</time>
      </trkpt>
      <trkpt lat="43.167" lon="3.17209">
        <ele>11</ele>
        <time>2021-07-20T08:37:13Z</time>
      </trkpt>
      <trkpt lat="43.167" lon="3.17214">
        <ele>10.7</ele>
        <time>2021-07-20T08:37:14Z</time>
      </trkpt>
      <trkpt lat="43.16701" lon="3.17219">
        <ele>10.4</ele>
        <time>2021-07-20T08:37:15Z</time>
      </trkpt>
      <trkpt lat="43.16701" lon="3.17224">
        <ele>-1.9205334</ele>
        <time>2021-07-20T08:37:16Z</time>
      </trkpt>
      <trkpt lat="43.16702" lon="3.17229">
        <ele>9.8</ele>
        <time>2021-07-20T08:37:17Z</time>
      </trkpt>
      <trkpt lat="43.16702" lon="3.17233">
        <ele>9.5</ele>
        <time>2021-07-20T08:37:18Z</time>
      </trkpt>
      <trkpt lat="43.16703" lon="3.17238">
        <ele>9.3</ele>
        <time>2021-07-20T08:37:19Z</time>
      </trkpt>
      <trkpt lat="43.16703" lon="3.17243">
        <ele>9</ele>
        <time>2021-07-20T08:37:20Z</time>
      </trkpt>
      <trkpt lat="43.16704" lon="3.17247">
        <ele>8.7</ele>
        <time>2021-07-20T08:37:21Z</time>
      </trkpt>
      <trkpt lat="43.16705" lon="3.17252">
        <ele>8.6</ele>
        <time>2021-07-20T08:37:22Z</time>
      </trkpt>
      <trkpt lat="43.16707" lon="3.17255">
        <ele>8.6</ele>
        <time>2021-07-20T08:37:23Z</time>
      </trkpt>
      <trkpt lat="43.16708" lon="3.17259">
        <ele>8.5</ele>
        <time>2021-07-20T08:37:24Z</time>
      </trkpt>
      <trkpt lat="43.1671" lon="3.17262">
        <ele>8.5</ele>
        <time>2021-07-20T08:37:25Z</time>
      </trkpt>
      <trkpt lat="43.16713" lon="3.17265">
        <ele>-2.0253253</ele>
        <time>2021-07-20T08:37:26Z</time>
      </trkpt>
      <trkpt lat="43.16716" lon="3.17268">
        <ele>8.8</ele>
        <time>2021-07-20T08:37:27Z</time>
      </trkpt>
      <trkpt lat="43.16719" lon="3.1727">
        <ele>8.9</ele>
        <time>2021-07-20T08:37:28Z</time>
      </trkpt>
      <trkpt lat="43.16722" lon="3.17273">
        <ele>9</ele>
        <time>2021-07-20T08:37:29Z</time>
      </trkpt>
      <trkpt lat="43.16724" lon="3.17275">
        <ele>9.1</ele>
        <time>2021-07-20T08:37:30Z</time>
      </trkpt>
      <trkpt lat="43.16727" lon="3.17277">
        <ele>9.1</ele>
        <time>2021-07-20T08:37:31Z</time>
      </trkpt>
      <trkpt lat="43.1673" lon="3.17279">
        <ele>9.3</ele>
        <time>2021-07-20T08:37:32Z</time>
      </trkpt>
      <trkpt lat="43.16733" lon="3.1728">
        <ele>9.4</ele>
        <time>2021-07-20T08:37:33Z</time>
      </trkpt>
      <trkpt lat="43.16735" lon="3.17281">
        <ele>9.5</ele>
        <time>2021-07-20T08:37:34Z</time>
      </trkpt>
      <trkpt lat="43.16738" lon="3.17282">
        <ele>9.6</ele>
        <time>2021-07-20T08:37:35Z</time>
      </trkpt>
      <trkpt lat="43.1674" lon="3.17284">
        <ele>-2.1238914</ele>
        <time>2021-07-20T08:37:36Z</time>
      </trkpt>
      <trkpt lat="43.16742" lon="3.17285">
        <ele>9.7</ele>
        <time>2021-07-20T08:37:37Z</time>
      </trkpt>
      <trkpt lat="43.16745" lon="3.17285">
        <ele>9.8</ele>
        <time>2021-07-20T08:37:38Z</time>
      </trkpt>
      <trkpt lat="43.16748" lon="3.17286">
        <ele>9.9</ele>
        <time>2021-07-20T08:37:39Z</time>
      </trkpt>
      <trkpt lat="43.16752" lon="3.17287">
        <ele>10.2</ele>
        <time>2021-07-20T08:37:40Z</time>
      </trkpt>
      <trkpt lat="43.16755" lon="3.17287">
        <ele>10.6</ele>
        <time>2021-07-20T08:37:41Z</time>
      </trkpt>
      <trkpt lat="43.16758" lon="3.17288">
        <ele>10.9</ele>
        <time>2021-07-20T08:37:42Z</time>
      </trkpt>
      <trkpt lat="43.16761" lon="3.17289">
        <ele>11.1</ele>
        <time>2021-07-20T08:37:43Z</time>
      </trkpt>
      <trkpt lat="43.16765" lon="3.17289">
        <ele>11.4</ele>
        <time>2021-07-20T08:37:44Z</time>
      </trkpt>
      <trkpt lat="43.16768" lon="3.1729">
        <ele>11.7</ele>
        <time>2021-07-20T08:37:45Z</time>
      </trkpt>
      <trkpt lat="43.16771" lon="3.17291">
        <ele>-1.6113428</ele>
        <time>2021-07-20T08:37:46Z</time>
      </trkpt>
      <trkpt lat="43.16774" lon="3.17291">
        <ele>12.3</ele>
        <time>2021-07-20T08:37:47Z</time>
      </trkpt>
      <trkpt lat="43.16778" lon="3.17292">
        <ele>12.7</ele>
        <time>2021-07-20T08:37:48Z</time>
      </trkpt>
      <trkpt lat="43.16782" lon="3.17293">
        <ele>13</ele>
        <time>2021-07-20T08:37:49Z</time>
      </trkpt>
      <trkpt lat="43.16785" lon="3.17295">
        <ele>13.1</ele>
        <time>2021-07-20T08:37:50Z</time>
      </trkpt>
      <trkpt lat="43.16788" lon="3.17299">
        <ele>12.9</ele>
        <time>2021-07-20T08:37:51Z</time>
      </trkpt>
      <trkpt lat="43.16791" lon="3.17303">
        <ele>12.7</ele>
        <time>2021-07-20T08:37:52Z</time>
      </trkpt>
      <trkpt lat="43.16793" lon="3.17306">
        <ele>12.5</ele>
        <time>2021-07-20T08:37:53Z</time>
      </trkpt>
      <trkpt lat="43.16795" lon="3.17309">
        <ele>12.3</ele>
        <time>2021-07-20T08:37:54Z</time>
      </trkpt>
      <trkpt lat="43.16797" lon="3.17313">
        <ele>12.2</ele>
        <time>2021-07-20T08:37:55Z</time>
      </trkpt>
      <trkpt lat="43.168" lon="3.17317">
        <ele>-1.8385671</ele>
        <time>2021-07-20T08:37:56Z</time>
      </trkpt>
      <trkpt lat="43.16803" lon="3.1732">
        <ele>11.8</ele>
        <time>2021-07-20T08:37:57Z</time>
      </trkpt>
      <trkpt lat="43.16806" lon="3.17324">
        <ele>11.5</ele>
        <time>2021-07-20T08:37:58Z</time>
      </trkpt>
      <trkpt lat="43.16808" lon="3.17327">
        <ele>11.4</ele>
        <time>2021-07-20T08:37:59Z</time>
      </trkpt>
      <trkpt lat="43.16811" lon="3.17331">
        <ele>11.2</ele>
        <time>2021-07-20T08:38:00Z</time>
      </trkpt>
      <trkpt lat="43.16813" lon="3.17334">
        <ele>11</ele>
        <time>2021-07-20T08:38:01Z</time>
      </trkpt>
      <trkpt lat="43.16816" lon="3.17338">
        <ele>11</ele>
        <time>2021-07-20T08:38:02Z</time>
      </trkpt>
      <trkpt lat="43.16818" lon="3.17342">
        <ele>10.9</ele>
        <time>2021-07-20T08:38:03Z</time>
      </trkpt>
      <trkpt lat="43.1682" lon="3.17345">
        <ele>10.8</ele>
        <time>2021-07-20T08:38:04Z</time>
      </trkpt>
      <trkpt lat="43.16822" lon="3.17349">
        <ele>-1.9817485</ele>
        <time>2021-07-20T08:38:05Z</time>
      </trkpt>
      <trkpt lat="43.16825" lon="3.17353">
        <ele>10.5</ele>
        <time>2021-07-20T08:38:06Z</time>
      </trkpt>
      <trkpt lat="43.16827" lon="3.17357">
        <ele>10.4</ele>
        <time>2021-07-20T08:38:07Z</time>
      </trkpt>
      <trkpt lat="43.1683" lon="3.17361">
        <ele>10.2</ele>
        <time>2021-07-20T08:38:08Z</time>
      </trkpt>
      <trkpt lat="43.16832" lon="3.17364">
        <ele>9.9</ele>
        <time>2021-07-20T08:38:09Z</time>
      </trkpt>
      <trkpt lat="43.16834" lon="3.17368">
        <ele>9.6</ele>
        <time>2021-07-20T08:38:10Z</time>
      </trkpt>
      <trkpt lat="43.16836" lon="3.17372">
        <ele>9.3</ele>
        <time>2021-07-20T08:38:11Z</time>
      </trkpt>
      <trkpt lat="43.16839" lon="3.17376">
        <ele>8.9</ele>
        <time>2021-07-20T08:38:12Z</time>
      </trkpt>
      <trkpt lat="43.16841" lon="3.17379">
        <ele>8.7</ele>
        <time>2021-07-20T08:38:13Z</time>
      </trkpt>
      <trkpt lat="43.16842" lon="3.17382">
        <ele>8.4</ele>
        <time>2021-07-20T08:38:14Z</time>
      </trkpt>
      <trkpt lat="43.16844" lon="3.17385">
        <ele>-2.16228</ele>
        <time>2021-07-20T08:38:15Z</time>
      </trkpt>
      <trkpt lat="43.16846" lon="3.17388">
        <ele>7.9</ele>
        <time>2021-07-20T08:38:16Z</time>
      </trkpt>
      <trkpt lat="43.16845" lon="3.17392">
        <ele>7.5</ele>
        <time>2021-07-20T08:38:17Z</time>
      </trkpt>
      <trkpt lat="43.16843" lon="3.17396">
        <ele>7.1</ele>
        <time>2021-07-20T08:38:18Z</time>
      </trkpt>
      <trkpt lat="43.16843" lon="3.17399">
        <ele>6.9</ele>
        <time>2021-07-20T08:38:19Z</time>
      </trkpt>
      <trkpt lat="43.16842" lon="3.17402">
        <ele>6.6</ele>
        <time>2021-07-20T08:38:20Z</time>
      </trkpt>
      <trkpt lat="43.16839" lon="3.17405">
        <ele>6.2</ele>
        <time>2021-07-20T08:38:21Z</time>
      </trkpt>
      <trkpt lat="43.16836" lon="3.1741">
        <ele>5.7</ele>
        <time>2021-07-20T08:38:22Z</time>
      </trkpt>
      <trkpt lat="43.16834" lon="3.17414">
        <ele>5.2</ele>
        <time>2021-07-20T08:38:23Z</time>
      </trkpt>
      <trkpt lat="43.1683" lon="3.17418">
        <ele>5</ele>
        <time>2021-07-20T08:38:24Z</time>
      </trkpt>
      <trkpt lat="43.16828" lon="3.17421">
        <ele>-1.8053656</ele>
        <time>2021-07-20T08:38:25Z</time>
      </trkpt>
      <trkpt lat="43.16826" lon="3.17424">
        <ele>4.8</ele>
        <time>2021-07-20T08:38:26Z</time>
      </trkpt>
      <trkpt lat="43.16824" lon="3.17427">
        <ele>4.7</ele>
        <time>2021-07-20T08:38:27Z</time>
      </trkpt>
      <trkpt lat="43.16822" lon="3.1743">
        <ele>4.7</ele>
        <time>2021-07-20T08:38:28Z</time>
      </trkpt>
      <trkpt lat="43.1682" lon="3.17432">
        <ele>4.6</ele>
        <time>2021-07-20T08:38:29Z</time>
      </trkpt>
      <trkpt lat="43.16818" lon="3.17434">
        <ele>4.6</ele>
        <time>2021-07-20T08:38:30Z</time>
      </trkpt>
      <trkpt lat="43.16817" lon="3.17436">
        <ele>4.5</ele>
        <time>2021-07-20T08:38:31Z</time>
      </trkpt>
      <trkpt lat="43.16815" lon="3.17438">
        <ele>4.5</ele>
        <time>2021-07-20T08:38:32Z</time>
      </trkpt>
      <trkpt lat="43.16814" lon="3.17439">
        <ele>4.4</ele>
        <time>2021-07-20T08:38:33Z</time>
      </trkpt>
      <trkpt lat="43.16814" lon="3.17441">
        <ele>4.4</ele>
        <time>2021-07-20T08:38:34Z</time>
      </trkpt>
      <trkpt lat="43.16814" lon="3.17443">
        <ele>-1.7638634</ele>
        <time>2021-07-20T08:38:35Z</time>
      </trkpt>
      <trkpt lat="43.16814" lon="3.17445">
        <ele>4.2</ele>
        <time>2021-07-20T08:38:36Z</time>
      </trkpt>
      <trkpt lat="43.16813" lon="3.17447">
        <ele>4.1</ele>
        <time>2021-07-20T08:38:37Z</time>
      </trkpt>
      <trkpt lat="43.16813" lon="3.1745">
        <ele>4.1</ele>
        <time>2021-07-20T08:38:38Z</time>
      </trkpt>
      <trkpt lat="43.16812" lon="3.17452">
        <ele>4</ele>
        <time>2021-07-20T08:38:39Z</time>
      </trkpt>
      <trkpt lat="43.16812" lon="3.17454">
        <ele>3.9</ele>
        <time>2021-07-20T08:38:40Z</time>
      </trkpt>
      <trkpt lat="43.16814" lon="3.17456">
        <ele>3.8</ele>
        <time>2021-07-20T08:38:41Z</time>
      </trkpt>
      <trkpt lat="43.16815" lon="3.17456">
        <ele>3.8</ele>
        <time>2021-07-20T08:38:42Z</time>
      </trkpt>
      <trkpt lat="43.16817" lon="3.17457">
        <ele>3.8</ele>
        <time>2021-07-20T08:38:43Z</time>
      </trkpt>
      <trkpt lat="43.16818" lon="3.17457">
        <ele>3.7</ele>
        <time>2021-07-20T08:38:44Z</time>
      </trkpt>
      <trkpt lat="43.1682" lon="3.17456">
        <ele>3.7</ele>
        <time>2021-07-20T08:38:45Z</time>
      </trkpt>
      <trkpt lat="43.16822" lon="3.17455">
        <ele>-2.0066495</ele>
        <time>2021-07-20T08:38:46Z</time>
      </trkpt>
      <trkpt lat="43.16824" lon="3.17455">
        <ele>3.7</ele>
        <time>2021-07-20T08:38:47Z</time>
      </trkpt>
      <trkpt lat="43.16826" lon="3.17454">
        <ele>3.7</ele>
        <time>2021-07-20T08:38:48Z</time>
      </trkpt>
      <trkpt lat="43.16828" lon="3.17454">
        <ele>3.7</ele>
        <time>2021-07-20T08:38:49Z</time>
      </trkpt>
      <trkpt lat="43.1683" lon="3.17454">
        <ele>3.7</ele>
        <time>2021-07-20T08:38:50Z</time>
      </trkpt>
      <trkpt lat="43.16832" lon="3.17454">
        <ele>3.7</ele>
        <time>2021-07-20T08:38:51Z</time>
      </trkpt>
      <trkpt lat="43.1683" lon="3.17454">
        <ele>3.7</ele>
        <time>2021-07-20T08:38:52Z</time>
      </trkpt>
      <trkpt lat="43.1683" lon="3.17454">
        <ele>3.7</ele>
        <time>2021-07-20T08:38:53Z</time>
      </trkpt>
      <trkpt lat="43.1683" lon="3.17454">
        <ele>3.7</ele>
        <time>2021-07-20T08:38:54Z</time>
      </trkpt>
      <trkpt lat="43.1683" lon="3.17454">
        <ele>3.7</ele>
        <time>2021-07-20T08:38:55Z</time>
      </trkpt>
      <trkpt lat="43.1683" lon="3.17454">
        <ele>-2.2017064</ele>
        <time>2021-07-20T08:38:56Z</time>
      </trkpt>
      <trkpt lat="43.1683" lon="3.17454">
        <ele>3.7</ele>
        <time>2021-07-20T08:38:57Z</time>
      </trkpt>
      <trkpt lat="43.1683" lon="3.17454">
        <ele>3.7</ele>
        <time>2021-07-20T08:38:58Z</time>
      </trkpt>
      <trkpt lat="43.1683" lon="3.17454">
        <ele>3.7</ele>
        <time>2021-07-20T08:38:59Z</time>
      </trkpt>
      <trkpt lat="43.1683" lon="3.17454">
        <ele>3.7</ele>
        <time>2021-07-20T08:39:00Z</time>
      </trkpt>
      <trkpt lat="43.1683" lon="3.17454">
        <ele>3.7</ele>
        <time>2021-07-20T08:39:01Z</time>
      </trkpt>
      <trkpt lat="43.16831" lon="3.17455">
        <ele>3.6</ele>
        <time>2021-07-20T08:39:02Z</time>
      </trkpt>
      <trkpt lat="43.16832" lon="3.17455">
        <ele>3.6</ele>
        <time>2021-07-20T08:39:03Z</time>
      </trkpt>
      <trkpt lat="43.16832" lon="3.17455">
        <ele>3.6</ele>
        <time>2021-07-20T08:39:04Z</time>
      </trkpt>
      <trkpt lat="43.16832" lon="3.17455">
        <ele>3.6</ele>
        <time>2021-07-20T08:39:05Z</time>
      </trkpt>
      <trkpt lat="43.16832" lon="3.17455">
        <ele>-2.2390575</ele>
        <time>2021-07-20T08:39:06Z</time>
      </trkpt>
      <trkpt lat="43.16832" lon="3.17455">
        <ele>3.6</ele>
        <time>2021-07-20T08:39:07Z</time>
      </trkpt>
      <trkpt lat="43.16832" lon="3.17455">
        <ele>3.6</ele>
        <time>2021-07-20T08:39:08Z</time>
      </trkpt>
      <trkpt lat="43.16832" lon="3.17455">
        <ele>3.6</ele>
        <time>2021-07-20T08:39:09Z</time>
      </trkpt>
      <trkpt lat="43.16832" lon="3.17455">
        <ele>3.6</ele>
        <time>2021-07-20T08:39:10Z</time>
      </trkpt>
      <trkpt lat="43.16832" lon="3.17455">
        <ele>3.6</ele>
        <time>2021-07-20T08:39:11Z</time>
      </trkpt>
      <trkpt lat="43.16829" lon="3.17455">
        <ele>3.7</ele>
        <time>2021-07-20T08:39:12Z</time>
      </trkpt>
      <trkpt lat="43.16828" lon="3.17454">
        <ele>3.7</ele>
        <time>2021-07-20T08:39:13Z</time>
      </trkpt>
      <trkpt lat="43.16828" lon="3.17454">
        <ele>3.7</ele>
        <time>2021-07-20T08:39:14Z</time>
      </trkpt>
      <trkpt lat="43.16828" lon="3.17454">
        <ele>3.7</ele>
        <time>2021-07-20T08:39:15Z</time>
      </trkpt>
      <trkpt lat="43.16828" lon="3.17454">
        <ele>-1.7752765</ele>
        <time>2021-07-20T08:39:16Z</time>
      </trkpt>
      <trkpt lat="43.16828" lon="3.17454">
        <ele>3.7</ele>
        <time>2021-07-20T08:39:17Z</time>
      </trkpt>
      <trkpt lat="43.16828" lon="3.17454">
        <ele>3.7</ele>
        <time>2021-07-20T08:39:18Z</time>
      </trkpt>
      <trkpt lat="43.16828" lon="3.17454">
        <ele>3.7</ele>
        <time>2021-07-20T08:39:19Z</time>
      </trkpt>
      <trkpt lat="43.16828" lon="3.17454">
        <ele>3.7</ele>
        <time>2021-07-20T08:39:20Z</time>
      </trkpt>
      <trkpt lat="43.16828" lon="3.17454">
        <ele>3.7</ele>
        <time>2021-07-20T08:39:21Z</time>
      </trkpt>
      <trkpt lat="43.16828" lon="3.17454">
        <ele>3.7</ele>
        <time>2021-07-20T08:39:22Z</time>
      </trkpt>
      <trkpt lat="43.16828" lon="3.17454">
        <ele>3.7</ele>
        <time>2021-07-20T08:39:23Z</time>
      </trkpt>
      <trkpt lat="43.16828" lon="3.17454">
        <ele>3.7</ele>
        <time>2021-07-20T08:39:24Z</time>
      </trkpt>
      <trkpt lat="43.16828" lon="3.17454">
        <ele>3.7</ele>
        <time>2021-07-20T08:39:25Z</time>
      </trkpt>
      <trkpt lat="43.16824" lon="3.17451">
        <ele>-2.2411327</ele>
        <time>2021-07-20T08:39:26Z</time>
      </trkpt>
      <trkpt lat="43.16824" lon="3.17451">
        <ele>3.9</ele>
        <time>2021-07-20T08:39:27Z</time>
      </trkpt>
      <trkpt lat="43.16824" lon="3.17451">
        <ele>3.9</ele>
        <time>2021-07-20T08:39:28Z</time>
      </trkpt>
      <trkpt lat="43.16824" lon="3.17451">
        <ele>3.9</ele>
        <time>2021-07-20T08:39:29Z</time>
      </trkpt>
      <trkpt lat="43.16824" lon="3.17451">
        <ele>3.9</ele>
        <time>2021-07-20T08:39:30Z</time>
      </trkpt>
      <trkpt lat="43.16824" lon="3.17451">
        <ele>3.9</ele>
        <time>2021-07-20T08:39:31Z</time>
      </trkpt>
      <trkpt lat="43.16824" lon="3.17451">
        <ele>3.9</ele>
        <time>2021-07-20T08:39:32Z</time>
      </trkpt>
      <trkpt lat="43.16824" lon="3.17451">
        <ele>3.9</ele>
        <time>2021-07-20T08:39:33Z</time>
      </trkpt>
      <trkpt lat="43.16824" lon="3.17451">
        <ele>3.9</ele>
        <time>2021-07-20T08:39:34Z</time>
      </trkpt>
      <trkpt lat="43.16824" lon="3.17451">
        <ele>3.9</ele>
        <time>2021-07-20T08:39:35Z</time>
      </trkpt>
      <trkpt lat="43.16824" lon="3.17451">
        <ele>-2.448638</ele>
        <time>2021-07-20T08:39:36Z</time>
      </trkpt>
      <trkpt lat="43.16824" lon="3.17451">
        <ele>3.9</ele>
        <time>2021-07-20T08:39:37Z</time>
      </trkpt>
      <trkpt lat="43.16824" lon="3.17451">
        <ele>3.9</ele>
        <time>2021-07-20T08:39:38Z</time>
      </trkpt>
      <trkpt lat="43.16824" lon="3.17451">
        <ele>3.9</ele>
        <time>2021-07-20T08:39:39Z</time>
      </trkpt>
      <trkpt lat="43.16824" lon="3.17451">
        <ele>3.9</ele>
        <time>2021-07-20T08:39:40Z</time>
      </trkpt>
      <trkpt lat="43.16824" lon="3.17451">
        <ele>3.9</ele>
        <time>2021-07-20T08:39:41Z</time>
      </trkpt>
      <trkpt lat="43.16824" lon="3.17451">
        <ele>3.9</ele>
        <time>2021-07-20T08:39:42Z</time>
      </trkpt>
      <trkpt lat="43.16824" lon="3.17451">
        <ele>3.9</ele>
        <time>2021-07-20T08:39:43Z</time>
      </trkpt>
      <trkpt lat="43.16824" lon="3.17451">
        <ele>3.9</ele>
        <time>2021-07-20T08:39:44Z</time>
      </trkpt>
      <trkpt lat="43.16824" lon="3.17451">
        <ele>-2.4673133</ele>
        <time>2021-07-20T08:39:45Z</time>
      </trkpt>
      <trkpt lat="43.16824" lon="3.17451">
        <ele>3.9</ele>
        <time>2021-07-20T08:39:46Z</time>
      </trkpt>
      <trkpt lat="43.16824" lon="3.17451">
        <ele>3.9</ele>
        <time>2021-07-20T08:39:47Z</time>
      </trkpt>
      <trkpt lat="43.16824" lon="3.17451">
        <ele>3.9</ele>
        <time>2021-07-20T08:39:48Z</time>
      </trkpt>
      <trkpt lat="43.16824" lon="3.17451">
        <ele>3.9</ele>
        <time>2021-07-20T08:39:49Z</time>
      </trkpt>
      <trkpt lat="43.16824" lon="3.17451">
        <ele>3.9</ele>
        <time>2021-07-20T08:39:50Z</time>
      </trkpt>
      <trkpt lat="43.16824" lon="3.17451">
        <ele>3.9</ele>
        <time>2021-07-20T08:39:51Z</time>
      </trkpt>
      <trkpt lat="43.16824" lon="3.17451">
        <ele>3.9</ele>
        <time>2021-07-20T08:39:52Z</time>
      </trkpt>
      <trkpt lat="43.16824" lon="3.17451">
        <ele>3.9</ele>
        <time>2021-07-20T08:39:53Z</time>
      </trkpt>
      <trkpt lat="43.16824" lon="3.17451">
        <ele>3.9</ele>
        <time>2021-07-20T08:39:54Z</time>
      </trkpt>
      <trkpt lat="43.16824" lon="3.17451">
        <ele>-2.2504704</ele>
        <time>2021-07-20T08:39:55Z</time>
      </trkpt>
      <trkpt lat="43.16824" lon="3.17451">
        <ele>3.9</ele>
        <time>2021-07-20T08:39:56Z</time>
      </trkpt>
      <trkpt lat="43.16824" lon="3.17451">
        <ele>3.9</ele>
        <time>2021-07-20T08:39:57Z</time>
      </trkpt>
      <trkpt lat="43.16824" lon="3.17451">
        <ele>3.9</ele>
        <time>2021-07-20T08:39:58Z</time>
      </trkpt>
      <trkpt lat="43.16824" lon="3.17451">
        <ele>3.9</ele>
        <time>2021-07-20T08:39:59Z</time>
      </trkpt>
      <trkpt lat="43.16824" lon="3.17451">
        <ele>3.9</ele>
        <time>2021-07-20T08:40:00Z</time>
      </trkpt>
      <trkpt lat="43.16824" lon="3.17451">
        <ele>3.9</ele>
        <time>2021-07-20T08:40:01Z</time>
      </trkpt>
      <trkpt lat="43.16824" lon="3.17451">
        <ele>3.9</ele>
        <time>2021-07-20T08:40:02Z</time>
      </trkpt>
      <trkpt lat="43.16824" lon="3.17451">
        <ele>3.9</ele>
        <time>2021-07-20T08:40:03Z</time>
      </trkpt>
      <trkpt lat="43.16824" lon="3.17451">
        <ele>3.9</ele>
        <time>2021-07-20T08:40:04Z</time>
      </trkpt>
      <trkpt lat="43.16824" lon="3.17451">
        <ele>-2.4413753</ele>
        <time>2021-07-20T08:40:05Z</time>
      </trkpt>
      <trkpt lat="43.16824" lon="3.17451">
        <ele>3.9</ele>
        <time>2021-07-20T08:40:06Z</time>
      </trkpt>
      <trkpt lat="43.16824" lon="3.17451">
        <ele>3.9</ele>
        <time>2021-07-20T08:40:07Z</time>
      </trkpt>
      <trkpt lat="43.16824" lon="3.17451">
        <ele>3.9</ele>
        <time>2021-07-20T08:40:08Z</time>
      </trkpt>
      <trkpt lat="43.16824" lon="3.17451">
        <ele>3.9</ele>
        <time>2021-07-20T08:40:09Z</time>
      </trkpt>
      <trkpt lat="43.16824" lon="3.17451">
        <ele>3.9</ele>
        <time>2021-07-20T08:40:10Z</time>
      </trkpt>
      <trkpt lat="43.16824" lon="3.17451">
        <ele>3.9</ele>
        <time>2021-07-20T08:40:11Z</time>
      </trkpt>
      <trkpt lat="43.16824" lon="3.17451">
        <ele>3.9</ele>
        <time>2021-07-20T08:40:12Z</time>
      </trkpt>
      <trkpt lat="43.16824" lon="3.17451">
        <ele>3.9</ele>
        <time>2021-07-20T08:40:13Z</time>
      </trkpt>
      <trkpt lat="43.16824" lon="3.17451">
        <ele>3.9</ele>
        <time>2021-07-20T08:40:14Z</time>
      </trkpt>
      <trkpt lat="43.16824" lon="3.17451">
        <ele>-2.4538255</ele>
        <time>2021-07-20T08:40:15Z</time>
      </trkpt>
      <trkpt lat="43.16824" lon="3.17451">
        <ele>3.9</ele>
        <time>2021-07-20T08:40:16Z</time>
      </trkpt>
      <trkpt lat="43.16824" lon="3.17451">
        <ele>3.9</ele>
        <time>2021-07-20T08:40:17Z</time>
      </trkpt>
      <trkpt lat="43.16824" lon="3.17451">
        <ele>3.9</ele>
        <time>2021-07-20T08:40:18Z</time>
      </trkpt>
      <trkpt lat="43.16824" lon="3.17451">
        <ele>3.9</ele>
        <time>2021-07-20T08:40:19Z</time>
      </trkpt>
      <trkpt lat="43.16824" lon="3.17451">
        <ele>3.9</ele>
        <time>2021-07-20T08:40:20Z</time>
      </trkpt>
      <trkpt lat="43.16824" lon="3.17451">
        <ele>3.9</ele>
        <time>2021-07-20T08:40:21Z</time>
      </trkpt>
      <trkpt lat="43.16824" lon="3.17451">
        <ele>3.9</ele>
        <time>2021-07-20T08:40:22Z</time>
      </trkpt>
      <trkpt lat="43.16824" lon="3.17451">
        <ele>3.9</ele>
        <time>2021-07-20T08:40:23Z</time>
      </trkpt>
      <trkpt lat="43.16824" lon="3.17451">
        <ele>3.9</ele>
        <time>2021-07-20T08:40:24Z</time>
      </trkpt>
      <trkpt lat="43.16824" lon="3.17451">
        <ele>3.9</ele>
        <time>2021-07-20T08:40:25Z</time>
      </trkpt>
      <trkpt lat="43.16824" lon="3.17451">
        <ele>-2.4351501</ele>
        <time>2021-07-20T08:40:26Z</time>
      </trkpt>
      <trkpt lat="43.16824" lon="3.17451">
        <ele>3.9</ele>
        <time>2021-07-20T08:40:27Z</time>
      </trkpt>
      <trkpt lat="43.16824" lon="3.17451">
        <ele>3.9</ele>
        <time>2021-07-20T08:40:28Z</time>
      </trkpt>
      <trkpt lat="43.16824" lon="3.17451">
        <ele>3.9</ele>
        <time>2021-07-20T08:40:29Z</time>
      </trkpt>
      <trkpt lat="43.16824" lon="3.17451">
        <ele>3.9</ele>
        <time>2021-07-20T08:40:30Z</time>
      </trkpt>
      <trkpt lat="43.16824" lon="3.17451">
        <ele>3.9</ele>
        <time>2021-07-20T08:40:31Z</time>
      </trkpt>
      <trkpt lat="43.16824" lon="3.17451">
        <ele>3.9</ele>
        <time>2021-07-20T08:40:32Z</time>
      </trkpt>
      <trkpt lat="43.16824" lon="3.17451">
        <ele>3.9</ele>
        <time>2021-07-20T08:40:33Z</time>
      </trkpt>
      <trkpt lat="43.16824" lon="3.17451">
        <ele>3.9</ele>
        <time>2021-07-20T08:40:34Z</time>
      </trkpt>
      <trkpt lat="43.16824" lon="3.17451">
        <ele>3.9</ele>
        <time>2021-07-20T08:40:35Z</time>
      </trkpt>
      <trkpt lat="43.16824" lon="3.17451">
        <ele>-2.409212</ele>
        <time>2021-07-20T08:40:36Z</time>
      </trkpt>
      <trkpt lat="43.16824" lon="3.17451">
        <ele>3.9</ele>
        <time>2021-07-20T08:40:37Z</time>
      </trkpt>
      <trkpt lat="43.16824" lon="3.17451">
        <ele>3.9</ele>
        <time>2021-07-20T08:40:38Z</time>
      </trkpt>
      <trkpt lat="43.16824" lon="3.17451">
        <ele>3.9</ele>
        <time>2021-07-20T08:40:39Z</time>
      </trkpt>
      <trkpt lat="43.16824" lon="3.17451">
        <ele>3.9</ele>
        <time>2021-07-20T08:40:40Z</time>
      </trkpt>
      <trkpt lat="43.16824" lon="3.17451">
        <ele>3.9</ele>
        <time>2021-07-20T08:40:41Z</time>
      </trkpt>
      <trkpt lat="43.16824" lon="3.17451">
        <ele>3.9</ele>
        <time>2021-07-20T08:40:42Z</time>
      </trkpt>
      <trkpt lat="43.16824" lon="3.17451">
        <ele>3.9</ele>
        <time>2021-07-20T08:40:43Z</time>
      </trkpt>
      <trkpt lat="43.16824" lon="3.17451">
        <ele>3.9</ele>
        <time>2021-07-20T08:40:44Z</time>
      </trkpt>
      <trkpt lat="43.16824" lon="3.17451">
        <ele>3.9</ele>
        <time>2021-07-20T08:40:45Z</time>
      </trkpt>
      <trkpt lat="43.16824" lon="3.17451">
        <ele>-2.3977993</ele>
        <time>2021-07-20T08:40:46Z</time>
      </trkpt>
      <trkpt lat="43.16824" lon="3.17451">
        <ele>3.9</ele>
        <time>2021-07-20T08:40:47Z</time>
      </trkpt>
      <trkpt lat="43.16824" lon="3.17451">
        <ele>3.9</ele>
        <time>2021-07-20T08:40:48Z</time>
      </trkpt>
      <trkpt lat="43.16824" lon="3.17451">
        <ele>3.9</ele>
        <time>2021-07-20T08:40:49Z</time>
      </trkpt>
      <trkpt lat="43.16824" lon="3.17451">
        <ele>3.9</ele>
        <time>2021-07-20T08:40:50Z</time>
      </trkpt>
      <trkpt lat="43.16824" lon="3.17451">
        <ele>3.9</ele>
        <time>2021-07-20T08:40:51Z</time>
      </trkpt>
      <trkpt lat="43.16824" lon="3.17451">
        <ele>3.9</ele>
        <time>2021-07-20T08:40:52Z</time>
      </trkpt>
      <trkpt lat="43.16824" lon="3.17451">
        <ele>3.9</ele>
        <time>2021-07-20T08:40:53Z</time>
      </trkpt>
      <trkpt lat="43.16824" lon="3.17451">
        <ele>3.9</ele>
        <time>2021-07-20T08:40:54Z</time>
      </trkpt>
      <trkpt lat="43.16824" lon="3.17451">
        <ele>3.9</ele>
        <time>2021-07-20T08:40:55Z</time>
      </trkpt>
      <trkpt lat="43.16824" lon="3.17451">
        <ele>-2.3531857</ele>
        <time>2021-07-20T08:40:56Z</time>
      </trkpt>
      <trkpt lat="43.16824" lon="3.17451">
        <ele>3.9</ele>
        <time>2021-07-20T08:40:57Z</time>
      </trkpt>
      <trkpt lat="43.16824" lon="3.17451">
        <ele>3.9</ele>
        <time>2021-07-20T08:40:58Z</time>
      </trkpt>
      <trkpt lat="43.16824" lon="3.17451">
        <ele>3.9</ele>
        <time>2021-07-20T08:40:59Z</time>
      </trkpt>
      <trkpt lat="43.16824" lon="3.17451">
        <ele>3.9</ele>
        <time>2021-07-20T08:41:00Z</time>
      </trkpt>
      <trkpt lat="43.16824" lon="3.17451">
        <ele>3.9</ele>
        <time>2021-07-20T08:41:01Z</time>
      </trkpt>
      <trkpt lat="43.16824" lon="3.17451">
        <ele>3.9</ele>
        <time>2021-07-20T08:41:02Z</time>
      </trkpt>
      <trkpt lat="43.16824" lon="3.17451">
        <ele>3.9</ele>
        <time>2021-07-20T08:41:03Z</time>
      </trkpt>
      <trkpt lat="43.16824" lon="3.17451">
        <ele>3.9</ele>
        <time>2021-07-20T08:41:10Z</time>
      </trkpt>
      <trkpt lat="43.16824" lon="3.17451">
        <ele>-2.4870262</ele>
        <time>2021-07-20T08:41:11Z</time>
      </trkpt>
      <trkpt lat="43.16824" lon="3.17451">
        <ele>3.9</ele>
        <time>2021-07-20T08:41:12Z</time>
      </trkpt>
      <trkpt lat="43.16824" lon="3.17451">
        <ele>3.9</ele>
        <time>2021-07-20T08:41:13Z</time>
      </trkpt>
      <trkpt lat="43.16824" lon="3.17451">
        <ele>3.9</ele>
        <time>2021-07-20T08:41:14Z</time>
      </trkpt>
      <trkpt lat="43.16824" lon="3.17451">
        <ele>3.9</ele>
        <time>2021-07-20T08:41:15Z</time>
      </trkpt>
      <trkpt lat="43.16824" lon="3.17451">
        <ele>3.9</ele>
        <time>2021-07-20T08:41:16Z</time>
      </trkpt>
      <trkpt lat="43.16824" lon="3.17451">
        <ele>3.9</ele>
        <time>2021-07-20T08:41:17Z</time>
      </trkpt>
      <trkpt lat="43.16824" lon="3.17451">
        <ele>3.9</ele>
        <time>2021-07-20T08:41:18Z</time>
      </trkpt>
      <trkpt lat="43.16824" lon="3.17451">
        <ele>3.9</ele>
        <time>2021-07-20T08:41:19Z</time>
      </trkpt>
      <trkpt lat="43.16824" lon="3.17451">
        <ele>3.9</ele>
        <time>2021-07-20T08:41:20Z</time>
      </trkpt>
      <trkpt lat="43.16824" lon="3.17451">
        <ele>-2.4424129</ele>
        <time>2021-07-20T08:41:21Z</time>
      </trkpt>
      <trkpt lat="43.16824" lon="3.17451">
        <ele>3.9</ele>
        <time>2021-07-20T08:41:22Z</time>
      </trkpt>
      <trkpt lat="43.16824" lon="3.17451">
        <ele>3.9</ele>
        <time>2021-07-20T08:41:23Z</time>
      </trkpt>
      <trkpt lat="43.16824" lon="3.17451">
        <ele>3.9</ele>
        <time>2021-07-20T08:41:24Z</time>
      </trkpt>
      <trkpt lat="43.16824" lon="3.17451">
        <ele>3.9</ele>
        <time>2021-07-20T08:41:25Z</time>
      </trkpt>
      <trkpt lat="43.16824" lon="3.17451">
        <ele>3.9</ele>
        <time>2021-07-20T08:41:26Z</time>
      </trkpt>
      <trkpt lat="43.16824" lon="3.17451">
        <ele>3.9</ele>
        <time>2021-07-20T08:41:27Z</time>
      </trkpt>
      <trkpt lat="43.16824" lon="3.17451">
        <ele>3.9</ele>
        <time>2021-07-20T08:41:28Z</time>
      </trkpt>
      <trkpt lat="43.16824" lon="3.17451">
        <ele>3.9</ele>
        <time>2021-07-20T08:41:29Z</time>
      </trkpt>
      <trkpt lat="43.16824" lon="3.17451">
        <ele>3.9</ele>
        <time>2021-07-20T08:41:30Z</time>
      </trkpt>
      <trkpt lat="43.16824" lon="3.17451">
        <ele>-2.508814</ele>
        <time>2021-07-20T08:41:31Z</time>
      </trkpt>
      <trkpt lat="43.16824" lon="3.17451">
        <ele>3.9</ele>
        <time>2021-07-20T08:41:32Z</time>
      </trkpt>
      <trkpt lat="43.16824" lon="3.17451">
        <ele>3.9</ele>
        <time>2021-07-20T08:41:33Z</time>
      </trkpt>
      <trkpt lat="43.16824" lon="3.17451">
        <ele>3.9</ele>
        <time>2021-07-20T08:41:34Z</time>
      </trkpt>
      <trkpt lat="43.16824" lon="3.17451">
        <ele>3.9</ele>
        <time>2021-07-20T08:41:35Z</time>
      </trkpt>
      <trkpt lat="43.16824" lon="3.17451">
        <ele>3.9</ele>
        <time>2021-07-20T08:41:36Z</time>
      </trkpt>
      <trkpt lat="43.16824" lon="3.17451">
        <ele>3.9</ele>
        <time>2021-07-20T08:41:37Z</time>
      </trkpt>
      <trkpt lat="43.16824" lon="3.17451">
        <ele>3.9</ele>
        <time>2021-07-20T08:41:38Z</time>
      </trkpt>
      <trkpt lat="43.16824" lon="3.17451">
        <ele>3.9</ele>
        <time>2021-07-20T08:41:39Z</time>
      </trkpt>
      <trkpt lat="43.16824" lon="3.17451">
        <ele>3.9</ele>
        <time>2021-07-20T08:41:40Z</time>
      </trkpt>
      <trkpt lat="43.16824" lon="3.17451">
        <ele>-2.454863</ele>
        <time>2021-07-20T08:41:41Z</time>
      </trkpt>
      <trkpt lat="43.16824" lon="3.17451">
        <ele>3.9</ele>
        <time>2021-07-20T08:41:42Z</time>
      </trkpt>
      <trkpt lat="43.16824" lon="3.17451">
        <ele>3.9</ele>
        <time>2021-07-20T08:41:43Z</time>
      </trkpt>
      <trkpt lat="43.16824" lon="3.17451">
        <ele>3.9</ele>
        <time>2021-07-20T08:41:44Z</time>
      </trkpt>
      <trkpt lat="43.16824" lon="3.17451">
        <ele>3.9</ele>
        <time>2021-07-20T08:41:45Z</time>
      </trkpt>
      <trkpt lat="43.16824" lon="3.17451">
        <ele>3.9</ele>
        <time>2021-07-20T08:41:46Z</time>
      </trkpt>
      <trkpt lat="43.16824" lon="3.17451">
        <ele>3.9</ele>
        <time>2021-07-20T08:41:47Z</time>
      </trkpt>
      <trkpt lat="43.16824" lon="3.17451">
        <ele>3.9</ele>
        <time>2021-07-20T08:41:48Z</time>
      </trkpt>
      <trkpt lat="43.16824" lon="3.17451">
        <ele>3.9</ele>
        <time>2021-07-20T08:41:49Z</time>
      </trkpt>
      <trkpt lat="43.16824" lon="3.17451">
        <ele>3.9</ele>
        <time>2021-07-20T08:41:50Z</time>
      </trkpt>
      <trkpt lat="43.16824" lon="3.17451">
        <ele>-2.4631631</ele>
        <time>2021-07-20T08:41:51Z</time>
      </trkpt>
      <trkpt lat="43.16824" lon="3.17451">
        <ele>3.9</ele>
        <time>2021-07-20T08:41:52Z</time>
      </trkpt>
      <trkpt lat="43.16824" lon="3.17451">
        <ele>3.9</ele>
        <time>2021-07-20T08:41:53Z</time>
      </trkpt>
      <trkpt lat="43.16824" lon="3.17451">
        <ele>3.9</ele>
        <time>2021-07-20T08:41:54Z</time>
      </trkpt>
      <trkpt lat="43.16824" lon="3.17451">
        <ele>3.9</ele>
        <time>2021-07-20T08:41:55Z</time>
      </trkpt>
      <trkpt lat="43.16824" lon="3.17451">
        <ele>3.9</ele>
        <time>2021-07-20T08:41:56Z</time>
      </trkpt>
      <trkpt lat="43.16824" lon="3.17451">
        <ele>3.9</ele>
        <time>2021-07-20T08:41:57Z</time>
      </trkpt>
      <trkpt lat="43.16824" lon="3.17451">
        <ele>3.9</ele>
        <time>2021-07-20T08:41:58Z</time>
      </trkpt>
      <trkpt lat="43.16824" lon="3.17451">
        <ele>3.9</ele>
        <time>2021-07-20T08:41:59Z</time>
      </trkpt>
      <trkpt lat="43.16824" lon="3.17451">
        <ele>3.9</ele>
        <time>2021-07-20T08:42:00Z</time>
      </trkpt>
      <trkpt lat="43.16824" lon="3.17451">
        <ele>-2.4642007</ele>
        <time>2021-07-20T08:42:01Z</time>
      </trkpt>
      <trkpt lat="43.16824" lon="3.17451">
        <ele>3.9</ele>
        <time>2021-07-20T08:42:02Z</time>
      </trkpt>
      <trkpt lat="43.16824" lon="3.17451">
        <ele>3.9</ele>
        <time>2021-07-20T08:42:03Z</time>
      </trkpt>
      <trkpt lat="43.16824" lon="3.17451">
        <ele>3.9</ele>
        <time>2021-07-20T08:42:04Z</time>
      </trkpt>
      <trkpt lat="43.16824" lon="3.17451">
        <ele>3.9</ele>
        <time>2021-07-20T08:42:05Z</time>
      </trkpt>
      <trkpt lat="43.16824" lon="3.17451">
        <ele>3.9</ele>
        <time>2021-07-20T08:42:06Z</time>
      </trkpt>
      <trkpt lat="43.16824" lon="3.17451">
        <ele>3.9</ele>
        <time>2021-07-20T08:42:07Z</time>
      </trkpt>
      <trkpt lat="43.16824" lon="3.17451">
        <ele>3.9</ele>
        <time>2021-07-20T08:42:08Z</time>
      </trkpt>
      <trkpt lat="43.16824" lon="3.17451">
        <ele>3.9</ele>
        <time>2021-07-20T08:42:09Z</time>
      </trkpt>
      <trkpt lat="43.16824" lon="3.17451">
        <ele>3.9</ele>
        <time>2021-07-20T08:42:10Z</time>
      </trkpt>
      <trkpt lat="43.16824" lon="3.17451">
        <ele>3.9</ele>
        <time>2021-07-20T08:42:11Z</time>
      </trkpt>
      <trkpt lat="43.16824" lon="3.17451">
        <ele>3.9</ele>
        <time>2021-07-20T08:42:12Z</time>
      </trkpt>
      <trkpt lat="43.16824" lon="3.17451">
        <ele>3.9</ele>
        <time>2021-07-20T08:42:13Z</time>
      </trkpt>
      <trkpt lat="43.16824" lon="3.17451">
        <ele>3.9</ele>
        <time>2021-07-20T08:42:14Z</time>
      </trkpt>
      <trkpt lat="43.16827" lon="3.17452">
        <ele>3.8</ele>
        <time>2021-07-20T08:44:23Z</time>
      </trkpt>
      <trkpt lat="43.16827" lon="3.17452">
        <ele>3.8</ele>
        <time>2021-07-20T08:44:24Z</time>
      </trkpt>
      <trkpt lat="43.16827" lon="3.17452">
        <ele>3.8</ele>
        <time>2021-07-20T08:44:25Z</time>
      </trkpt>
      <trkpt lat="43.1683" lon="3.17454">
        <ele>-1.8862944</ele>
        <time>2021-07-20T08:44:26Z</time>
      </trkpt>
      <trkpt lat="43.16831" lon="3.17453">
        <ele>3.7</ele>
        <time>2021-07-20T08:44:27Z</time>
      </trkpt>
      <trkpt lat="43.16832" lon="3.17455">
        <ele>3.6</ele>
        <time>2021-07-20T08:45:26Z</time>
      </trkpt>
      <trkpt lat="43.16832" lon="3.17455">
        <ele>3.6</ele>
        <time>2021-07-20T08:45:27Z</time>
      </trkpt>
      <trkpt lat="43.16832" lon="3.17455">
        <ele>3.6</ele>
        <time>2021-07-20T08:45:28Z</time>
      </trkpt>
      <trkpt lat="43.16832" lon="3.17455">
        <ele>3.6</ele>
        <time>2021-07-20T08:45:29Z</time>
      </trkpt>
      <trkpt lat="43.16832" lon="3.17455">
        <ele>-1.8634683</ele>
        <time>2021-07-20T08:45:30Z</time>
      </trkpt>
      <trkpt lat="43.16832" lon="3.17455">
        <ele>3.6</ele>
        <time>2021-07-20T08:45:31Z</time>
      </trkpt>
      <trkpt lat="43.16832" lon="3.17455">
        <ele>3.6</ele>
        <time>2021-07-20T08:45:32Z</time>
      </trkpt>
      <trkpt lat="43.16832" lon="3.17455">
        <ele>3.6</ele>
        <time>2021-07-20T08:45:33Z</time>
      </trkpt>
      <trkpt lat="43.16832" lon="3.17455">
        <ele>3.6</ele>
        <time>2021-07-20T08:45:34Z</time>
      </trkpt>
      <trkpt lat="43.16832" lon="3.17455">
        <ele>3.6</ele>
        <time>2021-07-20T08:45:35Z</time>
      </trkpt>
      <trkpt lat="43.16832" lon="3.17455">
        <ele>3.6</ele>
        <time>2021-07-20T08:45:36Z</time>
      </trkpt>
      <trkpt lat="43.16832" lon="3.17455">
        <ele>3.6</ele>
        <time>2021-07-20T08:45:37Z</time>
      </trkpt>
      <trkpt lat="43.1683" lon="3.17456">
        <ele>3.6</ele>
        <time>2021-07-20T08:45:38Z</time>
      </trkpt>
      <trkpt lat="43.1683" lon="3.17456">
        <ele>3.6</ele>
        <time>2021-07-20T08:45:39Z</time>
      </trkpt>
      <trkpt lat="43.16829" lon="3.17457">
        <ele>-1.5916291</ele>
        <time>2021-07-20T08:45:40Z</time>
      </trkpt>
      <trkpt lat="43.16829" lon="3.17456">
        <ele>3.6</ele>
        <time>2021-07-20T08:45:41Z</time>
      </trkpt>
      <trkpt lat="43.16829" lon="3.17455">
        <ele>3.7</ele>
        <time>2021-07-20T08:45:42Z</time>
      </trkpt>
      <trkpt lat="43.16829" lon="3.17454">
        <ele>3.7</ele>
        <time>2021-07-20T08:45:43Z</time>
      </trkpt>
      <trkpt lat="43.16829" lon="3.17454">
        <ele>3.7</ele>
        <time>2021-07-20T08:45:44Z</time>
      </trkpt>
      <trkpt lat="43.16829" lon="3.17454">
        <ele>3.7</ele>
        <time>2021-07-20T08:45:45Z</time>
      </trkpt>
      <trkpt lat="43.16829" lon="3.17454">
        <ele>3.7</ele>
        <time>2021-07-20T08:45:46Z</time>
      </trkpt>
      <trkpt lat="43.16829" lon="3.17454">
        <ele>3.7</ele>
        <time>2021-07-20T08:45:47Z</time>
      </trkpt>
      <trkpt lat="43.16829" lon="3.17454">
        <ele>3.7</ele>
        <time>2021-07-20T08:45:48Z</time>
      </trkpt>
      <trkpt lat="43.16829" lon="3.17454">
        <ele>3.7</ele>
        <time>2021-07-20T08:45:49Z</time>
      </trkpt>
      <trkpt lat="43.16829" lon="3.17454">
        <ele>-1.8333794</ele>
        <time>2021-07-20T08:45:50Z</time>
      </trkpt>
      <trkpt lat="43.16829" lon="3.17454">
        <ele>3.7</ele>
        <time>2021-07-20T08:45:51Z</time>
      </trkpt>
      <trkpt lat="43.16829" lon="3.17454">
        <ele>3.7</ele>
        <time>2021-07-20T08:45:52Z</time>
      </trkpt>
      <trkpt lat="43.16829" lon="3.17454">
        <ele>3.7</ele>
        <time>2021-07-20T08:45:53Z</time>
      </trkpt>
      <trkpt lat="43.16829" lon="3.17454">
        <ele>3.7</ele>
        <time>2021-07-20T08:45:54Z</time>
      </trkpt>
      <trkpt lat="43.16829" lon="3.17454">
        <ele>3.7</ele>
        <time>2021-07-20T08:45:55Z</time>
      </trkpt>
      <trkpt lat="43.16829" lon="3.17454">
        <ele>3.7</ele>
        <time>2021-07-20T08:45:56Z</time>
      </trkpt>
      <trkpt lat="43.16829" lon="3.17454">
        <ele>3.7</ele>
        <time>2021-07-20T08:45:57Z</time>
      </trkpt>
      <trkpt lat="43.16829" lon="3.17454">
        <ele>3.7</ele>
        <time>2021-07-20T08:45:58Z</time>
      </trkpt>
      <trkpt lat="43.16829" lon="3.17454">
        <ele>3.7</ele>
        <time>2021-07-20T08:45:59Z</time>
      </trkpt>
      <trkpt lat="43.16829" lon="3.17454">
        <ele>-1.6901971</ele>
        <time>2021-07-20T08:46:00Z</time>
      </trkpt>
      <trkpt lat="43.16829" lon="3.17454">
        <ele>3.7</ele>
        <time>2021-07-20T08:46:01Z</time>
      </trkpt>
      <trkpt lat="43.16829" lon="3.17454">
        <ele>3.7</ele>
        <time>2021-07-20T08:46:02Z</time>
      </trkpt>
      <trkpt lat="43.16829" lon="3.17454">
        <ele>3.7</ele>
        <time>2021-07-20T08:46:03Z</time>
      </trkpt>
      <trkpt lat="43.16829" lon="3.17454">
        <ele>3.7</ele>
        <time>2021-07-20T08:46:04Z</time>
      </trkpt>
      <trkpt lat="43.16829" lon="3.17454">
        <ele>3.7</ele>
        <time>2021-07-20T08:46:05Z</time>
      </trkpt>
      <trkpt lat="43.16829" lon="3.17454">
        <ele>3.7</ele>
        <time>2021-07-20T08:46:06Z</time>
      </trkpt>
      <trkpt lat="43.16829" lon="3.17454">
        <ele>3.7</ele>
        <time>2021-07-20T08:46:07Z</time>
      </trkpt>
      <trkpt lat="43.16829" lon="3.17454">
        <ele>3.7</ele>
        <time>2021-07-20T08:46:08Z</time>
      </trkpt>
      <trkpt lat="43.16829" lon="3.17454">
        <ele>3.7</ele>
        <time>2021-07-20T08:46:09Z</time>
      </trkpt>
      <trkpt lat="43.16829" lon="3.17454">
        <ele>3.7</ele>
        <time>2021-07-20T08:46:10Z</time>
      </trkpt>
      <trkpt lat="43.16829" lon="3.17454">
        <ele>-1.7939525</ele>
        <time>2021-07-20T08:46:11Z</time>
      </trkpt>
      <trkpt lat="43.16829" lon="3.17454">
        <ele>3.7</ele>
        <time>2021-07-20T08:46:12Z</time>
      </trkpt>
      <trkpt lat="43.16829" lon="3.17454">
        <ele>3.7</ele>
        <time>2021-07-20T08:46:13Z</time>
      </trkpt>
      <trkpt lat="43.16829" lon="3.17454">
        <ele>3.7</ele>
        <time>2021-07-20T08:46:14Z</time>
      </trkpt>
      <trkpt lat="43.16829" lon="3.17454">
        <ele>3.7</ele>
        <time>2021-07-20T08:46:15Z</time>
      </trkpt>
      <trkpt lat="43.16829" lon="3.17454">
        <ele>3.7</ele>
        <time>2021-07-20T08:46:16Z</time>
      </trkpt>
      <trkpt lat="43.16829" lon="3.17454">
        <ele>3.7</ele>
        <time>2021-07-20T08:46:17Z</time>
      </trkpt>
      <trkpt lat="43.16829" lon="3.17454">
        <ele>3.7</ele>
        <time>2021-07-20T08:46:18Z</time>
      </trkpt>
      <trkpt lat="43.16829" lon="3.17454">
        <ele>3.7</ele>
        <time>2021-07-20T08:46:19Z</time>
      </trkpt>
      <trkpt lat="43.16829" lon="3.17454">
        <ele>3.7</ele>
        <time>2021-07-20T08:46:20Z</time>
      </trkpt>
      <trkpt lat="43.16829" lon="3.17454">
        <ele>-1.8354545</ele>
        <time>2021-07-20T08:46:21Z</time>
      </trkpt>
      <trkpt lat="43.16829" lon="3.17454">
        <ele>3.7</ele>
        <time>2021-07-20T08:46:22Z</time>
      </trkpt>
      <trkpt lat="43.16829" lon="3.17454">
        <ele>3.7</ele>
        <time>2021-07-20T08:46:23Z</time>
      </trkpt>
      <trkpt lat="43.16829" lon="3.17454">
        <ele>3.7</ele>
        <time>2021-07-20T08:46:24Z</time>
      </trkpt>
      <trkpt lat="43.16829" lon="3.17454">
        <ele>3.7</ele>
        <time>2021-07-20T08:46:25Z</time>
      </trkpt>
      <trkpt lat="43.16829" lon="3.17454">
        <ele>3.7</ele>
        <time>2021-07-20T08:46:26Z</time>
      </trkpt>
      <trkpt lat="43.16829" lon="3.17454">
        <ele>3.7</ele>
        <time>2021-07-20T08:46:27Z</time>
      </trkpt>
      <trkpt lat="43.16826" lon="3.1746">
        <ele>3.5</ele>
        <time>2021-07-20T08:46:28Z</time>
      </trkpt>
      <trkpt lat="43.16825" lon="3.1746">
        <ele>3.6</ele>
        <time>2021-07-20T08:46:29Z</time>
      </trkpt>
      <trkpt lat="43.16824" lon="3.17459">
        <ele>3.6</ele>
        <time>2021-07-20T08:46:30Z</time>
      </trkpt>
      <trkpt lat="43.16824" lon="3.17459">
        <ele>-1.8313043</ele>
        <time>2021-07-20T08:46:31Z</time>
      </trkpt>
      <trkpt lat="43.16824" lon="3.17459">
        <ele>3.6</ele>
        <time>2021-07-20T08:46:32Z</time>
      </trkpt>
      <trkpt lat="43.16824" lon="3.17459">
        <ele>3.6</ele>
        <time>2021-07-20T08:46:33Z</time>
      </trkpt>
      <trkpt lat="43.16824" lon="3.17459">
        <ele>3.6</ele>
        <time>2021-07-20T08:46:34Z</time>
      </trkpt>
      <trkpt lat="43.16824" lon="3.17459">
        <ele>3.6</ele>
        <time>2021-07-20T08:46:35Z</time>
      </trkpt>
      <trkpt lat="43.16824" lon="3.17459">
        <ele>3.6</ele>
        <time>2021-07-20T08:46:36Z</time>
      </trkpt>
      <trkpt lat="43.16824" lon="3.17459">
        <ele>3.6</ele>
        <time>2021-07-20T08:46:37Z</time>
      </trkpt>
      <trkpt lat="43.16824" lon="3.17459">
        <ele>3.6</ele>
        <time>2021-07-20T08:46:38Z</time>
      </trkpt>
      <trkpt lat="43.16824" lon="3.17459">
        <ele>3.6</ele>
        <time>2021-07-20T08:46:39Z</time>
      </trkpt>
      <trkpt lat="43.16824" lon="3.17459">
        <ele>3.6</ele>
        <time>2021-07-20T08:46:40Z</time>
      </trkpt>
      <trkpt lat="43.16824" lon="3.17459">
        <ele>-1.8126284</ele>
        <time>2021-07-20T08:46:41Z</time>
      </trkpt>
      <trkpt lat="43.16824" lon="3.17459">
        <ele>3.6</ele>
        <time>2021-07-20T08:46:42Z</time>
      </trkpt>
      <trkpt lat="43.16824" lon="3.17459">
        <ele>3.6</ele>
        <time>2021-07-20T08:46:43Z</time>
      </trkpt>
      <trkpt lat="43.16824" lon="3.17459">
        <ele>3.6</ele>
        <time>2021-07-20T08:46:44Z</time>
      </trkpt>
      <trkpt lat="43.16824" lon="3.17459">
        <ele>3.6</ele>
        <time>2021-07-20T08:46:45Z</time>
      </trkpt>
      <trkpt lat="43.16824" lon="3.17459">
        <ele>3.6</ele>
        <time>2021-07-20T08:46:46Z</time>
      </trkpt>
      <trkpt lat="43.16824" lon="3.17459">
        <ele>3.6</ele>
        <time>2021-07-20T08:46:47Z</time>
      </trkpt>
      <trkpt lat="43.16824" lon="3.17459">
        <ele>3.6</ele>
        <time>2021-07-20T08:46:48Z</time>
      </trkpt>
      <trkpt lat="43.16824" lon="3.17459">
        <ele>3.6</ele>
        <time>2021-07-20T08:46:49Z</time>
      </trkpt>
      <trkpt lat="43.16824" lon="3.17459">
        <ele>3.6</ele>
        <time>2021-07-20T08:46:50Z</time>
      </trkpt>
      <trkpt lat="43.16824" lon="3.17459">
        <ele>-1.7192487</ele>
        <time>2021-07-20T08:46:51Z</time>
      </trkpt>
      <trkpt lat="43.16824" lon="3.17459">
        <ele>3.6</ele>
        <time>2021-07-20T08:46:52Z</time>
      </trkpt>
      <trkpt lat="43.16824" lon="3.17459">
        <ele>3.6</ele>
        <time>2021-07-20T08:46:53Z</time>
      </trkpt>
      <trkpt lat="43.16824" lon="3.17459">
        <ele>3.6</ele>
        <time>2021-07-20T08:46:54Z</time>
      </trkpt>
      <trkpt lat="43.16824" lon="3.17459">
        <ele>3.6</ele>
        <time>2021-07-20T08:46:55Z</time>
      </trkpt>
      <trkpt lat="43.16824" lon="3.17459">
        <ele>3.6</ele>
        <time>2021-07-20T08:46:56Z</time>
      </trkpt>
      <trkpt lat="43.16824" lon="3.17459">
        <ele>3.6</ele>
        <time>2021-07-20T08:46:57Z</time>
      </trkpt>
      <trkpt lat="43.16824" lon="3.17459">
        <ele>3.6</ele>
        <time>2021-07-20T08:46:58Z</time>
      </trkpt>
      <trkpt lat="43.16824" lon="3.17459">
        <ele>3.6</ele>
        <time>2021-07-20T08:46:59Z</time>
      </trkpt>
      <trkpt lat="43.16824" lon="3.17459">
        <ele>3.6</ele>
        <time>2021-07-20T08:47:00Z</time>
      </trkpt>
      <trkpt lat="43.16824" lon="3.17459">
        <ele>-1.547014</ele>
        <time>2021-07-20T08:47:01Z</time>
      </trkpt>
      <trkpt lat="43.16824" lon="3.17459">
        <ele>3.6</ele>
        <time>2021-07-20T08:47:02Z</time>
      </trkpt>
      <trkpt lat="43.16824" lon="3.17459">
        <ele>3.6</ele>
        <time>2021-07-20T08:47:03Z</time>
      </trkpt>
      <trkpt lat="43.16824" lon="3.17459">
        <ele>3.6</ele>
        <time>2021-07-20T08:47:04Z</time>
      </trkpt>
      <trkpt lat="43.16824" lon="3.17459">
        <ele>3.6</ele>
        <time>2021-07-20T08:47:05Z</time>
      </trkpt>
      <trkpt lat="43.16824" lon="3.17459">
        <ele>3.6</ele>
        <time>2021-07-20T08:47:06Z</time>
      </trkpt>
      <trkpt lat="43.16824" lon="3.17459">
        <ele>3.6</ele>
        <time>2021-07-20T08:47:07Z</time>
      </trkpt>
      <trkpt lat="43.16824" lon="3.17459">
        <ele>3.6</ele>
        <time>2021-07-20T08:47:08Z</time>
      </trkpt>
      <trkpt lat="43.16824" lon="3.17459">
        <ele>3.6</ele>
        <time>2021-07-20T08:47:09Z</time>
      </trkpt>
      <trkpt lat="43.16824" lon="3.17459">
        <ele>-1.5200374</ele>
        <time>2021-07-20T08:47:10Z</time>
      </trkpt>
      <trkpt lat="43.16824" lon="3.17459">
        <ele>3.6</ele>
        <time>2021-07-20T08:47:11Z</time>
      </trkpt>
      <trkpt lat="43.16824" lon="3.17459">
        <ele>3.6</ele>
        <time>2021-07-20T08:47:12Z</time>
      </trkpt>
      <trkpt lat="43.16824" lon="3.17459">
        <ele>3.6</ele>
        <time>2021-07-20T08:47:13Z</time>
      </trkpt>
      <trkpt lat="43.16824" lon="3.17459">
        <ele>3.6</ele>
        <time>2021-07-20T08:47:14Z</time>
      </trkpt>
      <trkpt lat="43.16824" lon="3.17459">
        <ele>3.6</ele>
        <time>2021-07-20T08:47:15Z</time>
      </trkpt>
      <trkpt lat="43.16824" lon="3.17459">
        <ele>3.6</ele>
        <time>2021-07-20T08:47:16Z</time>
      </trkpt>
      <trkpt lat="43.16827" lon="3.17452">
        <ele>3.8</ele>
        <time>2021-07-20T08:47:17Z</time>
      </trkpt>
      <trkpt lat="43.16827" lon="3.17452">
        <ele>3.8</ele>
        <time>2021-07-20T08:47:18Z</time>
      </trkpt>
      <trkpt lat="43.16827" lon="3.17452">
        <ele>3.8</ele>
        <time>2021-07-20T08:47:19Z</time>
      </trkpt>
      <trkpt lat="43.16827" lon="3.17452">
        <ele>-1.513812</ele>
        <time>2021-07-20T08:47:20Z</time>
      </trkpt>
      <trkpt lat="43.16827" lon="3.17452">
        <ele>3.8</ele>
        <time>2021-07-20T08:47:21Z</time>
      </trkpt>
      <trkpt lat="43.16827" lon="3.17452">
        <ele>3.8</ele>
        <time>2021-07-20T08:47:22Z</time>
      </trkpt>
      <trkpt lat="43.16827" lon="3.17451">
        <ele>3.9</ele>
        <time>2021-07-20T08:47:23Z</time>
      </trkpt>
      <trkpt lat="43.16826" lon="3.17451">
        <ele>3.9</ele>
        <time>2021-07-20T08:47:24Z</time>
      </trkpt>
      <trkpt lat="43.16826" lon="3.17451">
        <ele>3.9</ele>
        <time>2021-07-20T08:47:25Z</time>
      </trkpt>
      <trkpt lat="43.16826" lon="3.17451">
        <ele>3.9</ele>
        <time>2021-07-20T08:47:26Z</time>
      </trkpt>
      <trkpt lat="43.16826" lon="3.17451">
        <ele>3.9</ele>
        <time>2021-07-20T08:47:27Z</time>
      </trkpt>
      <trkpt lat="43.16826" lon="3.17451">
        <ele>3.9</ele>
        <time>2021-07-20T08:47:28Z</time>
      </trkpt>
      <trkpt lat="43.16826" lon="3.17451">
        <ele>3.9</ele>
        <time>2021-07-20T08:47:29Z</time>
      </trkpt>
      <trkpt lat="43.16826" lon="3.17451">
        <ele>-1.69746</ele>
        <time>2021-07-20T08:47:30Z</time>
      </trkpt>
      <trkpt lat="43.16826" lon="3.17451">
        <ele>3.9</ele>
        <time>2021-07-20T08:47:31Z</time>
      </trkpt>
      <trkpt lat="43.16831" lon="3.17454">
        <ele>3.7</ele>
        <time>2021-07-20T08:47:31Z</time>
      </trkpt>
      <trkpt lat="43.1683" lon="3.17453">
        <ele>3.7</ele>
        <time>2021-07-20T08:49:20Z</time>
      </trkpt>
      <trkpt lat="43.1683" lon="3.17453">
        <ele>3.7</ele>
        <time>2021-07-20T08:49:21Z</time>
      </trkpt>
      <trkpt lat="43.1683" lon="3.17453">
        <ele>3.7</ele>
        <time>2021-07-20T08:49:22Z</time>
      </trkpt>
      <trkpt lat="43.1683" lon="3.17453">
        <ele>3.7</ele>
        <time>2021-07-20T08:49:23Z</time>
      </trkpt>
      <trkpt lat="43.1683" lon="3.17453">
        <ele>3.7</ele>
        <time>2021-07-20T08:49:24Z</time>
      </trkpt>
      <trkpt lat="43.1683" lon="3.17453">
        <ele>3.7</ele>
        <time>2021-07-20T08:49:25Z</time>
      </trkpt>
      <trkpt lat="43.1683" lon="3.17453">
        <ele>-1.8925196</ele>
        <time>2021-07-20T08:49:26Z</time>
      </trkpt>
      <trkpt lat="43.1683" lon="3.17453">
        <ele>3.7</ele>
        <time>2021-07-20T08:49:27Z</time>
      </trkpt>
      <trkpt lat="43.1683" lon="3.17453">
        <ele>3.7</ele>
        <time>2021-07-20T08:49:28Z</time>
      </trkpt>
      <trkpt lat="43.1683" lon="3.17453">
        <ele>3.7</ele>
        <time>2021-07-20T08:49:29Z</time>
      </trkpt>
      <trkpt lat="43.1683" lon="3.17453">
        <ele>3.7</ele>
        <time>2021-07-20T08:49:30Z</time>
      </trkpt>
      <trkpt lat="43.1683" lon="3.17452">
        <ele>3.8</ele>
        <time>2021-07-20T08:49:31Z</time>
      </trkpt>
      <trkpt lat="43.16829" lon="3.17452">
        <ele>3.8</ele>
        <time>2021-07-20T08:49:32Z</time>
      </trkpt>
      <trkpt lat="43.16829" lon="3.17452">
        <ele>3.8</ele>
        <time>2021-07-20T08:49:33Z</time>
      </trkpt>
      <trkpt lat="43.16829" lon="3.17452">
        <ele>3.8</ele>
        <time>2021-07-20T08:49:34Z</time>
      </trkpt>
      <trkpt lat="43.16829" lon="3.17452">
        <ele>3.8</ele>
        <time>2021-07-20T08:49:35Z</time>
      </trkpt>
      <trkpt lat="43.16829" lon="3.17452">
        <ele>-1.7306617</ele>
        <time>2021-07-20T08:49:36Z</time>
      </trkpt>
      <trkpt lat="43.16829" lon="3.17452">
        <ele>3.8</ele>
        <time>2021-07-20T08:49:37Z</time>
      </trkpt>
      <trkpt lat="43.16829" lon="3.17452">
        <ele>3.8</ele>
        <time>2021-07-20T08:49:38Z</time>
      </trkpt>
      <trkpt lat="43.16829" lon="3.17452">
        <ele>3.8</ele>
        <time>2021-07-20T08:49:39Z</time>
      </trkpt>
      <trkpt lat="43.16829" lon="3.17452">
        <ele>3.8</ele>
        <time>2021-07-20T08:49:40Z</time>
      </trkpt>
      <trkpt lat="43.16829" lon="3.17452">
        <ele>3.8</ele>
        <time>2021-07-20T08:49:41Z</time>
      </trkpt>
      <trkpt lat="43.16829" lon="3.17452">
        <ele>3.8</ele>
        <time>2021-07-20T08:49:42Z</time>
      </trkpt>
      <trkpt lat="43.16828" lon="3.1745">
        <ele>3.9</ele>
        <time>2021-07-20T08:49:43Z</time>
      </trkpt>
      <trkpt lat="43.16828" lon="3.17449">
        <ele>3.9</ele>
        <time>2021-07-20T08:49:44Z</time>
      </trkpt>
      <trkpt lat="43.16828" lon="3.17449">
        <ele>-1.5833286</ele>
        <time>2021-07-20T08:49:45Z</time>
      </trkpt>
      <trkpt lat="43.16828" lon="3.17449">
        <ele>3.9</ele>
        <time>2021-07-20T08:49:46Z</time>
      </trkpt>
      <trkpt lat="43.16828" lon="3.17449">
        <ele>3.9</ele>
        <time>2021-07-20T08:49:47Z</time>
      </trkpt>
      <trkpt lat="43.16828" lon="3.17449">
        <ele>3.9</ele>
        <time>2021-07-20T08:49:48Z</time>
      </trkpt>
      <trkpt lat="43.16828" lon="3.17449">
        <ele>3.9</ele>
        <time>2021-07-20T08:49:49Z</time>
      </trkpt>
      <trkpt lat="43.16828" lon="3.17449">
        <ele>3.9</ele>
        <time>2021-07-20T08:49:50Z</time>
      </trkpt>
      <trkpt lat="43.16828" lon="3.17449">
        <ele>3.9</ele>
        <time>2021-07-20T08:49:51Z</time>
      </trkpt>
      <trkpt lat="43.16828" lon="3.17449">
        <ele>3.9</ele>
        <time>2021-07-20T08:49:52Z</time>
      </trkpt>
      <trkpt lat="43.16828" lon="3.17449">
        <ele>3.9</ele>
        <time>2021-07-20T08:49:53Z</time>
      </trkpt>
      <trkpt lat="43.16828" lon="3.17449">
        <ele>3.9</ele>
        <time>2021-07-20T08:49:54Z</time>
      </trkpt>
      <trkpt lat="43.16828" lon="3.17449">
        <ele>-1.6466198</ele>
        <time>2021-07-20T08:49:55Z</time>
      </trkpt>
      <trkpt lat="43.16828" lon="3.17449">
        <ele>3.9</ele>
        <time>2021-07-20T08:49:56Z</time>
      </trkpt>
      <trkpt lat="43.16829" lon="3.17449">
        <ele>3.9</ele>
        <time>2021-07-20T08:49:57Z</time>
      </trkpt>
      <trkpt lat="43.16829" lon="3.17449">
        <ele>3.9</ele>
        <time>2021-07-20T08:49:58Z</time>
      </trkpt>
      <trkpt lat="43.16829" lon="3.17449">
        <ele>3.9</ele>
        <time>2021-07-20T08:49:59Z</time>
      </trkpt>
      <trkpt lat="43.16829" lon="3.17449">
        <ele>3.9</ele>
        <time>2021-07-20T08:50:00Z</time>
      </trkpt>
      <trkpt lat="43.16829" lon="3.17449">
        <ele>3.9</ele>
        <time>2021-07-20T08:50:01Z</time>
      </trkpt>
      <trkpt lat="43.16828" lon="3.17449">
        <ele>3.9</ele>
        <time>2021-07-20T08:50:02Z</time>
      </trkpt>
      <trkpt lat="43.16828" lon="3.17449">
        <ele>3.9</ele>
        <time>2021-07-20T08:50:03Z</time>
      </trkpt>
      <trkpt lat="43.16828" lon="3.17449">
        <ele>3.9</ele>
        <time>2021-07-20T08:50:04Z</time>
      </trkpt>
      <trkpt lat="43.16828" lon="3.17449">
        <ele>-1.9433594</ele>
        <time>2021-07-20T08:50:05Z</time>
      </trkpt>
      <trkpt lat="43.16829" lon="3.17448">
        <ele>3.9</ele>
        <time>2021-07-20T08:50:06Z</time>
      </trkpt>
      <trkpt lat="43.16829" lon="3.17447">
        <ele>4</ele>
        <time>2021-07-20T08:50:07Z</time>
      </trkpt>
      <trkpt lat="43.16829" lon="3.17446">
        <ele>4</ele>
        <time>2021-07-20T08:50:08Z</time>
      </trkpt>
      <trkpt lat="43.1683" lon="3.17445">
        <ele>4</ele>
        <time>2021-07-20T08:50:09Z</time>
      </trkpt>
      <trkpt lat="43.16832" lon="3.17444">
        <ele>4</ele>
        <time>2021-07-20T08:50:10Z</time>
      </trkpt>
      <trkpt lat="43.16833" lon="3.17443">
        <ele>4</ele>
        <time>2021-07-20T08:50:11Z</time>
      </trkpt>
      <trkpt lat="43.16834" lon="3.17443">
        <ele>4.1</ele>
        <time>2021-07-20T08:50:12Z</time>
      </trkpt>
      <trkpt lat="43.16836" lon="3.17443">
        <ele>4.1</ele>
        <time>2021-07-20T08:50:13Z</time>
      </trkpt>
      <trkpt lat="43.16838" lon="3.17443">
        <ele>4.1</ele>
        <time>2021-07-20T08:50:14Z</time>
      </trkpt>
      <trkpt lat="43.1684" lon="3.17443">
        <ele>-2.2328324</ele>
        <time>2021-07-20T08:50:15Z</time>
      </trkpt>
      <trkpt lat="43.16842" lon="3.17442">
        <ele>4.3</ele>
        <time>2021-07-20T08:50:16Z</time>
      </trkpt>
      <trkpt lat="43.16845" lon="3.17442">
        <ele>4.3</ele>
        <time>2021-07-20T08:50:17Z</time>
      </trkpt>
      <trkpt lat="43.16847" lon="3.17441">
        <ele>4.4</ele>
        <time>2021-07-20T08:50:18Z</time>
      </trkpt>
      <trkpt lat="43.16851" lon="3.1744">
        <ele>4.5</ele>
        <time>2021-07-20T08:50:19Z</time>
      </trkpt>
      <trkpt lat="43.16854" lon="3.17439">
        <ele>4.6</ele>
        <time>2021-07-20T08:50:20Z</time>
      </trkpt>
      <trkpt lat="43.16857" lon="3.17438">
        <ele>4.7</ele>
        <time>2021-07-20T08:50:21Z</time>
      </trkpt>
      <trkpt lat="43.1686" lon="3.17436">
        <ele>4.9</ele>
        <time>2021-07-20T08:50:22Z</time>
      </trkpt>
      <trkpt lat="43.16864" lon="3.17436">
        <ele>5</ele>
        <time>2021-07-20T08:50:23Z</time>
      </trkpt>
      <trkpt lat="43.16867" lon="3.17435">
        <ele>5.1</ele>
        <time>2021-07-20T08:50:24Z</time>
      </trkpt>
      <trkpt lat="43.16871" lon="3.17434">
        <ele>5.2</ele>
        <time>2021-07-20T08:50:25Z</time>
      </trkpt>
      <trkpt lat="43.16876" lon="3.17432">
        <ele>-2.3718612</ele>
        <time>2021-07-20T08:50:26Z</time>
      </trkpt>
      <trkpt lat="43.16879" lon="3.17431">
        <ele>5.5</ele>
        <time>2021-07-20T08:50:27Z</time>
      </trkpt>
      <trkpt lat="43.16882" lon="3.1743">
        <ele>5.6</ele>
        <time>2021-07-20T08:50:28Z</time>
      </trkpt>
      <trkpt lat="43.16886" lon="3.17429">
        <ele>5.7</ele>
        <time>2021-07-20T08:50:29Z</time>
      </trkpt>
      <trkpt lat="43.16889" lon="3.17428">
        <ele>5.8</ele>
        <time>2021-07-20T08:50:30Z</time>
      </trkpt>
      <trkpt lat="43.16893" lon="3.17428">
        <ele>5.9</ele>
        <time>2021-07-20T08:50:31Z</time>
      </trkpt>
      <trkpt lat="43.16896" lon="3.17427">
        <ele>6</ele>
        <time>2021-07-20T08:50:32Z</time>
      </trkpt>
      <trkpt lat="43.169" lon="3.17426">
        <ele>6.1</ele>
        <time>2021-07-20T08:50:33Z</time>
      </trkpt>
      <trkpt lat="43.16903" lon="3.17426">
        <ele>6.2</ele>
        <time>2021-07-20T08:50:34Z</time>
      </trkpt>
      <trkpt lat="43.16905" lon="3.17425">
        <ele>6.3</ele>
        <time>2021-07-20T08:50:35Z</time>
      </trkpt>
      <trkpt lat="43.16908" lon="3.17426">
        <ele>-2.3303602</ele>
        <time>2021-07-20T08:50:36Z</time>
      </trkpt>
      <trkpt lat="43.16911" lon="3.17426">
        <ele>6.4</ele>
        <time>2021-07-20T08:50:37Z</time>
      </trkpt>
      <trkpt lat="43.16914" lon="3.17426">
        <ele>6.5</ele>
        <time>2021-07-20T08:50:38Z</time>
      </trkpt>
      <trkpt lat="43.16917" lon="3.17426">
        <ele>6.7</ele>
        <time>2021-07-20T08:50:39Z</time>
      </trkpt>
      <trkpt lat="43.16921" lon="3.17427">
        <ele>7.1</ele>
        <time>2021-07-20T08:50:40Z</time>
      </trkpt>
      <trkpt lat="43.16924" lon="3.17427">
        <ele>7.5</ele>
        <time>2021-07-20T08:50:41Z</time>
      </trkpt>
      <trkpt lat="43.16928" lon="3.17428">
        <ele>8</ele>
        <time>2021-07-20T08:50:42Z</time>
      </trkpt>
      <trkpt lat="43.16931" lon="3.17429">
        <ele>8.4</ele>
        <time>2021-07-20T08:50:43Z</time>
      </trkpt>
      <trkpt lat="43.16935" lon="3.1743">
        <ele>8.8</ele>
        <time>2021-07-20T08:50:44Z</time>
      </trkpt>
      <trkpt lat="43.16938" lon="3.17431">
        <ele>9.1</ele>
        <time>2021-07-20T08:50:45Z</time>
      </trkpt>
      <trkpt lat="43.16941" lon="3.17433">
        <ele>-2.2784839</ele>
        <time>2021-07-20T08:50:46Z</time>
      </trkpt>
      <trkpt lat="43.16945" lon="3.17434">
        <ele>9.9</ele>
        <time>2021-07-20T08:50:47Z</time>
      </trkpt>
      <trkpt lat="43.16948" lon="3.17436">
        <ele>10.2</ele>
        <time>2021-07-20T08:50:48Z</time>
      </trkpt>
      <trkpt lat="43.16951" lon="3.17438">
        <ele>10.4</ele>
        <time>2021-07-20T08:50:49Z</time>
      </trkpt>
      <trkpt lat="43.16954" lon="3.1744">
        <ele>10.7</ele>
        <time>2021-07-20T08:50:50Z</time>
      </trkpt>
      <trkpt lat="43.16957" lon="3.17442">
        <ele>11</ele>
        <time>2021-07-20T08:50:51Z</time>
      </trkpt>
      <trkpt lat="43.16961" lon="3.17444">
        <ele>11.3</ele>
        <time>2021-07-20T08:50:52Z</time>
      </trkpt>
      <trkpt lat="43.16964" lon="3.17445">
        <ele>11.7</ele>
        <time>2021-07-20T08:50:53Z</time>
      </trkpt>
      <trkpt lat="43.16968" lon="3.17446">
        <ele>12.1</ele>
        <time>2021-07-20T08:50:54Z</time>
      </trkpt>
      <trkpt lat="43.16971" lon="3.17448">
        <ele>12.4</ele>
        <time>2021-07-20T08:50:55Z</time>
      </trkpt>
      <trkpt lat="43.16975" lon="3.17449">
        <ele>-2.02325</ele>
        <time>2021-07-20T08:50:56Z</time>
      </trkpt>
      <trkpt lat="43.16978" lon="3.1745">
        <ele>13</ele>
        <time>2021-07-20T08:50:57Z</time>
      </trkpt>
      <trkpt lat="43.16981" lon="3.17452">
        <ele>13.3</ele>
        <time>2021-07-20T08:50:58Z</time>
      </trkpt>
      <trkpt lat="43.16983" lon="3.17454">
        <ele>13.4</ele>
        <time>2021-07-20T08:50:59Z</time>
      </trkpt>
      <trkpt lat="43.16986" lon="3.17456">
        <ele>13.5</ele>
        <time>2021-07-20T08:51:00Z</time>
      </trkpt>
      <trkpt lat="43.16988" lon="3.17458">
        <ele>13.6</ele>
        <time>2021-07-20T08:51:01Z</time>
      </trkpt>
      <trkpt lat="43.1699" lon="3.17462">
        <ele>13.5</ele>
        <time>2021-07-20T08:51:02Z</time>
      </trkpt>
      <trkpt lat="43.16991" lon="3.17465">
        <ele>13.3</ele>
        <time>2021-07-20T08:51:03Z</time>
      </trkpt>
      <trkpt lat="43.16992" lon="3.17468">
        <ele>13.1</ele>
        <time>2021-07-20T08:51:04Z</time>
      </trkpt>
      <trkpt lat="43.16994" lon="3.17471">
        <ele>13</ele>
        <time>2021-07-20T08:51:05Z</time>
      </trkpt>
      <trkpt lat="43.16995" lon="3.17475">
        <ele>-2.3293226</ele>
        <time>2021-07-20T08:51:06Z</time>
      </trkpt>
      <trkpt lat="43.16996" lon="3.17478">
        <ele>12.6</ele>
        <time>2021-07-20T08:51:07Z</time>
      </trkpt>
      <trkpt lat="43.16998" lon="3.17481">
        <ele>12.5</ele>
        <time>2021-07-20T08:51:08Z</time>
      </trkpt>
      <trkpt lat="43.16999" lon="3.17484">
        <ele>12.5</ele>
        <time>2021-07-20T08:51:09Z</time>
      </trkpt>
      <trkpt lat="43.17002" lon="3.17487">
        <ele>12.5</ele>
        <time>2021-07-20T08:51:10Z</time>
      </trkpt>
      <trkpt lat="43.17004" lon="3.1749">
        <ele>12.6</ele>
        <time>2021-07-20T08:51:11Z</time>
      </trkpt>
      <trkpt lat="43.17006" lon="3.17493">
        <ele>12.6</ele>
        <time>2021-07-20T08:51:12Z</time>
      </trkpt>
      <trkpt lat="43.17007" lon="3.17495">
        <ele>12.6</ele>
        <time>2021-07-20T08:51:13Z</time>
      </trkpt>
      <trkpt lat="43.17009" lon="3.17499">
        <ele>12.5</ele>
        <time>2021-07-20T08:51:14Z</time>
      </trkpt>
      <trkpt lat="43.1701" lon="3.17503">
        <ele>-2.193406</ele>
        <time>2021-07-20T08:51:15Z</time>
      </trkpt>
      <trkpt lat="43.17011" lon="3.17507">
        <ele>12.3</ele>
        <time>2021-07-20T08:51:16Z</time>
      </trkpt>
      <trkpt lat="43.17012" lon="3.17511">
        <ele>12.1</ele>
        <time>2021-07-20T08:51:17Z</time>
      </trkpt>
      <trkpt lat="43.17013" lon="3.17514">
        <ele>12.1</ele>
        <time>2021-07-20T08:51:18Z</time>
      </trkpt>
      <trkpt lat="43.17014" lon="3.17518">
        <ele>11.9</ele>
        <time>2021-07-20T08:51:19Z</time>
      </trkpt>
      <trkpt lat="43.17015" lon="3.17522">
        <ele>11.6</ele>
        <time>2021-07-20T08:51:20Z</time>
      </trkpt>
      <trkpt lat="43.17015" lon="3.17527">
        <ele>11.3</ele>
        <time>2021-07-20T08:51:21Z</time>
      </trkpt>
      <trkpt lat="43.17015" lon="3.17531">
        <ele>11</ele>
        <time>2021-07-20T08:51:22Z</time>
      </trkpt>
      <trkpt lat="43.17015" lon="3.17536">
        <ele>10.6</ele>
        <time>2021-07-20T08:51:23Z</time>
      </trkpt>
      <trkpt lat="43.17015" lon="3.1754">
        <ele>10.2</ele>
        <time>2021-07-20T08:51:24Z</time>
      </trkpt>
      <trkpt lat="43.17015" lon="3.17545">
        <ele>-1.8956323</ele>
        <time>2021-07-20T08:51:25Z</time>
      </trkpt>
      <trkpt lat="43.17016" lon="3.17549">
        <ele>9.6</ele>
        <time>2021-07-20T08:51:26Z</time>
      </trkpt>
      <trkpt lat="43.17016" lon="3.17552">
        <ele>9.3</ele>
        <time>2021-07-20T08:51:27Z</time>
      </trkpt>
      <trkpt lat="43.17016" lon="3.17556">
        <ele>9.1</ele>
        <time>2021-07-20T08:51:28Z</time>
      </trkpt>
      <trkpt lat="43.17019" lon="3.17559">
        <ele>9.1</ele>
        <time>2021-07-20T08:51:29Z</time>
      </trkpt>
      <trkpt lat="43.17021" lon="3.17561">
        <ele>9</ele>
        <time>2021-07-20T08:51:30Z</time>
      </trkpt>
      <trkpt lat="43.17024" lon="3.17563">
        <ele>9.1</ele>
        <time>2021-07-20T08:51:31Z</time>
      </trkpt>
      <trkpt lat="43.17027" lon="3.17565">
        <ele>9.1</ele>
        <time>2021-07-20T08:51:32Z</time>
      </trkpt>
      <trkpt lat="43.1703" lon="3.17567">
        <ele>9.2</ele>
        <time>2021-07-20T08:51:33Z</time>
      </trkpt>
      <trkpt lat="43.17033" lon="3.17569">
        <ele>9.1</ele>
        <time>2021-07-20T08:51:34Z</time>
      </trkpt>
      <trkpt lat="43.17036" lon="3.17571">
        <ele>-1.8582805</ele>
        <time>2021-07-20T08:51:35Z</time>
      </trkpt>
      <trkpt lat="43.17037" lon="3.17575">
        <ele>8.7</ele>
        <time>2021-07-20T08:51:36Z</time>
      </trkpt>
      <trkpt lat="43.17038" lon="3.17579">
        <ele>8.4</ele>
        <time>2021-07-20T08:51:37Z</time>
      </trkpt>
      <trkpt lat="43.17039" lon="3.17583">
        <ele>7.9</ele>
        <time>2021-07-20T08:51:38Z</time>
      </trkpt>
      <trkpt lat="43.17041" lon="3.17587">
        <ele>7.7</ele>
        <time>2021-07-20T08:51:39Z</time>
      </trkpt>
      <trkpt lat="43.17043" lon="3.1759">
        <ele>7.6</ele>
        <time>2021-07-20T08:51:40Z</time>
      </trkpt>
      <trkpt lat="43.17045" lon="3.17592">
        <ele>7.6</ele>
        <time>2021-07-20T08:51:41Z</time>
      </trkpt>
      <trkpt lat="43.17048" lon="3.17594">
        <ele>7.6</ele>
        <time>2021-07-20T08:51:42Z</time>
      </trkpt>
      <trkpt lat="43.17051" lon="3.17594">
        <ele>7.7</ele>
        <time>2021-07-20T08:51:43Z</time>
      </trkpt>
      <trkpt lat="43.17054" lon="3.17594">
        <ele>7.9</ele>
        <time>2021-07-20T08:51:44Z</time>
      </trkpt>
      <trkpt lat="43.17057" lon="3.17593">
        <ele>-2.1280415</ele>
        <time>2021-07-20T08:51:45Z</time>
      </trkpt>
      <trkpt lat="43.17061" lon="3.17593">
        <ele>8.2</ele>
        <time>2021-07-20T08:51:46Z</time>
      </trkpt>
      <trkpt lat="43.17064" lon="3.17593">
        <ele>8.4</ele>
        <time>2021-07-20T08:51:47Z</time>
      </trkpt>
      <trkpt lat="43.17067" lon="3.17593">
        <ele>8.5</ele>
        <time>2021-07-20T08:51:48Z</time>
      </trkpt>
      <trkpt lat="43.17071" lon="3.17595">
        <ele>8.5</ele>
        <time>2021-07-20T08:51:49Z</time>
      </trkpt>
      <trkpt lat="43.17075" lon="3.17597">
        <ele>8.5</ele>
        <time>2021-07-20T08:51:50Z</time>
      </trkpt>
      <trkpt lat="43.17078" lon="3.17596">
        <ele>8.7</ele>
        <time>2021-07-20T08:51:51Z</time>
      </trkpt>
      <trkpt lat="43.17081" lon="3.17595">
        <ele>8.9</ele>
        <time>2021-07-20T08:51:52Z</time>
      </trkpt>
      <trkpt lat="43.17084" lon="3.17593">
        <ele>9.2</ele>
        <time>2021-07-20T08:51:53Z</time>
      </trkpt>
      <trkpt lat="43.17087" lon="3.17592">
        <ele>9.7</ele>
        <time>2021-07-20T08:51:54Z</time>
      </trkpt>
      <trkpt lat="43.1709" lon="3.1759">
        <ele>-2.0191</ele>
        <time>2021-07-20T08:51:55Z</time>
      </trkpt>
      <trkpt lat="43.17093" lon="3.17588">
        <ele>10.7</ele>
        <time>2021-07-20T08:51:56Z</time>
      </trkpt>
      <trkpt lat="43.17095" lon="3.17586">
        <ele>11.1</ele>
        <time>2021-07-20T08:51:57Z</time>
      </trkpt>
      <trkpt lat="43.17098" lon="3.17585">
        <ele>11.6</ele>
        <time>2021-07-20T08:51:58Z</time>
      </trkpt>
      <trkpt lat="43.17101" lon="3.17584">
        <ele>12</ele>
        <time>2021-07-20T08:51:59Z</time>
      </trkpt>
      <trkpt lat="43.17104" lon="3.17585">
        <ele>12.4</ele>
        <time>2021-07-20T08:52:00Z</time>
      </trkpt>
      <trkpt lat="43.17107" lon="3.17585">
        <ele>12.7</ele>
        <time>2021-07-20T08:52:01Z</time>
      </trkpt>
      <trkpt lat="43.17111" lon="3.17586">
        <ele>13</ele>
        <time>2021-07-20T08:52:02Z</time>
      </trkpt>
      <trkpt lat="43.17114" lon="3.17588">
        <ele>13.2</ele>
        <time>2021-07-20T08:52:03Z</time>
      </trkpt>
      <trkpt lat="43.17117" lon="3.17589">
        <ele>13.3</ele>
        <time>2021-07-20T08:52:04Z</time>
      </trkpt>
      <trkpt lat="43.17119" lon="3.17592">
        <ele>13.4</ele>
        <time>2021-07-20T08:52:05Z</time>
      </trkpt>
      <trkpt lat="43.17122" lon="3.17594">
        <ele>-1.7887647</ele>
        <time>2021-07-20T08:52:06Z</time>
      </trkpt>
      <trkpt lat="43.17125" lon="3.17597">
        <ele>13.4</ele>
        <time>2021-07-20T08:52:07Z</time>
      </trkpt>
      <trkpt lat="43.17127" lon="3.17601">
        <ele>13.3</ele>
        <time>2021-07-20T08:52:08Z</time>
      </trkpt>
      <trkpt lat="43.1713" lon="3.17603">
        <ele>13.2</ele>
        <time>2021-07-20T08:52:09Z</time>
      </trkpt>
      <trkpt lat="43.17132" lon="3.17607">
        <ele>13.1</ele>
        <time>2021-07-20T08:52:10Z</time>
      </trkpt>
      <trkpt lat="43.17135" lon="3.1761">
        <ele>13</ele>
        <time>2021-07-20T08:52:11Z</time>
      </trkpt>
      <trkpt lat="43.17137" lon="3.17613">
        <ele>12.8</ele>
        <time>2021-07-20T08:52:12Z</time>
      </trkpt>
      <trkpt lat="43.17139" lon="3.17616">
        <ele>12.6</ele>
        <time>2021-07-20T08:52:13Z</time>
      </trkpt>
      <trkpt lat="43.17142" lon="3.17619">
        <ele>12.5</ele>
        <time>2021-07-20T08:52:14Z</time>
      </trkpt>
      <trkpt lat="43.17144" lon="3.17622">
        <ele>12.4</ele>
        <time>2021-07-20T08:52:15Z</time>
      </trkpt>
      <trkpt lat="43.17146" lon="3.17625">
        <ele>-1.6891596</ele>
        <time>2021-07-20T08:52:16Z</time>
      </trkpt>
      <trkpt lat="43.17149" lon="3.17629">
        <ele>11.9</ele>
        <time>2021-07-20T08:52:17Z</time>
      </trkpt>
      <trkpt lat="43.17151" lon="3.17632">
        <ele>11.7</ele>
        <time>2021-07-20T08:52:18Z</time>
      </trkpt>
      <trkpt lat="43.17154" lon="3.17634">
        <ele>11.5</ele>
        <time>2021-07-20T08:52:19Z</time>
      </trkpt>
      <trkpt lat="43.17156" lon="3.17638">
        <ele>11.3</ele>
        <time>2021-07-20T08:52:20Z</time>
      </trkpt>
      <trkpt lat="43.17159" lon="3.17641">
        <ele>11</ele>
        <time>2021-07-20T08:52:21Z</time>
      </trkpt>
      <trkpt lat="43.1716" lon="3.17645">
        <ele>10.6</ele>
        <time>2021-07-20T08:52:22Z</time>
      </trkpt>
      <trkpt lat="43.17163" lon="3.17649">
        <ele>10.3</ele>
        <time>2021-07-20T08:52:23Z</time>
      </trkpt>
      <trkpt lat="43.17165" lon="3.17652">
        <ele>10</ele>
        <time>2021-07-20T08:52:24Z</time>
      </trkpt>
      <trkpt lat="43.17168" lon="3.17656">
        <ele>9.6</ele>
        <time>2021-07-20T08:52:25Z</time>
      </trkpt>
      <trkpt lat="43.1717" lon="3.1766">
        <ele>-1.8313043</ele>
        <time>2021-07-20T08:52:26Z</time>
      </trkpt>
      <trkpt lat="43.17173" lon="3.17663">
        <ele>8.7</ele>
        <time>2021-07-20T08:52:27Z</time>
      </trkpt>
      <trkpt lat="43.17176" lon="3.17667">
        <ele>8.3</ele>
        <time>2021-07-20T08:52:28Z</time>
      </trkpt>
      <trkpt lat="43.17179" lon="3.1767">
        <ele>8.2</ele>
        <time>2021-07-20T08:52:29Z</time>
      </trkpt>
      <trkpt lat="43.17181" lon="3.17673">
        <ele>8.1</ele>
        <time>2021-07-20T08:52:30Z</time>
      </trkpt>
      <trkpt lat="43.17183" lon="3.17677">
        <ele>7.9</ele>
        <time>2021-07-20T08:52:31Z</time>
      </trkpt>
      <trkpt lat="43.17185" lon="3.1768">
        <ele>7.7</ele>
        <time>2021-07-20T08:52:32Z</time>
      </trkpt>
      <trkpt lat="43.17187" lon="3.17683">
        <ele>7.5</ele>
        <time>2021-07-20T08:52:33Z</time>
      </trkpt>
      <trkpt lat="43.17189" lon="3.17687">
        <ele>7.3</ele>
        <time>2021-07-20T08:52:34Z</time>
      </trkpt>
      <trkpt lat="43.17192" lon="3.17691">
        <ele>7.1</ele>
        <time>2021-07-20T08:52:35Z</time>
      </trkpt>
      <trkpt lat="43.17194" lon="3.17694">
        <ele>-1.84583</ele>
        <time>2021-07-20T08:52:36Z</time>
      </trkpt>
      <trkpt lat="43.17196" lon="3.17698">
        <ele>6.7</ele>
        <time>2021-07-20T08:52:37Z</time>
      </trkpt>
      <trkpt lat="43.17198" lon="3.17701">
        <ele>6.5</ele>
        <time>2021-07-20T08:52:38Z</time>
      </trkpt>
      <trkpt lat="43.17201" lon="3.17704">
        <ele>6.3</ele>
        <time>2021-07-20T08:52:39Z</time>
      </trkpt>
      <trkpt lat="43.17203" lon="3.17707">
        <ele>6</ele>
        <time>2021-07-20T08:52:40Z</time>
      </trkpt>
      <trkpt lat="43.17205" lon="3.17711">
        <ele>5.8</ele>
        <time>2021-07-20T08:52:41Z</time>
      </trkpt>
      <trkpt lat="43.17208" lon="3.17714">
        <ele>5.5</ele>
        <time>2021-07-20T08:52:42Z</time>
      </trkpt>
      <trkpt lat="43.1721" lon="3.17718">
        <ele>5.2</ele>
        <time>2021-07-20T08:52:43Z</time>
      </trkpt>
      <trkpt lat="43.17213" lon="3.17721">
        <ele>5</ele>
        <time>2021-07-20T08:52:44Z</time>
      </trkpt>
      <trkpt lat="43.17217" lon="3.17723">
        <ele>4.8</ele>
        <time>2021-07-20T08:52:45Z</time>
      </trkpt>
      <trkpt lat="43.1722" lon="3.17725">
        <ele>-1.5812535</ele>
        <time>2021-07-20T08:52:46Z</time>
      </trkpt>
      <trkpt lat="43.17223" lon="3.17726">
        <ele>4.5</ele>
        <time>2021-07-20T08:52:47Z</time>
      </trkpt>
      <trkpt lat="43.17226" lon="3.17728">
        <ele>4.4</ele>
        <time>2021-07-20T08:52:48Z</time>
      </trkpt>
      <trkpt lat="43.17228" lon="3.17729">
        <ele>4.3</ele>
        <time>2021-07-20T08:52:49Z</time>
      </trkpt>
      <trkpt lat="43.17231" lon="3.17728">
        <ele>4.3</ele>
        <time>2021-07-20T08:52:50Z</time>
      </trkpt>
      <trkpt lat="43.17234" lon="3.17728">
        <ele>4.3</ele>
        <time>2021-07-20T08:52:51Z</time>
      </trkpt>
      <trkpt lat="43.17237" lon="3.17728">
        <ele>4.4</ele>
        <time>2021-07-20T08:52:52Z</time>
      </trkpt>
      <trkpt lat="43.1724" lon="3.17727">
        <ele>4.4</ele>
        <time>2021-07-20T08:52:53Z</time>
      </trkpt>
      <trkpt lat="43.17243" lon="3.17726">
        <ele>4.5</ele>
        <time>2021-07-20T08:52:54Z</time>
      </trkpt>
      <trkpt lat="43.17247" lon="3.17725">
        <ele>-1.4764596</ele>
        <time>2021-07-20T08:52:55Z</time>
      </trkpt>
      <trkpt lat="43.1725" lon="3.17724">
        <ele>4.8</ele>
        <time>2021-07-20T08:52:56Z</time>
      </trkpt>
      <trkpt lat="43.17253" lon="3.17723">
        <ele>4.8</ele>
        <time>2021-07-20T08:52:57Z</time>
      </trkpt>
      <trkpt lat="43.17255" lon="3.17722">
        <ele>4.9</ele>
        <time>2021-07-20T08:52:58Z</time>
      </trkpt>
      <trkpt lat="43.17258" lon="3.1772">
        <ele>5</ele>
        <time>2021-07-20T08:52:59Z</time>
      </trkpt>
      <trkpt lat="43.1726" lon="3.17719">
        <ele>5.1</ele>
        <time>2021-07-20T08:53:00Z</time>
      </trkpt>
      <trkpt lat="43.17263" lon="3.17717">
        <ele>5.2</ele>
        <time>2021-07-20T08:53:01Z</time>
      </trkpt>
      <trkpt lat="43.17266" lon="3.17716">
        <ele>5.2</ele>
        <time>2021-07-20T08:53:02Z</time>
      </trkpt>
      <trkpt lat="43.17269" lon="3.17715">
        <ele>5.2</ele>
        <time>2021-07-20T08:53:03Z</time>
      </trkpt>
      <trkpt lat="43.17272" lon="3.17714">
        <ele>5.2</ele>
        <time>2021-07-20T08:53:04Z</time>
      </trkpt>
      <trkpt lat="43.17275" lon="3.17713">
        <ele>-0.59970015</ele>
        <time>2021-07-20T08:53:05Z</time>
      </trkpt>
      <trkpt lat="43.17278" lon="3.17711">
        <ele>5.2</ele>
        <time>2021-07-20T08:53:06Z</time>
      </trkpt>
      <trkpt lat="43.17281" lon="3.17711">
        <ele>5.2</ele>
        <time>2021-07-20T08:53:07Z</time>
      </trkpt>
      <trkpt lat="43.17284" lon="3.1771">
        <ele>5.2</ele>
        <time>2021-07-20T08:53:08Z</time>
      </trkpt>
      <trkpt lat="43.17287" lon="3.17709">
        <ele>5.1</ele>
        <time>2021-07-20T08:53:09Z</time>
      </trkpt>
      <trkpt lat="43.1729" lon="3.17707">
        <ele>5.2</ele>
        <time>2021-07-20T08:53:10Z</time>
      </trkpt>
      <trkpt lat="43.17293" lon="3.17705">
        <ele>5.2</ele>
        <time>2021-07-20T08:53:11Z</time>
      </trkpt>
      <trkpt lat="43.17296" lon="3.17703">
        <ele>5.2</ele>
        <time>2021-07-20T08:53:12Z</time>
      </trkpt>
      <trkpt lat="43.17298" lon="3.17702">
        <ele>5.2</ele>
        <time>2021-07-20T08:53:13Z</time>
      </trkpt>
      <trkpt lat="43.173" lon="3.17701">
        <ele>5.2</ele>
        <time>2021-07-20T08:53:14Z</time>
      </trkpt>
      <trkpt lat="43.17302" lon="3.17699">
        <ele>0.34246442</ele>
        <time>2021-07-20T08:53:15Z</time>
      </trkpt>
      <trkpt lat="43.17305" lon="3.17697">
        <ele>5.2</ele>
        <time>2021-07-20T08:53:16Z</time>
      </trkpt>
      <trkpt lat="43.17307" lon="3.17695">
        <ele>5.2</ele>
        <time>2021-07-20T08:53:17Z</time>
      </trkpt>
      <trkpt lat="43.17309" lon="3.17693">
        <ele>5.3</ele>
        <time>2021-07-20T08:53:18Z</time>
      </trkpt>
      <trkpt lat="43.17312" lon="3.17691">
        <ele>5.3</ele>
        <time>2021-07-20T08:53:19Z</time>
      </trkpt>
      <trkpt lat="43.17314" lon="3.17688">
        <ele>5.3</ele>
        <time>2021-07-20T08:53:20Z</time>
      </trkpt>
      <trkpt lat="43.17316" lon="3.17685">
        <ele>5.3</ele>
        <time>2021-07-20T08:53:21Z</time>
      </trkpt>
      <trkpt lat="43.17319" lon="3.17682">
        <ele>5.3</ele>
        <time>2021-07-20T08:53:22Z</time>
      </trkpt>
      <trkpt lat="43.17321" lon="3.17679">
        <ele>5.3</ele>
        <time>2021-07-20T08:53:23Z</time>
      </trkpt>
      <trkpt lat="43.17323" lon="3.17676">
        <ele>5.3</ele>
        <time>2021-07-20T08:53:24Z</time>
      </trkpt>
      <trkpt lat="43.17326" lon="3.17673">
        <ele>0.5915012</ele>
        <time>2021-07-20T08:53:25Z</time>
      </trkpt>
      <trkpt lat="43.17329" lon="3.17671">
        <ele>5.2</ele>
        <time>2021-07-20T08:53:26Z</time>
      </trkpt>
      <trkpt lat="43.17331" lon="3.17668">
        <ele>5.1</ele>
        <time>2021-07-20T08:53:27Z</time>
      </trkpt>
      <trkpt lat="43.17334" lon="3.17666">
        <ele>5.1</ele>
        <time>2021-07-20T08:53:28Z</time>
      </trkpt>
      <trkpt lat="43.17336" lon="3.17663">
        <ele>5.3</ele>
        <time>2021-07-20T08:53:29Z</time>
      </trkpt>
      <trkpt lat="43.17339" lon="3.17661">
        <ele>5.5</ele>
        <time>2021-07-20T08:53:30Z</time>
      </trkpt>
      <trkpt lat="43.17341" lon="3.17658">
        <ele>5.7</ele>
        <time>2021-07-20T08:53:31Z</time>
      </trkpt>
      <trkpt lat="43.17344" lon="3.17654">
        <ele>6</ele>
        <time>2021-07-20T08:53:32Z</time>
      </trkpt>
      <trkpt lat="43.17345" lon="3.1765">
        <ele>6.3</ele>
        <time>2021-07-20T08:53:33Z</time>
      </trkpt>
      <trkpt lat="43.17347" lon="3.17646">
        <ele>6.6</ele>
        <time>2021-07-20T08:53:34Z</time>
      </trkpt>
      <trkpt lat="43.17349" lon="3.17643">
        <ele>0.6288569</ele>
        <time>2021-07-20T08:53:35Z</time>
      </trkpt>
      <trkpt lat="43.17351" lon="3.17639">
        <ele>7.2</ele>
        <time>2021-07-20T08:53:36Z</time>
      </trkpt>
      <trkpt lat="43.17353" lon="3.17636">
        <ele>7.4</ele>
        <time>2021-07-20T08:53:37Z</time>
      </trkpt>
      <trkpt lat="43.17355" lon="3.17633">
        <ele>7.5</ele>
        <time>2021-07-20T08:53:38Z</time>
      </trkpt>
      <trkpt lat="43.17358" lon="3.17631">
        <ele>7.6</ele>
        <time>2021-07-20T08:53:39Z</time>
      </trkpt>
      <trkpt lat="43.1736" lon="3.1763">
        <ele>7.6</ele>
        <time>2021-07-20T08:53:40Z</time>
      </trkpt>
      <trkpt lat="43.17363" lon="3.1763">
        <ele>7.6</ele>
        <time>2021-07-20T08:53:41Z</time>
      </trkpt>
      <trkpt lat="43.17366" lon="3.17629">
        <ele>7.5</ele>
        <time>2021-07-20T08:53:42Z</time>
      </trkpt>
      <trkpt lat="43.17368" lon="3.17629">
        <ele>7.4</ele>
        <time>2021-07-20T08:53:43Z</time>
      </trkpt>
      <trkpt lat="43.17371" lon="3.17629">
        <ele>7.4</ele>
        <time>2021-07-20T08:53:44Z</time>
      </trkpt>
      <trkpt lat="43.17374" lon="3.17628">
        <ele>7.3</ele>
        <time>2021-07-20T08:53:45Z</time>
      </trkpt>
      <trkpt lat="43.17377" lon="3.17628">
        <ele>0.49396145</ele>
        <time>2021-07-20T08:53:46Z</time>
      </trkpt>
      <trkpt lat="43.17379" lon="3.17628">
        <ele>7.2</ele>
        <time>2021-07-20T08:53:47Z</time>
      </trkpt>
      <trkpt lat="43.17382" lon="3.17627">
        <ele>7.1</ele>
        <time>2021-07-20T08:53:48Z</time>
      </trkpt>
      <trkpt lat="43.17386" lon="3.17627">
        <ele>7</ele>
        <time>2021-07-20T08:53:49Z</time>
      </trkpt>
      <trkpt lat="43.17389" lon="3.17627">
        <ele>6.9</ele>
        <time>2021-07-20T08:53:50Z</time>
      </trkpt>
      <trkpt lat="43.17392" lon="3.17626">
        <ele>6.8</ele>
        <time>2021-07-20T08:53:51Z</time>
      </trkpt>
      <trkpt lat="43.17395" lon="3.17625">
        <ele>6.7</ele>
        <time>2021-07-20T08:53:52Z</time>
      </trkpt>
      <trkpt lat="43.17399" lon="3.17625">
        <ele>6.7</ele>
        <time>2021-07-20T08:53:53Z</time>
      </trkpt>
      <trkpt lat="43.17402" lon="3.17624">
        <ele>6.6</ele>
        <time>2021-07-20T08:53:54Z</time>
      </trkpt>
      <trkpt lat="43.17405" lon="3.17623">
        <ele>6.5</ele>
        <time>2021-07-20T08:53:55Z</time>
      </trkpt>
      <trkpt lat="43.17408" lon="3.17622">
        <ele>0.8094105</ele>
        <time>2021-07-20T08:53:56Z</time>
      </trkpt>
      <trkpt lat="43.17411" lon="3.17621">
        <ele>6.4</ele>
        <time>2021-07-20T08:53:57Z</time>
      </trkpt>
      <trkpt lat="43.17413" lon="3.17619">
        <ele>6.4</ele>
        <time>2021-07-20T08:53:58Z</time>
      </trkpt>
      <trkpt lat="43.17416" lon="3.1762">
        <ele>6.3</ele>
        <time>2021-07-20T08:53:59Z</time>
      </trkpt>
      <trkpt lat="43.17418" lon="3.1762">
        <ele>6.4</ele>
        <time>2021-07-20T08:54:00Z</time>
      </trkpt>
      <trkpt lat="43.1742" lon="3.1762">
        <ele>6.4</ele>
        <time>2021-07-20T08:54:01Z</time>
      </trkpt>
      <trkpt lat="43.17423" lon="3.17623">
        <ele>6.4</ele>
        <time>2021-07-20T08:54:02Z</time>
      </trkpt>
      <trkpt lat="43.17424" lon="3.17627">
        <ele>6.4</ele>
        <time>2021-07-20T08:54:03Z</time>
      </trkpt>
      <trkpt lat="43.17425" lon="3.17631">
        <ele>6.3</ele>
        <time>2021-07-20T08:54:04Z</time>
      </trkpt>
      <trkpt lat="43.17426" lon="3.17635">
        <ele>6.2</ele>
        <time>2021-07-20T08:54:05Z</time>
      </trkpt>
      <trkpt lat="43.17427" lon="3.17639">
        <ele>0.98270184</ele>
        <time>2021-07-20T08:54:06Z</time>
      </trkpt>
      <trkpt lat="43.17427" lon="3.17643">
        <ele>5.9</ele>
        <time>2021-07-20T08:54:07Z</time>
      </trkpt>
      <trkpt lat="43.17428" lon="3.17647">
        <ele>5.8</ele>
        <time>2021-07-20T08:54:08Z</time>
      </trkpt>
      <trkpt lat="43.17428" lon="3.17651">
        <ele>5.7</ele>
        <time>2021-07-20T08:54:09Z</time>
      </trkpt>
      <trkpt lat="43.17429" lon="3.17655">
        <ele>5.6</ele>
        <time>2021-07-20T08:54:10Z</time>
      </trkpt>
      <trkpt lat="43.17429" lon="3.17659">
        <ele>5.5</ele>
        <time>2021-07-20T08:54:11Z</time>
      </trkpt>
      <trkpt lat="43.1743" lon="3.17663">
        <ele>5.4</ele>
        <time>2021-07-20T08:54:12Z</time>
      </trkpt>
      <trkpt lat="43.1743" lon="3.17666">
        <ele>5.3</ele>
        <time>2021-07-20T08:54:13Z</time>
      </trkpt>
      <trkpt lat="43.17431" lon="3.17671">
        <ele>5.3</ele>
        <time>2021-07-20T08:54:14Z</time>
      </trkpt>
      <trkpt lat="43.17432" lon="3.17675">
        <ele>5.2</ele>
        <time>2021-07-20T08:54:15Z</time>
      </trkpt>
      <trkpt lat="43.17432" lon="3.1768">
        <ele>0.7502635</ele>
        <time>2021-07-20T08:54:16Z</time>
      </trkpt>
      <trkpt lat="43.17432" lon="3.17685">
        <ele>5</ele>
        <time>2021-07-20T08:54:17Z</time>
      </trkpt>
      <trkpt lat="43.17432" lon="3.17689">
        <ele>4.8</ele>
        <time>2021-07-20T08:54:18Z</time>
      </trkpt>
      <trkpt lat="43.17431" lon="3.17693">
        <ele>4.6</ele>
        <time>2021-07-20T08:54:19Z</time>
      </trkpt>
      <trkpt lat="43.1743" lon="3.17696">
        <ele>4.5</ele>
        <time>2021-07-20T08:54:20Z</time>
      </trkpt>
      <trkpt lat="43.17429" lon="3.17699">
        <ele>4.4</ele>
        <time>2021-07-20T08:54:21Z</time>
      </trkpt>
      <trkpt lat="43.17428" lon="3.17702">
        <ele>4.2</ele>
        <time>2021-07-20T08:54:22Z</time>
      </trkpt>
      <trkpt lat="43.17428" lon="3.17706">
        <ele>4.1</ele>
        <time>2021-07-20T08:54:23Z</time>
      </trkpt>
      <trkpt lat="43.17427" lon="3.17711">
        <ele>3.9</ele>
        <time>2021-07-20T08:54:24Z</time>
      </trkpt>
      <trkpt lat="43.17427" lon="3.17716">
        <ele>3.7</ele>
        <time>2021-07-20T08:54:25Z</time>
      </trkpt>
      <trkpt lat="43.17426" lon="3.17722">
        <ele>0.5541455</ele>
        <time>2021-07-20T08:54:26Z</time>
      </trkpt>
      <trkpt lat="43.17426" lon="3.17726">
        <ele>3.4</ele>
        <time>2021-07-20T08:54:27Z</time>
      </trkpt>
      <trkpt lat="43.17425" lon="3.17729">
        <ele>3.2</ele>
        <time>2021-07-20T08:54:28Z</time>
      </trkpt>
      <trkpt lat="43.17424" lon="3.17733">
        <ele>3.1</ele>
        <time>2021-07-20T08:54:29Z</time>
      </trkpt>
      <trkpt lat="43.17424" lon="3.17736">
        <ele>3</ele>
        <time>2021-07-20T08:54:30Z</time>
      </trkpt>
      <trkpt lat="43.17425" lon="3.17741">
        <ele>2.9</ele>
        <time>2021-07-20T08:54:31Z</time>
      </trkpt>
      <trkpt lat="43.17426" lon="3.17744">
        <ele>2.9</ele>
        <time>2021-07-20T08:54:32Z</time>
      </trkpt>
      <trkpt lat="43.17427" lon="3.17748">
        <ele>2.9</ele>
        <time>2021-07-20T08:54:33Z</time>
      </trkpt>
      <trkpt lat="43.17428" lon="3.17752">
        <ele>2.9</ele>
        <time>2021-07-20T08:54:34Z</time>
      </trkpt>
      <trkpt lat="43.17429" lon="3.17757">
        <ele>-0.77712995</ele>
        <time>2021-07-20T08:54:35Z</time>
      </trkpt>
      <trkpt lat="43.1743" lon="3.17761">
        <ele>2.9</ele>
        <time>2021-07-20T08:54:36Z</time>
      </trkpt>
      <trkpt lat="43.17431" lon="3.17765">
        <ele>2.9</ele>
        <time>2021-07-20T08:54:37Z</time>
      </trkpt>
      <trkpt lat="43.17434" lon="3.17768">
        <ele>3</ele>
        <time>2021-07-20T08:54:38Z</time>
      </trkpt>
      <trkpt lat="43.17435" lon="3.17771">
        <ele>3</ele>
        <time>2021-07-20T08:54:39Z</time>
      </trkpt>
      <trkpt lat="43.17436" lon="3.17774">
        <ele>3.1</ele>
        <time>2021-07-20T08:54:40Z</time>
      </trkpt>
      <trkpt lat="43.17437" lon="3.17777">
        <ele>3.1</ele>
        <time>2021-07-20T08:54:41Z</time>
      </trkpt>
      <trkpt lat="43.17439" lon="3.17779">
        <ele>3.1</ele>
        <time>2021-07-20T08:54:42Z</time>
      </trkpt>
      <trkpt lat="43.1744" lon="3.17781">
        <ele>3.2</ele>
        <time>2021-07-20T08:54:43Z</time>
      </trkpt>
      <trkpt lat="43.1744" lon="3.17783">
        <ele>3.2</ele>
        <time>2021-07-20T08:54:44Z</time>
      </trkpt>
      <trkpt lat="43.17441" lon="3.17783">
        <ele>-1.5418262</ele>
        <time>2021-07-20T08:54:45Z</time>
      </trkpt>
      <trkpt lat="43.17441" lon="3.17783">
        <ele>3.2</ele>
        <time>2021-07-20T08:54:46Z</time>
      </trkpt>
      <trkpt lat="43.17441" lon="3.17783">
        <ele>3.2</ele>
        <time>2021-07-20T08:54:47Z</time>
      </trkpt>
      <trkpt lat="43.17441" lon="3.17783">
        <ele>3.2</ele>
        <time>2021-07-20T08:54:48Z</time>
      </trkpt>
      <trkpt lat="43.17441" lon="3.17783">
        <ele>3.2</ele>
        <time>2021-07-20T08:54:49Z</time>
      </trkpt>
      <trkpt lat="43.17441" lon="3.17783">
        <ele>3.2</ele>
        <time>2021-07-20T08:54:50Z</time>
      </trkpt>
      <trkpt lat="43.17441" lon="3.17783">
        <ele>3.2</ele>
        <time>2021-07-20T08:54:51Z</time>
      </trkpt>
      <trkpt lat="43.17441" lon="3.17783">
        <ele>3.2</ele>
        <time>2021-07-20T08:54:52Z</time>
      </trkpt>
      <trkpt lat="43.17441" lon="3.17783">
        <ele>3.2</ele>
        <time>2021-07-20T08:54:53Z</time>
      </trkpt>
      <trkpt lat="43.17441" lon="3.17783">
        <ele>3.2</ele>
        <time>2021-07-20T08:54:54Z</time>
      </trkpt>
      <trkpt lat="43.17441" lon="3.17783">
        <ele>-1.9423218</ele>
        <time>2021-07-20T08:54:55Z</time>
      </trkpt>
      <trkpt lat="43.17441" lon="3.17783">
        <ele>3.2</ele>
        <time>2021-07-20T08:54:56Z</time>
      </trkpt>
      <trkpt lat="43.17441" lon="3.17783">
        <ele>3.2</ele>
        <time>2021-07-20T08:54:57Z</time>
      </trkpt>
      <trkpt lat="43.17441" lon="3.17783">
        <ele>3.2</ele>
        <time>2021-07-20T08:54:58Z</time>
      </trkpt>
      <trkpt lat="43.17441" lon="3.17783">
        <ele>3.2</ele>
        <time>2021-07-20T08:54:59Z</time>
      </trkpt>
      <trkpt lat="43.17441" lon="3.17783">
        <ele>3.2</ele>
        <time>2021-07-20T08:55:00Z</time>
      </trkpt>
      <trkpt lat="43.17441" lon="3.17783">
        <ele>3.2</ele>
        <time>2021-07-20T08:55:01Z</time>
      </trkpt>
      <trkpt lat="43.17441" lon="3.17783">
        <ele>3.2</ele>
        <time>2021-07-20T08:55:02Z</time>
      </trkpt>
      <trkpt lat="43.17441" lon="3.17784">
        <ele>3.2</ele>
        <time>2021-07-20T08:55:03Z</time>
      </trkpt>
      <trkpt lat="43.17442" lon="3.17784">
        <ele>3.2</ele>
        <time>2021-07-20T08:55:04Z</time>
      </trkpt>
      <trkpt lat="43.17442" lon="3.17785">
        <ele>-1.8831817</ele>
        <time>2021-07-20T08:55:05Z</time>
      </trkpt>
      <trkpt lat="43.17442" lon="3.17785">
        <ele>3.2</ele>
        <time>2021-07-20T08:55:06Z</time>
      </trkpt>
      <trkpt lat="43.17442" lon="3.17786">
        <ele>3.2</ele>
        <time>2021-07-20T08:55:07Z</time>
      </trkpt>
      <trkpt lat="43.17442" lon="3.17786">
        <ele>3.2</ele>
        <time>2021-07-20T08:55:08Z</time>
      </trkpt>
      <trkpt lat="43.17442" lon="3.17786">
        <ele>3.1</ele>
        <time>2021-07-20T08:55:09Z</time>
      </trkpt>
      <trkpt lat="43.17442" lon="3.17786">
        <ele>3.1</ele>
        <time>2021-07-20T08:55:10Z</time>
      </trkpt>
      <trkpt lat="43.17442" lon="3.17786">
        <ele>3.1</ele>
        <time>2021-07-20T08:55:11Z</time>
      </trkpt>
      <trkpt lat="43.17442" lon="3.17786">
        <ele>3.1</ele>
        <time>2021-07-20T08:55:12Z</time>
      </trkpt>
      <trkpt lat="43.17442" lon="3.17786">
        <ele>3.1</ele>
        <time>2021-07-20T08:55:13Z</time>
      </trkpt>
      <trkpt lat="43.17442" lon="3.17786">
        <ele>3.1</ele>
        <time>2021-07-20T08:55:14Z</time>
      </trkpt>
      <trkpt lat="43.17442" lon="3.17786">
        <ele>-1.8603557</ele>
        <time>2021-07-20T08:55:15Z</time>
      </trkpt>
      <trkpt lat="43.17442" lon="3.17786">
        <ele>3.1</ele>
        <time>2021-07-20T08:55:16Z</time>
      </trkpt>
      <trkpt lat="43.17442" lon="3.17786">
        <ele>3.1</ele>
        <time>2021-07-20T08:55:17Z</time>
      </trkpt>
      <trkpt lat="43.17442" lon="3.17786">
        <ele>3.1</ele>
        <time>2021-07-20T08:55:18Z</time>
      </trkpt>
      <trkpt lat="43.17442" lon="3.17786">
        <ele>3.1</ele>
        <time>2021-07-20T08:55:19Z</time>
      </trkpt>
      <trkpt lat="43.17442" lon="3.17786">
        <ele>3.1</ele>
        <time>2021-07-20T08:55:20Z</time>
      </trkpt>
      <trkpt lat="43.17442" lon="3.17786">
        <ele>3.1</ele>
        <time>2021-07-20T08:55:21Z</time>
      </trkpt>
      <trkpt lat="43.17442" lon="3.17786">
        <ele>3.1</ele>
        <time>2021-07-20T08:55:22Z</time>
      </trkpt>
      <trkpt lat="43.17442" lon="3.17786">
        <ele>3.1</ele>
        <time>2021-07-20T08:55:23Z</time>
      </trkpt>
      <trkpt lat="43.17442" lon="3.17786">
        <ele>3.1</ele>
        <time>2021-07-20T08:55:24Z</time>
      </trkpt>
      <trkpt lat="43.17442" lon="3.17786">
        <ele>3.1</ele>
        <time>2021-07-20T08:55:25Z</time>
      </trkpt>
      <trkpt lat="43.17442" lon="3.17786">
        <ele>-1.7182112</ele>
        <time>2021-07-20T08:55:26Z</time>
      </trkpt>
      <trkpt lat="43.17442" lon="3.17786">
        <ele>3.1</ele>
        <time>2021-07-20T08:55:27Z</time>
      </trkpt>
      <trkpt lat="43.17442" lon="3.17786">
        <ele>3.1</ele>
        <time>2021-07-20T08:55:28Z</time>
      </trkpt>
      <trkpt lat="43.17442" lon="3.17786">
        <ele>3.1</ele>
        <time>2021-07-20T08:55:29Z</time>
      </trkpt>
      <trkpt lat="43.17442" lon="3.17786">
        <ele>3.1</ele>
        <time>2021-07-20T08:55:30Z</time>
      </trkpt>
      <trkpt lat="43.17442" lon="3.17786">
        <ele>3.1</ele>
        <time>2021-07-20T08:55:31Z</time>
      </trkpt>
      <trkpt lat="43.17442" lon="3.17786">
        <ele>3.1</ele>
        <time>2021-07-20T08:55:32Z</time>
      </trkpt>
      <trkpt lat="43.17442" lon="3.17786">
        <ele>3.1</ele>
        <time>2021-07-20T08:55:33Z</time>
      </trkpt>
      <trkpt lat="43.17442" lon="3.17786">
        <ele>3.1</ele>
        <time>2021-07-20T08:55:34Z</time>
      </trkpt>
      <trkpt lat="43.17442" lon="3.17786">
        <ele>3.1</ele>
        <time>2021-07-20T08:55:35Z</time>
      </trkpt>
      <trkpt lat="43.17442" lon="3.17786">
        <ele>-1.606155</ele>
        <time>2021-07-20T08:55:36Z</time>
      </trkpt>
      <trkpt lat="43.17442" lon="3.17786">
        <ele>3.1</ele>
        <time>2021-07-20T08:55:37Z</time>
      </trkpt>
      <trkpt lat="43.17442" lon="3.17786">
        <ele>3.1</ele>
        <time>2021-07-20T08:55:38Z</time>
      </trkpt>
      <trkpt lat="43.17442" lon="3.17786">
        <ele>3.1</ele>
        <time>2021-07-20T08:55:39Z</time>
      </trkpt>
      <trkpt lat="43.17442" lon="3.17786">
        <ele>3.1</ele>
        <time>2021-07-20T08:55:40Z</time>
      </trkpt>
      <trkpt lat="43.17442" lon="3.17786">
        <ele>3.1</ele>
        <time>2021-07-20T08:55:41Z</time>
      </trkpt>
      <trkpt lat="43.17442" lon="3.17786">
        <ele>3.1</ele>
        <time>2021-07-20T08:55:42Z</time>
      </trkpt>
      <trkpt lat="43.17442" lon="3.17786">
        <ele>3.1</ele>
        <time>2021-07-20T08:55:43Z</time>
      </trkpt>
      <trkpt lat="43.17442" lon="3.17786">
        <ele>3.1</ele>
        <time>2021-07-20T08:55:44Z</time>
      </trkpt>
      <trkpt lat="43.17442" lon="3.17786">
        <ele>3.1</ele>
        <time>2021-07-20T08:55:45Z</time>
      </trkpt>
      <trkpt lat="43.17442" lon="3.17786">
        <ele>-1.5895541</ele>
        <time>2021-07-20T08:55:46Z</time>
      </trkpt>
      <trkpt lat="43.17442" lon="3.17786">
        <ele>3.1</ele>
        <time>2021-07-20T08:55:47Z</time>
      </trkpt>
      <trkpt lat="43.17442" lon="3.17786">
        <ele>3.1</ele>
        <time>2021-07-20T08:55:48Z</time>
      </trkpt>
      <trkpt lat="43.17442" lon="3.17786">
        <ele>3.1</ele>
        <time>2021-07-20T08:55:49Z</time>
      </trkpt>
      <trkpt lat="43.17442" lon="3.17786">
        <ele>3.1</ele>
        <time>2021-07-20T08:55:50Z</time>
      </trkpt>
      <trkpt lat="43.17442" lon="3.17786">
        <ele>3.1</ele>
        <time>2021-07-20T08:55:51Z</time>
      </trkpt>
      <trkpt lat="43.17442" lon="3.17786">
        <ele>3.1</ele>
        <time>2021-07-20T08:55:52Z</time>
      </trkpt>
      <trkpt lat="43.17442" lon="3.17786">
        <ele>3.1</ele>
        <time>2021-07-20T08:55:53Z</time>
      </trkpt>
      <trkpt lat="43.17442" lon="3.17786">
        <ele>3.1</ele>
        <time>2021-07-20T08:55:54Z</time>
      </trkpt>
      <trkpt lat="43.17442" lon="3.17786">
        <ele>3.1</ele>
        <time>2021-07-20T08:55:55Z</time>
      </trkpt>
      <trkpt lat="43.17442" lon="3.17786">
        <ele>-1.6393569</ele>
        <time>2021-07-20T08:55:56Z</time>
      </trkpt>
      <trkpt lat="43.17442" lon="3.17786">
        <ele>3.1</ele>
        <time>2021-07-20T08:55:57Z</time>
      </trkpt>
      <trkpt lat="43.17442" lon="3.17786">
        <ele>3.1</ele>
        <time>2021-07-20T08:55:58Z</time>
      </trkpt>
      <trkpt lat="43.17442" lon="3.17786">
        <ele>3.1</ele>
        <time>2021-07-20T08:55:59Z</time>
      </trkpt>
      <trkpt lat="43.17442" lon="3.17786">
        <ele>3.1</ele>
        <time>2021-07-20T08:56:00Z</time>
      </trkpt>
      <trkpt lat="43.17442" lon="3.17786">
        <ele>3.1</ele>
        <time>2021-07-20T08:56:01Z</time>
      </trkpt>
      <trkpt lat="43.17442" lon="3.17786">
        <ele>3.1</ele>
        <time>2021-07-20T08:56:02Z</time>
      </trkpt>
      <trkpt lat="43.17442" lon="3.17786">
        <ele>3.1</ele>
        <time>2021-07-20T08:56:03Z</time>
      </trkpt>
      <trkpt lat="43.17442" lon="3.17786">
        <ele>3.1</ele>
        <time>2021-07-20T08:56:04Z</time>
      </trkpt>
      <trkpt lat="43.17442" lon="3.17786">
        <ele>3.1</ele>
        <time>2021-07-20T08:56:05Z</time>
      </trkpt>
      <trkpt lat="43.17442" lon="3.17786">
        <ele>-1.678784</ele>
        <time>2021-07-20T08:56:06Z</time>
      </trkpt>
      <trkpt lat="43.17442" lon="3.17786">
        <ele>3.1</ele>
        <time>2021-07-20T08:56:07Z</time>
      </trkpt>
      <trkpt lat="43.17442" lon="3.17786">
        <ele>3.1</ele>
        <time>2021-07-20T08:56:08Z</time>
      </trkpt>
      <trkpt lat="43.17442" lon="3.17786">
        <ele>3.1</ele>
        <time>2021-07-20T08:56:09Z</time>
      </trkpt>
      <trkpt lat="43.17442" lon="3.17786">
        <ele>3.1</ele>
        <time>2021-07-20T08:56:10Z</time>
      </trkpt>
      <trkpt lat="43.17441" lon="3.17785">
        <ele>3.1</ele>
        <time>2021-07-20T08:56:11Z</time>
      </trkpt>
      <trkpt lat="43.17441" lon="3.17785">
        <ele>3.1</ele>
        <time>2021-07-20T08:56:12Z</time>
      </trkpt>
      <trkpt lat="43.17441" lon="3.17785">
        <ele>3.1</ele>
        <time>2021-07-20T08:56:13Z</time>
      </trkpt>
      <trkpt lat="43.17441" lon="3.17785">
        <ele>3.1</ele>
        <time>2021-07-20T08:56:14Z</time>
      </trkpt>
      <trkpt lat="43.17441" lon="3.17785">
        <ele>-1.8292292</ele>
        <time>2021-07-20T08:56:15Z</time>
      </trkpt>
      <trkpt lat="43.17441" lon="3.17785">
        <ele>3.1</ele>
        <time>2021-07-20T08:56:16Z</time>
      </trkpt>
      <trkpt lat="43.17441" lon="3.17785">
        <ele>3.1</ele>
        <time>2021-07-20T08:56:17Z</time>
      </trkpt>
      <trkpt lat="43.17441" lon="3.17785">
        <ele>3.1</ele>
        <time>2021-07-20T08:56:18Z</time>
      </trkpt>
      <trkpt lat="43.17441" lon="3.17785">
        <ele>3.1</ele>
        <time>2021-07-20T08:56:19Z</time>
      </trkpt>
      <trkpt lat="43.17441" lon="3.17785">
        <ele>3.1</ele>
        <time>2021-07-20T08:56:20Z</time>
      </trkpt>
      <trkpt lat="43.17441" lon="3.17785">
        <ele>3.1</ele>
        <time>2021-07-20T08:56:21Z</time>
      </trkpt>
      <trkpt lat="43.17441" lon="3.17785">
        <ele>3.1</ele>
        <time>2021-07-20T08:56:22Z</time>
      </trkpt>
      <trkpt lat="43.17441" lon="3.17785">
        <ele>3.1</ele>
        <time>2021-07-20T08:56:23Z</time>
      </trkpt>
      <trkpt lat="43.17441" lon="3.17785">
        <ele>3.1</ele>
        <time>2021-07-20T08:56:24Z</time>
      </trkpt>
      <trkpt lat="43.17441" lon="3.17785">
        <ele>-1.7088732</ele>
        <time>2021-07-20T08:56:25Z</time>
      </trkpt>
      <trkpt lat="43.17441" lon="3.17785">
        <ele>3.1</ele>
        <time>2021-07-20T08:56:26Z</time>
      </trkpt>
      <trkpt lat="43.1744" lon="3.17785">
        <ele>3.1</ele>
        <time>2021-07-20T08:56:27Z</time>
      </trkpt>
      <trkpt lat="43.1744" lon="3.17784">
        <ele>3.1</ele>
        <time>2021-07-20T08:56:28Z</time>
      </trkpt>
      <trkpt lat="43.17441" lon="3.17783">
        <ele>3.2</ele>
        <time>2021-07-20T08:56:29Z</time>
      </trkpt>
      <trkpt lat="43.17441" lon="3.17783">
        <ele>3.2</ele>
        <time>2021-07-20T08:56:30Z</time>
      </trkpt>
      <trkpt lat="43.1744" lon="3.17782">
        <ele>3.2</ele>
        <time>2021-07-20T08:56:31Z</time>
      </trkpt>
      <trkpt lat="43.1744" lon="3.17782">
        <ele>3.2</ele>
        <time>2021-07-20T08:56:32Z</time>
      </trkpt>
      <trkpt lat="43.1744" lon="3.17782">
        <ele>3.2</ele>
        <time>2021-07-20T08:56:33Z</time>
      </trkpt>
      <trkpt lat="43.1744" lon="3.17782">
        <ele>3.2</ele>
        <time>2021-07-20T08:56:34Z</time>
      </trkpt>
      <trkpt lat="43.17441" lon="3.17781">
        <ele>-1.9682604</ele>
        <time>2021-07-20T08:56:35Z</time>
      </trkpt>
      <trkpt lat="43.17442" lon="3.1778">
        <ele>3.3</ele>
        <time>2021-07-20T08:56:36Z</time>
      </trkpt>
      <trkpt lat="43.17442" lon="3.17779">
        <ele>3.4</ele>
        <time>2021-07-20T08:56:37Z</time>
      </trkpt>
      <trkpt lat="43.17444" lon="3.17778">
        <ele>3.5</ele>
        <time>2021-07-20T08:56:38Z</time>
      </trkpt>
      <trkpt lat="43.17445" lon="3.17776">
        <ele>3.6</ele>
        <time>2021-07-20T08:56:39Z</time>
      </trkpt>
      <trkpt lat="43.17446" lon="3.17776">
        <ele>3.7</ele>
        <time>2021-07-20T08:56:40Z</time>
      </trkpt>
      <trkpt lat="43.17448" lon="3.17775">
        <ele>3.9</ele>
        <time>2021-07-20T08:56:41Z</time>
      </trkpt>
      <trkpt lat="43.1745" lon="3.17777">
        <ele>4</ele>
        <time>2021-07-20T08:56:42Z</time>
      </trkpt>
      <trkpt lat="43.17452" lon="3.17778">
        <ele>4.1</ele>
        <time>2021-07-20T08:56:43Z</time>
      </trkpt>
      <trkpt lat="43.17454" lon="3.1778">
        <ele>4.1</ele>
        <time>2021-07-20T08:56:44Z</time>
      </trkpt>
      <trkpt lat="43.17456" lon="3.17781">
        <ele>-2.3562984</ele>
        <time>2021-07-20T08:56:45Z</time>
      </trkpt>
      <trkpt lat="43.17458" lon="3.17783">
        <ele>4.3</ele>
        <time>2021-07-20T08:56:46Z</time>
      </trkpt>
      <trkpt lat="43.1746" lon="3.17784">
        <ele>4.4</ele>
        <time>2021-07-20T08:56:47Z</time>
      </trkpt>
      <trkpt lat="43.17462" lon="3.17785">
        <ele>4.5</ele>
        <time>2021-07-20T08:56:48Z</time>
      </trkpt>
      <trkpt lat="43.17464" lon="3.17787">
        <ele>4.6</ele>
        <time>2021-07-20T08:56:49Z</time>
      </trkpt>
      <trkpt lat="43.17467" lon="3.17788">
        <ele>4.7</ele>
        <time>2021-07-20T08:56:50Z</time>
      </trkpt>
      <trkpt lat="43.17469" lon="3.17788">
        <ele>4.8</ele>
        <time>2021-07-20T08:56:51Z</time>
      </trkpt>
      <trkpt lat="43.17472" lon="3.17788">
        <ele>5</ele>
        <time>2021-07-20T08:56:52Z</time>
      </trkpt>
      <trkpt lat="43.17474" lon="3.17789">
        <ele>5.1</ele>
        <time>2021-07-20T08:56:53Z</time>
      </trkpt>
      <trkpt lat="43.17476" lon="3.1779">
        <ele>5.2</ele>
        <time>2021-07-20T08:56:54Z</time>
      </trkpt>
      <trkpt lat="43.17479" lon="3.17791">
        <ele>-2.196519</ele>
        <time>2021-07-20T08:56:55Z</time>
      </trkpt>
      <trkpt lat="43.17481" lon="3.17793">
        <ele>5.2</ele>
        <time>2021-07-20T08:56:56Z</time>
      </trkpt>
      <trkpt lat="43.17482" lon="3.17795">
        <ele>5.3</ele>
        <time>2021-07-20T08:56:57Z</time>
      </trkpt>
      <trkpt lat="43.17485" lon="3.17796">
        <ele>5.4</ele>
        <time>2021-07-20T08:56:58Z</time>
      </trkpt>
      <trkpt lat="43.17487" lon="3.17798">
        <ele>5.4</ele>
        <time>2021-07-20T08:56:59Z</time>
      </trkpt>
      <trkpt lat="43.1749" lon="3.178">
        <ele>5.5</ele>
        <time>2021-07-20T08:57:00Z</time>
      </trkpt>
      <trkpt lat="43.17493" lon="3.17802">
        <ele>5.5</ele>
        <time>2021-07-20T08:57:01Z</time>
      </trkpt>
      <trkpt lat="43.17495" lon="3.17804">
        <ele>5.4</ele>
        <time>2021-07-20T08:57:02Z</time>
      </trkpt>
      <trkpt lat="43.17496" lon="3.17807">
        <ele>5.4</ele>
        <time>2021-07-20T08:57:03Z</time>
      </trkpt>
      <trkpt lat="43.17498" lon="3.17808">
        <ele>5.4</ele>
        <time>2021-07-20T08:57:04Z</time>
      </trkpt>
      <trkpt lat="43.175" lon="3.1781">
        <ele>5.3</ele>
        <time>2021-07-20T08:57:05Z</time>
      </trkpt>
      <trkpt lat="43.17501" lon="3.17812">
        <ele>-1.8821442</ele>
        <time>2021-07-20T08:57:06Z</time>
      </trkpt>
      <trkpt lat="43.17503" lon="3.17815">
        <ele>5.3</ele>
        <time>2021-07-20T08:57:07Z</time>
      </trkpt>
      <trkpt lat="43.17504" lon="3.17818">
        <ele>5.2</ele>
        <time>2021-07-20T08:57:08Z</time>
      </trkpt>
      <trkpt lat="43.17505" lon="3.1782">
        <ele>5.2</ele>
        <time>2021-07-20T08:57:09Z</time>
      </trkpt>
      <trkpt lat="43.17507" lon="3.17822">
        <ele>5.2</ele>
        <time>2021-07-20T08:57:10Z</time>
      </trkpt>
      <trkpt lat="43.17509" lon="3.17824">
        <ele>5.2</ele>
        <time>2021-07-20T08:57:11Z</time>
      </trkpt>
      <trkpt lat="43.17511" lon="3.17826">
        <ele>5.3</ele>
        <time>2021-07-20T08:57:12Z</time>
      </trkpt>
      <trkpt lat="43.17513" lon="3.17828">
        <ele>5.4</ele>
        <time>2021-07-20T08:57:13Z</time>
      </trkpt>
      <trkpt lat="43.17515" lon="3.1783">
        <ele>5.4</ele>
        <time>2021-07-20T08:57:14Z</time>
      </trkpt>
      <trkpt lat="43.17517" lon="3.17832">
        <ele>5.5</ele>
        <time>2021-07-20T08:57:15Z</time>
      </trkpt>
      <trkpt lat="43.17519" lon="3.17833">
        <ele>-1.9516597</ele>
        <time>2021-07-20T08:57:16Z</time>
      </trkpt>
      <trkpt lat="43.17521" lon="3.17835">
        <ele>5.7</ele>
        <time>2021-07-20T08:57:17Z</time>
      </trkpt>
      <trkpt lat="43.17522" lon="3.17836">
        <ele>5.9</ele>
        <time>2021-07-20T08:57:18Z</time>
      </trkpt>
      <trkpt lat="43.17524" lon="3.17836">
        <ele>6</ele>
        <time>2021-07-20T08:57:19Z</time>
      </trkpt>
      <trkpt lat="43.17527" lon="3.17837">
        <ele>6.3</ele>
        <time>2021-07-20T08:57:20Z</time>
      </trkpt>
      <trkpt lat="43.1753" lon="3.17838">
        <ele>6.5</ele>
        <time>2021-07-20T08:57:21Z</time>
      </trkpt>
      <trkpt lat="43.17532" lon="3.1784">
        <ele>6.7</ele>
        <time>2021-07-20T08:57:22Z</time>
      </trkpt>
      <trkpt lat="43.17535" lon="3.17841">
        <ele>6.9</ele>
        <time>2021-07-20T08:57:23Z</time>
      </trkpt>
      <trkpt lat="43.17537" lon="3.17843">
        <ele>7.1</ele>
        <time>2021-07-20T08:57:24Z</time>
      </trkpt>
      <trkpt lat="43.17539" lon="3.17846">
        <ele>7.2</ele>
        <time>2021-07-20T08:57:25Z</time>
      </trkpt>
      <trkpt lat="43.1754" lon="3.17849">
        <ele>-1.3976046</ele>
        <time>2021-07-20T08:57:26Z</time>
      </trkpt>
      <trkpt lat="43.17542" lon="3.17852">
        <ele>7.4</ele>
        <time>2021-07-20T08:57:27Z</time>
      </trkpt>
      <trkpt lat="43.17544" lon="3.17855">
        <ele>7.5</ele>
        <time>2021-07-20T08:57:28Z</time>
      </trkpt>
      <trkpt lat="43.17545" lon="3.17858">
        <ele>7.6</ele>
        <time>2021-07-20T08:57:29Z</time>
      </trkpt>
      <trkpt lat="43.17547" lon="3.17861">
        <ele>7.7</ele>
        <time>2021-07-20T08:57:30Z</time>
      </trkpt>
      <trkpt lat="43.17548" lon="3.17864">
        <ele>7.8</ele>
        <time>2021-07-20T08:57:31Z</time>
      </trkpt>
      <trkpt lat="43.17548" lon="3.17867">
        <ele>7.8</ele>
        <time>2021-07-20T08:57:32Z</time>
      </trkpt>
      <trkpt lat="43.1755" lon="3.1787">
        <ele>7.9</ele>
        <time>2021-07-20T08:57:33Z</time>
      </trkpt>
      <trkpt lat="43.1755" lon="3.17874">
        <ele>7.9</ele>
        <time>2021-07-20T08:57:34Z</time>
      </trkpt>
      <trkpt lat="43.17551" lon="3.17877">
        <ele>7.9</ele>
        <time>2021-07-20T08:57:35Z</time>
      </trkpt>
      <trkpt lat="43.17551" lon="3.17881">
        <ele>-0.1742782</ele>
        <time>2021-07-20T08:57:36Z</time>
      </trkpt>
      <trkpt lat="43.17551" lon="3.17885">
        <ele>7.9</ele>
        <time>2021-07-20T08:57:37Z</time>
      </trkpt>
      <trkpt lat="43.17551" lon="3.17889">
        <ele>7.9</ele>
        <time>2021-07-20T08:57:38Z</time>
      </trkpt>
      <trkpt lat="43.17551" lon="3.17893">
        <ele>7.8</ele>
        <time>2021-07-20T08:57:39Z</time>
      </trkpt>
      <trkpt lat="43.17551" lon="3.17897">
        <ele>7.8</ele>
        <time>2021-07-20T08:57:40Z</time>
      </trkpt>
      <trkpt lat="43.17551" lon="3.17901">
        <ele>7.8</ele>
        <time>2021-07-20T08:57:41Z</time>
      </trkpt>
      <trkpt lat="43.17551" lon="3.17905">
        <ele>7.8</ele>
        <time>2021-07-20T08:57:42Z</time>
      </trkpt>
      <trkpt lat="43.17551" lon="3.1791">
        <ele>7.7</ele>
        <time>2021-07-20T08:57:43Z</time>
      </trkpt>
      <trkpt lat="43.1755" lon="3.17915">
        <ele>7.6</ele>
        <time>2021-07-20T08:57:44Z</time>
      </trkpt>
      <trkpt lat="43.1755" lon="3.17919">
        <ele>7.6</ele>
        <time>2021-07-20T08:57:45Z</time>
      </trkpt>
      <trkpt lat="43.1755" lon="3.17923">
        <ele>0.5697104</ele>
        <time>2021-07-20T08:57:46Z</time>
      </trkpt>
      <trkpt lat="43.17549" lon="3.17928">
        <ele>7.4</ele>
        <time>2021-07-20T08:57:47Z</time>
      </trkpt>
      <trkpt lat="43.17549" lon="3.17932">
        <ele>7.3</ele>
        <time>2021-07-20T08:57:48Z</time>
      </trkpt>
      <trkpt lat="43.17548" lon="3.17937">
        <ele>7.2</ele>
        <time>2021-07-20T08:57:49Z</time>
      </trkpt>
      <trkpt lat="43.17548" lon="3.17941">
        <ele>7.1</ele>
        <time>2021-07-20T08:57:50Z</time>
      </trkpt>
      <trkpt lat="43.17547" lon="3.17945">
        <ele>6.9</ele>
        <time>2021-07-20T08:57:51Z</time>
      </trkpt>
      <trkpt lat="43.17547" lon="3.17949">
        <ele>6.9</ele>
        <time>2021-07-20T08:57:52Z</time>
      </trkpt>
      <trkpt lat="43.17547" lon="3.17953">
        <ele>6.8</ele>
        <time>2021-07-20T08:57:53Z</time>
      </trkpt>
      <trkpt lat="43.17546" lon="3.17958">
        <ele>6.7</ele>
        <time>2021-07-20T08:57:54Z</time>
      </trkpt>
      <trkpt lat="43.17546" lon="3.17962">
        <ele>0.32482442</ele>
        <time>2021-07-20T08:57:55Z</time>
      </trkpt>
      <trkpt lat="43.17545" lon="3.17966">
        <ele>6.5</ele>
        <time>2021-07-20T08:57:56Z</time>
      </trkpt>
      <trkpt lat="43.17545" lon="3.1797">
        <ele>6.4</ele>
        <time>2021-07-20T08:57:57Z</time>
      </trkpt>
      <trkpt lat="43.17546" lon="3.17973">
        <ele>6.4</ele>
        <time>2021-07-20T08:57:58Z</time>
      </trkpt>
      <trkpt lat="43.17547" lon="3.17977">
        <ele>6.4</ele>
        <time>2021-07-20T08:57:59Z</time>
      </trkpt>
      <trkpt lat="43.17547" lon="3.1798">
        <ele>6.4</ele>
        <time>2021-07-20T08:58:00Z</time>
      </trkpt>
      <trkpt lat="43.17548" lon="3.17983">
        <ele>6.4</ele>
        <time>2021-07-20T08:58:01Z</time>
      </trkpt>
      <trkpt lat="43.17549" lon="3.17986">
        <ele>6.5</ele>
        <time>2021-07-20T08:58:02Z</time>
      </trkpt>
      <trkpt lat="43.1755" lon="3.17988">
        <ele>6.6</ele>
        <time>2021-07-20T08:58:03Z</time>
      </trkpt>
      <trkpt lat="43.17551" lon="3.1799">
        <ele>6.7</ele>
        <time>2021-07-20T08:58:04Z</time>
      </trkpt>
      <trkpt lat="43.17553" lon="3.17993">
        <ele>-0.11824643</ele>
        <time>2021-07-20T08:58:05Z</time>
      </trkpt>
      <trkpt lat="43.17553" lon="3.17996">
        <ele>6.8</ele>
        <time>2021-07-20T08:58:06Z</time>
      </trkpt>
      <trkpt lat="43.17553" lon="3.18">
        <ele>6.7</ele>
        <time>2021-07-20T08:58:07Z</time>
      </trkpt>
      <trkpt lat="43.17551" lon="3.18004">
        <ele>6.7</ele>
        <time>2021-07-20T08:58:08Z</time>
      </trkpt>
      <trkpt lat="43.1755" lon="3.18008">
        <ele>6.6</ele>
        <time>2021-07-20T08:58:09Z</time>
      </trkpt>
      <trkpt lat="43.17547" lon="3.18012">
        <ele>6.4</ele>
        <time>2021-07-20T08:58:10Z</time>
      </trkpt>
      <trkpt lat="43.17545" lon="3.18016">
        <ele>6.3</ele>
        <time>2021-07-20T08:58:11Z</time>
      </trkpt>
      <trkpt lat="43.17543" lon="3.18021">
        <ele>6.2</ele>
        <time>2021-07-20T08:58:12Z</time>
      </trkpt>
      <trkpt lat="43.17542" lon="3.18027">
        <ele>6.2</ele>
        <time>2021-07-20T08:58:13Z</time>
      </trkpt>
      <trkpt lat="43.17542" lon="3.18032">
        <ele>6.3</ele>
        <time>2021-07-20T08:58:14Z</time>
      </trkpt>
      <trkpt lat="43.17542" lon="3.18038">
        <ele>0.34038913</ele>
        <time>2021-07-20T08:58:15Z</time>
      </trkpt>
      <trkpt lat="43.17541" lon="3.18043">
        <ele>6.5</ele>
        <time>2021-07-20T08:58:16Z</time>
      </trkpt>
      <trkpt lat="43.17541" lon="3.18049">
        <ele>6.5</ele>
        <time>2021-07-20T08:58:17Z</time>
      </trkpt>
      <trkpt lat="43.17541" lon="3.18054">
        <ele>6.7</ele>
        <time>2021-07-20T08:58:18Z</time>
      </trkpt>
      <trkpt lat="43.1754" lon="3.1806">
        <ele>6.8</ele>
        <time>2021-07-20T08:58:19Z</time>
      </trkpt>
      <trkpt lat="43.17541" lon="3.18065">
        <ele>6.9</ele>
        <time>2021-07-20T08:58:20Z</time>
      </trkpt>
      <trkpt lat="43.1754" lon="3.18071">
        <ele>7</ele>
        <time>2021-07-20T08:58:21Z</time>
      </trkpt>
      <trkpt lat="43.1754" lon="3.18076">
        <ele>7.1</ele>
        <time>2021-07-20T08:58:22Z</time>
      </trkpt>
      <trkpt lat="43.1754" lon="3.18082">
        <ele>7.2</ele>
        <time>2021-07-20T08:58:23Z</time>
      </trkpt>
      <trkpt lat="43.1754" lon="3.18087">
        <ele>7.3</ele>
        <time>2021-07-20T08:58:24Z</time>
      </trkpt>
      <trkpt lat="43.1754" lon="3.18092">
        <ele>-0.6318659</ele>
        <time>2021-07-20T08:58:25Z</time>
      </trkpt>
      <trkpt lat="43.1754" lon="3.18098">
        <ele>7.4</ele>
        <time>2021-07-20T08:58:26Z</time>
      </trkpt>
      <trkpt lat="43.1754" lon="3.18103">
        <ele>7.4</ele>
        <time>2021-07-20T08:58:27Z</time>
      </trkpt>
      <trkpt lat="43.1754" lon="3.18109">
        <ele>7.4</ele>
        <time>2021-07-20T08:58:28Z</time>
      </trkpt>
      <trkpt lat="43.1754" lon="3.18115">
        <ele>7.4</ele>
        <time>2021-07-20T08:58:29Z</time>
      </trkpt>
      <trkpt lat="43.1754" lon="3.18121">
        <ele>7.5</ele>
        <time>2021-07-20T08:58:30Z</time>
      </trkpt>
      <trkpt lat="43.1754" lon="3.18127">
        <ele>7.5</ele>
        <time>2021-07-20T08:58:31Z</time>
      </trkpt>
      <trkpt lat="43.1754" lon="3.18133">
        <ele>7.6</ele>
        <time>2021-07-20T08:58:32Z</time>
      </trkpt>
      <trkpt lat="43.1754" lon="3.18139">
        <ele>7.6</ele>
        <time>2021-07-20T08:58:33Z</time>
      </trkpt>
      <trkpt lat="43.1754" lon="3.18144">
        <ele>7.6</ele>
        <time>2021-07-20T08:58:34Z</time>
      </trkpt>
      <trkpt lat="43.1754" lon="3.1815">
        <ele>-1.1828268</ele>
        <time>2021-07-20T08:58:35Z</time>
      </trkpt>
      <trkpt lat="43.1754" lon="3.18155">
        <ele>7.7</ele>
        <time>2021-07-20T08:58:36Z</time>
      </trkpt>
      <trkpt lat="43.1754" lon="3.1816">
        <ele>7.7</ele>
        <time>2021-07-20T08:58:37Z</time>
      </trkpt>
      <trkpt lat="43.1754" lon="3.18164">
        <ele>7.6</ele>
        <time>2021-07-20T08:58:38Z</time>
      </trkpt>
      <trkpt lat="43.1754" lon="3.18169">
        <ele>7.6</ele>
        <time>2021-07-20T08:58:39Z</time>
      </trkpt>
      <trkpt lat="43.1754" lon="3.18173">
        <ele>7.6</ele>
        <time>2021-07-20T08:58:40Z</time>
      </trkpt>
      <trkpt lat="43.17539" lon="3.18178">
        <ele>7.5</ele>
        <time>2021-07-20T08:58:41Z</time>
      </trkpt>
      <trkpt lat="43.17539" lon="3.18184">
        <ele>7.4</ele>
        <time>2021-07-20T08:58:42Z</time>
      </trkpt>
      <trkpt lat="43.1754" lon="3.18189">
        <ele>7.4</ele>
        <time>2021-07-20T08:58:43Z</time>
      </trkpt>
      <trkpt lat="43.1754" lon="3.18194">
        <ele>7.5</ele>
        <time>2021-07-20T08:58:44Z</time>
      </trkpt>
      <trkpt lat="43.17541" lon="3.18199">
        <ele>7.5</ele>
        <time>2021-07-20T08:58:45Z</time>
      </trkpt>
      <trkpt lat="43.17541" lon="3.18204">
        <ele>-1.4235438</ele>
        <time>2021-07-20T08:58:46Z</time>
      </trkpt>
      <trkpt lat="43.1754" lon="3.18208">
        <ele>7.3</ele>
        <time>2021-07-20T08:58:47Z</time>
      </trkpt>
      <trkpt lat="43.1754" lon="3.18212">
        <ele>7.3</ele>
        <time>2021-07-20T08:58:48Z</time>
      </trkpt>
      <trkpt lat="43.1754" lon="3.18216">
        <ele>7.2</ele>
        <time>2021-07-20T08:58:49Z</time>
      </trkpt>
      <trkpt lat="43.1754" lon="3.1822">
        <ele>7.1</ele>
        <time>2021-07-20T08:58:50Z</time>
      </trkpt>
      <trkpt lat="43.1754" lon="3.18225">
        <ele>7.1</ele>
        <time>2021-07-20T08:58:51Z</time>
      </trkpt>
      <trkpt lat="43.1754" lon="3.18229">
        <ele>7</ele>
        <time>2021-07-20T08:58:52Z</time>
      </trkpt>
      <trkpt lat="43.1754" lon="3.18234">
        <ele>7</ele>
        <time>2021-07-20T08:58:53Z</time>
      </trkpt>
      <trkpt lat="43.17539" lon="3.18239">
        <ele>6.8</ele>
        <time>2021-07-20T08:58:54Z</time>
      </trkpt>
      <trkpt lat="43.17539" lon="3.18244">
        <ele>6.8</ele>
        <time>2021-07-20T08:58:55Z</time>
      </trkpt>
      <trkpt lat="43.17539" lon="3.18249">
        <ele>-0.9389945</ele>
        <time>2021-07-20T08:58:56Z</time>
      </trkpt>
      <trkpt lat="43.17539" lon="3.18255">
        <ele>6.8</ele>
        <time>2021-07-20T08:58:57Z</time>
      </trkpt>
      <trkpt lat="43.17539" lon="3.1826">
        <ele>6.9</ele>
        <time>2021-07-20T08:58:58Z</time>
      </trkpt>
      <trkpt lat="43.17539" lon="3.18266">
        <ele>7</ele>
        <time>2021-07-20T08:58:59Z</time>
      </trkpt>
      <trkpt lat="43.17539" lon="3.18271">
        <ele>7.1</ele>
        <time>2021-07-20T08:59:00Z</time>
      </trkpt>
      <trkpt lat="43.1754" lon="3.18277">
        <ele>7.2</ele>
        <time>2021-07-20T08:59:01Z</time>
      </trkpt>
      <trkpt lat="43.1754" lon="3.18282">
        <ele>7.4</ele>
        <time>2021-07-20T08:59:02Z</time>
      </trkpt>
      <trkpt lat="43.17541" lon="3.18288">
        <ele>7.6</ele>
        <time>2021-07-20T08:59:03Z</time>
      </trkpt>
      <trkpt lat="43.17541" lon="3.18294">
        <ele>7.7</ele>
        <time>2021-07-20T08:59:04Z</time>
      </trkpt>
      <trkpt lat="43.17542" lon="3.183">
        <ele>7.9</ele>
        <time>2021-07-20T08:59:05Z</time>
      </trkpt>
      <trkpt lat="43.17542" lon="3.18306">
        <ele>-1.100858</ele>
        <time>2021-07-20T08:59:06Z</time>
      </trkpt>
      <trkpt lat="43.17542" lon="3.18312">
        <ele>8.2</ele>
        <time>2021-07-20T08:59:07Z</time>
      </trkpt>
      <trkpt lat="43.17542" lon="3.18318">
        <ele>8.3</ele>
        <time>2021-07-20T08:59:08Z</time>
      </trkpt>
      <trkpt lat="43.17543" lon="3.18324">
        <ele>8.4</ele>
        <time>2021-07-20T08:59:09Z</time>
      </trkpt>
      <trkpt lat="43.17543" lon="3.1833">
        <ele>8.5</ele>
        <time>2021-07-20T08:59:10Z</time>
      </trkpt>
      <trkpt lat="43.17543" lon="3.18336">
        <ele>8.6</ele>
        <time>2021-07-20T08:59:11Z</time>
      </trkpt>
      <trkpt lat="43.17544" lon="3.18341">
        <ele>8.7</ele>
        <time>2021-07-20T08:59:12Z</time>
      </trkpt>
      <trkpt lat="43.17544" lon="3.18347">
        <ele>8.7</ele>
        <time>2021-07-20T08:59:13Z</time>
      </trkpt>
      <trkpt lat="43.17544" lon="3.18352">
        <ele>8.6</ele>
        <time>2021-07-20T08:59:14Z</time>
      </trkpt>
      <trkpt lat="43.17545" lon="3.18358">
        <ele>8.7</ele>
        <time>2021-07-20T08:59:15Z</time>
      </trkpt>
      <trkpt lat="43.17546" lon="3.18363">
        <ele>-1.678784</ele>
        <time>2021-07-20T08:59:16Z</time>
      </trkpt>
      <trkpt lat="43.17546" lon="3.18369">
        <ele>8.7</ele>
        <time>2021-07-20T08:59:17Z</time>
      </trkpt>
      <trkpt lat="43.17547" lon="3.18375">
        <ele>8.7</ele>
        <time>2021-07-20T08:59:18Z</time>
      </trkpt>
      <trkpt lat="43.17547" lon="3.18381">
        <ele>8.8</ele>
        <time>2021-07-20T08:59:19Z</time>
      </trkpt>
      <trkpt lat="43.17547" lon="3.18386">
        <ele>8.7</ele>
        <time>2021-07-20T08:59:20Z</time>
      </trkpt>
      <trkpt lat="43.17548" lon="3.18392">
        <ele>8.7</ele>
        <time>2021-07-20T08:59:21Z</time>
      </trkpt>
      <trkpt lat="43.17548" lon="3.18397">
        <ele>8.7</ele>
        <time>2021-07-20T08:59:22Z</time>
      </trkpt>
      <trkpt lat="43.17548" lon="3.18403">
        <ele>8.7</ele>
        <time>2021-07-20T08:59:23Z</time>
      </trkpt>
      <trkpt lat="43.17548" lon="3.18409">
        <ele>8.7</ele>
        <time>2021-07-20T08:59:24Z</time>
      </trkpt>
      <trkpt lat="43.17549" lon="3.18414">
        <ele>8.7</ele>
        <time>2021-07-20T08:59:25Z</time>
      </trkpt>
      <trkpt lat="43.17549" lon="3.1842">
        <ele>-1.5241877</ele>
        <time>2021-07-20T08:59:26Z</time>
      </trkpt>
      <trkpt lat="43.1755" lon="3.18425">
        <ele>8.5</ele>
        <time>2021-07-20T08:59:27Z</time>
      </trkpt>
      <trkpt lat="43.1755" lon="3.1843">
        <ele>8.3</ele>
        <time>2021-07-20T08:59:28Z</time>
      </trkpt>
      <trkpt lat="43.1755" lon="3.18436">
        <ele>8.2</ele>
        <time>2021-07-20T08:59:29Z</time>
      </trkpt>
      <trkpt lat="43.17551" lon="3.18441">
        <ele>8</ele>
        <time>2021-07-20T08:59:30Z</time>
      </trkpt>
      <trkpt lat="43.17551" lon="3.18447">
        <ele>7.9</ele>
        <time>2021-07-20T08:59:31Z</time>
      </trkpt>
      <trkpt lat="43.17551" lon="3.18452">
        <ele>7.7</ele>
        <time>2021-07-20T08:59:32Z</time>
      </trkpt>
      <trkpt lat="43.17552" lon="3.18457">
        <ele>7.6</ele>
        <time>2021-07-20T08:59:33Z</time>
      </trkpt>
      <trkpt lat="43.17552" lon="3.18463">
        <ele>7.4</ele>
        <time>2021-07-20T08:59:34Z</time>
      </trkpt>
      <trkpt lat="43.17552" lon="3.18468">
        <ele>-2.057489</ele>
        <time>2021-07-20T08:59:35Z</time>
      </trkpt>
      <trkpt lat="43.17552" lon="3.18474">
        <ele>7</ele>
        <time>2021-07-20T08:59:36Z</time>
      </trkpt>
      <trkpt lat="43.17552" lon="3.18479">
        <ele>6.8</ele>
        <time>2021-07-20T08:59:37Z</time>
      </trkpt>
      <trkpt lat="43.17553" lon="3.18485">
        <ele>6.7</ele>
        <time>2021-07-20T08:59:38Z</time>
      </trkpt>
      <trkpt lat="43.17553" lon="3.1849">
        <ele>6.6</ele>
        <time>2021-07-20T08:59:39Z</time>
      </trkpt>
      <trkpt lat="43.17554" lon="3.18495">
        <ele>6.4</ele>
        <time>2021-07-20T08:59:40Z</time>
      </trkpt>
      <trkpt lat="43.17555" lon="3.185">
        <ele>6.3</ele>
        <time>2021-07-20T08:59:41Z</time>
      </trkpt>
      <trkpt lat="43.17555" lon="3.18505">
        <ele>6.2</ele>
        <time>2021-07-20T08:59:42Z</time>
      </trkpt>
      <trkpt lat="43.17556" lon="3.1851">
        <ele>6</ele>
        <time>2021-07-20T08:59:43Z</time>
      </trkpt>
      <trkpt lat="43.17556" lon="3.18515">
        <ele>5.9</ele>
        <time>2021-07-20T08:59:44Z</time>
      </trkpt>
      <trkpt lat="43.17557" lon="3.1852">
        <ele>-1.8956323</ele>
        <time>2021-07-20T08:59:45Z</time>
      </trkpt>
      <trkpt lat="43.17558" lon="3.18525">
        <ele>5.6</ele>
        <time>2021-07-20T08:59:46Z</time>
      </trkpt>
      <trkpt lat="43.17558" lon="3.18529">
        <ele>5.5</ele>
        <time>2021-07-20T08:59:47Z</time>
      </trkpt>
      <trkpt lat="43.17559" lon="3.18534">
        <ele>5.4</ele>
        <time>2021-07-20T08:59:48Z</time>
      </trkpt>
      <trkpt lat="43.1756" lon="3.18538">
        <ele>5.3</ele>
        <time>2021-07-20T08:59:49Z</time>
      </trkpt>
      <trkpt lat="43.17561" lon="3.18543">
        <ele>5.1</ele>
        <time>2021-07-20T08:59:50Z</time>
      </trkpt>
      <trkpt lat="43.17561" lon="3.18547">
        <ele>5</ele>
        <time>2021-07-20T08:59:51Z</time>
      </trkpt>
      <trkpt lat="43.17562" lon="3.1855">
        <ele>4.9</ele>
        <time>2021-07-20T08:59:52Z</time>
      </trkpt>
      <trkpt lat="43.17563" lon="3.18554">
        <ele>4.8</ele>
        <time>2021-07-20T08:59:53Z</time>
      </trkpt>
      <trkpt lat="43.17563" lon="3.18558">
        <ele>4.7</ele>
        <time>2021-07-20T08:59:54Z</time>
      </trkpt>
      <trkpt lat="43.17563" lon="3.18561">
        <ele>-1.9018576</ele>
        <time>2021-07-20T08:59:55Z</time>
      </trkpt>
      <trkpt lat="43.17562" lon="3.18563">
        <ele>4.5</ele>
        <time>2021-07-20T08:59:56Z</time>
      </trkpt>
      <trkpt lat="43.17562" lon="3.18566">
        <ele>4.4</ele>
        <time>2021-07-20T08:59:57Z</time>
      </trkpt>
      <trkpt lat="43.17561" lon="3.18568">
        <ele>4.3</ele>
        <time>2021-07-20T08:59:58Z</time>
      </trkpt>
      <trkpt lat="43.17561" lon="3.18569">
        <ele>4.2</ele>
        <time>2021-07-20T08:59:59Z</time>
      </trkpt>
      <trkpt lat="43.1756" lon="3.1857">
        <ele>4.2</ele>
        <time>2021-07-20T09:00:00Z</time>
      </trkpt>
      <trkpt lat="43.17559" lon="3.18571">
        <ele>4.1</ele>
        <time>2021-07-20T09:00:01Z</time>
      </trkpt>
      <trkpt lat="43.17559" lon="3.18572">
        <ele>4.1</ele>
        <time>2021-07-20T09:00:02Z</time>
      </trkpt>
      <trkpt lat="43.17558" lon="3.18574">
        <ele>4</ele>
        <time>2021-07-20T09:00:03Z</time>
      </trkpt>
      <trkpt lat="43.17556" lon="3.18575">
        <ele>3.9</ele>
        <time>2021-07-20T09:00:04Z</time>
      </trkpt>
      <trkpt lat="43.17554" lon="3.18577">
        <ele>-2.1072907</ele>
        <time>2021-07-20T09:00:05Z</time>
      </trkpt>
      <trkpt lat="43.17552" lon="3.1858">
        <ele>3.7</ele>
        <time>2021-07-20T09:00:06Z</time>
      </trkpt>
      <trkpt lat="43.1755" lon="3.18583">
        <ele>3.6</ele>
        <time>2021-07-20T09:00:07Z</time>
      </trkpt>
      <trkpt lat="43.1755" lon="3.18588">
        <ele>3.6</ele>
        <time>2021-07-20T09:00:08Z</time>
      </trkpt>
      <trkpt lat="43.17551" lon="3.18592">
        <ele>3.7</ele>
        <time>2021-07-20T09:00:09Z</time>
      </trkpt>
      <trkpt lat="43.17553" lon="3.18597">
        <ele>3.7</ele>
        <time>2021-07-20T09:00:10Z</time>
      </trkpt>
      <trkpt lat="43.17554" lon="3.18601">
        <ele>3.8</ele>
        <time>2021-07-20T09:00:11Z</time>
      </trkpt>
      <trkpt lat="43.17556" lon="3.18606">
        <ele>3.8</ele>
        <time>2021-07-20T09:00:12Z</time>
      </trkpt>
      <trkpt lat="43.17558" lon="3.1861">
        <ele>3.9</ele>
        <time>2021-07-20T09:00:13Z</time>
      </trkpt>
      <trkpt lat="43.1756" lon="3.18614">
        <ele>3.9</ele>
        <time>2021-07-20T09:00:14Z</time>
      </trkpt>
      <trkpt lat="43.17563" lon="3.18617">
        <ele>-1.9931614</ele>
        <time>2021-07-20T09:00:15Z</time>
      </trkpt>
      <trkpt lat="43.17566" lon="3.18621">
        <ele>4</ele>
        <time>2021-07-20T09:00:16Z</time>
      </trkpt>
      <trkpt lat="43.17567" lon="3.18624">
        <ele>4</ele>
        <time>2021-07-20T09:00:17Z</time>
      </trkpt>
      <trkpt lat="43.17569" lon="3.18628">
        <ele>4</ele>
        <time>2021-07-20T09:00:18Z</time>
      </trkpt>
      <trkpt lat="43.17571" lon="3.18633">
        <ele>4</ele>
        <time>2021-07-20T09:00:19Z</time>
      </trkpt>
      <trkpt lat="43.17572" lon="3.18638">
        <ele>4</ele>
        <time>2021-07-20T09:00:20Z</time>
      </trkpt>
      <trkpt lat="43.17572" lon="3.18644">
        <ele>4.1</ele>
        <time>2021-07-20T09:00:21Z</time>
      </trkpt>
      <trkpt lat="43.17573" lon="3.1865">
        <ele>4.1</ele>
        <time>2021-07-20T09:00:22Z</time>
      </trkpt>
      <trkpt lat="43.17574" lon="3.18655">
        <ele>4.1</ele>
        <time>2021-07-20T09:00:23Z</time>
      </trkpt>
      <trkpt lat="43.17575" lon="3.18661">
        <ele>4.1</ele>
        <time>2021-07-20T09:00:24Z</time>
      </trkpt>
      <trkpt lat="43.17576" lon="3.18666">
        <ele>4.1</ele>
        <time>2021-07-20T09:00:25Z</time>
      </trkpt>
      <trkpt lat="43.17577" lon="3.18672">
        <ele>-1.9433594</ele>
        <time>2021-07-20T09:00:26Z</time>
      </trkpt>
      <trkpt lat="43.17577" lon="3.18678">
        <ele>4.3</ele>
        <time>2021-07-20T09:00:27Z</time>
      </trkpt>
      <trkpt lat="43.17579" lon="3.18684">
        <ele>4.5</ele>
        <time>2021-07-20T09:00:28Z</time>
      </trkpt>
      <trkpt lat="43.17579" lon="3.18691">
        <ele>4.6</ele>
        <time>2021-07-20T09:00:29Z</time>
      </trkpt>
      <trkpt lat="43.17579" lon="3.18697">
        <ele>4.8</ele>
        <time>2021-07-20T09:00:30Z</time>
      </trkpt>
      <trkpt lat="43.1758" lon="3.18703">
        <ele>4.9</ele>
        <time>2021-07-20T09:00:31Z</time>
      </trkpt>
      <trkpt lat="43.17581" lon="3.1871">
        <ele>5</ele>
        <time>2021-07-20T09:00:32Z</time>
      </trkpt>
      <trkpt lat="43.17582" lon="3.18716">
        <ele>5.2</ele>
        <time>2021-07-20T09:00:33Z</time>
      </trkpt>
      <trkpt lat="43.17583" lon="3.18723">
        <ele>5.3</ele>
        <time>2021-07-20T09:00:34Z</time>
      </trkpt>
      <trkpt lat="43.17584" lon="3.18729">
        <ele>5.5</ele>
        <time>2021-07-20T09:00:35Z</time>
      </trkpt>
      <trkpt lat="43.17585" lon="3.18736">
        <ele>-2.0896528</ele>
        <time>2021-07-20T09:00:36Z</time>
      </trkpt>
      <trkpt lat="43.17585" lon="3.18742">
        <ele>5.8</ele>
        <time>2021-07-20T09:00:37Z</time>
      </trkpt>
      <trkpt lat="43.17586" lon="3.18749">
        <ele>5.9</ele>
        <time>2021-07-20T09:00:38Z</time>
      </trkpt>
      <trkpt lat="43.17587" lon="3.18756">
        <ele>6.1</ele>
        <time>2021-07-20T09:00:39Z</time>
      </trkpt>
      <trkpt lat="43.17588" lon="3.18762">
        <ele>6.2</ele>
        <time>2021-07-20T09:00:40Z</time>
      </trkpt>
      <trkpt lat="43.17589" lon="3.18768">
        <ele>6.3</ele>
        <time>2021-07-20T09:00:41Z</time>
      </trkpt>
      <trkpt lat="43.1759" lon="3.18774">
        <ele>6.5</ele>
        <time>2021-07-20T09:00:42Z</time>
      </trkpt>
      <trkpt lat="43.1759" lon="3.1878">
        <ele>6.6</ele>
        <time>2021-07-20T09:00:43Z</time>
      </trkpt>
      <trkpt lat="43.17591" lon="3.18786">
        <ele>6.8</ele>
        <time>2021-07-20T09:00:44Z</time>
      </trkpt>
      <trkpt lat="43.17592" lon="3.18792">
        <ele>6.9</ele>
        <time>2021-07-20T09:00:45Z</time>
      </trkpt>
      <trkpt lat="43.17594" lon="3.18798">
        <ele>-2.095878</ele>
        <time>2021-07-20T09:00:46Z</time>
      </trkpt>
      <trkpt lat="43.17597" lon="3.18802">
        <ele>7.1</ele>
        <time>2021-07-20T09:00:47Z</time>
      </trkpt>
      <trkpt lat="43.17601" lon="3.18805">
        <ele>7.2</ele>
        <time>2021-07-20T09:00:48Z</time>
      </trkpt>
      <trkpt lat="43.17606" lon="3.18807">
        <ele>7.2</ele>
        <time>2021-07-20T09:00:49Z</time>
      </trkpt>
      <trkpt lat="43.1761" lon="3.18807">
        <ele>7.2</ele>
        <time>2021-07-20T09:00:50Z</time>
      </trkpt>
      <trkpt lat="43.17615" lon="3.18806">
        <ele>7.1</ele>
        <time>2021-07-20T09:00:51Z</time>
      </trkpt>
      <trkpt lat="43.1762" lon="3.18805">
        <ele>7</ele>
        <time>2021-07-20T09:00:52Z</time>
      </trkpt>
      <trkpt lat="43.17625" lon="3.18803">
        <ele>6.9</ele>
        <time>2021-07-20T09:00:53Z</time>
      </trkpt>
      <trkpt lat="43.17629" lon="3.18802">
        <ele>6.8</ele>
        <time>2021-07-20T09:00:54Z</time>
      </trkpt>
      <trkpt lat="43.17634" lon="3.18801">
        <ele>6.8</ele>
        <time>2021-07-20T09:00:55Z</time>
      </trkpt>
      <trkpt lat="43.17638" lon="3.188">
        <ele>-2.324135</ele>
        <time>2021-07-20T09:00:56Z</time>
      </trkpt>
      <trkpt lat="43.17643" lon="3.18799">
        <ele>6.6</ele>
        <time>2021-07-20T09:00:57Z</time>
      </trkpt>
      <trkpt lat="43.17647" lon="3.18798">
        <ele>6.5</ele>
        <time>2021-07-20T09:00:58Z</time>
      </trkpt>
      <trkpt lat="43.17651" lon="3.18797">
        <ele>6.4</ele>
        <time>2021-07-20T09:00:59Z</time>
      </trkpt>
      <trkpt lat="43.17654" lon="3.18796">
        <ele>6.3</ele>
        <time>2021-07-20T09:01:00Z</time>
      </trkpt>
      <trkpt lat="43.17658" lon="3.18794">
        <ele>6.2</ele>
        <time>2021-07-20T09:01:01Z</time>
      </trkpt>
      <trkpt lat="43.17661" lon="3.18793">
        <ele>6.2</ele>
        <time>2021-07-20T09:01:02Z</time>
      </trkpt>
      <trkpt lat="43.17664" lon="3.18794">
        <ele>6.2</ele>
        <time>2021-07-20T09:01:03Z</time>
      </trkpt>
      <trkpt lat="43.17666" lon="3.18797">
        <ele>6.3</ele>
        <time>2021-07-20T09:01:04Z</time>
      </trkpt>
      <trkpt lat="43.17669" lon="3.18797">
        <ele>6.3</ele>
        <time>2021-07-20T09:01:05Z</time>
      </trkpt>
      <trkpt lat="43.1767" lon="3.188">
        <ele>-2.3843114</ele>
        <time>2021-07-20T09:01:06Z</time>
      </trkpt>
      <trkpt lat="43.17671" lon="3.18803">
        <ele>6.6</ele>
        <time>2021-07-20T09:01:07Z</time>
      </trkpt>
      <trkpt lat="43.17672" lon="3.18805">
        <ele>6.8</ele>
        <time>2021-07-20T09:01:08Z</time>
      </trkpt>
      <trkpt lat="43.17674" lon="3.18808">
        <ele>7</ele>
        <time>2021-07-20T09:01:09Z</time>
      </trkpt>
      <trkpt lat="43.17675" lon="3.18812">
        <ele>7.1</ele>
        <time>2021-07-20T09:01:10Z</time>
      </trkpt>
      <trkpt lat="43.17676" lon="3.18815">
        <ele>7.3</ele>
        <time>2021-07-20T09:01:11Z</time>
      </trkpt>
      <trkpt lat="43.17678" lon="3.18818">
        <ele>7.4</ele>
        <time>2021-07-20T09:01:12Z</time>
      </trkpt>
      <trkpt lat="43.17679" lon="3.18822">
        <ele>7.6</ele>
        <time>2021-07-20T09:01:13Z</time>
      </trkpt>
      <trkpt lat="43.1768" lon="3.18825">
        <ele>7.7</ele>
        <time>2021-07-20T09:01:14Z</time>
      </trkpt>
      <trkpt lat="43.17682" lon="3.18829">
        <ele>-2.5907779</ele>
        <time>2021-07-20T09:01:15Z</time>
      </trkpt>
      <trkpt lat="43.17683" lon="3.18832">
        <ele>8</ele>
        <time>2021-07-20T09:01:16Z</time>
      </trkpt>
      <trkpt lat="43.17684" lon="3.18835">
        <ele>8</ele>
        <time>2021-07-20T09:01:17Z</time>
      </trkpt>
      <trkpt lat="43.17685" lon="3.18839">
        <ele>7.9</ele>
        <time>2021-07-20T09:01:18Z</time>
      </trkpt>
      <trkpt lat="43.17686" lon="3.18842">
        <ele>7.8</ele>
        <time>2021-07-20T09:01:19Z</time>
      </trkpt>
      <trkpt lat="43.17688" lon="3.18845">
        <ele>7.7</ele>
        <time>2021-07-20T09:01:20Z</time>
      </trkpt>
      <trkpt lat="43.17689" lon="3.18849">
        <ele>7.7</ele>
        <time>2021-07-20T09:01:21Z</time>
      </trkpt>
      <trkpt lat="43.1769" lon="3.18853">
        <ele>7.6</ele>
        <time>2021-07-20T09:01:22Z</time>
      </trkpt>
      <trkpt lat="43.17691" lon="3.18857">
        <ele>7.5</ele>
        <time>2021-07-20T09:01:23Z</time>
      </trkpt>
      <trkpt lat="43.17693" lon="3.1886">
        <ele>7.4</ele>
        <time>2021-07-20T09:01:24Z</time>
      </trkpt>
      <trkpt lat="43.17695" lon="3.18864">
        <ele>-2.5129642</ele>
        <time>2021-07-20T09:01:25Z</time>
      </trkpt>
      <trkpt lat="43.17696" lon="3.18867">
        <ele>7.2</ele>
        <time>2021-07-20T09:01:26Z</time>
      </trkpt>
      <trkpt lat="43.17697" lon="3.18871">
        <ele>7.1</ele>
        <time>2021-07-20T09:01:27Z</time>
      </trkpt>
      <trkpt lat="43.17698" lon="3.18875">
        <ele>6.9</ele>
        <time>2021-07-20T09:01:28Z</time>
      </trkpt>
      <trkpt lat="43.17699" lon="3.18878">
        <ele>6.8</ele>
        <time>2021-07-20T09:01:29Z</time>
      </trkpt>
      <trkpt lat="43.17701" lon="3.18881">
        <ele>6.7</ele>
        <time>2021-07-20T09:01:30Z</time>
      </trkpt>
      <trkpt lat="43.17703" lon="3.18885">
        <ele>6.6</ele>
        <time>2021-07-20T09:01:31Z</time>
      </trkpt>
      <trkpt lat="43.17704" lon="3.18888">
        <ele>6.5</ele>
        <time>2021-07-20T09:01:32Z</time>
      </trkpt>
      <trkpt lat="43.17705" lon="3.18892">
        <ele>6.3</ele>
        <time>2021-07-20T09:01:33Z</time>
      </trkpt>
      <trkpt lat="43.17707" lon="3.18895">
        <ele>6.2</ele>
        <time>2021-07-20T09:01:34Z</time>
      </trkpt>
      <trkpt lat="43.17709" lon="3.18898">
        <ele>-2.532677</ele>
        <time>2021-07-20T09:01:35Z</time>
      </trkpt>
      <trkpt lat="43.17711" lon="3.18901">
        <ele>5.9</ele>
        <time>2021-07-20T09:01:36Z</time>
      </trkpt>
      <trkpt lat="43.17712" lon="3.18905">
        <ele>5.7</ele>
        <time>2021-07-20T09:01:37Z</time>
      </trkpt>
      <trkpt lat="43.17714" lon="3.18908">
        <ele>5.6</ele>
        <time>2021-07-20T09:01:38Z</time>
      </trkpt>
      <trkpt lat="43.17716" lon="3.18911">
        <ele>5.4</ele>
        <time>2021-07-20T09:01:39Z</time>
      </trkpt>
      <trkpt lat="43.17718" lon="3.18914">
        <ele>5.3</ele>
        <time>2021-07-20T09:01:40Z</time>
      </trkpt>
      <trkpt lat="43.1772" lon="3.18917">
        <ele>5.09</ele>
        <time>2021-07-20T09:01:41Z</time>
      </trkpt>
      <trkpt lat="43.17722" lon="3.1892">
        <ele>5.02</ele>
        <time>2021-07-20T09:01:42Z</time>
      </trkpt>
      <trkpt lat="43.17724" lon="3.18923">
        <ele>4.94</ele>
        <time>2021-07-20T09:01:43Z</time>
      </trkpt>
      <trkpt lat="43.17726" lon="3.18926">
        <ele>4.86</ele>
        <time>2021-07-20T09:01:44Z</time>
      </trkpt>
      <trkpt lat="43.17728" lon="3.18929">
        <ele>-2.5627651</ele>
        <time>2021-07-20T09:01:45Z</time>
      </trkpt>
      <trkpt lat="43.17731" lon="3.18932">
        <ele>4.69</ele>
        <time>2021-07-20T09:01:46Z</time>
      </trkpt>
      <trkpt lat="43.17733" lon="3.18935">
        <ele>4.6</ele>
        <time>2021-07-20T09:01:47Z</time>
      </trkpt>
      <trkpt lat="43.17736" lon="3.18937">
        <ele>4.5</ele>
        <time>2021-07-20T09:01:48Z</time>
      </trkpt>
      <trkpt lat="43.17738" lon="3.1894">
        <ele>4.42</ele>
        <time>2021-07-20T09:01:49Z</time>
      </trkpt>
      <trkpt lat="43.17741" lon="3.18942">
        <ele>4.34</ele>
        <time>2021-07-20T09:01:50Z</time>
      </trkpt>
      <trkpt lat="43.17744" lon="3.18944">
        <ele>4.23</ele>
        <time>2021-07-20T09:01:51Z</time>
      </trkpt>
      <trkpt lat="43.17746" lon="3.18946">
        <ele>4.13</ele>
        <time>2021-07-20T09:01:52Z</time>
      </trkpt>
      <trkpt lat="43.17749" lon="3.18949">
        <ele>4.04</ele>
        <time>2021-07-20T09:01:53Z</time>
      </trkpt>
      <trkpt lat="43.17752" lon="3.18951">
        <ele>4.9</ele>
        <time>2021-07-20T09:01:54Z</time>
      </trkpt>
      <trkpt lat="43.17754" lon="3.18953">
        <ele>-2.5347521</ele>
        <time>2021-07-20T09:01:55Z</time>
      </trkpt>
      <trkpt lat="43.17757" lon="3.18955">
        <ele>5</ele>
        <time>2021-07-20T09:01:56Z</time>
      </trkpt>
      <trkpt lat="43.17759" lon="3.18956">
        <ele>5.1</ele>
        <time>2021-07-20T09:01:57Z</time>
      </trkpt>
      <trkpt lat="43.17761" lon="3.18958">
        <ele>5.2</ele>
        <time>2021-07-20T09:01:58Z</time>
      </trkpt>
      <trkpt lat="43.17763" lon="3.1896">
        <ele>5.3</ele>
        <time>2021-07-20T09:01:59Z</time>
      </trkpt>
      <trkpt lat="43.17764" lon="3.18961">
        <ele>5.3</ele>
        <time>2021-07-20T09:02:00Z</time>
      </trkpt>
      <trkpt lat="43.17765" lon="3.18964">
        <ele>5.4</ele>
        <time>2021-07-20T09:02:01Z</time>
      </trkpt>
      <trkpt lat="43.17767" lon="3.18965">
        <ele>5.4</ele>
        <time>2021-07-20T09:02:02Z</time>
      </trkpt>
      <trkpt lat="43.17769" lon="3.18967">
        <ele>5.5</ele>
        <time>2021-07-20T09:02:03Z</time>
      </trkpt>
      <trkpt lat="43.1777" lon="3.18969">
        <ele>5.5</ele>
        <time>2021-07-20T09:02:04Z</time>
      </trkpt>
      <trkpt lat="43.17772" lon="3.1897">
        <ele>5.6</ele>
        <time>2021-07-20T09:02:05Z</time>
      </trkpt>
      <trkpt lat="43.17774" lon="3.18972">
        <ele>-2.7578173</ele>
        <time>2021-07-20T09:02:06Z</time>
      </trkpt>
      <trkpt lat="43.17776" lon="3.18974">
        <ele>5.7</ele>
        <time>2021-07-20T09:02:07Z</time>
      </trkpt>
      <trkpt lat="43.17778" lon="3.18975">
        <ele>5.7</ele>
        <time>2021-07-20T09:02:08Z</time>
      </trkpt>
      <trkpt lat="43.1778" lon="3.18977">
        <ele>5.8</ele>
        <time>2021-07-20T09:02:09Z</time>
      </trkpt>
      <trkpt lat="43.17782" lon="3.18979">
        <ele>5.8</ele>
        <time>2021-07-20T09:02:10Z</time>
      </trkpt>
      <trkpt lat="43.17784" lon="3.1898">
        <ele>5.8</ele>
        <time>2021-07-20T09:02:11Z</time>
      </trkpt>
      <trkpt lat="43.17786" lon="3.18981">
        <ele>5.8</ele>
        <time>2021-07-20T09:02:12Z</time>
      </trkpt>
      <trkpt lat="43.17787" lon="3.18984">
        <ele>5.9</ele>
        <time>2021-07-20T09:02:13Z</time>
      </trkpt>
      <trkpt lat="43.17787" lon="3.18986">
        <ele>5.9</ele>
        <time>2021-07-20T09:02:14Z</time>
      </trkpt>
      <trkpt lat="43.17787" lon="3.18988">
        <ele>5.9</ele>
        <time>2021-07-20T09:02:15Z</time>
      </trkpt>
      <trkpt lat="43.17787" lon="3.1899">
        <ele>-2.597003</ele>
        <time>2021-07-20T09:02:16Z</time>
      </trkpt>
      <trkpt lat="43.17787" lon="3.18992">
        <ele>5.9</ele>
        <time>2021-07-20T09:02:17Z</time>
      </trkpt>
      <trkpt lat="43.17788" lon="3.18992">
        <ele>5.9</ele>
        <time>2021-07-20T09:02:18Z</time>
      </trkpt>
      <trkpt lat="43.17788" lon="3.18993">
        <ele>5.9</ele>
        <time>2021-07-20T09:02:19Z</time>
      </trkpt>
      <trkpt lat="43.17788" lon="3.18993">
        <ele>5.9</ele>
        <time>2021-07-20T09:02:20Z</time>
      </trkpt>
      <trkpt lat="43.17788" lon="3.18993">
        <ele>5.9</ele>
        <time>2021-07-20T09:02:21Z</time>
      </trkpt>
      <trkpt lat="43.17788" lon="3.18993">
        <ele>5.9</ele>
        <time>2021-07-20T09:02:22Z</time>
      </trkpt>
      <trkpt lat="43.17788" lon="3.18993">
        <ele>5.9</ele>
        <time>2021-07-20T09:02:23Z</time>
      </trkpt>
      <trkpt lat="43.17788" lon="3.18993">
        <ele>5.9</ele>
        <time>2021-07-20T09:02:24Z</time>
      </trkpt>
      <trkpt lat="43.17788" lon="3.18993">
        <ele>5.9</ele>
        <time>2021-07-20T09:02:25Z</time>
      </trkpt>
      <trkpt lat="43.17788" lon="3.18993">
        <ele>-2.7557423</ele>
        <time>2021-07-20T09:02:26Z</time>
      </trkpt>
      <trkpt lat="43.17788" lon="3.18993">
        <ele>5.9</ele>
        <time>2021-07-20T09:02:27Z</time>
      </trkpt>
      <trkpt lat="43.17788" lon="3.18993">
        <ele>5.9</ele>
        <time>2021-07-20T09:02:28Z</time>
      </trkpt>
      <trkpt lat="43.17788" lon="3.18993">
        <ele>5.9</ele>
        <time>2021-07-20T09:02:29Z</time>
      </trkpt>
      <trkpt lat="43.17788" lon="3.18993">
        <ele>5.9</ele>
        <time>2021-07-20T09:02:30Z</time>
      </trkpt>
      <trkpt lat="43.17788" lon="3.18994">
        <ele>6</ele>
        <time>2021-07-20T09:02:31Z</time>
      </trkpt>
      <trkpt lat="43.17788" lon="3.18994">
        <ele>6</ele>
        <time>2021-07-20T09:02:32Z</time>
      </trkpt>
      <trkpt lat="43.17788" lon="3.18994">
        <ele>6</ele>
        <time>2021-07-20T09:02:33Z</time>
      </trkpt>
      <trkpt lat="43.17788" lon="3.18995">
        <ele>6</ele>
        <time>2021-07-20T09:02:35Z</time>
      </trkpt>
      <trkpt lat="43.17788" lon="3.18995">
        <ele>-2.726692</ele>
        <time>2021-07-20T09:02:36Z</time>
      </trkpt>
      <trkpt lat="43.17788" lon="3.18995">
        <ele>6</ele>
        <time>2021-07-20T09:02:37Z</time>
      </trkpt>
      <trkpt lat="43.17788" lon="3.18994">
        <ele>6</ele>
        <time>2021-07-20T09:02:38Z</time>
      </trkpt>
      <trkpt lat="43.17788" lon="3.18994">
        <ele>6</ele>
        <time>2021-07-20T09:02:39Z</time>
      </trkpt>
      <trkpt lat="43.17788" lon="3.18994">
        <ele>6</ele>
        <time>2021-07-20T09:02:40Z</time>
      </trkpt>
      <trkpt lat="43.17788" lon="3.18994">
        <ele>6</ele>
        <time>2021-07-20T09:02:41Z</time>
      </trkpt>
      <trkpt lat="43.17788" lon="3.18994">
        <ele>6</ele>
        <time>2021-07-20T09:02:42Z</time>
      </trkpt>
      <trkpt lat="43.17788" lon="3.18994">
        <ele>6</ele>
        <time>2021-07-20T09:02:43Z</time>
      </trkpt>
      <trkpt lat="43.17788" lon="3.18994">
        <ele>6</ele>
        <time>2021-07-20T09:02:44Z</time>
      </trkpt>
      <trkpt lat="43.17788" lon="3.18994">
        <ele>6</ele>
        <time>2021-07-20T09:02:45Z</time>
      </trkpt>
      <trkpt lat="43.17788" lon="3.18994">
        <ele>-2.82733</ele>
        <time>2021-07-20T09:02:46Z</time>
      </trkpt>
      <trkpt lat="43.17788" lon="3.18994">
        <ele>6</ele>
        <time>2021-07-20T09:02:47Z</time>
      </trkpt>
      <trkpt lat="43.17788" lon="3.18994">
        <ele>6</ele>
        <time>2021-07-20T09:02:48Z</time>
      </trkpt>
      <trkpt lat="43.17788" lon="3.18994">
        <ele>6</ele>
        <time>2021-07-20T09:02:49Z</time>
      </trkpt>
      <trkpt lat="43.17788" lon="3.18994">
        <ele>6</ele>
        <time>2021-07-20T09:02:50Z</time>
      </trkpt>
      <trkpt lat="43.17788" lon="3.18994">
        <ele>6</ele>
        <time>2021-07-20T09:02:51Z</time>
      </trkpt>
      <trkpt lat="43.17788" lon="3.18994">
        <ele>6</ele>
        <time>2021-07-20T09:02:52Z</time>
      </trkpt>
      <trkpt lat="43.17788" lon="3.18994">
        <ele>6</ele>
        <time>2021-07-20T09:02:53Z</time>
      </trkpt>
      <trkpt lat="43.17788" lon="3.18994">
        <ele>6</ele>
        <time>2021-07-20T09:02:54Z</time>
      </trkpt>
      <trkpt lat="43.17788" lon="3.18994">
        <ele>-2.9103303</ele>
        <time>2021-07-20T09:02:55Z</time>
      </trkpt>
      <trkpt lat="43.17788" lon="3.18994">
        <ele>6</ele>
        <time>2021-07-20T09:02:56Z</time>
      </trkpt>
      <trkpt lat="43.17788" lon="3.18994">
        <ele>6</ele>
        <time>2021-07-20T09:02:57Z</time>
      </trkpt>
      <trkpt lat="43.17788" lon="3.18994">
        <ele>6</ele>
        <time>2021-07-20T09:02:58Z</time>
      </trkpt>
      <trkpt lat="43.17788" lon="3.18994">
        <ele>6</ele>
        <time>2021-07-20T09:02:59Z</time>
      </trkpt>
      <trkpt lat="43.17788" lon="3.18994">
        <ele>6</ele>
        <time>2021-07-20T09:03:00Z</time>
      </trkpt>
      <trkpt lat="43.17788" lon="3.18994">
        <ele>6</ele>
        <time>2021-07-20T09:03:01Z</time>
      </trkpt>
      <trkpt lat="43.17788" lon="3.18994">
        <ele>6</ele>
        <time>2021-07-20T09:03:02Z</time>
      </trkpt>
      <trkpt lat="43.17788" lon="3.18994">
        <ele>6</ele>
        <time>2021-07-20T09:03:03Z</time>
      </trkpt>
      <trkpt lat="43.17786" lon="3.18994">
        <ele>6</ele>
        <time>2021-07-20T09:03:04Z</time>
      </trkpt>
      <trkpt lat="43.17786" lon="3.18994">
        <ele>-2.730842</ele>
        <time>2021-07-20T09:03:05Z</time>
      </trkpt>
      <trkpt lat="43.17785" lon="3.18993">
        <ele>5.9</ele>
        <time>2021-07-20T09:03:06Z</time>
      </trkpt>
      <trkpt lat="43.17785" lon="3.18993">
        <ele>5.9</ele>
        <time>2021-07-20T09:03:07Z</time>
      </trkpt>
      <trkpt lat="43.17785" lon="3.18992">
        <ele>5.9</ele>
        <time>2021-07-20T09:03:08Z</time>
      </trkpt>
      <trkpt lat="43.17785" lon="3.18992">
        <ele>5.9</ele>
        <time>2021-07-20T09:03:09Z</time>
      </trkpt>
      <trkpt lat="43.17785" lon="3.18992">
        <ele>5.9</ele>
        <time>2021-07-20T09:03:10Z</time>
      </trkpt>
      <trkpt lat="43.17785" lon="3.18992">
        <ele>5.9</ele>
        <time>2021-07-20T09:03:11Z</time>
      </trkpt>
      <trkpt lat="43.17785" lon="3.18992">
        <ele>5.9</ele>
        <time>2021-07-20T09:03:12Z</time>
      </trkpt>
      <trkpt lat="43.17785" lon="3.18992">
        <ele>5.9</ele>
        <time>2021-07-20T09:03:13Z</time>
      </trkpt>
      <trkpt lat="43.17785" lon="3.18992">
        <ele>5.9</ele>
        <time>2021-07-20T09:03:14Z</time>
      </trkpt>
      <trkpt lat="43.17785" lon="3.18992">
        <ele>-2.6374662</ele>
        <time>2021-07-20T09:03:15Z</time>
      </trkpt>
      <trkpt lat="43.17785" lon="3.18992">
        <ele>5.9</ele>
        <time>2021-07-20T09:03:16Z</time>
      </trkpt>
      <trkpt lat="43.17785" lon="3.18992">
        <ele>5.9</ele>
        <time>2021-07-20T09:03:17Z</time>
      </trkpt>
      <trkpt lat="43.17785" lon="3.18992">
        <ele>5.9</ele>
        <time>2021-07-20T09:03:18Z</time>
      </trkpt>
      <trkpt lat="43.17785" lon="3.18992">
        <ele>5.9</ele>
        <time>2021-07-20T09:03:19Z</time>
      </trkpt>
      <trkpt lat="43.17785" lon="3.18992">
        <ele>5.9</ele>
        <time>2021-07-20T09:03:20Z</time>
      </trkpt>
      <trkpt lat="43.17785" lon="3.18992">
        <ele>5.9</ele>
        <time>2021-07-20T09:03:21Z</time>
      </trkpt>
      <trkpt lat="43.17785" lon="3.18992">
        <ele>5.9</ele>
        <time>2021-07-20T09:03:22Z</time>
      </trkpt>
      <trkpt lat="43.17785" lon="3.18992">
        <ele>5.9</ele>
        <time>2021-07-20T09:03:23Z</time>
      </trkpt>
      <trkpt lat="43.17785" lon="3.18992">
        <ele>5.9</ele>
        <time>2021-07-20T09:03:24Z</time>
      </trkpt>
      <trkpt lat="43.17786" lon="3.18993">
        <ele>-2.4216623</ele>
        <time>2021-07-20T09:03:25Z</time>
      </trkpt>
      <trkpt lat="43.17786" lon="3.18993">
        <ele>5.9</ele>
        <time>2021-07-20T09:03:26Z</time>
      </trkpt>
      <trkpt lat="43.17786" lon="3.18993">
        <ele>5.9</ele>
        <time>2021-07-20T09:03:27Z</time>
      </trkpt>
      <trkpt lat="43.17786" lon="3.18993">
        <ele>5.9</ele>
        <time>2021-07-20T09:03:28Z</time>
      </trkpt>
      <trkpt lat="43.17786" lon="3.18993">
        <ele>5.9</ele>
        <time>2021-07-20T09:03:29Z</time>
      </trkpt>
      <trkpt lat="43.17786" lon="3.18993">
        <ele>5.9</ele>
        <time>2021-07-20T09:03:30Z</time>
      </trkpt>
      <trkpt lat="43.17786" lon="3.18993">
        <ele>5.9</ele>
        <time>2021-07-20T09:03:31Z</time>
      </trkpt>
      <trkpt lat="43.17786" lon="3.18993">
        <ele>5.9</ele>
        <time>2021-07-20T09:03:32Z</time>
      </trkpt>
      <trkpt lat="43.17786" lon="3.18993">
        <ele>5.9</ele>
        <time>2021-07-20T09:03:33Z</time>
      </trkpt>
      <trkpt lat="43.17786" lon="3.18993">
        <ele>5.9</ele>
        <time>2021-07-20T09:03:34Z</time>
      </trkpt>
      <trkpt lat="43.17786" lon="3.18993">
        <ele>-2.6426537</ele>
        <time>2021-07-20T09:03:35Z</time>
      </trkpt>
      <trkpt lat="43.17786" lon="3.18993">
        <ele>5.9</ele>
        <time>2021-07-20T09:03:36Z</time>
      </trkpt>
      <trkpt lat="43.17787" lon="3.18993">
        <ele>5.9</ele>
        <time>2021-07-20T09:03:37Z</time>
      </trkpt>
      <trkpt lat="43.17787" lon="3.18993">
        <ele>5.9</ele>
        <time>2021-07-20T09:03:38Z</time>
      </trkpt>
      <trkpt lat="43.17787" lon="3.18993">
        <ele>5.9</ele>
        <time>2021-07-20T09:03:39Z</time>
      </trkpt>
      <trkpt lat="43.17787" lon="3.18993">
        <ele>5.9</ele>
        <time>2021-07-20T09:03:40Z</time>
      </trkpt>
      <trkpt lat="43.17787" lon="3.18993">
        <ele>5.9</ele>
        <time>2021-07-20T09:03:41Z</time>
      </trkpt>
      <trkpt lat="43.17787" lon="3.18993">
        <ele>5.9</ele>
        <time>2021-07-20T09:03:42Z</time>
      </trkpt>
      <trkpt lat="43.17787" lon="3.18993">
        <ele>5.9</ele>
        <time>2021-07-20T09:03:43Z</time>
      </trkpt>
      <trkpt lat="43.17787" lon="3.18993">
        <ele>5.9</ele>
        <time>2021-07-20T09:03:44Z</time>
      </trkpt>
      <trkpt lat="43.17787" lon="3.18993">
        <ele>5.9</ele>
        <time>2021-07-20T09:03:45Z</time>
      </trkpt>
      <trkpt lat="43.17787" lon="3.18993">
        <ele>-2.6177533</ele>
        <time>2021-07-20T09:03:46Z</time>
      </trkpt>
      <trkpt lat="43.17787" lon="3.18993">
        <ele>5.9</ele>
        <time>2021-07-20T09:03:47Z</time>
      </trkpt>
      <trkpt lat="43.17787" lon="3.18993">
        <ele>5.9</ele>
        <time>2021-07-20T09:03:48Z</time>
      </trkpt>
      <trkpt lat="43.17787" lon="3.18993">
        <ele>5.9</ele>
        <time>2021-07-20T09:03:49Z</time>
      </trkpt>
      <trkpt lat="43.17787" lon="3.18993">
        <ele>5.9</ele>
        <time>2021-07-20T09:03:50Z</time>
      </trkpt>
      <trkpt lat="43.17787" lon="3.18993">
        <ele>5.9</ele>
        <time>2021-07-20T09:03:51Z</time>
      </trkpt>
      <trkpt lat="43.17787" lon="3.18993">
        <ele>5.9</ele>
        <time>2021-07-20T09:03:52Z</time>
      </trkpt>
      <trkpt lat="43.17787" lon="3.18993">
        <ele>5.9</ele>
        <time>2021-07-20T09:03:53Z</time>
      </trkpt>
      <trkpt lat="43.17787" lon="3.18993">
        <ele>5.9</ele>
        <time>2021-07-20T09:03:54Z</time>
      </trkpt>
      <trkpt lat="43.17787" lon="3.18993">
        <ele>5.9</ele>
        <time>2021-07-20T09:03:55Z</time>
      </trkpt>
      <trkpt lat="43.17787" lon="3.18993">
        <ele>-2.4953263</ele>
        <time>2021-07-20T09:03:56Z</time>
      </trkpt>
      <trkpt lat="43.17787" lon="3.18993">
        <ele>5.9</ele>
        <time>2021-07-20T09:03:57Z</time>
      </trkpt>
      <trkpt lat="43.17787" lon="3.18993">
        <ele>5.9</ele>
        <time>2021-07-20T09:03:58Z</time>
      </trkpt>
      <trkpt lat="43.17787" lon="3.18993">
        <ele>5.9</ele>
        <time>2021-07-20T09:03:59Z</time>
      </trkpt>
      <trkpt lat="43.17787" lon="3.18993">
        <ele>5.9</ele>
        <time>2021-07-20T09:04:00Z</time>
      </trkpt>
      <trkpt lat="43.17787" lon="3.18993">
        <ele>5.9</ele>
        <time>2021-07-20T09:04:01Z</time>
      </trkpt>
      <trkpt lat="43.17787" lon="3.18993">
        <ele>5.9</ele>
        <time>2021-07-20T09:04:02Z</time>
      </trkpt>
      <trkpt lat="43.17787" lon="3.18993">
        <ele>5.9</ele>
        <time>2021-07-20T09:04:03Z</time>
      </trkpt>
      <trkpt lat="43.17786" lon="3.18994">
        <ele>5.9</ele>
        <time>2021-07-20T09:04:04Z</time>
      </trkpt>
      <trkpt lat="43.17786" lon="3.18993">
        <ele>5.9</ele>
        <time>2021-07-20T09:04:05Z</time>
      </trkpt>
      <trkpt lat="43.17786" lon="3.18993">
        <ele>-2.6063406</ele>
        <time>2021-07-20T09:04:06Z</time>
      </trkpt>
      <trkpt lat="43.17786" lon="3.18993">
        <ele>5.9</ele>
        <time>2021-07-20T09:04:07Z</time>
      </trkpt>
      <trkpt lat="43.17786" lon="3.18993">
        <ele>5.9</ele>
        <time>2021-07-20T09:04:08Z</time>
      </trkpt>
      <trkpt lat="43.17786" lon="3.18993">
        <ele>5.9</ele>
        <time>2021-07-20T09:04:09Z</time>
      </trkpt>
      <trkpt lat="43.17786" lon="3.18993">
        <ele>5.9</ele>
        <time>2021-07-20T09:04:10Z</time>
      </trkpt>
      <trkpt lat="43.17786" lon="3.18993">
        <ele>5.9</ele>
        <time>2021-07-20T09:04:11Z</time>
      </trkpt>
      <trkpt lat="43.17786" lon="3.18993">
        <ele>5.9</ele>
        <time>2021-07-20T09:04:12Z</time>
      </trkpt>
      <trkpt lat="43.17786" lon="3.18993">
        <ele>5.9</ele>
        <time>2021-07-20T09:04:13Z</time>
      </trkpt>
      <trkpt lat="43.17786" lon="3.18993">
        <ele>5.9</ele>
        <time>2021-07-20T09:04:14Z</time>
      </trkpt>
      <trkpt lat="43.17786" lon="3.18993">
        <ele>5.9</ele>
        <time>2021-07-20T09:04:15Z</time>
      </trkpt>
      <trkpt lat="43.17786" lon="3.18993">
        <ele>-2.8543053</ele>
        <time>2021-07-20T09:04:16Z</time>
      </trkpt>
      <trkpt lat="43.17786" lon="3.18993">
        <ele>5.9</ele>
        <time>2021-07-20T09:04:17Z</time>
      </trkpt>
      <trkpt lat="43.17786" lon="3.18993">
        <ele>5.9</ele>
        <time>2021-07-20T09:04:18Z</time>
      </trkpt>
      <trkpt lat="43.17786" lon="3.18993">
        <ele>5.9</ele>
        <time>2021-07-20T09:04:19Z</time>
      </trkpt>
      <trkpt lat="43.17786" lon="3.18993">
        <ele>5.9</ele>
        <time>2021-07-20T09:04:20Z</time>
      </trkpt>
      <trkpt lat="43.17786" lon="3.18993">
        <ele>5.9</ele>
        <time>2021-07-20T09:04:21Z</time>
      </trkpt>
      <trkpt lat="43.17786" lon="3.18993">
        <ele>5.9</ele>
        <time>2021-07-20T09:04:22Z</time>
      </trkpt>
      <trkpt lat="43.17786" lon="3.18993">
        <ele>5.9</ele>
        <time>2021-07-20T09:04:23Z</time>
      </trkpt>
      <trkpt lat="43.17786" lon="3.18993">
        <ele>5.9</ele>
        <time>2021-07-20T09:04:24Z</time>
      </trkpt>
      <trkpt lat="43.17786" lon="3.18993">
        <ele>5.9</ele>
        <time>2021-07-20T09:04:25Z</time>
      </trkpt>
      <trkpt lat="43.17786" lon="3.18993">
        <ele>-2.7619674</ele>
        <time>2021-07-20T09:04:26Z</time>
      </trkpt>
      <trkpt lat="43.17786" lon="3.18993">
        <ele>5.9</ele>
        <time>2021-07-20T09:04:27Z</time>
      </trkpt>
      <trkpt lat="43.17786" lon="3.18993">
        <ele>5.9</ele>
        <time>2021-07-20T09:04:28Z</time>
      </trkpt>
      <trkpt lat="43.17786" lon="3.18993">
        <ele>5.9</ele>
        <time>2021-07-20T09:04:29Z</time>
      </trkpt>
      <trkpt lat="43.17788" lon="3.18993">
        <ele>5.9</ele>
        <time>2021-07-20T09:04:30Z</time>
      </trkpt>
      <trkpt lat="43.17788" lon="3.18993">
        <ele>5.9</ele>
        <time>2021-07-20T09:04:31Z</time>
      </trkpt>
      <trkpt lat="43.17788" lon="3.18993">
        <ele>5.9</ele>
        <time>2021-07-20T09:04:32Z</time>
      </trkpt>
      <trkpt lat="43.17788" lon="3.18993">
        <ele>5.9</ele>
        <time>2021-07-20T09:04:33Z</time>
      </trkpt>
      <trkpt lat="43.17788" lon="3.18993">
        <ele>5.9</ele>
        <time>2021-07-20T09:04:40Z</time>
      </trkpt>
      <trkpt lat="43.17788" lon="3.18993">
        <ele>-2.6810417</ele>
        <time>2021-07-20T09:04:41Z</time>
      </trkpt>
      <trkpt lat="43.17788" lon="3.18993">
        <ele>5.9</ele>
        <time>2021-07-20T09:04:42Z</time>
      </trkpt>
      <trkpt lat="43.17788" lon="3.18993">
        <ele>5.9</ele>
        <time>2021-07-20T09:04:43Z</time>
      </trkpt>
      <trkpt lat="43.17788" lon="3.18993">
        <ele>5.9</ele>
        <time>2021-07-20T09:04:44Z</time>
      </trkpt>
      <trkpt lat="43.17788" lon="3.18993">
        <ele>5.9</ele>
        <time>2021-07-20T09:04:45Z</time>
      </trkpt>
      <trkpt lat="43.17788" lon="3.18993">
        <ele>5.9</ele>
        <time>2021-07-20T09:04:46Z</time>
      </trkpt>
      <trkpt lat="43.17788" lon="3.18993">
        <ele>5.9</ele>
        <time>2021-07-20T09:04:47Z</time>
      </trkpt>
      <trkpt lat="43.17788" lon="3.18993">
        <ele>5.9</ele>
        <time>2021-07-20T09:04:48Z</time>
      </trkpt>
      <trkpt lat="43.17788" lon="3.18993">
        <ele>5.9</ele>
        <time>2021-07-20T09:04:49Z</time>
      </trkpt>
      <trkpt lat="43.17788" lon="3.18993">
        <ele>5.9</ele>
        <time>2021-07-20T09:04:50Z</time>
      </trkpt>
      <trkpt lat="43.17788" lon="3.18993">
        <ele>-2.5347521</ele>
        <time>2021-07-20T09:04:51Z</time>
      </trkpt>
      <trkpt lat="43.17788" lon="3.18993">
        <ele>5.9</ele>
        <time>2021-07-20T09:04:52Z</time>
      </trkpt>
      <trkpt lat="43.17788" lon="3.18993">
        <ele>5.9</ele>
        <time>2021-07-20T09:04:53Z</time>
      </trkpt>
      <trkpt lat="43.17788" lon="3.18993">
        <ele>5.9</ele>
        <time>2021-07-20T09:04:54Z</time>
      </trkpt>
      <trkpt lat="43.17786" lon="3.18992">
        <ele>5.9</ele>
        <time>2021-07-20T09:04:55Z</time>
      </trkpt>
      <trkpt lat="43.17786" lon="3.18992">
        <ele>5.9</ele>
        <time>2021-07-20T09:04:56Z</time>
      </trkpt>
      <trkpt lat="43.17786" lon="3.18992">
        <ele>5.9</ele>
        <time>2021-07-20T09:04:57Z</time>
      </trkpt>
      <trkpt lat="43.17786" lon="3.18992">
        <ele>5.9</ele>
        <time>2021-07-20T09:04:58Z</time>
      </trkpt>
      <trkpt lat="43.17786" lon="3.18992">
        <ele>5.9</ele>
        <time>2021-07-20T09:04:59Z</time>
      </trkpt>
      <trkpt lat="43.17786" lon="3.18992">
        <ele>5.9</ele>
        <time>2021-07-20T09:05:00Z</time>
      </trkpt>
      <trkpt lat="43.17786" lon="3.18992">
        <ele>-2.6219034</ele>
        <time>2021-07-20T09:05:01Z</time>
      </trkpt>
      <trkpt lat="43.17785" lon="3.18991">
        <ele>5.9</ele>
        <time>2021-07-20T09:05:02Z</time>
      </trkpt>
      <trkpt lat="43.17786" lon="3.1899">
        <ele>5.9</ele>
        <time>2021-07-20T09:05:03Z</time>
      </trkpt>
      <trkpt lat="43.17786" lon="3.18991">
        <ele>5.9</ele>
        <time>2021-07-20T09:05:04Z</time>
      </trkpt>
      <trkpt lat="43.17787" lon="3.18991">
        <ele>5.9</ele>
        <time>2021-07-20T09:05:05Z</time>
      </trkpt>
      <trkpt lat="43.17787" lon="3.18991">
        <ele>5.9</ele>
        <time>2021-07-20T09:05:06Z</time>
      </trkpt>
      <trkpt lat="43.17787" lon="3.18991">
        <ele>5.9</ele>
        <time>2021-07-20T09:05:07Z</time>
      </trkpt>
      <trkpt lat="43.17787" lon="3.18991">
        <ele>5.9</ele>
        <time>2021-07-20T09:05:08Z</time>
      </trkpt>
      <trkpt lat="43.17787" lon="3.18991">
        <ele>5.9</ele>
        <time>2021-07-20T09:05:09Z</time>
      </trkpt>
      <trkpt lat="43.17787" lon="3.18991">
        <ele>5.9</ele>
        <time>2021-07-20T09:05:10Z</time>
      </trkpt>
      <trkpt lat="43.17787" lon="3.18991">
        <ele>-2.8698678</ele>
        <time>2021-07-20T09:05:11Z</time>
      </trkpt>
      <trkpt lat="43.17787" lon="3.18991">
        <ele>5.9</ele>
        <time>2021-07-20T09:05:12Z</time>
      </trkpt>
      <trkpt lat="43.17787" lon="3.18991">
        <ele>5.9</ele>
        <time>2021-07-20T09:05:13Z</time>
      </trkpt>
      <trkpt lat="43.17787" lon="3.18991">
        <ele>5.9</ele>
        <time>2021-07-20T09:05:14Z</time>
      </trkpt>
      <trkpt lat="43.17787" lon="3.18991">
        <ele>5.9</ele>
        <time>2021-07-20T09:05:15Z</time>
      </trkpt>
      <trkpt lat="43.17787" lon="3.18991">
        <ele>5.9</ele>
        <time>2021-07-20T09:05:16Z</time>
      </trkpt>
      <trkpt lat="43.17787" lon="3.18991">
        <ele>5.9</ele>
        <time>2021-07-20T09:05:17Z</time>
      </trkpt>
      <trkpt lat="43.17787" lon="3.18991">
        <ele>5.9</ele>
        <time>2021-07-20T09:05:18Z</time>
      </trkpt>
      <trkpt lat="43.17787" lon="3.18991">
        <ele>5.9</ele>
        <time>2021-07-20T09:05:19Z</time>
      </trkpt>
      <trkpt lat="43.17787" lon="3.18991">
        <ele>5.9</ele>
        <time>2021-07-20T09:05:20Z</time>
      </trkpt>
      <trkpt lat="43.17787" lon="3.18991">
        <ele>-2.9165554</ele>
        <time>2021-07-20T09:05:21Z</time>
      </trkpt>
      <trkpt lat="43.17787" lon="3.18991">
        <ele>5.9</ele>
        <time>2021-07-20T09:05:22Z</time>
      </trkpt>
      <trkpt lat="43.17787" lon="3.18991">
        <ele>5.9</ele>
        <time>2021-07-20T09:05:23Z</time>
      </trkpt>
      <trkpt lat="43.17787" lon="3.18991">
        <ele>5.9</ele>
        <time>2021-07-20T09:05:24Z</time>
      </trkpt>
      <trkpt lat="43.17787" lon="3.18991">
        <ele>5.9</ele>
        <time>2021-07-20T09:05:25Z</time>
      </trkpt>
      <trkpt lat="43.17787" lon="3.18991">
        <ele>5.9</ele>
        <time>2021-07-20T09:05:26Z</time>
      </trkpt>
      <trkpt lat="43.17787" lon="3.18991">
        <ele>5.9</ele>
        <time>2021-07-20T09:05:27Z</time>
      </trkpt>
      <trkpt lat="43.17787" lon="3.18991">
        <ele>5.9</ele>
        <time>2021-07-20T09:05:28Z</time>
      </trkpt>
      <trkpt lat="43.17787" lon="3.18991">
        <ele>5.9</ele>
        <time>2021-07-20T09:05:29Z</time>
      </trkpt>
      <trkpt lat="43.17787" lon="3.18991">
        <ele>5.9</ele>
        <time>2021-07-20T09:05:30Z</time>
      </trkpt>
      <trkpt lat="43.17787" lon="3.18991">
        <ele>5.9</ele>
        <time>2021-07-20T09:05:31Z</time>
      </trkpt>
      <trkpt lat="43.17787" lon="3.18991">
        <ele>5.9</ele>
        <time>2021-07-20T09:05:32Z</time>
      </trkpt>
      <trkpt lat="43.17787" lon="3.18991">
        <ele>5.9</ele>
        <time>2021-07-20T09:05:33Z</time>
      </trkpt>
      <trkpt lat="43.17787" lon="3.18991">
        <ele>5.9</ele>
        <time>2021-07-20T09:05:34Z</time>
      </trkpt>
      <trkpt lat="43.17787" lon="3.18991">
        <ele>5.9</ele>
        <time>2021-07-20T09:05:35Z</time>
      </trkpt>
      <trkpt lat="43.17787" lon="3.18991">
        <ele>-2.9590929</ele>
        <time>2021-07-20T09:05:36Z</time>
      </trkpt>
      <trkpt lat="43.17787" lon="3.18991">
        <ele>5.9</ele>
        <time>2021-07-20T09:05:37Z</time>
      </trkpt>
      <trkpt lat="43.17787" lon="3.18991">
        <ele>5.9</ele>
        <time>2021-07-20T09:05:38Z</time>
      </trkpt>
      <trkpt lat="43.17787" lon="3.18991">
        <ele>5.9</ele>
        <time>2021-07-20T09:05:39Z</time>
      </trkpt>
      <trkpt lat="43.17787" lon="3.18991">
        <ele>5.9</ele>
        <time>2021-07-20T09:05:40Z</time>
      </trkpt>
      <trkpt lat="43.17787" lon="3.18991">
        <ele>5.9</ele>
        <time>2021-07-20T09:05:41Z</time>
      </trkpt>
      <trkpt lat="43.17787" lon="3.18991">
        <ele>5.9</ele>
        <time>2021-07-20T09:05:42Z</time>
      </trkpt>
      <trkpt lat="43.17787" lon="3.18991">
        <ele>5.9</ele>
        <time>2021-07-20T09:05:43Z</time>
      </trkpt>
      <trkpt lat="43.17787" lon="3.18991">
        <ele>5.9</ele>
        <time>2021-07-20T09:05:44Z</time>
      </trkpt>
      <trkpt lat="43.17787" lon="3.18991">
        <ele>5.9</ele>
        <time>2021-07-20T09:05:45Z</time>
      </trkpt>
      <trkpt lat="43.17787" lon="3.18991">
        <ele>-2.8999555</ele>
        <time>2021-07-20T09:05:46Z</time>
      </trkpt>
      <trkpt lat="43.17787" lon="3.18991">
        <ele>5.9</ele>
        <time>2021-07-20T09:05:47Z</time>
      </trkpt>
      <trkpt lat="43.17787" lon="3.18991">
        <ele>5.9</ele>
        <time>2021-07-20T09:05:48Z</time>
      </trkpt>
      <trkpt lat="43.17787" lon="3.18991">
        <ele>5.9</ele>
        <time>2021-07-20T09:05:49Z</time>
      </trkpt>
      <trkpt lat="43.17787" lon="3.18991">
        <ele>5.9</ele>
        <time>2021-07-20T09:05:50Z</time>
      </trkpt>
      <trkpt lat="43.17787" lon="3.18991">
        <ele>5.9</ele>
        <time>2021-07-20T09:05:51Z</time>
      </trkpt>
      <trkpt lat="43.17787" lon="3.18991">
        <ele>5.9</ele>
        <time>2021-07-20T09:05:52Z</time>
      </trkpt>
      <trkpt lat="43.17787" lon="3.18991">
        <ele>5.9</ele>
        <time>2021-07-20T09:05:53Z</time>
      </trkpt>
      <trkpt lat="43.17787" lon="3.18991">
        <ele>5.9</ele>
        <time>2021-07-20T09:05:54Z</time>
      </trkpt>
      <trkpt lat="43.17787" lon="3.18991">
        <ele>5.9</ele>
        <time>2021-07-20T09:05:55Z</time>
      </trkpt>
      <trkpt lat="43.17787" lon="3.18991">
        <ele>-2.6457663</ele>
        <time>2021-07-20T09:05:56Z</time>
      </trkpt>
      <trkpt lat="43.17787" lon="3.18991">
        <ele>5.9</ele>
        <time>2021-07-20T09:05:57Z</time>
      </trkpt>
      <trkpt lat="43.17787" lon="3.18991">
        <ele>5.9</ele>
        <time>2021-07-20T09:05:58Z</time>
      </trkpt>
      <trkpt lat="43.17787" lon="3.18991">
        <ele>5.9</ele>
        <time>2021-07-20T09:05:59Z</time>
      </trkpt>
      <trkpt lat="43.17787" lon="3.18991">
        <ele>5.9</ele>
        <time>2021-07-20T09:06:00Z</time>
      </trkpt>
      <trkpt lat="43.17787" lon="3.18991">
        <ele>-2.6499162</ele>
        <time>2021-07-20T09:06:01Z</time>
      </trkpt>
      <trkpt lat="43.17787" lon="3.18991">
        <ele>5.9</ele>
        <time>2021-07-20T09:06:02Z</time>
      </trkpt>
      <trkpt lat="43.17787" lon="3.18991">
        <ele>5.9</ele>
        <time>2021-07-20T09:06:03Z</time>
      </trkpt>
      <trkpt lat="43.17787" lon="3.18991">
        <ele>5.9</ele>
        <time>2021-07-20T09:06:04Z</time>
      </trkpt>
      <trkpt lat="43.17787" lon="3.18991">
        <ele>5.9</ele>
        <time>2021-07-20T09:06:05Z</time>
      </trkpt>
      <trkpt lat="43.17787" lon="3.18991">
        <ele>5.9</ele>
        <time>2021-07-20T09:06:06Z</time>
      </trkpt>
      <trkpt lat="43.17787" lon="3.18991">
        <ele>5.9</ele>
        <time>2021-07-20T09:06:07Z</time>
      </trkpt>
      <trkpt lat="43.17787" lon="3.18991">
        <ele>5.9</ele>
        <time>2021-07-20T09:06:08Z</time>
      </trkpt>
      <trkpt lat="43.17787" lon="3.18991">
        <ele>5.9</ele>
        <time>2021-07-20T09:06:09Z</time>
      </trkpt>
      <trkpt lat="43.17787" lon="3.18991">
        <ele>5.9</ele>
        <time>2021-07-20T09:06:10Z</time>
      </trkpt>
      <trkpt lat="43.17787" lon="3.18991">
        <ele>-2.6696289</ele>
        <time>2021-07-20T09:06:11Z</time>
      </trkpt>
      <trkpt lat="43.17787" lon="3.18991">
        <ele>5.9</ele>
        <time>2021-07-20T09:06:12Z</time>
      </trkpt>
      <trkpt lat="43.17787" lon="3.18991">
        <ele>5.9</ele>
        <time>2021-07-20T09:06:13Z</time>
      </trkpt>
      <trkpt lat="43.17787" lon="3.18991">
        <ele>5.9</ele>
        <time>2021-07-20T09:06:14Z</time>
      </trkpt>
      <trkpt lat="43.17787" lon="3.18991">
        <ele>5.9</ele>
        <time>2021-07-20T09:06:15Z</time>
      </trkpt>
      <trkpt lat="43.17787" lon="3.18991">
        <ele>5.9</ele>
        <time>2021-07-20T09:06:16Z</time>
      </trkpt>
      <trkpt lat="43.17787" lon="3.18991">
        <ele>5.9</ele>
        <time>2021-07-20T09:06:17Z</time>
      </trkpt>
      <trkpt lat="43.17787" lon="3.18991">
        <ele>5.9</ele>
        <time>2021-07-20T09:06:18Z</time>
      </trkpt>
      <trkpt lat="43.17787" lon="3.18991">
        <ele>5.9</ele>
        <time>2021-07-20T09:06:19Z</time>
      </trkpt>
      <trkpt lat="43.17787" lon="3.18991">
        <ele>5.9</ele>
        <time>2021-07-20T09:06:20Z</time>
      </trkpt>
      <trkpt lat="43.17787" lon="3.18991">
        <ele>-2.6602914</ele>
        <time>2021-07-20T09:06:21Z</time>
      </trkpt>
      <trkpt lat="43.17787" lon="3.18991">
        <ele>5.9</ele>
        <time>2021-07-20T09:06:22Z</time>
      </trkpt>
      <trkpt lat="43.17787" lon="3.18991">
        <ele>5.9</ele>
        <time>2021-07-20T09:06:23Z</time>
      </trkpt>
      <trkpt lat="43.17787" lon="3.18991">
        <ele>5.9</ele>
        <time>2021-07-20T09:06:24Z</time>
      </trkpt>
      <trkpt lat="43.17787" lon="3.18991">
        <ele>5.9</ele>
        <time>2021-07-20T09:06:25Z</time>
      </trkpt>
      <trkpt lat="43.17787" lon="3.18991">
        <ele>5.9</ele>
        <time>2021-07-20T09:06:26Z</time>
      </trkpt>
      <trkpt lat="43.17787" lon="3.18991">
        <ele>5.9</ele>
        <time>2021-07-20T09:06:27Z</time>
      </trkpt>
      <trkpt lat="43.17787" lon="3.18991">
        <ele>5.9</ele>
        <time>2021-07-20T09:06:28Z</time>
      </trkpt>
      <trkpt lat="43.17787" lon="3.18991">
        <ele>5.9</ele>
        <time>2021-07-20T09:06:29Z</time>
      </trkpt>
      <trkpt lat="43.17787" lon="3.18991">
        <ele>5.9</ele>
        <time>2021-07-20T09:06:30Z</time>
      </trkpt>
      <trkpt lat="43.17787" lon="3.18991">
        <ele>-2.6851916</ele>
        <time>2021-07-20T09:06:31Z</time>
      </trkpt>
      <trkpt lat="43.17787" lon="3.18991">
        <ele>5.9</ele>
        <time>2021-07-20T09:06:32Z</time>
      </trkpt>
      <trkpt lat="43.17787" lon="3.18991">
        <ele>5.9</ele>
        <time>2021-07-20T09:06:33Z</time>
      </trkpt>
      <trkpt lat="43.17787" lon="3.18991">
        <ele>5.9</ele>
        <time>2021-07-20T09:06:34Z</time>
      </trkpt>
      <trkpt lat="43.17787" lon="3.18991">
        <ele>5.9</ele>
        <time>2021-07-20T09:06:35Z</time>
      </trkpt>
      <trkpt lat="43.17787" lon="3.18991">
        <ele>5.9</ele>
        <time>2021-07-20T09:06:36Z</time>
      </trkpt>
      <trkpt lat="43.17787" lon="3.18991">
        <ele>5.9</ele>
        <time>2021-07-20T09:06:37Z</time>
      </trkpt>
      <trkpt lat="43.17787" lon="3.18991">
        <ele>5.9</ele>
        <time>2021-07-20T09:06:38Z</time>
      </trkpt>
      <trkpt lat="43.17787" lon="3.18991">
        <ele>5.9</ele>
        <time>2021-07-20T09:06:39Z</time>
      </trkpt>
      <trkpt lat="43.17787" lon="3.18991">
        <ele>5.9</ele>
        <time>2021-07-20T09:06:40Z</time>
      </trkpt>
      <trkpt lat="43.17787" lon="3.18991">
        <ele>-2.6488788</ele>
        <time>2021-07-20T09:06:41Z</time>
      </trkpt>
      <trkpt lat="43.17787" lon="3.18991">
        <ele>5.9</ele>
        <time>2021-07-20T09:06:42Z</time>
      </trkpt>
      <trkpt lat="43.17787" lon="3.18991">
        <ele>5.9</ele>
        <time>2021-07-20T09:06:43Z</time>
      </trkpt>
      <trkpt lat="43.17787" lon="3.18991">
        <ele>5.9</ele>
        <time>2021-07-20T09:06:44Z</time>
      </trkpt>
      <trkpt lat="43.17787" lon="3.18991">
        <ele>5.9</ele>
        <time>2021-07-20T09:06:45Z</time>
      </trkpt>
      <trkpt lat="43.17787" lon="3.18991">
        <ele>5.9</ele>
        <time>2021-07-20T09:06:46Z</time>
      </trkpt>
      <trkpt lat="43.17787" lon="3.18991">
        <ele>5.9</ele>
        <time>2021-07-20T09:06:54Z</time>
      </trkpt>
      <trkpt lat="43.17787" lon="3.18991">
        <ele>5.9</ele>
        <time>2021-07-20T09:06:55Z</time>
      </trkpt>
      <trkpt lat="43.17787" lon="3.18991">
        <ele>5.9</ele>
        <time>2021-07-20T09:06:56Z</time>
      </trkpt>
      <trkpt lat="43.17787" lon="3.18991">
        <ele>5.9</ele>
        <time>2021-07-20T09:06:57Z</time>
      </trkpt>
      <trkpt lat="43.17787" lon="3.18991">
        <ele>5.9</ele>
        <time>2021-07-20T09:06:58Z</time>
      </trkpt>
      <trkpt lat="43.17787" lon="3.18991">
        <ele>5.9</ele>
        <time>2021-07-20T09:06:59Z</time>
      </trkpt>
      <trkpt lat="43.17787" lon="3.18991">
        <ele>5.9</ele>
        <time>2021-07-20T09:07:00Z</time>
      </trkpt>
      <trkpt lat="43.17787" lon="3.18991">
        <ele>-2.5907779</ele>
        <time>2021-07-20T09:07:01Z</time>
      </trkpt>
      <trkpt lat="43.17787" lon="3.18991">
        <ele>5.9</ele>
        <time>2021-07-20T09:07:02Z</time>
      </trkpt>
      <trkpt lat="43.17787" lon="3.18991">
        <ele>5.9</ele>
        <time>2021-07-20T09:07:03Z</time>
      </trkpt>
      <trkpt lat="43.17787" lon="3.18991">
        <ele>5.9</ele>
        <time>2021-07-20T09:07:04Z</time>
      </trkpt>
      <trkpt lat="43.17787" lon="3.18991">
        <ele>5.9</ele>
        <time>2021-07-20T09:07:05Z</time>
      </trkpt>
      <trkpt lat="43.17787" lon="3.18991">
        <ele>5.9</ele>
        <time>2021-07-20T09:07:06Z</time>
      </trkpt>
      <trkpt lat="43.17787" lon="3.18991">
        <ele>5.9</ele>
        <time>2021-07-20T09:07:07Z</time>
      </trkpt>
      <trkpt lat="43.17787" lon="3.18991">
        <ele>5.9</ele>
        <time>2021-07-20T09:07:08Z</time>
      </trkpt>
      <trkpt lat="43.17787" lon="3.18991">
        <ele>5.9</ele>
        <time>2021-07-20T09:07:09Z</time>
      </trkpt>
      <trkpt lat="43.17787" lon="3.18991">
        <ele>-2.6021907</ele>
        <time>2021-07-20T09:07:10Z</time>
      </trkpt>
      <trkpt lat="43.17787" lon="3.18991">
        <ele>5.9</ele>
        <time>2021-07-20T09:07:11Z</time>
      </trkpt>
      <trkpt lat="43.17787" lon="3.18991">
        <ele>5.9</ele>
        <time>2021-07-20T09:07:12Z</time>
      </trkpt>
      <trkpt lat="43.17787" lon="3.18991">
        <ele>5.9</ele>
        <time>2021-07-20T09:07:13Z</time>
      </trkpt>
      <trkpt lat="43.17787" lon="3.18991">
        <ele>5.9</ele>
        <time>2021-07-20T09:07:14Z</time>
      </trkpt>
      <trkpt lat="43.17787" lon="3.18991">
        <ele>5.9</ele>
        <time>2021-07-20T09:07:15Z</time>
      </trkpt>
      <trkpt lat="43.17787" lon="3.18991">
        <ele>5.9</ele>
        <time>2021-07-20T09:07:16Z</time>
      </trkpt>
      <trkpt lat="43.17787" lon="3.18991">
        <ele>5.9</ele>
        <time>2021-07-20T09:07:17Z</time>
      </trkpt>
      <trkpt lat="43.17787" lon="3.18991">
        <ele>5.9</ele>
        <time>2021-07-20T09:07:18Z</time>
      </trkpt>
      <trkpt lat="43.17787" lon="3.18991">
        <ele>5.9</ele>
        <time>2021-07-20T09:07:19Z</time>
      </trkpt>
      <trkpt lat="43.17787" lon="3.18991">
        <ele>-2.566915</ele>
        <time>2021-07-20T09:07:20Z</time>
      </trkpt>
      <trkpt lat="43.17787" lon="3.18991">
        <ele>5.9</ele>
        <time>2021-07-20T09:07:21Z</time>
      </trkpt>
      <trkpt lat="43.17787" lon="3.18991">
        <ele>5.9</ele>
        <time>2021-07-20T09:07:22Z</time>
      </trkpt>
      <trkpt lat="43.17787" lon="3.18991">
        <ele>5.9</ele>
        <time>2021-07-20T09:07:23Z</time>
      </trkpt>
      <trkpt lat="43.17787" lon="3.18991">
        <ele>5.9</ele>
        <time>2021-07-20T09:07:24Z</time>
      </trkpt>
      <trkpt lat="43.17787" lon="3.18991">
        <ele>5.9</ele>
        <time>2021-07-20T09:07:25Z</time>
      </trkpt>
      <trkpt lat="43.17787" lon="3.18991">
        <ele>5.9</ele>
        <time>2021-07-20T09:07:26Z</time>
      </trkpt>
      <trkpt lat="43.17787" lon="3.18991">
        <ele>5.9</ele>
        <time>2021-07-20T09:07:27Z</time>
      </trkpt>
      <trkpt lat="43.17787" lon="3.18991">
        <ele>5.9</ele>
        <time>2021-07-20T09:07:28Z</time>
      </trkpt>
      <trkpt lat="43.17787" lon="3.18991">
        <ele>5.9</ele>
        <time>2021-07-20T09:07:29Z</time>
      </trkpt>
      <trkpt lat="43.17787" lon="3.18991">
        <ele>-2.6156783</ele>
        <time>2021-07-20T09:07:30Z</time>
      </trkpt>
      <trkpt lat="43.17787" lon="3.18991">
        <ele>5.9</ele>
        <time>2021-07-20T09:07:31Z</time>
      </trkpt>
      <trkpt lat="43.17787" lon="3.18991">
        <ele>5.9</ele>
        <time>2021-07-20T09:07:32Z</time>
      </trkpt>
      <trkpt lat="43.17787" lon="3.18991">
        <ele>5.9</ele>
        <time>2021-07-20T09:07:33Z</time>
      </trkpt>
      <trkpt lat="43.17787" lon="3.18991">
        <ele>5.9</ele>
        <time>2021-07-20T09:07:34Z</time>
      </trkpt>
      <trkpt lat="43.17787" lon="3.18991">
        <ele>5.9</ele>
        <time>2021-07-20T09:07:35Z</time>
      </trkpt>
      <trkpt lat="43.17787" lon="3.18991">
        <ele>5.9</ele>
        <time>2021-07-20T09:07:36Z</time>
      </trkpt>
      <trkpt lat="43.17787" lon="3.18991">
        <ele>5.9</ele>
        <time>2021-07-20T09:07:37Z</time>
      </trkpt>
      <trkpt lat="43.17787" lon="3.18991">
        <ele>5.9</ele>
        <time>2021-07-20T09:07:38Z</time>
      </trkpt>
      <trkpt lat="43.17787" lon="3.18991">
        <ele>5.9</ele>
        <time>2021-07-20T09:07:39Z</time>
      </trkpt>
      <trkpt lat="43.17787" lon="3.18991">
        <ele>-2.8563802</ele>
        <time>2021-07-20T09:07:40Z</time>
      </trkpt>
      <trkpt lat="43.17787" lon="3.18991">
        <ele>5.9</ele>
        <time>2021-07-20T09:07:41Z</time>
      </trkpt>
      <trkpt lat="43.17787" lon="3.18991">
        <ele>5.9</ele>
        <time>2021-07-20T09:07:42Z</time>
      </trkpt>
      <trkpt lat="43.17787" lon="3.18991">
        <ele>5.9</ele>
        <time>2021-07-20T09:07:43Z</time>
      </trkpt>
      <trkpt lat="43.17787" lon="3.18991">
        <ele>5.9</ele>
        <time>2021-07-20T09:07:44Z</time>
      </trkpt>
      <trkpt lat="43.17787" lon="3.18991">
        <ele>5.9</ele>
        <time>2021-07-20T09:07:45Z</time>
      </trkpt>
      <trkpt lat="43.17787" lon="3.18991">
        <ele>5.9</ele>
        <time>2021-07-20T09:07:46Z</time>
      </trkpt>
      <trkpt lat="43.17787" lon="3.18991">
        <ele>5.9</ele>
        <time>2021-07-20T09:07:47Z</time>
      </trkpt>
      <trkpt lat="43.17787" lon="3.18991">
        <ele>5.9</ele>
        <time>2021-07-20T09:07:48Z</time>
      </trkpt>
      <trkpt lat="43.17787" lon="3.18991">
        <ele>5.9</ele>
        <time>2021-07-20T09:07:49Z</time>
      </trkpt>
      <trkpt lat="43.17787" lon="3.18991">
        <ele>5.9</ele>
        <time>2021-07-20T09:07:50Z</time>
      </trkpt>
      <trkpt lat="43.17787" lon="3.18991">
        <ele>-2.9497554</ele>
        <time>2021-07-20T09:07:51Z</time>
      </trkpt>
      <trkpt lat="43.17787" lon="3.18991">
        <ele>5.9</ele>
        <time>2021-07-20T09:07:52Z</time>
      </trkpt>
      <trkpt lat="43.17787" lon="3.18991">
        <ele>5.9</ele>
        <time>2021-07-20T09:07:53Z</time>
      </trkpt>
      <trkpt lat="43.17787" lon="3.18991">
        <ele>5.9</ele>
        <time>2021-07-20T09:07:54Z</time>
      </trkpt>
      <trkpt lat="43.17787" lon="3.18991">
        <ele>5.9</ele>
        <time>2021-07-20T09:07:55Z</time>
      </trkpt>
      <trkpt lat="43.17788" lon="3.18992">
        <ele>5.9</ele>
        <time>2021-07-20T09:07:56Z</time>
      </trkpt>
      <trkpt lat="43.17789" lon="3.18992">
        <ele>5.9</ele>
        <time>2021-07-20T09:07:57Z</time>
      </trkpt>
      <trkpt lat="43.17789" lon="3.18992">
        <ele>5.9</ele>
        <time>2021-07-20T09:07:58Z</time>
      </trkpt>
      <trkpt lat="43.17789" lon="3.18992">
        <ele>5.9</ele>
        <time>2021-07-20T09:07:59Z</time>
      </trkpt>
      <trkpt lat="43.17789" lon="3.18992">
        <ele>5.9</ele>
        <time>2021-07-20T09:08:00Z</time>
      </trkpt>
      <trkpt lat="43.17789" lon="3.18992">
        <ele>-2.9746554</ele>
        <time>2021-07-20T09:08:01Z</time>
      </trkpt>
      <trkpt lat="43.1779" lon="3.18991">
        <ele>5.9</ele>
        <time>2021-07-20T09:08:02Z</time>
      </trkpt>
      <trkpt lat="43.1779" lon="3.18991">
        <ele>5.9</ele>
        <time>2021-07-20T09:08:03Z</time>
      </trkpt>
      <trkpt lat="43.1779" lon="3.18991">
        <ele>5.9</ele>
        <time>2021-07-20T09:08:04Z</time>
      </trkpt>
      <trkpt lat="43.1779" lon="3.18991">
        <ele>5.9</ele>
        <time>2021-07-20T09:08:05Z</time>
      </trkpt>
      <trkpt lat="43.1779" lon="3.18991">
        <ele>5.9</ele>
        <time>2021-07-20T09:08:06Z</time>
      </trkpt>
      <trkpt lat="43.1779" lon="3.18991">
        <ele>5.9</ele>
        <time>2021-07-20T09:08:07Z</time>
      </trkpt>
      <trkpt lat="43.1779" lon="3.18991">
        <ele>5.9</ele>
        <time>2021-07-20T09:08:08Z</time>
      </trkpt>
      <trkpt lat="43.1779" lon="3.18991">
        <ele>5.9</ele>
        <time>2021-07-20T09:08:09Z</time>
      </trkpt>
      <trkpt lat="43.1779" lon="3.18991">
        <ele>5.9</ele>
        <time>2021-07-20T09:08:10Z</time>
      </trkpt>
      <trkpt lat="43.1779" lon="3.18991">
        <ele>-2.9642804</ele>
        <time>2021-07-20T09:08:11Z</time>
      </trkpt>
      <trkpt lat="43.1779" lon="3.18991">
        <ele>5.9</ele>
        <time>2021-07-20T09:08:12Z</time>
      </trkpt>
      <trkpt lat="43.17788" lon="3.18992">
        <ele>5.9</ele>
        <time>2021-07-20T09:08:13Z</time>
      </trkpt>
      <trkpt lat="43.17788" lon="3.18992">
        <ele>5.9</ele>
        <time>2021-07-20T09:08:14Z</time>
      </trkpt>
      <trkpt lat="43.17788" lon="3.18992">
        <ele>5.9</ele>
        <time>2021-07-20T09:08:15Z</time>
      </trkpt>
      <trkpt lat="43.17788" lon="3.18992">
        <ele>5.9</ele>
        <time>2021-07-20T09:08:16Z</time>
      </trkpt>
      <trkpt lat="43.17788" lon="3.18992">
        <ele>5.9</ele>
        <time>2021-07-20T09:08:17Z</time>
      </trkpt>
      <trkpt lat="43.17788" lon="3.18992">
        <ele>5.9</ele>
        <time>2021-07-20T09:08:18Z</time>
      </trkpt>
      <trkpt lat="43.17788" lon="3.18992">
        <ele>5.9</ele>
        <time>2021-07-20T09:08:19Z</time>
      </trkpt>
      <trkpt lat="43.17788" lon="3.18992">
        <ele>5.9</ele>
        <time>2021-07-20T09:08:20Z</time>
      </trkpt>
      <trkpt lat="43.17788" lon="3.18992">
        <ele>-3.03483</ele>
        <time>2021-07-20T09:08:21Z</time>
      </trkpt>
      <trkpt lat="43.17788" lon="3.18992">
        <ele>5.9</ele>
        <time>2021-07-20T09:08:22Z</time>
      </trkpt>
      <trkpt lat="43.17788" lon="3.18992">
        <ele>5.9</ele>
        <time>2021-07-20T09:08:23Z</time>
      </trkpt>
      <trkpt lat="43.17788" lon="3.18992">
        <ele>5.9</ele>
        <time>2021-07-20T09:08:24Z</time>
      </trkpt>
      <trkpt lat="43.17788" lon="3.18992">
        <ele>5.9</ele>
        <time>2021-07-20T09:08:25Z</time>
      </trkpt>
      <trkpt lat="43.17788" lon="3.18992">
        <ele>5.9</ele>
        <time>2021-07-20T09:08:26Z</time>
      </trkpt>
      <trkpt lat="43.17788" lon="3.18992">
        <ele>5.9</ele>
        <time>2021-07-20T09:08:27Z</time>
      </trkpt>
      <trkpt lat="43.17788" lon="3.18992">
        <ele>5.9</ele>
        <time>2021-07-20T09:08:28Z</time>
      </trkpt>
      <trkpt lat="43.17788" lon="3.18992">
        <ele>5.9</ele>
        <time>2021-07-20T09:08:29Z</time>
      </trkpt>
      <trkpt lat="43.17785" lon="3.18995">
        <ele>6</ele>
        <time>2021-07-20T09:08:30Z</time>
      </trkpt>
      <trkpt lat="43.17785" lon="3.18996">
        <ele>-3.1033049</ele>
        <time>2021-07-20T09:08:31Z</time>
      </trkpt>
      <trkpt lat="43.17783" lon="3.18998">
        <ele>6</ele>
        <time>2021-07-20T09:08:32Z</time>
      </trkpt>
      <trkpt lat="43.17782" lon="3.19">
        <ele>6</ele>
        <time>2021-07-20T09:08:33Z</time>
      </trkpt>
      <trkpt lat="43.1778" lon="3.19002">
        <ele>5.9</ele>
        <time>2021-07-20T09:08:34Z</time>
      </trkpt>
      <trkpt lat="43.17778" lon="3.19003">
        <ele>5.9</ele>
        <time>2021-07-20T09:08:35Z</time>
      </trkpt>
      <trkpt lat="43.17775" lon="3.19003">
        <ele>5.9</ele>
        <time>2021-07-20T09:08:36Z</time>
      </trkpt>
      <trkpt lat="43.17773" lon="3.19002">
        <ele>5.9</ele>
        <time>2021-07-20T09:08:37Z</time>
      </trkpt>
      <trkpt lat="43.1777" lon="3.19">
        <ele>6</ele>
        <time>2021-07-20T09:08:38Z</time>
      </trkpt>
      <trkpt lat="43.17768" lon="3.18999">
        <ele>6</ele>
        <time>2021-07-20T09:08:39Z</time>
      </trkpt>
      <trkpt lat="43.17766" lon="3.18998">
        <ele>6</ele>
        <time>2021-07-20T09:08:40Z</time>
      </trkpt>
      <trkpt lat="43.17763" lon="3.18998">
        <ele>-2.9030678</ele>
        <time>2021-07-20T09:08:41Z</time>
      </trkpt>
      <trkpt lat="43.17761" lon="3.18998">
        <ele>6</ele>
        <time>2021-07-20T09:08:42Z</time>
      </trkpt>
      <trkpt lat="43.17758" lon="3.18998">
        <ele>6</ele>
        <time>2021-07-20T09:08:43Z</time>
      </trkpt>
      <trkpt lat="43.17755" lon="3.19">
        <ele>6</ele>
        <time>2021-07-20T09:08:44Z</time>
      </trkpt>
      <trkpt lat="43.17753" lon="3.19002">
        <ele>5.9</ele>
        <time>2021-07-20T09:08:45Z</time>
      </trkpt>
      <trkpt lat="43.17751" lon="3.19005">
        <ele>5.7</ele>
        <time>2021-07-20T09:08:46Z</time>
      </trkpt>
      <trkpt lat="43.17749" lon="3.19008">
        <ele>1</ele>
        <time>2021-07-20T09:08:47Z</time>
      </trkpt>
      <trkpt lat="43.17747" lon="3.19011">
        <ele>1</ele>
        <time>2021-07-20T09:08:48Z</time>
      </trkpt>
      <trkpt lat="43.17745" lon="3.19013">
        <ele>1</ele>
        <time>2021-07-20T09:08:49Z</time>
      </trkpt>
      <trkpt lat="43.17744" lon="3.19016">
        <ele>-2.7598922</ele>
        <time>2021-07-20T09:08:50Z</time>
      </trkpt>
      <trkpt lat="43.17742" lon="3.19018">
        <ele>1</ele>
        <time>2021-07-20T09:08:51Z</time>
      </trkpt>
      <trkpt lat="43.1774" lon="3.19019">
        <ele>1</ele>
        <time>2021-07-20T09:08:52Z</time>
      </trkpt>
      <trkpt lat="43.17738" lon="3.19021">
        <ele>1</ele>
        <time>2021-07-20T09:08:53Z</time>
      </trkpt>
      <trkpt lat="43.17735" lon="3.19021">
        <ele>1</ele>
        <time>2021-07-20T09:08:54Z</time>
      </trkpt>
      <trkpt lat="43.17733" lon="3.19021">
        <ele>1</ele>
        <time>2021-07-20T09:08:55Z</time>
      </trkpt>
      <trkpt lat="43.1773" lon="3.19021">
        <ele>1</ele>
        <time>2021-07-20T09:08:56Z</time>
      </trkpt>
      <trkpt lat="43.17728" lon="3.19022">
        <ele>1</ele>
        <time>2021-07-20T09:08:57Z</time>
      </trkpt>
      <trkpt lat="43.17727" lon="3.19023">
        <ele>1</ele>
        <time>2021-07-20T09:08:58Z</time>
      </trkpt>
      <trkpt lat="43.17726" lon="3.19026">
        <ele>1</ele>
        <time>2021-07-20T09:08:59Z</time>
      </trkpt>
      <trkpt lat="43.17726" lon="3.19028">
        <ele>-2.863643</ele>
        <time>2021-07-20T09:09:00Z</time>
      </trkpt>
      <trkpt lat="43.17727" lon="3.19031">
        <ele>1</ele>
        <time>2021-07-20T09:09:01Z</time>
      </trkpt>
      <trkpt lat="43.17729" lon="3.19034">
        <ele>1</ele>
        <time>2021-07-20T09:09:02Z</time>
      </trkpt>
      <trkpt lat="43.1773" lon="3.19036">
        <ele>1</ele>
        <time>2021-07-20T09:09:03Z</time>
      </trkpt>
      <trkpt lat="43.1773" lon="3.19039">
        <ele>1</ele>
        <time>2021-07-20T09:09:04Z</time>
      </trkpt>
      <trkpt lat="43.17731" lon="3.19041">
        <ele>1</ele>
        <time>2021-07-20T09:09:05Z</time>
      </trkpt>
      <trkpt lat="43.17732" lon="3.19042">
        <ele>1</ele>
        <time>2021-07-20T09:09:06Z</time>
      </trkpt>
      <trkpt lat="43.17732" lon="3.19044">
        <ele>1</ele>
        <time>2021-07-20T09:09:07Z</time>
      </trkpt>
      <trkpt lat="43.17732" lon="3.19044">
        <ele>1</ele>
        <time>2021-07-20T09:09:08Z</time>
      </trkpt>
      <trkpt lat="43.17732" lon="3.19044">
        <ele>1</ele>
        <time>2021-07-20T09:09:09Z</time>
      </trkpt>
      <trkpt lat="43.17732" lon="3.19044">
        <ele>-2.9767303</ele>
        <time>2021-07-20T09:09:10Z</time>
      </trkpt>
      <trkpt lat="43.17732" lon="3.19044">
        <ele>1</ele>
        <time>2021-07-20T09:09:11Z</time>
      </trkpt>
      <trkpt lat="43.17732" lon="3.19044">
        <ele>1</ele>
        <time>2021-07-20T09:09:12Z</time>
      </trkpt>
      <trkpt lat="43.17732" lon="3.19044">
        <ele>1</ele>
        <time>2021-07-20T09:09:13Z</time>
      </trkpt>
      <trkpt lat="43.17732" lon="3.19044">
        <ele>1</ele>
        <time>2021-07-20T09:09:14Z</time>
      </trkpt>
      <trkpt lat="43.17732" lon="3.19044">
        <ele>1</ele>
        <time>2021-07-20T09:09:15Z</time>
      </trkpt>
      <trkpt lat="43.17732" lon="3.19044">
        <ele>1</ele>
        <time>2021-07-20T09:09:16Z</time>
      </trkpt>
      <trkpt lat="43.17732" lon="3.19044">
        <ele>1</ele>
        <time>2021-07-20T09:09:17Z</time>
      </trkpt>
      <trkpt lat="43.17732" lon="3.19044">
        <ele>1</ele>
        <time>2021-07-20T09:09:18Z</time>
      </trkpt>
      <trkpt lat="43.17732" lon="3.19044">
        <ele>1</ele>
        <time>2021-07-20T09:09:19Z</time>
      </trkpt>
      <trkpt lat="43.17732" lon="3.19044">
        <ele>-2.909293</ele>
        <time>2021-07-20T09:09:20Z</time>
      </trkpt>
      <trkpt lat="43.17732" lon="3.19044">
        <ele>1</ele>
        <time>2021-07-20T09:09:21Z</time>
      </trkpt>
      <trkpt lat="43.17732" lon="3.19044">
        <ele>1</ele>
        <time>2021-07-20T09:09:22Z</time>
      </trkpt>
      <trkpt lat="43.17732" lon="3.19044">
        <ele>1</ele>
        <time>2021-07-20T09:09:23Z</time>
      </trkpt>
      <trkpt lat="43.17732" lon="3.19044">
        <ele>1</ele>
        <time>2021-07-20T09:09:24Z</time>
      </trkpt>
      <trkpt lat="43.17732" lon="3.19044">
        <ele>1</ele>
        <time>2021-07-20T09:09:25Z</time>
      </trkpt>
      <trkpt lat="43.17732" lon="3.19044">
        <ele>1</ele>
        <time>2021-07-20T09:09:26Z</time>
      </trkpt>
      <trkpt lat="43.17732" lon="3.19044">
        <ele>1</ele>
        <time>2021-07-20T09:09:27Z</time>
      </trkpt>
      <trkpt lat="43.17732" lon="3.19044">
        <ele>1</ele>
        <time>2021-07-20T09:09:28Z</time>
      </trkpt>
      <trkpt lat="43.17732" lon="3.19044">
        <ele>1</ele>
        <time>2021-07-20T09:09:29Z</time>
      </trkpt>
      <trkpt lat="43.17732" lon="3.19044">
        <ele>1</ele>
        <time>2021-07-20T09:09:30Z</time>
      </trkpt>
      <trkpt lat="43.17732" lon="3.19044">
        <ele>-2.5264518</ele>
        <time>2021-07-20T09:09:31Z</time>
      </trkpt>
      <trkpt lat="43.17732" lon="3.19044">
        <ele>1</ele>
        <time>2021-07-20T09:09:32Z</time>
      </trkpt>
      <trkpt lat="43.17732" lon="3.19044">
        <ele>1</ele>
        <time>2021-07-20T09:09:33Z</time>
      </trkpt>
      <trkpt lat="43.17732" lon="3.19044">
        <ele>1</ele>
        <time>2021-07-20T09:09:34Z</time>
      </trkpt>
      <trkpt lat="43.17732" lon="3.19044">
        <ele>1</ele>
        <time>2021-07-20T09:09:35Z</time>
      </trkpt>
      <trkpt lat="43.17732" lon="3.19044">
        <ele>1</ele>
        <time>2021-07-20T09:09:36Z</time>
      </trkpt>
      <trkpt lat="43.17732" lon="3.19044">
        <ele>1</ele>
        <time>2021-07-20T09:09:37Z</time>
      </trkpt>
      <trkpt lat="43.17732" lon="3.19044">
        <ele>1</ele>
        <time>2021-07-20T09:09:38Z</time>
      </trkpt>
      <trkpt lat="43.17732" lon="3.19044">
        <ele>1</ele>
        <time>2021-07-20T09:09:39Z</time>
      </trkpt>
      <trkpt lat="43.17732" lon="3.19044">
        <ele>1</ele>
        <time>2021-07-20T09:09:40Z</time>
      </trkpt>
      <trkpt lat="43.17732" lon="3.19044">
        <ele>-2.5793653</ele>
        <time>2021-07-20T09:09:41Z</time>
      </trkpt>
      <trkpt lat="43.17732" lon="3.19044">
        <ele>1</ele>
        <time>2021-07-20T09:09:42Z</time>
      </trkpt>
      <trkpt lat="43.17732" lon="3.19044">
        <ele>1</ele>
        <time>2021-07-20T09:09:43Z</time>
      </trkpt>
      <trkpt lat="43.17732" lon="3.19044">
        <ele>1</ele>
        <time>2021-07-20T09:09:44Z</time>
      </trkpt>
      <trkpt lat="43.17732" lon="3.19044">
        <ele>1</ele>
        <time>2021-07-20T09:09:45Z</time>
      </trkpt>
      <trkpt lat="43.17732" lon="3.19044">
        <ele>1</ele>
        <time>2021-07-20T09:09:46Z</time>
      </trkpt>
      <trkpt lat="43.17732" lon="3.19044">
        <ele>1</ele>
        <time>2021-07-20T09:09:47Z</time>
      </trkpt>
      <trkpt lat="43.17732" lon="3.19044">
        <ele>1</ele>
        <time>2021-07-20T09:09:48Z</time>
      </trkpt>
      <trkpt lat="43.17732" lon="3.19044">
        <ele>1</ele>
        <time>2021-07-20T09:09:49Z</time>
      </trkpt>
      <trkpt lat="43.17732" lon="3.19044">
        <ele>1</ele>
        <time>2021-07-20T09:09:50Z</time>
      </trkpt>
      <trkpt lat="43.17732" lon="3.19044">
        <ele>-2.5762527</ele>
        <time>2021-07-20T09:09:51Z</time>
      </trkpt>
      <trkpt lat="43.17732" lon="3.19044">
        <ele>1</ele>
        <time>2021-07-20T09:09:52Z</time>
      </trkpt>
      <trkpt lat="43.17732" lon="3.19044">
        <ele>1</ele>
        <time>2021-07-20T09:09:53Z</time>
      </trkpt>
      <trkpt lat="43.17732" lon="3.19044">
        <ele>1</ele>
        <time>2021-07-20T09:09:54Z</time>
      </trkpt>
      <trkpt lat="43.17732" lon="3.19044">
        <ele>1</ele>
        <time>2021-07-20T09:09:55Z</time>
      </trkpt>
      <trkpt lat="43.17732" lon="3.19044">
        <ele>1</ele>
        <time>2021-07-20T09:09:56Z</time>
      </trkpt>
      <trkpt lat="43.17732" lon="3.19044">
        <ele>1</ele>
        <time>2021-07-20T09:09:57Z</time>
      </trkpt>
      <trkpt lat="43.17732" lon="3.19044">
        <ele>1</ele>
        <time>2021-07-20T09:09:58Z</time>
      </trkpt>
      <trkpt lat="43.17732" lon="3.19044">
        <ele>1</ele>
        <time>2021-07-20T09:09:59Z</time>
      </trkpt>
      <trkpt lat="43.17732" lon="3.19044">
        <ele>1</ele>
        <time>2021-07-20T09:10:00Z</time>
      </trkpt>
      <trkpt lat="43.17732" lon="3.19044">
        <ele>-2.726692</ele>
        <time>2021-07-20T09:10:01Z</time>
      </trkpt>
      <trkpt lat="43.17732" lon="3.19044">
        <ele>1</ele>
        <time>2021-07-20T09:10:02Z</time>
      </trkpt>
      <trkpt lat="43.17732" lon="3.19044">
        <ele>1</ele>
        <time>2021-07-20T09:10:03Z</time>
      </trkpt>
      <trkpt lat="43.17732" lon="3.19044">
        <ele>1</ele>
        <time>2021-07-20T09:10:04Z</time>
      </trkpt>
      <trkpt lat="43.17732" lon="3.19044">
        <ele>1</ele>
        <time>2021-07-20T09:10:05Z</time>
      </trkpt>
      <trkpt lat="43.17732" lon="3.19044">
        <ele>1</ele>
        <time>2021-07-20T09:10:06Z</time>
      </trkpt>
      <trkpt lat="43.17732" lon="3.19044">
        <ele>1</ele>
        <time>2021-07-20T09:10:07Z</time>
      </trkpt>
      <trkpt lat="43.17732" lon="3.19044">
        <ele>1</ele>
        <time>2021-07-20T09:10:08Z</time>
      </trkpt>
      <trkpt lat="43.17732" lon="3.19044">
        <ele>1</ele>
        <time>2021-07-20T09:10:09Z</time>
      </trkpt>
      <trkpt lat="43.17732" lon="3.19044">
        <ele>1</ele>
        <time>2021-07-20T09:10:10Z</time>
      </trkpt>
      <trkpt lat="43.17732" lon="3.19044">
        <ele>-2.79828</ele>
        <time>2021-07-20T09:10:11Z</time>
      </trkpt>
      <trkpt lat="43.17732" lon="3.19044">
        <ele>1</ele>
        <time>2021-07-20T09:10:12Z</time>
      </trkpt>
      <trkpt lat="43.17732" lon="3.19044">
        <ele>1</ele>
        <time>2021-07-20T09:10:13Z</time>
      </trkpt>
      <trkpt lat="43.17732" lon="3.19044">
        <ele>1</ele>
        <time>2021-07-20T09:10:14Z</time>
      </trkpt>
      <trkpt lat="43.17732" lon="3.19044">
        <ele>1</ele>
        <time>2021-07-20T09:10:15Z</time>
      </trkpt>
      <trkpt lat="43.17732" lon="3.19044">
        <ele>1</ele>
        <time>2021-07-20T09:10:16Z</time>
      </trkpt>
      <trkpt lat="43.17732" lon="3.19044">
        <ele>1</ele>
        <time>2021-07-20T09:10:17Z</time>
      </trkpt>
      <trkpt lat="43.17732" lon="3.19044">
        <ele>1</ele>
        <time>2021-07-20T09:10:18Z</time>
      </trkpt>
      <trkpt lat="43.17732" lon="3.19044">
        <ele>1</ele>
        <time>2021-07-20T09:10:19Z</time>
      </trkpt>
      <trkpt lat="43.17732" lon="3.19044">
        <ele>1</ele>
        <time>2021-07-20T09:10:20Z</time>
      </trkpt>
      <trkpt lat="43.17732" lon="3.19044">
        <ele>-2.5793653</ele>
        <time>2021-07-20T09:10:21Z</time>
      </trkpt>
      <trkpt lat="43.17732" lon="3.19044">
        <ele>1</ele>
        <time>2021-07-20T09:10:22Z</time>
      </trkpt>
      <trkpt lat="43.17732" lon="3.19044">
        <ele>1</ele>
        <time>2021-07-20T09:10:23Z</time>
      </trkpt>
      <trkpt lat="43.17732" lon="3.19044">
        <ele>1</ele>
        <time>2021-07-20T09:10:24Z</time>
      </trkpt>
      <trkpt lat="43.17732" lon="3.19044">
        <ele>1</ele>
        <time>2021-07-20T09:10:25Z</time>
      </trkpt>
      <trkpt lat="43.17732" lon="3.19044">
        <ele>1</ele>
        <time>2021-07-20T09:10:26Z</time>
      </trkpt>
      <trkpt lat="43.17732" lon="3.19044">
        <ele>1</ele>
        <time>2021-07-20T09:10:27Z</time>
      </trkpt>
      <trkpt lat="43.17732" lon="3.19044">
        <ele>1</ele>
        <time>2021-07-20T09:10:28Z</time>
      </trkpt>
      <trkpt lat="43.17732" lon="3.19044">
        <ele>1</ele>
        <time>2021-07-20T09:10:29Z</time>
      </trkpt>
      <trkpt lat="43.17732" lon="3.19044">
        <ele>-2.9103303</ele>
        <time>2021-07-20T09:10:30Z</time>
      </trkpt>
      <trkpt lat="43.17732" lon="3.19044">
        <ele>1</ele>
        <time>2021-07-20T09:10:31Z</time>
      </trkpt>
      <trkpt lat="43.17732" lon="3.19044">
        <ele>1</ele>
        <time>2021-07-20T09:10:32Z</time>
      </trkpt>
      <trkpt lat="43.17732" lon="3.19044">
        <ele>1</ele>
        <time>2021-07-20T09:10:33Z</time>
      </trkpt>
      <trkpt lat="43.17735" lon="3.19042">
        <ele>1</ele>
        <time>2021-07-20T09:10:34Z</time>
      </trkpt>
      <trkpt lat="43.17735" lon="3.19043">
        <ele>1</ele>
        <time>2021-07-20T09:10:35Z</time>
      </trkpt>
      <trkpt lat="43.17735" lon="3.19043">
        <ele>1</ele>
        <time>2021-07-20T09:10:36Z</time>
      </trkpt>
      <trkpt lat="43.17735" lon="3.19044">
        <ele>1</ele>
        <time>2021-07-20T09:10:37Z</time>
      </trkpt>
      <trkpt lat="43.17735" lon="3.19044">
        <ele>1</ele>
        <time>2021-07-20T09:10:38Z</time>
      </trkpt>
      <trkpt lat="43.17735" lon="3.19044">
        <ele>1</ele>
        <time>2021-07-20T09:10:39Z</time>
      </trkpt>
      <trkpt lat="43.17735" lon="3.19044">
        <ele>-3.0483177</ele>
        <time>2021-07-20T09:10:40Z</time>
      </trkpt>
      <trkpt lat="43.17736" lon="3.19045">
        <ele>1</ele>
        <time>2021-07-20T09:10:41Z</time>
      </trkpt>
      <trkpt lat="43.17737" lon="3.19046">
        <ele>1</ele>
        <time>2021-07-20T09:10:42Z</time>
      </trkpt>
      <trkpt lat="43.17738" lon="3.19048">
        <ele>1</ele>
        <time>2021-07-20T09:10:43Z</time>
      </trkpt>
      <trkpt lat="43.1774" lon="3.19049">
        <ele>1</ele>
        <time>2021-07-20T09:10:44Z</time>
      </trkpt>
      <trkpt lat="43.17741" lon="3.19051">
        <ele>1</ele>
        <time>2021-07-20T09:10:45Z</time>
      </trkpt>
      <trkpt lat="43.17743" lon="3.19054">
        <ele>1</ele>
        <time>2021-07-20T09:10:46Z</time>
      </trkpt>
      <trkpt lat="43.17744" lon="3.19056">
        <ele>1</ele>
        <time>2021-07-20T09:10:47Z</time>
      </trkpt>
      <trkpt lat="43.17747" lon="3.19058">
        <ele>1</ele>
        <time>2021-07-20T09:10:48Z</time>
      </trkpt>
      <trkpt lat="43.1775" lon="3.1906">
        <ele>1</ele>
        <time>2021-07-20T09:10:49Z</time>
      </trkpt>
      <trkpt lat="43.17753" lon="3.19063">
        <ele>-3.1116047</ele>
        <time>2021-07-20T09:10:50Z</time>
      </trkpt>
      <trkpt lat="43.17755" lon="3.19065">
        <ele>2.3</ele>
        <time>2021-07-20T09:10:51Z</time>
      </trkpt>
      <trkpt lat="43.17758" lon="3.19067">
        <ele>2.3</ele>
        <time>2021-07-20T09:10:52Z</time>
      </trkpt>
      <trkpt lat="43.17761" lon="3.19069">
        <ele>2.3</ele>
        <time>2021-07-20T09:10:53Z</time>
      </trkpt>
      <trkpt lat="43.17763" lon="3.19072">
        <ele>2.2</ele>
        <time>2021-07-20T09:10:54Z</time>
      </trkpt>
      <trkpt lat="43.17766" lon="3.19074">
        <ele>2.2</ele>
        <time>2021-07-20T09:10:55Z</time>
      </trkpt>
      <trkpt lat="43.17768" lon="3.19076">
        <ele>2.2</ele>
        <time>2021-07-20T09:10:56Z</time>
      </trkpt>
      <trkpt lat="43.1777" lon="3.19078">
        <ele>2.2</ele>
        <time>2021-07-20T09:10:57Z</time>
      </trkpt>
      <trkpt lat="43.17773" lon="3.19081">
        <ele>2.2</ele>
        <time>2021-07-20T09:10:58Z</time>
      </trkpt>
      <trkpt lat="43.17776" lon="3.19082">
        <ele>2.3</ele>
        <time>2021-07-20T09:10:59Z</time>
      </trkpt>
      <trkpt lat="43.17778" lon="3.19084">
        <ele>-3.0607677</ele>
        <time>2021-07-20T09:11:00Z</time>
      </trkpt>
      <trkpt lat="43.1778" lon="3.19086">
        <ele>2.42</ele>
        <time>2021-07-20T09:11:01Z</time>
      </trkpt>
      <trkpt lat="43.17781" lon="3.19088">
        <ele>2.51</ele>
        <time>2021-07-20T09:11:02Z</time>
      </trkpt>
      <trkpt lat="43.17783" lon="3.1909">
        <ele>2.6</ele>
        <time>2021-07-20T09:11:03Z</time>
      </trkpt>
      <trkpt lat="43.17785" lon="3.19092">
        <ele>2.69</ele>
        <time>2021-07-20T09:11:04Z</time>
      </trkpt>
      <trkpt lat="43.17787" lon="3.19094">
        <ele>2.78</ele>
        <time>2021-07-20T09:11:05Z</time>
      </trkpt>
      <trkpt lat="43.17789" lon="3.19096">
        <ele>2.87</ele>
        <time>2021-07-20T09:11:06Z</time>
      </trkpt>
      <trkpt lat="43.17791" lon="3.19098">
        <ele>2.97</ele>
        <time>2021-07-20T09:11:07Z</time>
      </trkpt>
      <trkpt lat="43.17793" lon="3.191">
        <ele>3.06</ele>
        <time>2021-07-20T09:11:08Z</time>
      </trkpt>
      <trkpt lat="43.17795" lon="3.19102">
        <ele>3.15</ele>
        <time>2021-07-20T09:11:09Z</time>
      </trkpt>
      <trkpt lat="43.17796" lon="3.19104">
        <ele>3.21</ele>
        <time>2021-07-20T09:11:10Z</time>
      </trkpt>
      <trkpt lat="43.17798" lon="3.19106">
        <ele>-3.1717792</ele>
        <time>2021-07-20T09:11:11Z</time>
      </trkpt>
      <trkpt lat="43.17798" lon="3.19107">
        <ele>3.31</ele>
        <time>2021-07-20T09:11:12Z</time>
      </trkpt>
      <trkpt lat="43.17799" lon="3.19108">
        <ele>3.35</ele>
        <time>2021-07-20T09:11:13Z</time>
      </trkpt>
      <trkpt lat="43.17799" lon="3.19108">
        <ele>3.35</ele>
        <time>2021-07-20T09:11:14Z</time>
      </trkpt>
      <trkpt lat="43.17799" lon="3.19109">
        <ele>3.37</ele>
        <time>2021-07-20T09:11:15Z</time>
      </trkpt>
      <trkpt lat="43.178" lon="3.1911">
        <ele>3.39</ele>
        <time>2021-07-20T09:11:16Z</time>
      </trkpt>
      <trkpt lat="43.17801" lon="3.19111">
        <ele>3.42</ele>
        <time>2021-07-20T09:11:17Z</time>
      </trkpt>
      <trkpt lat="43.17801" lon="3.19112">
        <ele>3.46</ele>
        <time>2021-07-20T09:11:18Z</time>
      </trkpt>
      <trkpt lat="43.17803" lon="3.19114">
        <ele>3.54</ele>
        <time>2021-07-20T09:11:19Z</time>
      </trkpt>
      <trkpt lat="43.17804" lon="3.19115">
        <ele>3.61</ele>
        <time>2021-07-20T09:11:20Z</time>
      </trkpt>
      <trkpt lat="43.17806" lon="3.19117">
        <ele>-3.2070537</ele>
        <time>2021-07-20T09:11:21Z</time>
      </trkpt>
      <trkpt lat="43.17807" lon="3.19119">
        <ele>3.76</ele>
        <time>2021-07-20T09:11:22Z</time>
      </trkpt>
      <trkpt lat="43.17809" lon="3.19122">
        <ele>3.83</ele>
        <time>2021-07-20T09:11:23Z</time>
      </trkpt>
      <trkpt lat="43.17811" lon="3.19124">
        <ele>3.93</ele>
        <time>2021-07-20T09:11:24Z</time>
      </trkpt>
      <trkpt lat="43.17813" lon="3.19127">
        <ele>4.02</ele>
        <time>2021-07-20T09:11:25Z</time>
      </trkpt>
      <trkpt lat="43.17815" lon="3.1913">
        <ele>4.14</ele>
        <time>2021-07-20T09:11:26Z</time>
      </trkpt>
      <trkpt lat="43.17818" lon="3.19133">
        <ele>4.25</ele>
        <time>2021-07-20T09:11:27Z</time>
      </trkpt>
      <trkpt lat="43.1782" lon="3.19136">
        <ele>4.36</ele>
        <time>2021-07-20T09:11:28Z</time>
      </trkpt>
      <trkpt lat="43.17822" lon="3.19138">
        <ele>4.47</ele>
        <time>2021-07-20T09:11:29Z</time>
      </trkpt>
      <trkpt lat="43.17825" lon="3.19141">
        <ele>4.58</ele>
        <time>2021-07-20T09:11:30Z</time>
      </trkpt>
      <trkpt lat="43.17827" lon="3.19144">
        <ele>-3.0732174</ele>
        <time>2021-07-20T09:11:31Z</time>
      </trkpt>
      <trkpt lat="43.17829" lon="3.19147">
        <ele>4.79</ele>
        <time>2021-07-20T09:11:32Z</time>
      </trkpt>
      <trkpt lat="43.17831" lon="3.19149">
        <ele>4.91</ele>
        <time>2021-07-20T09:11:33Z</time>
      </trkpt>
      <trkpt lat="43.17834" lon="3.19152">
        <ele>6.7</ele>
        <time>2021-07-20T09:11:34Z</time>
      </trkpt>
      <trkpt lat="43.17836" lon="3.19155">
        <ele>6.7</ele>
        <time>2021-07-20T09:11:35Z</time>
      </trkpt>
      <trkpt lat="43.17839" lon="3.19157">
        <ele>6.8</ele>
        <time>2021-07-20T09:11:36Z</time>
      </trkpt>
      <trkpt lat="43.17841" lon="3.1916">
        <ele>6.8</ele>
        <time>2021-07-20T09:11:37Z</time>
      </trkpt>
      <trkpt lat="43.17844" lon="3.19162">
        <ele>6.9</ele>
        <time>2021-07-20T09:11:38Z</time>
      </trkpt>
      <trkpt lat="43.17847" lon="3.19163">
        <ele>6.9</ele>
        <time>2021-07-20T09:11:39Z</time>
      </trkpt>
      <trkpt lat="43.17849" lon="3.19165">
        <ele>7</ele>
        <time>2021-07-20T09:11:40Z</time>
      </trkpt>
      <trkpt lat="43.17852" lon="3.19166">
        <ele>-3.0462427</ele>
        <time>2021-07-20T09:11:41Z</time>
      </trkpt>
      <trkpt lat="43.17855" lon="3.19168">
        <ele>7</ele>
        <time>2021-07-20T09:11:42Z</time>
      </trkpt>
      <trkpt lat="43.17857" lon="3.1917">
        <ele>7</ele>
        <time>2021-07-20T09:11:43Z</time>
      </trkpt>
      <trkpt lat="43.1786" lon="3.19173">
        <ele>7</ele>
        <time>2021-07-20T09:11:44Z</time>
      </trkpt>
      <trkpt lat="43.17863" lon="3.19176">
        <ele>7</ele>
        <time>2021-07-20T09:11:45Z</time>
      </trkpt>
      <trkpt lat="43.17865" lon="3.19179">
        <ele>7</ele>
        <time>2021-07-20T09:11:46Z</time>
      </trkpt>
      <trkpt lat="43.17868" lon="3.19183">
        <ele>7</ele>
        <time>2021-07-20T09:11:47Z</time>
      </trkpt>
      <trkpt lat="43.1787" lon="3.19186">
        <ele>7</ele>
        <time>2021-07-20T09:11:48Z</time>
      </trkpt>
      <trkpt lat="43.17873" lon="3.19189">
        <ele>7</ele>
        <time>2021-07-20T09:11:49Z</time>
      </trkpt>
      <trkpt lat="43.17876" lon="3.19192">
        <ele>7</ele>
        <time>2021-07-20T09:11:50Z</time>
      </trkpt>
      <trkpt lat="43.17878" lon="3.19195">
        <ele>-2.9269304</ele>
        <time>2021-07-20T09:11:51Z</time>
      </trkpt>
      <trkpt lat="43.17881" lon="3.19198">
        <ele>7</ele>
        <time>2021-07-20T09:11:52Z</time>
      </trkpt>
      <trkpt lat="43.17884" lon="3.19202">
        <ele>7</ele>
        <time>2021-07-20T09:11:53Z</time>
      </trkpt>
      <trkpt lat="43.17888" lon="3.19205">
        <ele>7</ele>
        <time>2021-07-20T09:11:54Z</time>
      </trkpt>
      <trkpt lat="43.17891" lon="3.19208">
        <ele>7</ele>
        <time>2021-07-20T09:11:55Z</time>
      </trkpt>
      <trkpt lat="43.17894" lon="3.19212">
        <ele>7</ele>
        <time>2021-07-20T09:11:56Z</time>
      </trkpt>
      <trkpt lat="43.17897" lon="3.19215">
        <ele>7</ele>
        <time>2021-07-20T09:11:57Z</time>
      </trkpt>
      <trkpt lat="43.179" lon="3.19218">
        <ele>7</ele>
        <time>2021-07-20T09:11:58Z</time>
      </trkpt>
      <trkpt lat="43.17903" lon="3.19221">
        <ele>7</ele>
        <time>2021-07-20T09:11:59Z</time>
      </trkpt>
      <trkpt lat="43.17906" lon="3.19224">
        <ele>-3.0161552</ele>
        <time>2021-07-20T09:12:00Z</time>
      </trkpt>
      <trkpt lat="43.17909" lon="3.19227">
        <ele>7</ele>
        <time>2021-07-20T09:12:01Z</time>
      </trkpt>
      <trkpt lat="43.17912" lon="3.1923">
        <ele>7</ele>
        <time>2021-07-20T09:12:02Z</time>
      </trkpt>
      <trkpt lat="43.17914" lon="3.19234">
        <ele>7</ele>
        <time>2021-07-20T09:12:03Z</time>
      </trkpt>
      <trkpt lat="43.17917" lon="3.19237">
        <ele>6.2</ele>
        <time>2021-07-20T09:12:04Z</time>
      </trkpt>
      <trkpt lat="43.1792" lon="3.19241">
        <ele>6.1</ele>
        <time>2021-07-20T09:12:05Z</time>
      </trkpt>
      <trkpt lat="43.17923" lon="3.19245">
        <ele>6.1</ele>
        <time>2021-07-20T09:12:06Z</time>
      </trkpt>
      <trkpt lat="43.17926" lon="3.19248">
        <ele>6</ele>
        <time>2021-07-20T09:12:07Z</time>
      </trkpt>
      <trkpt lat="43.17929" lon="3.19252">
        <ele>6</ele>
        <time>2021-07-20T09:12:08Z</time>
      </trkpt>
      <trkpt lat="43.17932" lon="3.19256">
        <ele>6</ele>
        <time>2021-07-20T09:12:09Z</time>
      </trkpt>
      <trkpt lat="43.17935" lon="3.1926">
        <ele>-2.9860678</ele>
        <time>2021-07-20T09:12:10Z</time>
      </trkpt>
      <trkpt lat="43.17938" lon="3.19264">
        <ele>6</ele>
        <time>2021-07-20T09:12:11Z</time>
      </trkpt>
      <trkpt lat="43.17941" lon="3.19268">
        <ele>6</ele>
        <time>2021-07-20T09:12:12Z</time>
      </trkpt>
      <trkpt lat="43.17943" lon="3.19272">
        <ele>6</ele>
        <time>2021-07-20T09:12:13Z</time>
      </trkpt>
      <trkpt lat="43.17947" lon="3.19276">
        <ele>6</ele>
        <time>2021-07-20T09:12:14Z</time>
      </trkpt>
      <trkpt lat="43.1795" lon="3.1928">
        <ele>6</ele>
        <time>2021-07-20T09:12:15Z</time>
      </trkpt>
      <trkpt lat="43.17953" lon="3.19284">
        <ele>6</ele>
        <time>2021-07-20T09:12:16Z</time>
      </trkpt>
      <trkpt lat="43.17957" lon="3.19288">
        <ele>6</ele>
        <time>2021-07-20T09:12:17Z</time>
      </trkpt>
      <trkpt lat="43.1796" lon="3.19292">
        <ele>6</ele>
        <time>2021-07-20T09:12:18Z</time>
      </trkpt>
      <trkpt lat="43.17963" lon="3.19295">
        <ele>6</ele>
        <time>2021-07-20T09:12:19Z</time>
      </trkpt>
      <trkpt lat="43.17967" lon="3.193">
        <ele>-2.8449678</ele>
        <time>2021-07-20T09:12:20Z</time>
      </trkpt>
      <trkpt lat="43.1797" lon="3.19304">
        <ele>6</ele>
        <time>2021-07-20T09:12:21Z</time>
      </trkpt>
      <trkpt lat="43.17974" lon="3.19308">
        <ele>6</ele>
        <time>2021-07-20T09:12:22Z</time>
      </trkpt>
      <trkpt lat="43.17977" lon="3.19312">
        <ele>6</ele>
        <time>2021-07-20T09:12:23Z</time>
      </trkpt>
      <trkpt lat="43.17981" lon="3.19317">
        <ele>6</ele>
        <time>2021-07-20T09:12:24Z</time>
      </trkpt>
      <trkpt lat="43.17985" lon="3.19321">
        <ele>6</ele>
        <time>2021-07-20T09:12:25Z</time>
      </trkpt>
      <trkpt lat="43.17989" lon="3.19326">
        <ele>6</ele>
        <time>2021-07-20T09:12:26Z</time>
      </trkpt>
      <trkpt lat="43.17992" lon="3.19331">
        <ele>6</ele>
        <time>2021-07-20T09:12:27Z</time>
      </trkpt>
      <trkpt lat="43.17997" lon="3.19336">
        <ele>1.8</ele>
        <time>2021-07-20T09:12:28Z</time>
      </trkpt>
      <trkpt lat="43.18" lon="3.1934">
        <ele>5</ele>
        <time>2021-07-20T09:12:29Z</time>
      </trkpt>
      <trkpt lat="43.18005" lon="3.19345">
        <ele>-2.8792055</ele>
        <time>2021-07-20T09:12:30Z</time>
      </trkpt>
      <trkpt lat="43.18008" lon="3.19349">
        <ele>5</ele>
        <time>2021-07-20T09:12:31Z</time>
      </trkpt>
      <trkpt lat="43.18013" lon="3.19354">
        <ele>5</ele>
        <time>2021-07-20T09:12:32Z</time>
      </trkpt>
      <trkpt lat="43.18016" lon="3.19358">
        <ele>5</ele>
        <time>2021-07-20T09:12:33Z</time>
      </trkpt>
      <trkpt lat="43.1802" lon="3.19363">
        <ele>5</ele>
        <time>2021-07-20T09:12:34Z</time>
      </trkpt>
      <trkpt lat="43.18024" lon="3.19367">
        <ele>5</ele>
        <time>2021-07-20T09:12:35Z</time>
      </trkpt>
      <trkpt lat="43.18028" lon="3.19372">
        <ele>5</ele>
        <time>2021-07-20T09:12:36Z</time>
      </trkpt>
      <trkpt lat="43.18032" lon="3.19376">
        <ele>5</ele>
        <time>2021-07-20T09:12:37Z</time>
      </trkpt>
      <trkpt lat="43.18036" lon="3.19381">
        <ele>5</ele>
        <time>2021-07-20T09:12:38Z</time>
      </trkpt>
      <trkpt lat="43.1804" lon="3.19385">
        <ele>5</ele>
        <time>2021-07-20T09:12:39Z</time>
      </trkpt>
      <trkpt lat="43.18044" lon="3.1939">
        <ele>-3.1116047</ele>
        <time>2021-07-20T09:12:40Z</time>
      </trkpt>
      <trkpt lat="43.18047" lon="3.19395">
        <ele>5</ele>
        <time>2021-07-20T09:12:41Z</time>
      </trkpt>
      <trkpt lat="43.18051" lon="3.194">
        <ele>5</ele>
        <time>2021-07-20T09:12:42Z</time>
      </trkpt>
      <trkpt lat="43.18055" lon="3.19405">
        <ele>5</ele>
        <time>2021-07-20T09:12:43Z</time>
      </trkpt>
      <trkpt lat="43.18058" lon="3.1941">
        <ele>5</ele>
        <time>2021-07-20T09:12:44Z</time>
      </trkpt>
      <trkpt lat="43.18063" lon="3.19414">
        <ele>5</ele>
        <time>2021-07-20T09:12:45Z</time>
      </trkpt>
      <trkpt lat="43.18067" lon="3.19418">
        <ele>1.4</ele>
        <time>2021-07-20T09:12:46Z</time>
      </trkpt>
      <trkpt lat="43.18071" lon="3.19423">
        <ele>1.7</ele>
        <time>2021-07-20T09:12:47Z</time>
      </trkpt>
      <trkpt lat="43.18075" lon="3.19427">
        <ele>1.8</ele>
        <time>2021-07-20T09:12:48Z</time>
      </trkpt>
      <trkpt lat="43.18079" lon="3.19432">
        <ele>1.9</ele>
        <time>2021-07-20T09:12:49Z</time>
      </trkpt>
      <trkpt lat="43.18082" lon="3.19437">
        <ele>2</ele>
        <time>2021-07-20T09:12:50Z</time>
      </trkpt>
      <trkpt lat="43.18086" lon="3.19441">
        <ele>-2.8937304</ele>
        <time>2021-07-20T09:12:51Z</time>
      </trkpt>
      <trkpt lat="43.18089" lon="3.19446">
        <ele>2</ele>
        <time>2021-07-20T09:12:52Z</time>
      </trkpt>
      <trkpt lat="43.18091" lon="3.19451">
        <ele>2</ele>
        <time>2021-07-20T09:12:53Z</time>
      </trkpt>
      <trkpt lat="43.18095" lon="3.19456">
        <ele>2</ele>
        <time>2021-07-20T09:12:54Z</time>
      </trkpt>
      <trkpt lat="43.18098" lon="3.19461">
        <ele>2</ele>
        <time>2021-07-20T09:12:55Z</time>
      </trkpt>
      <trkpt lat="43.18102" lon="3.19465">
        <ele>2</ele>
        <time>2021-07-20T09:12:56Z</time>
      </trkpt>
      <trkpt lat="43.18106" lon="3.19469">
        <ele>2</ele>
        <time>2021-07-20T09:12:57Z</time>
      </trkpt>
      <trkpt lat="43.1811" lon="3.19473">
        <ele>2</ele>
        <time>2021-07-20T09:12:58Z</time>
      </trkpt>
      <trkpt lat="43.18113" lon="3.19478">
        <ele>2</ele>
        <time>2021-07-20T09:12:59Z</time>
      </trkpt>
      <trkpt lat="43.18118" lon="3.19482">
        <ele>2</ele>
        <time>2021-07-20T09:13:00Z</time>
      </trkpt>
      <trkpt lat="43.18121" lon="3.19487">
        <ele>-2.9456055</ele>
        <time>2021-07-20T09:13:01Z</time>
      </trkpt>
      <trkpt lat="43.18125" lon="3.19492">
        <ele>2</ele>
        <time>2021-07-20T09:13:02Z</time>
      </trkpt>
      <trkpt lat="43.18129" lon="3.19497">
        <ele>2</ele>
        <time>2021-07-20T09:13:03Z</time>
      </trkpt>
      <trkpt lat="43.18132" lon="3.19501">
        <ele>4</ele>
        <time>2021-07-20T09:13:04Z</time>
      </trkpt>
      <trkpt lat="43.18136" lon="3.19505">
        <ele>4</ele>
        <time>2021-07-20T09:13:05Z</time>
      </trkpt>
      <trkpt lat="43.1814" lon="3.19509">
        <ele>4</ele>
        <time>2021-07-20T09:13:06Z</time>
      </trkpt>
      <trkpt lat="43.18144" lon="3.19514">
        <ele>4</ele>
        <time>2021-07-20T09:13:07Z</time>
      </trkpt>
      <trkpt lat="43.18147" lon="3.19519">
        <ele>4</ele>
        <time>2021-07-20T09:13:08Z</time>
      </trkpt>
      <trkpt lat="43.18151" lon="3.19523">
        <ele>4</ele>
        <time>2021-07-20T09:13:09Z</time>
      </trkpt>
      <trkpt lat="43.18155" lon="3.19528">
        <ele>4</ele>
        <time>2021-07-20T09:13:10Z</time>
      </trkpt>
      <trkpt lat="43.18159" lon="3.19532">
        <ele>-2.9456055</ele>
        <time>2021-07-20T09:13:11Z</time>
      </trkpt>
      <trkpt lat="43.18163" lon="3.19537">
        <ele>4</ele>
        <time>2021-07-20T09:13:12Z</time>
      </trkpt>
      <trkpt lat="43.18167" lon="3.19541">
        <ele>2.5</ele>
        <time>2021-07-20T09:13:13Z</time>
      </trkpt>
      <trkpt lat="43.18171" lon="3.19546">
        <ele>2.7</ele>
        <time>2021-07-20T09:13:14Z</time>
      </trkpt>
      <trkpt lat="43.18176" lon="3.19551">
        <ele>2.8</ele>
        <time>2021-07-20T09:13:15Z</time>
      </trkpt>
      <trkpt lat="43.18179" lon="3.19556">
        <ele>3</ele>
        <time>2021-07-20T09:13:16Z</time>
      </trkpt>
      <trkpt lat="43.18184" lon="3.1956">
        <ele>3.2</ele>
        <time>2021-07-20T09:13:17Z</time>
      </trkpt>
      <trkpt lat="43.18188" lon="3.19565">
        <ele>3.3</ele>
        <time>2021-07-20T09:13:18Z</time>
      </trkpt>
      <trkpt lat="43.18192" lon="3.1957">
        <ele>3.5</ele>
        <time>2021-07-20T09:13:19Z</time>
      </trkpt>
      <trkpt lat="43.18195" lon="3.19575">
        <ele>3.7</ele>
        <time>2021-07-20T09:13:20Z</time>
      </trkpt>
      <trkpt lat="43.18199" lon="3.19579">
        <ele>-3.0234177</ele>
        <time>2021-07-20T09:13:21Z</time>
      </trkpt>
      <trkpt lat="43.18203" lon="3.19584">
        <ele>4</ele>
        <time>2021-07-20T09:13:22Z</time>
      </trkpt>
      <trkpt lat="43.18206" lon="3.19589">
        <ele>3.9</ele>
        <time>2021-07-20T09:13:23Z</time>
      </trkpt>
      <trkpt lat="43.18209" lon="3.19595">
        <ele>3.9</ele>
        <time>2021-07-20T09:13:24Z</time>
      </trkpt>
      <trkpt lat="43.1821" lon="3.19601">
        <ele>3.8</ele>
        <time>2021-07-20T09:13:25Z</time>
      </trkpt>
      <trkpt lat="43.1821" lon="3.19607">
        <ele>3.7</ele>
        <time>2021-07-20T09:13:26Z</time>
      </trkpt>
      <trkpt lat="43.1821" lon="3.19614">
        <ele>3.6</ele>
        <time>2021-07-20T09:13:27Z</time>
      </trkpt>
      <trkpt lat="43.18211" lon="3.1962">
        <ele>3.6</ele>
        <time>2021-07-20T09:13:28Z</time>
      </trkpt>
      <trkpt lat="43.18213" lon="3.19625">
        <ele>3.5</ele>
        <time>2021-07-20T09:13:29Z</time>
      </trkpt>
      <trkpt lat="43.18216" lon="3.19629">
        <ele>3.4</ele>
        <time>2021-07-20T09:13:30Z</time>
      </trkpt>
      <trkpt lat="43.1822" lon="3.19634">
        <ele>-2.9684303</ele>
        <time>2021-07-20T09:13:31Z</time>
      </trkpt>
      <trkpt lat="43.18223" lon="3.19638">
        <ele>3.3</ele>
        <time>2021-07-20T09:13:32Z</time>
      </trkpt>
      <trkpt lat="43.18227" lon="3.19642">
        <ele>3.3</ele>
        <time>2021-07-20T09:13:33Z</time>
      </trkpt>
      <trkpt lat="43.1823" lon="3.19646">
        <ele>3.2</ele>
        <time>2021-07-20T09:13:34Z</time>
      </trkpt>
      <trkpt lat="43.18234" lon="3.1965">
        <ele>3.2</ele>
        <time>2021-07-20T09:13:35Z</time>
      </trkpt>
      <trkpt lat="43.18238" lon="3.19655">
        <ele>3.1</ele>
        <time>2021-07-20T09:13:36Z</time>
      </trkpt>
      <trkpt lat="43.18242" lon="3.19659">
        <ele>3.1</ele>
        <time>2021-07-20T09:13:37Z</time>
      </trkpt>
      <trkpt lat="43.18246" lon="3.19663">
        <ele>3</ele>
        <time>2021-07-20T09:13:38Z</time>
      </trkpt>
      <trkpt lat="43.1825" lon="3.19668">
        <ele>3</ele>
        <time>2021-07-20T09:13:39Z</time>
      </trkpt>
      <trkpt lat="43.18254" lon="3.19672">
        <ele>3</ele>
        <time>2021-07-20T09:13:40Z</time>
      </trkpt>
      <trkpt lat="43.18256" lon="3.19675">
        <ele>-3.3325894</ele>
        <time>2021-07-20T09:13:41Z</time>
      </trkpt>
      <trkpt lat="43.18258" lon="3.19677">
        <ele>3</ele>
        <time>2021-07-20T09:13:42Z</time>
      </trkpt>
      <trkpt lat="43.18259" lon="3.19679">
        <ele>3.1</ele>
        <time>2021-07-20T09:13:43Z</time>
      </trkpt>
      <trkpt lat="43.18261" lon="3.19681">
        <ele>3.1</ele>
        <time>2021-07-20T09:13:44Z</time>
      </trkpt>
      <trkpt lat="43.18262" lon="3.19684">
        <ele>3.1</ele>
        <time>2021-07-20T09:13:45Z</time>
      </trkpt>
      <trkpt lat="43.18264" lon="3.19686">
        <ele>3.1</ele>
        <time>2021-07-20T09:13:46Z</time>
      </trkpt>
      <trkpt lat="43.18267" lon="3.19688">
        <ele>3.1</ele>
        <time>2021-07-20T09:13:47Z</time>
      </trkpt>
      <trkpt lat="43.18269" lon="3.19691">
        <ele>3.1</ele>
        <time>2021-07-20T09:13:48Z</time>
      </trkpt>
      <trkpt lat="43.18272" lon="3.19693">
        <ele>3.1</ele>
        <time>2021-07-20T09:13:49Z</time>
      </trkpt>
      <trkpt lat="43.18274" lon="3.19696">
        <ele>-3.4570868</ele>
        <time>2021-07-20T09:13:50Z</time>
      </trkpt>
      <trkpt lat="43.18277" lon="3.197">
        <ele>3.2</ele>
        <time>2021-07-20T09:13:51Z</time>
      </trkpt>
      <trkpt lat="43.1828" lon="3.19703">
        <ele>3.2</ele>
        <time>2021-07-20T09:13:52Z</time>
      </trkpt>
      <trkpt lat="43.18282" lon="3.19706">
        <ele>3.3</ele>
        <time>2021-07-20T09:13:53Z</time>
      </trkpt>
      <trkpt lat="43.18285" lon="3.1971">
        <ele>3.3</ele>
        <time>2021-07-20T09:13:54Z</time>
      </trkpt>
      <trkpt lat="43.18288" lon="3.19714">
        <ele>3.4</ele>
        <time>2021-07-20T09:13:55Z</time>
      </trkpt>
      <trkpt lat="43.18291" lon="3.19717">
        <ele>3.4</ele>
        <time>2021-07-20T09:13:56Z</time>
      </trkpt>
      <trkpt lat="43.18294" lon="3.19721">
        <ele>3.5</ele>
        <time>2021-07-20T09:13:57Z</time>
      </trkpt>
      <trkpt lat="43.18297" lon="3.19725">
        <ele>3.5</ele>
        <time>2021-07-20T09:13:58Z</time>
      </trkpt>
      <trkpt lat="43.18301" lon="3.19728">
        <ele>3.6</ele>
        <time>2021-07-20T09:13:59Z</time>
      </trkpt>
      <trkpt lat="43.18304" lon="3.19733">
        <ele>-3.5131104</ele>
        <time>2021-07-20T09:14:00Z</time>
      </trkpt>
      <trkpt lat="43.18306" lon="3.19737">
        <ele>3.7</ele>
        <time>2021-07-20T09:14:01Z</time>
      </trkpt>
      <trkpt lat="43.18309" lon="3.19742">
        <ele>3.8</ele>
        <time>2021-07-20T09:14:02Z</time>
      </trkpt>
      <trkpt lat="43.18313" lon="3.19746">
        <ele>3.9</ele>
        <time>2021-07-20T09:14:03Z</time>
      </trkpt>
      <trkpt lat="43.18316" lon="3.1975">
        <ele>4</ele>
        <time>2021-07-20T09:14:04Z</time>
      </trkpt>
      <trkpt lat="43.18319" lon="3.19755">
        <ele>4</ele>
        <time>2021-07-20T09:14:05Z</time>
      </trkpt>
      <trkpt lat="43.18322" lon="3.19759">
        <ele>4</ele>
        <time>2021-07-20T09:14:06Z</time>
      </trkpt>
      <trkpt lat="43.18326" lon="3.19763">
        <ele>4</ele>
        <time>2021-07-20T09:14:07Z</time>
      </trkpt>
      <trkpt lat="43.18329" lon="3.19767">
        <ele>4</ele>
        <time>2021-07-20T09:14:08Z</time>
      </trkpt>
      <trkpt lat="43.18333" lon="3.19771">
        <ele>4</ele>
        <time>2021-07-20T09:14:09Z</time>
      </trkpt>
      <trkpt lat="43.18336" lon="3.19775">
        <ele>-3.4622743</ele>
        <time>2021-07-20T09:14:10Z</time>
      </trkpt>
      <trkpt lat="43.1834" lon="3.1978">
        <ele>4.3</ele>
        <time>2021-07-20T09:14:11Z</time>
      </trkpt>
      <trkpt lat="43.18343" lon="3.19784">
        <ele>4.3</ele>
        <time>2021-07-20T09:14:12Z</time>
      </trkpt>
      <trkpt lat="43.18346" lon="3.19789">
        <ele>4.4</ele>
        <time>2021-07-20T09:14:13Z</time>
      </trkpt>
      <trkpt lat="43.18349" lon="3.19794">
        <ele>4.4</ele>
        <time>2021-07-20T09:14:14Z</time>
      </trkpt>
      <trkpt lat="43.18352" lon="3.19798">
        <ele>4.5</ele>
        <time>2021-07-20T09:14:15Z</time>
      </trkpt>
      <trkpt lat="43.18355" lon="3.19803">
        <ele>4.5</ele>
        <time>2021-07-20T09:14:16Z</time>
      </trkpt>
      <trkpt lat="43.18358" lon="3.19807">
        <ele>4.6</ele>
        <time>2021-07-20T09:14:17Z</time>
      </trkpt>
      <trkpt lat="43.18362" lon="3.19811">
        <ele>4.6</ele>
        <time>2021-07-20T09:14:18Z</time>
      </trkpt>
      <trkpt lat="43.18365" lon="3.19816">
        <ele>4.7</ele>
        <time>2021-07-20T09:14:19Z</time>
      </trkpt>
      <trkpt lat="43.18369" lon="3.1982">
        <ele>-3.4072878</ele>
        <time>2021-07-20T09:14:20Z</time>
      </trkpt>
      <trkpt lat="43.18372" lon="3.19824">
        <ele>4.8</ele>
        <time>2021-07-20T09:14:21Z</time>
      </trkpt>
      <trkpt lat="43.18375" lon="3.19829">
        <ele>4.9</ele>
        <time>2021-07-20T09:14:22Z</time>
      </trkpt>
      <trkpt lat="43.18378" lon="3.19833">
        <ele>5</ele>
        <time>2021-07-20T09:14:23Z</time>
      </trkpt>
      <trkpt lat="43.18382" lon="3.19838">
        <ele>5</ele>
        <time>2021-07-20T09:14:24Z</time>
      </trkpt>
      <trkpt lat="43.18385" lon="3.19843">
        <ele>5</ele>
        <time>2021-07-20T09:14:25Z</time>
      </trkpt>
      <trkpt lat="43.18388" lon="3.19848">
        <ele>5</ele>
        <time>2021-07-20T09:14:26Z</time>
      </trkpt>
      <trkpt lat="43.18391" lon="3.19852">
        <ele>5</ele>
        <time>2021-07-20T09:14:27Z</time>
      </trkpt>
      <trkpt lat="43.18395" lon="3.19855">
        <ele>5</ele>
        <time>2021-07-20T09:14:28Z</time>
      </trkpt>
      <trkpt lat="43.18399" lon="3.19859">
        <ele>5</ele>
        <time>2021-07-20T09:14:29Z</time>
      </trkpt>
      <trkpt lat="43.18403" lon="3.19863">
        <ele>5</ele>
        <time>2021-07-20T09:14:30Z</time>
      </trkpt>
      <trkpt lat="43.18407" lon="3.19867">
        <ele>-3.3875759</ele>
        <time>2021-07-20T09:14:31Z</time>
      </trkpt>
      <trkpt lat="43.1841" lon="3.19872">
        <ele>5</ele>
        <time>2021-07-20T09:14:32Z</time>
      </trkpt>
      <trkpt lat="43.18414" lon="3.19877">
        <ele>5</ele>
        <time>2021-07-20T09:14:33Z</time>
      </trkpt>
      <trkpt lat="43.18417" lon="3.19881">
        <ele>5</ele>
        <time>2021-07-20T09:14:34Z</time>
      </trkpt>
      <trkpt lat="43.1842" lon="3.19886">
        <ele>4.9</ele>
        <time>2021-07-20T09:14:35Z</time>
      </trkpt>
      <trkpt lat="43.18424" lon="3.19891">
        <ele>4.9</ele>
        <time>2021-07-20T09:14:36Z</time>
      </trkpt>
      <trkpt lat="43.18428" lon="3.19896">
        <ele>4.8</ele>
        <time>2021-07-20T09:14:37Z</time>
      </trkpt>
      <trkpt lat="43.18431" lon="3.199">
        <ele>4.8</ele>
        <time>2021-07-20T09:14:38Z</time>
      </trkpt>
      <trkpt lat="43.18435" lon="3.19905">
        <ele>4.7</ele>
        <time>2021-07-20T09:14:39Z</time>
      </trkpt>
      <trkpt lat="43.18438" lon="3.1991">
        <ele>4.7</ele>
        <time>2021-07-20T09:14:40Z</time>
      </trkpt>
      <trkpt lat="43.18442" lon="3.19914">
        <ele>-3.4301124</ele>
        <time>2021-07-20T09:14:41Z</time>
      </trkpt>
      <trkpt lat="43.18446" lon="3.19919">
        <ele>4.7</ele>
        <time>2021-07-20T09:14:42Z</time>
      </trkpt>
      <trkpt lat="43.18449" lon="3.19924">
        <ele>4.6</ele>
        <time>2021-07-20T09:14:43Z</time>
      </trkpt>
      <trkpt lat="43.18453" lon="3.19929">
        <ele>4.6</ele>
        <time>2021-07-20T09:14:44Z</time>
      </trkpt>
      <trkpt lat="43.18457" lon="3.19934">
        <ele>4.6</ele>
        <time>2021-07-20T09:14:45Z</time>
      </trkpt>
      <trkpt lat="43.18461" lon="3.19939">
        <ele>4.6</ele>
        <time>2021-07-20T09:14:46Z</time>
      </trkpt>
      <trkpt lat="43.18464" lon="3.19944">
        <ele>4.6</ele>
        <time>2021-07-20T09:14:47Z</time>
      </trkpt>
      <trkpt lat="43.18468" lon="3.19949">
        <ele>4.6</ele>
        <time>2021-07-20T09:14:48Z</time>
      </trkpt>
      <trkpt lat="43.18472" lon="3.19954">
        <ele>4.6</ele>
        <time>2021-07-20T09:14:49Z</time>
      </trkpt>
      <trkpt lat="43.18475" lon="3.19959">
        <ele>4.7</ele>
        <time>2021-07-20T09:14:50Z</time>
      </trkpt>
      <trkpt lat="43.18479" lon="3.19964">
        <ele>-3.3886132</ele>
        <time>2021-07-20T09:14:51Z</time>
      </trkpt>
      <trkpt lat="43.18483" lon="3.19969">
        <ele>4.7</ele>
        <time>2021-07-20T09:14:52Z</time>
      </trkpt>
      <trkpt lat="43.18486" lon="3.19974">
        <ele>4.7</ele>
        <time>2021-07-20T09:14:53Z</time>
      </trkpt>
      <trkpt lat="43.1849" lon="3.19978">
        <ele>4.8</ele>
        <time>2021-07-20T09:14:54Z</time>
      </trkpt>
      <trkpt lat="43.18494" lon="3.19983">
        <ele>4.8</ele>
        <time>2021-07-20T09:14:55Z</time>
      </trkpt>
      <trkpt lat="43.18497" lon="3.19988">
        <ele>4.9</ele>
        <time>2021-07-20T09:14:56Z</time>
      </trkpt>
      <trkpt lat="43.18501" lon="3.19993">
        <ele>4.9</ele>
        <time>2021-07-20T09:14:57Z</time>
      </trkpt>
      <trkpt lat="43.18504" lon="3.19997">
        <ele>4.8</ele>
        <time>2021-07-20T09:14:58Z</time>
      </trkpt>
      <trkpt lat="43.18508" lon="3.20002">
        <ele>4.7</ele>
        <time>2021-07-20T09:14:59Z</time>
      </trkpt>
      <trkpt lat="43.18511" lon="3.20006">
        <ele>4.4</ele>
        <time>2021-07-20T09:15:00Z</time>
      </trkpt>
      <trkpt lat="43.18515" lon="3.20011">
        <ele>-3.4560494</ele>
        <time>2021-07-20T09:15:01Z</time>
      </trkpt>
      <trkpt lat="43.18518" lon="3.20016">
        <ele>3.9</ele>
        <time>2021-07-20T09:15:02Z</time>
      </trkpt>
      <trkpt lat="43.18522" lon="3.20021">
        <ele>3.7</ele>
        <time>2021-07-20T09:15:03Z</time>
      </trkpt>
      <trkpt lat="43.18525" lon="3.20026">
        <ele>3.4</ele>
        <time>2021-07-20T09:15:04Z</time>
      </trkpt>
      <trkpt lat="43.18529" lon="3.20031">
        <ele>3.2</ele>
        <time>2021-07-20T09:15:05Z</time>
      </trkpt>
      <trkpt lat="43.18533" lon="3.20036">
        <ele>3</ele>
        <time>2021-07-20T09:15:06Z</time>
      </trkpt>
      <trkpt lat="43.18536" lon="3.2004">
        <ele>2.9</ele>
        <time>2021-07-20T09:15:07Z</time>
      </trkpt>
      <trkpt lat="43.1854" lon="3.20045">
        <ele>2.7</ele>
        <time>2021-07-20T09:15:08Z</time>
      </trkpt>
      <trkpt lat="43.18543" lon="3.2005">
        <ele>2.6</ele>
        <time>2021-07-20T09:15:09Z</time>
      </trkpt>
      <trkpt lat="43.18546" lon="3.20055">
        <ele>2.4</ele>
        <time>2021-07-20T09:15:10Z</time>
      </trkpt>
      <trkpt lat="43.18549" lon="3.20061">
        <ele>-3.4477496</ele>
        <time>2021-07-20T09:15:11Z</time>
      </trkpt>
      <trkpt lat="43.18552" lon="3.20066">
        <ele>2.2</ele>
        <time>2021-07-20T09:15:12Z</time>
      </trkpt>
      <trkpt lat="43.18556" lon="3.20071">
        <ele>2.2</ele>
        <time>2021-07-20T09:15:13Z</time>
      </trkpt>
      <trkpt lat="43.18559" lon="3.20075">
        <ele>2.1</ele>
        <time>2021-07-20T09:15:14Z</time>
      </trkpt>
      <trkpt lat="43.18562" lon="3.2008">
        <ele>2</ele>
        <time>2021-07-20T09:15:15Z</time>
      </trkpt>
      <trkpt lat="43.18565" lon="3.20084">
        <ele>2</ele>
        <time>2021-07-20T09:15:16Z</time>
      </trkpt>
      <trkpt lat="43.18569" lon="3.20089">
        <ele>2.2</ele>
        <time>2021-07-20T09:15:17Z</time>
      </trkpt>
      <trkpt lat="43.18572" lon="3.20094">
        <ele>2.4</ele>
        <time>2021-07-20T09:15:18Z</time>
      </trkpt>
      <trkpt lat="43.18576" lon="3.20098">
        <ele>2.5</ele>
        <time>2021-07-20T09:15:19Z</time>
      </trkpt>
      <trkpt lat="43.18579" lon="3.20103">
        <ele>2.7</ele>
        <time>2021-07-20T09:15:20Z</time>
      </trkpt>
      <trkpt lat="43.18582" lon="3.20107">
        <ele>-3.4736865</ele>
        <time>2021-07-20T09:15:21Z</time>
      </trkpt>
      <trkpt lat="43.18584" lon="3.2011">
        <ele>2.9</ele>
        <time>2021-07-20T09:15:22Z</time>
      </trkpt>
      <trkpt lat="43.18587" lon="3.20114">
        <ele>3</ele>
        <time>2021-07-20T09:15:23Z</time>
      </trkpt>
      <trkpt lat="43.1859" lon="3.20117">
        <ele>3</ele>
        <time>2021-07-20T09:15:24Z</time>
      </trkpt>
      <trkpt lat="43.18593" lon="3.20121">
        <ele>3.1</ele>
        <time>2021-07-20T09:15:25Z</time>
      </trkpt>
      <trkpt lat="43.18596" lon="3.20124">
        <ele>3.1</ele>
        <time>2021-07-20T09:15:26Z</time>
      </trkpt>
      <trkpt lat="43.18598" lon="3.20128">
        <ele>3.1</ele>
        <time>2021-07-20T09:15:27Z</time>
      </trkpt>
      <trkpt lat="43.18601" lon="3.20132">
        <ele>3.2</ele>
        <time>2021-07-20T09:15:28Z</time>
      </trkpt>
      <trkpt lat="43.18604" lon="3.20135">
        <ele>3.2</ele>
        <time>2021-07-20T09:15:29Z</time>
      </trkpt>
      <trkpt lat="43.18606" lon="3.20139">
        <ele>-3.5774338</ele>
        <time>2021-07-20T09:15:30Z</time>
      </trkpt>
      <trkpt lat="43.18609" lon="3.20142">
        <ele>3.2</ele>
        <time>2021-07-20T09:15:31Z</time>
      </trkpt>
      <trkpt lat="43.18612" lon="3.20146">
        <ele>3.2</ele>
        <time>2021-07-20T09:15:32Z</time>
      </trkpt>
      <trkpt lat="43.18614" lon="3.2015">
        <ele>3.1</ele>
        <time>2021-07-20T09:15:33Z</time>
      </trkpt>
      <trkpt lat="43.18617" lon="3.20154">
        <ele>3.1</ele>
        <time>2021-07-20T09:15:34Z</time>
      </trkpt>
      <trkpt lat="43.1862" lon="3.20157">
        <ele>3.1</ele>
        <time>2021-07-20T09:15:35Z</time>
      </trkpt>
      <trkpt lat="43.18623" lon="3.20161">
        <ele>3</ele>
        <time>2021-07-20T09:15:36Z</time>
      </trkpt>
      <trkpt lat="43.18626" lon="3.20165">
        <ele>2.9</ele>
        <time>2021-07-20T09:15:37Z</time>
      </trkpt>
      <trkpt lat="43.18628" lon="3.20169">
        <ele>2.9</ele>
        <time>2021-07-20T09:15:38Z</time>
      </trkpt>
      <trkpt lat="43.18631" lon="3.20172">
        <ele>2.9</ele>
        <time>2021-07-20T09:15:39Z</time>
      </trkpt>
      <trkpt lat="43.18633" lon="3.20176">
        <ele>-3.5639467</ele>
        <time>2021-07-20T09:15:40Z</time>
      </trkpt>
      <trkpt lat="43.18636" lon="3.20179">
        <ele>2.9</ele>
        <time>2021-07-20T09:15:41Z</time>
      </trkpt>
      <trkpt lat="43.18638" lon="3.20183">
        <ele>2.9</ele>
        <time>2021-07-20T09:15:42Z</time>
      </trkpt>
      <trkpt lat="43.1864" lon="3.20187">
        <ele>2.9</ele>
        <time>2021-07-20T09:15:43Z</time>
      </trkpt>
      <trkpt lat="43.18642" lon="3.2019">
        <ele>3</ele>
        <time>2021-07-20T09:15:44Z</time>
      </trkpt>
      <trkpt lat="43.18644" lon="3.20193">
        <ele>3</ele>
        <time>2021-07-20T09:15:45Z</time>
      </trkpt>
      <trkpt lat="43.18647" lon="3.20196">
        <ele>3</ele>
        <time>2021-07-20T09:15:46Z</time>
      </trkpt>
      <trkpt lat="43.18649" lon="3.20199">
        <ele>3.1</ele>
        <time>2021-07-20T09:15:47Z</time>
      </trkpt>
      <trkpt lat="43.18651" lon="3.20202">
        <ele>3.1</ele>
        <time>2021-07-20T09:15:48Z</time>
      </trkpt>
      <trkpt lat="43.18653" lon="3.20205">
        <ele>3.2</ele>
        <time>2021-07-20T09:15:49Z</time>
      </trkpt>
      <trkpt lat="43.18655" lon="3.20208">
        <ele>-3.6251574</ele>
        <time>2021-07-20T09:15:50Z</time>
      </trkpt>
      <trkpt lat="43.18657" lon="3.20211">
        <ele>3.3</ele>
        <time>2021-07-20T09:15:51Z</time>
      </trkpt>
      <trkpt lat="43.18659" lon="3.20213">
        <ele>3.4</ele>
        <time>2021-07-20T09:15:52Z</time>
      </trkpt>
      <trkpt lat="43.1866" lon="3.20216">
        <ele>3.5</ele>
        <time>2021-07-20T09:15:53Z</time>
      </trkpt>
      <trkpt lat="43.18662" lon="3.20218">
        <ele>3.5</ele>
        <time>2021-07-20T09:15:54Z</time>
      </trkpt>
      <trkpt lat="43.18663" lon="3.20219">
        <ele>3.6</ele>
        <time>2021-07-20T09:15:55Z</time>
      </trkpt>
      <trkpt lat="43.18664" lon="3.20221">
        <ele>3.6</ele>
        <time>2021-07-20T09:15:56Z</time>
      </trkpt>
      <trkpt lat="43.18664" lon="3.20221">
        <ele>3.7</ele>
        <time>2021-07-20T09:15:57Z</time>
      </trkpt>
      <trkpt lat="43.18664" lon="3.20221">
        <ele>3.7</ele>
        <time>2021-07-20T09:15:58Z</time>
      </trkpt>
      <trkpt lat="43.18664" lon="3.20221">
        <ele>3.7</ele>
        <time>2021-07-20T09:15:59Z</time>
      </trkpt>
      <trkpt lat="43.18664" lon="3.20221">
        <ele>-3.5981832</ele>
        <time>2021-07-20T09:16:00Z</time>
      </trkpt>
      <trkpt lat="43.18664" lon="3.20221">
        <ele>3.7</ele>
        <time>2021-07-20T09:16:01Z</time>
      </trkpt>
      <trkpt lat="43.18664" lon="3.20221">
        <ele>3.7</ele>
        <time>2021-07-20T09:16:02Z</time>
      </trkpt>
      <trkpt lat="43.18664" lon="3.20221">
        <ele>3.7</ele>
        <time>2021-07-20T09:16:03Z</time>
      </trkpt>
      <trkpt lat="43.18664" lon="3.20221">
        <ele>3.7</ele>
        <time>2021-07-20T09:16:04Z</time>
      </trkpt>
      <trkpt lat="43.18664" lon="3.20221">
        <ele>3.7</ele>
        <time>2021-07-20T09:16:05Z</time>
      </trkpt>
      <trkpt lat="43.18664" lon="3.20221">
        <ele>3.7</ele>
        <time>2021-07-20T09:16:06Z</time>
      </trkpt>
      <trkpt lat="43.18664" lon="3.20221">
        <ele>3.7</ele>
        <time>2021-07-20T09:16:07Z</time>
      </trkpt>
      <trkpt lat="43.18665" lon="3.20222">
        <ele>3.7</ele>
        <time>2021-07-20T09:16:08Z</time>
      </trkpt>
      <trkpt lat="43.18665" lon="3.20222">
        <ele>3.7</ele>
        <time>2021-07-20T09:16:09Z</time>
      </trkpt>
      <trkpt lat="43.18665" lon="3.20222">
        <ele>3.7</ele>
        <time>2021-07-20T09:16:10Z</time>
      </trkpt>
      <trkpt lat="43.18665" lon="3.20222">
        <ele>-3.6137452</ele>
        <time>2021-07-20T09:16:11Z</time>
      </trkpt>
      <trkpt lat="43.18665" lon="3.20222">
        <ele>3.7</ele>
        <time>2021-07-20T09:16:12Z</time>
      </trkpt>
      <trkpt lat="43.18665" lon="3.20223">
        <ele>3.7</ele>
        <time>2021-07-20T09:16:13Z</time>
      </trkpt>
      <trkpt lat="43.18665" lon="3.20223">
        <ele>3.7</ele>
        <time>2021-07-20T09:16:14Z</time>
      </trkpt>
      <trkpt lat="43.18665" lon="3.20223">
        <ele>3.7</ele>
        <time>2021-07-20T09:16:15Z</time>
      </trkpt>
      <trkpt lat="43.18665" lon="3.20223">
        <ele>3.7</ele>
        <time>2021-07-20T09:16:16Z</time>
      </trkpt>
      <trkpt lat="43.18665" lon="3.20223">
        <ele>3.7</ele>
        <time>2021-07-20T09:16:17Z</time>
      </trkpt>
      <trkpt lat="43.18665" lon="3.20223">
        <ele>3.7</ele>
        <time>2021-07-20T09:16:18Z</time>
      </trkpt>
      <trkpt lat="43.18665" lon="3.20223">
        <ele>3.7</ele>
        <time>2021-07-20T09:16:19Z</time>
      </trkpt>
      <trkpt lat="43.18665" lon="3.20223">
        <ele>3.7</ele>
        <time>2021-07-20T09:16:20Z</time>
      </trkpt>
      <trkpt lat="43.18665" lon="3.20223">
        <ele>-3.43115</ele>
        <time>2021-07-20T09:16:21Z</time>
      </trkpt>
      <trkpt lat="43.18665" lon="3.20223">
        <ele>3.7</ele>
        <time>2021-07-20T09:16:22Z</time>
      </trkpt>
      <trkpt lat="43.18665" lon="3.20222">
        <ele>3.7</ele>
        <time>2021-07-20T09:16:23Z</time>
      </trkpt>
      <trkpt lat="43.18665" lon="3.20222">
        <ele>3.7</ele>
        <time>2021-07-20T09:16:24Z</time>
      </trkpt>
      <trkpt lat="43.18665" lon="3.20222">
        <ele>3.7</ele>
        <time>2021-07-20T09:16:25Z</time>
      </trkpt>
      <trkpt lat="43.18665" lon="3.20222">
        <ele>3.7</ele>
        <time>2021-07-20T09:16:26Z</time>
      </trkpt>
      <trkpt lat="43.18665" lon="3.20222">
        <ele>3.7</ele>
        <time>2021-07-20T09:16:27Z</time>
      </trkpt>
      <trkpt lat="43.18665" lon="3.20222">
        <ele>3.7</ele>
        <time>2021-07-20T09:16:28Z</time>
      </trkpt>
      <trkpt lat="43.18665" lon="3.20222">
        <ele>3.7</ele>
        <time>2021-07-20T09:16:29Z</time>
      </trkpt>
      <trkpt lat="43.18665" lon="3.20222">
        <ele>3.7</ele>
        <time>2021-07-20T09:16:30Z</time>
      </trkpt>
      <trkpt lat="43.18665" lon="3.20222">
        <ele>-3.2578905</ele>
        <time>2021-07-20T09:16:31Z</time>
      </trkpt>
      <trkpt lat="43.18665" lon="3.20222">
        <ele>3.7</ele>
        <time>2021-07-20T09:16:32Z</time>
      </trkpt>
      <trkpt lat="43.18665" lon="3.20223">
        <ele>3.7</ele>
        <time>2021-07-20T09:16:33Z</time>
      </trkpt>
      <trkpt lat="43.18665" lon="3.20223">
        <ele>3.7</ele>
        <time>2021-07-20T09:16:34Z</time>
      </trkpt>
      <trkpt lat="43.18665" lon="3.20223">
        <ele>3.7</ele>
        <time>2021-07-20T09:16:35Z</time>
      </trkpt>
      <trkpt lat="43.18666" lon="3.20224">
        <ele>3.7</ele>
        <time>2021-07-20T09:16:36Z</time>
      </trkpt>
      <trkpt lat="43.18666" lon="3.20224">
        <ele>3.8</ele>
        <time>2021-07-20T09:16:37Z</time>
      </trkpt>
      <trkpt lat="43.18666" lon="3.20224">
        <ele>3.8</ele>
        <time>2021-07-20T09:16:38Z</time>
      </trkpt>
      <trkpt lat="43.18666" lon="3.20225">
        <ele>3.8</ele>
        <time>2021-07-20T09:16:39Z</time>
      </trkpt>
      <trkpt lat="43.18666" lon="3.20225">
        <ele>3.8</ele>
        <time>2021-07-20T09:16:40Z</time>
      </trkpt>
      <trkpt lat="43.18666" lon="3.20225">
        <ele>-3.6095953</ele>
        <time>2021-07-20T09:16:41Z</time>
      </trkpt>
      <trkpt lat="43.18666" lon="3.20225">
        <ele>3.8</ele>
        <time>2021-07-20T09:16:42Z</time>
      </trkpt>
      <trkpt lat="43.18666" lon="3.20225">
        <ele>3.8</ele>
        <time>2021-07-20T09:16:43Z</time>
      </trkpt>
      <trkpt lat="43.18666" lon="3.20225">
        <ele>3.8</ele>
        <time>2021-07-20T09:16:44Z</time>
      </trkpt>
      <trkpt lat="43.18666" lon="3.20225">
        <ele>3.8</ele>
        <time>2021-07-20T09:16:45Z</time>
      </trkpt>
      <trkpt lat="43.18666" lon="3.20225">
        <ele>3.8</ele>
        <time>2021-07-20T09:16:46Z</time>
      </trkpt>
      <trkpt lat="43.18667" lon="3.20225">
        <ele>3.8</ele>
        <time>2021-07-20T09:16:47Z</time>
      </trkpt>
      <trkpt lat="43.18667" lon="3.20226">
        <ele>3.8</ele>
        <time>2021-07-20T09:16:48Z</time>
      </trkpt>
      <trkpt lat="43.18667" lon="3.20226">
        <ele>3.8</ele>
        <time>2021-07-20T09:16:49Z</time>
      </trkpt>
      <trkpt lat="43.18667" lon="3.20226">
        <ele>3.8</ele>
        <time>2021-07-20T09:16:50Z</time>
      </trkpt>
      <trkpt lat="43.18667" lon="3.20226">
        <ele>-3.4861362</ele>
        <time>2021-07-20T09:16:51Z</time>
      </trkpt>
      <trkpt lat="43.18667" lon="3.20226">
        <ele>3.8</ele>
        <time>2021-07-20T09:16:52Z</time>
      </trkpt>
      <trkpt lat="43.18667" lon="3.20226">
        <ele>3.8</ele>
        <time>2021-07-20T09:16:53Z</time>
      </trkpt>
      <trkpt lat="43.18667" lon="3.20226">
        <ele>3.8</ele>
        <time>2021-07-20T09:16:54Z</time>
      </trkpt>
      <trkpt lat="43.18667" lon="3.20226">
        <ele>3.8</ele>
        <time>2021-07-20T09:16:55Z</time>
      </trkpt>
      <trkpt lat="43.18667" lon="3.20225">
        <ele>3.8</ele>
        <time>2021-07-20T09:16:56Z</time>
      </trkpt>
      <trkpt lat="43.18666" lon="3.20225">
        <ele>3.8</ele>
        <time>2021-07-20T09:16:57Z</time>
      </trkpt>
      <trkpt lat="43.18665" lon="3.20224">
        <ele>3.8</ele>
        <time>2021-07-20T09:16:58Z</time>
      </trkpt>
      <trkpt lat="43.18665" lon="3.20223">
        <ele>3.7</ele>
        <time>2021-07-20T09:16:59Z</time>
      </trkpt>
      <trkpt lat="43.18665" lon="3.20223">
        <ele>-3.5203729</ele>
        <time>2021-07-20T09:17:00Z</time>
      </trkpt>
      <trkpt lat="43.18665" lon="3.20222">
        <ele>3.7</ele>
        <time>2021-07-20T09:17:01Z</time>
      </trkpt>
      <trkpt lat="43.18665" lon="3.20222">
        <ele>3.7</ele>
        <time>2021-07-20T09:17:02Z</time>
      </trkpt>
      <trkpt lat="43.18665" lon="3.20222">
        <ele>3.7</ele>
        <time>2021-07-20T09:17:03Z</time>
      </trkpt>
      <trkpt lat="43.18665" lon="3.20222">
        <ele>3.7</ele>
        <time>2021-07-20T09:17:04Z</time>
      </trkpt>
      <trkpt lat="43.18665" lon="3.20223">
        <ele>3.7</ele>
        <time>2021-07-20T09:17:05Z</time>
      </trkpt>
      <trkpt lat="43.18665" lon="3.20223">
        <ele>3.7</ele>
        <time>2021-07-20T09:17:06Z</time>
      </trkpt>
      <trkpt lat="43.18665" lon="3.20223">
        <ele>3.7</ele>
        <time>2021-07-20T09:17:07Z</time>
      </trkpt>
      <trkpt lat="43.18665" lon="3.20223">
        <ele>3.7</ele>
        <time>2021-07-20T09:17:08Z</time>
      </trkpt>
      <trkpt lat="43.18665" lon="3.20223">
        <ele>3.7</ele>
        <time>2021-07-20T09:17:09Z</time>
      </trkpt>
      <trkpt lat="43.18665" lon="3.20223">
        <ele>-3.4384122</ele>
        <time>2021-07-20T09:17:10Z</time>
      </trkpt>
      <trkpt lat="43.18665" lon="3.20223">
        <ele>3.7</ele>
        <time>2021-07-20T09:17:11Z</time>
      </trkpt>
      <trkpt lat="43.18665" lon="3.20223">
        <ele>3.7</ele>
        <time>2021-07-20T09:17:12Z</time>
      </trkpt>
      <trkpt lat="43.18665" lon="3.20223">
        <ele>3.7</ele>
        <time>2021-07-20T09:17:13Z</time>
      </trkpt>
      <trkpt lat="43.18665" lon="3.20223">
        <ele>3.7</ele>
        <time>2021-07-20T09:17:14Z</time>
      </trkpt>
      <trkpt lat="43.18665" lon="3.20223">
        <ele>3.7</ele>
        <time>2021-07-20T09:17:15Z</time>
      </trkpt>
      <trkpt lat="43.18665" lon="3.20223">
        <ele>3.7</ele>
        <time>2021-07-20T09:17:16Z</time>
      </trkpt>
      <trkpt lat="43.18665" lon="3.20223">
        <ele>3.7</ele>
        <time>2021-07-20T09:17:17Z</time>
      </trkpt>
      <trkpt lat="43.18665" lon="3.20223">
        <ele>3.7</ele>
        <time>2021-07-20T09:17:18Z</time>
      </trkpt>
      <trkpt lat="43.18665" lon="3.20223">
        <ele>3.7</ele>
        <time>2021-07-20T09:17:19Z</time>
      </trkpt>
      <trkpt lat="43.18665" lon="3.20223">
        <ele>-3.0929298</ele>
        <time>2021-07-20T09:17:20Z</time>
      </trkpt>
      <trkpt lat="43.18665" lon="3.20222">
        <ele>3.7</ele>
        <time>2021-07-20T09:17:21Z</time>
      </trkpt>
      <trkpt lat="43.18664" lon="3.20222">
        <ele>3.7</ele>
        <time>2021-07-20T09:17:22Z</time>
      </trkpt>
      <trkpt lat="43.18664" lon="3.20221">
        <ele>3.7</ele>
        <time>2021-07-20T09:17:23Z</time>
      </trkpt>
      <trkpt lat="43.18663" lon="3.20221">
        <ele>3.6</ele>
        <time>2021-07-20T09:17:24Z</time>
      </trkpt>
      <trkpt lat="43.18663" lon="3.2022">
        <ele>3.6</ele>
        <time>2021-07-20T09:17:25Z</time>
      </trkpt>
      <trkpt lat="43.18663" lon="3.2022">
        <ele>3.6</ele>
        <time>2021-07-20T09:17:26Z</time>
      </trkpt>
      <trkpt lat="43.18663" lon="3.2022">
        <ele>3.6</ele>
        <time>2021-07-20T09:17:27Z</time>
      </trkpt>
      <trkpt lat="43.18663" lon="3.2022">
        <ele>3.6</ele>
        <time>2021-07-20T09:17:28Z</time>
      </trkpt>
      <trkpt lat="43.18663" lon="3.2022">
        <ele>3.6</ele>
        <time>2021-07-20T09:17:29Z</time>
      </trkpt>
      <trkpt lat="43.18663" lon="3.2022">
        <ele>-3.3159897</ele>
        <time>2021-07-20T09:17:30Z</time>
      </trkpt>
      <trkpt lat="43.18663" lon="3.2022">
        <ele>3.6</ele>
        <time>2021-07-20T09:17:31Z</time>
      </trkpt>
      <trkpt lat="43.18663" lon="3.2022">
        <ele>3.6</ele>
        <time>2021-07-20T09:17:32Z</time>
      </trkpt>
      <trkpt lat="43.18663" lon="3.2022">
        <ele>3.6</ele>
        <time>2021-07-20T09:17:33Z</time>
      </trkpt>
      <trkpt lat="43.18663" lon="3.2022">
        <ele>3.6</ele>
        <time>2021-07-20T09:17:34Z</time>
      </trkpt>
      <trkpt lat="43.18663" lon="3.2022">
        <ele>3.6</ele>
        <time>2021-07-20T09:17:35Z</time>
      </trkpt>
      <trkpt lat="43.18663" lon="3.2022">
        <ele>3.6</ele>
        <time>2021-07-20T09:17:36Z</time>
      </trkpt>
      <trkpt lat="43.18663" lon="3.2022">
        <ele>3.6</ele>
        <time>2021-07-20T09:17:37Z</time>
      </trkpt>
      <trkpt lat="43.18663" lon="3.2022">
        <ele>3.6</ele>
        <time>2021-07-20T09:17:38Z</time>
      </trkpt>
      <trkpt lat="43.18663" lon="3.2022">
        <ele>3.6</ele>
        <time>2021-07-20T09:17:39Z</time>
      </trkpt>
      <trkpt lat="43.18663" lon="3.2022">
        <ele>-3.2174287</ele>
        <time>2021-07-20T09:17:40Z</time>
      </trkpt>
      <trkpt lat="43.18663" lon="3.2022">
        <ele>3.6</ele>
        <time>2021-07-20T09:17:41Z</time>
      </trkpt>
      <trkpt lat="43.18663" lon="3.2022">
        <ele>3.6</ele>
        <time>2021-07-20T09:17:42Z</time>
      </trkpt>
      <trkpt lat="43.18663" lon="3.2022">
        <ele>3.6</ele>
        <time>2021-07-20T09:17:43Z</time>
      </trkpt>
      <trkpt lat="43.18663" lon="3.2022">
        <ele>3.6</ele>
        <time>2021-07-20T09:17:44Z</time>
      </trkpt>
      <trkpt lat="43.18663" lon="3.2022">
        <ele>3.6</ele>
        <time>2021-07-20T09:17:45Z</time>
      </trkpt>
      <trkpt lat="43.18663" lon="3.2022">
        <ele>3.6</ele>
        <time>2021-07-20T09:17:46Z</time>
      </trkpt>
      <trkpt lat="43.18663" lon="3.2022">
        <ele>3.6</ele>
        <time>2021-07-20T09:17:47Z</time>
      </trkpt>
      <trkpt lat="43.18663" lon="3.2022">
        <ele>3.6</ele>
        <time>2021-07-20T09:17:48Z</time>
      </trkpt>
      <trkpt lat="43.18663" lon="3.2022">
        <ele>3.6</ele>
        <time>2021-07-20T09:17:49Z</time>
      </trkpt>
      <trkpt lat="43.18663" lon="3.2022">
        <ele>3.6</ele>
        <time>2021-07-20T09:17:50Z</time>
      </trkpt>
      <trkpt lat="43.18663" lon="3.2022">
        <ele>-3.265153</ele>
        <time>2021-07-20T09:17:51Z</time>
      </trkpt>
      <trkpt lat="43.18663" lon="3.2022">
        <ele>3.6</ele>
        <time>2021-07-20T09:17:52Z</time>
      </trkpt>
      <trkpt lat="43.18663" lon="3.2022">
        <ele>3.6</ele>
        <time>2021-07-20T09:17:53Z</time>
      </trkpt>
      <trkpt lat="43.18663" lon="3.2022">
        <ele>3.6</ele>
        <time>2021-07-20T09:17:54Z</time>
      </trkpt>
      <trkpt lat="43.18663" lon="3.2022">
        <ele>3.6</ele>
        <time>2021-07-20T09:17:55Z</time>
      </trkpt>
      <trkpt lat="43.18663" lon="3.2022">
        <ele>3.6</ele>
        <time>2021-07-20T09:17:56Z</time>
      </trkpt>
      <trkpt lat="43.18663" lon="3.2022">
        <ele>3.6</ele>
        <time>2021-07-20T09:17:57Z</time>
      </trkpt>
      <trkpt lat="43.18663" lon="3.2022">
        <ele>3.6</ele>
        <time>2021-07-20T09:17:58Z</time>
      </trkpt>
      <trkpt lat="43.18663" lon="3.2022">
        <ele>3.6</ele>
        <time>2021-07-20T09:17:59Z</time>
      </trkpt>
      <trkpt lat="43.18663" lon="3.2022">
        <ele>3.6</ele>
        <time>2021-07-20T09:18:00Z</time>
      </trkpt>
      <trkpt lat="43.18663" lon="3.2022">
        <ele>-3.2298784</ele>
        <time>2021-07-20T09:18:01Z</time>
      </trkpt>
      <trkpt lat="43.18663" lon="3.2022">
        <ele>3.6</ele>
        <time>2021-07-20T09:18:02Z</time>
      </trkpt>
      <trkpt lat="43.18663" lon="3.2022">
        <ele>3.6</ele>
        <time>2021-07-20T09:18:03Z</time>
      </trkpt>
      <trkpt lat="43.18663" lon="3.2022">
        <ele>3.6</ele>
        <time>2021-07-20T09:18:04Z</time>
      </trkpt>
      <trkpt lat="43.18663" lon="3.2022">
        <ele>3.6</ele>
        <time>2021-07-20T09:18:05Z</time>
      </trkpt>
      <trkpt lat="43.18663" lon="3.2022">
        <ele>3.6</ele>
        <time>2021-07-20T09:18:06Z</time>
      </trkpt>
      <trkpt lat="43.18663" lon="3.2022">
        <ele>3.6</ele>
        <time>2021-07-20T09:18:07Z</time>
      </trkpt>
      <trkpt lat="43.18663" lon="3.2022">
        <ele>3.6</ele>
        <time>2021-07-20T09:18:08Z</time>
      </trkpt>
      <trkpt lat="43.18663" lon="3.2022">
        <ele>3.6</ele>
        <time>2021-07-20T09:18:09Z</time>
      </trkpt>
      <trkpt lat="43.18663" lon="3.2022">
        <ele>3.6</ele>
        <time>2021-07-20T09:18:10Z</time>
      </trkpt>
      <trkpt lat="43.18663" lon="3.2022">
        <ele>3.6</ele>
        <time>2021-07-20T09:18:18Z</time>
      </trkpt>
      <trkpt lat="43.18663" lon="3.2022">
        <ele>3.6</ele>
        <time>2021-07-20T09:18:19Z</time>
      </trkpt>
      <trkpt lat="43.18663" lon="3.2022">
        <ele>3.6</ele>
        <time>2021-07-20T09:18:20Z</time>
      </trkpt>
      <trkpt lat="43.18663" lon="3.2022">
        <ele>3.6</ele>
        <time>2021-07-20T09:18:21Z</time>
      </trkpt>
      <trkpt lat="43.18663" lon="3.2022">
        <ele>-3.2423282</ele>
        <time>2021-07-20T09:18:22Z</time>
      </trkpt>
      <trkpt lat="43.18663" lon="3.2022">
        <ele>3.6</ele>
        <time>2021-07-20T09:18:23Z</time>
      </trkpt>
      <trkpt lat="43.18663" lon="3.2022">
        <ele>3.6</ele>
        <time>2021-07-20T09:18:24Z</time>
      </trkpt>
      <trkpt lat="43.18663" lon="3.2022">
        <ele>3.6</ele>
        <time>2021-07-20T09:18:25Z</time>
      </trkpt>
      <trkpt lat="43.18663" lon="3.2022">
        <ele>-3.1510293</ele>
        <time>2021-07-20T09:18:26Z</time>
      </trkpt>
      <trkpt lat="43.18663" lon="3.2022">
        <ele>3.6</ele>
        <time>2021-07-20T09:18:27Z</time>
      </trkpt>
      <trkpt lat="43.18663" lon="3.2022">
        <ele>3.6</ele>
        <time>2021-07-20T09:18:28Z</time>
      </trkpt>
      <trkpt lat="43.18663" lon="3.2022">
        <ele>3.6</ele>
        <time>2021-07-20T09:18:29Z</time>
      </trkpt>
      <trkpt lat="43.18665" lon="3.20221">
        <ele>3.7</ele>
        <time>2021-07-20T09:18:30Z</time>
      </trkpt>
      <trkpt lat="43.18665" lon="3.20221">
        <ele>3.7</ele>
        <time>2021-07-20T09:18:31Z</time>
      </trkpt>
      <trkpt lat="43.18665" lon="3.20222">
        <ele>3.7</ele>
        <time>2021-07-20T09:18:32Z</time>
      </trkpt>
      <trkpt lat="43.18665" lon="3.20222">
        <ele>3.7</ele>
        <time>2021-07-20T09:18:33Z</time>
      </trkpt>
      <trkpt lat="43.18665" lon="3.20222">
        <ele>3.7</ele>
        <time>2021-07-20T09:18:34Z</time>
      </trkpt>
      <trkpt lat="43.18665" lon="3.20222">
        <ele>3.7</ele>
        <time>2021-07-20T09:18:35Z</time>
      </trkpt>
      <trkpt lat="43.18665" lon="3.20222">
        <ele>3.7</ele>
        <time>2021-07-20T09:18:36Z</time>
      </trkpt>
      <trkpt lat="43.18665" lon="3.20222">
        <ele>-3.3709762</ele>
        <time>2021-07-20T09:18:37Z</time>
      </trkpt>
      <trkpt lat="43.18665" lon="3.20222">
        <ele>3.7</ele>
        <time>2021-07-20T09:18:38Z</time>
      </trkpt>
      <trkpt lat="43.18665" lon="3.20222">
        <ele>3.7</ele>
        <time>2021-07-20T09:18:39Z</time>
      </trkpt>
      <trkpt lat="43.18665" lon="3.20222">
        <ele>3.7</ele>
        <time>2021-07-20T09:18:40Z</time>
      </trkpt>
      <trkpt lat="43.18665" lon="3.20222">
        <ele>3.7</ele>
        <time>2021-07-20T09:18:41Z</time>
      </trkpt>
      <trkpt lat="43.18665" lon="3.20222">
        <ele>3.7</ele>
        <time>2021-07-20T09:18:42Z</time>
      </trkpt>
      <trkpt lat="43.18665" lon="3.20222">
        <ele>3.7</ele>
        <time>2021-07-20T09:18:43Z</time>
      </trkpt>
      <trkpt lat="43.18665" lon="3.20222">
        <ele>3.7</ele>
        <time>2021-07-20T09:18:44Z</time>
      </trkpt>
      <trkpt lat="43.18665" lon="3.20222">
        <ele>3.7</ele>
        <time>2021-07-20T09:18:45Z</time>
      </trkpt>
      <trkpt lat="43.18665" lon="3.20222">
        <ele>3.7</ele>
        <time>2021-07-20T09:18:46Z</time>
      </trkpt>
      <trkpt lat="43.18665" lon="3.20222">
        <ele>-3.6137452</ele>
        <time>2021-07-20T09:18:47Z</time>
      </trkpt>
      <trkpt lat="43.18665" lon="3.20222">
        <ele>3.7</ele>
        <time>2021-07-20T09:18:48Z</time>
      </trkpt>
      <trkpt lat="43.18666" lon="3.20223">
        <ele>3.7</ele>
        <time>2021-07-20T09:18:49Z</time>
      </trkpt>
      <trkpt lat="43.18666" lon="3.20223">
        <ele>3.7</ele>
        <time>2021-07-20T09:18:50Z</time>
      </trkpt>
      <trkpt lat="43.18667" lon="3.20224">
        <ele>3.7</ele>
        <time>2021-07-20T09:18:51Z</time>
      </trkpt>
      <trkpt lat="43.18667" lon="3.20224">
        <ele>3.7</ele>
        <time>2021-07-20T09:18:52Z</time>
      </trkpt>
      <trkpt lat="43.18667" lon="3.20224">
        <ele>3.7</ele>
        <time>2021-07-20T09:18:53Z</time>
      </trkpt>
      <trkpt lat="43.18667" lon="3.20224">
        <ele>3.7</ele>
        <time>2021-07-20T09:18:54Z</time>
      </trkpt>
      <trkpt lat="43.18667" lon="3.20224">
        <ele>3.7</ele>
        <time>2021-07-20T09:18:55Z</time>
      </trkpt>
      <trkpt lat="43.18667" lon="3.20224">
        <ele>3.7</ele>
        <time>2021-07-20T09:18:56Z</time>
      </trkpt>
      <trkpt lat="43.18667" lon="3.20224">
        <ele>-3.5203729</ele>
        <time>2021-07-20T09:18:57Z</time>
      </trkpt>
      <trkpt lat="43.18667" lon="3.20224">
        <ele>3.7</ele>
        <time>2021-07-20T09:18:58Z</time>
      </trkpt>
      <trkpt lat="43.18667" lon="3.20224">
        <ele>3.7</ele>
        <time>2021-07-20T09:18:59Z</time>
      </trkpt>
      <trkpt lat="43.18667" lon="3.20224">
        <ele>3.7</ele>
        <time>2021-07-20T09:19:00Z</time>
      </trkpt>
      <trkpt lat="43.18667" lon="3.20224">
        <ele>3.7</ele>
        <time>2021-07-20T09:19:01Z</time>
      </trkpt>
      <trkpt lat="43.18667" lon="3.20224">
        <ele>3.7</ele>
        <time>2021-07-20T09:19:02Z</time>
      </trkpt>
      <trkpt lat="43.18667" lon="3.20224">
        <ele>3.7</ele>
        <time>2021-07-20T09:19:03Z</time>
      </trkpt>
      <trkpt lat="43.18667" lon="3.20224">
        <ele>3.7</ele>
        <time>2021-07-20T09:19:04Z</time>
      </trkpt>
      <trkpt lat="43.18667" lon="3.20224">
        <ele>3.7</ele>
        <time>2021-07-20T09:19:05Z</time>
      </trkpt>
      <trkpt lat="43.18667" lon="3.20224">
        <ele>3.7</ele>
        <time>2021-07-20T09:19:06Z</time>
      </trkpt>
      <trkpt lat="43.18667" lon="3.20224">
        <ele>-3.547347</ele>
        <time>2021-07-20T09:19:07Z</time>
      </trkpt>
      <trkpt lat="43.18667" lon="3.20224">
        <ele>3.7</ele>
        <time>2021-07-20T09:19:08Z</time>
      </trkpt>
      <trkpt lat="43.18667" lon="3.20224">
        <ele>3.7</ele>
        <time>2021-07-20T09:19:09Z</time>
      </trkpt>
      <trkpt lat="43.18667" lon="3.20224">
        <ele>3.7</ele>
        <time>2021-07-20T09:19:10Z</time>
      </trkpt>
      <trkpt lat="43.18667" lon="3.20224">
        <ele>3.7</ele>
        <time>2021-07-20T09:19:11Z</time>
      </trkpt>
      <trkpt lat="43.18667" lon="3.20224">
        <ele>3.7</ele>
        <time>2021-07-20T09:19:12Z</time>
      </trkpt>
      <trkpt lat="43.18667" lon="3.20224">
        <ele>3.7</ele>
        <time>2021-07-20T09:19:13Z</time>
      </trkpt>
      <trkpt lat="43.18667" lon="3.20224">
        <ele>3.7</ele>
        <time>2021-07-20T09:19:14Z</time>
      </trkpt>
      <trkpt lat="43.18667" lon="3.20224">
        <ele>3.7</ele>
        <time>2021-07-20T09:19:15Z</time>
      </trkpt>
      <trkpt lat="43.18667" lon="3.20224">
        <ele>3.7</ele>
        <time>2021-07-20T09:19:16Z</time>
      </trkpt>
      <trkpt lat="43.18667" lon="3.20224">
        <ele>-3.571209</ele>
        <time>2021-07-20T09:19:17Z</time>
      </trkpt>
      <trkpt lat="43.18663" lon="3.2022">
        <ele>3.6</ele>
        <time>2021-07-20T09:20:27Z</time>
      </trkpt>
      <trkpt lat="43.18663" lon="3.20219">
        <ele>3.6</ele>
        <time>2021-07-20T09:20:28Z</time>
      </trkpt>
      <trkpt lat="43.18663" lon="3.20219">
        <ele>3.6</ele>
        <time>2021-07-20T09:20:29Z</time>
      </trkpt>
      <trkpt lat="43.18663" lon="3.20219">
        <ele>3.6</ele>
        <time>2021-07-20T09:20:30Z</time>
      </trkpt>
      <trkpt lat="43.18663" lon="3.20219">
        <ele>3.6</ele>
        <time>2021-07-20T09:20:31Z</time>
      </trkpt>
      <trkpt lat="43.18663" lon="3.20219">
        <ele>3.6</ele>
        <time>2021-07-20T09:20:32Z</time>
      </trkpt>
      <trkpt lat="43.18663" lon="3.20219">
        <ele>3.6</ele>
        <time>2021-07-20T09:20:33Z</time>
      </trkpt>
      <trkpt lat="43.18663" lon="3.20219">
        <ele>3.6</ele>
        <time>2021-07-20T09:20:34Z</time>
      </trkpt>
      <trkpt lat="43.18663" lon="3.20219">
        <ele>3.6</ele>
        <time>2021-07-20T09:20:35Z</time>
      </trkpt>
      <trkpt lat="43.18663" lon="3.20219">
        <ele>3.6</ele>
        <time>2021-07-20T09:20:36Z</time>
      </trkpt>
      <trkpt lat="43.18663" lon="3.20219">
        <ele>-3.2070537</ele>
        <time>2021-07-20T09:20:37Z</time>
      </trkpt>
      <trkpt lat="43.18663" lon="3.20219">
        <ele>3.6</ele>
        <time>2021-07-20T09:20:38Z</time>
      </trkpt>
      <trkpt lat="43.18663" lon="3.20219">
        <ele>3.6</ele>
        <time>2021-07-20T09:20:39Z</time>
      </trkpt>
      <trkpt lat="43.18663" lon="3.20219">
        <ele>3.6</ele>
        <time>2021-07-20T09:20:40Z</time>
      </trkpt>
      <trkpt lat="43.18663" lon="3.20219">
        <ele>3.6</ele>
        <time>2021-07-20T09:20:41Z</time>
      </trkpt>
      <trkpt lat="43.18663" lon="3.20219">
        <ele>3.6</ele>
        <time>2021-07-20T09:20:42Z</time>
      </trkpt>
      <trkpt lat="43.18663" lon="3.20219">
        <ele>3.6</ele>
        <time>2021-07-20T09:20:43Z</time>
      </trkpt>
      <trkpt lat="43.18663" lon="3.20219">
        <ele>3.6</ele>
        <time>2021-07-20T09:20:44Z</time>
      </trkpt>
      <trkpt lat="43.18663" lon="3.20219">
        <ele>3.6</ele>
        <time>2021-07-20T09:20:45Z</time>
      </trkpt>
      <trkpt lat="43.18663" lon="3.20219">
        <ele>3.6</ele>
        <time>2021-07-20T09:20:46Z</time>
      </trkpt>
      <trkpt lat="43.18663" lon="3.20219">
        <ele>-3.192529</ele>
        <time>2021-07-20T09:20:47Z</time>
      </trkpt>
      <trkpt lat="43.18663" lon="3.20219">
        <ele>3.6</ele>
        <time>2021-07-20T09:20:48Z</time>
      </trkpt>
      <trkpt lat="43.18663" lon="3.20219">
        <ele>3.6</ele>
        <time>2021-07-20T09:20:49Z</time>
      </trkpt>
      <trkpt lat="43.18663" lon="3.20219">
        <ele>3.6</ele>
        <time>2021-07-20T09:20:50Z</time>
      </trkpt>
      <trkpt lat="43.18663" lon="3.20219">
        <ele>3.6</ele>
        <time>2021-07-20T09:20:51Z</time>
      </trkpt>
      <trkpt lat="43.18663" lon="3.20219">
        <ele>3.6</ele>
        <time>2021-07-20T09:20:52Z</time>
      </trkpt>
      <trkpt lat="43.18663" lon="3.20219">
        <ele>3.6</ele>
        <time>2021-07-20T09:20:53Z</time>
      </trkpt>
      <trkpt lat="43.18663" lon="3.20219">
        <ele>3.6</ele>
        <time>2021-07-20T09:20:54Z</time>
      </trkpt>
      <trkpt lat="43.18663" lon="3.20219">
        <ele>3.6</ele>
        <time>2021-07-20T09:20:55Z</time>
      </trkpt>
      <trkpt lat="43.18663" lon="3.20219">
        <ele>3.6</ele>
        <time>2021-07-20T09:20:56Z</time>
      </trkpt>
      <trkpt lat="43.18663" lon="3.20219">
        <ele>-3.3595638</ele>
        <time>2021-07-20T09:20:57Z</time>
      </trkpt>
      <trkpt lat="43.18663" lon="3.20219">
        <ele>3.6</ele>
        <time>2021-07-20T09:20:58Z</time>
      </trkpt>
      <trkpt lat="43.18663" lon="3.20219">
        <ele>3.6</ele>
        <time>2021-07-20T09:20:59Z</time>
      </trkpt>
      <trkpt lat="43.18663" lon="3.20219">
        <ele>3.6</ele>
        <time>2021-07-20T09:21:00Z</time>
      </trkpt>
      <trkpt lat="43.18663" lon="3.20219">
        <ele>3.6</ele>
        <time>2021-07-20T09:21:01Z</time>
      </trkpt>
      <trkpt lat="43.18663" lon="3.20219">
        <ele>3.6</ele>
        <time>2021-07-20T09:21:02Z</time>
      </trkpt>
      <trkpt lat="43.18663" lon="3.20219">
        <ele>3.6</ele>
        <time>2021-07-20T09:21:03Z</time>
      </trkpt>
      <trkpt lat="43.18663" lon="3.20219">
        <ele>3.6</ele>
        <time>2021-07-20T09:21:04Z</time>
      </trkpt>
      <trkpt lat="43.18663" lon="3.20219">
        <ele>3.6</ele>
        <time>2021-07-20T09:21:05Z</time>
      </trkpt>
      <trkpt lat="43.18663" lon="3.20219">
        <ele>3.6</ele>
        <time>2021-07-20T09:21:06Z</time>
      </trkpt>
      <trkpt lat="43.18663" lon="3.20219">
        <ele>-3.178004</ele>
        <time>2021-07-20T09:21:07Z</time>
      </trkpt>
      <trkpt lat="43.18663" lon="3.20219">
        <ele>3.6</ele>
        <time>2021-07-20T09:21:08Z</time>
      </trkpt>
      <trkpt lat="43.18663" lon="3.20219">
        <ele>3.6</ele>
        <time>2021-07-20T09:21:09Z</time>
      </trkpt>
      <trkpt lat="43.18663" lon="3.20219">
        <ele>3.6</ele>
        <time>2021-07-20T09:21:10Z</time>
      </trkpt>
      <trkpt lat="43.18663" lon="3.20219">
        <ele>3.6</ele>
        <time>2021-07-20T09:21:11Z</time>
      </trkpt>
      <trkpt lat="43.18663" lon="3.20219">
        <ele>3.6</ele>
        <time>2021-07-20T09:21:12Z</time>
      </trkpt>
      <trkpt lat="43.18663" lon="3.20219">
        <ele>3.6</ele>
        <time>2021-07-20T09:21:13Z</time>
      </trkpt>
      <trkpt lat="43.18663" lon="3.20219">
        <ele>3.6</ele>
        <time>2021-07-20T09:21:14Z</time>
      </trkpt>
      <trkpt lat="43.18663" lon="3.20219">
        <ele>3.6</ele>
        <time>2021-07-20T09:21:15Z</time>
      </trkpt>
      <trkpt lat="43.18663" lon="3.20219">
        <ele>-3.133392</ele>
        <time>2021-07-20T09:21:16Z</time>
      </trkpt>
      <trkpt lat="43.18663" lon="3.20219">
        <ele>3.6</ele>
        <time>2021-07-20T09:21:17Z</time>
      </trkpt>
      <trkpt lat="43.18663" lon="3.20219">
        <ele>3.6</ele>
        <time>2021-07-20T09:21:18Z</time>
      </trkpt>
      <trkpt lat="43.18663" lon="3.20219">
        <ele>3.6</ele>
        <time>2021-07-20T09:21:19Z</time>
      </trkpt>
      <trkpt lat="43.18663" lon="3.20219">
        <ele>3.6</ele>
        <time>2021-07-20T09:21:20Z</time>
      </trkpt>
      <trkpt lat="43.18663" lon="3.20219">
        <ele>3.6</ele>
        <time>2021-07-20T09:21:21Z</time>
      </trkpt>
      <trkpt lat="43.18663" lon="3.20219">
        <ele>3.6</ele>
        <time>2021-07-20T09:21:22Z</time>
      </trkpt>
      <trkpt lat="43.18663" lon="3.20219">
        <ele>3.6</ele>
        <time>2021-07-20T09:21:23Z</time>
      </trkpt>
      <trkpt lat="43.18663" lon="3.20219">
        <ele>3.6</ele>
        <time>2021-07-20T09:21:24Z</time>
      </trkpt>
      <trkpt lat="43.18663" lon="3.20219">
        <ele>3.6</ele>
        <time>2021-07-20T09:21:25Z</time>
      </trkpt>
      <trkpt lat="43.18663" lon="3.20219">
        <ele>-3.3429642</ele>
        <time>2021-07-20T09:21:26Z</time>
      </trkpt>
      <trkpt lat="43.18663" lon="3.20219">
        <ele>3.6</ele>
        <time>2021-07-20T09:21:27Z</time>
      </trkpt>
      <trkpt lat="43.18663" lon="3.20219">
        <ele>3.6</ele>
        <time>2021-07-20T09:21:28Z</time>
      </trkpt>
      <trkpt lat="43.18663" lon="3.20219">
        <ele>3.6</ele>
        <time>2021-07-20T09:21:29Z</time>
      </trkpt>
      <trkpt lat="43.18663" lon="3.20219">
        <ele>3.6</ele>
        <time>2021-07-20T09:21:30Z</time>
      </trkpt>
      <trkpt lat="43.18663" lon="3.20219">
        <ele>3.6</ele>
        <time>2021-07-20T09:21:31Z</time>
      </trkpt>
      <trkpt lat="43.18663" lon="3.20219">
        <ele>3.6</ele>
        <time>2021-07-20T09:21:32Z</time>
      </trkpt>
      <trkpt lat="43.18663" lon="3.20219">
        <ele>3.6</ele>
        <time>2021-07-20T09:21:33Z</time>
      </trkpt>
      <trkpt lat="43.18663" lon="3.20219">
        <ele>3.6</ele>
        <time>2021-07-20T09:21:34Z</time>
      </trkpt>
      <trkpt lat="43.18663" lon="3.20219">
        <ele>3.6</ele>
        <time>2021-07-20T09:21:35Z</time>
      </trkpt>
      <trkpt lat="43.18663" lon="3.20219">
        <ele>-3.2765653</ele>
        <time>2021-07-20T09:21:36Z</time>
      </trkpt>
      <trkpt lat="43.18663" lon="3.20219">
        <ele>3.6</ele>
        <time>2021-07-20T09:21:37Z</time>
      </trkpt>
      <trkpt lat="43.18663" lon="3.20219">
        <ele>3.6</ele>
        <time>2021-07-20T09:21:38Z</time>
      </trkpt>
      <trkpt lat="43.18663" lon="3.20219">
        <ele>3.6</ele>
        <time>2021-07-20T09:21:39Z</time>
      </trkpt>
      <trkpt lat="43.18663" lon="3.20219">
        <ele>3.6</ele>
        <time>2021-07-20T09:21:40Z</time>
      </trkpt>
      <trkpt lat="43.18663" lon="3.20219">
        <ele>3.6</ele>
        <time>2021-07-20T09:21:41Z</time>
      </trkpt>
      <trkpt lat="43.18663" lon="3.20219">
        <ele>3.6</ele>
        <time>2021-07-20T09:21:42Z</time>
      </trkpt>
      <trkpt lat="43.18663" lon="3.20219">
        <ele>3.6</ele>
        <time>2021-07-20T09:21:43Z</time>
      </trkpt>
      <trkpt lat="43.18663" lon="3.20219">
        <ele>3.6</ele>
        <time>2021-07-20T09:21:44Z</time>
      </trkpt>
      <trkpt lat="43.18663" lon="3.20219">
        <ele>3.6</ele>
        <time>2021-07-20T09:21:45Z</time>
      </trkpt>
      <trkpt lat="43.18663" lon="3.20219">
        <ele>-3.3284395</ele>
        <time>2021-07-20T09:21:46Z</time>
      </trkpt>
      <trkpt lat="43.18663" lon="3.20219">
        <ele>3.6</ele>
        <time>2021-07-20T09:21:47Z</time>
      </trkpt>
      <trkpt lat="43.18663" lon="3.20219">
        <ele>3.6</ele>
        <time>2021-07-20T09:21:48Z</time>
      </trkpt>
      <trkpt lat="43.18663" lon="3.20219">
        <ele>3.6</ele>
        <time>2021-07-20T09:21:49Z</time>
      </trkpt>
      <trkpt lat="43.18663" lon="3.20219">
        <ele>3.6</ele>
        <time>2021-07-20T09:21:50Z</time>
      </trkpt>
      <trkpt lat="43.18663" lon="3.20219">
        <ele>3.6</ele>
        <time>2021-07-20T09:21:51Z</time>
      </trkpt>
      <trkpt lat="43.18663" lon="3.20219">
        <ele>3.6</ele>
        <time>2021-07-20T09:21:52Z</time>
      </trkpt>
      <trkpt lat="43.18663" lon="3.20219">
        <ele>3.6</ele>
        <time>2021-07-20T09:21:53Z</time>
      </trkpt>
      <trkpt lat="43.18663" lon="3.20219">
        <ele>3.6</ele>
        <time>2021-07-20T09:23:15Z</time>
      </trkpt>
      <trkpt lat="43.18663" lon="3.20219">
        <ele>3.6</ele>
        <time>2021-07-20T09:23:17Z</time>
      </trkpt>
      <trkpt lat="43.18663" lon="3.20219">
        <ele>3.6</ele>
        <time>2021-07-20T09:23:18Z</time>
      </trkpt>
      <trkpt lat="43.18663" lon="3.20219">
        <ele>3.6</ele>
        <time>2021-07-20T09:23:19Z</time>
      </trkpt>
      <trkpt lat="43.18663" lon="3.20219">
        <ele>3.6</ele>
        <time>2021-07-20T09:23:20Z</time>
      </trkpt>
      <trkpt lat="43.18663" lon="3.20219">
        <ele>3.6</ele>
        <time>2021-07-20T09:23:21Z</time>
      </trkpt>
      <trkpt lat="43.18663" lon="3.20219">
        <ele>-3.0431302</ele>
        <time>2021-07-20T09:23:22Z</time>
      </trkpt>
      <trkpt lat="43.18663" lon="3.20219">
        <ele>3.6</ele>
        <time>2021-07-20T09:23:23Z</time>
      </trkpt>
      <trkpt lat="43.18663" lon="3.20219">
        <ele>3.6</ele>
        <time>2021-07-20T09:23:24Z</time>
      </trkpt>
      <trkpt lat="43.18663" lon="3.20219">
        <ele>3.6</ele>
        <time>2021-07-20T09:23:25Z</time>
      </trkpt>
      <trkpt lat="43.18663" lon="3.20219">
        <ele>3.6</ele>
        <time>2021-07-20T09:23:26Z</time>
      </trkpt>
      <trkpt lat="43.18663" lon="3.20219">
        <ele>3.6</ele>
        <time>2021-07-20T09:23:27Z</time>
      </trkpt>
      <trkpt lat="43.18663" lon="3.20219">
        <ele>3.6</ele>
        <time>2021-07-20T09:23:28Z</time>
      </trkpt>
      <trkpt lat="43.18663" lon="3.20219">
        <ele>3.6</ele>
        <time>2021-07-20T09:23:29Z</time>
      </trkpt>
      <trkpt lat="43.18663" lon="3.20219">
        <ele>3.6</ele>
        <time>2021-07-20T09:23:30Z</time>
      </trkpt>
      <trkpt lat="43.18663" lon="3.20219">
        <ele>3.6</ele>
        <time>2021-07-20T09:23:31Z</time>
      </trkpt>
      <trkpt lat="43.18663" lon="3.20219">
        <ele>-3.0244553</ele>
        <time>2021-07-20T09:23:32Z</time>
      </trkpt>
      <trkpt lat="43.18663" lon="3.20219">
        <ele>3.6</ele>
        <time>2021-07-20T09:23:33Z</time>
      </trkpt>
      <trkpt lat="43.18663" lon="3.20219">
        <ele>3.6</ele>
        <time>2021-07-20T09:23:34Z</time>
      </trkpt>
      <trkpt lat="43.18663" lon="3.20219">
        <ele>3.6</ele>
        <time>2021-07-20T09:23:35Z</time>
      </trkpt>
      <trkpt lat="43.18663" lon="3.20219">
        <ele>3.6</ele>
        <time>2021-07-20T09:23:36Z</time>
      </trkpt>
      <trkpt lat="43.18663" lon="3.20219">
        <ele>3.6</ele>
        <time>2021-07-20T09:23:37Z</time>
      </trkpt>
      <trkpt lat="43.18663" lon="3.20219">
        <ele>3.6</ele>
        <time>2021-07-20T09:23:38Z</time>
      </trkpt>
      <trkpt lat="43.18663" lon="3.20219">
        <ele>3.6</ele>
        <time>2021-07-20T09:23:39Z</time>
      </trkpt>
      <trkpt lat="43.18663" lon="3.20219">
        <ele>3.6</ele>
        <time>2021-07-20T09:23:40Z</time>
      </trkpt>
      <trkpt lat="43.18663" lon="3.20219">
        <ele>-3.0109677</ele>
        <time>2021-07-20T09:23:41Z</time>
      </trkpt>
      <trkpt lat="43.18663" lon="3.20219">
        <ele>3.6</ele>
        <time>2021-07-20T09:23:42Z</time>
      </trkpt>
      <trkpt lat="43.18663" lon="3.20219">
        <ele>3.6</ele>
        <time>2021-07-20T09:23:43Z</time>
      </trkpt>
      <trkpt lat="43.18663" lon="3.20219">
        <ele>3.6</ele>
        <time>2021-07-20T09:23:44Z</time>
      </trkpt>
      <trkpt lat="43.18663" lon="3.20219">
        <ele>3.6</ele>
        <time>2021-07-20T09:23:45Z</time>
      </trkpt>
      <trkpt lat="43.18663" lon="3.20219">
        <ele>3.6</ele>
        <time>2021-07-20T09:23:46Z</time>
      </trkpt>
      <trkpt lat="43.18663" lon="3.20219">
        <ele>3.6</ele>
        <time>2021-07-20T09:23:47Z</time>
      </trkpt>
      <trkpt lat="43.18663" lon="3.20219">
        <ele>3.6</ele>
        <time>2021-07-20T09:23:48Z</time>
      </trkpt>
      <trkpt lat="43.18663" lon="3.20219">
        <ele>3.6</ele>
        <time>2021-07-20T09:23:49Z</time>
      </trkpt>
      <trkpt lat="43.18663" lon="3.20219">
        <ele>3.6</ele>
        <time>2021-07-20T09:23:50Z</time>
      </trkpt>
      <trkpt lat="43.18663" lon="3.20219">
        <ele>-3.0244553</ele>
        <time>2021-07-20T09:23:51Z</time>
      </trkpt>
      <trkpt lat="43.18663" lon="3.20219">
        <ele>3.6</ele>
        <time>2021-07-20T09:23:52Z</time>
      </trkpt>
      <trkpt lat="43.18663" lon="3.20219">
        <ele>3.6</ele>
        <time>2021-07-20T09:23:53Z</time>
      </trkpt>
      <trkpt lat="43.18663" lon="3.20219">
        <ele>3.6</ele>
        <time>2021-07-20T09:23:54Z</time>
      </trkpt>
      <trkpt lat="43.18663" lon="3.20219">
        <ele>3.6</ele>
        <time>2021-07-20T09:23:55Z</time>
      </trkpt>
      <trkpt lat="43.18663" lon="3.20219">
        <ele>3.6</ele>
        <time>2021-07-20T09:23:56Z</time>
      </trkpt>
      <trkpt lat="43.18663" lon="3.20219">
        <ele>3.6</ele>
        <time>2021-07-20T09:23:57Z</time>
      </trkpt>
      <trkpt lat="43.18663" lon="3.20219">
        <ele>3.6</ele>
        <time>2021-07-20T09:23:58Z</time>
      </trkpt>
      <trkpt lat="43.18663" lon="3.20219">
        <ele>3.6</ele>
        <time>2021-07-20T09:23:59Z</time>
      </trkpt>
      <trkpt lat="43.18663" lon="3.20219">
        <ele>3.6</ele>
        <time>2021-07-20T09:24:00Z</time>
      </trkpt>
      <trkpt lat="43.18663" lon="3.20219">
        <ele>-3.05143</ele>
        <time>2021-07-20T09:24:01Z</time>
      </trkpt>
      <trkpt lat="43.18663" lon="3.20219">
        <ele>3.6</ele>
        <time>2021-07-20T09:24:02Z</time>
      </trkpt>
      <trkpt lat="43.18663" lon="3.20219">
        <ele>3.6</ele>
        <time>2021-07-20T09:24:03Z</time>
      </trkpt>
      <trkpt lat="43.18663" lon="3.20219">
        <ele>3.6</ele>
        <time>2021-07-20T09:24:04Z</time>
      </trkpt>
      <trkpt lat="43.18663" lon="3.20219">
        <ele>3.6</ele>
        <time>2021-07-20T09:24:05Z</time>
      </trkpt>
      <trkpt lat="43.18663" lon="3.20219">
        <ele>3.6</ele>
        <time>2021-07-20T09:24:06Z</time>
      </trkpt>
      <trkpt lat="43.18663" lon="3.20219">
        <ele>3.6</ele>
        <time>2021-07-20T09:24:07Z</time>
      </trkpt>
      <trkpt lat="43.18663" lon="3.20219">
        <ele>3.6</ele>
        <time>2021-07-20T09:24:08Z</time>
      </trkpt>
      <trkpt lat="43.18663" lon="3.20219">
        <ele>3.6</ele>
        <time>2021-07-20T09:24:09Z</time>
      </trkpt>
      <trkpt lat="43.18663" lon="3.20219">
        <ele>3.6</ele>
        <time>2021-07-20T09:24:10Z</time>
      </trkpt>
      <trkpt lat="43.18663" lon="3.20219">
        <ele>-3.065955</ele>
        <time>2021-07-20T09:24:11Z</time>
      </trkpt>
      <trkpt lat="43.18663" lon="3.20219">
        <ele>3.6</ele>
        <time>2021-07-20T09:24:12Z</time>
      </trkpt>
      <trkpt lat="43.18663" lon="3.20219">
        <ele>3.6</ele>
        <time>2021-07-20T09:24:13Z</time>
      </trkpt>
      <trkpt lat="43.18663" lon="3.20219">
        <ele>3.6</ele>
        <time>2021-07-20T09:24:14Z</time>
      </trkpt>
      <trkpt lat="43.18663" lon="3.20219">
        <ele>3.6</ele>
        <time>2021-07-20T09:24:15Z</time>
      </trkpt>
      <trkpt lat="43.18663" lon="3.20219">
        <ele>3.6</ele>
        <time>2021-07-20T09:24:16Z</time>
      </trkpt>
      <trkpt lat="43.18663" lon="3.20219">
        <ele>3.6</ele>
        <time>2021-07-20T09:24:17Z</time>
      </trkpt>
      <trkpt lat="43.18663" lon="3.20219">
        <ele>3.6</ele>
        <time>2021-07-20T09:24:18Z</time>
      </trkpt>
      <trkpt lat="43.18663" lon="3.20219">
        <ele>3.6</ele>
        <time>2021-07-20T09:24:19Z</time>
      </trkpt>
      <trkpt lat="43.18663" lon="3.20219">
        <ele>3.6</ele>
        <time>2021-07-20T09:24:20Z</time>
      </trkpt>
      <trkpt lat="43.18663" lon="3.20219">
        <ele>-3.0690675</ele>
        <time>2021-07-20T09:24:21Z</time>
      </trkpt>
      <trkpt lat="43.18663" lon="3.20219">
        <ele>3.6</ele>
        <time>2021-07-20T09:24:22Z</time>
      </trkpt>
      <trkpt lat="43.18663" lon="3.20219">
        <ele>3.6</ele>
        <time>2021-07-20T09:24:23Z</time>
      </trkpt>
      <trkpt lat="43.18663" lon="3.20219">
        <ele>3.6</ele>
        <time>2021-07-20T09:24:24Z</time>
      </trkpt>
      <trkpt lat="43.18663" lon="3.20219">
        <ele>3.6</ele>
        <time>2021-07-20T09:24:25Z</time>
      </trkpt>
      <trkpt lat="43.18663" lon="3.20219">
        <ele>3.6</ele>
        <time>2021-07-20T09:24:26Z</time>
      </trkpt>
      <trkpt lat="43.18663" lon="3.20219">
        <ele>3.6</ele>
        <time>2021-07-20T09:24:27Z</time>
      </trkpt>
      <trkpt lat="43.18663" lon="3.20219">
        <ele>3.6</ele>
        <time>2021-07-20T09:24:28Z</time>
      </trkpt>
      <trkpt lat="43.18663" lon="3.20219">
        <ele>3.6</ele>
        <time>2021-07-20T09:24:29Z</time>
      </trkpt>
      <trkpt lat="43.18663" lon="3.20219">
        <ele>3.6</ele>
        <time>2021-07-20T09:24:30Z</time>
      </trkpt>
      <trkpt lat="43.18662" lon="3.20218">
        <ele>3.5</ele>
        <time>2021-07-20T09:24:31Z</time>
      </trkpt>
      <trkpt lat="43.18662" lon="3.20217">
        <ele>-3.0752923</ele>
        <time>2021-07-20T09:24:32Z</time>
      </trkpt>
      <trkpt lat="43.18663" lon="3.20218">
        <ele>3.5</ele>
        <time>2021-07-20T09:24:33Z</time>
      </trkpt>
      <trkpt lat="43.18663" lon="3.20218">
        <ele>3.5</ele>
        <time>2021-07-20T09:24:34Z</time>
      </trkpt>
      <trkpt lat="43.18664" lon="3.20219">
        <ele>3.5</ele>
        <time>2021-07-20T09:24:35Z</time>
      </trkpt>
      <trkpt lat="43.18665" lon="3.20219">
        <ele>3.6</ele>
        <time>2021-07-20T09:24:36Z</time>
      </trkpt>
      <trkpt lat="43.18665" lon="3.20221">
        <ele>3.6</ele>
        <time>2021-07-20T09:24:37Z</time>
      </trkpt>
      <trkpt lat="43.18665" lon="3.20221">
        <ele>3.6</ele>
        <time>2021-07-20T09:24:38Z</time>
      </trkpt>
      <trkpt lat="43.18665" lon="3.20221">
        <ele>3.6</ele>
        <time>2021-07-20T09:24:39Z</time>
      </trkpt>
      <trkpt lat="43.18665" lon="3.20221">
        <ele>3.6</ele>
        <time>2021-07-20T09:24:40Z</time>
      </trkpt>
      <trkpt lat="43.18665" lon="3.20221">
        <ele>3.6</ele>
        <time>2021-07-20T09:24:41Z</time>
      </trkpt>
      <trkpt lat="43.18665" lon="3.20221">
        <ele>-3.0140803</ele>
        <time>2021-07-20T09:24:42Z</time>
      </trkpt>
      <trkpt lat="43.18665" lon="3.20221">
        <ele>3.6</ele>
        <time>2021-07-20T09:24:43Z</time>
      </trkpt>
      <trkpt lat="43.18665" lon="3.20221">
        <ele>3.6</ele>
        <time>2021-07-20T09:24:44Z</time>
      </trkpt>
      <trkpt lat="43.18665" lon="3.20221">
        <ele>3.6</ele>
        <time>2021-07-20T09:24:45Z</time>
      </trkpt>
      <trkpt lat="43.18665" lon="3.20221">
        <ele>3.6</ele>
        <time>2021-07-20T09:24:46Z</time>
      </trkpt>
      <trkpt lat="43.18665" lon="3.20221">
        <ele>3.6</ele>
        <time>2021-07-20T09:24:47Z</time>
      </trkpt>
      <trkpt lat="43.18665" lon="3.20221">
        <ele>3.6</ele>
        <time>2021-07-20T09:24:48Z</time>
      </trkpt>
      <trkpt lat="43.18665" lon="3.20221">
        <ele>3.6</ele>
        <time>2021-07-20T09:24:49Z</time>
      </trkpt>
      <trkpt lat="43.18665" lon="3.20221">
        <ele>3.6</ele>
        <time>2021-07-20T09:24:50Z</time>
      </trkpt>
      <trkpt lat="43.18665" lon="3.20221">
        <ele>3.6</ele>
        <time>2021-07-20T09:24:51Z</time>
      </trkpt>
      <trkpt lat="43.18667" lon="3.20221">
        <ele>-2.9985178</ele>
        <time>2021-07-20T09:24:52Z</time>
      </trkpt>
      <trkpt lat="43.18666" lon="3.2022">
        <ele>3.6</ele>
        <time>2021-07-20T09:24:53Z</time>
      </trkpt>
      <trkpt lat="43.18666" lon="3.2022">
        <ele>3.6</ele>
        <time>2021-07-20T09:24:54Z</time>
      </trkpt>
      <trkpt lat="43.18666" lon="3.2022">
        <ele>3.6</ele>
        <time>2021-07-20T09:24:55Z</time>
      </trkpt>
      <trkpt lat="43.18666" lon="3.2022">
        <ele>3.6</ele>
        <time>2021-07-20T09:24:56Z</time>
      </trkpt>
      <trkpt lat="43.18666" lon="3.2022">
        <ele>3.6</ele>
        <time>2021-07-20T09:24:57Z</time>
      </trkpt>
      <trkpt lat="43.18666" lon="3.2022">
        <ele>3.6</ele>
        <time>2021-07-20T09:24:58Z</time>
      </trkpt>
      <trkpt lat="43.18665" lon="3.2022">
        <ele>3.6</ele>
        <time>2021-07-20T09:24:59Z</time>
      </trkpt>
      <trkpt lat="43.18664" lon="3.20219">
        <ele>3.6</ele>
        <time>2021-07-20T09:25:00Z</time>
      </trkpt>
      <trkpt lat="43.18663" lon="3.20218">
        <ele>3.5</ele>
        <time>2021-07-20T09:25:01Z</time>
      </trkpt>
      <trkpt lat="43.18662" lon="3.20216">
        <ele>-3.5265975</ele>
        <time>2021-07-20T09:25:02Z</time>
      </trkpt>
      <trkpt lat="43.18661" lon="3.20214">
        <ele>3.4</ele>
        <time>2021-07-20T09:25:03Z</time>
      </trkpt>
      <trkpt lat="43.1866" lon="3.20212">
        <ele>3.3</ele>
        <time>2021-07-20T09:25:04Z</time>
      </trkpt>
      <trkpt lat="43.18658" lon="3.2021">
        <ele>3.3</ele>
        <time>2021-07-20T09:25:05Z</time>
      </trkpt>
      <trkpt lat="43.18657" lon="3.20208">
        <ele>3.2</ele>
        <time>2021-07-20T09:25:06Z</time>
      </trkpt>
      <trkpt lat="43.18655" lon="3.20206">
        <ele>3.2</ele>
        <time>2021-07-20T09:25:07Z</time>
      </trkpt>
      <trkpt lat="43.18654" lon="3.20203">
        <ele>3.1</ele>
        <time>2021-07-20T09:25:08Z</time>
      </trkpt>
      <trkpt lat="43.18653" lon="3.202">
        <ele>3</ele>
        <time>2021-07-20T09:25:09Z</time>
      </trkpt>
      <trkpt lat="43.18652" lon="3.20198">
        <ele>3</ele>
        <time>2021-07-20T09:25:10Z</time>
      </trkpt>
      <trkpt lat="43.1865" lon="3.20196">
        <ele>2.9</ele>
        <time>2021-07-20T09:25:11Z</time>
      </trkpt>
      <trkpt lat="43.18647" lon="3.20194">
        <ele>-3.4518995</ele>
        <time>2021-07-20T09:25:12Z</time>
      </trkpt>
      <trkpt lat="43.18646" lon="3.20191">
        <ele>2.9</ele>
        <time>2021-07-20T09:25:13Z</time>
      </trkpt>
      <trkpt lat="43.18644" lon="3.20188">
        <ele>2.8</ele>
        <time>2021-07-20T09:25:14Z</time>
      </trkpt>
      <trkpt lat="43.18642" lon="3.20185">
        <ele>2.8</ele>
        <time>2021-07-20T09:25:15Z</time>
      </trkpt>
      <trkpt lat="43.18639" lon="3.20182">
        <ele>2.8</ele>
        <time>2021-07-20T09:25:16Z</time>
      </trkpt>
      <trkpt lat="43.18638" lon="3.20179">
        <ele>2.8</ele>
        <time>2021-07-20T09:25:17Z</time>
      </trkpt>
      <trkpt lat="43.18635" lon="3.20176">
        <ele>2.8</ele>
        <time>2021-07-20T09:25:18Z</time>
      </trkpt>
      <trkpt lat="43.18633" lon="3.20172">
        <ele>2.8</ele>
        <time>2021-07-20T09:25:19Z</time>
      </trkpt>
      <trkpt lat="43.18631" lon="3.20169">
        <ele>2.8</ele>
        <time>2021-07-20T09:25:20Z</time>
      </trkpt>
      <trkpt lat="43.18628" lon="3.20166">
        <ele>2.8</ele>
        <time>2021-07-20T09:25:21Z</time>
      </trkpt>
      <trkpt lat="43.18626" lon="3.20163">
        <ele>-3.2018664</ele>
        <time>2021-07-20T09:25:22Z</time>
      </trkpt>
      <trkpt lat="43.18623" lon="3.2016">
        <ele>3</ele>
        <time>2021-07-20T09:25:23Z</time>
      </trkpt>
      <trkpt lat="43.18621" lon="3.20157">
        <ele>3</ele>
        <time>2021-07-20T09:25:24Z</time>
      </trkpt>
      <trkpt lat="43.18619" lon="3.20154">
        <ele>3</ele>
        <time>2021-07-20T09:25:25Z</time>
      </trkpt>
      <trkpt lat="43.18617" lon="3.20151">
        <ele>3.1</ele>
        <time>2021-07-20T09:25:26Z</time>
      </trkpt>
      <trkpt lat="43.18614" lon="3.20147">
        <ele>3.1</ele>
        <time>2021-07-20T09:25:27Z</time>
      </trkpt>
      <trkpt lat="43.18612" lon="3.20144">
        <ele>3.1</ele>
        <time>2021-07-20T09:25:28Z</time>
      </trkpt>
      <trkpt lat="43.18609" lon="3.20141">
        <ele>3.1</ele>
        <time>2021-07-20T09:25:29Z</time>
      </trkpt>
      <trkpt lat="43.18606" lon="3.20138">
        <ele>3.2</ele>
        <time>2021-07-20T09:25:30Z</time>
      </trkpt>
      <trkpt lat="43.18604" lon="3.20135">
        <ele>-2.930043</ele>
        <time>2021-07-20T09:25:31Z</time>
      </trkpt>
      <trkpt lat="43.18601" lon="3.20131">
        <ele>3.1</ele>
        <time>2021-07-20T09:25:32Z</time>
      </trkpt>
      <trkpt lat="43.18599" lon="3.20127">
        <ele>3.1</ele>
        <time>2021-07-20T09:25:33Z</time>
      </trkpt>
      <trkpt lat="43.18597" lon="3.20124">
        <ele>3.1</ele>
        <time>2021-07-20T09:25:34Z</time>
      </trkpt>
      <trkpt lat="43.18594" lon="3.2012">
        <ele>3</ele>
        <time>2021-07-20T09:25:35Z</time>
      </trkpt>
      <trkpt lat="43.18591" lon="3.20117">
        <ele>3</ele>
        <time>2021-07-20T09:25:36Z</time>
      </trkpt>
      <trkpt lat="43.18589" lon="3.20113">
        <ele>2.9</ele>
        <time>2021-07-20T09:25:37Z</time>
      </trkpt>
      <trkpt lat="43.18586" lon="3.2011">
        <ele>2.9</ele>
        <time>2021-07-20T09:25:38Z</time>
      </trkpt>
      <trkpt lat="43.18583" lon="3.20106">
        <ele>2.8</ele>
        <time>2021-07-20T09:25:39Z</time>
      </trkpt>
      <trkpt lat="43.1858" lon="3.20103">
        <ele>2.7</ele>
        <time>2021-07-20T09:25:40Z</time>
      </trkpt>
      <trkpt lat="43.18578" lon="3.20099">
        <ele>-2.977768</ele>
        <time>2021-07-20T09:25:41Z</time>
      </trkpt>
      <trkpt lat="43.18575" lon="3.20095">
        <ele>2.4</ele>
        <time>2021-07-20T09:25:42Z</time>
      </trkpt>
      <trkpt lat="43.18573" lon="3.20091">
        <ele>2.3</ele>
        <time>2021-07-20T09:25:43Z</time>
      </trkpt>
      <trkpt lat="43.1857" lon="3.20088">
        <ele>2.2</ele>
        <time>2021-07-20T09:25:44Z</time>
      </trkpt>
      <trkpt lat="43.18567" lon="3.20084">
        <ele>2</ele>
        <time>2021-07-20T09:25:45Z</time>
      </trkpt>
      <trkpt lat="43.18565" lon="3.20081">
        <ele>2</ele>
        <time>2021-07-20T09:25:46Z</time>
      </trkpt>
      <trkpt lat="43.18562" lon="3.20077">
        <ele>2.1</ele>
        <time>2021-07-20T09:25:47Z</time>
      </trkpt>
      <trkpt lat="43.18559" lon="3.20074">
        <ele>2.1</ele>
        <time>2021-07-20T09:25:48Z</time>
      </trkpt>
      <trkpt lat="43.18557" lon="3.20071">
        <ele>2.1</ele>
        <time>2021-07-20T09:25:49Z</time>
      </trkpt>
      <trkpt lat="43.18554" lon="3.20067">
        <ele>2.2</ele>
        <time>2021-07-20T09:25:50Z</time>
      </trkpt>
      <trkpt lat="43.18552" lon="3.20064">
        <ele>-2.896843</ele>
        <time>2021-07-20T09:25:51Z</time>
      </trkpt>
      <trkpt lat="43.18549" lon="3.2006">
        <ele>2.3</ele>
        <time>2021-07-20T09:25:52Z</time>
      </trkpt>
      <trkpt lat="43.18547" lon="3.20055">
        <ele>2.4</ele>
        <time>2021-07-20T09:25:53Z</time>
      </trkpt>
      <trkpt lat="43.18545" lon="3.20051">
        <ele>2.5</ele>
        <time>2021-07-20T09:25:54Z</time>
      </trkpt>
      <trkpt lat="43.18543" lon="3.20047">
        <ele>2.6</ele>
        <time>2021-07-20T09:25:55Z</time>
      </trkpt>
      <trkpt lat="43.18541" lon="3.20043">
        <ele>2.7</ele>
        <time>2021-07-20T09:25:56Z</time>
      </trkpt>
      <trkpt lat="43.18538" lon="3.2004">
        <ele>2.9</ele>
        <time>2021-07-20T09:25:57Z</time>
      </trkpt>
      <trkpt lat="43.18535" lon="3.20036">
        <ele>3</ele>
        <time>2021-07-20T09:25:58Z</time>
      </trkpt>
      <trkpt lat="43.18532" lon="3.20032">
        <ele>3.1</ele>
        <time>2021-07-20T09:25:59Z</time>
      </trkpt>
      <trkpt lat="43.1853" lon="3.20029">
        <ele>3.3</ele>
        <time>2021-07-20T09:26:00Z</time>
      </trkpt>
      <trkpt lat="43.18527" lon="3.20025">
        <ele>-3.125092</ele>
        <time>2021-07-20T09:26:01Z</time>
      </trkpt>
      <trkpt lat="43.18524" lon="3.20021">
        <ele>3.6</ele>
        <time>2021-07-20T09:26:02Z</time>
      </trkpt>
      <trkpt lat="43.18522" lon="3.20018">
        <ele>3.7</ele>
        <time>2021-07-20T09:26:03Z</time>
      </trkpt>
      <trkpt lat="43.18519" lon="3.20015">
        <ele>3.9</ele>
        <time>2021-07-20T09:26:04Z</time>
      </trkpt>
      <trkpt lat="43.18517" lon="3.20011">
        <ele>4.1</ele>
        <time>2021-07-20T09:26:05Z</time>
      </trkpt>
      <trkpt lat="43.18514" lon="3.20008">
        <ele>4.2</ele>
        <time>2021-07-20T09:26:06Z</time>
      </trkpt>
      <trkpt lat="43.18512" lon="3.20005">
        <ele>4.4</ele>
        <time>2021-07-20T09:26:07Z</time>
      </trkpt>
      <trkpt lat="43.1851" lon="3.20002">
        <ele>4.6</ele>
        <time>2021-07-20T09:26:08Z</time>
      </trkpt>
      <trkpt lat="43.18507" lon="3.19999">
        <ele>4.7</ele>
        <time>2021-07-20T09:26:09Z</time>
      </trkpt>
      <trkpt lat="43.18505" lon="3.19996">
        <ele>4.8</ele>
        <time>2021-07-20T09:26:10Z</time>
      </trkpt>
      <trkpt lat="43.18502" lon="3.19992">
        <ele>4.8</ele>
        <time>2021-07-20T09:26:11Z</time>
      </trkpt>
      <trkpt lat="43.18499" lon="3.19989">
        <ele>-2.720467</ele>
        <time>2021-07-20T09:26:12Z</time>
      </trkpt>
      <trkpt lat="43.18497" lon="3.19985">
        <ele>4.8</ele>
        <time>2021-07-20T09:26:13Z</time>
      </trkpt>
      <trkpt lat="43.18494" lon="3.19982">
        <ele>4.8</ele>
        <time>2021-07-20T09:26:14Z</time>
      </trkpt>
      <trkpt lat="43.18491" lon="3.19978">
        <ele>4.8</ele>
        <time>2021-07-20T09:26:15Z</time>
      </trkpt>
      <trkpt lat="43.18489" lon="3.19974">
        <ele>4.7</ele>
        <time>2021-07-20T09:26:16Z</time>
      </trkpt>
      <trkpt lat="43.18486" lon="3.19971">
        <ele>4.7</ele>
        <time>2021-07-20T09:26:17Z</time>
      </trkpt>
      <trkpt lat="43.18483" lon="3.19967">
        <ele>4.7</ele>
        <time>2021-07-20T09:26:18Z</time>
      </trkpt>
      <trkpt lat="43.18481" lon="3.19964">
        <ele>4.7</ele>
        <time>2021-07-20T09:26:19Z</time>
      </trkpt>
      <trkpt lat="43.18478" lon="3.1996">
        <ele>4.6</ele>
        <time>2021-07-20T09:26:20Z</time>
      </trkpt>
      <trkpt lat="43.18475" lon="3.19956">
        <ele>4.6</ele>
        <time>2021-07-20T09:26:21Z</time>
      </trkpt>
      <trkpt lat="43.18473" lon="3.19953">
        <ele>-2.9985178</ele>
        <time>2021-07-20T09:26:22Z</time>
      </trkpt>
      <trkpt lat="43.1847" lon="3.19949">
        <ele>4.6</ele>
        <time>2021-07-20T09:26:23Z</time>
      </trkpt>
      <trkpt lat="43.18467" lon="3.19945">
        <ele>4.6</ele>
        <time>2021-07-20T09:26:24Z</time>
      </trkpt>
      <trkpt lat="43.18465" lon="3.19942">
        <ele>4.6</ele>
        <time>2021-07-20T09:26:25Z</time>
      </trkpt>
      <trkpt lat="43.18462" lon="3.19938">
        <ele>4.6</ele>
        <time>2021-07-20T09:26:26Z</time>
      </trkpt>
      <trkpt lat="43.18459" lon="3.19934">
        <ele>4.6</ele>
        <time>2021-07-20T09:26:27Z</time>
      </trkpt>
      <trkpt lat="43.18456" lon="3.19931">
        <ele>4.6</ele>
        <time>2021-07-20T09:26:28Z</time>
      </trkpt>
      <trkpt lat="43.18453" lon="3.19927">
        <ele>4.6</ele>
        <time>2021-07-20T09:26:29Z</time>
      </trkpt>
      <trkpt lat="43.1845" lon="3.19923">
        <ele>4.6</ele>
        <time>2021-07-20T09:26:30Z</time>
      </trkpt>
      <trkpt lat="43.18448" lon="3.19919">
        <ele>4.6</ele>
        <time>2021-07-20T09:26:31Z</time>
      </trkpt>
      <trkpt lat="43.18444" lon="3.19915">
        <ele>-3.0005927</ele>
        <time>2021-07-20T09:26:32Z</time>
      </trkpt>
      <trkpt lat="43.18442" lon="3.19912">
        <ele>4.7</ele>
        <time>2021-07-20T09:26:33Z</time>
      </trkpt>
      <trkpt lat="43.18439" lon="3.19908">
        <ele>4.7</ele>
        <time>2021-07-20T09:26:34Z</time>
      </trkpt>
      <trkpt lat="43.18436" lon="3.19904">
        <ele>4.7</ele>
        <time>2021-07-20T09:26:35Z</time>
      </trkpt>
      <trkpt lat="43.18433" lon="3.199">
        <ele>4.7</ele>
        <time>2021-07-20T09:26:36Z</time>
      </trkpt>
      <trkpt lat="43.1843" lon="3.19896">
        <ele>4.8</ele>
        <time>2021-07-20T09:26:37Z</time>
      </trkpt>
      <trkpt lat="43.18427" lon="3.19892">
        <ele>4.8</ele>
        <time>2021-07-20T09:26:38Z</time>
      </trkpt>
      <trkpt lat="43.18424" lon="3.19888">
        <ele>4.8</ele>
        <time>2021-07-20T09:26:39Z</time>
      </trkpt>
      <trkpt lat="43.18421" lon="3.19884">
        <ele>4.9</ele>
        <time>2021-07-20T09:26:40Z</time>
      </trkpt>
      <trkpt lat="43.18418" lon="3.1988">
        <ele>5</ele>
        <time>2021-07-20T09:26:41Z</time>
      </trkpt>
      <trkpt lat="43.18416" lon="3.19877">
        <ele>-2.8833554</ele>
        <time>2021-07-20T09:26:42Z</time>
      </trkpt>
      <trkpt lat="43.18412" lon="3.19873">
        <ele>5</ele>
        <time>2021-07-20T09:26:43Z</time>
      </trkpt>
      <trkpt lat="43.1841" lon="3.19869">
        <ele>5</ele>
        <time>2021-07-20T09:26:44Z</time>
      </trkpt>
      <trkpt lat="43.18407" lon="3.19865">
        <ele>5</ele>
        <time>2021-07-20T09:26:45Z</time>
      </trkpt>
      <trkpt lat="43.18404" lon="3.19861">
        <ele>5</ele>
        <time>2021-07-20T09:26:46Z</time>
      </trkpt>
      <trkpt lat="43.18401" lon="3.19858">
        <ele>5</ele>
        <time>2021-07-20T09:26:47Z</time>
      </trkpt>
      <trkpt lat="43.18397" lon="3.19856">
        <ele>5</ele>
        <time>2021-07-20T09:26:48Z</time>
      </trkpt>
      <trkpt lat="43.18394" lon="3.19853">
        <ele>5</ele>
        <time>2021-07-20T09:26:49Z</time>
      </trkpt>
      <trkpt lat="43.18391" lon="3.19849">
        <ele>5</ele>
        <time>2021-07-20T09:26:50Z</time>
      </trkpt>
      <trkpt lat="43.18388" lon="3.19845">
        <ele>5</ele>
        <time>2021-07-20T09:26:51Z</time>
      </trkpt>
      <trkpt lat="43.18385" lon="3.19842">
        <ele>-3.0441675</ele>
        <time>2021-07-20T09:26:52Z</time>
      </trkpt>
      <trkpt lat="43.18382" lon="3.19838">
        <ele>5</ele>
        <time>2021-07-20T09:26:53Z</time>
      </trkpt>
      <trkpt lat="43.1838" lon="3.19834">
        <ele>5</ele>
        <time>2021-07-20T09:26:54Z</time>
      </trkpt>
      <trkpt lat="43.18377" lon="3.1983">
        <ele>4.9</ele>
        <time>2021-07-20T09:26:55Z</time>
      </trkpt>
      <trkpt lat="43.18374" lon="3.19826">
        <ele>4.9</ele>
        <time>2021-07-20T09:26:56Z</time>
      </trkpt>
      <trkpt lat="43.18371" lon="3.19822">
        <ele>4.8</ele>
        <time>2021-07-20T09:26:57Z</time>
      </trkpt>
      <trkpt lat="43.18368" lon="3.19819">
        <ele>4.7</ele>
        <time>2021-07-20T09:26:58Z</time>
      </trkpt>
      <trkpt lat="43.18366" lon="3.19815">
        <ele>4.7</ele>
        <time>2021-07-20T09:26:59Z</time>
      </trkpt>
      <trkpt lat="43.18362" lon="3.19811">
        <ele>4.6</ele>
        <time>2021-07-20T09:27:00Z</time>
      </trkpt>
      <trkpt lat="43.18359" lon="3.19808">
        <ele>-3.0047429</ele>
        <time>2021-07-20T09:27:01Z</time>
      </trkpt>
      <trkpt lat="43.18357" lon="3.19803">
        <ele>4.5</ele>
        <time>2021-07-20T09:27:02Z</time>
      </trkpt>
      <trkpt lat="43.18354" lon="3.19799">
        <ele>4.5</ele>
        <time>2021-07-20T09:27:03Z</time>
      </trkpt>
      <trkpt lat="43.18351" lon="3.19795">
        <ele>4.4</ele>
        <time>2021-07-20T09:27:04Z</time>
      </trkpt>
      <trkpt lat="43.18348" lon="3.19792">
        <ele>4.4</ele>
        <time>2021-07-20T09:27:05Z</time>
      </trkpt>
      <trkpt lat="43.18345" lon="3.19788">
        <ele>4.4</ele>
        <time>2021-07-20T09:27:06Z</time>
      </trkpt>
      <trkpt lat="43.18342" lon="3.19783">
        <ele>4.3</ele>
        <time>2021-07-20T09:27:07Z</time>
      </trkpt>
      <trkpt lat="43.18339" lon="3.19779">
        <ele>4.3</ele>
        <time>2021-07-20T09:27:08Z</time>
      </trkpt>
      <trkpt lat="43.18336" lon="3.19775">
        <ele>4.3</ele>
        <time>2021-07-20T09:27:09Z</time>
      </trkpt>
      <trkpt lat="43.18333" lon="3.19771">
        <ele>4</ele>
        <time>2021-07-20T09:27:10Z</time>
      </trkpt>
      <trkpt lat="43.1833" lon="3.19768">
        <ele>-3.08878</ele>
        <time>2021-07-20T09:27:11Z</time>
      </trkpt>
      <trkpt lat="43.18327" lon="3.19764">
        <ele>4</ele>
        <time>2021-07-20T09:27:12Z</time>
      </trkpt>
      <trkpt lat="43.18324" lon="3.1976">
        <ele>4</ele>
        <time>2021-07-20T09:27:13Z</time>
      </trkpt>
      <trkpt lat="43.18321" lon="3.19756">
        <ele>4</ele>
        <time>2021-07-20T09:27:14Z</time>
      </trkpt>
      <trkpt lat="43.18318" lon="3.19752">
        <ele>4</ele>
        <time>2021-07-20T09:27:15Z</time>
      </trkpt>
      <trkpt lat="43.18316" lon="3.19748">
        <ele>4</ele>
        <time>2021-07-20T09:27:16Z</time>
      </trkpt>
      <trkpt lat="43.18313" lon="3.19744">
        <ele>3.9</ele>
        <time>2021-07-20T09:27:17Z</time>
      </trkpt>
      <trkpt lat="43.18309" lon="3.1974">
        <ele>3.8</ele>
        <time>2021-07-20T09:27:18Z</time>
      </trkpt>
      <trkpt lat="43.18306" lon="3.19736">
        <ele>3.7</ele>
        <time>2021-07-20T09:27:19Z</time>
      </trkpt>
      <trkpt lat="43.18303" lon="3.19732">
        <ele>3.6</ele>
        <time>2021-07-20T09:27:20Z</time>
      </trkpt>
      <trkpt lat="43.183" lon="3.19728">
        <ele>-3.1074548</ele>
        <time>2021-07-20T09:27:21Z</time>
      </trkpt>
      <trkpt lat="43.18297" lon="3.19724">
        <ele>3.5</ele>
        <time>2021-07-20T09:27:22Z</time>
      </trkpt>
      <trkpt lat="43.18295" lon="3.1972">
        <ele>3.5</ele>
        <time>2021-07-20T09:27:23Z</time>
      </trkpt>
      <trkpt lat="43.18292" lon="3.19716">
        <ele>3.4</ele>
        <time>2021-07-20T09:27:24Z</time>
      </trkpt>
      <trkpt lat="43.18289" lon="3.19713">
        <ele>3.3</ele>
        <time>2021-07-20T09:27:25Z</time>
      </trkpt>
      <trkpt lat="43.18286" lon="3.19709">
        <ele>3.3</ele>
        <time>2021-07-20T09:27:26Z</time>
      </trkpt>
      <trkpt lat="43.18283" lon="3.19705">
        <ele>3.2</ele>
        <time>2021-07-20T09:27:27Z</time>
      </trkpt>
      <trkpt lat="43.1828" lon="3.19701">
        <ele>3.2</ele>
        <time>2021-07-20T09:27:28Z</time>
      </trkpt>
      <trkpt lat="43.18276" lon="3.19697">
        <ele>3.2</ele>
        <time>2021-07-20T09:27:29Z</time>
      </trkpt>
      <trkpt lat="43.18273" lon="3.19694">
        <ele>3.1</ele>
        <time>2021-07-20T09:27:30Z</time>
      </trkpt>
      <trkpt lat="43.1827" lon="3.1969">
        <ele>-3.061805</ele>
        <time>2021-07-20T09:27:31Z</time>
      </trkpt>
      <trkpt lat="43.18267" lon="3.19686">
        <ele>3.1</ele>
        <time>2021-07-20T09:27:32Z</time>
      </trkpt>
      <trkpt lat="43.18263" lon="3.19682">
        <ele>3.1</ele>
        <time>2021-07-20T09:27:33Z</time>
      </trkpt>
      <trkpt lat="43.1826" lon="3.19679">
        <ele>3</ele>
        <time>2021-07-20T09:27:34Z</time>
      </trkpt>
      <trkpt lat="43.18257" lon="3.19675">
        <ele>3</ele>
        <time>2021-07-20T09:27:35Z</time>
      </trkpt>
      <trkpt lat="43.18254" lon="3.19671">
        <ele>3</ele>
        <time>2021-07-20T09:27:36Z</time>
      </trkpt>
      <trkpt lat="43.18251" lon="3.19668">
        <ele>3</ele>
        <time>2021-07-20T09:27:37Z</time>
      </trkpt>
      <trkpt lat="43.18247" lon="3.19664">
        <ele>3</ele>
        <time>2021-07-20T09:27:38Z</time>
      </trkpt>
      <trkpt lat="43.18244" lon="3.1966">
        <ele>3.1</ele>
        <time>2021-07-20T09:27:39Z</time>
      </trkpt>
      <trkpt lat="43.18241" lon="3.19656">
        <ele>3.1</ele>
        <time>2021-07-20T09:27:40Z</time>
      </trkpt>
      <trkpt lat="43.18237" lon="3.19652">
        <ele>-3.1863039</ele>
        <time>2021-07-20T09:27:41Z</time>
      </trkpt>
      <trkpt lat="43.18234" lon="3.19649">
        <ele>3.2</ele>
        <time>2021-07-20T09:27:42Z</time>
      </trkpt>
      <trkpt lat="43.18231" lon="3.19645">
        <ele>3.3</ele>
        <time>2021-07-20T09:27:43Z</time>
      </trkpt>
      <trkpt lat="43.18227" lon="3.19641">
        <ele>3.3</ele>
        <time>2021-07-20T09:27:44Z</time>
      </trkpt>
      <trkpt lat="43.18224" lon="3.19637">
        <ele>3.4</ele>
        <time>2021-07-20T09:27:45Z</time>
      </trkpt>
      <trkpt lat="43.18221" lon="3.19634">
        <ele>3.4</ele>
        <time>2021-07-20T09:27:46Z</time>
      </trkpt>
      <trkpt lat="43.18218" lon="3.19631">
        <ele>3.4</ele>
        <time>2021-07-20T09:27:47Z</time>
      </trkpt>
      <trkpt lat="43.18215" lon="3.19627">
        <ele>3.5</ele>
        <time>2021-07-20T09:27:48Z</time>
      </trkpt>
      <trkpt lat="43.18214" lon="3.19624">
        <ele>3.5</ele>
        <time>2021-07-20T09:27:49Z</time>
      </trkpt>
      <trkpt lat="43.18213" lon="3.1962">
        <ele>3.6</ele>
        <time>2021-07-20T09:27:50Z</time>
      </trkpt>
      <trkpt lat="43.18212" lon="3.19616">
        <ele>3.6</ele>
        <time>2021-07-20T09:27:51Z</time>
      </trkpt>
      <trkpt lat="43.18211" lon="3.19612">
        <ele>-3.265153</ele>
        <time>2021-07-20T09:27:52Z</time>
      </trkpt>
      <trkpt lat="43.18211" lon="3.19607">
        <ele>3.7</ele>
        <time>2021-07-20T09:27:53Z</time>
      </trkpt>
      <trkpt lat="43.1821" lon="3.19602">
        <ele>3.8</ele>
        <time>2021-07-20T09:27:54Z</time>
      </trkpt>
      <trkpt lat="43.1821" lon="3.19598">
        <ele>3.8</ele>
        <time>2021-07-20T09:27:55Z</time>
      </trkpt>
      <trkpt lat="43.18208" lon="3.19593">
        <ele>3.9</ele>
        <time>2021-07-20T09:27:56Z</time>
      </trkpt>
      <trkpt lat="43.18206" lon="3.19589">
        <ele>3.9</ele>
        <time>2021-07-20T09:27:57Z</time>
      </trkpt>
      <trkpt lat="43.18204" lon="3.19585">
        <ele>4</ele>
        <time>2021-07-20T09:27:58Z</time>
      </trkpt>
      <trkpt lat="43.18201" lon="3.19582">
        <ele>3.9</ele>
        <time>2021-07-20T09:27:59Z</time>
      </trkpt>
      <trkpt lat="43.18199" lon="3.19578">
        <ele>3.8</ele>
        <time>2021-07-20T09:28:00Z</time>
      </trkpt>
      <trkpt lat="43.18196" lon="3.19575">
        <ele>3.7</ele>
        <time>2021-07-20T09:28:01Z</time>
      </trkpt>
      <trkpt lat="43.18193" lon="3.19571">
        <ele>-3.3076897</ele>
        <time>2021-07-20T09:28:02Z</time>
      </trkpt>
      <trkpt lat="43.1819" lon="3.19568">
        <ele>3.4</ele>
        <time>2021-07-20T09:28:03Z</time>
      </trkpt>
      <trkpt lat="43.18187" lon="3.19564">
        <ele>3.3</ele>
        <time>2021-07-20T09:28:04Z</time>
      </trkpt>
      <trkpt lat="43.18184" lon="3.19561">
        <ele>3.2</ele>
        <time>2021-07-20T09:28:05Z</time>
      </trkpt>
      <trkpt lat="43.18181" lon="3.19558">
        <ele>3.1</ele>
        <time>2021-07-20T09:28:06Z</time>
      </trkpt>
      <trkpt lat="43.18178" lon="3.19554">
        <ele>2.9</ele>
        <time>2021-07-20T09:28:07Z</time>
      </trkpt>
      <trkpt lat="43.18175" lon="3.1955">
        <ele>2.8</ele>
        <time>2021-07-20T09:28:08Z</time>
      </trkpt>
      <trkpt lat="43.18172" lon="3.19547">
        <ele>2.7</ele>
        <time>2021-07-20T09:28:09Z</time>
      </trkpt>
      <trkpt lat="43.18169" lon="3.19543">
        <ele>2.5</ele>
        <time>2021-07-20T09:28:10Z</time>
      </trkpt>
      <trkpt lat="43.18166" lon="3.19539">
        <ele>4</ele>
        <time>2021-07-20T09:28:11Z</time>
      </trkpt>
      <trkpt lat="43.18163" lon="3.19535">
        <ele>-2.975693</ele>
        <time>2021-07-20T09:28:12Z</time>
      </trkpt>
      <trkpt lat="43.1816" lon="3.19532">
        <ele>4</ele>
        <time>2021-07-20T09:28:13Z</time>
      </trkpt>
      <trkpt lat="43.18156" lon="3.19528">
        <ele>4</ele>
        <time>2021-07-20T09:28:14Z</time>
      </trkpt>
      <trkpt lat="43.18153" lon="3.19525">
        <ele>4</ele>
        <time>2021-07-20T09:28:15Z</time>
      </trkpt>
      <trkpt lat="43.1815" lon="3.19521">
        <ele>4</ele>
        <time>2021-07-20T09:28:16Z</time>
      </trkpt>
      <trkpt lat="43.18147" lon="3.19517">
        <ele>4</ele>
        <time>2021-07-20T09:28:17Z</time>
      </trkpt>
      <trkpt lat="43.18144" lon="3.19514">
        <ele>4</ele>
        <time>2021-07-20T09:28:18Z</time>
      </trkpt>
      <trkpt lat="43.18141" lon="3.1951">
        <ele>4</ele>
        <time>2021-07-20T09:28:19Z</time>
      </trkpt>
      <trkpt lat="43.18138" lon="3.19507">
        <ele>4</ele>
        <time>2021-07-20T09:28:20Z</time>
      </trkpt>
      <trkpt lat="43.18136" lon="3.19503">
        <ele>4</ele>
        <time>2021-07-20T09:28:21Z</time>
      </trkpt>
      <trkpt lat="43.18133" lon="3.19501">
        <ele>-2.8926928</ele>
        <time>2021-07-20T09:28:22Z</time>
      </trkpt>
      <trkpt lat="43.18131" lon="3.19498">
        <ele>2</ele>
        <time>2021-07-20T09:28:23Z</time>
      </trkpt>
      <trkpt lat="43.18128" lon="3.19496">
        <ele>2</ele>
        <time>2021-07-20T09:28:24Z</time>
      </trkpt>
      <trkpt lat="43.18125" lon="3.19493">
        <ele>2</ele>
        <time>2021-07-20T09:28:25Z</time>
      </trkpt>
      <trkpt lat="43.18123" lon="3.1949">
        <ele>2</ele>
        <time>2021-07-20T09:28:26Z</time>
      </trkpt>
      <trkpt lat="43.1812" lon="3.19487">
        <ele>2</ele>
        <time>2021-07-20T09:28:27Z</time>
      </trkpt>
      <trkpt lat="43.18118" lon="3.19483">
        <ele>2</ele>
        <time>2021-07-20T09:28:28Z</time>
      </trkpt>
      <trkpt lat="43.18115" lon="3.19479">
        <ele>2</ele>
        <time>2021-07-20T09:28:29Z</time>
      </trkpt>
      <trkpt lat="43.18112" lon="3.19476">
        <ele>2</ele>
        <time>2021-07-20T09:28:30Z</time>
      </trkpt>
      <trkpt lat="43.1811" lon="3.19472">
        <ele>2</ele>
        <time>2021-07-20T09:28:31Z</time>
      </trkpt>
      <trkpt lat="43.18107" lon="3.19468">
        <ele>-3.0462427</ele>
        <time>2021-07-20T09:28:32Z</time>
      </trkpt>
      <trkpt lat="43.18104" lon="3.19465">
        <ele>2</ele>
        <time>2021-07-20T09:28:33Z</time>
      </trkpt>
      <trkpt lat="43.18101" lon="3.19462">
        <ele>2</ele>
        <time>2021-07-20T09:28:34Z</time>
      </trkpt>
      <trkpt lat="43.18098" lon="3.19458">
        <ele>2</ele>
        <time>2021-07-20T09:28:35Z</time>
      </trkpt>
      <trkpt lat="43.18095" lon="3.19455">
        <ele>2</ele>
        <time>2021-07-20T09:28:36Z</time>
      </trkpt>
      <trkpt lat="43.18092" lon="3.19451">
        <ele>2</ele>
        <time>2021-07-20T09:28:37Z</time>
      </trkpt>
      <trkpt lat="43.1809" lon="3.19446">
        <ele>2</ele>
        <time>2021-07-20T09:28:38Z</time>
      </trkpt>
      <trkpt lat="43.18087" lon="3.19442">
        <ele>2</ele>
        <time>2021-07-20T09:28:39Z</time>
      </trkpt>
      <trkpt lat="43.18085" lon="3.19438">
        <ele>2</ele>
        <time>2021-07-20T09:28:40Z</time>
      </trkpt>
      <trkpt lat="43.18082" lon="3.19435">
        <ele>-3.0950048</ele>
        <time>2021-07-20T09:28:41Z</time>
      </trkpt>
      <trkpt lat="43.18079" lon="3.19431">
        <ele>1.9</ele>
        <time>2021-07-20T09:28:42Z</time>
      </trkpt>
      <trkpt lat="43.18076" lon="3.19428">
        <ele>1.8</ele>
        <time>2021-07-20T09:28:43Z</time>
      </trkpt>
      <trkpt lat="43.18073" lon="3.19424">
        <ele>1.7</ele>
        <time>2021-07-20T09:28:44Z</time>
      </trkpt>
      <trkpt lat="43.1807" lon="3.19421">
        <ele>1.6</ele>
        <time>2021-07-20T09:28:45Z</time>
      </trkpt>
      <trkpt lat="43.18068" lon="3.19417">
        <ele>1.5</ele>
        <time>2021-07-20T09:28:46Z</time>
      </trkpt>
      <trkpt lat="43.18064" lon="3.19414">
        <ele>5</ele>
        <time>2021-07-20T09:28:47Z</time>
      </trkpt>
      <trkpt lat="43.18061" lon="3.1941">
        <ele>5</ele>
        <time>2021-07-20T09:28:48Z</time>
      </trkpt>
      <trkpt lat="43.18058" lon="3.19407">
        <ele>5</ele>
        <time>2021-07-20T09:28:49Z</time>
      </trkpt>
      <trkpt lat="43.18055" lon="3.19403">
        <ele>5</ele>
        <time>2021-07-20T09:28:50Z</time>
      </trkpt>
      <trkpt lat="43.18052" lon="3.194">
        <ele>-3.1811166</ele>
        <time>2021-07-20T09:28:51Z</time>
      </trkpt>
      <trkpt lat="43.18049" lon="3.19396">
        <ele>5</ele>
        <time>2021-07-20T09:28:52Z</time>
      </trkpt>
      <trkpt lat="43.18046" lon="3.19393">
        <ele>5</ele>
        <time>2021-07-20T09:28:53Z</time>
      </trkpt>
      <trkpt lat="43.18043" lon="3.1939">
        <ele>5</ele>
        <time>2021-07-20T09:28:54Z</time>
      </trkpt>
      <trkpt lat="43.18041" lon="3.19386">
        <ele>5</ele>
        <time>2021-07-20T09:28:55Z</time>
      </trkpt>
      <trkpt lat="43.18037" lon="3.19383">
        <ele>5</ele>
        <time>2021-07-20T09:28:56Z</time>
      </trkpt>
      <trkpt lat="43.18035" lon="3.1938">
        <ele>5</ele>
        <time>2021-07-20T09:28:57Z</time>
      </trkpt>
      <trkpt lat="43.18032" lon="3.19376">
        <ele>5</ele>
        <time>2021-07-20T09:28:58Z</time>
      </trkpt>
      <trkpt lat="43.18029" lon="3.19373">
        <ele>5</ele>
        <time>2021-07-20T09:28:59Z</time>
      </trkpt>
      <trkpt lat="43.18026" lon="3.1937">
        <ele>5</ele>
        <time>2021-07-20T09:29:00Z</time>
      </trkpt>
      <trkpt lat="43.18023" lon="3.19367">
        <ele>-3.2807152</ele>
        <time>2021-07-20T09:29:01Z</time>
      </trkpt>
      <trkpt lat="43.18021" lon="3.19364">
        <ele>5</ele>
        <time>2021-07-20T09:29:02Z</time>
      </trkpt>
      <trkpt lat="43.18018" lon="3.19361">
        <ele>5</ele>
        <time>2021-07-20T09:29:03Z</time>
      </trkpt>
      <trkpt lat="43.18016" lon="3.19357">
        <ele>5</ele>
        <time>2021-07-20T09:29:04Z</time>
      </trkpt>
      <trkpt lat="43.18013" lon="3.19354">
        <ele>5</ele>
        <time>2021-07-20T09:29:05Z</time>
      </trkpt>
      <trkpt lat="43.18011" lon="3.19351">
        <ele>5</ele>
        <time>2021-07-20T09:29:06Z</time>
      </trkpt>
      <trkpt lat="43.18008" lon="3.19349">
        <ele>5</ele>
        <time>2021-07-20T09:29:07Z</time>
      </trkpt>
      <trkpt lat="43.18006" lon="3.19347">
        <ele>5</ele>
        <time>2021-07-20T09:29:08Z</time>
      </trkpt>
      <trkpt lat="43.18004" lon="3.19344">
        <ele>5</ele>
        <time>2021-07-20T09:29:09Z</time>
      </trkpt>
      <trkpt lat="43.18002" lon="3.19342">
        <ele>5</ele>
        <time>2021-07-20T09:29:10Z</time>
      </trkpt>
      <trkpt lat="43.18" lon="3.1934">
        <ele>-3.2080913</ele>
        <time>2021-07-20T09:29:11Z</time>
      </trkpt>
      <trkpt lat="43.17999" lon="3.19338">
        <ele>1.8</ele>
        <time>2021-07-20T09:29:12Z</time>
      </trkpt>
      <trkpt lat="43.17997" lon="3.19336">
        <ele>1.8</ele>
        <time>2021-07-20T09:29:13Z</time>
      </trkpt>
      <trkpt lat="43.17995" lon="3.19334">
        <ele>1.8</ele>
        <time>2021-07-20T09:29:14Z</time>
      </trkpt>
      <trkpt lat="43.17993" lon="3.19332">
        <ele>6</ele>
        <time>2021-07-20T09:29:15Z</time>
      </trkpt>
      <trkpt lat="43.17991" lon="3.19331">
        <ele>6</ele>
        <time>2021-07-20T09:29:16Z</time>
      </trkpt>
      <trkpt lat="43.17989" lon="3.19329">
        <ele>6</ele>
        <time>2021-07-20T09:29:17Z</time>
      </trkpt>
      <trkpt lat="43.17987" lon="3.19327">
        <ele>6</ele>
        <time>2021-07-20T09:29:18Z</time>
      </trkpt>
      <trkpt lat="43.17984" lon="3.19324">
        <ele>6</ele>
        <time>2021-07-20T09:29:19Z</time>
      </trkpt>
      <trkpt lat="43.17982" lon="3.19321">
        <ele>6</ele>
        <time>2021-07-20T09:29:20Z</time>
      </trkpt>
      <trkpt lat="43.1798" lon="3.19318">
        <ele>-3.5037732</ele>
        <time>2021-07-20T09:29:21Z</time>
      </trkpt>
      <trkpt lat="43.17978" lon="3.19315">
        <ele>6</ele>
        <time>2021-07-20T09:29:22Z</time>
      </trkpt>
      <trkpt lat="43.17976" lon="3.19312">
        <ele>6</ele>
        <time>2021-07-20T09:29:23Z</time>
      </trkpt>
      <trkpt lat="43.17975" lon="3.19309">
        <ele>6</ele>
        <time>2021-07-20T09:29:24Z</time>
      </trkpt>
      <trkpt lat="43.17972" lon="3.19306">
        <ele>6</ele>
        <time>2021-07-20T09:29:25Z</time>
      </trkpt>
      <trkpt lat="43.1797" lon="3.19303">
        <ele>6</ele>
        <time>2021-07-20T09:29:26Z</time>
      </trkpt>
      <trkpt lat="43.17968" lon="3.193">
        <ele>6</ele>
        <time>2021-07-20T09:29:27Z</time>
      </trkpt>
      <trkpt lat="43.17965" lon="3.19297">
        <ele>6</ele>
        <time>2021-07-20T09:29:28Z</time>
      </trkpt>
      <trkpt lat="43.17963" lon="3.19293">
        <ele>6</ele>
        <time>2021-07-20T09:29:29Z</time>
      </trkpt>
      <trkpt lat="43.17961" lon="3.1929">
        <ele>6</ele>
        <time>2021-07-20T09:29:30Z</time>
      </trkpt>
      <trkpt lat="43.17958" lon="3.19287">
        <ele>6</ele>
        <time>2021-07-20T09:29:31Z</time>
      </trkpt>
      <trkpt lat="43.17955" lon="3.19284">
        <ele>-3.1717792</ele>
        <time>2021-07-20T09:29:32Z</time>
      </trkpt>
      <trkpt lat="43.17953" lon="3.19281">
        <ele>6</ele>
        <time>2021-07-20T09:29:33Z</time>
      </trkpt>
      <trkpt lat="43.1795" lon="3.19278">
        <ele>6</ele>
        <time>2021-07-20T09:29:34Z</time>
      </trkpt>
      <trkpt lat="43.17947" lon="3.19275">
        <ele>6</ele>
        <time>2021-07-20T09:29:35Z</time>
      </trkpt>
      <trkpt lat="43.17945" lon="3.19272">
        <ele>6</ele>
        <time>2021-07-20T09:29:36Z</time>
      </trkpt>
      <trkpt lat="43.17942" lon="3.19268">
        <ele>6</ele>
        <time>2021-07-20T09:29:37Z</time>
      </trkpt>
      <trkpt lat="43.1794" lon="3.19265">
        <ele>6</ele>
        <time>2021-07-20T09:29:38Z</time>
      </trkpt>
      <trkpt lat="43.17938" lon="3.19262">
        <ele>6</ele>
        <time>2021-07-20T09:29:39Z</time>
      </trkpt>
      <trkpt lat="43.17934" lon="3.19259">
        <ele>6</ele>
        <time>2021-07-20T09:29:40Z</time>
      </trkpt>
      <trkpt lat="43.17932" lon="3.19256">
        <ele>6</ele>
        <time>2021-07-20T09:29:41Z</time>
      </trkpt>
      <trkpt lat="43.17929" lon="3.19253">
        <ele>-3.070105</ele>
        <time>2021-07-20T09:29:42Z</time>
      </trkpt>
      <trkpt lat="43.17926" lon="3.1925">
        <ele>6</ele>
        <time>2021-07-20T09:29:43Z</time>
      </trkpt>
      <trkpt lat="43.17923" lon="3.19248">
        <ele>6</ele>
        <time>2021-07-20T09:29:44Z</time>
      </trkpt>
      <trkpt lat="43.17921" lon="3.19244">
        <ele>6.1</ele>
        <time>2021-07-20T09:29:45Z</time>
      </trkpt>
      <trkpt lat="43.17918" lon="3.19241">
        <ele>6.1</ele>
        <time>2021-07-20T09:29:46Z</time>
      </trkpt>
      <trkpt lat="43.17916" lon="3.19238">
        <ele>7</ele>
        <time>2021-07-20T09:29:47Z</time>
      </trkpt>
      <trkpt lat="43.17913" lon="3.19234">
        <ele>7</ele>
        <time>2021-07-20T09:29:48Z</time>
      </trkpt>
      <trkpt lat="43.1791" lon="3.19231">
        <ele>7</ele>
        <time>2021-07-20T09:29:49Z</time>
      </trkpt>
      <trkpt lat="43.17908" lon="3.19228">
        <ele>7</ele>
        <time>2021-07-20T09:29:50Z</time>
      </trkpt>
      <trkpt lat="43.17905" lon="3.19225">
        <ele>7</ele>
        <time>2021-07-20T09:29:51Z</time>
      </trkpt>
      <trkpt lat="43.17902" lon="3.19222">
        <ele>-3.02238</ele>
        <time>2021-07-20T09:29:52Z</time>
      </trkpt>
      <trkpt lat="43.17899" lon="3.19219">
        <ele>7</ele>
        <time>2021-07-20T09:29:53Z</time>
      </trkpt>
      <trkpt lat="43.17897" lon="3.19216">
        <ele>7</ele>
        <time>2021-07-20T09:29:54Z</time>
      </trkpt>
      <trkpt lat="43.17894" lon="3.19213">
        <ele>7</ele>
        <time>2021-07-20T09:29:55Z</time>
      </trkpt>
      <trkpt lat="43.17892" lon="3.1921">
        <ele>7</ele>
        <time>2021-07-20T09:29:56Z</time>
      </trkpt>
      <trkpt lat="43.1789" lon="3.19207">
        <ele>7</ele>
        <time>2021-07-20T09:29:57Z</time>
      </trkpt>
      <trkpt lat="43.17887" lon="3.19204">
        <ele>7</ele>
        <time>2021-07-20T09:29:58Z</time>
      </trkpt>
      <trkpt lat="43.17884" lon="3.19201">
        <ele>7</ele>
        <time>2021-07-20T09:29:59Z</time>
      </trkpt>
      <trkpt lat="43.17882" lon="3.19199">
        <ele>7</ele>
        <time>2021-07-20T09:30:00Z</time>
      </trkpt>
      <trkpt lat="43.17879" lon="3.19196">
        <ele>7</ele>
        <time>2021-07-20T09:30:01Z</time>
      </trkpt>
      <trkpt lat="43.17876" lon="3.19193">
        <ele>-2.9020305</ele>
        <time>2021-07-20T09:30:02Z</time>
      </trkpt>
      <trkpt lat="43.17874" lon="3.1919">
        <ele>7</ele>
        <time>2021-07-20T09:30:03Z</time>
      </trkpt>
      <trkpt lat="43.17872" lon="3.19187">
        <ele>7</ele>
        <time>2021-07-20T09:30:04Z</time>
      </trkpt>
      <trkpt lat="43.17869" lon="3.19184">
        <ele>7</ele>
        <time>2021-07-20T09:30:05Z</time>
      </trkpt>
      <trkpt lat="43.17867" lon="3.19181">
        <ele>7</ele>
        <time>2021-07-20T09:30:06Z</time>
      </trkpt>
      <trkpt lat="43.17864" lon="3.19178">
        <ele>7</ele>
        <time>2021-07-20T09:30:07Z</time>
      </trkpt>
      <trkpt lat="43.17862" lon="3.19176">
        <ele>7</ele>
        <time>2021-07-20T09:30:08Z</time>
      </trkpt>
      <trkpt lat="43.17859" lon="3.19173">
        <ele>7</ele>
        <time>2021-07-20T09:30:09Z</time>
      </trkpt>
      <trkpt lat="43.17857" lon="3.1917">
        <ele>7</ele>
        <time>2021-07-20T09:30:10Z</time>
      </trkpt>
      <trkpt lat="43.17854" lon="3.19167">
        <ele>7</ele>
        <time>2021-07-20T09:30:11Z</time>
      </trkpt>
      <trkpt lat="43.17852" lon="3.19166">
        <ele>-3.0275676</ele>
        <time>2021-07-20T09:30:12Z</time>
      </trkpt>
      <trkpt lat="43.17849" lon="3.19164">
        <ele>6.9</ele>
        <time>2021-07-20T09:30:13Z</time>
      </trkpt>
      <trkpt lat="43.17846" lon="3.19162">
        <ele>6.9</ele>
        <time>2021-07-20T09:30:14Z</time>
      </trkpt>
      <trkpt lat="43.17844" lon="3.1916">
        <ele>6.9</ele>
        <time>2021-07-20T09:30:15Z</time>
      </trkpt>
      <trkpt lat="43.17841" lon="3.19159">
        <ele>6.8</ele>
        <time>2021-07-20T09:30:16Z</time>
      </trkpt>
      <trkpt lat="43.17838" lon="3.19157">
        <ele>6.8</ele>
        <time>2021-07-20T09:30:17Z</time>
      </trkpt>
      <trkpt lat="43.17835" lon="3.19154">
        <ele>6.7</ele>
        <time>2021-07-20T09:30:18Z</time>
      </trkpt>
      <trkpt lat="43.17833" lon="3.19152">
        <ele>4.96</ele>
        <time>2021-07-20T09:30:19Z</time>
      </trkpt>
      <trkpt lat="43.1783" lon="3.19149">
        <ele>4.84</ele>
        <time>2021-07-20T09:30:20Z</time>
      </trkpt>
      <trkpt lat="43.17828" lon="3.19146">
        <ele>-3.1676292</ele>
        <time>2021-07-20T09:30:21Z</time>
      </trkpt>
      <trkpt lat="43.17825" lon="3.19143">
        <ele>4.6</ele>
        <time>2021-07-20T09:30:22Z</time>
      </trkpt>
      <trkpt lat="43.17823" lon="3.1914">
        <ele>4.48</ele>
        <time>2021-07-20T09:30:23Z</time>
      </trkpt>
      <trkpt lat="43.1782" lon="3.19137">
        <ele>4.38</ele>
        <time>2021-07-20T09:30:24Z</time>
      </trkpt>
      <trkpt lat="43.17818" lon="3.19135">
        <ele>4.25</ele>
        <time>2021-07-20T09:30:25Z</time>
      </trkpt>
      <trkpt lat="43.17815" lon="3.19132">
        <ele>4.14</ele>
        <time>2021-07-20T09:30:26Z</time>
      </trkpt>
      <trkpt lat="43.17814" lon="3.19129">
        <ele>4.05</ele>
        <time>2021-07-20T09:30:27Z</time>
      </trkpt>
      <trkpt lat="43.17811" lon="3.19127">
        <ele>3.94</ele>
        <time>2021-07-20T09:30:28Z</time>
      </trkpt>
      <trkpt lat="43.1781" lon="3.19124">
        <ele>3.87</ele>
        <time>2021-07-20T09:30:29Z</time>
      </trkpt>
      <trkpt lat="43.17808" lon="3.19122">
        <ele>3.77</ele>
        <time>2021-07-20T09:30:30Z</time>
      </trkpt>
      <trkpt lat="43.17806" lon="3.1912">
        <ele>-3.3045774</ele>
        <time>2021-07-20T09:30:31Z</time>
      </trkpt>
      <trkpt lat="43.17804" lon="3.19117">
        <ele>3.57</ele>
        <time>2021-07-20T09:30:32Z</time>
      </trkpt>
      <trkpt lat="43.17801" lon="3.19115">
        <ele>3.46</ele>
        <time>2021-07-20T09:30:33Z</time>
      </trkpt>
      <trkpt lat="43.17799" lon="3.19113">
        <ele>3.33</ele>
        <time>2021-07-20T09:30:34Z</time>
      </trkpt>
      <trkpt lat="43.17797" lon="3.1911">
        <ele>3.24</ele>
        <time>2021-07-20T09:30:35Z</time>
      </trkpt>
      <trkpt lat="43.17795" lon="3.19109">
        <ele>3.15</ele>
        <time>2021-07-20T09:30:36Z</time>
      </trkpt>
      <trkpt lat="43.17794" lon="3.19107">
        <ele>3.1</ele>
        <time>2021-07-20T09:30:37Z</time>
      </trkpt>
      <trkpt lat="43.17793" lon="3.19105">
        <ele>3.06</ele>
        <time>2021-07-20T09:30:38Z</time>
      </trkpt>
      <trkpt lat="43.17791" lon="3.19103">
        <ele>2.99</ele>
        <time>2021-07-20T09:30:39Z</time>
      </trkpt>
      <trkpt lat="43.1779" lon="3.19102">
        <ele>2.9</ele>
        <time>2021-07-20T09:30:40Z</time>
      </trkpt>
      <trkpt lat="43.17787" lon="3.19099">
        <ele>-3.52971</ele>
        <time>2021-07-20T09:30:41Z</time>
      </trkpt>
      <trkpt lat="43.17785" lon="3.19097">
        <ele>2.69</ele>
        <time>2021-07-20T09:30:42Z</time>
      </trkpt>
      <trkpt lat="43.17783" lon="3.19094">
        <ele>2.6</ele>
        <time>2021-07-20T09:30:43Z</time>
      </trkpt>
      <trkpt lat="43.17781" lon="3.19091">
        <ele>2.49</ele>
        <time>2021-07-20T09:30:44Z</time>
      </trkpt>
      <trkpt lat="43.17778" lon="3.19088">
        <ele>2.36</ele>
        <time>2021-07-20T09:30:45Z</time>
      </trkpt>
      <trkpt lat="43.17776" lon="3.19086">
        <ele>2.23</ele>
        <time>2021-07-20T09:30:46Z</time>
      </trkpt>
      <trkpt lat="43.17773" lon="3.19083">
        <ele>2.1</ele>
        <time>2021-07-20T09:30:47Z</time>
      </trkpt>
      <trkpt lat="43.1777" lon="3.1908">
        <ele>2.1</ele>
        <time>2021-07-20T09:30:48Z</time>
      </trkpt>
      <trkpt lat="43.17767" lon="3.19077">
        <ele>2.1</ele>
        <time>2021-07-20T09:30:49Z</time>
      </trkpt>
      <trkpt lat="43.17764" lon="3.19075">
        <ele>2.1</ele>
        <time>2021-07-20T09:30:50Z</time>
      </trkpt>
      <trkpt lat="43.1776" lon="3.19073">
        <ele>-3.653169</ele>
        <time>2021-07-20T09:30:51Z</time>
      </trkpt>
      <trkpt lat="43.17757" lon="3.1907">
        <ele>2</ele>
        <time>2021-07-20T09:30:52Z</time>
      </trkpt>
      <trkpt lat="43.17753" lon="3.19068">
        <ele>2.1</ele>
        <time>2021-07-20T09:30:53Z</time>
      </trkpt>
      <trkpt lat="43.1775" lon="3.19065">
        <ele>2.1</ele>
        <time>2021-07-20T09:30:54Z</time>
      </trkpt>
      <trkpt lat="43.17748" lon="3.19062">
        <ele>1</ele>
        <time>2021-07-20T09:30:55Z</time>
      </trkpt>
      <trkpt lat="43.17744" lon="3.19059">
        <ele>1</ele>
        <time>2021-07-20T09:30:56Z</time>
      </trkpt>
      <trkpt lat="43.17742" lon="3.19056">
        <ele>1</ele>
        <time>2021-07-20T09:30:57Z</time>
      </trkpt>
      <trkpt lat="43.17739" lon="3.19052">
        <ele>1</ele>
        <time>2021-07-20T09:30:58Z</time>
      </trkpt>
      <trkpt lat="43.17737" lon="3.19049">
        <ele>1</ele>
        <time>2021-07-20T09:30:59Z</time>
      </trkpt>
      <trkpt lat="43.17734" lon="3.19045">
        <ele>1</ele>
        <time>2021-07-20T09:31:00Z</time>
      </trkpt>
      <trkpt lat="43.17732" lon="3.19042">
        <ele>-3.427</ele>
        <time>2021-07-20T09:31:01Z</time>
      </trkpt>
      <trkpt lat="43.1773" lon="3.19038">
        <ele>1</ele>
        <time>2021-07-20T09:31:02Z</time>
      </trkpt>
      <trkpt lat="43.17728" lon="3.19034">
        <ele>1</ele>
        <time>2021-07-20T09:31:03Z</time>
      </trkpt>
      <trkpt lat="43.17727" lon="3.1903">
        <ele>1</ele>
        <time>2021-07-20T09:31:04Z</time>
      </trkpt>
      <trkpt lat="43.17725" lon="3.19026">
        <ele>1</ele>
        <time>2021-07-20T09:31:05Z</time>
      </trkpt>
      <trkpt lat="43.17723" lon="3.19022">
        <ele>1</ele>
        <time>2021-07-20T09:31:06Z</time>
      </trkpt>
      <trkpt lat="43.17722" lon="3.19018">
        <ele>1</ele>
        <time>2021-07-20T09:31:07Z</time>
      </trkpt>
      <trkpt lat="43.1772" lon="3.19014">
        <ele>1</ele>
        <time>2021-07-20T09:31:08Z</time>
      </trkpt>
      <trkpt lat="43.17718" lon="3.1901">
        <ele>1</ele>
        <time>2021-07-20T09:31:09Z</time>
      </trkpt>
      <trkpt lat="43.17717" lon="3.19006">
        <ele>1</ele>
        <time>2021-07-20T09:31:10Z</time>
      </trkpt>
      <trkpt lat="43.17715" lon="3.19002">
        <ele>1</ele>
        <time>2021-07-20T09:31:11Z</time>
      </trkpt>
      <trkpt lat="43.17713" lon="3.18998">
        <ele>-3.5037732</ele>
        <time>2021-07-20T09:31:12Z</time>
      </trkpt>
      <trkpt lat="43.17712" lon="3.18995">
        <ele>5.38</ele>
        <time>2021-07-20T09:31:13Z</time>
      </trkpt>
      <trkpt lat="43.1771" lon="3.18992">
        <ele>5.45</ele>
        <time>2021-07-20T09:31:14Z</time>
      </trkpt>
      <trkpt lat="43.17708" lon="3.18988">
        <ele>5.51</ele>
        <time>2021-07-20T09:31:15Z</time>
      </trkpt>
      <trkpt lat="43.17706" lon="3.18985">
        <ele>5.57</ele>
        <time>2021-07-20T09:31:16Z</time>
      </trkpt>
      <trkpt lat="43.17704" lon="3.18982">
        <ele>5.64</ele>
        <time>2021-07-20T09:31:17Z</time>
      </trkpt>
      <trkpt lat="43.17703" lon="3.18979">
        <ele>5.69</ele>
        <time>2021-07-20T09:31:18Z</time>
      </trkpt>
      <trkpt lat="43.17701" lon="3.18976">
        <ele>5.75</ele>
        <time>2021-07-20T09:31:19Z</time>
      </trkpt>
      <trkpt lat="43.17699" lon="3.18973">
        <ele>5.82</ele>
        <time>2021-07-20T09:31:20Z</time>
      </trkpt>
      <trkpt lat="43.17698" lon="3.1897">
        <ele>5.87</ele>
        <time>2021-07-20T09:31:21Z</time>
      </trkpt>
      <trkpt lat="43.17696" lon="3.18967">
        <ele>-3.52971</ele>
        <time>2021-07-20T09:31:22Z</time>
      </trkpt>
      <trkpt lat="43.17695" lon="3.18964">
        <ele>5.98</ele>
        <time>2021-07-20T09:31:23Z</time>
      </trkpt>
      <trkpt lat="43.17693" lon="3.18962">
        <ele>6.04</ele>
        <time>2021-07-20T09:31:24Z</time>
      </trkpt>
      <trkpt lat="43.17692" lon="3.18959">
        <ele>6.09</ele>
        <time>2021-07-20T09:31:25Z</time>
      </trkpt>
      <trkpt lat="43.17691" lon="3.18956">
        <ele>6.11</ele>
        <time>2021-07-20T09:31:26Z</time>
      </trkpt>
      <trkpt lat="43.1769" lon="3.18954">
        <ele>6.15</ele>
        <time>2021-07-20T09:31:27Z</time>
      </trkpt>
      <trkpt lat="43.1769" lon="3.18951">
        <ele>6.18</ele>
        <time>2021-07-20T09:31:28Z</time>
      </trkpt>
      <trkpt lat="43.17689" lon="3.18949">
        <ele>6.2</ele>
        <time>2021-07-20T09:31:29Z</time>
      </trkpt>
      <trkpt lat="43.17688" lon="3.18947">
        <ele>6.25</ele>
        <time>2021-07-20T09:31:30Z</time>
      </trkpt>
      <trkpt lat="43.17686" lon="3.18945">
        <ele>6.3</ele>
        <time>2021-07-20T09:31:31Z</time>
      </trkpt>
      <trkpt lat="43.17685" lon="3.18943">
        <ele>-3.7652152</ele>
        <time>2021-07-20T09:31:32Z</time>
      </trkpt>
      <trkpt lat="43.17683" lon="3.18941">
        <ele>6.43</ele>
        <time>2021-07-20T09:31:33Z</time>
      </trkpt>
      <trkpt lat="43.17681" lon="3.18939">
        <ele>6.48</ele>
        <time>2021-07-20T09:31:34Z</time>
      </trkpt>
      <trkpt lat="43.1768" lon="3.18936">
        <ele>6.53</ele>
        <time>2021-07-20T09:31:35Z</time>
      </trkpt>
      <trkpt lat="43.17679" lon="3.18933">
        <ele>6.56</ele>
        <time>2021-07-20T09:31:36Z</time>
      </trkpt>
      <trkpt lat="43.17678" lon="3.1893">
        <ele>6.6</ele>
        <time>2021-07-20T09:31:37Z</time>
      </trkpt>
      <trkpt lat="43.17677" lon="3.18927">
        <ele>6.65</ele>
        <time>2021-07-20T09:31:38Z</time>
      </trkpt>
      <trkpt lat="43.17675" lon="3.18925">
        <ele>6.69</ele>
        <time>2021-07-20T09:31:39Z</time>
      </trkpt>
      <trkpt lat="43.17675" lon="3.18922">
        <ele>6.71</ele>
        <time>2021-07-20T09:31:40Z</time>
      </trkpt>
      <trkpt lat="43.17674" lon="3.18919">
        <ele>6.75</ele>
        <time>2021-07-20T09:31:41Z</time>
      </trkpt>
      <trkpt lat="43.17672" lon="3.18916">
        <ele>-3.6593938</ele>
        <time>2021-07-20T09:31:42Z</time>
      </trkpt>
      <trkpt lat="43.17672" lon="3.18912">
        <ele>6.9</ele>
        <time>2021-07-20T09:31:43Z</time>
      </trkpt>
      <trkpt lat="43.1767" lon="3.18909">
        <ele>7</ele>
        <time>2021-07-20T09:31:44Z</time>
      </trkpt>
      <trkpt lat="43.17669" lon="3.18905">
        <ele>7.1</ele>
        <time>2021-07-20T09:31:45Z</time>
      </trkpt>
      <trkpt lat="43.17668" lon="3.18902">
        <ele>7.1</ele>
        <time>2021-07-20T09:31:46Z</time>
      </trkpt>
      <trkpt lat="43.17667" lon="3.18898">
        <ele>7.2</ele>
        <time>2021-07-20T09:31:47Z</time>
      </trkpt>
      <trkpt lat="43.17666" lon="3.18894">
        <ele>7.3</ele>
        <time>2021-07-20T09:31:48Z</time>
      </trkpt>
      <trkpt lat="43.17665" lon="3.18891">
        <ele>7.3</ele>
        <time>2021-07-20T09:31:49Z</time>
      </trkpt>
      <trkpt lat="43.17664" lon="3.18887">
        <ele>7.4</ele>
        <time>2021-07-20T09:31:50Z</time>
      </trkpt>
      <trkpt lat="43.17662" lon="3.18883">
        <ele>7.4</ele>
        <time>2021-07-20T09:31:51Z</time>
      </trkpt>
      <trkpt lat="43.17661" lon="3.1888">
        <ele>-3.6573188</ele>
        <time>2021-07-20T09:31:52Z</time>
      </trkpt>
      <trkpt lat="43.1766" lon="3.18876">
        <ele>7.5</ele>
        <time>2021-07-20T09:31:53Z</time>
      </trkpt>
      <trkpt lat="43.17659" lon="3.18872">
        <ele>7.5</ele>
        <time>2021-07-20T09:31:54Z</time>
      </trkpt>
      <trkpt lat="43.17658" lon="3.18869">
        <ele>7.6</ele>
        <time>2021-07-20T09:31:55Z</time>
      </trkpt>
      <trkpt lat="43.17656" lon="3.18865">
        <ele>7.6</ele>
        <time>2021-07-20T09:31:56Z</time>
      </trkpt>
      <trkpt lat="43.17654" lon="3.18862">
        <ele>7.7</ele>
        <time>2021-07-20T09:31:57Z</time>
      </trkpt>
      <trkpt lat="43.17653" lon="3.18859">
        <ele>7.7</ele>
        <time>2021-07-20T09:31:58Z</time>
      </trkpt>
      <trkpt lat="43.17653" lon="3.18856">
        <ele>7.7</ele>
        <time>2021-07-20T09:31:59Z</time>
      </trkpt>
      <trkpt lat="43.17652" lon="3.18853">
        <ele>7.8</ele>
        <time>2021-07-20T09:32:00Z</time>
      </trkpt>
      <trkpt lat="43.17651" lon="3.1885">
        <ele>-3.6448693</ele>
        <time>2021-07-20T09:32:01Z</time>
      </trkpt>
      <trkpt lat="43.17649" lon="3.18847">
        <ele>7.8</ele>
        <time>2021-07-20T09:32:02Z</time>
      </trkpt>
      <trkpt lat="43.17647" lon="3.18844">
        <ele>7.9</ele>
        <time>2021-07-20T09:32:03Z</time>
      </trkpt>
      <trkpt lat="43.17645" lon="3.18841">
        <ele>7.9</ele>
        <time>2021-07-20T09:32:04Z</time>
      </trkpt>
      <trkpt lat="43.17642" lon="3.18838">
        <ele>7.9</ele>
        <time>2021-07-20T09:32:05Z</time>
      </trkpt>
      <trkpt lat="43.1764" lon="3.18835">
        <ele>8</ele>
        <time>2021-07-20T09:32:06Z</time>
      </trkpt>
      <trkpt lat="43.17637" lon="3.18832">
        <ele>8</ele>
        <time>2021-07-20T09:32:07Z</time>
      </trkpt>
      <trkpt lat="43.17635" lon="3.1883">
        <ele>7.9</ele>
        <time>2021-07-20T09:32:08Z</time>
      </trkpt>
      <trkpt lat="43.17632" lon="3.18827">
        <ele>7.8</ele>
        <time>2021-07-20T09:32:09Z</time>
      </trkpt>
      <trkpt lat="43.17629" lon="3.18825">
        <ele>7.7</ele>
        <time>2021-07-20T09:32:10Z</time>
      </trkpt>
      <trkpt lat="43.17627" lon="3.18823">
        <ele>-3.796339</ele>
        <time>2021-07-20T09:32:11Z</time>
      </trkpt>
      <trkpt lat="43.17624" lon="3.18822">
        <ele>7.6</ele>
        <time>2021-07-20T09:32:12Z</time>
      </trkpt>
      <trkpt lat="43.17621" lon="3.1882">
        <ele>7.5</ele>
        <time>2021-07-20T09:32:13Z</time>
      </trkpt>
      <trkpt lat="43.17617" lon="3.18819">
        <ele>7.5</ele>
        <time>2021-07-20T09:32:14Z</time>
      </trkpt>
      <trkpt lat="43.17615" lon="3.18817">
        <ele>7.5</ele>
        <time>2021-07-20T09:32:15Z</time>
      </trkpt>
      <trkpt lat="43.17612" lon="3.18816">
        <ele>7.4</ele>
        <time>2021-07-20T09:32:16Z</time>
      </trkpt>
      <trkpt lat="43.17609" lon="3.18814">
        <ele>7.4</ele>
        <time>2021-07-20T09:32:17Z</time>
      </trkpt>
      <trkpt lat="43.17607" lon="3.18811">
        <ele>7.3</ele>
        <time>2021-07-20T09:32:18Z</time>
      </trkpt>
      <trkpt lat="43.17604" lon="3.18808">
        <ele>7.2</ele>
        <time>2021-07-20T09:32:19Z</time>
      </trkpt>
      <trkpt lat="43.17602" lon="3.18805">
        <ele>7.2</ele>
        <time>2021-07-20T09:32:20Z</time>
      </trkpt>
      <trkpt lat="43.176" lon="3.18803">
        <ele>-3.5774338</ele>
        <time>2021-07-20T09:32:21Z</time>
      </trkpt>
      <trkpt lat="43.17597" lon="3.188">
        <ele>7.1</ele>
        <time>2021-07-20T09:32:22Z</time>
      </trkpt>
      <trkpt lat="43.17595" lon="3.18798">
        <ele>7</ele>
        <time>2021-07-20T09:32:23Z</time>
      </trkpt>
      <trkpt lat="43.17593" lon="3.18794">
        <ele>6.9</ele>
        <time>2021-07-20T09:32:24Z</time>
      </trkpt>
      <trkpt lat="43.17593" lon="3.1879">
        <ele>6.8</ele>
        <time>2021-07-20T09:32:25Z</time>
      </trkpt>
      <trkpt lat="43.17592" lon="3.18785">
        <ele>6.7</ele>
        <time>2021-07-20T09:32:26Z</time>
      </trkpt>
      <trkpt lat="43.17592" lon="3.18781">
        <ele>6.6</ele>
        <time>2021-07-20T09:32:27Z</time>
      </trkpt>
      <trkpt lat="43.17591" lon="3.18777">
        <ele>6.5</ele>
        <time>2021-07-20T09:32:28Z</time>
      </trkpt>
      <trkpt lat="43.1759" lon="3.18772">
        <ele>6.4</ele>
        <time>2021-07-20T09:32:29Z</time>
      </trkpt>
      <trkpt lat="43.1759" lon="3.18767">
        <ele>6.3</ele>
        <time>2021-07-20T09:32:30Z</time>
      </trkpt>
      <trkpt lat="43.17589" lon="3.18762">
        <ele>-4.3223257</ele>
        <time>2021-07-20T09:32:31Z</time>
      </trkpt>
      <trkpt lat="43.17588" lon="3.18757">
        <ele>6.1</ele>
        <time>2021-07-20T09:32:32Z</time>
      </trkpt>
      <trkpt lat="43.17588" lon="3.18752">
        <ele>6</ele>
        <time>2021-07-20T09:32:33Z</time>
      </trkpt>
      <trkpt lat="43.17587" lon="3.18747">
        <ele>5.8</ele>
        <time>2021-07-20T09:32:34Z</time>
      </trkpt>
      <trkpt lat="43.17586" lon="3.18743">
        <ele>5.8</ele>
        <time>2021-07-20T09:32:35Z</time>
      </trkpt>
      <trkpt lat="43.17586" lon="3.18738">
        <ele>5.6</ele>
        <time>2021-07-20T09:32:36Z</time>
      </trkpt>
      <trkpt lat="43.17585" lon="3.18733">
        <ele>5.5</ele>
        <time>2021-07-20T09:32:37Z</time>
      </trkpt>
      <trkpt lat="43.17584" lon="3.18728">
        <ele>5.5</ele>
        <time>2021-07-20T09:32:38Z</time>
      </trkpt>
      <trkpt lat="43.17584" lon="3.18723">
        <ele>5.3</ele>
        <time>2021-07-20T09:32:39Z</time>
      </trkpt>
      <trkpt lat="43.17583" lon="3.18718">
        <ele>5.2</ele>
        <time>2021-07-20T09:32:40Z</time>
      </trkpt>
      <trkpt lat="43.17582" lon="3.18713">
        <ele>-4.517363</ele>
        <time>2021-07-20T09:32:41Z</time>
      </trkpt>
      <trkpt lat="43.17582" lon="3.18709">
        <ele>5</ele>
        <time>2021-07-20T09:32:42Z</time>
      </trkpt>
      <trkpt lat="43.17581" lon="3.18704">
        <ele>4.9</ele>
        <time>2021-07-20T09:32:43Z</time>
      </trkpt>
      <trkpt lat="43.17581" lon="3.18699">
        <ele>4.8</ele>
        <time>2021-07-20T09:32:44Z</time>
      </trkpt>
      <trkpt lat="43.1758" lon="3.18694">
        <ele>4.7</ele>
        <time>2021-07-20T09:32:45Z</time>
      </trkpt>
      <trkpt lat="43.1758" lon="3.1869">
        <ele>4.6</ele>
        <time>2021-07-20T09:32:46Z</time>
      </trkpt>
      <trkpt lat="43.17579" lon="3.18685">
        <ele>4.5</ele>
        <time>2021-07-20T09:32:47Z</time>
      </trkpt>
      <trkpt lat="43.17579" lon="3.18681">
        <ele>4.4</ele>
        <time>2021-07-20T09:32:48Z</time>
      </trkpt>
      <trkpt lat="43.17578" lon="3.18677">
        <ele>4.3</ele>
        <time>2021-07-20T09:32:49Z</time>
      </trkpt>
      <trkpt lat="43.17578" lon="3.18673">
        <ele>4.2</ele>
        <time>2021-07-20T09:32:50Z</time>
      </trkpt>
      <trkpt lat="43.17578" lon="3.18669">
        <ele>4.1</ele>
        <time>2021-07-20T09:32:51Z</time>
      </trkpt>
      <trkpt lat="43.17577" lon="3.18665">
        <ele>-4.062965</ele>
        <time>2021-07-20T09:32:52Z</time>
      </trkpt>
      <trkpt lat="43.17577" lon="3.18661">
        <ele>4.1</ele>
        <time>2021-07-20T09:32:53Z</time>
      </trkpt>
      <trkpt lat="43.17576" lon="3.18657">
        <ele>4.1</ele>
        <time>2021-07-20T09:32:54Z</time>
      </trkpt>
      <trkpt lat="43.17576" lon="3.18653">
        <ele>4.1</ele>
        <time>2021-07-20T09:32:55Z</time>
      </trkpt>
      <trkpt lat="43.17576" lon="3.18649">
        <ele>4.1</ele>
        <time>2021-07-20T09:32:56Z</time>
      </trkpt>
      <trkpt lat="43.17575" lon="3.18644">
        <ele>4</ele>
        <time>2021-07-20T09:32:57Z</time>
      </trkpt>
      <trkpt lat="43.17574" lon="3.1864">
        <ele>4</ele>
        <time>2021-07-20T09:32:58Z</time>
      </trkpt>
      <trkpt lat="43.17574" lon="3.18636">
        <ele>4</ele>
        <time>2021-07-20T09:32:59Z</time>
      </trkpt>
      <trkpt lat="43.17573" lon="3.18632">
        <ele>4</ele>
        <time>2021-07-20T09:33:00Z</time>
      </trkpt>
      <trkpt lat="43.17572" lon="3.18628">
        <ele>4</ele>
        <time>2021-07-20T09:33:01Z</time>
      </trkpt>
      <trkpt lat="43.1757" lon="3.18625">
        <ele>-3.9467704</ele>
        <time>2021-07-20T09:33:02Z</time>
      </trkpt>
      <trkpt lat="43.17568" lon="3.18621">
        <ele>4</ele>
        <time>2021-07-20T09:33:03Z</time>
      </trkpt>
      <trkpt lat="43.17566" lon="3.18618">
        <ele>4</ele>
        <time>2021-07-20T09:33:04Z</time>
      </trkpt>
      <trkpt lat="43.17563" lon="3.18615">
        <ele>3.9</ele>
        <time>2021-07-20T09:33:05Z</time>
      </trkpt>
      <trkpt lat="43.1756" lon="3.18612">
        <ele>3.9</ele>
        <time>2021-07-20T09:33:06Z</time>
      </trkpt>
      <trkpt lat="43.17557" lon="3.18609">
        <ele>3.9</ele>
        <time>2021-07-20T09:33:07Z</time>
      </trkpt>
      <trkpt lat="43.17555" lon="3.18606">
        <ele>3.8</ele>
        <time>2021-07-20T09:33:08Z</time>
      </trkpt>
      <trkpt lat="43.17552" lon="3.18603">
        <ele>3.8</ele>
        <time>2021-07-20T09:33:09Z</time>
      </trkpt>
      <trkpt lat="43.17549" lon="3.186">
        <ele>3.8</ele>
        <time>2021-07-20T09:33:10Z</time>
      </trkpt>
      <trkpt lat="43.17547" lon="3.18597">
        <ele>3.7</ele>
        <time>2021-07-20T09:33:11Z</time>
      </trkpt>
      <trkpt lat="43.17544" lon="3.18594">
        <ele>-3.7496533</ele>
        <time>2021-07-20T09:33:12Z</time>
      </trkpt>
      <trkpt lat="43.17541" lon="3.18591">
        <ele>3.6</ele>
        <time>2021-07-20T09:33:13Z</time>
      </trkpt>
      <trkpt lat="43.17539" lon="3.18588">
        <ele>3.5</ele>
        <time>2021-07-20T09:33:14Z</time>
      </trkpt>
      <trkpt lat="43.17536" lon="3.18585">
        <ele>3.4</ele>
        <time>2021-07-20T09:33:15Z</time>
      </trkpt>
      <trkpt lat="43.17534" lon="3.18581">
        <ele>3.5</ele>
        <time>2021-07-20T09:33:16Z</time>
      </trkpt>
      <trkpt lat="43.17531" lon="3.18577">
        <ele>3.5</ele>
        <time>2021-07-20T09:33:17Z</time>
      </trkpt>
      <trkpt lat="43.17529" lon="3.18573">
        <ele>3.5</ele>
        <time>2021-07-20T09:33:18Z</time>
      </trkpt>
      <trkpt lat="43.17527" lon="3.1857">
        <ele>3.5</ele>
        <time>2021-07-20T09:33:19Z</time>
      </trkpt>
      <trkpt lat="43.17525" lon="3.18567">
        <ele>3.5</ele>
        <time>2021-07-20T09:33:20Z</time>
      </trkpt>
      <trkpt lat="43.17522" lon="3.18563">
        <ele>3.5</ele>
        <time>2021-07-20T09:33:21Z</time>
      </trkpt>
      <trkpt lat="43.1752" lon="3.1856">
        <ele>-3.3242896</ele>
        <time>2021-07-20T09:33:22Z</time>
      </trkpt>
      <trkpt lat="43.17518" lon="3.18556">
        <ele>3.5</ele>
        <time>2021-07-20T09:33:23Z</time>
      </trkpt>
      <trkpt lat="43.17516" lon="3.18553">
        <ele>3.5</ele>
        <time>2021-07-20T09:33:24Z</time>
      </trkpt>
      <trkpt lat="43.17513" lon="3.1855">
        <ele>3.4</ele>
        <time>2021-07-20T09:33:25Z</time>
      </trkpt>
      <trkpt lat="43.17511" lon="3.18547">
        <ele>3.4</ele>
        <time>2021-07-20T09:33:26Z</time>
      </trkpt>
      <trkpt lat="43.17508" lon="3.18543">
        <ele>3.3</ele>
        <time>2021-07-20T09:33:27Z</time>
      </trkpt>
      <trkpt lat="43.17505" lon="3.18539">
        <ele>3.2</ele>
        <time>2021-07-20T09:33:28Z</time>
      </trkpt>
      <trkpt lat="43.17503" lon="3.18535">
        <ele>3.1</ele>
        <time>2021-07-20T09:33:29Z</time>
      </trkpt>
      <trkpt lat="43.175" lon="3.18531">
        <ele>3</ele>
        <time>2021-07-20T09:33:30Z</time>
      </trkpt>
      <trkpt lat="43.17498" lon="3.18527">
        <ele>3</ele>
        <time>2021-07-20T09:33:31Z</time>
      </trkpt>
      <trkpt lat="43.17495" lon="3.18523">
        <ele>-3.2122412</ele>
        <time>2021-07-20T09:33:32Z</time>
      </trkpt>
      <trkpt lat="43.17493" lon="3.18519">
        <ele>3.1</ele>
        <time>2021-07-20T09:33:33Z</time>
      </trkpt>
      <trkpt lat="43.1749" lon="3.18515">
        <ele>3.1</ele>
        <time>2021-07-20T09:33:34Z</time>
      </trkpt>
      <trkpt lat="43.17488" lon="3.1851">
        <ele>3.2</ele>
        <time>2021-07-20T09:33:35Z</time>
      </trkpt>
      <trkpt lat="43.17485" lon="3.18506">
        <ele>3.2</ele>
        <time>2021-07-20T09:33:36Z</time>
      </trkpt>
      <trkpt lat="43.17483" lon="3.18502">
        <ele>3.2</ele>
        <time>2021-07-20T09:33:37Z</time>
      </trkpt>
      <trkpt lat="43.1748" lon="3.18498">
        <ele>3.3</ele>
        <time>2021-07-20T09:33:38Z</time>
      </trkpt>
      <trkpt lat="43.17477" lon="3.18494">
        <ele>3.3</ele>
        <time>2021-07-20T09:33:39Z</time>
      </trkpt>
      <trkpt lat="43.17475" lon="3.1849">
        <ele>3.4</ele>
        <time>2021-07-20T09:33:40Z</time>
      </trkpt>
      <trkpt lat="43.17473" lon="3.18486">
        <ele>-3.3242896</ele>
        <time>2021-07-20T09:33:41Z</time>
      </trkpt>
      <trkpt lat="43.1747" lon="3.18482">
        <ele>3.5</ele>
        <time>2021-07-20T09:33:42Z</time>
      </trkpt>
      <trkpt lat="43.17468" lon="3.18478">
        <ele>3.6</ele>
        <time>2021-07-20T09:33:43Z</time>
      </trkpt>
      <trkpt lat="43.17465" lon="3.18474">
        <ele>3.6</ele>
        <time>2021-07-20T09:33:44Z</time>
      </trkpt>
      <trkpt lat="43.17463" lon="3.1847">
        <ele>3.7</ele>
        <time>2021-07-20T09:33:45Z</time>
      </trkpt>
      <trkpt lat="43.1746" lon="3.18466">
        <ele>3.7</ele>
        <time>2021-07-20T09:33:46Z</time>
      </trkpt>
      <trkpt lat="43.17458" lon="3.18462">
        <ele>3.7</ele>
        <time>2021-07-20T09:33:47Z</time>
      </trkpt>
      <trkpt lat="43.17456" lon="3.18458">
        <ele>3.8</ele>
        <time>2021-07-20T09:33:48Z</time>
      </trkpt>
      <trkpt lat="43.17453" lon="3.18454">
        <ele>3.8</ele>
        <time>2021-07-20T09:33:49Z</time>
      </trkpt>
      <trkpt lat="43.17452" lon="3.18451">
        <ele>3.8</ele>
        <time>2021-07-20T09:33:50Z</time>
      </trkpt>
      <trkpt lat="43.17449" lon="3.18447">
        <ele>-3.5463097</ele>
        <time>2021-07-20T09:33:51Z</time>
      </trkpt>
      <trkpt lat="43.17447" lon="3.18443">
        <ele>3.9</ele>
        <time>2021-07-20T09:33:52Z</time>
      </trkpt>
      <trkpt lat="43.17444" lon="3.18439">
        <ele>3.9</ele>
        <time>2021-07-20T09:33:53Z</time>
      </trkpt>
      <trkpt lat="43.17441" lon="3.18436">
        <ele>3.9</ele>
        <time>2021-07-20T09:33:54Z</time>
      </trkpt>
      <trkpt lat="43.17438" lon="3.18432">
        <ele>4</ele>
        <time>2021-07-20T09:33:55Z</time>
      </trkpt>
      <trkpt lat="43.17435" lon="3.18429">
        <ele>4</ele>
        <time>2021-07-20T09:33:56Z</time>
      </trkpt>
      <trkpt lat="43.17432" lon="3.18425">
        <ele>4</ele>
        <time>2021-07-20T09:33:57Z</time>
      </trkpt>
      <trkpt lat="43.17429" lon="3.18422">
        <ele>4</ele>
        <time>2021-07-20T09:33:58Z</time>
      </trkpt>
      <trkpt lat="43.17426" lon="3.18419">
        <ele>4</ele>
        <time>2021-07-20T09:33:59Z</time>
      </trkpt>
      <trkpt lat="43.17423" lon="3.18416">
        <ele>4</ele>
        <time>2021-07-20T09:34:00Z</time>
      </trkpt>
      <trkpt lat="43.17419" lon="3.18413">
        <ele>-3.3637137</ele>
        <time>2021-07-20T09:34:01Z</time>
      </trkpt>
      <trkpt lat="43.17416" lon="3.1841">
        <ele>4.1</ele>
        <time>2021-07-20T09:34:02Z</time>
      </trkpt>
      <trkpt lat="43.17413" lon="3.18407">
        <ele>4.1</ele>
        <time>2021-07-20T09:34:03Z</time>
      </trkpt>
      <trkpt lat="43.1741" lon="3.18404">
        <ele>4.1</ele>
        <time>2021-07-20T09:34:04Z</time>
      </trkpt>
      <trkpt lat="43.17407" lon="3.18401">
        <ele>4</ele>
        <time>2021-07-20T09:34:05Z</time>
      </trkpt>
      <trkpt lat="43.17404" lon="3.18399">
        <ele>4</ele>
        <time>2021-07-20T09:34:06Z</time>
      </trkpt>
      <trkpt lat="43.17401" lon="3.18396">
        <ele>4</ele>
        <time>2021-07-20T09:34:07Z</time>
      </trkpt>
      <trkpt lat="43.17398" lon="3.18393">
        <ele>4</ele>
        <time>2021-07-20T09:34:08Z</time>
      </trkpt>
      <trkpt lat="43.17394" lon="3.1839">
        <ele>4</ele>
        <time>2021-07-20T09:34:09Z</time>
      </trkpt>
      <trkpt lat="43.17391" lon="3.18388">
        <ele>3.9</ele>
        <time>2021-07-20T09:34:10Z</time>
      </trkpt>
      <trkpt lat="43.17388" lon="3.18387">
        <ele>-3.6697683</ele>
        <time>2021-07-20T09:34:11Z</time>
      </trkpt>
      <trkpt lat="43.17385" lon="3.18385">
        <ele>3.9</ele>
        <time>2021-07-20T09:34:12Z</time>
      </trkpt>
      <trkpt lat="43.17382" lon="3.18383">
        <ele>3.8</ele>
        <time>2021-07-20T09:34:13Z</time>
      </trkpt>
      <trkpt lat="43.1738" lon="3.1838">
        <ele>3.8</ele>
        <time>2021-07-20T09:34:14Z</time>
      </trkpt>
      <trkpt lat="43.17377" lon="3.18377">
        <ele>3.8</ele>
        <time>2021-07-20T09:34:15Z</time>
      </trkpt>
      <trkpt lat="43.17375" lon="3.18374">
        <ele>3.7</ele>
        <time>2021-07-20T09:34:16Z</time>
      </trkpt>
      <trkpt lat="43.17372" lon="3.18371">
        <ele>3.7</ele>
        <time>2021-07-20T09:34:17Z</time>
      </trkpt>
      <trkpt lat="43.17369" lon="3.18368">
        <ele>3.7</ele>
        <time>2021-07-20T09:34:18Z</time>
      </trkpt>
      <trkpt lat="43.17366" lon="3.18366">
        <ele>3.6</ele>
        <time>2021-07-20T09:34:19Z</time>
      </trkpt>
      <trkpt lat="43.17362" lon="3.18363">
        <ele>3.6</ele>
        <time>2021-07-20T09:34:20Z</time>
      </trkpt>
      <trkpt lat="43.17359" lon="3.1836">
        <ele>-3.6894803</ele>
        <time>2021-07-20T09:34:21Z</time>
      </trkpt>
      <trkpt lat="43.17356" lon="3.18358">
        <ele>3.5</ele>
        <time>2021-07-20T09:34:22Z</time>
      </trkpt>
      <trkpt lat="43.17352" lon="3.18356">
        <ele>3.4</ele>
        <time>2021-07-20T09:34:23Z</time>
      </trkpt>
      <trkpt lat="43.17349" lon="3.18353">
        <ele>3.3</ele>
        <time>2021-07-20T09:34:24Z</time>
      </trkpt>
      <trkpt lat="43.17346" lon="3.18351">
        <ele>3.3</ele>
        <time>2021-07-20T09:34:25Z</time>
      </trkpt>
      <trkpt lat="43.17344" lon="3.18349">
        <ele>3.2</ele>
        <time>2021-07-20T09:34:26Z</time>
      </trkpt>
      <trkpt lat="43.17341" lon="3.18346">
        <ele>3.2</ele>
        <time>2021-07-20T09:34:27Z</time>
      </trkpt>
      <trkpt lat="43.17337" lon="3.18344">
        <ele>3.1</ele>
        <time>2021-07-20T09:34:28Z</time>
      </trkpt>
      <trkpt lat="43.17334" lon="3.18342">
        <ele>3</ele>
        <time>2021-07-20T09:34:29Z</time>
      </trkpt>
      <trkpt lat="43.1733" lon="3.18339">
        <ele>3</ele>
        <time>2021-07-20T09:34:30Z</time>
      </trkpt>
      <trkpt lat="43.17327" lon="3.18337">
        <ele>3</ele>
        <time>2021-07-20T09:34:31Z</time>
      </trkpt>
      <trkpt lat="43.17324" lon="3.18334">
        <ele>-3.6106327</ele>
        <time>2021-07-20T09:34:32Z</time>
      </trkpt>
      <trkpt lat="43.17321" lon="3.1833">
        <ele>3.1</ele>
        <time>2021-07-20T09:34:33Z</time>
      </trkpt>
      <trkpt lat="43.17319" lon="3.18328">
        <ele>3.2</ele>
        <time>2021-07-20T09:34:34Z</time>
      </trkpt>
      <trkpt lat="43.17316" lon="3.18325">
        <ele>3.3</ele>
        <time>2021-07-20T09:34:35Z</time>
      </trkpt>
      <trkpt lat="43.17314" lon="3.18322">
        <ele>3.4</ele>
        <time>2021-07-20T09:34:36Z</time>
      </trkpt>
      <trkpt lat="43.17311" lon="3.18318">
        <ele>3.4</ele>
        <time>2021-07-20T09:34:37Z</time>
      </trkpt>
      <trkpt lat="43.17309" lon="3.18315">
        <ele>3.5</ele>
        <time>2021-07-20T09:34:38Z</time>
      </trkpt>
      <trkpt lat="43.17306" lon="3.18312">
        <ele>3.6</ele>
        <time>2021-07-20T09:34:39Z</time>
      </trkpt>
      <trkpt lat="43.17304" lon="3.18309">
        <ele>3.7</ele>
        <time>2021-07-20T09:34:40Z</time>
      </trkpt>
      <trkpt lat="43.17301" lon="3.18306">
        <ele>3.7</ele>
        <time>2021-07-20T09:34:41Z</time>
      </trkpt>
      <trkpt lat="43.17298" lon="3.18302">
        <ele>-3.9332833</ele>
        <time>2021-07-20T09:34:42Z</time>
      </trkpt>
      <trkpt lat="43.17295" lon="3.18299">
        <ele>3.9</ele>
        <time>2021-07-20T09:34:43Z</time>
      </trkpt>
      <trkpt lat="43.17292" lon="3.18296">
        <ele>3.9</ele>
        <time>2021-07-20T09:34:44Z</time>
      </trkpt>
      <trkpt lat="43.1729" lon="3.18293">
        <ele>3.9</ele>
        <time>2021-07-20T09:34:45Z</time>
      </trkpt>
      <trkpt lat="43.17287" lon="3.1829">
        <ele>4</ele>
        <time>2021-07-20T09:34:46Z</time>
      </trkpt>
      <trkpt lat="43.17285" lon="3.18287">
        <ele>4</ele>
        <time>2021-07-20T09:34:47Z</time>
      </trkpt>
      <trkpt lat="43.17282" lon="3.18284">
        <ele>4.1</ele>
        <time>2021-07-20T09:34:48Z</time>
      </trkpt>
      <trkpt lat="43.17279" lon="3.18281">
        <ele>4.1</ele>
        <time>2021-07-20T09:34:49Z</time>
      </trkpt>
      <trkpt lat="43.17277" lon="3.18277">
        <ele>4.1</ele>
        <time>2021-07-20T09:34:50Z</time>
      </trkpt>
      <trkpt lat="43.17275" lon="3.18275">
        <ele>4.1</ele>
        <time>2021-07-20T09:34:51Z</time>
      </trkpt>
      <trkpt lat="43.17272" lon="3.18272">
        <ele>-3.9042346</ele>
        <time>2021-07-20T09:34:52Z</time>
      </trkpt>
      <trkpt lat="43.1727" lon="3.18269">
        <ele>4.1</ele>
        <time>2021-07-20T09:34:53Z</time>
      </trkpt>
      <trkpt lat="43.17267" lon="3.18266">
        <ele>4.1</ele>
        <time>2021-07-20T09:34:54Z</time>
      </trkpt>
      <trkpt lat="43.17265" lon="3.18263">
        <ele>4.1</ele>
        <time>2021-07-20T09:34:55Z</time>
      </trkpt>
      <trkpt lat="43.17262" lon="3.1826">
        <ele>4.1</ele>
        <time>2021-07-20T09:34:56Z</time>
      </trkpt>
      <trkpt lat="43.1726" lon="3.18258">
        <ele>4.1</ele>
        <time>2021-07-20T09:34:57Z</time>
      </trkpt>
      <trkpt lat="43.17257" lon="3.18255">
        <ele>4.1</ele>
        <time>2021-07-20T09:34:58Z</time>
      </trkpt>
      <trkpt lat="43.17255" lon="3.18252">
        <ele>4.1</ele>
        <time>2021-07-20T09:34:59Z</time>
      </trkpt>
      <trkpt lat="43.17252" lon="3.18249">
        <ele>4.1</ele>
        <time>2021-07-20T09:35:00Z</time>
      </trkpt>
      <trkpt lat="43.1725" lon="3.18246">
        <ele>4.2</ele>
        <time>2021-07-20T09:35:01Z</time>
      </trkpt>
      <trkpt lat="43.17247" lon="3.18243">
        <ele>-4.027692</ele>
        <time>2021-07-20T09:35:02Z</time>
      </trkpt>
      <trkpt lat="43.17245" lon="3.18239">
        <ele>4.5</ele>
        <time>2021-07-20T09:35:03Z</time>
      </trkpt>
      <trkpt lat="43.17243" lon="3.18237">
        <ele>4.7</ele>
        <time>2021-07-20T09:35:04Z</time>
      </trkpt>
      <trkpt lat="43.17241" lon="3.18236">
        <ele>4.7</ele>
        <time>2021-07-20T09:35:05Z</time>
      </trkpt>
      <trkpt lat="43.17239" lon="3.18235">
        <ele>4.7</ele>
        <time>2021-07-20T09:35:06Z</time>
      </trkpt>
      <trkpt lat="43.17237" lon="3.18235">
        <ele>4.7</ele>
        <time>2021-07-20T09:35:07Z</time>
      </trkpt>
      <trkpt lat="43.17235" lon="3.18234">
        <ele>4.7</ele>
        <time>2021-07-20T09:35:08Z</time>
      </trkpt>
      <trkpt lat="43.17233" lon="3.18234">
        <ele>4.6</ele>
        <time>2021-07-20T09:35:09Z</time>
      </trkpt>
      <trkpt lat="43.17231" lon="3.18235">
        <ele>4.6</ele>
        <time>2021-07-20T09:35:10Z</time>
      </trkpt>
      <trkpt lat="43.17228" lon="3.18235">
        <ele>4.5</ele>
        <time>2021-07-20T09:35:11Z</time>
      </trkpt>
      <trkpt lat="43.17226" lon="3.18234">
        <ele>-3.8388748</ele>
        <time>2021-07-20T09:35:12Z</time>
      </trkpt>
      <trkpt lat="43.17224" lon="3.18231">
        <ele>4.6</ele>
        <time>2021-07-20T09:35:13Z</time>
      </trkpt>
      <trkpt lat="43.17223" lon="3.18227">
        <ele>4.8</ele>
        <time>2021-07-20T09:35:14Z</time>
      </trkpt>
      <trkpt lat="43.17224" lon="3.18224">
        <ele>5</ele>
        <time>2021-07-20T09:35:15Z</time>
      </trkpt>
      <trkpt lat="43.17224" lon="3.1822">
        <ele>5.2</ele>
        <time>2021-07-20T09:35:16Z</time>
      </trkpt>
      <trkpt lat="43.17224" lon="3.18216">
        <ele>5.3</ele>
        <time>2021-07-20T09:35:17Z</time>
      </trkpt>
      <trkpt lat="43.17223" lon="3.18212">
        <ele>5.5</ele>
        <time>2021-07-20T09:35:18Z</time>
      </trkpt>
      <trkpt lat="43.17222" lon="3.18209">
        <ele>5.6</ele>
        <time>2021-07-20T09:35:19Z</time>
      </trkpt>
      <trkpt lat="43.1722" lon="3.18206">
        <ele>5.7</ele>
        <time>2021-07-20T09:35:20Z</time>
      </trkpt>
      <trkpt lat="43.17217" lon="3.18202">
        <ele>-3.952995</ele>
        <time>2021-07-20T09:35:21Z</time>
      </trkpt>
      <trkpt lat="43.17215" lon="3.18199">
        <ele>5.9</ele>
        <time>2021-07-20T09:35:22Z</time>
      </trkpt>
      <trkpt lat="43.17212" lon="3.18196">
        <ele>5.9</ele>
        <time>2021-07-20T09:35:23Z</time>
      </trkpt>
      <trkpt lat="43.1721" lon="3.18193">
        <ele>6</ele>
        <time>2021-07-20T09:35:24Z</time>
      </trkpt>
      <trkpt lat="43.17207" lon="3.1819">
        <ele>6</ele>
        <time>2021-07-20T09:35:25Z</time>
      </trkpt>
      <trkpt lat="43.17205" lon="3.18187">
        <ele>6</ele>
        <time>2021-07-20T09:35:26Z</time>
      </trkpt>
      <trkpt lat="43.17202" lon="3.18184">
        <ele>6</ele>
        <time>2021-07-20T09:35:27Z</time>
      </trkpt>
      <trkpt lat="43.17199" lon="3.18181">
        <ele>6</ele>
        <time>2021-07-20T09:35:28Z</time>
      </trkpt>
      <trkpt lat="43.17197" lon="3.18178">
        <ele>6</ele>
        <time>2021-07-20T09:35:29Z</time>
      </trkpt>
      <trkpt lat="43.17194" lon="3.18175">
        <ele>6</ele>
        <time>2021-07-20T09:35:30Z</time>
      </trkpt>
      <trkpt lat="43.17192" lon="3.18172">
        <ele>-3.757953</ele>
        <time>2021-07-20T09:35:31Z</time>
      </trkpt>
      <trkpt lat="43.17189" lon="3.18168">
        <ele>6</ele>
        <time>2021-07-20T09:35:32Z</time>
      </trkpt>
      <trkpt lat="43.17186" lon="3.18165">
        <ele>6</ele>
        <time>2021-07-20T09:35:33Z</time>
      </trkpt>
      <trkpt lat="43.17184" lon="3.18162">
        <ele>6.1</ele>
        <time>2021-07-20T09:35:34Z</time>
      </trkpt>
      <trkpt lat="43.17181" lon="3.18159">
        <ele>6.1</ele>
        <time>2021-07-20T09:35:35Z</time>
      </trkpt>
      <trkpt lat="43.1718" lon="3.18155">
        <ele>6.2</ele>
        <time>2021-07-20T09:35:36Z</time>
      </trkpt>
      <trkpt lat="43.17178" lon="3.18151">
        <ele>6.3</ele>
        <time>2021-07-20T09:35:37Z</time>
      </trkpt>
      <trkpt lat="43.17175" lon="3.18148">
        <ele>6.4</ele>
        <time>2021-07-20T09:35:38Z</time>
      </trkpt>
      <trkpt lat="43.17173" lon="3.18145">
        <ele>6.4</ele>
        <time>2021-07-20T09:35:39Z</time>
      </trkpt>
      <trkpt lat="43.17171" lon="3.18142">
        <ele>6.5</ele>
        <time>2021-07-20T09:35:40Z</time>
      </trkpt>
      <trkpt lat="43.17169" lon="3.18139">
        <ele>-3.3574889</ele>
        <time>2021-07-20T09:35:41Z</time>
      </trkpt>
      <trkpt lat="43.17167" lon="3.18137">
        <ele>6.5</ele>
        <time>2021-07-20T09:35:42Z</time>
      </trkpt>
      <trkpt lat="43.17165" lon="3.18135">
        <ele>6.5</ele>
        <time>2021-07-20T09:35:43Z</time>
      </trkpt>
      <trkpt lat="43.17163" lon="3.18133">
        <ele>6.4</ele>
        <time>2021-07-20T09:35:44Z</time>
      </trkpt>
      <trkpt lat="43.1716" lon="3.18131">
        <ele>6.4</ele>
        <time>2021-07-20T09:35:45Z</time>
      </trkpt>
      <trkpt lat="43.17158" lon="3.18129">
        <ele>6.3</ele>
        <time>2021-07-20T09:35:46Z</time>
      </trkpt>
      <trkpt lat="43.17155" lon="3.18128">
        <ele>6.3</ele>
        <time>2021-07-20T09:35:47Z</time>
      </trkpt>
      <trkpt lat="43.17152" lon="3.18126">
        <ele>6.2</ele>
        <time>2021-07-20T09:35:48Z</time>
      </trkpt>
      <trkpt lat="43.1715" lon="3.18125">
        <ele>6.1</ele>
        <time>2021-07-20T09:35:49Z</time>
      </trkpt>
      <trkpt lat="43.17148" lon="3.18124">
        <ele>6</ele>
        <time>2021-07-20T09:35:50Z</time>
      </trkpt>
      <trkpt lat="43.17146" lon="3.18124">
        <ele>-3.53801</ele>
        <time>2021-07-20T09:35:51Z</time>
      </trkpt>
      <trkpt lat="43.17144" lon="3.18123">
        <ele>5.9</ele>
        <time>2021-07-20T09:35:52Z</time>
      </trkpt>
      <trkpt lat="43.17142" lon="3.18122">
        <ele>5.7</ele>
        <time>2021-07-20T09:35:53Z</time>
      </trkpt>
      <trkpt lat="43.1714" lon="3.1812">
        <ele>5.7</ele>
        <time>2021-07-20T09:35:54Z</time>
      </trkpt>
      <trkpt lat="43.17138" lon="3.18119">
        <ele>5.5</ele>
        <time>2021-07-20T09:35:55Z</time>
      </trkpt>
      <trkpt lat="43.17135" lon="3.18118">
        <ele>5.4</ele>
        <time>2021-07-20T09:35:56Z</time>
      </trkpt>
      <trkpt lat="43.17133" lon="3.18117">
        <ele>5.3</ele>
        <time>2021-07-20T09:35:57Z</time>
      </trkpt>
      <trkpt lat="43.17131" lon="3.18114">
        <ele>5.2</ele>
        <time>2021-07-20T09:35:58Z</time>
      </trkpt>
      <trkpt lat="43.1713" lon="3.18111">
        <ele>5.1</ele>
        <time>2021-07-20T09:35:59Z</time>
      </trkpt>
      <trkpt lat="43.17129" lon="3.18107">
        <ele>5.1</ele>
        <time>2021-07-20T09:36:00Z</time>
      </trkpt>
      <trkpt lat="43.17129" lon="3.18105">
        <ele>-3.8139758</ele>
        <time>2021-07-20T09:36:01Z</time>
      </trkpt>
      <trkpt lat="43.17129" lon="3.18102">
        <ele>5.2</ele>
        <time>2021-07-20T09:36:02Z</time>
      </trkpt>
      <trkpt lat="43.17128" lon="3.181">
        <ele>5.2</ele>
        <time>2021-07-20T09:36:03Z</time>
      </trkpt>
      <trkpt lat="43.17128" lon="3.18098">
        <ele>5.2</ele>
        <time>2021-07-20T09:36:04Z</time>
      </trkpt>
      <trkpt lat="43.17128" lon="3.18097">
        <ele>5.1</ele>
        <time>2021-07-20T09:36:05Z</time>
      </trkpt>
      <trkpt lat="43.17128" lon="3.18096">
        <ele>5.1</ele>
        <time>2021-07-20T09:36:06Z</time>
      </trkpt>
      <trkpt lat="43.17127" lon="3.18095">
        <ele>5.1</ele>
        <time>2021-07-20T09:36:07Z</time>
      </trkpt>
      <trkpt lat="43.17127" lon="3.18093">
        <ele>5.1</ele>
        <time>2021-07-20T09:36:08Z</time>
      </trkpt>
      <trkpt lat="43.17127" lon="3.18092">
        <ele>5.1</ele>
        <time>2021-07-20T09:36:09Z</time>
      </trkpt>
      <trkpt lat="43.17127" lon="3.18092">
        <ele>5.1</ele>
        <time>2021-07-20T09:36:10Z</time>
      </trkpt>
      <trkpt lat="43.17127" lon="3.18092">
        <ele>5.1</ele>
        <time>2021-07-20T09:36:11Z</time>
      </trkpt>
      <trkpt lat="43.17127" lon="3.18092">
        <ele>-4.151148</ele>
        <time>2021-07-20T09:36:12Z</time>
      </trkpt>
      <trkpt lat="43.17127" lon="3.18091">
        <ele>5.1</ele>
        <time>2021-07-20T09:36:13Z</time>
      </trkpt>
      <trkpt lat="43.17127" lon="3.1809">
        <ele>5.1</ele>
        <time>2021-07-20T09:36:14Z</time>
      </trkpt>
      <trkpt lat="43.17127" lon="3.18088">
        <ele>5.2</ele>
        <time>2021-07-20T09:36:15Z</time>
      </trkpt>
      <trkpt lat="43.17127" lon="3.18087">
        <ele>5.2</ele>
        <time>2021-07-20T09:36:16Z</time>
      </trkpt>
      <trkpt lat="43.17127" lon="3.18086">
        <ele>5.2</ele>
        <time>2021-07-20T09:36:17Z</time>
      </trkpt>
      <trkpt lat="43.17126" lon="3.18083">
        <ele>5.1</ele>
        <time>2021-07-20T09:36:18Z</time>
      </trkpt>
      <trkpt lat="43.17124" lon="3.18081">
        <ele>4.8</ele>
        <time>2021-07-20T09:36:19Z</time>
      </trkpt>
      <trkpt lat="43.17122" lon="3.18078">
        <ele>4.6</ele>
        <time>2021-07-20T09:36:20Z</time>
      </trkpt>
      <trkpt lat="43.17118" lon="3.18076">
        <ele>4.2</ele>
        <time>2021-07-20T09:36:21Z</time>
      </trkpt>
      <trkpt lat="43.17115" lon="3.18073">
        <ele>-4.136624</ele>
        <time>2021-07-20T09:36:22Z</time>
      </trkpt>
      <trkpt lat="43.17111" lon="3.1807">
        <ele>3.6</ele>
        <time>2021-07-20T09:36:23Z</time>
      </trkpt>
      <trkpt lat="43.17107" lon="3.18067">
        <ele>3.3</ele>
        <time>2021-07-20T09:36:24Z</time>
      </trkpt>
      <trkpt lat="43.17104" lon="3.18064">
        <ele>3</ele>
        <time>2021-07-20T09:36:25Z</time>
      </trkpt>
      <trkpt lat="43.171" lon="3.1806">
        <ele>2.7</ele>
        <time>2021-07-20T09:36:26Z</time>
      </trkpt>
      <trkpt lat="43.17096" lon="3.18057">
        <ele>2.5</ele>
        <time>2021-07-20T09:36:27Z</time>
      </trkpt>
      <trkpt lat="43.17092" lon="3.18054">
        <ele>2.2</ele>
        <time>2021-07-20T09:36:28Z</time>
      </trkpt>
      <trkpt lat="43.17088" lon="3.18051">
        <ele>2.1</ele>
        <time>2021-07-20T09:36:29Z</time>
      </trkpt>
      <trkpt lat="43.17085" lon="3.18048">
        <ele>2</ele>
        <time>2021-07-20T09:36:30Z</time>
      </trkpt>
      <trkpt lat="43.17083" lon="3.18046">
        <ele>1.9</ele>
        <time>2021-07-20T09:36:31Z</time>
      </trkpt>
      <trkpt lat="43.1708" lon="3.18044">
        <ele>-3.4913235</ele>
        <time>2021-07-20T09:36:32Z</time>
      </trkpt>
      <trkpt lat="43.17078" lon="3.18042">
        <ele>2.1</ele>
        <time>2021-07-20T09:36:33Z</time>
      </trkpt>
      <trkpt lat="43.17075" lon="3.1804">
        <ele>2.2</ele>
        <time>2021-07-20T09:36:34Z</time>
      </trkpt>
      <trkpt lat="43.17072" lon="3.18037">
        <ele>2.3</ele>
        <time>2021-07-20T09:36:35Z</time>
      </trkpt>
      <trkpt lat="43.17069" lon="3.18035">
        <ele>2.4</ele>
        <time>2021-07-20T09:36:36Z</time>
      </trkpt>
      <trkpt lat="43.17067" lon="3.18032">
        <ele>2.5</ele>
        <time>2021-07-20T09:36:37Z</time>
      </trkpt>
      <trkpt lat="43.17064" lon="3.1803">
        <ele>2.6</ele>
        <time>2021-07-20T09:36:38Z</time>
      </trkpt>
      <trkpt lat="43.1706" lon="3.18027">
        <ele>2.7</ele>
        <time>2021-07-20T09:36:39Z</time>
      </trkpt>
      <trkpt lat="43.17056" lon="3.18023">
        <ele>2.8</ele>
        <time>2021-07-20T09:36:40Z</time>
      </trkpt>
      <trkpt lat="43.17052" lon="3.1802">
        <ele>2.9</ele>
        <time>2021-07-20T09:36:41Z</time>
      </trkpt>
      <trkpt lat="43.17049" lon="3.1802">
        <ele>-2.7152793</ele>
        <time>2021-07-20T09:36:42Z</time>
      </trkpt>
      <trkpt lat="43.17045" lon="3.18021">
        <ele>3</ele>
        <time>2021-07-20T09:36:43Z</time>
      </trkpt>
      <trkpt lat="43.17043" lon="3.18025">
        <ele>3</ele>
        <time>2021-07-20T09:36:44Z</time>
      </trkpt>
      <trkpt lat="43.17042" lon="3.1803">
        <ele>3</ele>
        <time>2021-07-20T09:36:45Z</time>
      </trkpt>
      <trkpt lat="43.17041" lon="3.18035">
        <ele>3</ele>
        <time>2021-07-20T09:36:46Z</time>
      </trkpt>
      <trkpt lat="43.1704" lon="3.1804">
        <ele>3</ele>
        <time>2021-07-20T09:36:47Z</time>
      </trkpt>
      <trkpt lat="43.1704" lon="3.18046">
        <ele>3.1</ele>
        <time>2021-07-20T09:36:48Z</time>
      </trkpt>
      <trkpt lat="43.17039" lon="3.18051">
        <ele>3.1</ele>
        <time>2021-07-20T09:36:49Z</time>
      </trkpt>
      <trkpt lat="43.17038" lon="3.18057">
        <ele>3.1</ele>
        <time>2021-07-20T09:36:50Z</time>
      </trkpt>
      <trkpt lat="43.17037" lon="3.18062">
        <ele>3.2</ele>
        <time>2021-07-20T09:36:51Z</time>
      </trkpt>
      <trkpt lat="43.17036" lon="3.18067">
        <ele>-3.5992205</ele>
        <time>2021-07-20T09:36:52Z</time>
      </trkpt>
      <trkpt lat="43.17036" lon="3.18072">
        <ele>3.2</ele>
        <time>2021-07-20T09:36:53Z</time>
      </trkpt>
      <trkpt lat="43.17035" lon="3.18077">
        <ele>3.3</ele>
        <time>2021-07-20T09:36:54Z</time>
      </trkpt>
      <trkpt lat="43.17034" lon="3.18082">
        <ele>3.4</ele>
        <time>2021-07-20T09:36:55Z</time>
      </trkpt>
      <trkpt lat="43.17033" lon="3.18087">
        <ele>3.4</ele>
        <time>2021-07-20T09:36:56Z</time>
      </trkpt>
      <trkpt lat="43.17033" lon="3.18092">
        <ele>3.4</ele>
        <time>2021-07-20T09:36:57Z</time>
      </trkpt>
      <trkpt lat="43.17032" lon="3.18098">
        <ele>3.5</ele>
        <time>2021-07-20T09:36:58Z</time>
      </trkpt>
      <trkpt lat="43.17032" lon="3.18103">
        <ele>3.4</ele>
        <time>2021-07-20T09:36:59Z</time>
      </trkpt>
      <trkpt lat="43.17032" lon="3.18109">
        <ele>3.5</ele>
        <time>2021-07-20T09:37:00Z</time>
      </trkpt>
      <trkpt lat="43.17031" lon="3.18114">
        <ele>-3.1811166</ele>
        <time>2021-07-20T09:37:01Z</time>
      </trkpt>
      <trkpt lat="43.1703" lon="3.1812">
        <ele>3.5</ele>
        <time>2021-07-20T09:37:02Z</time>
      </trkpt>
      <trkpt lat="43.17028" lon="3.18124">
        <ele>3.5</ele>
        <time>2021-07-20T09:37:03Z</time>
      </trkpt>
      <trkpt lat="43.17027" lon="3.18128">
        <ele>3.5</ele>
        <time>2021-07-20T09:37:04Z</time>
      </trkpt>
      <trkpt lat="43.17025" lon="3.18131">
        <ele>3.5</ele>
        <time>2021-07-20T09:37:05Z</time>
      </trkpt>
      <trkpt lat="43.17024" lon="3.18135">
        <ele>3.5</ele>
        <time>2021-07-20T09:37:06Z</time>
      </trkpt>
      <trkpt lat="43.17022" lon="3.18138">
        <ele>3.5</ele>
        <time>2021-07-20T09:37:07Z</time>
      </trkpt>
      <trkpt lat="43.1702" lon="3.1814">
        <ele>3.5</ele>
        <time>2021-07-20T09:37:08Z</time>
      </trkpt>
      <trkpt lat="43.17017" lon="3.18142">
        <ele>3.5</ele>
        <time>2021-07-20T09:37:09Z</time>
      </trkpt>
      <trkpt lat="43.17015" lon="3.18142">
        <ele>3.5</ele>
        <time>2021-07-20T09:37:10Z</time>
      </trkpt>
      <trkpt lat="43.17013" lon="3.18141">
        <ele>-3.2620404</ele>
        <time>2021-07-20T09:37:11Z</time>
      </trkpt>
      <trkpt lat="43.17011" lon="3.1814">
        <ele>3.6</ele>
        <time>2021-07-20T09:37:12Z</time>
      </trkpt>
      <trkpt lat="43.17009" lon="3.18138">
        <ele>3.6</ele>
        <time>2021-07-20T09:37:13Z</time>
      </trkpt>
      <trkpt lat="43.17007" lon="3.18136">
        <ele>3.7</ele>
        <time>2021-07-20T09:37:14Z</time>
      </trkpt>
      <trkpt lat="43.17006" lon="3.18134">
        <ele>3.7</ele>
        <time>2021-07-20T09:37:15Z</time>
      </trkpt>
      <trkpt lat="43.17005" lon="3.18132">
        <ele>3.8</ele>
        <time>2021-07-20T09:37:16Z</time>
      </trkpt>
      <trkpt lat="43.17004" lon="3.1813">
        <ele>3.8</ele>
        <time>2021-07-20T09:37:17Z</time>
      </trkpt>
      <trkpt lat="43.17002" lon="3.18128">
        <ele>3.9</ele>
        <time>2021-07-20T09:37:18Z</time>
      </trkpt>
      <trkpt lat="43.17001" lon="3.18126">
        <ele>4</ele>
        <time>2021-07-20T09:37:19Z</time>
      </trkpt>
      <trkpt lat="43.16999" lon="3.18124">
        <ele>4</ele>
        <time>2021-07-20T09:37:20Z</time>
      </trkpt>
      <trkpt lat="43.16997" lon="3.18122">
        <ele>-3.8513243</ele>
        <time>2021-07-20T09:37:21Z</time>
      </trkpt>
      <trkpt lat="43.16996" lon="3.18119">
        <ele>4</ele>
        <time>2021-07-20T09:37:22Z</time>
      </trkpt>
      <trkpt lat="43.16994" lon="3.18117">
        <ele>4</ele>
        <time>2021-07-20T09:37:23Z</time>
      </trkpt>
      <trkpt lat="43.16992" lon="3.18114">
        <ele>4</ele>
        <time>2021-07-20T09:37:24Z</time>
      </trkpt>
      <trkpt lat="43.1699" lon="3.18112">
        <ele>4</ele>
        <time>2021-07-20T09:37:25Z</time>
      </trkpt>
      <trkpt lat="43.16988" lon="3.18109">
        <ele>4</ele>
        <time>2021-07-20T09:37:26Z</time>
      </trkpt>
      <trkpt lat="43.16987" lon="3.18106">
        <ele>4</ele>
        <time>2021-07-20T09:37:27Z</time>
      </trkpt>
      <trkpt lat="43.16986" lon="3.18103">
        <ele>4.1</ele>
        <time>2021-07-20T09:37:28Z</time>
      </trkpt>
      <trkpt lat="43.16985" lon="3.181">
        <ele>4.1</ele>
        <time>2021-07-20T09:37:29Z</time>
      </trkpt>
      <trkpt lat="43.16984" lon="3.18098">
        <ele>4.1</ele>
        <time>2021-07-20T09:37:30Z</time>
      </trkpt>
      <trkpt lat="43.16983" lon="3.18097">
        <ele>-4.027692</ele>
        <time>2021-07-20T09:37:31Z</time>
      </trkpt>
      <trkpt lat="43.16983" lon="3.18097">
        <ele>4.1</ele>
        <time>2021-07-20T09:37:32Z</time>
      </trkpt>
      <trkpt lat="43.16983" lon="3.18097">
        <ele>4.1</ele>
        <time>2021-07-20T09:37:33Z</time>
      </trkpt>
      <trkpt lat="43.16983" lon="3.18097">
        <ele>4.1</ele>
        <time>2021-07-20T09:37:34Z</time>
      </trkpt>
      <trkpt lat="43.16983" lon="3.18097">
        <ele>4.1</ele>
        <time>2021-07-20T09:37:35Z</time>
      </trkpt>
      <trkpt lat="43.16983" lon="3.18097">
        <ele>4.1</ele>
        <time>2021-07-20T09:37:36Z</time>
      </trkpt>
      <trkpt lat="43.16983" lon="3.18097">
        <ele>4.1</ele>
        <time>2021-07-20T09:37:37Z</time>
      </trkpt>
      <trkpt lat="43.16983" lon="3.18097">
        <ele>4.1</ele>
        <time>2021-07-20T09:37:38Z</time>
      </trkpt>
      <trkpt lat="43.16983" lon="3.18097">
        <ele>4.1</ele>
        <time>2021-07-20T09:37:39Z</time>
      </trkpt>
      <trkpt lat="43.16983" lon="3.18097">
        <ele>4.1</ele>
        <time>2021-07-20T09:37:40Z</time>
      </trkpt>
      <trkpt lat="43.16983" lon="3.18097">
        <ele>-4.054665</ele>
        <time>2021-07-20T09:37:41Z</time>
      </trkpt>
      <trkpt lat="43.16983" lon="3.18097">
        <ele>4.1</ele>
        <time>2021-07-20T09:37:42Z</time>
      </trkpt>
      <trkpt lat="43.16983" lon="3.18097">
        <ele>4.1</ele>
        <time>2021-07-20T09:37:43Z</time>
      </trkpt>
      <trkpt lat="43.16983" lon="3.18097">
        <ele>4.1</ele>
        <time>2021-07-20T09:37:44Z</time>
      </trkpt>
      <trkpt lat="43.16983" lon="3.18097">
        <ele>4.1</ele>
        <time>2021-07-20T09:37:45Z</time>
      </trkpt>
      <trkpt lat="43.16983" lon="3.18097">
        <ele>4.1</ele>
        <time>2021-07-20T09:37:46Z</time>
      </trkpt>
      <trkpt lat="43.16983" lon="3.18097">
        <ele>4.1</ele>
        <time>2021-07-20T09:37:47Z</time>
      </trkpt>
      <trkpt lat="43.16983" lon="3.18097">
        <ele>4.1</ele>
        <time>2021-07-20T09:37:48Z</time>
      </trkpt>
      <trkpt lat="43.16983" lon="3.18097">
        <ele>4.1</ele>
        <time>2021-07-20T09:37:49Z</time>
      </trkpt>
      <trkpt lat="43.16983" lon="3.18097">
        <ele>4.1</ele>
        <time>2021-07-20T09:37:50Z</time>
      </trkpt>
      <trkpt lat="43.16983" lon="3.18097">
        <ele>4.1</ele>
        <time>2021-07-20T09:37:51Z</time>
      </trkpt>
      <trkpt lat="43.16983" lon="3.18097">
        <ele>-3.8544366</ele>
        <time>2021-07-20T09:37:52Z</time>
      </trkpt>
      <trkpt lat="43.16983" lon="3.18097">
        <ele>4.1</ele>
        <time>2021-07-20T09:37:53Z</time>
      </trkpt>
      <trkpt lat="43.16983" lon="3.18097">
        <ele>4.1</ele>
        <time>2021-07-20T09:37:54Z</time>
      </trkpt>
      <trkpt lat="43.16983" lon="3.18097">
        <ele>4.1</ele>
        <time>2021-07-20T09:37:55Z</time>
      </trkpt>
      <trkpt lat="43.16983" lon="3.18097">
        <ele>4.1</ele>
        <time>2021-07-20T09:37:56Z</time>
      </trkpt>
      <trkpt lat="43.16983" lon="3.18097">
        <ele>4.1</ele>
        <time>2021-07-20T09:37:57Z</time>
      </trkpt>
      <trkpt lat="43.16983" lon="3.18097">
        <ele>4.1</ele>
        <time>2021-07-20T09:37:58Z</time>
      </trkpt>
      <trkpt lat="43.16983" lon="3.18097">
        <ele>4.1</ele>
        <time>2021-07-20T09:37:59Z</time>
      </trkpt>
      <trkpt lat="43.16983" lon="3.18097">
        <ele>4.1</ele>
        <time>2021-07-20T09:38:00Z</time>
      </trkpt>
      <trkpt lat="43.16983" lon="3.18097">
        <ele>4.1</ele>
        <time>2021-07-20T09:38:01Z</time>
      </trkpt>
      <trkpt lat="43.16983" lon="3.18097">
        <ele>-3.8409498</ele>
        <time>2021-07-20T09:38:02Z</time>
      </trkpt>
      <trkpt lat="43.16983" lon="3.18097">
        <ele>4.1</ele>
        <time>2021-07-20T09:38:03Z</time>
      </trkpt>
      <trkpt lat="43.16983" lon="3.18097">
        <ele>4.1</ele>
        <time>2021-07-20T09:38:04Z</time>
      </trkpt>
      <trkpt lat="43.16983" lon="3.18097">
        <ele>4.1</ele>
        <time>2021-07-20T09:38:05Z</time>
      </trkpt>
      <trkpt lat="43.16983" lon="3.18097">
        <ele>4.1</ele>
        <time>2021-07-20T09:38:06Z</time>
      </trkpt>
      <trkpt lat="43.16983" lon="3.18097">
        <ele>4.1</ele>
        <time>2021-07-20T09:38:07Z</time>
      </trkpt>
      <trkpt lat="43.16983" lon="3.18097">
        <ele>4.1</ele>
        <time>2021-07-20T09:38:08Z</time>
      </trkpt>
      <trkpt lat="43.16983" lon="3.18097">
        <ele>4.1</ele>
        <time>2021-07-20T09:38:09Z</time>
      </trkpt>
      <trkpt lat="43.16983" lon="3.18097">
        <ele>4.1</ele>
        <time>2021-07-20T09:38:10Z</time>
      </trkpt>
      <trkpt lat="43.16983" lon="3.18097">
        <ele>4.1</ele>
        <time>2021-07-20T09:38:11Z</time>
      </trkpt>
      <trkpt lat="43.16983" lon="3.18097">
        <ele>-3.9675195</ele>
        <time>2021-07-20T09:38:12Z</time>
      </trkpt>
      <trkpt lat="43.16983" lon="3.18097">
        <ele>4.1</ele>
        <time>2021-07-20T09:38:13Z</time>
      </trkpt>
      <trkpt lat="43.16983" lon="3.18097">
        <ele>4.1</ele>
        <time>2021-07-20T09:38:14Z</time>
      </trkpt>
      <trkpt lat="43.16983" lon="3.18097">
        <ele>4.1</ele>
        <time>2021-07-20T09:38:15Z</time>
      </trkpt>
      <trkpt lat="43.16983" lon="3.18097">
        <ele>4.1</ele>
        <time>2021-07-20T09:38:16Z</time>
      </trkpt>
      <trkpt lat="43.16983" lon="3.18097">
        <ele>4.1</ele>
        <time>2021-07-20T09:38:17Z</time>
      </trkpt>
      <trkpt lat="43.16983" lon="3.18097">
        <ele>4.1</ele>
        <time>2021-07-20T09:38:18Z</time>
      </trkpt>
      <trkpt lat="43.16983" lon="3.18097">
        <ele>4.1</ele>
        <time>2021-07-20T09:38:19Z</time>
      </trkpt>
      <trkpt lat="43.16983" lon="3.18097">
        <ele>4.1</ele>
        <time>2021-07-20T09:38:20Z</time>
      </trkpt>
      <trkpt lat="43.16983" lon="3.18097">
        <ele>4.1</ele>
        <time>2021-07-20T09:38:21Z</time>
      </trkpt>
      <trkpt lat="43.16983" lon="3.18097">
        <ele>-3.9114969</ele>
        <time>2021-07-20T09:38:22Z</time>
      </trkpt>
      <trkpt lat="43.16983" lon="3.18097">
        <ele>4.1</ele>
        <time>2021-07-20T09:38:23Z</time>
      </trkpt>
      <trkpt lat="43.16983" lon="3.18097">
        <ele>4.1</ele>
        <time>2021-07-20T09:38:24Z</time>
      </trkpt>
      <trkpt lat="43.16983" lon="3.18097">
        <ele>4.1</ele>
        <time>2021-07-20T09:38:25Z</time>
      </trkpt>
      <trkpt lat="43.16983" lon="3.18097">
        <ele>4.1</ele>
        <time>2021-07-20T09:38:26Z</time>
      </trkpt>
      <trkpt lat="43.16983" lon="3.18097">
        <ele>4.1</ele>
        <time>2021-07-20T09:38:27Z</time>
      </trkpt>
      <trkpt lat="43.16983" lon="3.18097">
        <ele>4.1</ele>
        <time>2021-07-20T09:38:28Z</time>
      </trkpt>
      <trkpt lat="43.16983" lon="3.18097">
        <ele>4.1</ele>
        <time>2021-07-20T09:38:29Z</time>
      </trkpt>
      <trkpt lat="43.16983" lon="3.18097">
        <ele>4.1</ele>
        <time>2021-07-20T09:38:30Z</time>
      </trkpt>
      <trkpt lat="43.16983" lon="3.18097">
        <ele>4.1</ele>
        <time>2021-07-20T09:38:31Z</time>
      </trkpt>
      <trkpt lat="43.16983" lon="3.18097">
        <ele>-3.8917851</ele>
        <time>2021-07-20T09:38:32Z</time>
      </trkpt>
      <trkpt lat="43.16983" lon="3.18097">
        <ele>4.1</ele>
        <time>2021-07-20T09:38:33Z</time>
      </trkpt>
      <trkpt lat="43.16983" lon="3.18097">
        <ele>4.1</ele>
        <time>2021-07-20T09:38:34Z</time>
      </trkpt>
      <trkpt lat="43.16983" lon="3.18097">
        <ele>4.1</ele>
        <time>2021-07-20T09:38:35Z</time>
      </trkpt>
      <trkpt lat="43.16983" lon="3.18099">
        <ele>4</ele>
        <time>2021-07-20T09:38:36Z</time>
      </trkpt>
      <trkpt lat="43.16982" lon="3.18098">
        <ele>4</ele>
        <time>2021-07-20T09:38:37Z</time>
      </trkpt>
      <trkpt lat="43.16982" lon="3.18097">
        <ele>4</ele>
        <time>2021-07-20T09:38:38Z</time>
      </trkpt>
      <trkpt lat="43.16981" lon="3.18096">
        <ele>4</ele>
        <time>2021-07-20T09:38:39Z</time>
      </trkpt>
      <trkpt lat="43.16979" lon="3.18095">
        <ele>4</ele>
        <time>2021-07-20T09:38:40Z</time>
      </trkpt>
      <trkpt lat="43.16978" lon="3.18093">
        <ele>-3.9353583</ele>
        <time>2021-07-20T09:38:41Z</time>
      </trkpt>
      <trkpt lat="43.16976" lon="3.18091">
        <ele>4</ele>
        <time>2021-07-20T09:38:42Z</time>
      </trkpt>
      <trkpt lat="43.16974" lon="3.18089">
        <ele>3.9</ele>
        <time>2021-07-20T09:38:43Z</time>
      </trkpt>
      <trkpt lat="43.16972" lon="3.18086">
        <ele>3.9</ele>
        <time>2021-07-20T09:38:44Z</time>
      </trkpt>
      <trkpt lat="43.1697" lon="3.18083">
        <ele>3.9</ele>
        <time>2021-07-20T09:38:45Z</time>
      </trkpt>
      <trkpt lat="43.16967" lon="3.18081">
        <ele>3.8</ele>
        <time>2021-07-20T09:38:46Z</time>
      </trkpt>
      <trkpt lat="43.16965" lon="3.18078">
        <ele>3.7</ele>
        <time>2021-07-20T09:38:47Z</time>
      </trkpt>
      <trkpt lat="43.16962" lon="3.18075">
        <ele>3.6</ele>
        <time>2021-07-20T09:38:48Z</time>
      </trkpt>
      <trkpt lat="43.16959" lon="3.18071">
        <ele>3.5</ele>
        <time>2021-07-20T09:38:49Z</time>
      </trkpt>
      <trkpt lat="43.16957" lon="3.18067">
        <ele>3.4</ele>
        <time>2021-07-20T09:38:50Z</time>
      </trkpt>
      <trkpt lat="43.16954" lon="3.18063">
        <ele>-3.952995</ele>
        <time>2021-07-20T09:38:51Z</time>
      </trkpt>
      <trkpt lat="43.16951" lon="3.18059">
        <ele>3.2</ele>
        <time>2021-07-20T09:38:52Z</time>
      </trkpt>
      <trkpt lat="43.16948" lon="3.18056">
        <ele>3.1</ele>
        <time>2021-07-20T09:38:53Z</time>
      </trkpt>
      <trkpt lat="43.16945" lon="3.18052">
        <ele>3</ele>
        <time>2021-07-20T09:38:54Z</time>
      </trkpt>
      <trkpt lat="43.16942" lon="3.18048">
        <ele>2.9</ele>
        <time>2021-07-20T09:38:55Z</time>
      </trkpt>
      <trkpt lat="43.16938" lon="3.18044">
        <ele>2.9</ele>
        <time>2021-07-20T09:38:56Z</time>
      </trkpt>
      <trkpt lat="43.16935" lon="3.1804">
        <ele>2.8</ele>
        <time>2021-07-20T09:38:57Z</time>
      </trkpt>
      <trkpt lat="43.16932" lon="3.18036">
        <ele>2.8</ele>
        <time>2021-07-20T09:38:58Z</time>
      </trkpt>
      <trkpt lat="43.16929" lon="3.18032">
        <ele>2.8</ele>
        <time>2021-07-20T09:38:59Z</time>
      </trkpt>
      <trkpt lat="43.16925" lon="3.18028">
        <ele>2.8</ele>
        <time>2021-07-20T09:39:00Z</time>
      </trkpt>
      <trkpt lat="43.16922" lon="3.18024">
        <ele>-3.6718433</ele>
        <time>2021-07-20T09:39:01Z</time>
      </trkpt>
      <trkpt lat="43.16919" lon="3.1802">
        <ele>2.8</ele>
        <time>2021-07-20T09:39:02Z</time>
      </trkpt>
      <trkpt lat="43.16916" lon="3.18016">
        <ele>2.8</ele>
        <time>2021-07-20T09:39:03Z</time>
      </trkpt>
      <trkpt lat="43.16912" lon="3.18011">
        <ele>2.8</ele>
        <time>2021-07-20T09:39:04Z</time>
      </trkpt>
      <trkpt lat="43.16909" lon="3.18007">
        <ele>2.7</ele>
        <time>2021-07-20T09:39:05Z</time>
      </trkpt>
      <trkpt lat="43.16905" lon="3.18003">
        <ele>2.7</ele>
        <time>2021-07-20T09:39:06Z</time>
      </trkpt>
      <trkpt lat="43.16901" lon="3.17999">
        <ele>2.6</ele>
        <time>2021-07-20T09:39:07Z</time>
      </trkpt>
      <trkpt lat="43.16898" lon="3.17994">
        <ele>2.5</ele>
        <time>2021-07-20T09:39:08Z</time>
      </trkpt>
      <trkpt lat="43.16895" lon="3.1799">
        <ele>2.4</ele>
        <time>2021-07-20T09:39:09Z</time>
      </trkpt>
      <trkpt lat="43.16891" lon="3.17985">
        <ele>2.3</ele>
        <time>2021-07-20T09:39:10Z</time>
      </trkpt>
      <trkpt lat="43.16888" lon="3.1798">
        <ele>-3.592996</ele>
        <time>2021-07-20T09:39:11Z</time>
      </trkpt>
      <trkpt lat="43.16884" lon="3.17976">
        <ele>2</ele>
        <time>2021-07-20T09:39:12Z</time>
      </trkpt>
      <trkpt lat="43.1688" lon="3.17971">
        <ele>1.9</ele>
        <time>2021-07-20T09:39:13Z</time>
      </trkpt>
      <trkpt lat="43.16877" lon="3.17967">
        <ele>1.8</ele>
        <time>2021-07-20T09:39:14Z</time>
      </trkpt>
      <trkpt lat="43.16873" lon="3.17962">
        <ele>1.7</ele>
        <time>2021-07-20T09:39:15Z</time>
      </trkpt>
      <trkpt lat="43.16869" lon="3.17958">
        <ele>1.6</ele>
        <time>2021-07-20T09:39:16Z</time>
      </trkpt>
      <trkpt lat="43.16866" lon="3.17953">
        <ele>1.6</ele>
        <time>2021-07-20T09:39:17Z</time>
      </trkpt>
      <trkpt lat="43.16862" lon="3.17949">
        <ele>1.5</ele>
        <time>2021-07-20T09:39:18Z</time>
      </trkpt>
      <trkpt lat="43.16858" lon="3.17944">
        <ele>1.4</ele>
        <time>2021-07-20T09:39:19Z</time>
      </trkpt>
      <trkpt lat="43.16854" lon="3.17939">
        <ele>1.3</ele>
        <time>2021-07-20T09:39:20Z</time>
      </trkpt>
      <trkpt lat="43.16851" lon="3.17935">
        <ele>1.3</ele>
        <time>2021-07-20T09:39:21Z</time>
      </trkpt>
      <trkpt lat="43.16847" lon="3.1793">
        <ele>-2.9839928</ele>
        <time>2021-07-20T09:39:22Z</time>
      </trkpt>
      <trkpt lat="43.16843" lon="3.17925">
        <ele>1.1</ele>
        <time>2021-07-20T09:39:23Z</time>
      </trkpt>
      <trkpt lat="43.16839" lon="3.1792">
        <ele>1.1</ele>
        <time>2021-07-20T09:39:24Z</time>
      </trkpt>
      <trkpt lat="43.16835" lon="3.17916">
        <ele>1</ele>
        <time>2021-07-20T09:39:25Z</time>
      </trkpt>
      <trkpt lat="43.16832" lon="3.17911">
        <ele>1.1</ele>
        <time>2021-07-20T09:39:26Z</time>
      </trkpt>
      <trkpt lat="43.16828" lon="3.17906">
        <ele>1.1</ele>
        <time>2021-07-20T09:39:27Z</time>
      </trkpt>
      <trkpt lat="43.16824" lon="3.17901">
        <ele>1.2</ele>
        <time>2021-07-20T09:39:28Z</time>
      </trkpt>
      <trkpt lat="43.16821" lon="3.17896">
        <ele>1.3</ele>
        <time>2021-07-20T09:39:29Z</time>
      </trkpt>
      <trkpt lat="43.16816" lon="3.17892">
        <ele>1.4</ele>
        <time>2021-07-20T09:39:30Z</time>
      </trkpt>
      <trkpt lat="43.16813" lon="3.17887">
        <ele>1.5</ele>
        <time>2021-07-20T09:39:31Z</time>
      </trkpt>
      <trkpt lat="43.16809" lon="3.17883">
        <ele>-3.3740885</ele>
        <time>2021-07-20T09:39:32Z</time>
      </trkpt>
      <trkpt lat="43.16805" lon="3.17878">
        <ele>1.8</ele>
        <time>2021-07-20T09:39:33Z</time>
      </trkpt>
      <trkpt lat="43.16802" lon="3.17873">
        <ele>1.9</ele>
        <time>2021-07-20T09:39:34Z</time>
      </trkpt>
      <trkpt lat="43.16798" lon="3.17868">
        <ele>2.1</ele>
        <time>2021-07-20T09:39:35Z</time>
      </trkpt>
      <trkpt lat="43.16795" lon="3.17864">
        <ele>2.2</ele>
        <time>2021-07-20T09:39:36Z</time>
      </trkpt>
      <trkpt lat="43.16792" lon="3.17859">
        <ele>2.4</ele>
        <time>2021-07-20T09:39:37Z</time>
      </trkpt>
      <trkpt lat="43.16788" lon="3.17855">
        <ele>2.5</ele>
        <time>2021-07-20T09:39:38Z</time>
      </trkpt>
      <trkpt lat="43.16785" lon="3.17851">
        <ele>2.7</ele>
        <time>2021-07-20T09:39:39Z</time>
      </trkpt>
      <trkpt lat="43.16782" lon="3.17847">
        <ele>2.9</ele>
        <time>2021-07-20T09:39:40Z</time>
      </trkpt>
      <trkpt lat="43.16779" lon="3.17844">
        <ele>3</ele>
        <time>2021-07-20T09:39:41Z</time>
      </trkpt>
      <trkpt lat="43.16777" lon="3.17841">
        <ele>-3.0649176</ele>
        <time>2021-07-20T09:39:42Z</time>
      </trkpt>
      <trkpt lat="43.16774" lon="3.17837">
        <ele>3.3</ele>
        <time>2021-07-20T09:39:43Z</time>
      </trkpt>
      <trkpt lat="43.16771" lon="3.17834">
        <ele>3.5</ele>
        <time>2021-07-20T09:39:44Z</time>
      </trkpt>
      <trkpt lat="43.16768" lon="3.17831">
        <ele>3.5</ele>
        <time>2021-07-20T09:39:45Z</time>
      </trkpt>
      <trkpt lat="43.16766" lon="3.17827">
        <ele>3.6</ele>
        <time>2021-07-20T09:39:46Z</time>
      </trkpt>
      <trkpt lat="43.16763" lon="3.17824">
        <ele>3.6</ele>
        <time>2021-07-20T09:39:47Z</time>
      </trkpt>
      <trkpt lat="43.1676" lon="3.1782">
        <ele>3.6</ele>
        <time>2021-07-20T09:39:48Z</time>
      </trkpt>
      <trkpt lat="43.16758" lon="3.17817">
        <ele>3.6</ele>
        <time>2021-07-20T09:39:49Z</time>
      </trkpt>
      <trkpt lat="43.16755" lon="3.17813">
        <ele>3.7</ele>
        <time>2021-07-20T09:39:50Z</time>
      </trkpt>
      <trkpt lat="43.16752" lon="3.1781">
        <ele>3.7</ele>
        <time>2021-07-20T09:39:51Z</time>
      </trkpt>
      <trkpt lat="43.16749" lon="3.17806">
        <ele>-3.509998</ele>
        <time>2021-07-20T09:39:52Z</time>
      </trkpt>
      <trkpt lat="43.16746" lon="3.17803">
        <ele>3.6</ele>
        <time>2021-07-20T09:39:53Z</time>
      </trkpt>
      <trkpt lat="43.16743" lon="3.17799">
        <ele>3.6</ele>
        <time>2021-07-20T09:39:54Z</time>
      </trkpt>
      <trkpt lat="43.1674" lon="3.17796">
        <ele>3.5</ele>
        <time>2021-07-20T09:39:55Z</time>
      </trkpt>
      <trkpt lat="43.16738" lon="3.17792">
        <ele>3.4</ele>
        <time>2021-07-20T09:39:56Z</time>
      </trkpt>
      <trkpt lat="43.16735" lon="3.17789">
        <ele>3.4</ele>
        <time>2021-07-20T09:39:57Z</time>
      </trkpt>
      <trkpt lat="43.16732" lon="3.17786">
        <ele>3.3</ele>
        <time>2021-07-20T09:39:58Z</time>
      </trkpt>
      <trkpt lat="43.16729" lon="3.17782">
        <ele>3.2</ele>
        <time>2021-07-20T09:39:59Z</time>
      </trkpt>
      <trkpt lat="43.16726" lon="3.17779">
        <ele>3.2</ele>
        <time>2021-07-20T09:40:00Z</time>
      </trkpt>
      <trkpt lat="43.16724" lon="3.17775">
        <ele>3.1</ele>
        <time>2021-07-20T09:40:01Z</time>
      </trkpt>
      <trkpt lat="43.16721" lon="3.17772">
        <ele>-3.4809487</ele>
        <time>2021-07-20T09:40:02Z</time>
      </trkpt>
      <trkpt lat="43.16718" lon="3.17768">
        <ele>2.9</ele>
        <time>2021-07-20T09:40:03Z</time>
      </trkpt>
      <trkpt lat="43.16716" lon="3.17765">
        <ele>2.8</ele>
        <time>2021-07-20T09:40:04Z</time>
      </trkpt>
      <trkpt lat="43.16713" lon="3.17762">
        <ele>2.8</ele>
        <time>2021-07-20T09:40:05Z</time>
      </trkpt>
      <trkpt lat="43.1671" lon="3.17758">
        <ele>2.7</ele>
        <time>2021-07-20T09:40:06Z</time>
      </trkpt>
      <trkpt lat="43.16708" lon="3.17755">
        <ele>2.6</ele>
        <time>2021-07-20T09:40:07Z</time>
      </trkpt>
      <trkpt lat="43.16705" lon="3.17752">
        <ele>2.5</ele>
        <time>2021-07-20T09:40:08Z</time>
      </trkpt>
      <trkpt lat="43.16703" lon="3.17748">
        <ele>2.4</ele>
        <time>2021-07-20T09:40:09Z</time>
      </trkpt>
      <trkpt lat="43.167" lon="3.17745">
        <ele>2.4</ele>
        <time>2021-07-20T09:40:10Z</time>
      </trkpt>
      <trkpt lat="43.16697" lon="3.17742">
        <ele>2.4</ele>
        <time>2021-07-20T09:40:11Z</time>
      </trkpt>
      <trkpt lat="43.16694" lon="3.17739">
        <ele>-3.5348973</ele>
        <time>2021-07-20T09:40:12Z</time>
      </trkpt>
      <trkpt lat="43.16692" lon="3.17736">
        <ele>2.4</ele>
        <time>2021-07-20T09:40:13Z</time>
      </trkpt>
      <trkpt lat="43.16689" lon="3.17733">
        <ele>2.4</ele>
        <time>2021-07-20T09:40:14Z</time>
      </trkpt>
      <trkpt lat="43.16687" lon="3.1773">
        <ele>2.4</ele>
        <time>2021-07-20T09:40:15Z</time>
      </trkpt>
      <trkpt lat="43.16685" lon="3.17726">
        <ele>2.4</ele>
        <time>2021-07-20T09:40:16Z</time>
      </trkpt>
      <trkpt lat="43.16682" lon="3.17724">
        <ele>2.4</ele>
        <time>2021-07-20T09:40:17Z</time>
      </trkpt>
      <trkpt lat="43.1668" lon="3.17721">
        <ele>2.5</ele>
        <time>2021-07-20T09:40:18Z</time>
      </trkpt>
      <trkpt lat="43.16678" lon="3.17718">
        <ele>2.5</ele>
        <time>2021-07-20T09:40:19Z</time>
      </trkpt>
      <trkpt lat="43.16675" lon="3.17714">
        <ele>2.5</ele>
        <time>2021-07-20T09:40:20Z</time>
      </trkpt>
      <trkpt lat="43.16672" lon="3.17711">
        <ele>-3.6365695</ele>
        <time>2021-07-20T09:40:21Z</time>
      </trkpt>
      <trkpt lat="43.16669" lon="3.17708">
        <ele>2.5</ele>
        <time>2021-07-20T09:40:22Z</time>
      </trkpt>
      <trkpt lat="43.16666" lon="3.17705">
        <ele>2.5</ele>
        <time>2021-07-20T09:40:23Z</time>
      </trkpt>
      <trkpt lat="43.16663" lon="3.17702">
        <ele>2.6</ele>
        <time>2021-07-20T09:40:24Z</time>
      </trkpt>
      <trkpt lat="43.16661" lon="3.17699">
        <ele>2.6</ele>
        <time>2021-07-20T09:40:25Z</time>
      </trkpt>
      <trkpt lat="43.16658" lon="3.17696">
        <ele>2.6</ele>
        <time>2021-07-20T09:40:26Z</time>
      </trkpt>
      <trkpt lat="43.16655" lon="3.17693">
        <ele>2.7</ele>
        <time>2021-07-20T09:40:27Z</time>
      </trkpt>
      <trkpt lat="43.16652" lon="3.17689">
        <ele>2.7</ele>
        <time>2021-07-20T09:40:28Z</time>
      </trkpt>
      <trkpt lat="43.1665" lon="3.17686">
        <ele>2.8</ele>
        <time>2021-07-20T09:40:29Z</time>
      </trkpt>
      <trkpt lat="43.16647" lon="3.17683">
        <ele>2.8</ele>
        <time>2021-07-20T09:40:30Z</time>
      </trkpt>
      <trkpt lat="43.16644" lon="3.1768">
        <ele>-3.590921</ele>
        <time>2021-07-20T09:40:31Z</time>
      </trkpt>
      <trkpt lat="43.16641" lon="3.17676">
        <ele>2.9</ele>
        <time>2021-07-20T09:40:32Z</time>
      </trkpt>
      <trkpt lat="43.16639" lon="3.17673">
        <ele>2.9</ele>
        <time>2021-07-20T09:40:33Z</time>
      </trkpt>
      <trkpt lat="43.16637" lon="3.17668">
        <ele>3</ele>
        <time>2021-07-20T09:40:34Z</time>
      </trkpt>
      <trkpt lat="43.16636" lon="3.17663">
        <ele>3</ele>
        <time>2021-07-20T09:40:35Z</time>
      </trkpt>
      <trkpt lat="43.16634" lon="3.17658">
        <ele>3</ele>
        <time>2021-07-20T09:40:36Z</time>
      </trkpt>
      <trkpt lat="43.16633" lon="3.17654">
        <ele>3</ele>
        <time>2021-07-20T09:40:37Z</time>
      </trkpt>
      <trkpt lat="43.1663" lon="3.1765">
        <ele>3</ele>
        <time>2021-07-20T09:40:38Z</time>
      </trkpt>
      <trkpt lat="43.16628" lon="3.17646">
        <ele>3</ele>
        <time>2021-07-20T09:40:39Z</time>
      </trkpt>
      <trkpt lat="43.16625" lon="3.17642">
        <ele>3</ele>
        <time>2021-07-20T09:40:40Z</time>
      </trkpt>
      <trkpt lat="43.16622" lon="3.17639">
        <ele>-3.7818146</ele>
        <time>2021-07-20T09:40:41Z</time>
      </trkpt>
      <trkpt lat="43.1662" lon="3.17635">
        <ele>3</ele>
        <time>2021-07-20T09:40:42Z</time>
      </trkpt>
      <trkpt lat="43.16616" lon="3.17632">
        <ele>3</ele>
        <time>2021-07-20T09:40:43Z</time>
      </trkpt>
      <trkpt lat="43.16613" lon="3.17628">
        <ele>3</ele>
        <time>2021-07-20T09:40:44Z</time>
      </trkpt>
      <trkpt lat="43.1661" lon="3.17625">
        <ele>3</ele>
        <time>2021-07-20T09:40:45Z</time>
      </trkpt>
      <trkpt lat="43.16608" lon="3.17621">
        <ele>3</ele>
        <time>2021-07-20T09:40:46Z</time>
      </trkpt>
      <trkpt lat="43.16605" lon="3.17618">
        <ele>3</ele>
        <time>2021-07-20T09:40:47Z</time>
      </trkpt>
      <trkpt lat="43.16602" lon="3.17615">
        <ele>3</ele>
        <time>2021-07-20T09:40:48Z</time>
      </trkpt>
      <trkpt lat="43.16599" lon="3.17611">
        <ele>3</ele>
        <time>2021-07-20T09:40:49Z</time>
      </trkpt>
      <trkpt lat="43.16596" lon="3.17608">
        <ele>3</ele>
        <time>2021-07-20T09:40:50Z</time>
      </trkpt>
      <trkpt lat="43.16593" lon="3.17604">
        <ele>-3.827463</ele>
        <time>2021-07-20T09:40:51Z</time>
      </trkpt>
      <trkpt lat="43.1659" lon="3.17601">
        <ele>3</ele>
        <time>2021-07-20T09:40:52Z</time>
      </trkpt>
      <trkpt lat="43.16587" lon="3.17598">
        <ele>3</ele>
        <time>2021-07-20T09:40:53Z</time>
      </trkpt>
      <trkpt lat="43.16584" lon="3.17594">
        <ele>3</ele>
        <time>2021-07-20T09:40:54Z</time>
      </trkpt>
      <trkpt lat="43.16582" lon="3.17591">
        <ele>3</ele>
        <time>2021-07-20T09:40:55Z</time>
      </trkpt>
      <trkpt lat="43.16579" lon="3.17587">
        <ele>3</ele>
        <time>2021-07-20T09:40:56Z</time>
      </trkpt>
      <trkpt lat="43.16576" lon="3.17583">
        <ele>3</ele>
        <time>2021-07-20T09:40:57Z</time>
      </trkpt>
      <trkpt lat="43.16574" lon="3.17579">
        <ele>3</ele>
        <time>2021-07-20T09:40:58Z</time>
      </trkpt>
      <trkpt lat="43.16572" lon="3.17574">
        <ele>3</ele>
        <time>2021-07-20T09:40:59Z</time>
      </trkpt>
      <trkpt lat="43.1657" lon="3.1757">
        <ele>3.1</ele>
        <time>2021-07-20T09:41:00Z</time>
      </trkpt>
      <trkpt lat="43.16568" lon="3.17566">
        <ele>3.1</ele>
        <time>2021-07-20T09:41:01Z</time>
      </trkpt>
      <trkpt lat="43.16565" lon="3.17562">
        <ele>-3.809826</ele>
        <time>2021-07-20T09:41:02Z</time>
      </trkpt>
      <trkpt lat="43.16562" lon="3.17558">
        <ele>3.2</ele>
        <time>2021-07-20T09:41:03Z</time>
      </trkpt>
      <trkpt lat="43.16559" lon="3.17555">
        <ele>3.3</ele>
        <time>2021-07-20T09:41:04Z</time>
      </trkpt>
      <trkpt lat="43.16555" lon="3.17553">
        <ele>3.4</ele>
        <time>2021-07-20T09:41:05Z</time>
      </trkpt>
      <trkpt lat="43.16552" lon="3.17552">
        <ele>3.4</ele>
        <time>2021-07-20T09:41:06Z</time>
      </trkpt>
      <trkpt lat="43.16548" lon="3.1755">
        <ele>3.5</ele>
        <time>2021-07-20T09:41:07Z</time>
      </trkpt>
      <trkpt lat="43.16544" lon="3.17546">
        <ele>3.6</ele>
        <time>2021-07-20T09:41:08Z</time>
      </trkpt>
      <trkpt lat="43.16542" lon="3.17543">
        <ele>3.7</ele>
        <time>2021-07-20T09:41:09Z</time>
      </trkpt>
      <trkpt lat="43.16539" lon="3.17539">
        <ele>3.9</ele>
        <time>2021-07-20T09:41:10Z</time>
      </trkpt>
      <trkpt lat="43.16536" lon="3.17536">
        <ele>4</ele>
        <time>2021-07-20T09:41:11Z</time>
      </trkpt>
      <trkpt lat="43.16533" lon="3.17532">
        <ele>-3.6521316</ele>
        <time>2021-07-20T09:41:12Z</time>
      </trkpt>
      <trkpt lat="43.1653" lon="3.17529">
        <ele>4.3</ele>
        <time>2021-07-20T09:41:13Z</time>
      </trkpt>
      <trkpt lat="43.16526" lon="3.17525">
        <ele>4.4</ele>
        <time>2021-07-20T09:41:14Z</time>
      </trkpt>
      <trkpt lat="43.16523" lon="3.17522">
        <ele>4.6</ele>
        <time>2021-07-20T09:41:15Z</time>
      </trkpt>
      <trkpt lat="43.16521" lon="3.17518">
        <ele>4.8</ele>
        <time>2021-07-20T09:41:16Z</time>
      </trkpt>
      <trkpt lat="43.16518" lon="3.17515">
        <ele>5</ele>
        <time>2021-07-20T09:41:17Z</time>
      </trkpt>
      <trkpt lat="43.16515" lon="3.17511">
        <ele>5.1</ele>
        <time>2021-07-20T09:41:18Z</time>
      </trkpt>
      <trkpt lat="43.16512" lon="3.17508">
        <ele>5.3</ele>
        <time>2021-07-20T09:41:19Z</time>
      </trkpt>
      <trkpt lat="43.16509" lon="3.17504">
        <ele>5.5</ele>
        <time>2021-07-20T09:41:20Z</time>
      </trkpt>
      <trkpt lat="43.16506" lon="3.17501">
        <ele>5.8</ele>
        <time>2021-07-20T09:41:21Z</time>
      </trkpt>
      <trkpt lat="43.16503" lon="3.17497">
        <ele>-3.796339</ele>
        <time>2021-07-20T09:41:22Z</time>
      </trkpt>
      <trkpt lat="43.16501" lon="3.17494">
        <ele>5.8</ele>
        <time>2021-07-20T09:41:23Z</time>
      </trkpt>
      <trkpt lat="43.16497" lon="3.17491">
        <ele>5.8</ele>
        <time>2021-07-20T09:41:24Z</time>
      </trkpt>
      <trkpt lat="43.16495" lon="3.17487">
        <ele>5.7</ele>
        <time>2021-07-20T09:41:25Z</time>
      </trkpt>
      <trkpt lat="43.16492" lon="3.17484">
        <ele>5.6</ele>
        <time>2021-07-20T09:41:26Z</time>
      </trkpt>
      <trkpt lat="43.16489" lon="3.17481">
        <ele>5.5</ele>
        <time>2021-07-20T09:41:27Z</time>
      </trkpt>
      <trkpt lat="43.16486" lon="3.17477">
        <ele>5.4</ele>
        <time>2021-07-20T09:41:28Z</time>
      </trkpt>
      <trkpt lat="43.16484" lon="3.17473">
        <ele>5.4</ele>
        <time>2021-07-20T09:41:29Z</time>
      </trkpt>
      <trkpt lat="43.16481" lon="3.1747">
        <ele>5.3</ele>
        <time>2021-07-20T09:41:30Z</time>
      </trkpt>
      <trkpt lat="43.16478" lon="3.17467">
        <ele>5.2</ele>
        <time>2021-07-20T09:41:31Z</time>
      </trkpt>
      <trkpt lat="43.16475" lon="3.17463">
        <ele>-3.8814106</ele>
        <time>2021-07-20T09:41:32Z</time>
      </trkpt>
      <trkpt lat="43.16472" lon="3.1746">
        <ele>5</ele>
        <time>2021-07-20T09:41:33Z</time>
      </trkpt>
      <trkpt lat="43.16469" lon="3.17456">
        <ele>4.9</ele>
        <time>2021-07-20T09:41:34Z</time>
      </trkpt>
      <trkpt lat="43.16466" lon="3.17453">
        <ele>4.9</ele>
        <time>2021-07-20T09:41:35Z</time>
      </trkpt>
      <trkpt lat="43.16463" lon="3.1745">
        <ele>4.8</ele>
        <time>2021-07-20T09:41:36Z</time>
      </trkpt>
      <trkpt lat="43.1646" lon="3.17446">
        <ele>4.7</ele>
        <time>2021-07-20T09:41:37Z</time>
      </trkpt>
      <trkpt lat="43.16457" lon="3.17443">
        <ele>4.6</ele>
        <time>2021-07-20T09:41:38Z</time>
      </trkpt>
      <trkpt lat="43.16454" lon="3.17439">
        <ele>4.5</ele>
        <time>2021-07-20T09:41:39Z</time>
      </trkpt>
      <trkpt lat="43.16451" lon="3.17436">
        <ele>4.5</ele>
        <time>2021-07-20T09:41:40Z</time>
      </trkpt>
      <trkpt lat="43.16448" lon="3.17432">
        <ele>4.4</ele>
        <time>2021-07-20T09:41:41Z</time>
      </trkpt>
      <trkpt lat="43.16445" lon="3.17429">
        <ele>-3.9716692</ele>
        <time>2021-07-20T09:41:42Z</time>
      </trkpt>
      <trkpt lat="43.16443" lon="3.17425">
        <ele>4.2</ele>
        <time>2021-07-20T09:41:43Z</time>
      </trkpt>
      <trkpt lat="43.16439" lon="3.17422">
        <ele>4.1</ele>
        <time>2021-07-20T09:41:44Z</time>
      </trkpt>
      <trkpt lat="43.16436" lon="3.17418">
        <ele>4</ele>
        <time>2021-07-20T09:41:45Z</time>
      </trkpt>
      <trkpt lat="43.16433" lon="3.17415">
        <ele>4</ele>
        <time>2021-07-20T09:41:46Z</time>
      </trkpt>
      <trkpt lat="43.1643" lon="3.17412">
        <ele>3.9</ele>
        <time>2021-07-20T09:41:47Z</time>
      </trkpt>
      <trkpt lat="43.16428" lon="3.17408">
        <ele>3.9</ele>
        <time>2021-07-20T09:41:48Z</time>
      </trkpt>
      <trkpt lat="43.16425" lon="3.17405">
        <ele>3.8</ele>
        <time>2021-07-20T09:41:49Z</time>
      </trkpt>
      <trkpt lat="43.16422" lon="3.17401">
        <ele>3.8</ele>
        <time>2021-07-20T09:41:50Z</time>
      </trkpt>
      <trkpt lat="43.16419" lon="3.17397">
        <ele>3.8</ele>
        <time>2021-07-20T09:41:51Z</time>
      </trkpt>
      <trkpt lat="43.16416" lon="3.17394">
        <ele>-3.9623322</ele>
        <time>2021-07-20T09:41:52Z</time>
      </trkpt>
      <trkpt lat="43.16413" lon="3.17391">
        <ele>3.7</ele>
        <time>2021-07-20T09:41:53Z</time>
      </trkpt>
      <trkpt lat="43.1641" lon="3.17387">
        <ele>3.7</ele>
        <time>2021-07-20T09:41:54Z</time>
      </trkpt>
      <trkpt lat="43.16408" lon="3.17384">
        <ele>3.6</ele>
        <time>2021-07-20T09:41:55Z</time>
      </trkpt>
      <trkpt lat="43.16405" lon="3.17381">
        <ele>3.6</ele>
        <time>2021-07-20T09:41:56Z</time>
      </trkpt>
      <trkpt lat="43.16402" lon="3.17378">
        <ele>3.6</ele>
        <time>2021-07-20T09:41:57Z</time>
      </trkpt>
      <trkpt lat="43.164" lon="3.17375">
        <ele>3.6</ele>
        <time>2021-07-20T09:41:58Z</time>
      </trkpt>
      <trkpt lat="43.16397" lon="3.17371">
        <ele>3.6</ele>
        <time>2021-07-20T09:41:59Z</time>
      </trkpt>
      <trkpt lat="43.16394" lon="3.17367">
        <ele>3.6</ele>
        <time>2021-07-20T09:42:00Z</time>
      </trkpt>
      <trkpt lat="43.16392" lon="3.17362">
        <ele>-4.2507424</ele>
        <time>2021-07-20T09:42:01Z</time>
      </trkpt>
      <trkpt lat="43.1639" lon="3.17358">
        <ele>3.5</ele>
        <time>2021-07-20T09:42:02Z</time>
      </trkpt>
      <trkpt lat="43.16388" lon="3.17353">
        <ele>3.5</ele>
        <time>2021-07-20T09:42:03Z</time>
      </trkpt>
      <trkpt lat="43.16385" lon="3.17349">
        <ele>3.5</ele>
        <time>2021-07-20T09:42:04Z</time>
      </trkpt>
      <trkpt lat="43.16382" lon="3.17346">
        <ele>3.5</ele>
        <time>2021-07-20T09:42:05Z</time>
      </trkpt>
      <trkpt lat="43.16379" lon="3.17343">
        <ele>3.5</ele>
        <time>2021-07-20T09:42:06Z</time>
      </trkpt>
      <trkpt lat="43.16375" lon="3.17341">
        <ele>3.5</ele>
        <time>2021-07-20T09:42:07Z</time>
      </trkpt>
      <trkpt lat="43.16371" lon="3.17339">
        <ele>3.6</ele>
        <time>2021-07-20T09:42:08Z</time>
      </trkpt>
      <trkpt lat="43.16368" lon="3.17336">
        <ele>3.6</ele>
        <time>2021-07-20T09:42:09Z</time>
      </trkpt>
      <trkpt lat="43.16365" lon="3.17333">
        <ele>3.6</ele>
        <time>2021-07-20T09:42:10Z</time>
      </trkpt>
      <trkpt lat="43.16361" lon="3.17329">
        <ele>-4.0806017</ele>
        <time>2021-07-20T09:42:11Z</time>
      </trkpt>
      <trkpt lat="43.16358" lon="3.17326">
        <ele>3.6</ele>
        <time>2021-07-20T09:42:12Z</time>
      </trkpt>
      <trkpt lat="43.16355" lon="3.17322">
        <ele>3.6</ele>
        <time>2021-07-20T09:42:13Z</time>
      </trkpt>
      <trkpt lat="43.16352" lon="3.17319">
        <ele>3.6</ele>
        <time>2021-07-20T09:42:14Z</time>
      </trkpt>
      <trkpt lat="43.16349" lon="3.17315">
        <ele>3.6</ele>
        <time>2021-07-20T09:42:15Z</time>
      </trkpt>
      <trkpt lat="43.16346" lon="3.17311">
        <ele>3.6</ele>
        <time>2021-07-20T09:42:16Z</time>
      </trkpt>
      <trkpt lat="43.16343" lon="3.17308">
        <ele>3.6</ele>
        <time>2021-07-20T09:42:17Z</time>
      </trkpt>
      <trkpt lat="43.1634" lon="3.17305">
        <ele>3.6</ele>
        <time>2021-07-20T09:42:18Z</time>
      </trkpt>
      <trkpt lat="43.16337" lon="3.17301">
        <ele>3.6</ele>
        <time>2021-07-20T09:42:19Z</time>
      </trkpt>
      <trkpt lat="43.16334" lon="3.17298">
        <ele>3.6</ele>
        <time>2021-07-20T09:42:20Z</time>
      </trkpt>
      <trkpt lat="43.16332" lon="3.17294">
        <ele>-3.852362</ele>
        <time>2021-07-20T09:42:21Z</time>
      </trkpt>
      <trkpt lat="43.16328" lon="3.17291">
        <ele>3.6</ele>
        <time>2021-07-20T09:42:22Z</time>
      </trkpt>
      <trkpt lat="43.16325" lon="3.17287">
        <ele>3.6</ele>
        <time>2021-07-20T09:42:23Z</time>
      </trkpt>
      <trkpt lat="43.16322" lon="3.17283">
        <ele>3.6</ele>
        <time>2021-07-20T09:42:24Z</time>
      </trkpt>
      <trkpt lat="43.16319" lon="3.1728">
        <ele>3.7</ele>
        <time>2021-07-20T09:42:25Z</time>
      </trkpt>
      <trkpt lat="43.16316" lon="3.17276">
        <ele>3.7</ele>
        <time>2021-07-20T09:42:26Z</time>
      </trkpt>
      <trkpt lat="43.16313" lon="3.17273">
        <ele>3.8</ele>
        <time>2021-07-20T09:42:27Z</time>
      </trkpt>
      <trkpt lat="43.1631" lon="3.17269">
        <ele>3.9</ele>
        <time>2021-07-20T09:42:28Z</time>
      </trkpt>
      <trkpt lat="43.16307" lon="3.17266">
        <ele>3.9</ele>
        <time>2021-07-20T09:42:29Z</time>
      </trkpt>
      <trkpt lat="43.16305" lon="3.17262">
        <ele>4</ele>
        <time>2021-07-20T09:42:30Z</time>
      </trkpt>
      <trkpt lat="43.16302" lon="3.17259">
        <ele>-4.0505157</ele>
        <time>2021-07-20T09:42:31Z</time>
      </trkpt>
      <trkpt lat="43.16299" lon="3.17256">
        <ele>4.2</ele>
        <time>2021-07-20T09:42:32Z</time>
      </trkpt>
      <trkpt lat="43.16296" lon="3.17252">
        <ele>4.3</ele>
        <time>2021-07-20T09:42:33Z</time>
      </trkpt>
      <trkpt lat="43.16293" lon="3.17249">
        <ele>4.4</ele>
        <time>2021-07-20T09:42:34Z</time>
      </trkpt>
      <trkpt lat="43.1629" lon="3.17245">
        <ele>4.5</ele>
        <time>2021-07-20T09:42:35Z</time>
      </trkpt>
      <trkpt lat="43.16287" lon="3.17242">
        <ele>4.5</ele>
        <time>2021-07-20T09:42:36Z</time>
      </trkpt>
      <trkpt lat="43.16284" lon="3.17238">
        <ele>4.5</ele>
        <time>2021-07-20T09:42:37Z</time>
      </trkpt>
      <trkpt lat="43.16281" lon="3.17235">
        <ele>4.5</ele>
        <time>2021-07-20T09:42:38Z</time>
      </trkpt>
      <trkpt lat="43.16279" lon="3.17231">
        <ele>4.5</ele>
        <time>2021-07-20T09:42:39Z</time>
      </trkpt>
      <trkpt lat="43.16276" lon="3.17228">
        <ele>4.5</ele>
        <time>2021-07-20T09:42:40Z</time>
      </trkpt>
      <trkpt lat="43.16273" lon="3.17225">
        <ele>4.6</ele>
        <time>2021-07-20T09:42:41Z</time>
      </trkpt>
      <trkpt lat="43.1627" lon="3.17221">
        <ele>-4.0048676</ele>
        <time>2021-07-20T09:42:42Z</time>
      </trkpt>
      <trkpt lat="43.16267" lon="3.17218">
        <ele>4.6</ele>
        <time>2021-07-20T09:42:43Z</time>
      </trkpt>
      <trkpt lat="43.16264" lon="3.17214">
        <ele>4.6</ele>
        <time>2021-07-20T09:42:44Z</time>
      </trkpt>
      <trkpt lat="43.16261" lon="3.17211">
        <ele>4.7</ele>
        <time>2021-07-20T09:42:45Z</time>
      </trkpt>
      <trkpt lat="43.16257" lon="3.17209">
        <ele>4.8</ele>
        <time>2021-07-20T09:42:46Z</time>
      </trkpt>
      <trkpt lat="43.16253" lon="3.17207">
        <ele>4.8</ele>
        <time>2021-07-20T09:42:47Z</time>
      </trkpt>
      <trkpt lat="43.1625" lon="3.17204">
        <ele>4.9</ele>
        <time>2021-07-20T09:42:48Z</time>
      </trkpt>
      <trkpt lat="43.16247" lon="3.17201">
        <ele>4.8</ele>
        <time>2021-07-20T09:42:49Z</time>
      </trkpt>
      <trkpt lat="43.16244" lon="3.17198">
        <ele>4.7</ele>
        <time>2021-07-20T09:42:50Z</time>
      </trkpt>
      <trkpt lat="43.16241" lon="3.17194">
        <ele>4.7</ele>
        <time>2021-07-20T09:42:51Z</time>
      </trkpt>
      <trkpt lat="43.16238" lon="3.17191">
        <ele>-3.989306</ele>
        <time>2021-07-20T09:42:52Z</time>
      </trkpt>
      <trkpt lat="43.16235" lon="3.17188">
        <ele>4.5</ele>
        <time>2021-07-20T09:42:53Z</time>
      </trkpt>
      <trkpt lat="43.16232" lon="3.17184">
        <ele>4.4</ele>
        <time>2021-07-20T09:42:54Z</time>
      </trkpt>
      <trkpt lat="43.16229" lon="3.17181">
        <ele>4.3</ele>
        <time>2021-07-20T09:42:55Z</time>
      </trkpt>
      <trkpt lat="43.16225" lon="3.17177">
        <ele>4.3</ele>
        <time>2021-07-20T09:42:56Z</time>
      </trkpt>
      <trkpt lat="43.16223" lon="3.17174">
        <ele>4.2</ele>
        <time>2021-07-20T09:42:57Z</time>
      </trkpt>
      <trkpt lat="43.1622" lon="3.1717">
        <ele>4.1</ele>
        <time>2021-07-20T09:42:58Z</time>
      </trkpt>
      <trkpt lat="43.16217" lon="3.17167">
        <ele>4</ele>
        <time>2021-07-20T09:42:59Z</time>
      </trkpt>
      <trkpt lat="43.16214" lon="3.17164">
        <ele>4</ele>
        <time>2021-07-20T09:43:00Z</time>
      </trkpt>
      <trkpt lat="43.16211" lon="3.1716">
        <ele>4</ele>
        <time>2021-07-20T09:43:01Z</time>
      </trkpt>
      <trkpt lat="43.16208" lon="3.17157">
        <ele>-3.8668861</ele>
        <time>2021-07-20T09:43:02Z</time>
      </trkpt>
      <trkpt lat="43.16205" lon="3.17153">
        <ele>3.9</ele>
        <time>2021-07-20T09:43:03Z</time>
      </trkpt>
      <trkpt lat="43.16202" lon="3.1715">
        <ele>3.9</ele>
        <time>2021-07-20T09:43:04Z</time>
      </trkpt>
      <trkpt lat="43.16199" lon="3.17146">
        <ele>3.9</ele>
        <time>2021-07-20T09:43:05Z</time>
      </trkpt>
      <trkpt lat="43.16196" lon="3.17143">
        <ele>3.9</ele>
        <time>2021-07-20T09:43:06Z</time>
      </trkpt>
      <trkpt lat="43.16193" lon="3.17139">
        <ele>3.9</ele>
        <time>2021-07-20T09:43:07Z</time>
      </trkpt>
      <trkpt lat="43.1619" lon="3.17136">
        <ele>3.9</ele>
        <time>2021-07-20T09:43:08Z</time>
      </trkpt>
      <trkpt lat="43.16187" lon="3.17132">
        <ele>3.9</ele>
        <time>2021-07-20T09:43:09Z</time>
      </trkpt>
      <trkpt lat="43.16184" lon="3.17129">
        <ele>3.9</ele>
        <time>2021-07-20T09:43:10Z</time>
      </trkpt>
      <trkpt lat="43.1618" lon="3.17125">
        <ele>3.9</ele>
        <time>2021-07-20T09:43:11Z</time>
      </trkpt>
      <trkpt lat="43.16177" lon="3.17122">
        <ele>-3.7631402</ele>
        <time>2021-07-20T09:43:12Z</time>
      </trkpt>
      <trkpt lat="43.16175" lon="3.17119">
        <ele>3.9</ele>
        <time>2021-07-20T09:43:13Z</time>
      </trkpt>
      <trkpt lat="43.16172" lon="3.17115">
        <ele>4</ele>
        <time>2021-07-20T09:43:14Z</time>
      </trkpt>
      <trkpt lat="43.16169" lon="3.17112">
        <ele>4</ele>
        <time>2021-07-20T09:43:15Z</time>
      </trkpt>
      <trkpt lat="43.16167" lon="3.17109">
        <ele>4</ele>
        <time>2021-07-20T09:43:16Z</time>
      </trkpt>
      <trkpt lat="43.16164" lon="3.17106">
        <ele>4</ele>
        <time>2021-07-20T09:43:18Z</time>
      </trkpt>
      <trkpt lat="43.16162" lon="3.17103">
        <ele>4</ele>
        <time>2021-07-20T09:43:19Z</time>
      </trkpt>
      <trkpt lat="43.16159" lon="3.171">
        <ele>4</ele>
        <time>2021-07-20T09:43:20Z</time>
      </trkpt>
      <trkpt lat="43.16156" lon="3.17097">
        <ele>4</ele>
        <time>2021-07-20T09:43:21Z</time>
      </trkpt>
      <trkpt lat="43.16154" lon="3.17094">
        <ele>-3.8907478</ele>
        <time>2021-07-20T09:43:22Z</time>
      </trkpt>
      <trkpt lat="43.16151" lon="3.17091">
        <ele>4</ele>
        <time>2021-07-20T09:43:23Z</time>
      </trkpt>
      <trkpt lat="43.16148" lon="3.17087">
        <ele>4</ele>
        <time>2021-07-20T09:43:24Z</time>
      </trkpt>
      <trkpt lat="43.16146" lon="3.17084">
        <ele>4</ele>
        <time>2021-07-20T09:43:25Z</time>
      </trkpt>
      <trkpt lat="43.16143" lon="3.17081">
        <ele>4</ele>
        <time>2021-07-20T09:43:26Z</time>
      </trkpt>
      <trkpt lat="43.1614" lon="3.17078">
        <ele>4</ele>
        <time>2021-07-20T09:43:27Z</time>
      </trkpt>
      <trkpt lat="43.16138" lon="3.17075">
        <ele>4</ele>
        <time>2021-07-20T09:43:28Z</time>
      </trkpt>
      <trkpt lat="43.16135" lon="3.17072">
        <ele>4.1</ele>
        <time>2021-07-20T09:43:29Z</time>
      </trkpt>
      <trkpt lat="43.16132" lon="3.17069">
        <ele>4.1</ele>
        <time>2021-07-20T09:43:30Z</time>
      </trkpt>
      <trkpt lat="43.1613" lon="3.17066">
        <ele>4.2</ele>
        <time>2021-07-20T09:43:31Z</time>
      </trkpt>
      <trkpt lat="43.16127" lon="3.17063">
        <ele>-4.0878634</ele>
        <time>2021-07-20T09:43:32Z</time>
      </trkpt>
      <trkpt lat="43.16124" lon="3.1706">
        <ele>4.3</ele>
        <time>2021-07-20T09:43:33Z</time>
      </trkpt>
      <trkpt lat="43.16122" lon="3.17057">
        <ele>4.4</ele>
        <time>2021-07-20T09:43:34Z</time>
      </trkpt>
      <trkpt lat="43.16119" lon="3.17054">
        <ele>4.5</ele>
        <time>2021-07-20T09:43:35Z</time>
      </trkpt>
      <trkpt lat="43.16116" lon="3.1705">
        <ele>4.6</ele>
        <time>2021-07-20T09:43:36Z</time>
      </trkpt>
      <trkpt lat="43.16114" lon="3.17047">
        <ele>4.7</ele>
        <time>2021-07-20T09:43:37Z</time>
      </trkpt>
      <trkpt lat="43.16111" lon="3.17044">
        <ele>4.8</ele>
        <time>2021-07-20T09:43:38Z</time>
      </trkpt>
      <trkpt lat="43.16108" lon="3.17041">
        <ele>4.9</ele>
        <time>2021-07-20T09:43:39Z</time>
      </trkpt>
      <trkpt lat="43.16105" lon="3.17038">
        <ele>5.1</ele>
        <time>2021-07-20T09:43:40Z</time>
      </trkpt>
      <trkpt lat="43.16103" lon="3.17035">
        <ele>-4.3607106</ele>
        <time>2021-07-20T09:43:41Z</time>
      </trkpt>
      <trkpt lat="43.161" lon="3.17031">
        <ele>5.4</ele>
        <time>2021-07-20T09:43:42Z</time>
      </trkpt>
      <trkpt lat="43.16097" lon="3.17028">
        <ele>5.5</ele>
        <time>2021-07-20T09:43:43Z</time>
      </trkpt>
      <trkpt lat="43.16095" lon="3.17025">
        <ele>5.7</ele>
        <time>2021-07-20T09:43:44Z</time>
      </trkpt>
      <trkpt lat="43.16092" lon="3.17022">
        <ele>5.9</ele>
        <time>2021-07-20T09:43:45Z</time>
      </trkpt>
      <trkpt lat="43.16089" lon="3.17019">
        <ele>6.1</ele>
        <time>2021-07-20T09:43:46Z</time>
      </trkpt>
      <trkpt lat="43.16086" lon="3.17016">
        <ele>6.3</ele>
        <time>2021-07-20T09:43:47Z</time>
      </trkpt>
      <trkpt lat="43.16084" lon="3.17012">
        <ele>6.5</ele>
        <time>2021-07-20T09:43:48Z</time>
      </trkpt>
      <trkpt lat="43.16081" lon="3.17009">
        <ele>7</ele>
        <time>2021-07-20T09:43:49Z</time>
      </trkpt>
      <trkpt lat="43.16078" lon="3.17006">
        <ele>7</ele>
        <time>2021-07-20T09:43:50Z</time>
      </trkpt>
      <trkpt lat="43.16075" lon="3.17003">
        <ele>-4.068152</ele>
        <time>2021-07-20T09:43:51Z</time>
      </trkpt>
      <trkpt lat="43.16073" lon="3.17">
        <ele>7</ele>
        <time>2021-07-20T09:43:52Z</time>
      </trkpt>
      <trkpt lat="43.1607" lon="3.16996">
        <ele>6.9</ele>
        <time>2021-07-20T09:43:53Z</time>
      </trkpt>
      <trkpt lat="43.16067" lon="3.16993">
        <ele>6.8</ele>
        <time>2021-07-20T09:43:54Z</time>
      </trkpt>
      <trkpt lat="43.16065" lon="3.1699">
        <ele>6.8</ele>
        <time>2021-07-20T09:43:55Z</time>
      </trkpt>
      <trkpt lat="43.16062" lon="3.16987">
        <ele>6.7</ele>
        <time>2021-07-20T09:43:56Z</time>
      </trkpt>
      <trkpt lat="43.1606" lon="3.16984">
        <ele>6.7</ele>
        <time>2021-07-20T09:43:57Z</time>
      </trkpt>
      <trkpt lat="43.16057" lon="3.16981">
        <ele>6.6</ele>
        <time>2021-07-20T09:43:58Z</time>
      </trkpt>
      <trkpt lat="43.16054" lon="3.16978">
        <ele>6.6</ele>
        <time>2021-07-20T09:43:59Z</time>
      </trkpt>
      <trkpt lat="43.16052" lon="3.16974">
        <ele>6.5</ele>
        <time>2021-07-20T09:44:00Z</time>
      </trkpt>
      <trkpt lat="43.16048" lon="3.16971">
        <ele>-4.190571</ele>
        <time>2021-07-20T09:44:01Z</time>
      </trkpt>
      <trkpt lat="43.16046" lon="3.16967">
        <ele>6.4</ele>
        <time>2021-07-20T09:44:02Z</time>
      </trkpt>
      <trkpt lat="43.16043" lon="3.16964">
        <ele>6.3</ele>
        <time>2021-07-20T09:44:03Z</time>
      </trkpt>
      <trkpt lat="43.1604" lon="3.16961">
        <ele>6.3</ele>
        <time>2021-07-20T09:44:04Z</time>
      </trkpt>
      <trkpt lat="43.16037" lon="3.16958">
        <ele>6.3</ele>
        <time>2021-07-20T09:44:05Z</time>
      </trkpt>
      <trkpt lat="43.16034" lon="3.16955">
        <ele>6.2</ele>
        <time>2021-07-20T09:44:06Z</time>
      </trkpt>
      <trkpt lat="43.16031" lon="3.16952">
        <ele>6.2</ele>
        <time>2021-07-20T09:44:07Z</time>
      </trkpt>
      <trkpt lat="43.16028" lon="3.16949">
        <ele>6.2</ele>
        <time>2021-07-20T09:44:08Z</time>
      </trkpt>
      <trkpt lat="43.16026" lon="3.16945">
        <ele>6.1</ele>
        <time>2021-07-20T09:44:09Z</time>
      </trkpt>
      <trkpt lat="43.16023" lon="3.16942">
        <ele>6.1</ele>
        <time>2021-07-20T09:44:10Z</time>
      </trkpt>
      <trkpt lat="43.1602" lon="3.16939">
        <ele>-4.0225043</ele>
        <time>2021-07-20T09:44:11Z</time>
      </trkpt>
      <trkpt lat="43.16017" lon="3.16937">
        <ele>6.1</ele>
        <time>2021-07-20T09:44:12Z</time>
      </trkpt>
      <trkpt lat="43.16014" lon="3.16934">
        <ele>6.1</ele>
        <time>2021-07-20T09:44:13Z</time>
      </trkpt>
      <trkpt lat="43.16011" lon="3.16931">
        <ele>6.1</ele>
        <time>2021-07-20T09:44:14Z</time>
      </trkpt>
      <trkpt lat="43.16008" lon="3.16928">
        <ele>6.1</ele>
        <time>2021-07-20T09:44:15Z</time>
      </trkpt>
      <trkpt lat="43.16005" lon="3.16925">
        <ele>6</ele>
        <time>2021-07-20T09:44:16Z</time>
      </trkpt>
      <trkpt lat="43.16003" lon="3.16923">
        <ele>6</ele>
        <time>2021-07-20T09:44:17Z</time>
      </trkpt>
      <trkpt lat="43.16" lon="3.1692">
        <ele>6</ele>
        <time>2021-07-20T09:44:18Z</time>
      </trkpt>
      <trkpt lat="43.15997" lon="3.16918">
        <ele>6</ele>
        <time>2021-07-20T09:44:19Z</time>
      </trkpt>
      <trkpt lat="43.15995" lon="3.16915">
        <ele>6</ele>
        <time>2021-07-20T09:44:20Z</time>
      </trkpt>
      <trkpt lat="43.15993" lon="3.16913">
        <ele>5.9</ele>
        <time>2021-07-20T09:44:21Z</time>
      </trkpt>
      <trkpt lat="43.1599" lon="3.16911">
        <ele>-3.9353583</ele>
        <time>2021-07-20T09:44:22Z</time>
      </trkpt>
      <trkpt lat="43.15989" lon="3.16909">
        <ele>5.9</ele>
        <time>2021-07-20T09:44:23Z</time>
      </trkpt>
      <trkpt lat="43.15987" lon="3.16907">
        <ele>5.8</ele>
        <time>2021-07-20T09:44:24Z</time>
      </trkpt>
      <trkpt lat="43.15986" lon="3.16904">
        <ele>5.8</ele>
        <time>2021-07-20T09:44:25Z</time>
      </trkpt>
      <trkpt lat="43.15985" lon="3.16901">
        <ele>5.7</ele>
        <time>2021-07-20T09:44:26Z</time>
      </trkpt>
      <trkpt lat="43.15985" lon="3.16898">
        <ele>5.7</ele>
        <time>2021-07-20T09:44:27Z</time>
      </trkpt>
      <trkpt lat="43.15986" lon="3.16896">
        <ele>5.6</ele>
        <time>2021-07-20T09:44:28Z</time>
      </trkpt>
      <trkpt lat="43.15986" lon="3.16893">
        <ele>5.6</ele>
        <time>2021-07-20T09:44:29Z</time>
      </trkpt>
      <trkpt lat="43.15987" lon="3.16891">
        <ele>5.5</ele>
        <time>2021-07-20T09:44:30Z</time>
      </trkpt>
      <trkpt lat="43.15987" lon="3.16889">
        <ele>5.5</ele>
        <time>2021-07-20T09:44:31Z</time>
      </trkpt>
      <trkpt lat="43.15987" lon="3.16887">
        <ele>-4.517363</ele>
        <time>2021-07-20T09:44:32Z</time>
      </trkpt>
      <trkpt lat="43.15987" lon="3.16884">
        <ele>5.4</ele>
        <time>2021-07-20T09:44:33Z</time>
      </trkpt>
      <trkpt lat="43.15987" lon="3.16881">
        <ele>5.4</ele>
        <time>2021-07-20T09:44:34Z</time>
      </trkpt>
      <trkpt lat="43.15987" lon="3.1688">
        <ele>5.3</ele>
        <time>2021-07-20T09:44:35Z</time>
      </trkpt>
      <trkpt lat="43.15986" lon="3.16878">
        <ele>5.3</ele>
        <time>2021-07-20T09:44:36Z</time>
      </trkpt>
      <trkpt lat="43.15984" lon="3.16876">
        <ele>5.3</ele>
        <time>2021-07-20T09:44:37Z</time>
      </trkpt>
      <trkpt lat="43.15982" lon="3.16874">
        <ele>5.3</ele>
        <time>2021-07-20T09:44:38Z</time>
      </trkpt>
      <trkpt lat="43.15981" lon="3.16871">
        <ele>5.3</ele>
        <time>2021-07-20T09:44:39Z</time>
      </trkpt>
      <trkpt lat="43.15979" lon="3.16869">
        <ele>5.3</ele>
        <time>2021-07-20T09:44:40Z</time>
      </trkpt>
      <trkpt lat="43.15976" lon="3.16866">
        <ele>5.3</ele>
        <time>2021-07-20T09:44:41Z</time>
      </trkpt>
      <trkpt lat="43.15973" lon="3.16863">
        <ele>-4.519438</ele>
        <time>2021-07-20T09:44:42Z</time>
      </trkpt>
      <trkpt lat="43.15971" lon="3.16861">
        <ele>5.4</ele>
        <time>2021-07-20T09:44:43Z</time>
      </trkpt>
      <trkpt lat="43.15968" lon="3.16858">
        <ele>5.4</ele>
        <time>2021-07-20T09:44:44Z</time>
      </trkpt>
      <trkpt lat="43.15965" lon="3.16855">
        <ele>5.4</ele>
        <time>2021-07-20T09:44:45Z</time>
      </trkpt>
      <trkpt lat="43.15963" lon="3.16853">
        <ele>5.5</ele>
        <time>2021-07-20T09:44:46Z</time>
      </trkpt>
      <trkpt lat="43.1596" lon="3.1685">
        <ele>5.6</ele>
        <time>2021-07-20T09:44:47Z</time>
      </trkpt>
      <trkpt lat="43.15957" lon="3.16847">
        <ele>5.6</ele>
        <time>2021-07-20T09:44:48Z</time>
      </trkpt>
      <trkpt lat="43.15955" lon="3.16845">
        <ele>5.7</ele>
        <time>2021-07-20T09:44:49Z</time>
      </trkpt>
      <trkpt lat="43.15952" lon="3.16842">
        <ele>5.7</ele>
        <time>2021-07-20T09:44:50Z</time>
      </trkpt>
      <trkpt lat="43.1595" lon="3.1684">
        <ele>5.8</ele>
        <time>2021-07-20T09:44:51Z</time>
      </trkpt>
      <trkpt lat="43.15947" lon="3.16837">
        <ele>-4.1252117</ele>
        <time>2021-07-20T09:44:52Z</time>
      </trkpt>
      <trkpt lat="43.15944" lon="3.16835">
        <ele>6</ele>
        <time>2021-07-20T09:44:53Z</time>
      </trkpt>
      <trkpt lat="43.15942" lon="3.16832">
        <ele>6.1</ele>
        <time>2021-07-20T09:44:54Z</time>
      </trkpt>
      <trkpt lat="43.1594" lon="3.1683">
        <ele>6.1</ele>
        <time>2021-07-20T09:44:55Z</time>
      </trkpt>
      <trkpt lat="43.15937" lon="3.16827">
        <ele>6.2</ele>
        <time>2021-07-20T09:44:56Z</time>
      </trkpt>
      <trkpt lat="43.15935" lon="3.16825">
        <ele>6.3</ele>
        <time>2021-07-20T09:44:57Z</time>
      </trkpt>
      <trkpt lat="43.15933" lon="3.16822">
        <ele>6.3</ele>
        <time>2021-07-20T09:44:58Z</time>
      </trkpt>
      <trkpt lat="43.1593" lon="3.1682">
        <ele>6.4</ele>
        <time>2021-07-20T09:44:59Z</time>
      </trkpt>
      <trkpt lat="43.15928" lon="3.16818">
        <ele>6.4</ele>
        <time>2021-07-20T09:45:00Z</time>
      </trkpt>
      <trkpt lat="43.15925" lon="3.16815">
        <ele>6.5</ele>
        <time>2021-07-20T09:45:01Z</time>
      </trkpt>
      <trkpt lat="43.15922" lon="3.16813">
        <ele>-4.0463657</ele>
        <time>2021-07-20T09:45:02Z</time>
      </trkpt>
      <trkpt lat="43.1592" lon="3.1681">
        <ele>6.6</ele>
        <time>2021-07-20T09:45:03Z</time>
      </trkpt>
      <trkpt lat="43.15917" lon="3.16808">
        <ele>6.7</ele>
        <time>2021-07-20T09:45:04Z</time>
      </trkpt>
      <trkpt lat="43.15914" lon="3.16805">
        <ele>6.7</ele>
        <time>2021-07-20T09:45:05Z</time>
      </trkpt>
      <trkpt lat="43.15912" lon="3.16802">
        <ele>6.6</ele>
        <time>2021-07-20T09:45:06Z</time>
      </trkpt>
      <trkpt lat="43.15909" lon="3.16799">
        <ele>6.6</ele>
        <time>2021-07-20T09:45:07Z</time>
      </trkpt>
      <trkpt lat="43.15906" lon="3.16796">
        <ele>6.6</ele>
        <time>2021-07-20T09:45:08Z</time>
      </trkpt>
      <trkpt lat="43.15903" lon="3.16793">
        <ele>6.6</ele>
        <time>2021-07-20T09:45:09Z</time>
      </trkpt>
      <trkpt lat="43.159" lon="3.16791">
        <ele>6.6</ele>
        <time>2021-07-20T09:45:10Z</time>
      </trkpt>
      <trkpt lat="43.15897" lon="3.16789">
        <ele>6.6</ele>
        <time>2021-07-20T09:45:11Z</time>
      </trkpt>
      <trkpt lat="43.15896" lon="3.16787">
        <ele>-4.1480355</ele>
        <time>2021-07-20T09:45:12Z</time>
      </trkpt>
      <trkpt lat="43.15895" lon="3.16784">
        <ele>6.6</ele>
        <time>2021-07-20T09:45:13Z</time>
      </trkpt>
      <trkpt lat="43.15894" lon="3.16781">
        <ele>6.5</ele>
        <time>2021-07-20T09:45:14Z</time>
      </trkpt>
      <trkpt lat="43.15894" lon="3.16778">
        <ele>6.5</ele>
        <time>2021-07-20T09:45:15Z</time>
      </trkpt>
      <trkpt lat="43.15892" lon="3.16775">
        <ele>6.5</ele>
        <time>2021-07-20T09:45:16Z</time>
      </trkpt>
      <trkpt lat="43.1589" lon="3.16774">
        <ele>6.5</ele>
        <time>2021-07-20T09:45:17Z</time>
      </trkpt>
      <trkpt lat="43.15887" lon="3.16773">
        <ele>6.5</ele>
        <time>2021-07-20T09:45:18Z</time>
      </trkpt>
      <trkpt lat="43.15884" lon="3.16772">
        <ele>6.6</ele>
        <time>2021-07-20T09:45:19Z</time>
      </trkpt>
      <trkpt lat="43.15882" lon="3.16772">
        <ele>6.6</ele>
        <time>2021-07-20T09:45:20Z</time>
      </trkpt>
      <trkpt lat="43.1588" lon="3.16771">
        <ele>-4.391834</ele>
        <time>2021-07-20T09:45:21Z</time>
      </trkpt>
      <trkpt lat="43.15878" lon="3.16769">
        <ele>6.6</ele>
        <time>2021-07-20T09:45:22Z</time>
      </trkpt>
      <trkpt lat="43.15876" lon="3.16767">
        <ele>6.6</ele>
        <time>2021-07-20T09:45:23Z</time>
      </trkpt>
      <trkpt lat="43.15873" lon="3.16765">
        <ele>6.6</ele>
        <time>2021-07-20T09:45:24Z</time>
      </trkpt>
      <trkpt lat="43.15871" lon="3.16763">
        <ele>6.6</ele>
        <time>2021-07-20T09:45:25Z</time>
      </trkpt>
      <trkpt lat="43.15868" lon="3.16761">
        <ele>6.6</ele>
        <time>2021-07-20T09:45:26Z</time>
      </trkpt>
      <trkpt lat="43.15866" lon="3.16759">
        <ele>6.6</ele>
        <time>2021-07-20T09:45:27Z</time>
      </trkpt>
      <trkpt lat="43.15864" lon="3.16756">
        <ele>6.7</ele>
        <time>2021-07-20T09:45:28Z</time>
      </trkpt>
      <trkpt lat="43.15862" lon="3.16754">
        <ele>6.7</ele>
        <time>2021-07-20T09:45:29Z</time>
      </trkpt>
      <trkpt lat="43.15859" lon="3.16751">
        <ele>6.7</ele>
        <time>2021-07-20T09:45:30Z</time>
      </trkpt>
      <trkpt lat="43.15857" lon="3.16749">
        <ele>-3.964407</ele>
        <time>2021-07-20T09:45:31Z</time>
      </trkpt>
      <trkpt lat="43.15854" lon="3.16746">
        <ele>6.7</ele>
        <time>2021-07-20T09:45:32Z</time>
      </trkpt>
      <trkpt lat="43.15852" lon="3.16743">
        <ele>6.8</ele>
        <time>2021-07-20T09:45:33Z</time>
      </trkpt>
      <trkpt lat="43.15849" lon="3.16741">
        <ele>6.8</ele>
        <time>2021-07-20T09:45:34Z</time>
      </trkpt>
      <trkpt lat="43.15846" lon="3.16738">
        <ele>6.8</ele>
        <time>2021-07-20T09:45:35Z</time>
      </trkpt>
      <trkpt lat="43.15844" lon="3.16735">
        <ele>6.9</ele>
        <time>2021-07-20T09:45:36Z</time>
      </trkpt>
      <trkpt lat="43.15841" lon="3.16732">
        <ele>6.9</ele>
        <time>2021-07-20T09:45:37Z</time>
      </trkpt>
      <trkpt lat="43.15838" lon="3.1673">
        <ele>6.9</ele>
        <time>2021-07-20T09:45:38Z</time>
      </trkpt>
      <trkpt lat="43.15835" lon="3.16727">
        <ele>7</ele>
        <time>2021-07-20T09:45:39Z</time>
      </trkpt>
      <trkpt lat="43.15832" lon="3.16724">
        <ele>7</ele>
        <time>2021-07-20T09:45:40Z</time>
      </trkpt>
      <trkpt lat="43.1583" lon="3.1672">
        <ele>-3.968557</ele>
        <time>2021-07-20T09:45:41Z</time>
      </trkpt>
      <trkpt lat="43.15827" lon="3.16716">
        <ele>6.8</ele>
        <time>2021-07-20T09:45:42Z</time>
      </trkpt>
      <trkpt lat="43.15824" lon="3.16713">
        <ele>6.8</ele>
        <time>2021-07-20T09:45:43Z</time>
      </trkpt>
      <trkpt lat="43.15821" lon="3.1671">
        <ele>6.6</ele>
        <time>2021-07-20T09:45:44Z</time>
      </trkpt>
      <trkpt lat="43.15818" lon="3.16707">
        <ele>6.5</ele>
        <time>2021-07-20T09:45:45Z</time>
      </trkpt>
      <trkpt lat="43.15815" lon="3.16704">
        <ele>6.4</ele>
        <time>2021-07-20T09:45:46Z</time>
      </trkpt>
      <trkpt lat="43.15812" lon="3.167">
        <ele>6.2</ele>
        <time>2021-07-20T09:45:47Z</time>
      </trkpt>
      <trkpt lat="43.15808" lon="3.16697">
        <ele>6</ele>
        <time>2021-07-20T09:45:48Z</time>
      </trkpt>
      <trkpt lat="43.15805" lon="3.16694">
        <ele>5.9</ele>
        <time>2021-07-20T09:45:49Z</time>
      </trkpt>
      <trkpt lat="43.15802" lon="3.16691">
        <ele>5.7</ele>
        <time>2021-07-20T09:45:50Z</time>
      </trkpt>
      <trkpt lat="43.15799" lon="3.16688">
        <ele>-3.9031973</ele>
        <time>2021-07-20T09:45:51Z</time>
      </trkpt>
      <trkpt lat="43.15796" lon="3.16684">
        <ele>5.2</ele>
        <time>2021-07-20T09:45:52Z</time>
      </trkpt>
      <trkpt lat="43.15792" lon="3.16681">
        <ele>5</ele>
        <time>2021-07-20T09:45:53Z</time>
      </trkpt>
      <trkpt lat="43.15789" lon="3.16679">
        <ele>4.7</ele>
        <time>2021-07-20T09:45:54Z</time>
      </trkpt>
      <trkpt lat="43.15786" lon="3.16676">
        <ele>4.4</ele>
        <time>2021-07-20T09:45:55Z</time>
      </trkpt>
      <trkpt lat="43.15783" lon="3.16673">
        <ele>4.2</ele>
        <time>2021-07-20T09:45:56Z</time>
      </trkpt>
      <trkpt lat="43.1578" lon="3.1667">
        <ele>3.9</ele>
        <time>2021-07-20T09:45:57Z</time>
      </trkpt>
      <trkpt lat="43.15776" lon="3.16667">
        <ele>3.6</ele>
        <time>2021-07-20T09:45:58Z</time>
      </trkpt>
      <trkpt lat="43.15773" lon="3.16664">
        <ele>3.4</ele>
        <time>2021-07-20T09:45:59Z</time>
      </trkpt>
      <trkpt lat="43.1577" lon="3.16661">
        <ele>3.3</ele>
        <time>2021-07-20T09:46:00Z</time>
      </trkpt>
      <trkpt lat="43.15767" lon="3.16657">
        <ele>3.1</ele>
        <time>2021-07-20T09:46:01Z</time>
      </trkpt>
      <trkpt lat="43.15764" lon="3.16654">
        <ele>-3.8565116</ele>
        <time>2021-07-20T09:46:02Z</time>
      </trkpt>
      <trkpt lat="43.15761" lon="3.1665">
        <ele>2.9</ele>
        <time>2021-07-20T09:46:03Z</time>
      </trkpt>
      <trkpt lat="43.15758" lon="3.16647">
        <ele>2.9</ele>
        <time>2021-07-20T09:46:04Z</time>
      </trkpt>
      <trkpt lat="43.15755" lon="3.16644">
        <ele>2.8</ele>
        <time>2021-07-20T09:46:05Z</time>
      </trkpt>
      <trkpt lat="43.15751" lon="3.16641">
        <ele>2.7</ele>
        <time>2021-07-20T09:46:06Z</time>
      </trkpt>
      <trkpt lat="43.15748" lon="3.16638">
        <ele>2.7</ele>
        <time>2021-07-20T09:46:07Z</time>
      </trkpt>
      <trkpt lat="43.15745" lon="3.16635">
        <ele>2.8</ele>
        <time>2021-07-20T09:46:08Z</time>
      </trkpt>
      <trkpt lat="43.15742" lon="3.16633">
        <ele>2.8</ele>
        <time>2021-07-20T09:46:09Z</time>
      </trkpt>
      <trkpt lat="43.15738" lon="3.16632">
        <ele>2.8</ele>
        <time>2021-07-20T09:46:10Z</time>
      </trkpt>
      <trkpt lat="43.15735" lon="3.16632">
        <ele>2.8</ele>
        <time>2021-07-20T09:46:11Z</time>
      </trkpt>
      <trkpt lat="43.15731" lon="3.16632">
        <ele>-3.547347</ele>
        <time>2021-07-20T09:46:12Z</time>
      </trkpt>
      <trkpt lat="43.15728" lon="3.16631">
        <ele>2.9</ele>
        <time>2021-07-20T09:46:13Z</time>
      </trkpt>
      <trkpt lat="43.15724" lon="3.1663">
        <ele>2.9</ele>
        <time>2021-07-20T09:46:14Z</time>
      </trkpt>
      <trkpt lat="43.1572" lon="3.16629">
        <ele>2.9</ele>
        <time>2021-07-20T09:46:15Z</time>
      </trkpt>
      <trkpt lat="43.15717" lon="3.16626">
        <ele>3</ele>
        <time>2021-07-20T09:46:16Z</time>
      </trkpt>
      <trkpt lat="43.15714" lon="3.16622">
        <ele>3.1</ele>
        <time>2021-07-20T09:46:17Z</time>
      </trkpt>
      <trkpt lat="43.15712" lon="3.16617">
        <ele>3.2</ele>
        <time>2021-07-20T09:46:18Z</time>
      </trkpt>
      <trkpt lat="43.1571" lon="3.16613">
        <ele>3.3</ele>
        <time>2021-07-20T09:46:19Z</time>
      </trkpt>
      <trkpt lat="43.15707" lon="3.1661">
        <ele>3.4</ele>
        <time>2021-07-20T09:46:20Z</time>
      </trkpt>
      <trkpt lat="43.15704" lon="3.16606">
        <ele>3.4</ele>
        <time>2021-07-20T09:46:21Z</time>
      </trkpt>
      <trkpt lat="43.15701" lon="3.16603">
        <ele>-3.6479816</ele>
        <time>2021-07-20T09:46:22Z</time>
      </trkpt>
      <trkpt lat="43.15698" lon="3.166">
        <ele>3.6</ele>
        <time>2021-07-20T09:46:23Z</time>
      </trkpt>
      <trkpt lat="43.15694" lon="3.16597">
        <ele>3.7</ele>
        <time>2021-07-20T09:46:24Z</time>
      </trkpt>
      <trkpt lat="43.15691" lon="3.16594">
        <ele>3.8</ele>
        <time>2021-07-20T09:46:25Z</time>
      </trkpt>
      <trkpt lat="43.15687" lon="3.1659">
        <ele>3.8</ele>
        <time>2021-07-20T09:46:26Z</time>
      </trkpt>
      <trkpt lat="43.15684" lon="3.16587">
        <ele>3.9</ele>
        <time>2021-07-20T09:46:27Z</time>
      </trkpt>
      <trkpt lat="43.15681" lon="3.16583">
        <ele>4</ele>
        <time>2021-07-20T09:46:28Z</time>
      </trkpt>
      <trkpt lat="43.15677" lon="3.16579">
        <ele>4.1</ele>
        <time>2021-07-20T09:46:29Z</time>
      </trkpt>
      <trkpt lat="43.15674" lon="3.16576">
        <ele>4.2</ele>
        <time>2021-07-20T09:46:30Z</time>
      </trkpt>
      <trkpt lat="43.1567" lon="3.16572">
        <ele>4.3</ele>
        <time>2021-07-20T09:46:31Z</time>
      </trkpt>
      <trkpt lat="43.15667" lon="3.16569">
        <ele>-3.545272</ele>
        <time>2021-07-20T09:46:32Z</time>
      </trkpt>
      <trkpt lat="43.15664" lon="3.16565">
        <ele>4.4</ele>
        <time>2021-07-20T09:46:33Z</time>
      </trkpt>
      <trkpt lat="43.1566" lon="3.16562">
        <ele>4.5</ele>
        <time>2021-07-20T09:46:34Z</time>
      </trkpt>
      <trkpt lat="43.15657" lon="3.16559">
        <ele>4.6</ele>
        <time>2021-07-20T09:46:35Z</time>
      </trkpt>
      <trkpt lat="43.15653" lon="3.16556">
        <ele>4.7</ele>
        <time>2021-07-20T09:46:36Z</time>
      </trkpt>
      <trkpt lat="43.15649" lon="3.16553">
        <ele>4.7</ele>
        <time>2021-07-20T09:46:37Z</time>
      </trkpt>
      <trkpt lat="43.15646" lon="3.1655">
        <ele>4.8</ele>
        <time>2021-07-20T09:46:38Z</time>
      </trkpt>
      <trkpt lat="43.15642" lon="3.16547">
        <ele>4.9</ele>
        <time>2021-07-20T09:46:39Z</time>
      </trkpt>
      <trkpt lat="43.15639" lon="3.16543">
        <ele>5</ele>
        <time>2021-07-20T09:46:40Z</time>
      </trkpt>
      <trkpt lat="43.15636" lon="3.16539">
        <ele>5.1</ele>
        <time>2021-07-20T09:46:41Z</time>
      </trkpt>
      <trkpt lat="43.15632" lon="3.16535">
        <ele>-3.4861362</ele>
        <time>2021-07-20T09:46:42Z</time>
      </trkpt>
      <trkpt lat="43.15628" lon="3.16532">
        <ele>5.2</ele>
        <time>2021-07-20T09:46:43Z</time>
      </trkpt>
      <trkpt lat="43.15625" lon="3.16528">
        <ele>5.3</ele>
        <time>2021-07-20T09:46:44Z</time>
      </trkpt>
      <trkpt lat="43.15621" lon="3.16524">
        <ele>5.4</ele>
        <time>2021-07-20T09:46:45Z</time>
      </trkpt>
      <trkpt lat="43.15617" lon="3.1652">
        <ele>5.5</ele>
        <time>2021-07-20T09:46:46Z</time>
      </trkpt>
      <trkpt lat="43.15614" lon="3.16516">
        <ele>-3.3357017</ele>
        <time>2021-07-20T09:46:47Z</time>
      </trkpt>
      <trkpt lat="43.1561" lon="3.16513">
        <ele>5.7</ele>
        <time>2021-07-20T09:46:48Z</time>
      </trkpt>
      <trkpt lat="43.15606" lon="3.16509">
        <ele>5.8</ele>
        <time>2021-07-20T09:46:49Z</time>
      </trkpt>
      <trkpt lat="43.15602" lon="3.16505">
        <ele>5.9</ele>
        <time>2021-07-20T09:46:50Z</time>
      </trkpt>
      <trkpt lat="43.15599" lon="3.16502">
        <ele>6</ele>
        <time>2021-07-20T09:46:51Z</time>
      </trkpt>
      <trkpt lat="43.15595" lon="3.16498">
        <ele>6</ele>
        <time>2021-07-20T09:46:52Z</time>
      </trkpt>
      <trkpt lat="43.15591" lon="3.16494">
        <ele>5.9</ele>
        <time>2021-07-20T09:46:53Z</time>
      </trkpt>
      <trkpt lat="43.15588" lon="3.1649">
        <ele>5.9</ele>
        <time>2021-07-20T09:46:54Z</time>
      </trkpt>
      <trkpt lat="43.15585" lon="3.16487">
        <ele>5.8</ele>
        <time>2021-07-20T09:46:55Z</time>
      </trkpt>
      <trkpt lat="43.15581" lon="3.16484">
        <ele>5.8</ele>
        <time>2021-07-20T09:46:56Z</time>
      </trkpt>
      <trkpt lat="43.15578" lon="3.1648">
        <ele>5.8</ele>
        <time>2021-07-20T09:46:57Z</time>
      </trkpt>
      <trkpt lat="43.15574" lon="3.16477">
        <ele>5.7</ele>
        <time>2021-07-20T09:46:58Z</time>
      </trkpt>
      <trkpt lat="43.1557" lon="3.16473">
        <ele>5.7</ele>
        <time>2021-07-20T09:46:59Z</time>
      </trkpt>
      <trkpt lat="43.15567" lon="3.1647">
        <ele>5.6</ele>
        <time>2021-07-20T09:47:00Z</time>
      </trkpt>
      <trkpt lat="43.15563" lon="3.16466">
        <ele>-3.651094</ele>
        <time>2021-07-20T09:47:01Z</time>
      </trkpt>
      <trkpt lat="43.15559" lon="3.16463">
        <ele>5.6</ele>
        <time>2021-07-20T09:47:02Z</time>
      </trkpt>
      <trkpt lat="43.15555" lon="3.1646">
        <ele>5.5</ele>
        <time>2021-07-20T09:47:03Z</time>
      </trkpt>
      <trkpt lat="43.15551" lon="3.16457">
        <ele>5.5</ele>
        <time>2021-07-20T09:47:04Z</time>
      </trkpt>
      <trkpt lat="43.15548" lon="3.16453">
        <ele>5.4</ele>
        <time>2021-07-20T09:47:05Z</time>
      </trkpt>
      <trkpt lat="43.15545" lon="3.16448">
        <ele>5.4</ele>
        <time>2021-07-20T09:47:06Z</time>
      </trkpt>
      <trkpt lat="43.15541" lon="3.16445">
        <ele>5.3</ele>
        <time>2021-07-20T09:47:07Z</time>
      </trkpt>
      <trkpt lat="43.15537" lon="3.16441">
        <ele>5.3</ele>
        <time>2021-07-20T09:47:08Z</time>
      </trkpt>
      <trkpt lat="43.15533" lon="3.16437">
        <ele>5.2</ele>
        <time>2021-07-20T09:47:09Z</time>
      </trkpt>
      <trkpt lat="43.1553" lon="3.16433">
        <ele>5.2</ele>
        <time>2021-07-20T09:47:10Z</time>
      </trkpt>
      <trkpt lat="43.15526" lon="3.16429">
        <ele>-3.535935</ele>
        <time>2021-07-20T09:47:11Z</time>
      </trkpt>
      <trkpt lat="43.15522" lon="3.16425">
        <ele>5.1</ele>
        <time>2021-07-20T09:47:12Z</time>
      </trkpt>
      <trkpt lat="43.15518" lon="3.16422">
        <ele>5.1</ele>
        <time>2021-07-20T09:47:13Z</time>
      </trkpt>
      <trkpt lat="43.15514" lon="3.16418">
        <ele>5</ele>
        <time>2021-07-20T09:47:14Z</time>
      </trkpt>
      <trkpt lat="43.1551" lon="3.16414">
        <ele>4.9</ele>
        <time>2021-07-20T09:47:15Z</time>
      </trkpt>
      <trkpt lat="43.15506" lon="3.16411">
        <ele>4.9</ele>
        <time>2021-07-20T09:47:16Z</time>
      </trkpt>
      <trkpt lat="43.15501" lon="3.16408">
        <ele>4.8</ele>
        <time>2021-07-20T09:47:17Z</time>
      </trkpt>
      <trkpt lat="43.15498" lon="3.16404">
        <ele>4.7</ele>
        <time>2021-07-20T09:47:18Z</time>
      </trkpt>
      <trkpt lat="43.15494" lon="3.164">
        <ele>4.6</ele>
        <time>2021-07-20T09:47:19Z</time>
      </trkpt>
      <trkpt lat="43.15491" lon="3.16395">
        <ele>4.5</ele>
        <time>2021-07-20T09:47:20Z</time>
      </trkpt>
      <trkpt lat="43.15487" lon="3.16391">
        <ele>-3.5753589</ele>
        <time>2021-07-20T09:47:21Z</time>
      </trkpt>
      <trkpt lat="43.15483" lon="3.16387">
        <ele>4.3</ele>
        <time>2021-07-20T09:47:22Z</time>
      </trkpt>
      <trkpt lat="43.15479" lon="3.16383">
        <ele>4.2</ele>
        <time>2021-07-20T09:47:23Z</time>
      </trkpt>
      <trkpt lat="43.15475" lon="3.16379">
        <ele>4.1</ele>
        <time>2021-07-20T09:47:24Z</time>
      </trkpt>
      <trkpt lat="43.15471" lon="3.16374">
        <ele>4</ele>
        <time>2021-07-20T09:47:25Z</time>
      </trkpt>
      <trkpt lat="43.15467" lon="3.1637">
        <ele>3.9</ele>
        <time>2021-07-20T09:47:26Z</time>
      </trkpt>
      <trkpt lat="43.15463" lon="3.16367">
        <ele>3.8</ele>
        <time>2021-07-20T09:47:27Z</time>
      </trkpt>
      <trkpt lat="43.15458" lon="3.16364">
        <ele>3.7</ele>
        <time>2021-07-20T09:47:28Z</time>
      </trkpt>
      <trkpt lat="43.15454" lon="3.1636">
        <ele>3.7</ele>
        <time>2021-07-20T09:47:29Z</time>
      </trkpt>
      <trkpt lat="43.1545" lon="3.16356">
        <ele>3.5</ele>
        <time>2021-07-20T09:47:30Z</time>
      </trkpt>
      <trkpt lat="43.15446" lon="3.16351">
        <ele>-3.567059</ele>
        <time>2021-07-20T09:47:31Z</time>
      </trkpt>
      <trkpt lat="43.15442" lon="3.16347">
        <ele>3.3</ele>
        <time>2021-07-20T09:47:32Z</time>
      </trkpt>
      <trkpt lat="43.15438" lon="3.16342">
        <ele>3.2</ele>
        <time>2021-07-20T09:47:33Z</time>
      </trkpt>
      <trkpt lat="43.15434" lon="3.16338">
        <ele>3.1</ele>
        <time>2021-07-20T09:47:34Z</time>
      </trkpt>
      <trkpt lat="43.1543" lon="3.16334">
        <ele>3</ele>
        <time>2021-07-20T09:47:35Z</time>
      </trkpt>
      <trkpt lat="43.15426" lon="3.1633">
        <ele>3</ele>
        <time>2021-07-20T09:47:36Z</time>
      </trkpt>
      <trkpt lat="43.15421" lon="3.16326">
        <ele>3</ele>
        <time>2021-07-20T09:47:37Z</time>
      </trkpt>
      <trkpt lat="43.15417" lon="3.16322">
        <ele>3</ele>
        <time>2021-07-20T09:47:38Z</time>
      </trkpt>
      <trkpt lat="43.15413" lon="3.16318">
        <ele>3</ele>
        <time>2021-07-20T09:47:39Z</time>
      </trkpt>
      <trkpt lat="43.15409" lon="3.16314">
        <ele>3</ele>
        <time>2021-07-20T09:47:40Z</time>
      </trkpt>
      <trkpt lat="43.15405" lon="3.1631">
        <ele>3</ele>
        <time>2021-07-20T09:47:41Z</time>
      </trkpt>
      <trkpt lat="43.15401" lon="3.16305">
        <ele>-3.5068855</ele>
        <time>2021-07-20T09:47:42Z</time>
      </trkpt>
      <trkpt lat="43.15397" lon="3.16301">
        <ele>3</ele>
        <time>2021-07-20T09:47:43Z</time>
      </trkpt>
      <trkpt lat="43.15393" lon="3.16297">
        <ele>3</ele>
        <time>2021-07-20T09:47:44Z</time>
      </trkpt>
      <trkpt lat="43.15389" lon="3.16293">
        <ele>3</ele>
        <time>2021-07-20T09:47:45Z</time>
      </trkpt>
      <trkpt lat="43.15385" lon="3.16289">
        <ele>3</ele>
        <time>2021-07-20T09:47:46Z</time>
      </trkpt>
      <trkpt lat="43.15381" lon="3.16286">
        <ele>3</ele>
        <time>2021-07-20T09:47:47Z</time>
      </trkpt>
      <trkpt lat="43.15377" lon="3.16282">
        <ele>3</ele>
        <time>2021-07-20T09:47:48Z</time>
      </trkpt>
      <trkpt lat="43.15373" lon="3.16278">
        <ele>3</ele>
        <time>2021-07-20T09:47:49Z</time>
      </trkpt>
      <trkpt lat="43.15369" lon="3.16274">
        <ele>3</ele>
        <time>2021-07-20T09:47:50Z</time>
      </trkpt>
      <trkpt lat="43.15365" lon="3.1627">
        <ele>3</ele>
        <time>2021-07-20T09:47:51Z</time>
      </trkpt>
      <trkpt lat="43.1536" lon="3.16266">
        <ele>-3.4581244</ele>
        <time>2021-07-20T09:47:52Z</time>
      </trkpt>
      <trkpt lat="43.15356" lon="3.16261">
        <ele>3</ele>
        <time>2021-07-20T09:47:53Z</time>
      </trkpt>
      <trkpt lat="43.15352" lon="3.16257">
        <ele>3</ele>
        <time>2021-07-20T09:47:54Z</time>
      </trkpt>
      <trkpt lat="43.15348" lon="3.16253">
        <ele>3</ele>
        <time>2021-07-20T09:47:55Z</time>
      </trkpt>
      <trkpt lat="43.15344" lon="3.16249">
        <ele>3</ele>
        <time>2021-07-20T09:47:56Z</time>
      </trkpt>
      <trkpt lat="43.15339" lon="3.16245">
        <ele>3</ele>
        <time>2021-07-20T09:47:57Z</time>
      </trkpt>
      <trkpt lat="43.15336" lon="3.16241">
        <ele>3</ele>
        <time>2021-07-20T09:47:58Z</time>
      </trkpt>
      <trkpt lat="43.15332" lon="3.16237">
        <ele>3</ele>
        <time>2021-07-20T09:47:59Z</time>
      </trkpt>
      <trkpt lat="43.15328" lon="3.16233">
        <ele>3</ele>
        <time>2021-07-20T09:48:00Z</time>
      </trkpt>
      <trkpt lat="43.15324" lon="3.16229">
        <ele>3</ele>
        <time>2021-07-20T09:48:01Z</time>
      </trkpt>
      <trkpt lat="43.1532" lon="3.16225">
        <ele>-3.3927631</ele>
        <time>2021-07-20T09:48:02Z</time>
      </trkpt>
      <trkpt lat="43.15316" lon="3.16221">
        <ele>3</ele>
        <time>2021-07-20T09:48:03Z</time>
      </trkpt>
      <trkpt lat="43.15312" lon="3.16218">
        <ele>3</ele>
        <time>2021-07-20T09:48:04Z</time>
      </trkpt>
      <trkpt lat="43.15308" lon="3.16215">
        <ele>3</ele>
        <time>2021-07-20T09:48:05Z</time>
      </trkpt>
      <trkpt lat="43.15304" lon="3.16211">
        <ele>3</ele>
        <time>2021-07-20T09:48:06Z</time>
      </trkpt>
      <trkpt lat="43.153" lon="3.16208">
        <ele>3</ele>
        <time>2021-07-20T09:48:07Z</time>
      </trkpt>
      <trkpt lat="43.15296" lon="3.16204">
        <ele>3</ele>
        <time>2021-07-20T09:48:08Z</time>
      </trkpt>
      <trkpt lat="43.15292" lon="3.162">
        <ele>3</ele>
        <time>2021-07-20T09:48:09Z</time>
      </trkpt>
      <trkpt lat="43.15289" lon="3.16195">
        <ele>3</ele>
        <time>2021-07-20T09:48:10Z</time>
      </trkpt>
      <trkpt lat="43.15285" lon="3.16192">
        <ele>3</ele>
        <time>2021-07-20T09:48:11Z</time>
      </trkpt>
      <trkpt lat="43.15281" lon="3.16188">
        <ele>-3.549422</ele>
        <time>2021-07-20T09:48:12Z</time>
      </trkpt>
      <trkpt lat="43.15278" lon="3.16184">
        <ele>3</ele>
        <time>2021-07-20T09:48:13Z</time>
      </trkpt>
      <trkpt lat="43.15274" lon="3.16181">
        <ele>3</ele>
        <time>2021-07-20T09:48:14Z</time>
      </trkpt>
      <trkpt lat="43.1527" lon="3.1618">
        <ele>3</ele>
        <time>2021-07-20T09:48:15Z</time>
      </trkpt>
      <trkpt lat="43.15266" lon="3.16179">
        <ele>3</ele>
        <time>2021-07-20T09:48:16Z</time>
      </trkpt>
      <trkpt lat="43.15263" lon="3.16178">
        <ele>3</ele>
        <time>2021-07-20T09:48:17Z</time>
      </trkpt>
      <trkpt lat="43.15259" lon="3.16176">
        <ele>3</ele>
        <time>2021-07-20T09:48:18Z</time>
      </trkpt>
      <trkpt lat="43.15257" lon="3.16172">
        <ele>3</ele>
        <time>2021-07-20T09:48:19Z</time>
      </trkpt>
      <trkpt lat="43.15254" lon="3.16169">
        <ele>3</ele>
        <time>2021-07-20T09:48:20Z</time>
      </trkpt>
      <trkpt lat="43.15252" lon="3.16165">
        <ele>3</ele>
        <time>2021-07-20T09:48:21Z</time>
      </trkpt>
      <trkpt lat="43.1525" lon="3.16161">
        <ele>-3.4726489</ele>
        <time>2021-07-20T09:48:22Z</time>
      </trkpt>
      <trkpt lat="43.15249" lon="3.16157">
        <ele>2.8</ele>
        <time>2021-07-20T09:48:23Z</time>
      </trkpt>
      <trkpt lat="43.15247" lon="3.16153">
        <ele>2.7</ele>
        <time>2021-07-20T09:48:24Z</time>
      </trkpt>
      <trkpt lat="43.15245" lon="3.16149">
        <ele>2.6</ele>
        <time>2021-07-20T09:48:25Z</time>
      </trkpt>
      <trkpt lat="43.15244" lon="3.16146">
        <ele>2.5</ele>
        <time>2021-07-20T09:48:26Z</time>
      </trkpt>
      <trkpt lat="43.15241" lon="3.16143">
        <ele>2.4</ele>
        <time>2021-07-20T09:48:27Z</time>
      </trkpt>
      <trkpt lat="43.15239" lon="3.1614">
        <ele>2.4</ele>
        <time>2021-07-20T09:48:28Z</time>
      </trkpt>
      <trkpt lat="43.15237" lon="3.16138">
        <ele>2.3</ele>
        <time>2021-07-20T09:48:29Z</time>
      </trkpt>
      <trkpt lat="43.15237" lon="3.16136">
        <ele>2.3</ele>
        <time>2021-07-20T09:48:30Z</time>
      </trkpt>
      <trkpt lat="43.15236" lon="3.16136">
        <ele>2.3</ele>
        <time>2021-07-20T09:48:31Z</time>
      </trkpt>
      <trkpt lat="43.15236" lon="3.16136">
        <ele>-4.032879</ele>
        <time>2021-07-20T09:48:32Z</time>
      </trkpt>
      <trkpt lat="43.15236" lon="3.16136">
        <ele>2.3</ele>
        <time>2021-07-20T09:48:33Z</time>
      </trkpt>
      <trkpt lat="43.15236" lon="3.16136">
        <ele>2.3</ele>
        <time>2021-07-20T09:48:34Z</time>
      </trkpt>
      <trkpt lat="43.15236" lon="3.16136">
        <ele>2.3</ele>
        <time>2021-07-20T09:48:35Z</time>
      </trkpt>
      <trkpt lat="43.15236" lon="3.16136">
        <ele>2.3</ele>
        <time>2021-07-20T09:48:36Z</time>
      </trkpt>
      <trkpt lat="43.15236" lon="3.16136">
        <ele>2.3</ele>
        <time>2021-07-20T09:48:37Z</time>
      </trkpt>
      <trkpt lat="43.15236" lon="3.16136">
        <ele>2.3</ele>
        <time>2021-07-20T09:48:38Z</time>
      </trkpt>
      <trkpt lat="43.15236" lon="3.16136">
        <ele>2.3</ele>
        <time>2021-07-20T09:48:39Z</time>
      </trkpt>
      <trkpt lat="43.15236" lon="3.16136">
        <ele>2.3</ele>
        <time>2021-07-20T09:48:40Z</time>
      </trkpt>
      <trkpt lat="43.15236" lon="3.16136">
        <ele>-4.330625</ele>
        <time>2021-07-20T09:48:41Z</time>
      </trkpt>
      <trkpt lat="43.15236" lon="3.16136">
        <ele>2.3</ele>
        <time>2021-07-20T09:48:42Z</time>
      </trkpt>
      <trkpt lat="43.15236" lon="3.16136">
        <ele>2.3</ele>
        <time>2021-07-20T09:48:43Z</time>
      </trkpt>
      <trkpt lat="43.15236" lon="3.16136">
        <ele>2.3</ele>
        <time>2021-07-20T09:48:44Z</time>
      </trkpt>
      <trkpt lat="43.15236" lon="3.16136">
        <ele>2.3</ele>
        <time>2021-07-20T09:48:45Z</time>
      </trkpt>
      <trkpt lat="43.15236" lon="3.16136">
        <ele>2.3</ele>
        <time>2021-07-20T09:48:46Z</time>
      </trkpt>
      <trkpt lat="43.15236" lon="3.16136">
        <ele>2.3</ele>
        <time>2021-07-20T09:48:47Z</time>
      </trkpt>
      <trkpt lat="43.15236" lon="3.16136">
        <ele>2.3</ele>
        <time>2021-07-20T09:48:48Z</time>
      </trkpt>
      <trkpt lat="43.15236" lon="3.16136">
        <ele>2.3</ele>
        <time>2021-07-20T09:48:49Z</time>
      </trkpt>
      <trkpt lat="43.15236" lon="3.16136">
        <ele>2.3</ele>
        <time>2021-07-20T09:48:50Z</time>
      </trkpt>
      <trkpt lat="43.15236" lon="3.16136">
        <ele>-4.2912025</ele>
        <time>2021-07-20T09:48:51Z</time>
      </trkpt>
      <trkpt lat="43.15236" lon="3.16136">
        <ele>2.3</ele>
        <time>2021-07-20T09:48:52Z</time>
      </trkpt>
      <trkpt lat="43.15236" lon="3.16136">
        <ele>2.3</ele>
        <time>2021-07-20T09:48:53Z</time>
      </trkpt>
      <trkpt lat="43.15236" lon="3.16137">
        <ele>2.3</ele>
        <time>2021-07-20T09:48:54Z</time>
      </trkpt>
      <trkpt lat="43.15236" lon="3.16137">
        <ele>2.3</ele>
        <time>2021-07-20T09:48:55Z</time>
      </trkpt>
      <trkpt lat="43.15235" lon="3.16136">
        <ele>2.3</ele>
        <time>2021-07-20T09:48:56Z</time>
      </trkpt>
      <trkpt lat="43.15234" lon="3.16136">
        <ele>2.3</ele>
        <time>2021-07-20T09:48:57Z</time>
      </trkpt>
      <trkpt lat="43.15233" lon="3.16135">
        <ele>2.2</ele>
        <time>2021-07-20T09:48:58Z</time>
      </trkpt>
      <trkpt lat="43.15231" lon="3.16135">
        <ele>2.2</ele>
        <time>2021-07-20T09:48:59Z</time>
      </trkpt>
      <trkpt lat="43.15231" lon="3.16134">
        <ele>2.2</ele>
        <time>2021-07-20T09:49:00Z</time>
      </trkpt>
      <trkpt lat="43.1523" lon="3.16134">
        <ele>-4.1739717</ele>
        <time>2021-07-20T09:49:01Z</time>
      </trkpt>
      <trkpt lat="43.1523" lon="3.16134">
        <ele>2.2</ele>
        <time>2021-07-20T09:49:02Z</time>
      </trkpt>
      <trkpt lat="43.1523" lon="3.16134">
        <ele>2.2</ele>
        <time>2021-07-20T09:49:03Z</time>
      </trkpt>
      <trkpt lat="43.1523" lon="3.16134">
        <ele>2.2</ele>
        <time>2021-07-20T09:49:04Z</time>
      </trkpt>
      <trkpt lat="43.1523" lon="3.16134">
        <ele>2.2</ele>
        <time>2021-07-20T09:49:05Z</time>
      </trkpt>
      <trkpt lat="43.1523" lon="3.16134">
        <ele>2.2</ele>
        <time>2021-07-20T09:49:06Z</time>
      </trkpt>
      <trkpt lat="43.1523" lon="3.16134">
        <ele>2.2</ele>
        <time>2021-07-20T09:49:07Z</time>
      </trkpt>
      <trkpt lat="43.1523" lon="3.16134">
        <ele>2.2</ele>
        <time>2021-07-20T09:49:08Z</time>
      </trkpt>
      <trkpt lat="43.1523" lon="3.16134">
        <ele>2.2</ele>
        <time>2021-07-20T09:49:09Z</time>
      </trkpt>
      <trkpt lat="43.1523" lon="3.16134">
        <ele>2.2</ele>
        <time>2021-07-20T09:49:10Z</time>
      </trkpt>
      <trkpt lat="43.1523" lon="3.16134">
        <ele>-4.186421</ele>
        <time>2021-07-20T09:49:11Z</time>
      </trkpt>
      <trkpt lat="43.1523" lon="3.16134">
        <ele>2.2</ele>
        <time>2021-07-20T09:49:12Z</time>
      </trkpt>
      <trkpt lat="43.1523" lon="3.16134">
        <ele>2.2</ele>
        <time>2021-07-20T09:49:13Z</time>
      </trkpt>
      <trkpt lat="43.1523" lon="3.16134">
        <ele>2.2</ele>
        <time>2021-07-20T09:49:14Z</time>
      </trkpt>
      <trkpt lat="43.1523" lon="3.16134">
        <ele>2.2</ele>
        <time>2021-07-20T09:49:15Z</time>
      </trkpt>
      <trkpt lat="43.1523" lon="3.16134">
        <ele>2.2</ele>
        <time>2021-07-20T09:49:16Z</time>
      </trkpt>
      <trkpt lat="43.1523" lon="3.16134">
        <ele>2.2</ele>
        <time>2021-07-20T09:49:17Z</time>
      </trkpt>
      <trkpt lat="43.1523" lon="3.16134">
        <ele>2.2</ele>
        <time>2021-07-20T09:49:18Z</time>
      </trkpt>
      <trkpt lat="43.1523" lon="3.16134">
        <ele>2.2</ele>
        <time>2021-07-20T09:49:19Z</time>
      </trkpt>
      <trkpt lat="43.1523" lon="3.16134">
        <ele>2.2</ele>
        <time>2021-07-20T09:49:20Z</time>
      </trkpt>
      <trkpt lat="43.1523" lon="3.16134">
        <ele>2.2</ele>
        <time>2021-07-20T09:49:21Z</time>
      </trkpt>
      <trkpt lat="43.1523" lon="3.16134">
        <ele>-4.0650396</ele>
        <time>2021-07-20T09:49:22Z</time>
      </trkpt>
      <trkpt lat="43.1523" lon="3.16134">
        <ele>2.2</ele>
        <time>2021-07-20T09:49:23Z</time>
      </trkpt>
      <trkpt lat="43.1523" lon="3.16134">
        <ele>2.2</ele>
        <time>2021-07-20T09:49:24Z</time>
      </trkpt>
      <trkpt lat="43.1523" lon="3.16134">
        <ele>2.2</ele>
        <time>2021-07-20T09:49:25Z</time>
      </trkpt>
      <trkpt lat="43.1523" lon="3.16134">
        <ele>2.2</ele>
        <time>2021-07-20T09:49:26Z</time>
      </trkpt>
      <trkpt lat="43.1523" lon="3.16134">
        <ele>2.2</ele>
        <time>2021-07-20T09:49:27Z</time>
      </trkpt>
      <trkpt lat="43.1523" lon="3.16134">
        <ele>2.2</ele>
        <time>2021-07-20T09:49:28Z</time>
      </trkpt>
      <trkpt lat="43.1523" lon="3.16134">
        <ele>2.2</ele>
        <time>2021-07-20T09:49:29Z</time>
      </trkpt>
      <trkpt lat="43.1523" lon="3.16134">
        <ele>2.2</ele>
        <time>2021-07-20T09:49:30Z</time>
      </trkpt>
      <trkpt lat="43.1523" lon="3.16134">
        <ele>2.2</ele>
        <time>2021-07-20T09:49:31Z</time>
      </trkpt>
      <trkpt lat="43.1523" lon="3.16134">
        <ele>-4.062965</ele>
        <time>2021-07-20T09:49:32Z</time>
      </trkpt>
      <trkpt lat="43.1523" lon="3.16134">
        <ele>2.2</ele>
        <time>2021-07-20T09:49:33Z</time>
      </trkpt>
      <trkpt lat="43.1523" lon="3.16134">
        <ele>2.2</ele>
        <time>2021-07-20T09:49:34Z</time>
      </trkpt>
      <trkpt lat="43.1523" lon="3.16134">
        <ele>2.2</ele>
        <time>2021-07-20T09:49:35Z</time>
      </trkpt>
      <trkpt lat="43.1523" lon="3.16134">
        <ele>2.2</ele>
        <time>2021-07-20T09:49:36Z</time>
      </trkpt>
      <trkpt lat="43.1523" lon="3.16134">
        <ele>2.2</ele>
        <time>2021-07-20T09:49:37Z</time>
      </trkpt>
      <trkpt lat="43.1523" lon="3.16134">
        <ele>2.2</ele>
        <time>2021-07-20T09:49:38Z</time>
      </trkpt>
      <trkpt lat="43.1523" lon="3.16134">
        <ele>2.2</ele>
        <time>2021-07-20T09:49:39Z</time>
      </trkpt>
      <trkpt lat="43.1523" lon="3.16134">
        <ele>2.2</ele>
        <time>2021-07-20T09:49:40Z</time>
      </trkpt>
      <trkpt lat="43.1523" lon="3.16134">
        <ele>2.2</ele>
        <time>2021-07-20T09:49:41Z</time>
      </trkpt>
      <trkpt lat="43.1523" lon="3.16134">
        <ele>-4.011092</ele>
        <time>2021-07-20T09:49:42Z</time>
      </trkpt>
      <trkpt lat="43.1523" lon="3.16134">
        <ele>2.2</ele>
        <time>2021-07-20T09:49:43Z</time>
      </trkpt>
      <trkpt lat="43.1523" lon="3.16134">
        <ele>2.2</ele>
        <time>2021-07-20T09:49:44Z</time>
      </trkpt>
      <trkpt lat="43.1523" lon="3.16134">
        <ele>2.2</ele>
        <time>2021-07-20T09:50:17Z</time>
      </trkpt>
      <trkpt lat="43.1523" lon="3.16134">
        <ele>2.2</ele>
        <time>2021-07-20T09:50:18Z</time>
      </trkpt>
      <trkpt lat="43.1523" lon="3.16134">
        <ele>2.2</ele>
        <time>2021-07-20T09:50:19Z</time>
      </trkpt>
      <trkpt lat="43.1523" lon="3.16134">
        <ele>2.2</ele>
        <time>2021-07-20T09:50:20Z</time>
      </trkpt>
      <trkpt lat="43.1523" lon="3.16135">
        <ele>-4.2963896</ele>
        <time>2021-07-20T09:50:21Z</time>
      </trkpt>
      <trkpt lat="43.1523" lon="3.16136">
        <ele>2.3</ele>
        <time>2021-07-20T09:50:22Z</time>
      </trkpt>
      <trkpt lat="43.1523" lon="3.16136">
        <ele>2.3</ele>
        <time>2021-07-20T09:50:23Z</time>
      </trkpt>
      <trkpt lat="43.1523" lon="3.16136">
        <ele>2.3</ele>
        <time>2021-07-20T09:50:24Z</time>
      </trkpt>
      <trkpt lat="43.15231" lon="3.16137">
        <ele>2.3</ele>
        <time>2021-07-20T09:50:25Z</time>
      </trkpt>
      <trkpt lat="43.1523" lon="3.16138">
        <ele>2.3</ele>
        <time>2021-07-20T09:50:26Z</time>
      </trkpt>
      <trkpt lat="43.1523" lon="3.16138">
        <ele>2.3</ele>
        <time>2021-07-20T09:50:27Z</time>
      </trkpt>
      <trkpt lat="43.1523" lon="3.16138">
        <ele>2.3</ele>
        <time>2021-07-20T09:50:28Z</time>
      </trkpt>
      <trkpt lat="43.1523" lon="3.16138">
        <ele>2.3</ele>
        <time>2021-07-20T09:50:29Z</time>
      </trkpt>
      <trkpt lat="43.15232" lon="3.16134">
        <ele>2.2</ele>
        <time>2021-07-20T09:50:30Z</time>
      </trkpt>
      <trkpt lat="43.15233" lon="3.16132">
        <ele>-4.0712643</ele>
        <time>2021-07-20T09:50:31Z</time>
      </trkpt>
      <trkpt lat="43.15234" lon="3.1613">
        <ele>2.1</ele>
        <time>2021-07-20T09:50:32Z</time>
      </trkpt>
      <trkpt lat="43.15236" lon="3.16127">
        <ele>2</ele>
        <time>2021-07-20T09:50:33Z</time>
      </trkpt>
      <trkpt lat="43.15237" lon="3.16124">
        <ele>2</ele>
        <time>2021-07-20T09:50:34Z</time>
      </trkpt>
      <trkpt lat="43.15238" lon="3.1612">
        <ele>1.9</ele>
        <time>2021-07-20T09:50:35Z</time>
      </trkpt>
      <trkpt lat="43.1524" lon="3.16117">
        <ele>1.8</ele>
        <time>2021-07-20T09:50:36Z</time>
      </trkpt>
      <trkpt lat="43.15242" lon="3.16113">
        <ele>1.7</ele>
        <time>2021-07-20T09:50:37Z</time>
      </trkpt>
      <trkpt lat="43.15244" lon="3.16109">
        <ele>1.6</ele>
        <time>2021-07-20T09:50:38Z</time>
      </trkpt>
      <trkpt lat="43.15246" lon="3.16105">
        <ele>1.5</ele>
        <time>2021-07-20T09:50:39Z</time>
      </trkpt>
      <trkpt lat="43.15248" lon="3.16101">
        <ele>1.4</ele>
        <time>2021-07-20T09:50:40Z</time>
      </trkpt>
      <trkpt lat="43.1525" lon="3.16098">
        <ele>-4.532924</ele>
        <time>2021-07-20T09:50:41Z</time>
      </trkpt>
      <trkpt lat="43.15252" lon="3.16094">
        <ele>1.3</ele>
        <time>2021-07-20T09:50:42Z</time>
      </trkpt>
      <trkpt lat="43.15253" lon="3.1609">
        <ele>1.2</ele>
        <time>2021-07-20T09:50:43Z</time>
      </trkpt>
      <trkpt lat="43.15255" lon="3.16086">
        <ele>1.1</ele>
        <time>2021-07-20T09:50:44Z</time>
      </trkpt>
      <trkpt lat="43.15257" lon="3.16083">
        <ele>1.1</ele>
        <time>2021-07-20T09:50:45Z</time>
      </trkpt>
      <trkpt lat="43.15259" lon="3.16079">
        <ele>1.1</ele>
        <time>2021-07-20T09:50:46Z</time>
      </trkpt>
      <trkpt lat="43.1526" lon="3.16075">
        <ele>1.1</ele>
        <time>2021-07-20T09:50:47Z</time>
      </trkpt>
      <trkpt lat="43.1526" lon="3.16071">
        <ele>1.1</ele>
        <time>2021-07-20T09:50:48Z</time>
      </trkpt>
      <trkpt lat="43.1526" lon="3.16067">
        <ele>1.1</ele>
        <time>2021-07-20T09:50:49Z</time>
      </trkpt>
      <trkpt lat="43.15261" lon="3.16064">
        <ele>1.1</ele>
        <time>2021-07-20T09:50:50Z</time>
      </trkpt>
      <trkpt lat="43.15261" lon="3.16061">
        <ele>-4.432294</ele>
        <time>2021-07-20T09:50:51Z</time>
      </trkpt>
      <trkpt lat="43.15261" lon="3.16058">
        <ele>1.1</ele>
        <time>2021-07-20T09:50:52Z</time>
      </trkpt>
      <trkpt lat="43.15262" lon="3.16054">
        <ele>1.1</ele>
        <time>2021-07-20T09:50:53Z</time>
      </trkpt>
      <trkpt lat="43.15262" lon="3.16051">
        <ele>1.1</ele>
        <time>2021-07-20T09:50:54Z</time>
      </trkpt>
      <trkpt lat="43.15263" lon="3.16048">
        <ele>1.1</ele>
        <time>2021-07-20T09:50:55Z</time>
      </trkpt>
      <trkpt lat="43.15263" lon="3.16044">
        <ele>1.1</ele>
        <time>2021-07-20T09:50:56Z</time>
      </trkpt>
      <trkpt lat="43.15263" lon="3.16042">
        <ele>1.1</ele>
        <time>2021-07-20T09:50:57Z</time>
      </trkpt>
      <trkpt lat="43.15262" lon="3.16039">
        <ele>1.1</ele>
        <time>2021-07-20T09:50:58Z</time>
      </trkpt>
      <trkpt lat="43.1526" lon="3.16038">
        <ele>1.1</ele>
        <time>2021-07-20T09:50:59Z</time>
      </trkpt>
      <trkpt lat="43.15258" lon="3.16035">
        <ele>1</ele>
        <time>2021-07-20T09:51:00Z</time>
      </trkpt>
      <trkpt lat="43.15257" lon="3.16032">
        <ele>1</ele>
        <time>2021-07-20T09:51:01Z</time>
      </trkpt>
      <trkpt lat="43.15255" lon="3.16028">
        <ele>-4.6750517</ele>
        <time>2021-07-20T09:51:02Z</time>
      </trkpt>
      <trkpt lat="43.15253" lon="3.16025">
        <ele>1</ele>
        <time>2021-07-20T09:51:03Z</time>
      </trkpt>
      <trkpt lat="43.15252" lon="3.16022">
        <ele>1</ele>
        <time>2021-07-20T09:51:04Z</time>
      </trkpt>
      <trkpt lat="43.15249" lon="3.16019">
        <ele>1</ele>
        <time>2021-07-20T09:51:05Z</time>
      </trkpt>
      <trkpt lat="43.15247" lon="3.16017">
        <ele>1</ele>
        <time>2021-07-20T09:51:06Z</time>
      </trkpt>
      <trkpt lat="43.15245" lon="3.16014">
        <ele>1</ele>
        <time>2021-07-20T09:51:07Z</time>
      </trkpt>
      <trkpt lat="43.15242" lon="3.16011">
        <ele>1</ele>
        <time>2021-07-20T09:51:08Z</time>
      </trkpt>
      <trkpt lat="43.1524" lon="3.16009">
        <ele>1</ele>
        <time>2021-07-20T09:51:09Z</time>
      </trkpt>
      <trkpt lat="43.15238" lon="3.16006">
        <ele>1</ele>
        <time>2021-07-20T09:51:10Z</time>
      </trkpt>
      <trkpt lat="43.15235" lon="3.16003">
        <ele>1</ele>
        <time>2021-07-20T09:51:11Z</time>
      </trkpt>
      <trkpt lat="43.15233" lon="3.16001">
        <ele>-4.3378873</ele>
        <time>2021-07-20T09:51:12Z</time>
      </trkpt>
      <trkpt lat="43.1523" lon="3.15998">
        <ele>1</ele>
        <time>2021-07-20T09:51:13Z</time>
      </trkpt>
      <trkpt lat="43.15227" lon="3.15995">
        <ele>1</ele>
        <time>2021-07-20T09:51:14Z</time>
      </trkpt>
      <trkpt lat="43.15225" lon="3.15993">
        <ele>1</ele>
        <time>2021-07-20T09:51:15Z</time>
      </trkpt>
      <trkpt lat="43.15223" lon="3.15991">
        <ele>1</ele>
        <time>2021-07-20T09:51:16Z</time>
      </trkpt>
      <trkpt lat="43.1522" lon="3.15988">
        <ele>1</ele>
        <time>2021-07-20T09:51:17Z</time>
      </trkpt>
      <trkpt lat="43.15217" lon="3.15985">
        <ele>1</ele>
        <time>2021-07-20T09:51:18Z</time>
      </trkpt>
      <trkpt lat="43.15215" lon="3.15982">
        <ele>1</ele>
        <time>2021-07-20T09:51:19Z</time>
      </trkpt>
      <trkpt lat="43.15214" lon="3.15981">
        <ele>1</ele>
        <time>2021-07-20T09:51:20Z</time>
      </trkpt>
      <trkpt lat="43.15213" lon="3.15979">
        <ele>1</ele>
        <time>2021-07-20T09:51:21Z</time>
      </trkpt>
      <trkpt lat="43.15211" lon="3.15977">
        <ele>-4.4634166</ele>
        <time>2021-07-20T09:51:22Z</time>
      </trkpt>
      <trkpt lat="43.1521" lon="3.15976">
        <ele>1</ele>
        <time>2021-07-20T09:51:23Z</time>
      </trkpt>
      <trkpt lat="43.15208" lon="3.15973">
        <ele>1</ele>
        <time>2021-07-20T09:51:24Z</time>
      </trkpt>
      <trkpt lat="43.15206" lon="3.15971">
        <ele>1</ele>
        <time>2021-07-20T09:51:25Z</time>
      </trkpt>
      <trkpt lat="43.15204" lon="3.15969">
        <ele>1</ele>
        <time>2021-07-20T09:51:26Z</time>
      </trkpt>
      <trkpt lat="43.15202" lon="3.15966">
        <ele>1</ele>
        <time>2021-07-20T09:51:27Z</time>
      </trkpt>
      <trkpt lat="43.152" lon="3.15964">
        <ele>1</ele>
        <time>2021-07-20T09:51:28Z</time>
      </trkpt>
      <trkpt lat="43.15198" lon="3.15962">
        <ele>1</ele>
        <time>2021-07-20T09:51:29Z</time>
      </trkpt>
      <trkpt lat="43.15196" lon="3.15959">
        <ele>1</ele>
        <time>2021-07-20T09:51:30Z</time>
      </trkpt>
      <trkpt lat="43.15194" lon="3.15957">
        <ele>1</ele>
        <time>2021-07-20T09:51:31Z</time>
      </trkpt>
      <trkpt lat="43.15192" lon="3.15955">
        <ele>-4.5785713</ele>
        <time>2021-07-20T09:51:32Z</time>
      </trkpt>
      <trkpt lat="43.1519" lon="3.15953">
        <ele>1</ele>
        <time>2021-07-20T09:51:33Z</time>
      </trkpt>
      <trkpt lat="43.15188" lon="3.15951">
        <ele>1</ele>
        <time>2021-07-20T09:51:34Z</time>
      </trkpt>
      <trkpt lat="43.15186" lon="3.15949">
        <ele>1</ele>
        <time>2021-07-20T09:51:35Z</time>
      </trkpt>
      <trkpt lat="43.15184" lon="3.15947">
        <ele>1</ele>
        <time>2021-07-20T09:51:36Z</time>
      </trkpt>
      <trkpt lat="43.15182" lon="3.15944">
        <ele>1</ele>
        <time>2021-07-20T09:51:37Z</time>
      </trkpt>
      <trkpt lat="43.1518" lon="3.15942">
        <ele>1</ele>
        <time>2021-07-20T09:51:38Z</time>
      </trkpt>
      <trkpt lat="43.15179" lon="3.1594">
        <ele>1</ele>
        <time>2021-07-20T09:51:39Z</time>
      </trkpt>
      <trkpt lat="43.15177" lon="3.15939">
        <ele>1</ele>
        <time>2021-07-20T09:51:40Z</time>
      </trkpt>
      <trkpt lat="43.15175" lon="3.15938">
        <ele>1</ele>
        <time>2021-07-20T09:51:41Z</time>
      </trkpt>
      <trkpt lat="43.15173" lon="3.15937">
        <ele>-4.5111384</ele>
        <time>2021-07-20T09:51:42Z</time>
      </trkpt>
      <trkpt lat="43.15171" lon="3.15937">
        <ele>1</ele>
        <time>2021-07-20T09:51:43Z</time>
      </trkpt>
      <trkpt lat="43.15169" lon="3.15936">
        <ele>1</ele>
        <time>2021-07-20T09:51:44Z</time>
      </trkpt>
      <trkpt lat="43.15168" lon="3.15936">
        <ele>1</ele>
        <time>2021-07-20T09:51:45Z</time>
      </trkpt>
      <trkpt lat="43.15167" lon="3.15937">
        <ele>1</ele>
        <time>2021-07-20T09:51:46Z</time>
      </trkpt>
      <trkpt lat="43.15166" lon="3.15937">
        <ele>1.3</ele>
        <time>2021-07-20T09:51:47Z</time>
      </trkpt>
      <trkpt lat="43.15166" lon="3.15938">
        <ele>1.2</ele>
        <time>2021-07-20T09:51:48Z</time>
      </trkpt>
      <trkpt lat="43.15166" lon="3.15939">
        <ele>1.2</ele>
        <time>2021-07-20T09:51:49Z</time>
      </trkpt>
      <trkpt lat="43.15166" lon="3.15939">
        <ele>1.2</ele>
        <time>2021-07-20T09:51:50Z</time>
      </trkpt>
      <trkpt lat="43.15168" lon="3.15939">
        <ele>1</ele>
        <time>2021-07-20T09:51:51Z</time>
      </trkpt>
      <trkpt lat="43.15169" lon="3.15938">
        <ele>-4.4167323</ele>
        <time>2021-07-20T09:51:52Z</time>
      </trkpt>
      <trkpt lat="43.1517" lon="3.15937">
        <ele>1</ele>
        <time>2021-07-20T09:51:53Z</time>
      </trkpt>
      <trkpt lat="43.15171" lon="3.15936">
        <ele>1</ele>
        <time>2021-07-20T09:51:54Z</time>
      </trkpt>
      <trkpt lat="43.15174" lon="3.15935">
        <ele>1</ele>
        <time>2021-07-20T09:51:55Z</time>
      </trkpt>
      <trkpt lat="43.15176" lon="3.15936">
        <ele>1</ele>
        <time>2021-07-20T09:51:56Z</time>
      </trkpt>
      <trkpt lat="43.15178" lon="3.15937">
        <ele>1</ele>
        <time>2021-07-20T09:51:57Z</time>
      </trkpt>
      <trkpt lat="43.15179" lon="3.15939">
        <ele>1</ele>
        <time>2021-07-20T09:51:58Z</time>
      </trkpt>
      <trkpt lat="43.15181" lon="3.15941">
        <ele>1</ele>
        <time>2021-07-20T09:51:59Z</time>
      </trkpt>
      <trkpt lat="43.15183" lon="3.15943">
        <ele>1</ele>
        <time>2021-07-20T09:52:00Z</time>
      </trkpt>
      <trkpt lat="43.15185" lon="3.15946">
        <ele>-4.5775337</ele>
        <time>2021-07-20T09:52:01Z</time>
      </trkpt>
      <trkpt lat="43.15188" lon="3.15948">
        <ele>1</ele>
        <time>2021-07-20T09:52:02Z</time>
      </trkpt>
      <trkpt lat="43.15189" lon="3.15951">
        <ele>1</ele>
        <time>2021-07-20T09:52:03Z</time>
      </trkpt>
      <trkpt lat="43.15192" lon="3.15953">
        <ele>1</ele>
        <time>2021-07-20T09:52:04Z</time>
      </trkpt>
      <trkpt lat="43.15194" lon="3.15956">
        <ele>1</ele>
        <time>2021-07-20T09:52:05Z</time>
      </trkpt>
      <trkpt lat="43.15196" lon="3.15958">
        <ele>1</ele>
        <time>2021-07-20T09:52:06Z</time>
      </trkpt>
      <trkpt lat="43.15199" lon="3.1596">
        <ele>1</ele>
        <time>2021-07-20T09:52:07Z</time>
      </trkpt>
      <trkpt lat="43.152" lon="3.15963">
        <ele>1</ele>
        <time>2021-07-20T09:52:08Z</time>
      </trkpt>
      <trkpt lat="43.15202" lon="3.15966">
        <ele>1</ele>
        <time>2021-07-20T09:52:09Z</time>
      </trkpt>
      <trkpt lat="43.15204" lon="3.15969">
        <ele>1</ele>
        <time>2021-07-20T09:52:10Z</time>
      </trkpt>
      <trkpt lat="43.15205" lon="3.15972">
        <ele>-4.394946</ele>
        <time>2021-07-20T09:52:11Z</time>
      </trkpt>
      <trkpt lat="43.15206" lon="3.15975">
        <ele>1</ele>
        <time>2021-07-20T09:52:12Z</time>
      </trkpt>
      <trkpt lat="43.15207" lon="3.15977">
        <ele>1</ele>
        <time>2021-07-20T09:52:13Z</time>
      </trkpt>
      <trkpt lat="43.15208" lon="3.15979">
        <ele>1</ele>
        <time>2021-07-20T09:52:14Z</time>
      </trkpt>
      <trkpt lat="43.15209" lon="3.1598">
        <ele>1</ele>
        <time>2021-07-20T09:52:15Z</time>
      </trkpt>
      <trkpt lat="43.15211" lon="3.1598">
        <ele>1</ele>
        <time>2021-07-20T09:52:16Z</time>
      </trkpt>
      <trkpt lat="43.15213" lon="3.15981">
        <ele>1</ele>
        <time>2021-07-20T09:52:17Z</time>
      </trkpt>
      <trkpt lat="43.15215" lon="3.15981">
        <ele>1</ele>
        <time>2021-07-20T09:52:18Z</time>
      </trkpt>
      <trkpt lat="43.15216" lon="3.15981">
        <ele>1</ele>
        <time>2021-07-20T09:52:19Z</time>
      </trkpt>
      <trkpt lat="43.15219" lon="3.15981">
        <ele>1</ele>
        <time>2021-07-20T09:52:20Z</time>
      </trkpt>
      <trkpt lat="43.15221" lon="3.15981">
        <ele>-4.513213</ele>
        <time>2021-07-20T09:52:21Z</time>
      </trkpt>
      <trkpt lat="43.15223" lon="3.15981">
        <ele>1</ele>
        <time>2021-07-20T09:52:22Z</time>
      </trkpt>
      <trkpt lat="43.15226" lon="3.1598">
        <ele>1</ele>
        <time>2021-07-20T09:52:23Z</time>
      </trkpt>
      <trkpt lat="43.15228" lon="3.15978">
        <ele>1</ele>
        <time>2021-07-20T09:52:24Z</time>
      </trkpt>
      <trkpt lat="43.1523" lon="3.15976">
        <ele>1</ele>
        <time>2021-07-20T09:52:25Z</time>
      </trkpt>
      <trkpt lat="43.15233" lon="3.15974">
        <ele>1</ele>
        <time>2021-07-20T09:52:26Z</time>
      </trkpt>
      <trkpt lat="43.15234" lon="3.15972">
        <ele>1</ele>
        <time>2021-07-20T09:52:27Z</time>
      </trkpt>
      <trkpt lat="43.15237" lon="3.1597">
        <ele>1</ele>
        <time>2021-07-20T09:52:28Z</time>
      </trkpt>
      <trkpt lat="43.15239" lon="3.15969">
        <ele>1</ele>
        <time>2021-07-20T09:52:29Z</time>
      </trkpt>
      <trkpt lat="43.15242" lon="3.15967">
        <ele>1</ele>
        <time>2021-07-20T09:52:30Z</time>
      </trkpt>
      <trkpt lat="43.15244" lon="3.15966">
        <ele>-4.546411</ele>
        <time>2021-07-20T09:52:31Z</time>
      </trkpt>
      <trkpt lat="43.15247" lon="3.15964">
        <ele>1</ele>
        <time>2021-07-20T09:52:32Z</time>
      </trkpt>
      <trkpt lat="43.15249" lon="3.15962">
        <ele>1</ele>
        <time>2021-07-20T09:52:33Z</time>
      </trkpt>
      <trkpt lat="43.15252" lon="3.1596">
        <ele>1</ele>
        <time>2021-07-20T09:52:34Z</time>
      </trkpt>
      <trkpt lat="43.15254" lon="3.15958">
        <ele>1</ele>
        <time>2021-07-20T09:52:35Z</time>
      </trkpt>
      <trkpt lat="43.15257" lon="3.15957">
        <ele>1</ele>
        <time>2021-07-20T09:52:36Z</time>
      </trkpt>
      <trkpt lat="43.15259" lon="3.15955">
        <ele>1</ele>
        <time>2021-07-20T09:52:37Z</time>
      </trkpt>
      <trkpt lat="43.15262" lon="3.15953">
        <ele>1</ele>
        <time>2021-07-20T09:52:38Z</time>
      </trkpt>
      <trkpt lat="43.15264" lon="3.15951">
        <ele>1</ele>
        <time>2021-07-20T09:52:39Z</time>
      </trkpt>
      <trkpt lat="43.15266" lon="3.15949">
        <ele>1</ele>
        <time>2021-07-20T09:52:40Z</time>
      </trkpt>
      <trkpt lat="43.15268" lon="3.15948">
        <ele>1</ele>
        <time>2021-07-20T09:52:41Z</time>
      </trkpt>
      <trkpt lat="43.15271" lon="3.15946">
        <ele>-4.5298123</ele>
        <time>2021-07-20T09:52:42Z</time>
      </trkpt>
      <trkpt lat="43.15273" lon="3.15945">
        <ele>1</ele>
        <time>2021-07-20T09:52:43Z</time>
      </trkpt>
      <trkpt lat="43.15276" lon="3.15943">
        <ele>1</ele>
        <time>2021-07-20T09:52:44Z</time>
      </trkpt>
      <trkpt lat="43.15278" lon="3.15942">
        <ele>1</ele>
        <time>2021-07-20T09:52:45Z</time>
      </trkpt>
      <trkpt lat="43.1528" lon="3.1594">
        <ele>1</ele>
        <time>2021-07-20T09:52:46Z</time>
      </trkpt>
      <trkpt lat="43.15283" lon="3.15939">
        <ele>1</ele>
        <time>2021-07-20T09:52:47Z</time>
      </trkpt>
      <trkpt lat="43.15285" lon="3.15938">
        <ele>1</ele>
        <time>2021-07-20T09:52:48Z</time>
      </trkpt>
      <trkpt lat="43.15287" lon="3.15936">
        <ele>1</ele>
        <time>2021-07-20T09:52:49Z</time>
      </trkpt>
      <trkpt lat="43.1529" lon="3.15934">
        <ele>1</ele>
        <time>2021-07-20T09:52:50Z</time>
      </trkpt>
      <trkpt lat="43.15292" lon="3.15933">
        <ele>1</ele>
        <time>2021-07-20T09:52:51Z</time>
      </trkpt>
      <trkpt lat="43.15295" lon="3.15932">
        <ele>-4.630442</ele>
        <time>2021-07-20T09:52:52Z</time>
      </trkpt>
      <trkpt lat="43.15297" lon="3.15931">
        <ele>1</ele>
        <time>2021-07-20T09:52:53Z</time>
      </trkpt>
      <trkpt lat="43.15298" lon="3.1593">
        <ele>1</ele>
        <time>2021-07-20T09:52:54Z</time>
      </trkpt>
      <trkpt lat="43.153" lon="3.15929">
        <ele>1</ele>
        <time>2021-07-20T09:52:55Z</time>
      </trkpt>
      <trkpt lat="43.15302" lon="3.15927">
        <ele>1</ele>
        <time>2021-07-20T09:52:56Z</time>
      </trkpt>
      <trkpt lat="43.15304" lon="3.15925">
        <ele>1</ele>
        <time>2021-07-20T09:52:57Z</time>
      </trkpt>
      <trkpt lat="43.15305" lon="3.15923">
        <ele>1</ele>
        <time>2021-07-20T09:52:58Z</time>
      </trkpt>
      <trkpt lat="43.15307" lon="3.15922">
        <ele>1</ele>
        <time>2021-07-20T09:52:59Z</time>
      </trkpt>
      <trkpt lat="43.15308" lon="3.1592">
        <ele>1</ele>
        <time>2021-07-20T09:53:00Z</time>
      </trkpt>
      <trkpt lat="43.1531" lon="3.15918">
        <ele>1</ele>
        <time>2021-07-20T09:53:01Z</time>
      </trkpt>
      <trkpt lat="43.15311" lon="3.15916">
        <ele>-4.531887</ele>
        <time>2021-07-20T09:53:02Z</time>
      </trkpt>
      <trkpt lat="43.15313" lon="3.15914">
        <ele>2</ele>
        <time>2021-07-20T09:53:03Z</time>
      </trkpt>
      <trkpt lat="43.15313" lon="3.15911">
        <ele>2.1</ele>
        <time>2021-07-20T09:53:04Z</time>
      </trkpt>
      <trkpt lat="43.15312" lon="3.15908">
        <ele>2.1</ele>
        <time>2021-07-20T09:53:05Z</time>
      </trkpt>
      <trkpt lat="43.15311" lon="3.15905">
        <ele>2.1</ele>
        <time>2021-07-20T09:53:06Z</time>
      </trkpt>
      <trkpt lat="43.15311" lon="3.15902">
        <ele>2.1</ele>
        <time>2021-07-20T09:53:07Z</time>
      </trkpt>
      <trkpt lat="43.15312" lon="3.15899">
        <ele>2.1</ele>
        <time>2021-07-20T09:53:08Z</time>
      </trkpt>
      <trkpt lat="43.15312" lon="3.15895">
        <ele>2.2</ele>
        <time>2021-07-20T09:53:09Z</time>
      </trkpt>
      <trkpt lat="43.15311" lon="3.15892">
        <ele>2.2</ele>
        <time>2021-07-20T09:53:10Z</time>
      </trkpt>
      <trkpt lat="43.15311" lon="3.15888">
        <ele>2.2</ele>
        <time>2021-07-20T09:53:11Z</time>
      </trkpt>
      <trkpt lat="43.15311" lon="3.15884">
        <ele>-4.0048676</ele>
        <time>2021-07-20T09:53:12Z</time>
      </trkpt>
      <trkpt lat="43.1531" lon="3.15881">
        <ele>2.1</ele>
        <time>2021-07-20T09:53:13Z</time>
      </trkpt>
      <trkpt lat="43.15308" lon="3.15877">
        <ele>2.1</ele>
        <time>2021-07-20T09:53:14Z</time>
      </trkpt>
      <trkpt lat="43.15307" lon="3.15874">
        <ele>2</ele>
        <time>2021-07-20T09:53:15Z</time>
      </trkpt>
      <trkpt lat="43.15304" lon="3.1587">
        <ele>2</ele>
        <time>2021-07-20T09:53:16Z</time>
      </trkpt>
      <trkpt lat="43.15302" lon="3.15867">
        <ele>2</ele>
        <time>2021-07-20T09:53:17Z</time>
      </trkpt>
      <trkpt lat="43.153" lon="3.15864">
        <ele>2</ele>
        <time>2021-07-20T09:53:18Z</time>
      </trkpt>
      <trkpt lat="43.15298" lon="3.1586">
        <ele>2</ele>
        <time>2021-07-20T09:53:19Z</time>
      </trkpt>
      <trkpt lat="43.15296" lon="3.15857">
        <ele>2.1</ele>
        <time>2021-07-20T09:53:20Z</time>
      </trkpt>
      <trkpt lat="43.15294" lon="3.15854">
        <ele>2.1</ele>
        <time>2021-07-20T09:53:21Z</time>
      </trkpt>
      <trkpt lat="43.15292" lon="3.1585">
        <ele>-3.2900527</ele>
        <time>2021-07-20T09:53:22Z</time>
      </trkpt>
      <trkpt lat="43.15289" lon="3.15846">
        <ele>2.3</ele>
        <time>2021-07-20T09:53:23Z</time>
      </trkpt>
      <trkpt lat="43.15287" lon="3.15843">
        <ele>2.4</ele>
        <time>2021-07-20T09:53:24Z</time>
      </trkpt>
      <trkpt lat="43.15286" lon="3.1584">
        <ele>2.5</ele>
        <time>2021-07-20T09:53:25Z</time>
      </trkpt>
      <trkpt lat="43.15284" lon="3.15837">
        <ele>2.7</ele>
        <time>2021-07-20T09:53:26Z</time>
      </trkpt>
      <trkpt lat="43.15281" lon="3.15834">
        <ele>2.9</ele>
        <time>2021-07-20T09:53:27Z</time>
      </trkpt>
      <trkpt lat="43.15279" lon="3.15831">
        <ele>3</ele>
        <time>2021-07-20T09:53:28Z</time>
      </trkpt>
      <trkpt lat="43.15276" lon="3.15828">
        <ele>2.9</ele>
        <time>2021-07-20T09:53:29Z</time>
      </trkpt>
      <trkpt lat="43.15274" lon="3.15825">
        <ele>2.9</ele>
        <time>2021-07-20T09:53:30Z</time>
      </trkpt>
      <trkpt lat="43.15271" lon="3.15823">
        <ele>2.8</ele>
        <time>2021-07-20T09:53:31Z</time>
      </trkpt>
      <trkpt lat="43.15268" lon="3.15821">
        <ele>-2.954943</ele>
        <time>2021-07-20T09:53:32Z</time>
      </trkpt>
      <trkpt lat="43.15265" lon="3.15819">
        <ele>2.5</ele>
        <time>2021-07-20T09:53:33Z</time>
      </trkpt>
      <trkpt lat="43.15261" lon="3.15818">
        <ele>2.4</ele>
        <time>2021-07-20T09:53:34Z</time>
      </trkpt>
      <trkpt lat="43.15258" lon="3.15817">
        <ele>2.3</ele>
        <time>2021-07-20T09:53:35Z</time>
      </trkpt>
      <trkpt lat="43.15255" lon="3.15817">
        <ele>2.2</ele>
        <time>2021-07-20T09:53:36Z</time>
      </trkpt>
      <trkpt lat="43.15251" lon="3.15817">
        <ele>2</ele>
        <time>2021-07-20T09:53:37Z</time>
      </trkpt>
      <trkpt lat="43.15249" lon="3.15817">
        <ele>1</ele>
        <time>2021-07-20T09:53:38Z</time>
      </trkpt>
      <trkpt lat="43.15246" lon="3.15817">
        <ele>1</ele>
        <time>2021-07-20T09:53:39Z</time>
      </trkpt>
      <trkpt lat="43.15243" lon="3.15817">
        <ele>1</ele>
        <time>2021-07-20T09:53:40Z</time>
      </trkpt>
      <trkpt lat="43.15241" lon="3.15817">
        <ele>-2.6893418</ele>
        <time>2021-07-20T09:53:41Z</time>
      </trkpt>
      <trkpt lat="43.15238" lon="3.15817">
        <ele>1</ele>
        <time>2021-07-20T09:53:42Z</time>
      </trkpt>
      <trkpt lat="43.15234" lon="3.15818">
        <ele>1</ele>
        <time>2021-07-20T09:53:43Z</time>
      </trkpt>
      <trkpt lat="43.15231" lon="3.15818">
        <ele>1</ele>
        <time>2021-07-20T09:53:44Z</time>
      </trkpt>
      <trkpt lat="43.15227" lon="3.15817">
        <ele>1</ele>
        <time>2021-07-20T09:53:45Z</time>
      </trkpt>
      <trkpt lat="43.15223" lon="3.15815">
        <ele>1</ele>
        <time>2021-07-20T09:53:46Z</time>
      </trkpt>
      <trkpt lat="43.1522" lon="3.15814">
        <ele>1</ele>
        <time>2021-07-20T09:53:47Z</time>
      </trkpt>
      <trkpt lat="43.15215" lon="3.15814">
        <ele>1</ele>
        <time>2021-07-20T09:53:48Z</time>
      </trkpt>
      <trkpt lat="43.15212" lon="3.15813">
        <ele>1</ele>
        <time>2021-07-20T09:53:49Z</time>
      </trkpt>
      <trkpt lat="43.15207" lon="3.15812">
        <ele>1</ele>
        <time>2021-07-20T09:53:50Z</time>
      </trkpt>
      <trkpt lat="43.15203" lon="3.1581">
        <ele>-2.6914167</ele>
        <time>2021-07-20T09:53:51Z</time>
      </trkpt>
      <trkpt lat="43.15199" lon="3.15809">
        <ele>1</ele>
        <time>2021-07-20T09:53:52Z</time>
      </trkpt>
      <trkpt lat="43.15195" lon="3.15808">
        <ele>1</ele>
        <time>2021-07-20T09:53:53Z</time>
      </trkpt>
      <trkpt lat="43.15191" lon="3.15807">
        <ele>1</ele>
        <time>2021-07-20T09:53:54Z</time>
      </trkpt>
      <trkpt lat="43.15186" lon="3.15806">
        <ele>1</ele>
        <time>2021-07-20T09:53:55Z</time>
      </trkpt>
      <trkpt lat="43.15182" lon="3.15805">
        <ele>1</ele>
        <time>2021-07-20T09:53:56Z</time>
      </trkpt>
      <trkpt lat="43.15178" lon="3.15805">
        <ele>1</ele>
        <time>2021-07-20T09:53:57Z</time>
      </trkpt>
      <trkpt lat="43.15174" lon="3.15804">
        <ele>1</ele>
        <time>2021-07-20T09:53:58Z</time>
      </trkpt>
      <trkpt lat="43.1517" lon="3.15803">
        <ele>1</ele>
        <time>2021-07-20T09:53:59Z</time>
      </trkpt>
      <trkpt lat="43.15166" lon="3.15802">
        <ele>1</ele>
        <time>2021-07-20T09:54:00Z</time>
      </trkpt>
      <trkpt lat="43.15162" lon="3.158">
        <ele>-2.4673133</ele>
        <time>2021-07-20T09:54:01Z</time>
      </trkpt>
      <trkpt lat="43.15158" lon="3.15799">
        <ele>1</ele>
        <time>2021-07-20T09:54:02Z</time>
      </trkpt>
      <trkpt lat="43.15154" lon="3.15797">
        <ele>1</ele>
        <time>2021-07-20T09:54:03Z</time>
      </trkpt>
      <trkpt lat="43.15151" lon="3.15796">
        <ele>1</ele>
        <time>2021-07-20T09:54:04Z</time>
      </trkpt>
      <trkpt lat="43.15146" lon="3.15795">
        <ele>1</ele>
        <time>2021-07-20T09:54:05Z</time>
      </trkpt>
      <trkpt lat="43.15142" lon="3.15793">
        <ele>1</ele>
        <time>2021-07-20T09:54:06Z</time>
      </trkpt>
      <trkpt lat="43.15138" lon="3.15792">
        <ele>1</ele>
        <time>2021-07-20T09:54:07Z</time>
      </trkpt>
      <trkpt lat="43.15133" lon="3.1579">
        <ele>1</ele>
        <time>2021-07-20T09:54:08Z</time>
      </trkpt>
      <trkpt lat="43.15129" lon="3.15788">
        <ele>1</ele>
        <time>2021-07-20T09:54:09Z</time>
      </trkpt>
      <trkpt lat="43.15124" lon="3.15786">
        <ele>1</ele>
        <time>2021-07-20T09:54:10Z</time>
      </trkpt>
      <trkpt lat="43.1512" lon="3.15783">
        <ele>-2.8501554</ele>
        <time>2021-07-20T09:54:11Z</time>
      </trkpt>
      <trkpt lat="43.15115" lon="3.15781">
        <ele>1</ele>
        <time>2021-07-20T09:54:12Z</time>
      </trkpt>
      <trkpt lat="43.1511" lon="3.15779">
        <ele>1</ele>
        <time>2021-07-20T09:54:13Z</time>
      </trkpt>
      <trkpt lat="43.15105" lon="3.15776">
        <ele>1</ele>
        <time>2021-07-20T09:54:14Z</time>
      </trkpt>
      <trkpt lat="43.15101" lon="3.15774">
        <ele>1</ele>
        <time>2021-07-20T09:54:15Z</time>
      </trkpt>
      <trkpt lat="43.15096" lon="3.15771">
        <ele>1</ele>
        <time>2021-07-20T09:54:16Z</time>
      </trkpt>
      <trkpt lat="43.15091" lon="3.15769">
        <ele>1</ele>
        <time>2021-07-20T09:54:17Z</time>
      </trkpt>
      <trkpt lat="43.15086" lon="3.15765">
        <ele>1</ele>
        <time>2021-07-20T09:54:18Z</time>
      </trkpt>
      <trkpt lat="43.15081" lon="3.15762">
        <ele>1.1</ele>
        <time>2021-07-20T09:54:19Z</time>
      </trkpt>
      <trkpt lat="43.15076" lon="3.15759">
        <ele>1.1</ele>
        <time>2021-07-20T09:54:20Z</time>
      </trkpt>
      <trkpt lat="43.15071" lon="3.15755">
        <ele>1.1</ele>
        <time>2021-07-20T09:54:21Z</time>
      </trkpt>
      <trkpt lat="43.15065" lon="3.15752">
        <ele>-2.7194295</ele>
        <time>2021-07-20T09:54:22Z</time>
      </trkpt>
      <trkpt lat="43.1506" lon="3.15748">
        <ele>1</ele>
        <time>2021-07-20T09:54:23Z</time>
      </trkpt>
      <trkpt lat="43.15056" lon="3.15744">
        <ele>1</ele>
        <time>2021-07-20T09:54:24Z</time>
      </trkpt>
      <trkpt lat="43.15051" lon="3.1574">
        <ele>1</ele>
        <time>2021-07-20T09:54:25Z</time>
      </trkpt>
      <trkpt lat="43.15046" lon="3.15737">
        <ele>1.1</ele>
        <time>2021-07-20T09:54:26Z</time>
      </trkpt>
      <trkpt lat="43.15041" lon="3.15732">
        <ele>1.1</ele>
        <time>2021-07-20T09:54:27Z</time>
      </trkpt>
      <trkpt lat="43.15035" lon="3.15728">
        <ele>1.2</ele>
        <time>2021-07-20T09:54:28Z</time>
      </trkpt>
      <trkpt lat="43.1503" lon="3.15723">
        <ele>1.2</ele>
        <time>2021-07-20T09:54:29Z</time>
      </trkpt>
      <trkpt lat="43.15025" lon="3.15719">
        <ele>1.3</ele>
        <time>2021-07-20T09:54:30Z</time>
      </trkpt>
      <trkpt lat="43.1502" lon="3.15714">
        <ele>1.3</ele>
        <time>2021-07-20T09:54:31Z</time>
      </trkpt>
      <trkpt lat="43.15015" lon="3.15709">
        <ele>-2.4776886</ele>
        <time>2021-07-20T09:54:32Z</time>
      </trkpt>
      <trkpt lat="43.15011" lon="3.15704">
        <ele>1.5</ele>
        <time>2021-07-20T09:54:33Z</time>
      </trkpt>
      <trkpt lat="43.15006" lon="3.15699">
        <ele>1.6</ele>
        <time>2021-07-20T09:54:34Z</time>
      </trkpt>
      <trkpt lat="43.15001" lon="3.15694">
        <ele>1.7</ele>
        <time>2021-07-20T09:54:35Z</time>
      </trkpt>
      <trkpt lat="43.14996" lon="3.15688">
        <ele>1.8</ele>
        <time>2021-07-20T09:54:36Z</time>
      </trkpt>
      <trkpt lat="43.14992" lon="3.15683">
        <ele>1.8</ele>
        <time>2021-07-20T09:54:37Z</time>
      </trkpt>
      <trkpt lat="43.14987" lon="3.15677">
        <ele>1.9</ele>
        <time>2021-07-20T09:54:38Z</time>
      </trkpt>
      <trkpt lat="43.14983" lon="3.15671">
        <ele>2</ele>
        <time>2021-07-20T09:54:39Z</time>
      </trkpt>
      <trkpt lat="43.14978" lon="3.15665">
        <ele>2</ele>
        <time>2021-07-20T09:54:40Z</time>
      </trkpt>
      <trkpt lat="43.14973" lon="3.15659">
        <ele>2</ele>
        <time>2021-07-20T09:54:41Z</time>
      </trkpt>
      <trkpt lat="43.14969" lon="3.15653">
        <ele>-2.7069793</ele>
        <time>2021-07-20T09:54:42Z</time>
      </trkpt>
      <trkpt lat="43.14964" lon="3.15647">
        <ele>1.9</ele>
        <time>2021-07-20T09:54:43Z</time>
      </trkpt>
      <trkpt lat="43.1496" lon="3.1564">
        <ele>1.8</ele>
        <time>2021-07-20T09:54:44Z</time>
      </trkpt>
      <trkpt lat="43.14956" lon="3.15634">
        <ele>1.8</ele>
        <time>2021-07-20T09:54:45Z</time>
      </trkpt>
      <trkpt lat="43.14951" lon="3.15627">
        <ele>1.7</ele>
        <time>2021-07-20T09:54:46Z</time>
      </trkpt>
      <trkpt lat="43.14947" lon="3.1562">
        <ele>1.6</ele>
        <time>2021-07-20T09:54:47Z</time>
      </trkpt>
      <trkpt lat="43.14943" lon="3.15614">
        <ele>1.6</ele>
        <time>2021-07-20T09:54:48Z</time>
      </trkpt>
      <trkpt lat="43.14938" lon="3.15606">
        <ele>1.5</ele>
        <time>2021-07-20T09:54:49Z</time>
      </trkpt>
      <trkpt lat="43.14934" lon="3.15599">
        <ele>1.4</ele>
        <time>2021-07-20T09:54:50Z</time>
      </trkpt>
      <trkpt lat="43.1493" lon="3.15592">
        <ele>1.2</ele>
        <time>2021-07-20T09:54:51Z</time>
      </trkpt>
      <trkpt lat="43.14926" lon="3.15585">
        <ele>-2.2411327</ele>
        <time>2021-07-20T09:54:52Z</time>
      </trkpt>
      <trkpt lat="43.14922" lon="3.15578">
        <ele>1.1</ele>
        <time>2021-07-20T09:54:53Z</time>
      </trkpt>
      <trkpt lat="43.14917" lon="3.15571">
        <ele>1.2</ele>
        <time>2021-07-20T09:54:54Z</time>
      </trkpt>
      <trkpt lat="43.14913" lon="3.15563">
        <ele>1.1</ele>
        <time>2021-07-20T09:54:55Z</time>
      </trkpt>
      <trkpt lat="43.14909" lon="3.15556">
        <ele>1.2</ele>
        <time>2021-07-20T09:54:56Z</time>
      </trkpt>
      <trkpt lat="43.14905" lon="3.15549">
        <ele>1.3</ele>
        <time>2021-07-20T09:54:57Z</time>
      </trkpt>
      <trkpt lat="43.149" lon="3.15543">
        <ele>1.3</ele>
        <time>2021-07-20T09:54:58Z</time>
      </trkpt>
      <trkpt lat="43.14895" lon="3.15536">
        <ele>1.3</ele>
        <time>2021-07-20T09:54:59Z</time>
      </trkpt>
      <trkpt lat="43.14891" lon="3.1553">
        <ele>1.3</ele>
        <time>2021-07-20T09:55:00Z</time>
      </trkpt>
      <trkpt lat="43.14887" lon="3.15524">
        <ele>1.3</ele>
        <time>2021-07-20T09:55:01Z</time>
      </trkpt>
      <trkpt lat="43.14882" lon="3.15517">
        <ele>-2.4040244</ele>
        <time>2021-07-20T09:55:02Z</time>
      </trkpt>
      <trkpt lat="43.14879" lon="3.1551">
        <ele>1.2</ele>
        <time>2021-07-20T09:55:03Z</time>
      </trkpt>
      <trkpt lat="43.14876" lon="3.15503">
        <ele>1</ele>
        <time>2021-07-20T09:55:04Z</time>
      </trkpt>
      <trkpt lat="43.14873" lon="3.15495">
        <ele>1</ele>
        <time>2021-07-20T09:55:05Z</time>
      </trkpt>
      <trkpt lat="43.14869" lon="3.15487">
        <ele>1.1</ele>
        <time>2021-07-20T09:55:06Z</time>
      </trkpt>
      <trkpt lat="43.14864" lon="3.1548">
        <ele>1.1</ele>
        <time>2021-07-20T09:55:07Z</time>
      </trkpt>
      <trkpt lat="43.1486" lon="3.15473">
        <ele>1.1</ele>
        <time>2021-07-20T09:55:08Z</time>
      </trkpt>
      <trkpt lat="43.14856" lon="3.15465">
        <ele>1.1</ele>
        <time>2021-07-20T09:55:09Z</time>
      </trkpt>
      <trkpt lat="43.14852" lon="3.15458">
        <ele>1.1</ele>
        <time>2021-07-20T09:55:10Z</time>
      </trkpt>
      <trkpt lat="43.14848" lon="3.15451">
        <ele>1.1</ele>
        <time>2021-07-20T09:55:11Z</time>
      </trkpt>
      <trkpt lat="43.14844" lon="3.15444">
        <ele>-1.9765608</ele>
        <time>2021-07-20T09:55:12Z</time>
      </trkpt>
      <trkpt lat="43.1484" lon="3.15437">
        <ele>1.1</ele>
        <time>2021-07-20T09:55:13Z</time>
      </trkpt>
      <trkpt lat="43.14836" lon="3.1543">
        <ele>1</ele>
        <time>2021-07-20T09:55:14Z</time>
      </trkpt>
      <trkpt lat="43.14832" lon="3.15423">
        <ele>1</ele>
        <time>2021-07-20T09:55:15Z</time>
      </trkpt>
      <trkpt lat="43.14827" lon="3.15417">
        <ele>1.1</ele>
        <time>2021-07-20T09:55:16Z</time>
      </trkpt>
      <trkpt lat="43.14824" lon="3.1541">
        <ele>1.1</ele>
        <time>2021-07-20T09:55:17Z</time>
      </trkpt>
      <trkpt lat="43.14819" lon="3.15403">
        <ele>1.2</ele>
        <time>2021-07-20T09:55:18Z</time>
      </trkpt>
      <trkpt lat="43.14816" lon="3.15397">
        <ele>1.2</ele>
        <time>2021-07-20T09:55:19Z</time>
      </trkpt>
      <trkpt lat="43.14811" lon="3.1539">
        <ele>1.3</ele>
        <time>2021-07-20T09:55:20Z</time>
      </trkpt>
      <trkpt lat="43.14807" lon="3.15384">
        <ele>-2.009762</ele>
        <time>2021-07-20T09:55:21Z</time>
      </trkpt>
      <trkpt lat="43.14803" lon="3.15377">
        <ele>1.4</ele>
        <time>2021-07-20T09:55:22Z</time>
      </trkpt>
      <trkpt lat="43.14799" lon="3.15371">
        <ele>1.4</ele>
        <time>2021-07-20T09:55:23Z</time>
      </trkpt>
      <trkpt lat="43.14795" lon="3.15365">
        <ele>1.5</ele>
        <time>2021-07-20T09:55:24Z</time>
      </trkpt>
      <trkpt lat="43.14792" lon="3.15359">
        <ele>1.5</ele>
        <time>2021-07-20T09:55:25Z</time>
      </trkpt>
      <trkpt lat="43.14788" lon="3.15353">
        <ele>1.5</ele>
        <time>2021-07-20T09:55:26Z</time>
      </trkpt>
      <trkpt lat="43.14785" lon="3.15348">
        <ele>1.6</ele>
        <time>2021-07-20T09:55:27Z</time>
      </trkpt>
      <trkpt lat="43.14781" lon="3.15343">
        <ele>1.6</ele>
        <time>2021-07-20T09:55:28Z</time>
      </trkpt>
      <trkpt lat="43.14777" lon="3.15339">
        <ele>1.7</ele>
        <time>2021-07-20T09:55:29Z</time>
      </trkpt>
      <trkpt lat="43.14773" lon="3.15336">
        <ele>1.7</ele>
        <time>2021-07-20T09:55:30Z</time>
      </trkpt>
      <trkpt lat="43.1477" lon="3.15332">
        <ele>-2.9352305</ele>
        <time>2021-07-20T09:55:31Z</time>
      </trkpt>
      <trkpt lat="43.14767" lon="3.15328">
        <ele>1.8</ele>
        <time>2021-07-20T09:55:32Z</time>
      </trkpt>
      <trkpt lat="43.14765" lon="3.15323">
        <ele>1.8</ele>
        <time>2021-07-20T09:55:33Z</time>
      </trkpt>
      <trkpt lat="43.14763" lon="3.15317">
        <ele>1.8</ele>
        <time>2021-07-20T09:55:34Z</time>
      </trkpt>
      <trkpt lat="43.14762" lon="3.15312">
        <ele>1.9</ele>
        <time>2021-07-20T09:55:35Z</time>
      </trkpt>
      <trkpt lat="43.14759" lon="3.15307">
        <ele>1.9</ele>
        <time>2021-07-20T09:55:36Z</time>
      </trkpt>
      <trkpt lat="43.14757" lon="3.15301">
        <ele>1.9</ele>
        <time>2021-07-20T09:55:37Z</time>
      </trkpt>
      <trkpt lat="43.14754" lon="3.15296">
        <ele>2</ele>
        <time>2021-07-20T09:55:38Z</time>
      </trkpt>
      <trkpt lat="43.14751" lon="3.15291">
        <ele>2</ele>
        <time>2021-07-20T09:55:39Z</time>
      </trkpt>
      <trkpt lat="43.14748" lon="3.15286">
        <ele>2</ele>
        <time>2021-07-20T09:55:40Z</time>
      </trkpt>
      <trkpt lat="43.14745" lon="3.1528">
        <ele>-3.5058482</ele>
        <time>2021-07-20T09:55:41Z</time>
      </trkpt>
      <trkpt lat="43.14742" lon="3.15275">
        <ele>2.1</ele>
        <time>2021-07-20T09:55:42Z</time>
      </trkpt>
      <trkpt lat="43.14738" lon="3.15269">
        <ele>2.1</ele>
        <time>2021-07-20T09:55:43Z</time>
      </trkpt>
      <trkpt lat="43.14735" lon="3.15263">
        <ele>2.2</ele>
        <time>2021-07-20T09:55:44Z</time>
      </trkpt>
      <trkpt lat="43.14732" lon="3.15257">
        <ele>2.2</ele>
        <time>2021-07-20T09:55:45Z</time>
      </trkpt>
      <trkpt lat="43.14728" lon="3.15251">
        <ele>2.3</ele>
        <time>2021-07-20T09:55:46Z</time>
      </trkpt>
      <trkpt lat="43.14725" lon="3.15245">
        <ele>2.3</ele>
        <time>2021-07-20T09:55:47Z</time>
      </trkpt>
      <trkpt lat="43.14721" lon="3.15239">
        <ele>2.3</ele>
        <time>2021-07-20T09:55:48Z</time>
      </trkpt>
      <trkpt lat="43.14718" lon="3.15233">
        <ele>2.3</ele>
        <time>2021-07-20T09:55:49Z</time>
      </trkpt>
      <trkpt lat="43.14714" lon="3.15227">
        <ele>2.3</ele>
        <time>2021-07-20T09:55:50Z</time>
      </trkpt>
      <trkpt lat="43.14711" lon="3.1522">
        <ele>-2.5472023</ele>
        <time>2021-07-20T09:55:51Z</time>
      </trkpt>
      <trkpt lat="43.14707" lon="3.15214">
        <ele>2.3</ele>
        <time>2021-07-20T09:55:52Z</time>
      </trkpt>
      <trkpt lat="43.14704" lon="3.15207">
        <ele>2.3</ele>
        <time>2021-07-20T09:55:53Z</time>
      </trkpt>
      <trkpt lat="43.147" lon="3.15201">
        <ele>2.2</ele>
        <time>2021-07-20T09:55:54Z</time>
      </trkpt>
      <trkpt lat="43.14697" lon="3.15194">
        <ele>2.2</ele>
        <time>2021-07-20T09:55:55Z</time>
      </trkpt>
      <trkpt lat="43.14693" lon="3.15187">
        <ele>2.2</ele>
        <time>2021-07-20T09:55:56Z</time>
      </trkpt>
      <trkpt lat="43.14689" lon="3.1518">
        <ele>2.1</ele>
        <time>2021-07-20T09:55:57Z</time>
      </trkpt>
      <trkpt lat="43.14685" lon="3.15174">
        <ele>2.1</ele>
        <time>2021-07-20T09:55:58Z</time>
      </trkpt>
      <trkpt lat="43.14682" lon="3.15167">
        <ele>2</ele>
        <time>2021-07-20T09:55:59Z</time>
      </trkpt>
      <trkpt lat="43.14678" lon="3.1516">
        <ele>2</ele>
        <time>2021-07-20T09:56:00Z</time>
      </trkpt>
      <trkpt lat="43.14674" lon="3.15154">
        <ele>2</ele>
        <time>2021-07-20T09:56:01Z</time>
      </trkpt>
      <trkpt lat="43.1467" lon="3.15147">
        <ele>-2.8501554</ele>
        <time>2021-07-20T09:56:02Z</time>
      </trkpt>
      <trkpt lat="43.14666" lon="3.1514">
        <ele>2</ele>
        <time>2021-07-20T09:56:03Z</time>
      </trkpt>
      <trkpt lat="43.14663" lon="3.15133">
        <ele>2</ele>
        <time>2021-07-20T09:56:04Z</time>
      </trkpt>
      <trkpt lat="43.14659" lon="3.15126">
        <ele>2</ele>
        <time>2021-07-20T09:56:05Z</time>
      </trkpt>
      <trkpt lat="43.14655" lon="3.15119">
        <ele>1.9</ele>
        <time>2021-07-20T09:56:06Z</time>
      </trkpt>
      <trkpt lat="43.14652" lon="3.15112">
        <ele>1.9</ele>
        <time>2021-07-20T09:56:07Z</time>
      </trkpt>
      <trkpt lat="43.14648" lon="3.15105">
        <ele>1.8</ele>
        <time>2021-07-20T09:56:08Z</time>
      </trkpt>
      <trkpt lat="43.14644" lon="3.15099">
        <ele>1.8</ele>
        <time>2021-07-20T09:56:09Z</time>
      </trkpt>
      <trkpt lat="43.1464" lon="3.15091">
        <ele>1.7</ele>
        <time>2021-07-20T09:56:10Z</time>
      </trkpt>
      <trkpt lat="43.14636" lon="3.15084">
        <ele>1.6</ele>
        <time>2021-07-20T09:56:11Z</time>
      </trkpt>
      <trkpt lat="43.14632" lon="3.15077">
        <ele>-3.682218</ele>
        <time>2021-07-20T09:56:12Z</time>
      </trkpt>
      <trkpt lat="43.14629" lon="3.1507">
        <ele>1.5</ele>
        <time>2021-07-20T09:56:13Z</time>
      </trkpt>
      <trkpt lat="43.14625" lon="3.15062">
        <ele>1.5</ele>
        <time>2021-07-20T09:56:14Z</time>
      </trkpt>
      <trkpt lat="43.14622" lon="3.15055">
        <ele>1.5</ele>
        <time>2021-07-20T09:56:15Z</time>
      </trkpt>
      <trkpt lat="43.14618" lon="3.15047">
        <ele>1.4</ele>
        <time>2021-07-20T09:56:16Z</time>
      </trkpt>
      <trkpt lat="43.14615" lon="3.1504">
        <ele>1.4</ele>
        <time>2021-07-20T09:56:17Z</time>
      </trkpt>
      <trkpt lat="43.14611" lon="3.15032">
        <ele>1.3</ele>
        <time>2021-07-20T09:56:18Z</time>
      </trkpt>
      <trkpt lat="43.14608" lon="3.15025">
        <ele>1.3</ele>
        <time>2021-07-20T09:56:19Z</time>
      </trkpt>
      <trkpt lat="43.14605" lon="3.15017">
        <ele>1.3</ele>
        <time>2021-07-20T09:56:20Z</time>
      </trkpt>
      <trkpt lat="43.14602" lon="3.15009">
        <ele>1.2</ele>
        <time>2021-07-20T09:56:21Z</time>
      </trkpt>
      <trkpt lat="43.14599" lon="3.15001">
        <ele>-4.6034694</ele>
        <time>2021-07-20T09:56:22Z</time>
      </trkpt>
      <trkpt lat="43.14596" lon="3.14993">
        <ele>1.1</ele>
        <time>2021-07-20T09:56:23Z</time>
      </trkpt>
      <trkpt lat="43.14593" lon="3.14985">
        <ele>1.1</ele>
        <time>2021-07-20T09:56:24Z</time>
      </trkpt>
      <trkpt lat="43.14591" lon="3.14976">
        <ele>1.1</ele>
        <time>2021-07-20T09:56:25Z</time>
      </trkpt>
      <trkpt lat="43.14588" lon="3.14968">
        <ele>1</ele>
        <time>2021-07-20T09:56:26Z</time>
      </trkpt>
      <trkpt lat="43.14586" lon="3.14959">
        <ele>1</ele>
        <time>2021-07-20T09:56:27Z</time>
      </trkpt>
      <trkpt lat="43.14583" lon="3.1495">
        <ele>1</ele>
        <time>2021-07-20T09:56:28Z</time>
      </trkpt>
      <trkpt lat="43.14581" lon="3.14942">
        <ele>1</ele>
        <time>2021-07-20T09:56:29Z</time>
      </trkpt>
      <trkpt lat="43.14579" lon="3.14933">
        <ele>1</ele>
        <time>2021-07-20T09:56:30Z</time>
      </trkpt>
      <trkpt lat="43.14576" lon="3.14923">
        <ele>1</ele>
        <time>2021-07-20T09:56:31Z</time>
      </trkpt>
      <trkpt lat="43.14574" lon="3.14914">
        <ele>-4.6013947</ele>
        <time>2021-07-20T09:56:32Z</time>
      </trkpt>
      <trkpt lat="43.14573" lon="3.14905">
        <ele>1</ele>
        <time>2021-07-20T09:56:33Z</time>
      </trkpt>
      <trkpt lat="43.14571" lon="3.14896">
        <ele>1</ele>
        <time>2021-07-20T09:56:34Z</time>
      </trkpt>
      <trkpt lat="43.14569" lon="3.14887">
        <ele>1</ele>
        <time>2021-07-20T09:56:35Z</time>
      </trkpt>
      <trkpt lat="43.14568" lon="3.14878">
        <ele>1</ele>
        <time>2021-07-20T09:56:36Z</time>
      </trkpt>
      <trkpt lat="43.14566" lon="3.14869">
        <ele>1</ele>
        <time>2021-07-20T09:56:37Z</time>
      </trkpt>
      <trkpt lat="43.14565" lon="3.1486">
        <ele>1</ele>
        <time>2021-07-20T09:56:38Z</time>
      </trkpt>
      <trkpt lat="43.14564" lon="3.1485">
        <ele>1</ele>
        <time>2021-07-20T09:56:39Z</time>
      </trkpt>
      <trkpt lat="43.14563" lon="3.14841">
        <ele>1</ele>
        <time>2021-07-20T09:56:40Z</time>
      </trkpt>
      <trkpt lat="43.14562" lon="3.14831">
        <ele>1</ele>
        <time>2021-07-20T09:56:41Z</time>
      </trkpt>
      <trkpt lat="43.14561" lon="3.14822">
        <ele>-4.2133946</ele>
        <time>2021-07-20T09:56:42Z</time>
      </trkpt>
      <trkpt lat="43.14561" lon="3.14813">
        <ele>1.2</ele>
        <time>2021-07-20T09:56:43Z</time>
      </trkpt>
      <trkpt lat="43.1456" lon="3.14803">
        <ele>1.3</ele>
        <time>2021-07-20T09:56:44Z</time>
      </trkpt>
      <trkpt lat="43.1456" lon="3.14794">
        <ele>1.3</ele>
        <time>2021-07-20T09:56:45Z</time>
      </trkpt>
      <trkpt lat="43.14559" lon="3.14785">
        <ele>1.4</ele>
        <time>2021-07-20T09:56:46Z</time>
      </trkpt>
      <trkpt lat="43.14559" lon="3.14776">
        <ele>1.5</ele>
        <time>2021-07-20T09:56:47Z</time>
      </trkpt>
      <trkpt lat="43.14558" lon="3.14766">
        <ele>1.6</ele>
        <time>2021-07-20T09:56:48Z</time>
      </trkpt>
      <trkpt lat="43.14558" lon="3.14757">
        <ele>1.6</ele>
        <time>2021-07-20T09:56:49Z</time>
      </trkpt>
      <trkpt lat="43.14558" lon="3.14748">
        <ele>1.7</ele>
        <time>2021-07-20T09:56:50Z</time>
      </trkpt>
      <trkpt lat="43.14557" lon="3.14739">
        <ele>1.9</ele>
        <time>2021-07-20T09:56:51Z</time>
      </trkpt>
      <trkpt lat="43.14557" lon="3.1473">
        <ele>-3.968557</ele>
        <time>2021-07-20T09:56:52Z</time>
      </trkpt>
      <trkpt lat="43.14555" lon="3.14721">
        <ele>2.1</ele>
        <time>2021-07-20T09:56:53Z</time>
      </trkpt>
      <trkpt lat="43.14554" lon="3.14712">
        <ele>2.2</ele>
        <time>2021-07-20T09:56:54Z</time>
      </trkpt>
      <trkpt lat="43.14553" lon="3.14704">
        <ele>2.3</ele>
        <time>2021-07-20T09:56:55Z</time>
      </trkpt>
      <trkpt lat="43.14552" lon="3.14697">
        <ele>2.4</ele>
        <time>2021-07-20T09:56:56Z</time>
      </trkpt>
      <trkpt lat="43.14553" lon="3.14689">
        <ele>2.6</ele>
        <time>2021-07-20T09:56:57Z</time>
      </trkpt>
      <trkpt lat="43.14553" lon="3.14681">
        <ele>2.7</ele>
        <time>2021-07-20T09:56:58Z</time>
      </trkpt>
      <trkpt lat="43.14554" lon="3.14673">
        <ele>2.8</ele>
        <time>2021-07-20T09:56:59Z</time>
      </trkpt>
      <trkpt lat="43.14554" lon="3.14665">
        <ele>2.9</ele>
        <time>2021-07-20T09:57:00Z</time>
      </trkpt>
      <trkpt lat="43.14554" lon="3.14656">
        <ele>-2.816955</ele>
        <time>2021-07-20T09:57:01Z</time>
      </trkpt>
      <trkpt lat="43.14553" lon="3.14647">
        <ele>2.6</ele>
        <time>2021-07-20T09:57:02Z</time>
      </trkpt>
      <trkpt lat="43.14552" lon="3.14638">
        <ele>2.4</ele>
        <time>2021-07-20T09:57:03Z</time>
      </trkpt>
      <trkpt lat="43.14552" lon="3.14629">
        <ele>2.3</ele>
        <time>2021-07-20T09:57:04Z</time>
      </trkpt>
      <trkpt lat="43.14551" lon="3.1462">
        <ele>2.1</ele>
        <time>2021-07-20T09:57:05Z</time>
      </trkpt>
      <trkpt lat="43.14551" lon="3.1461">
        <ele>2</ele>
        <time>2021-07-20T09:57:06Z</time>
      </trkpt>
      <trkpt lat="43.14551" lon="3.14601">
        <ele>1.9</ele>
        <time>2021-07-20T09:57:07Z</time>
      </trkpt>
      <trkpt lat="43.14551" lon="3.14592">
        <ele>1.7</ele>
        <time>2021-07-20T09:57:08Z</time>
      </trkpt>
      <trkpt lat="43.14551" lon="3.14583">
        <ele>1.6</ele>
        <time>2021-07-20T09:57:09Z</time>
      </trkpt>
      <trkpt lat="43.1455" lon="3.14574">
        <ele>1.6</ele>
        <time>2021-07-20T09:57:10Z</time>
      </trkpt>
      <trkpt lat="43.1455" lon="3.14565">
        <ele>-3.1385794</ele>
        <time>2021-07-20T09:57:11Z</time>
      </trkpt>
      <trkpt lat="43.14549" lon="3.14557">
        <ele>1.7</ele>
        <time>2021-07-20T09:57:12Z</time>
      </trkpt>
      <trkpt lat="43.14549" lon="3.14548">
        <ele>1.8</ele>
        <time>2021-07-20T09:57:13Z</time>
      </trkpt>
      <trkpt lat="43.14548" lon="3.14539">
        <ele>1.8</ele>
        <time>2021-07-20T09:57:14Z</time>
      </trkpt>
      <trkpt lat="43.14547" lon="3.14531">
        <ele>1.8</ele>
        <time>2021-07-20T09:57:15Z</time>
      </trkpt>
      <trkpt lat="43.14545" lon="3.14524">
        <ele>1.9</ele>
        <time>2021-07-20T09:57:16Z</time>
      </trkpt>
      <trkpt lat="43.14542" lon="3.14518">
        <ele>1.9</ele>
        <time>2021-07-20T09:57:17Z</time>
      </trkpt>
      <trkpt lat="43.14539" lon="3.14514">
        <ele>1.9</ele>
        <time>2021-07-20T09:57:18Z</time>
      </trkpt>
      <trkpt lat="43.14536" lon="3.1451">
        <ele>1.9</ele>
        <time>2021-07-20T09:57:19Z</time>
      </trkpt>
      <trkpt lat="43.14531" lon="3.14507">
        <ele>1.9</ele>
        <time>2021-07-20T09:57:20Z</time>
      </trkpt>
      <trkpt lat="43.14527" lon="3.14506">
        <ele>-3.0120053</ele>
        <time>2021-07-20T09:57:21Z</time>
      </trkpt>
      <trkpt lat="43.14523" lon="3.14507">
        <ele>1.9</ele>
        <time>2021-07-20T09:57:22Z</time>
      </trkpt>
      <trkpt lat="43.14518" lon="3.14509">
        <ele>1.9</ele>
        <time>2021-07-20T09:57:23Z</time>
      </trkpt>
      <trkpt lat="43.14514" lon="3.14511">
        <ele>1.9</ele>
        <time>2021-07-20T09:57:24Z</time>
      </trkpt>
      <trkpt lat="43.14511" lon="3.14514">
        <ele>1.9</ele>
        <time>2021-07-20T09:57:25Z</time>
      </trkpt>
      <trkpt lat="43.14508" lon="3.14517">
        <ele>1.8</ele>
        <time>2021-07-20T09:57:26Z</time>
      </trkpt>
      <trkpt lat="43.14505" lon="3.14518">
        <ele>1.8</ele>
        <time>2021-07-20T09:57:27Z</time>
      </trkpt>
      <trkpt lat="43.14504" lon="3.14519">
        <ele>1.8</ele>
        <time>2021-07-20T09:57:28Z</time>
      </trkpt>
      <trkpt lat="43.14503" lon="3.14519">
        <ele>1.8</ele>
        <time>2021-07-20T09:57:29Z</time>
      </trkpt>
      <trkpt lat="43.14502" lon="3.14519">
        <ele>1.8</ele>
        <time>2021-07-20T09:57:30Z</time>
      </trkpt>
      <trkpt lat="43.14502" lon="3.1452">
        <ele>-2.169543</ele>
        <time>2021-07-20T09:57:31Z</time>
      </trkpt>
      <trkpt lat="43.14502" lon="3.1452">
        <ele>1.8</ele>
        <time>2021-07-20T09:57:32Z</time>
      </trkpt>
      <trkpt lat="43.14501" lon="3.14519">
        <ele>1.8</ele>
        <time>2021-07-20T09:57:33Z</time>
      </trkpt>
      <trkpt lat="43.145" lon="3.14519">
        <ele>1.8</ele>
        <time>2021-07-20T09:57:34Z</time>
      </trkpt>
      <trkpt lat="43.14499" lon="3.14518">
        <ele>1.8</ele>
        <time>2021-07-20T09:57:35Z</time>
      </trkpt>
      <trkpt lat="43.14498" lon="3.14518">
        <ele>1.8</ele>
        <time>2021-07-20T09:57:36Z</time>
      </trkpt>
      <trkpt lat="43.14497" lon="3.14516">
        <ele>1.8</ele>
        <time>2021-07-20T09:57:37Z</time>
      </trkpt>
      <trkpt lat="43.14496" lon="3.14515">
        <ele>1.8</ele>
        <time>2021-07-20T09:57:38Z</time>
      </trkpt>
      <trkpt lat="43.14494" lon="3.14513">
        <ele>1.8</ele>
        <time>2021-07-20T09:57:39Z</time>
      </trkpt>
      <trkpt lat="43.14493" lon="3.14512">
        <ele>1.9</ele>
        <time>2021-07-20T09:57:40Z</time>
      </trkpt>
      <trkpt lat="43.14492" lon="3.14511">
        <ele>1.9</ele>
        <time>2021-07-20T09:57:41Z</time>
      </trkpt>
      <trkpt lat="43.14492" lon="3.1451">
        <ele>-3.6303446</ele>
        <time>2021-07-20T09:57:42Z</time>
      </trkpt>
      <trkpt lat="43.14492" lon="3.1451">
        <ele>1.9</ele>
        <time>2021-07-20T09:57:43Z</time>
      </trkpt>
      <trkpt lat="43.14492" lon="3.1451">
        <ele>1.9</ele>
        <time>2021-07-20T09:57:44Z</time>
      </trkpt>
      <trkpt lat="43.14492" lon="3.1451">
        <ele>1.9</ele>
        <time>2021-07-20T09:57:45Z</time>
      </trkpt>
      <trkpt lat="43.14492" lon="3.1451">
        <ele>1.9</ele>
        <time>2021-07-20T09:57:46Z</time>
      </trkpt>
      <trkpt lat="43.14492" lon="3.1451">
        <ele>1.9</ele>
        <time>2021-07-20T09:57:47Z</time>
      </trkpt>
      <trkpt lat="43.14492" lon="3.1451">
        <ele>1.9</ele>
        <time>2021-07-20T09:57:48Z</time>
      </trkpt>
      <trkpt lat="43.14492" lon="3.1451">
        <ele>1.9</ele>
        <time>2021-07-20T09:57:49Z</time>
      </trkpt>
      <trkpt lat="43.14492" lon="3.1451">
        <ele>1.9</ele>
        <time>2021-07-20T09:57:50Z</time>
      </trkpt>
      <trkpt lat="43.14492" lon="3.1451">
        <ele>1.9</ele>
        <time>2021-07-20T09:57:51Z</time>
      </trkpt>
      <trkpt lat="43.14492" lon="3.1451">
        <ele>-3.4114377</ele>
        <time>2021-07-20T09:57:52Z</time>
      </trkpt>
      <trkpt lat="43.14492" lon="3.1451">
        <ele>1.9</ele>
        <time>2021-07-20T09:57:53Z</time>
      </trkpt>
      <trkpt lat="43.14492" lon="3.1451">
        <ele>1.9</ele>
        <time>2021-07-20T09:57:54Z</time>
      </trkpt>
      <trkpt lat="43.14492" lon="3.1451">
        <ele>1.9</ele>
        <time>2021-07-20T09:57:55Z</time>
      </trkpt>
      <trkpt lat="43.14492" lon="3.1451">
        <ele>1.9</ele>
        <time>2021-07-20T09:57:56Z</time>
      </trkpt>
      <trkpt lat="43.14492" lon="3.1451">
        <ele>1.9</ele>
        <time>2021-07-20T09:57:57Z</time>
      </trkpt>
      <trkpt lat="43.14492" lon="3.1451">
        <ele>1.9</ele>
        <time>2021-07-20T09:57:58Z</time>
      </trkpt>
      <trkpt lat="43.14492" lon="3.14508">
        <ele>1.9</ele>
        <time>2021-07-20T09:57:59Z</time>
      </trkpt>
      <trkpt lat="43.14492" lon="3.14508">
        <ele>1.9</ele>
        <time>2021-07-20T09:58:00Z</time>
      </trkpt>
      <trkpt lat="43.14492" lon="3.14508">
        <ele>1.9</ele>
        <time>2021-07-20T09:58:01Z</time>
      </trkpt>
      <trkpt lat="43.14492" lon="3.14508">
        <ele>-3.3917258</ele>
        <time>2021-07-20T09:58:02Z</time>
      </trkpt>
      <trkpt lat="43.14492" lon="3.14508">
        <ele>1.9</ele>
        <time>2021-07-20T09:58:03Z</time>
      </trkpt>
      <trkpt lat="43.14492" lon="3.14508">
        <ele>1.9</ele>
        <time>2021-07-20T09:58:04Z</time>
      </trkpt>
      <trkpt lat="43.14492" lon="3.14508">
        <ele>1.9</ele>
        <time>2021-07-20T09:58:05Z</time>
      </trkpt>
      <trkpt lat="43.14492" lon="3.14508">
        <ele>1.9</ele>
        <time>2021-07-20T09:58:06Z</time>
      </trkpt>
      <trkpt lat="43.14492" lon="3.14508">
        <ele>1.9</ele>
        <time>2021-07-20T09:58:07Z</time>
      </trkpt>
      <trkpt lat="43.14492" lon="3.14508">
        <ele>1.9</ele>
        <time>2021-07-20T09:58:08Z</time>
      </trkpt>
      <trkpt lat="43.14492" lon="3.14508">
        <ele>1.9</ele>
        <time>2021-07-20T09:58:09Z</time>
      </trkpt>
      <trkpt lat="43.14493" lon="3.14508">
        <ele>1.9</ele>
        <time>2021-07-20T09:58:10Z</time>
      </trkpt>
      <trkpt lat="43.14493" lon="3.14508">
        <ele>1.9</ele>
        <time>2021-07-20T09:58:11Z</time>
      </trkpt>
      <trkpt lat="43.14493" lon="3.14508">
        <ele>-3.448787</ele>
        <time>2021-07-20T09:58:12Z</time>
      </trkpt>
      <trkpt lat="43.14493" lon="3.14508">
        <ele>1.9</ele>
        <time>2021-07-20T09:58:13Z</time>
      </trkpt>
      <trkpt lat="43.14493" lon="3.14508">
        <ele>1.9</ele>
        <time>2021-07-20T09:58:14Z</time>
      </trkpt>
      <trkpt lat="43.14493" lon="3.14508">
        <ele>1.9</ele>
        <time>2021-07-20T09:58:15Z</time>
      </trkpt>
      <trkpt lat="43.14492" lon="3.14508">
        <ele>1.9</ele>
        <time>2021-07-20T09:58:16Z</time>
      </trkpt>
      <trkpt lat="43.14492" lon="3.14508">
        <ele>1.9</ele>
        <time>2021-07-20T09:58:17Z</time>
      </trkpt>
      <trkpt lat="43.14492" lon="3.14508">
        <ele>1.9</ele>
        <time>2021-07-20T09:58:18Z</time>
      </trkpt>
      <trkpt lat="43.14492" lon="3.14508">
        <ele>1.9</ele>
        <time>2021-07-20T09:58:19Z</time>
      </trkpt>
      <trkpt lat="43.14492" lon="3.14508">
        <ele>1.9</ele>
        <time>2021-07-20T09:58:20Z</time>
      </trkpt>
      <trkpt lat="43.14492" lon="3.14508">
        <ele>1.9</ele>
        <time>2021-07-20T09:58:21Z</time>
      </trkpt>
      <trkpt lat="43.14492" lon="3.14508">
        <ele>-3.3709762</ele>
        <time>2021-07-20T09:58:22Z</time>
      </trkpt>
      <trkpt lat="43.14492" lon="3.14508">
        <ele>1.9</ele>
        <time>2021-07-20T09:58:23Z</time>
      </trkpt>
      <trkpt lat="43.14492" lon="3.14508">
        <ele>1.9</ele>
        <time>2021-07-20T09:58:24Z</time>
      </trkpt>
      <trkpt lat="43.14492" lon="3.14508">
        <ele>1.9</ele>
        <time>2021-07-20T09:58:25Z</time>
      </trkpt>
      <trkpt lat="43.14492" lon="3.14508">
        <ele>1.9</ele>
        <time>2021-07-20T09:58:26Z</time>
      </trkpt>
      <trkpt lat="43.14493" lon="3.14509">
        <ele>1.9</ele>
        <time>2021-07-20T09:58:27Z</time>
      </trkpt>
      <trkpt lat="43.14493" lon="3.14509">
        <ele>1.9</ele>
        <time>2021-07-20T09:58:28Z</time>
      </trkpt>
      <trkpt lat="43.14493" lon="3.14509">
        <ele>1.9</ele>
        <time>2021-07-20T09:58:29Z</time>
      </trkpt>
      <trkpt lat="43.14493" lon="3.14509">
        <ele>1.9</ele>
        <time>2021-07-20T09:58:30Z</time>
      </trkpt>
      <trkpt lat="43.14493" lon="3.14509">
        <ele>1.9</ele>
        <time>2021-07-20T09:58:31Z</time>
      </trkpt>
      <trkpt lat="43.14493" lon="3.14509">
        <ele>-3.1811166</ele>
        <time>2021-07-20T09:58:32Z</time>
      </trkpt>
      <trkpt lat="43.14493" lon="3.14509">
        <ele>1.9</ele>
        <time>2021-07-20T09:58:33Z</time>
      </trkpt>
      <trkpt lat="43.14493" lon="3.14509">
        <ele>1.9</ele>
        <time>2021-07-20T09:58:34Z</time>
      </trkpt>
      <trkpt lat="43.14493" lon="3.14509">
        <ele>1.9</ele>
        <time>2021-07-20T09:58:35Z</time>
      </trkpt>
      <trkpt lat="43.14493" lon="3.14509">
        <ele>1.9</ele>
        <time>2021-07-20T09:58:36Z</time>
      </trkpt>
      <trkpt lat="43.14493" lon="3.14509">
        <ele>1.9</ele>
        <time>2021-07-20T09:58:37Z</time>
      </trkpt>
      <trkpt lat="43.14493" lon="3.14508">
        <ele>1.9</ele>
        <time>2021-07-20T09:58:38Z</time>
      </trkpt>
      <trkpt lat="43.14492" lon="3.14508">
        <ele>1.9</ele>
        <time>2021-07-20T09:58:39Z</time>
      </trkpt>
      <trkpt lat="43.14492" lon="3.14508">
        <ele>1.9</ele>
        <time>2021-07-20T09:58:40Z</time>
      </trkpt>
      <trkpt lat="43.14492" lon="3.14508">
        <ele>-3.0306802</ele>
        <time>2021-07-20T09:58:41Z</time>
      </trkpt>
      <trkpt lat="43.14492" lon="3.14508">
        <ele>1.9</ele>
        <time>2021-07-20T09:58:42Z</time>
      </trkpt>
      <trkpt lat="43.14492" lon="3.14508">
        <ele>1.9</ele>
        <time>2021-07-20T09:58:43Z</time>
      </trkpt>
      <trkpt lat="43.14492" lon="3.14508">
        <ele>1.9</ele>
        <time>2021-07-20T09:58:44Z</time>
      </trkpt>
      <trkpt lat="43.14492" lon="3.14508">
        <ele>1.9</ele>
        <time>2021-07-20T09:58:45Z</time>
      </trkpt>
      <trkpt lat="43.14492" lon="3.14508">
        <ele>1.9</ele>
        <time>2021-07-20T09:58:46Z</time>
      </trkpt>
      <trkpt lat="43.14492" lon="3.14508">
        <ele>1.9</ele>
        <time>2021-07-20T09:58:47Z</time>
      </trkpt>
      <trkpt lat="43.14492" lon="3.14508">
        <ele>1.9</ele>
        <time>2021-07-20T09:58:48Z</time>
      </trkpt>
      <trkpt lat="43.14492" lon="3.14508">
        <ele>1.9</ele>
        <time>2021-07-20T09:58:49Z</time>
      </trkpt>
      <trkpt lat="43.14492" lon="3.14508">
        <ele>1.9</ele>
        <time>2021-07-20T09:58:50Z</time>
      </trkpt>
      <trkpt lat="43.14492" lon="3.14508">
        <ele>-3.1769667</ele>
        <time>2021-07-20T09:58:51Z</time>
      </trkpt>
      <trkpt lat="43.14492" lon="3.14508">
        <ele>1.9</ele>
        <time>2021-07-20T09:58:52Z</time>
      </trkpt>
      <trkpt lat="43.14492" lon="3.14508">
        <ele>1.9</ele>
        <time>2021-07-20T09:58:53Z</time>
      </trkpt>
      <trkpt lat="43.14492" lon="3.14508">
        <ele>1.9</ele>
        <time>2021-07-20T09:58:54Z</time>
      </trkpt>
      <trkpt lat="43.14492" lon="3.14508">
        <ele>1.9</ele>
        <time>2021-07-20T09:58:55Z</time>
      </trkpt>
      <trkpt lat="43.14493" lon="3.1451">
        <ele>1.9</ele>
        <time>2021-07-20T09:58:56Z</time>
      </trkpt>
      <trkpt lat="43.14493" lon="3.1451">
        <ele>1.9</ele>
        <time>2021-07-20T09:58:57Z</time>
      </trkpt>
      <trkpt lat="43.14493" lon="3.14511">
        <ele>1.9</ele>
        <time>2021-07-20T09:58:58Z</time>
      </trkpt>
      <trkpt lat="43.14493" lon="3.14512">
        <ele>1.9</ele>
        <time>2021-07-20T09:58:59Z</time>
      </trkpt>
      <trkpt lat="43.14494" lon="3.14513">
        <ele>1.8</ele>
        <time>2021-07-20T09:59:00Z</time>
      </trkpt>
      <trkpt lat="43.14494" lon="3.14513">
        <ele>-3.4072878</ele>
        <time>2021-07-20T09:59:01Z</time>
      </trkpt>
      <trkpt lat="43.14494" lon="3.14513">
        <ele>1.8</ele>
        <time>2021-07-20T09:59:02Z</time>
      </trkpt>
      <trkpt lat="43.14494" lon="3.14513">
        <ele>1.8</ele>
        <time>2021-07-20T09:59:03Z</time>
      </trkpt>
      <trkpt lat="43.14494" lon="3.14515">
        <ele>1.8</ele>
        <time>2021-07-20T09:59:04Z</time>
      </trkpt>
      <trkpt lat="43.14495" lon="3.14518">
        <ele>1.8</ele>
        <time>2021-07-20T09:59:05Z</time>
      </trkpt>
      <trkpt lat="43.14495" lon="3.1452">
        <ele>1.8</ele>
        <time>2021-07-20T09:59:06Z</time>
      </trkpt>
      <trkpt lat="43.14494" lon="3.14522">
        <ele>1.7</ele>
        <time>2021-07-20T09:59:07Z</time>
      </trkpt>
      <trkpt lat="43.14493" lon="3.14524">
        <ele>1.7</ele>
        <time>2021-07-20T09:59:08Z</time>
      </trkpt>
      <trkpt lat="43.14491" lon="3.14527">
        <ele>1.7</ele>
        <time>2021-07-20T09:59:09Z</time>
      </trkpt>
      <trkpt lat="43.14489" lon="3.1453">
        <ele>1.6</ele>
        <time>2021-07-20T09:59:10Z</time>
      </trkpt>
      <trkpt lat="43.14487" lon="3.14533">
        <ele>-3.5079231</ele>
        <time>2021-07-20T09:59:11Z</time>
      </trkpt>
      <trkpt lat="43.14484" lon="3.14537">
        <ele>1.6</ele>
        <time>2021-07-20T09:59:12Z</time>
      </trkpt>
      <trkpt lat="43.14482" lon="3.1454">
        <ele>1.5</ele>
        <time>2021-07-20T09:59:13Z</time>
      </trkpt>
      <trkpt lat="43.14479" lon="3.14544">
        <ele>1.5</ele>
        <time>2021-07-20T09:59:14Z</time>
      </trkpt>
      <trkpt lat="43.14477" lon="3.14548">
        <ele>1.4</ele>
        <time>2021-07-20T09:59:15Z</time>
      </trkpt>
      <trkpt lat="43.14474" lon="3.14551">
        <ele>1.4</ele>
        <time>2021-07-20T09:59:16Z</time>
      </trkpt>
      <trkpt lat="43.14471" lon="3.14554">
        <ele>1.4</ele>
        <time>2021-07-20T09:59:17Z</time>
      </trkpt>
      <trkpt lat="43.14468" lon="3.14557">
        <ele>1.3</ele>
        <time>2021-07-20T09:59:18Z</time>
      </trkpt>
      <trkpt lat="43.14465" lon="3.1456">
        <ele>1.3</ele>
        <time>2021-07-20T09:59:19Z</time>
      </trkpt>
      <trkpt lat="43.14463" lon="3.14562">
        <ele>1.3</ele>
        <time>2021-07-20T09:59:20Z</time>
      </trkpt>
      <trkpt lat="43.14461" lon="3.14565">
        <ele>1.2</ele>
        <time>2021-07-20T09:59:21Z</time>
      </trkpt>
      <trkpt lat="43.14459" lon="3.14568">
        <ele>-3.0711424</ele>
        <time>2021-07-20T09:59:22Z</time>
      </trkpt>
      <trkpt lat="43.14457" lon="3.14572">
        <ele>1.1</ele>
        <time>2021-07-20T09:59:23Z</time>
      </trkpt>
      <trkpt lat="43.14455" lon="3.14575">
        <ele>1.1</ele>
        <time>2021-07-20T09:59:24Z</time>
      </trkpt>
      <trkpt lat="43.14454" lon="3.14578">
        <ele>1.1</ele>
        <time>2021-07-20T09:59:25Z</time>
      </trkpt>
      <trkpt lat="43.14452" lon="3.14581">
        <ele>1</ele>
        <time>2021-07-20T09:59:26Z</time>
      </trkpt>
      <trkpt lat="43.1445" lon="3.14584">
        <ele>1</ele>
        <time>2021-07-20T09:59:27Z</time>
      </trkpt>
      <trkpt lat="43.14447" lon="3.14586">
        <ele>1</ele>
        <time>2021-07-20T09:59:28Z</time>
      </trkpt>
      <trkpt lat="43.14446" lon="3.14589">
        <ele>1.1</ele>
        <time>2021-07-20T09:59:29Z</time>
      </trkpt>
      <trkpt lat="43.14443" lon="3.14591">
        <ele>1.1</ele>
        <time>2021-07-20T09:59:30Z</time>
      </trkpt>
      <trkpt lat="43.14441" lon="3.14593">
        <ele>1.2</ele>
        <time>2021-07-20T09:59:31Z</time>
      </trkpt>
      <trkpt lat="43.1444" lon="3.14595">
        <ele>-3.0732174</ele>
        <time>2021-07-20T09:59:32Z</time>
      </trkpt>
      <trkpt lat="43.14438" lon="3.14597">
        <ele>1.2</ele>
        <time>2021-07-20T09:59:33Z</time>
      </trkpt>
      <trkpt lat="43.14437" lon="3.14598">
        <ele>1.3</ele>
        <time>2021-07-20T09:59:34Z</time>
      </trkpt>
      <trkpt lat="43.14436" lon="3.14598">
        <ele>1.3</ele>
        <time>2021-07-20T09:59:35Z</time>
      </trkpt>
      <trkpt lat="43.14436" lon="3.14599">
        <ele>1.3</ele>
        <time>2021-07-20T09:59:36Z</time>
      </trkpt>
      <trkpt lat="43.14436" lon="3.14599">
        <ele>1.3</ele>
        <time>2021-07-20T09:59:37Z</time>
      </trkpt>
      <trkpt lat="43.14436" lon="3.14599">
        <ele>1.3</ele>
        <time>2021-07-20T09:59:38Z</time>
      </trkpt>
      <trkpt lat="43.14436" lon="3.14599">
        <ele>1.3</ele>
        <time>2021-07-20T09:59:39Z</time>
      </trkpt>
      <trkpt lat="43.14436" lon="3.14599">
        <ele>1.3</ele>
        <time>2021-07-20T09:59:40Z</time>
      </trkpt>
      <trkpt lat="43.14436" lon="3.14599">
        <ele>1.3</ele>
        <time>2021-07-20T09:59:41Z</time>
      </trkpt>
      <trkpt lat="43.14436" lon="3.14599">
        <ele>-3.516223</ele>
        <time>2021-07-20T09:59:42Z</time>
      </trkpt>
      <trkpt lat="43.14436" lon="3.14599">
        <ele>1.3</ele>
        <time>2021-07-20T09:59:43Z</time>
      </trkpt>
      <trkpt lat="43.14436" lon="3.14599">
        <ele>1.3</ele>
        <time>2021-07-20T09:59:44Z</time>
      </trkpt>
      <trkpt lat="43.14436" lon="3.14599">
        <ele>1.3</ele>
        <time>2021-07-20T09:59:45Z</time>
      </trkpt>
      <trkpt lat="43.14436" lon="3.14599">
        <ele>1.3</ele>
        <time>2021-07-20T09:59:46Z</time>
      </trkpt>
      <trkpt lat="43.14436" lon="3.14599">
        <ele>1.3</ele>
        <time>2021-07-20T09:59:47Z</time>
      </trkpt>
      <trkpt lat="43.14436" lon="3.14599">
        <ele>1.3</ele>
        <time>2021-07-20T09:59:48Z</time>
      </trkpt>
      <trkpt lat="43.14436" lon="3.14599">
        <ele>1.3</ele>
        <time>2021-07-20T09:59:49Z</time>
      </trkpt>
      <trkpt lat="43.14436" lon="3.14599">
        <ele>1.3</ele>
        <time>2021-07-20T09:59:50Z</time>
      </trkpt>
      <trkpt lat="43.14436" lon="3.14599">
        <ele>1.3</ele>
        <time>2021-07-20T09:59:51Z</time>
      </trkpt>
      <trkpt lat="43.14436" lon="3.14599">
        <ele>-3.8056762</ele>
        <time>2021-07-20T09:59:52Z</time>
      </trkpt>
      <trkpt lat="43.14436" lon="3.14599">
        <ele>1.3</ele>
        <time>2021-07-20T09:59:53Z</time>
      </trkpt>
      <trkpt lat="43.14436" lon="3.14599">
        <ele>1.3</ele>
        <time>2021-07-20T09:59:54Z</time>
      </trkpt>
      <trkpt lat="43.14436" lon="3.14599">
        <ele>1.3</ele>
        <time>2021-07-20T09:59:55Z</time>
      </trkpt>
      <trkpt lat="43.14436" lon="3.14599">
        <ele>1.3</ele>
        <time>2021-07-20T09:59:56Z</time>
      </trkpt>
      <trkpt lat="43.14436" lon="3.14599">
        <ele>1.3</ele>
        <time>2021-07-20T09:59:57Z</time>
      </trkpt>
      <trkpt lat="43.14436" lon="3.14599">
        <ele>1.3</ele>
        <time>2021-07-20T09:59:58Z</time>
      </trkpt>
      <trkpt lat="43.14436" lon="3.14599">
        <ele>1.3</ele>
        <time>2021-07-20T09:59:59Z</time>
      </trkpt>
      <trkpt lat="43.14436" lon="3.14599">
        <ele>1.3</ele>
        <time>2021-07-20T10:00:00Z</time>
      </trkpt>
      <trkpt lat="43.14436" lon="3.14599">
        <ele>1.3</ele>
        <time>2021-07-20T10:00:01Z</time>
      </trkpt>
      <trkpt lat="43.14436" lon="3.14599">
        <ele>-3.848212</ele>
        <time>2021-07-20T10:00:02Z</time>
      </trkpt>
      <trkpt lat="43.14436" lon="3.14599">
        <ele>1.3</ele>
        <time>2021-07-20T10:00:03Z</time>
      </trkpt>
      <trkpt lat="43.14436" lon="3.14599">
        <ele>1.3</ele>
        <time>2021-07-20T10:00:04Z</time>
      </trkpt>
      <trkpt lat="43.14436" lon="3.14599">
        <ele>1.3</ele>
        <time>2021-07-20T10:00:05Z</time>
      </trkpt>
      <trkpt lat="43.14436" lon="3.14599">
        <ele>1.3</ele>
        <time>2021-07-20T10:00:06Z</time>
      </trkpt>
      <trkpt lat="43.14436" lon="3.14599">
        <ele>1.3</ele>
        <time>2021-07-20T10:00:07Z</time>
      </trkpt>
      <trkpt lat="43.14436" lon="3.14599">
        <ele>1.3</ele>
        <time>2021-07-20T10:00:08Z</time>
      </trkpt>
      <trkpt lat="43.14436" lon="3.14599">
        <ele>1.3</ele>
        <time>2021-07-20T10:00:09Z</time>
      </trkpt>
      <trkpt lat="43.14436" lon="3.14599">
        <ele>1.3</ele>
        <time>2021-07-20T10:00:10Z</time>
      </trkpt>
      <trkpt lat="43.14436" lon="3.14599">
        <ele>1.3</ele>
        <time>2021-07-20T10:00:11Z</time>
      </trkpt>
      <trkpt lat="43.14436" lon="3.14599">
        <ele>-3.7859645</ele>
        <time>2021-07-20T10:00:12Z</time>
      </trkpt>
      <trkpt lat="43.14436" lon="3.14599">
        <ele>1.3</ele>
        <time>2021-07-20T10:00:13Z</time>
      </trkpt>
      <trkpt lat="43.14436" lon="3.14599">
        <ele>1.3</ele>
        <time>2021-07-20T10:00:14Z</time>
      </trkpt>
      <trkpt lat="43.14436" lon="3.14599">
        <ele>1.3</ele>
        <time>2021-07-20T10:00:15Z</time>
      </trkpt>
      <trkpt lat="43.14436" lon="3.14599">
        <ele>1.3</ele>
        <time>2021-07-20T10:00:16Z</time>
      </trkpt>
      <trkpt lat="43.14436" lon="3.14599">
        <ele>1.3</ele>
        <time>2021-07-20T10:00:17Z</time>
      </trkpt>
      <trkpt lat="43.14436" lon="3.14599">
        <ele>1.3</ele>
        <time>2021-07-20T10:00:18Z</time>
      </trkpt>
      <trkpt lat="43.14436" lon="3.14599">
        <ele>1.3</ele>
        <time>2021-07-20T10:00:19Z</time>
      </trkpt>
      <trkpt lat="43.14436" lon="3.14599">
        <ele>1.3</ele>
        <time>2021-07-20T10:00:20Z</time>
      </trkpt>
      <trkpt lat="43.14436" lon="3.14599">
        <ele>-3.6604311</ele>
        <time>2021-07-20T10:00:21Z</time>
      </trkpt>
      <trkpt lat="43.14436" lon="3.14599">
        <ele>1.3</ele>
        <time>2021-07-20T10:00:22Z</time>
      </trkpt>
      <trkpt lat="43.14436" lon="3.14599">
        <ele>1.3</ele>
        <time>2021-07-20T10:00:23Z</time>
      </trkpt>
      <trkpt lat="43.14436" lon="3.14599">
        <ele>1.3</ele>
        <time>2021-07-20T10:00:24Z</time>
      </trkpt>
      <trkpt lat="43.14436" lon="3.14599">
        <ele>1.3</ele>
        <time>2021-07-20T10:00:25Z</time>
      </trkpt>
      <trkpt lat="43.14436" lon="3.14599">
        <ele>1.3</ele>
        <time>2021-07-20T10:00:26Z</time>
      </trkpt>
      <trkpt lat="43.14436" lon="3.14599">
        <ele>1.3</ele>
        <time>2021-07-20T10:00:27Z</time>
      </trkpt>
      <trkpt lat="43.14436" lon="3.14599">
        <ele>1.3</ele>
        <time>2021-07-20T10:00:28Z</time>
      </trkpt>
      <trkpt lat="43.14436" lon="3.14599">
        <ele>1.3</ele>
        <time>2021-07-20T10:00:29Z</time>
      </trkpt>
      <trkpt lat="43.14436" lon="3.14599">
        <ele>1.3</ele>
        <time>2021-07-20T10:00:30Z</time>
      </trkpt>
      <trkpt lat="43.14436" lon="3.14599">
        <ele>-3.8606615</ele>
        <time>2021-07-20T10:00:31Z</time>
      </trkpt>
      <trkpt lat="43.14436" lon="3.14599">
        <ele>1.3</ele>
        <time>2021-07-20T10:00:32Z</time>
      </trkpt>
      <trkpt lat="43.14436" lon="3.14599">
        <ele>1.3</ele>
        <time>2021-07-20T10:00:33Z</time>
      </trkpt>
      <trkpt lat="43.14436" lon="3.14599">
        <ele>1.3</ele>
        <time>2021-07-20T10:00:34Z</time>
      </trkpt>
      <trkpt lat="43.14436" lon="3.14599">
        <ele>1.3</ele>
        <time>2021-07-20T10:00:35Z</time>
      </trkpt>
      <trkpt lat="43.14436" lon="3.14599">
        <ele>1.3</ele>
        <time>2021-07-20T10:00:36Z</time>
      </trkpt>
      <trkpt lat="43.14436" lon="3.14599">
        <ele>1.3</ele>
        <time>2021-07-20T10:00:37Z</time>
      </trkpt>
      <trkpt lat="43.14436" lon="3.14599">
        <ele>1.3</ele>
        <time>2021-07-20T10:00:38Z</time>
      </trkpt>
      <trkpt lat="43.14436" lon="3.14599">
        <ele>1.3</ele>
        <time>2021-07-20T10:00:39Z</time>
      </trkpt>
      <trkpt lat="43.14436" lon="3.14599">
        <ele>1.3</ele>
        <time>2021-07-20T10:00:40Z</time>
      </trkpt>
      <trkpt lat="43.14436" lon="3.14599">
        <ele>-3.6168575</ele>
        <time>2021-07-20T10:00:41Z</time>
      </trkpt>
      <trkpt lat="43.14436" lon="3.14599">
        <ele>1.3</ele>
        <time>2021-07-20T10:00:42Z</time>
      </trkpt>
      <trkpt lat="43.14436" lon="3.14599">
        <ele>1.3</ele>
        <time>2021-07-20T10:00:43Z</time>
      </trkpt>
      <trkpt lat="43.14436" lon="3.14599">
        <ele>1.3</ele>
        <time>2021-07-20T10:00:44Z</time>
      </trkpt>
      <trkpt lat="43.14436" lon="3.14599">
        <ele>1.3</ele>
        <time>2021-07-20T10:00:45Z</time>
      </trkpt>
      <trkpt lat="43.14436" lon="3.14599">
        <ele>1.3</ele>
        <time>2021-07-20T10:00:46Z</time>
      </trkpt>
      <trkpt lat="43.14436" lon="3.14599">
        <ele>1.3</ele>
        <time>2021-07-20T10:00:47Z</time>
      </trkpt>
      <trkpt lat="43.14436" lon="3.14599">
        <ele>1.3</ele>
        <time>2021-07-20T10:00:48Z</time>
      </trkpt>
      <trkpt lat="43.14436" lon="3.14599">
        <ele>1.3</ele>
        <time>2021-07-20T10:00:49Z</time>
      </trkpt>
      <trkpt lat="43.14436" lon="3.14599">
        <ele>1.3</ele>
        <time>2021-07-20T10:00:50Z</time>
      </trkpt>
      <trkpt lat="43.14436" lon="3.14599">
        <ele>-3.8243504</ele>
        <time>2021-07-20T10:00:51Z</time>
      </trkpt>
      <trkpt lat="43.14436" lon="3.14599">
        <ele>1.3</ele>
        <time>2021-07-20T10:00:52Z</time>
      </trkpt>
      <trkpt lat="43.14436" lon="3.14599">
        <ele>1.3</ele>
        <time>2021-07-20T10:00:53Z</time>
      </trkpt>
      <trkpt lat="43.14436" lon="3.14599">
        <ele>1.3</ele>
        <time>2021-07-20T10:00:54Z</time>
      </trkpt>
      <trkpt lat="43.14436" lon="3.14599">
        <ele>1.3</ele>
        <time>2021-07-20T10:00:55Z</time>
      </trkpt>
      <trkpt lat="43.14436" lon="3.14599">
        <ele>1.3</ele>
        <time>2021-07-20T10:00:56Z</time>
      </trkpt>
      <trkpt lat="43.14436" lon="3.14599">
        <ele>1.3</ele>
        <time>2021-07-20T10:00:57Z</time>
      </trkpt>
      <trkpt lat="43.14436" lon="3.14599">
        <ele>1.3</ele>
        <time>2021-07-20T10:00:58Z</time>
      </trkpt>
      <trkpt lat="43.14436" lon="3.14599">
        <ele>1.3</ele>
        <time>2021-07-20T10:00:59Z</time>
      </trkpt>
      <trkpt lat="43.14436" lon="3.14599">
        <ele>1.3</ele>
        <time>2021-07-20T10:01:00Z</time>
      </trkpt>
      <trkpt lat="43.14436" lon="3.146">
        <ele>1.3</ele>
        <time>2021-07-20T10:01:01Z</time>
      </trkpt>
      <trkpt lat="43.14436" lon="3.146">
        <ele>-3.9156468</ele>
        <time>2021-07-20T10:01:02Z</time>
      </trkpt>
      <trkpt lat="43.14436" lon="3.146">
        <ele>1.3</ele>
        <time>2021-07-20T10:01:03Z</time>
      </trkpt>
      <trkpt lat="43.14436" lon="3.146">
        <ele>1.3</ele>
        <time>2021-07-20T10:01:04Z</time>
      </trkpt>
      <trkpt lat="43.14436" lon="3.146">
        <ele>1.3</ele>
        <time>2021-07-20T10:01:05Z</time>
      </trkpt>
      <trkpt lat="43.14436" lon="3.146">
        <ele>1.3</ele>
        <time>2021-07-20T10:01:06Z</time>
      </trkpt>
      <trkpt lat="43.14436" lon="3.146">
        <ele>1.3</ele>
        <time>2021-07-20T10:01:07Z</time>
      </trkpt>
      <trkpt lat="43.14436" lon="3.146">
        <ele>1.3</ele>
        <time>2021-07-20T10:01:08Z</time>
      </trkpt>
      <trkpt lat="43.14436" lon="3.146">
        <ele>1.3</ele>
        <time>2021-07-20T10:01:09Z</time>
      </trkpt>
      <trkpt lat="43.14436" lon="3.146">
        <ele>1.3</ele>
        <time>2021-07-20T10:01:10Z</time>
      </trkpt>
      <trkpt lat="43.14436" lon="3.146">
        <ele>1.3</ele>
        <time>2021-07-20T10:01:11Z</time>
      </trkpt>
      <trkpt lat="43.14436" lon="3.146">
        <ele>-3.8668861</ele>
        <time>2021-07-20T10:01:12Z</time>
      </trkpt>
      <trkpt lat="43.14436" lon="3.146">
        <ele>1.3</ele>
        <time>2021-07-20T10:01:13Z</time>
      </trkpt>
      <trkpt lat="43.14436" lon="3.146">
        <ele>1.3</ele>
        <time>2021-07-20T10:01:14Z</time>
      </trkpt>
      <trkpt lat="43.14436" lon="3.146">
        <ele>1.3</ele>
        <time>2021-07-20T10:01:15Z</time>
      </trkpt>
      <trkpt lat="43.14436" lon="3.146">
        <ele>1.3</ele>
        <time>2021-07-20T10:01:16Z</time>
      </trkpt>
      <trkpt lat="43.14436" lon="3.146">
        <ele>1.3</ele>
        <time>2021-07-20T10:01:17Z</time>
      </trkpt>
      <trkpt lat="43.14436" lon="3.146">
        <ele>1.3</ele>
        <time>2021-07-20T10:01:18Z</time>
      </trkpt>
      <trkpt lat="43.14436" lon="3.146">
        <ele>1.3</ele>
        <time>2021-07-20T10:01:19Z</time>
      </trkpt>
      <trkpt lat="43.14436" lon="3.146">
        <ele>1.3</ele>
        <time>2021-07-20T10:01:20Z</time>
      </trkpt>
      <trkpt lat="43.14436" lon="3.146">
        <ele>1.3</ele>
        <time>2021-07-20T10:01:21Z</time>
      </trkpt>
      <trkpt lat="43.14436" lon="3.146">
        <ele>-3.733054</ele>
        <time>2021-07-20T10:01:22Z</time>
      </trkpt>
      <trkpt lat="43.14436" lon="3.146">
        <ele>1.3</ele>
        <time>2021-07-20T10:01:23Z</time>
      </trkpt>
      <trkpt lat="43.14436" lon="3.146">
        <ele>1.3</ele>
        <time>2021-07-20T10:01:24Z</time>
      </trkpt>
      <trkpt lat="43.14436" lon="3.146">
        <ele>1.3</ele>
        <time>2021-07-20T10:01:25Z</time>
      </trkpt>
      <trkpt lat="43.14436" lon="3.146">
        <ele>1.3</ele>
        <time>2021-07-20T10:01:26Z</time>
      </trkpt>
      <trkpt lat="43.14436" lon="3.146">
        <ele>1.3</ele>
        <time>2021-07-20T10:01:27Z</time>
      </trkpt>
      <trkpt lat="43.14436" lon="3.146">
        <ele>1.3</ele>
        <time>2021-07-20T10:01:28Z</time>
      </trkpt>
      <trkpt lat="43.14436" lon="3.146">
        <ele>1.3</ele>
        <time>2021-07-20T10:01:29Z</time>
      </trkpt>
      <trkpt lat="43.14436" lon="3.146">
        <ele>1.3</ele>
        <time>2021-07-20T10:01:30Z</time>
      </trkpt>
      <trkpt lat="43.14436" lon="3.146">
        <ele>1.3</ele>
        <time>2021-07-20T10:01:31Z</time>
      </trkpt>
      <trkpt lat="43.14436" lon="3.146">
        <ele>-3.755878</ele>
        <time>2021-07-20T10:01:32Z</time>
      </trkpt>
      <trkpt lat="43.14436" lon="3.146">
        <ele>1.3</ele>
        <time>2021-07-20T10:01:33Z</time>
      </trkpt>
      <trkpt lat="43.14436" lon="3.146">
        <ele>1.3</ele>
        <time>2021-07-20T10:01:34Z</time>
      </trkpt>
      <trkpt lat="43.14436" lon="3.146">
        <ele>1.3</ele>
        <time>2021-07-20T10:01:35Z</time>
      </trkpt>
      <trkpt lat="43.14436" lon="3.146">
        <ele>1.3</ele>
        <time>2021-07-20T10:01:36Z</time>
      </trkpt>
      <trkpt lat="43.14436" lon="3.146">
        <ele>1.3</ele>
        <time>2021-07-20T10:01:37Z</time>
      </trkpt>
      <trkpt lat="43.14436" lon="3.146">
        <ele>1.3</ele>
        <time>2021-07-20T10:01:38Z</time>
      </trkpt>
      <trkpt lat="43.14436" lon="3.146">
        <ele>1.3</ele>
        <time>2021-07-20T10:01:39Z</time>
      </trkpt>
      <trkpt lat="43.14436" lon="3.146">
        <ele>1.3</ele>
        <time>2021-07-20T10:01:40Z</time>
      </trkpt>
      <trkpt lat="43.14436" lon="3.146">
        <ele>1.3</ele>
        <time>2021-07-20T10:01:41Z</time>
      </trkpt>
      <trkpt lat="43.14436" lon="3.146">
        <ele>-3.8056762</ele>
        <time>2021-07-20T10:01:42Z</time>
      </trkpt>
      <trkpt lat="43.14436" lon="3.146">
        <ele>1.3</ele>
        <time>2021-07-20T10:01:43Z</time>
      </trkpt>
      <trkpt lat="43.14436" lon="3.146">
        <ele>1.3</ele>
        <time>2021-07-20T10:01:44Z</time>
      </trkpt>
      <trkpt lat="43.14436" lon="3.146">
        <ele>1.3</ele>
        <time>2021-07-20T10:01:45Z</time>
      </trkpt>
      <trkpt lat="43.14436" lon="3.146">
        <ele>1.3</ele>
        <time>2021-07-20T10:01:46Z</time>
      </trkpt>
      <trkpt lat="43.14436" lon="3.146">
        <ele>1.3</ele>
        <time>2021-07-20T10:01:47Z</time>
      </trkpt>
      <trkpt lat="43.14436" lon="3.146">
        <ele>1.3</ele>
        <time>2021-07-20T10:01:54Z</time>
      </trkpt>
      <trkpt lat="43.14436" lon="3.146">
        <ele>1.3</ele>
        <time>2021-07-20T10:01:55Z</time>
      </trkpt>
      <trkpt lat="43.14436" lon="3.146">
        <ele>-3.466424</ele>
        <time>2021-07-20T10:01:56Z</time>
      </trkpt>
      <trkpt lat="43.14436" lon="3.146">
        <ele>1.3</ele>
        <time>2021-07-20T10:01:57Z</time>
      </trkpt>
      <trkpt lat="43.14436" lon="3.146">
        <ele>1.3</ele>
        <time>2021-07-20T10:01:58Z</time>
      </trkpt>
      <trkpt lat="43.14436" lon="3.146">
        <ele>1.3</ele>
        <time>2021-07-20T10:01:59Z</time>
      </trkpt>
      <trkpt lat="43.14436" lon="3.146">
        <ele>1.3</ele>
        <time>2021-07-20T10:02:00Z</time>
      </trkpt>
      <trkpt lat="43.14436" lon="3.146">
        <ele>1.3</ele>
        <time>2021-07-20T10:02:01Z</time>
      </trkpt>
      <trkpt lat="43.14436" lon="3.146">
        <ele>1.3</ele>
        <time>2021-07-20T10:02:02Z</time>
      </trkpt>
      <trkpt lat="43.14436" lon="3.146">
        <ele>1.3</ele>
        <time>2021-07-20T10:02:03Z</time>
      </trkpt>
      <trkpt lat="43.14436" lon="3.146">
        <ele>1.3</ele>
        <time>2021-07-20T10:02:04Z</time>
      </trkpt>
      <trkpt lat="43.14436" lon="3.146">
        <ele>1.3</ele>
        <time>2021-07-20T10:02:05Z</time>
      </trkpt>
      <trkpt lat="43.14436" lon="3.146">
        <ele>-3.5919583</ele>
        <time>2021-07-20T10:02:06Z</time>
      </trkpt>
      <trkpt lat="43.14436" lon="3.146">
        <ele>1.3</ele>
        <time>2021-07-20T10:02:07Z</time>
      </trkpt>
      <trkpt lat="43.14436" lon="3.146">
        <ele>1.3</ele>
        <time>2021-07-20T10:02:08Z</time>
      </trkpt>
      <trkpt lat="43.14436" lon="3.146">
        <ele>1.3</ele>
        <time>2021-07-20T10:02:09Z</time>
      </trkpt>
      <trkpt lat="43.14436" lon="3.146">
        <ele>1.3</ele>
        <time>2021-07-20T10:02:10Z</time>
      </trkpt>
      <trkpt lat="43.14436" lon="3.146">
        <ele>1.3</ele>
        <time>2021-07-20T10:02:11Z</time>
      </trkpt>
      <trkpt lat="43.14436" lon="3.146">
        <ele>1.3</ele>
        <time>2021-07-20T10:02:12Z</time>
      </trkpt>
      <trkpt lat="43.14436" lon="3.146">
        <ele>1.3</ele>
        <time>2021-07-20T10:02:13Z</time>
      </trkpt>
      <trkpt lat="43.14436" lon="3.146">
        <ele>1.3</ele>
        <time>2021-07-20T10:02:14Z</time>
      </trkpt>
      <trkpt lat="43.14436" lon="3.146">
        <ele>1.3</ele>
        <time>2021-07-20T10:02:15Z</time>
      </trkpt>
      <trkpt lat="43.14436" lon="3.146">
        <ele>-3.6303446</ele>
        <time>2021-07-20T10:02:16Z</time>
      </trkpt>
      <trkpt lat="43.14436" lon="3.146">
        <ele>1.3</ele>
        <time>2021-07-20T10:02:17Z</time>
      </trkpt>
      <trkpt lat="43.14436" lon="3.146">
        <ele>1.3</ele>
        <time>2021-07-20T10:02:18Z</time>
      </trkpt>
      <trkpt lat="43.14436" lon="3.146">
        <ele>1.3</ele>
        <time>2021-07-20T10:02:19Z</time>
      </trkpt>
      <trkpt lat="43.14436" lon="3.146">
        <ele>1.3</ele>
        <time>2021-07-20T10:02:20Z</time>
      </trkpt>
      <trkpt lat="43.14436" lon="3.146">
        <ele>1.3</ele>
        <time>2021-07-20T10:02:21Z</time>
      </trkpt>
      <trkpt lat="43.14436" lon="3.146">
        <ele>1.3</ele>
        <time>2021-07-20T10:02:22Z</time>
      </trkpt>
      <trkpt lat="43.14436" lon="3.146">
        <ele>1.3</ele>
        <time>2021-07-20T10:02:23Z</time>
      </trkpt>
      <trkpt lat="43.14436" lon="3.146">
        <ele>1.3</ele>
        <time>2021-07-20T10:02:24Z</time>
      </trkpt>
      <trkpt lat="43.14436" lon="3.146">
        <ele>1.3</ele>
        <time>2021-07-20T10:02:25Z</time>
      </trkpt>
      <trkpt lat="43.14436" lon="3.146">
        <ele>-3.8264253</ele>
        <time>2021-07-20T10:02:26Z</time>
      </trkpt>
      <trkpt lat="43.14436" lon="3.146">
        <ele>1.3</ele>
        <time>2021-07-20T10:02:27Z</time>
      </trkpt>
      <trkpt lat="43.14436" lon="3.146">
        <ele>1.3</ele>
        <time>2021-07-20T10:02:28Z</time>
      </trkpt>
      <trkpt lat="43.14436" lon="3.146">
        <ele>1.3</ele>
        <time>2021-07-20T10:02:29Z</time>
      </trkpt>
      <trkpt lat="43.14436" lon="3.146">
        <ele>1.3</ele>
        <time>2021-07-20T10:02:30Z</time>
      </trkpt>
      <trkpt lat="43.14436" lon="3.146">
        <ele>1.3</ele>
        <time>2021-07-20T10:02:31Z</time>
      </trkpt>
      <trkpt lat="43.14436" lon="3.146">
        <ele>1.3</ele>
        <time>2021-07-20T10:02:32Z</time>
      </trkpt>
      <trkpt lat="43.14436" lon="3.146">
        <ele>1.3</ele>
        <time>2021-07-20T10:02:33Z</time>
      </trkpt>
      <trkpt lat="43.14436" lon="3.146">
        <ele>1.3</ele>
        <time>2021-07-20T10:02:34Z</time>
      </trkpt>
      <trkpt lat="43.14436" lon="3.14601">
        <ele>1.3</ele>
        <time>2021-07-20T10:02:35Z</time>
      </trkpt>
      <trkpt lat="43.14436" lon="3.14602">
        <ele>-4.098238</ele>
        <time>2021-07-20T10:02:36Z</time>
      </trkpt>
      <trkpt lat="43.14436" lon="3.14602">
        <ele>1.3</ele>
        <time>2021-07-20T10:02:37Z</time>
      </trkpt>
      <trkpt lat="43.14437" lon="3.14603">
        <ele>1.4</ele>
        <time>2021-07-20T10:02:38Z</time>
      </trkpt>
      <trkpt lat="43.14438" lon="3.14603">
        <ele>1.3</ele>
        <time>2021-07-20T10:02:39Z</time>
      </trkpt>
      <trkpt lat="43.14438" lon="3.14603">
        <ele>1.4</ele>
        <time>2021-07-20T10:02:40Z</time>
      </trkpt>
      <trkpt lat="43.14438" lon="3.14603">
        <ele>1.4</ele>
        <time>2021-07-20T10:02:41Z</time>
      </trkpt>
      <trkpt lat="43.14438" lon="3.14603">
        <ele>1.4</ele>
        <time>2021-07-20T10:02:42Z</time>
      </trkpt>
      <trkpt lat="43.14438" lon="3.14603">
        <ele>1.4</ele>
        <time>2021-07-20T10:02:43Z</time>
      </trkpt>
      <trkpt lat="43.14438" lon="3.14603">
        <ele>1.4</ele>
        <time>2021-07-20T10:02:44Z</time>
      </trkpt>
      <trkpt lat="43.14438" lon="3.14603">
        <ele>-4.214432</ele>
        <time>2021-07-20T10:02:45Z</time>
      </trkpt>
      <trkpt lat="43.14438" lon="3.14603">
        <ele>1.4</ele>
        <time>2021-07-20T10:02:46Z</time>
      </trkpt>
      <trkpt lat="43.14438" lon="3.14603">
        <ele>1.4</ele>
        <time>2021-07-20T10:02:47Z</time>
      </trkpt>
      <trkpt lat="43.14438" lon="3.14603">
        <ele>1.4</ele>
        <time>2021-07-20T10:02:48Z</time>
      </trkpt>
      <trkpt lat="43.14438" lon="3.14603">
        <ele>1.4</ele>
        <time>2021-07-20T10:02:49Z</time>
      </trkpt>
      <trkpt lat="43.14438" lon="3.14603">
        <ele>1.4</ele>
        <time>2021-07-20T10:02:50Z</time>
      </trkpt>
      <trkpt lat="43.14438" lon="3.14603">
        <ele>1.4</ele>
        <time>2021-07-20T10:02:51Z</time>
      </trkpt>
      <trkpt lat="43.14438" lon="3.14603">
        <ele>1.4</ele>
        <time>2021-07-20T10:02:52Z</time>
      </trkpt>
      <trkpt lat="43.14438" lon="3.14603">
        <ele>1.4</ele>
        <time>2021-07-20T10:02:53Z</time>
      </trkpt>
      <trkpt lat="43.14438" lon="3.14603">
        <ele>1.4</ele>
        <time>2021-07-20T10:02:54Z</time>
      </trkpt>
      <trkpt lat="43.14436" lon="3.146">
        <ele>-4.3327</ele>
        <time>2021-07-20T10:02:55Z</time>
      </trkpt>
      <trkpt lat="43.14436" lon="3.146">
        <ele>1.3</ele>
        <time>2021-07-20T10:02:56Z</time>
      </trkpt>
      <trkpt lat="43.14436" lon="3.146">
        <ele>1.3</ele>
        <time>2021-07-20T10:02:57Z</time>
      </trkpt>
      <trkpt lat="43.14436" lon="3.146">
        <ele>1.3</ele>
        <time>2021-07-20T10:02:58Z</time>
      </trkpt>
      <trkpt lat="43.14436" lon="3.146">
        <ele>1.3</ele>
        <time>2021-07-20T10:02:59Z</time>
      </trkpt>
      <trkpt lat="43.14436" lon="3.146">
        <ele>1.3</ele>
        <time>2021-07-20T10:03:00Z</time>
      </trkpt>
      <trkpt lat="43.14436" lon="3.146">
        <ele>1.3</ele>
        <time>2021-07-20T10:03:01Z</time>
      </trkpt>
      <trkpt lat="43.14436" lon="3.146">
        <ele>1.3</ele>
        <time>2021-07-20T10:03:02Z</time>
      </trkpt>
      <trkpt lat="43.14436" lon="3.146">
        <ele>1.3</ele>
        <time>2021-07-20T10:03:03Z</time>
      </trkpt>
      <trkpt lat="43.14436" lon="3.146">
        <ele>1.3</ele>
        <time>2021-07-20T10:03:04Z</time>
      </trkpt>
      <trkpt lat="43.14436" lon="3.146">
        <ele>-4.376272</ele>
        <time>2021-07-20T10:03:05Z</time>
      </trkpt>
      <trkpt lat="43.14436" lon="3.146">
        <ele>1.3</ele>
        <time>2021-07-20T10:03:06Z</time>
      </trkpt>
      <trkpt lat="43.14436" lon="3.146">
        <ele>1.3</ele>
        <time>2021-07-20T10:03:07Z</time>
      </trkpt>
      <trkpt lat="43.14436" lon="3.146">
        <ele>1.3</ele>
        <time>2021-07-20T10:03:08Z</time>
      </trkpt>
      <trkpt lat="43.14436" lon="3.146">
        <ele>1.3</ele>
        <time>2021-07-20T10:03:09Z</time>
      </trkpt>
      <trkpt lat="43.14436" lon="3.146">
        <ele>1.3</ele>
        <time>2021-07-20T10:03:10Z</time>
      </trkpt>
      <trkpt lat="43.14436" lon="3.146">
        <ele>1.3</ele>
        <time>2021-07-20T10:03:11Z</time>
      </trkpt>
      <trkpt lat="43.14436" lon="3.146">
        <ele>1.3</ele>
        <time>2021-07-20T10:03:12Z</time>
      </trkpt>
      <trkpt lat="43.14436" lon="3.146">
        <ele>1.3</ele>
        <time>2021-07-20T10:03:13Z</time>
      </trkpt>
      <trkpt lat="43.14436" lon="3.146">
        <ele>1.3</ele>
        <time>2021-07-20T10:03:14Z</time>
      </trkpt>
      <trkpt lat="43.14436" lon="3.146">
        <ele>-4.3524113</ele>
        <time>2021-07-20T10:03:15Z</time>
      </trkpt>
      <trkpt lat="43.14436" lon="3.146">
        <ele>1.3</ele>
        <time>2021-07-20T10:03:16Z</time>
      </trkpt>
      <trkpt lat="43.14436" lon="3.146">
        <ele>1.3</ele>
        <time>2021-07-20T10:03:17Z</time>
      </trkpt>
      <trkpt lat="43.14436" lon="3.146">
        <ele>1.3</ele>
        <time>2021-07-20T10:03:18Z</time>
      </trkpt>
      <trkpt lat="43.14436" lon="3.146">
        <ele>1.3</ele>
        <time>2021-07-20T10:03:19Z</time>
      </trkpt>
      <trkpt lat="43.14436" lon="3.146">
        <ele>1.3</ele>
        <time>2021-07-20T10:03:20Z</time>
      </trkpt>
      <trkpt lat="43.14436" lon="3.146">
        <ele>1.3</ele>
        <time>2021-07-20T10:03:21Z</time>
      </trkpt>
      <trkpt lat="43.14436" lon="3.146">
        <ele>1.3</ele>
        <time>2021-07-20T10:03:22Z</time>
      </trkpt>
      <trkpt lat="43.14436" lon="3.146">
        <ele>1.3</ele>
        <time>2021-07-20T10:03:23Z</time>
      </trkpt>
      <trkpt lat="43.14436" lon="3.146">
        <ele>1.3</ele>
        <time>2021-07-20T10:03:24Z</time>
      </trkpt>
      <trkpt lat="43.14436" lon="3.146">
        <ele>-4.391834</ele>
        <time>2021-07-20T10:03:25Z</time>
      </trkpt>
      <trkpt lat="43.14436" lon="3.146">
        <ele>1.3</ele>
        <time>2021-07-20T10:03:26Z</time>
      </trkpt>
      <trkpt lat="43.14436" lon="3.146">
        <ele>1.3</ele>
        <time>2021-07-20T10:03:27Z</time>
      </trkpt>
      <trkpt lat="43.14436" lon="3.146">
        <ele>1.3</ele>
        <time>2021-07-20T10:03:28Z</time>
      </trkpt>
      <trkpt lat="43.14436" lon="3.146">
        <ele>1.3</ele>
        <time>2021-07-20T10:03:29Z</time>
      </trkpt>
      <trkpt lat="43.14436" lon="3.146">
        <ele>1.3</ele>
        <time>2021-07-20T10:03:30Z</time>
      </trkpt>
      <trkpt lat="43.14436" lon="3.146">
        <ele>1.3</ele>
        <time>2021-07-20T10:03:31Z</time>
      </trkpt>
      <trkpt lat="43.14436" lon="3.146">
        <ele>1.3</ele>
        <time>2021-07-20T10:03:32Z</time>
      </trkpt>
      <trkpt lat="43.14436" lon="3.146">
        <ele>1.3</ele>
        <time>2021-07-20T10:03:33Z</time>
      </trkpt>
      <trkpt lat="43.14436" lon="3.146">
        <ele>1.3</ele>
        <time>2021-07-20T10:03:34Z</time>
      </trkpt>
      <trkpt lat="43.14436" lon="3.146">
        <ele>1.3</ele>
        <time>2021-07-20T10:03:35Z</time>
      </trkpt>
      <trkpt lat="43.14436" lon="3.146">
        <ele>-4.481053</ele>
        <time>2021-07-20T10:03:36Z</time>
      </trkpt>
      <trkpt lat="43.14436" lon="3.146">
        <ele>1.3</ele>
        <time>2021-07-20T10:03:37Z</time>
      </trkpt>
      <trkpt lat="43.14436" lon="3.14599">
        <ele>1.3</ele>
        <time>2021-07-20T10:03:38Z</time>
      </trkpt>
      <trkpt lat="43.14436" lon="3.14598">
        <ele>1.3</ele>
        <time>2021-07-20T10:03:39Z</time>
      </trkpt>
      <trkpt lat="43.14434" lon="3.14598">
        <ele>1.3</ele>
        <time>2021-07-20T10:03:40Z</time>
      </trkpt>
      <trkpt lat="43.14432" lon="3.14599">
        <ele>1.3</ele>
        <time>2021-07-20T10:03:41Z</time>
      </trkpt>
      <trkpt lat="43.1443" lon="3.14601">
        <ele>1.4</ele>
        <time>2021-07-20T10:03:42Z</time>
      </trkpt>
      <trkpt lat="43.14428" lon="3.14603">
        <ele>1.4</ele>
        <time>2021-07-20T10:03:43Z</time>
      </trkpt>
      <trkpt lat="43.14426" lon="3.14606">
        <ele>1.5</ele>
        <time>2021-07-20T10:03:44Z</time>
      </trkpt>
      <trkpt lat="43.14424" lon="3.14608">
        <ele>1.5</ele>
        <time>2021-07-20T10:03:45Z</time>
      </trkpt>
      <trkpt lat="43.14422" lon="3.1461">
        <ele>-4.457192</ele>
        <time>2021-07-20T10:03:46Z</time>
      </trkpt>
      <trkpt lat="43.14419" lon="3.14612">
        <ele>1.7</ele>
        <time>2021-07-20T10:03:47Z</time>
      </trkpt>
      <trkpt lat="43.14417" lon="3.14615">
        <ele>1.8</ele>
        <time>2021-07-20T10:03:48Z</time>
      </trkpt>
      <trkpt lat="43.14415" lon="3.14617">
        <ele>1.8</ele>
        <time>2021-07-20T10:03:49Z</time>
      </trkpt>
      <trkpt lat="43.14412" lon="3.1462">
        <ele>1.8</ele>
        <time>2021-07-20T10:03:50Z</time>
      </trkpt>
      <trkpt lat="43.14409" lon="3.14622">
        <ele>1.9</ele>
        <time>2021-07-20T10:03:51Z</time>
      </trkpt>
      <trkpt lat="43.14407" lon="3.14625">
        <ele>1.9</ele>
        <time>2021-07-20T10:03:52Z</time>
      </trkpt>
      <trkpt lat="43.14404" lon="3.14627">
        <ele>1.9</ele>
        <time>2021-07-20T10:03:53Z</time>
      </trkpt>
      <trkpt lat="43.14401" lon="3.1463">
        <ele>1.9</ele>
        <time>2021-07-20T10:03:54Z</time>
      </trkpt>
      <trkpt lat="43.14399" lon="3.14632">
        <ele>1.9</ele>
        <time>2021-07-20T10:03:55Z</time>
      </trkpt>
      <trkpt lat="43.14396" lon="3.14635">
        <ele>-4.8607492</ele>
        <time>2021-07-20T10:03:56Z</time>
      </trkpt>
      <trkpt lat="43.14393" lon="3.14638">
        <ele>1.9</ele>
        <time>2021-07-20T10:03:57Z</time>
      </trkpt>
      <trkpt lat="43.1439" lon="3.1464">
        <ele>1.9</ele>
        <time>2021-07-20T10:03:58Z</time>
      </trkpt>
      <trkpt lat="43.14388" lon="3.14643">
        <ele>1.9</ele>
        <time>2021-07-20T10:03:59Z</time>
      </trkpt>
      <trkpt lat="43.14385" lon="3.14646">
        <ele>1.9</ele>
        <time>2021-07-20T10:04:00Z</time>
      </trkpt>
      <trkpt lat="43.14381" lon="3.14649">
        <ele>1.9</ele>
        <time>2021-07-20T10:04:01Z</time>
      </trkpt>
      <trkpt lat="43.14378" lon="3.14652">
        <ele>1.9</ele>
        <time>2021-07-20T10:04:02Z</time>
      </trkpt>
      <trkpt lat="43.14375" lon="3.14655">
        <ele>1.9</ele>
        <time>2021-07-20T10:04:03Z</time>
      </trkpt>
      <trkpt lat="43.14372" lon="3.14657">
        <ele>1.8</ele>
        <time>2021-07-20T10:04:04Z</time>
      </trkpt>
      <trkpt lat="43.14369" lon="3.1466">
        <ele>1.8</ele>
        <time>2021-07-20T10:04:05Z</time>
      </trkpt>
      <trkpt lat="43.14366" lon="3.14663">
        <ele>-5.0599318</ele>
        <time>2021-07-20T10:04:06Z</time>
      </trkpt>
      <trkpt lat="43.14364" lon="3.14666">
        <ele>1.7</ele>
        <time>2021-07-20T10:04:07Z</time>
      </trkpt>
      <trkpt lat="43.14361" lon="3.1467">
        <ele>1.7</ele>
        <time>2021-07-20T10:04:08Z</time>
      </trkpt>
      <trkpt lat="43.14358" lon="3.14674">
        <ele>1.6</ele>
        <time>2021-07-20T10:04:09Z</time>
      </trkpt>
      <trkpt lat="43.14356" lon="3.14678">
        <ele>1.5</ele>
        <time>2021-07-20T10:04:10Z</time>
      </trkpt>
      <trkpt lat="43.14354" lon="3.14681">
        <ele>1.4</ele>
        <time>2021-07-20T10:04:11Z</time>
      </trkpt>
      <trkpt lat="43.14351" lon="3.14685">
        <ele>1.4</ele>
        <time>2021-07-20T10:04:12Z</time>
      </trkpt>
      <trkpt lat="43.14348" lon="3.14689">
        <ele>1.3</ele>
        <time>2021-07-20T10:04:13Z</time>
      </trkpt>
      <trkpt lat="43.14346" lon="3.14692">
        <ele>1.2</ele>
        <time>2021-07-20T10:04:14Z</time>
      </trkpt>
      <trkpt lat="43.14343" lon="3.14696">
        <ele>1.2</ele>
        <time>2021-07-20T10:04:15Z</time>
      </trkpt>
      <trkpt lat="43.14341" lon="3.147">
        <ele>-4.9800515</ele>
        <time>2021-07-20T10:04:16Z</time>
      </trkpt>
      <trkpt lat="43.14338" lon="3.14703">
        <ele>1.1</ele>
        <time>2021-07-20T10:04:17Z</time>
      </trkpt>
      <trkpt lat="43.14335" lon="3.14706">
        <ele>1</ele>
        <time>2021-07-20T10:04:18Z</time>
      </trkpt>
      <trkpt lat="43.14332" lon="3.1471">
        <ele>1</ele>
        <time>2021-07-20T10:04:19Z</time>
      </trkpt>
      <trkpt lat="43.14329" lon="3.14713">
        <ele>1</ele>
        <time>2021-07-20T10:04:20Z</time>
      </trkpt>
      <trkpt lat="43.14325" lon="3.14717">
        <ele>1</ele>
        <time>2021-07-20T10:04:21Z</time>
      </trkpt>
      <trkpt lat="43.14323" lon="3.1472">
        <ele>1</ele>
        <time>2021-07-20T10:04:22Z</time>
      </trkpt>
      <trkpt lat="43.14319" lon="3.14723">
        <ele>1</ele>
        <time>2021-07-20T10:04:23Z</time>
      </trkpt>
      <trkpt lat="43.14316" lon="3.14727">
        <ele>1</ele>
        <time>2021-07-20T10:04:24Z</time>
      </trkpt>
      <trkpt lat="43.14313" lon="3.14729">
        <ele>-4.957228</ele>
        <time>2021-07-20T10:04:25Z</time>
      </trkpt>
      <trkpt lat="43.14309" lon="3.14732">
        <ele>1</ele>
        <time>2021-07-20T10:04:26Z</time>
      </trkpt>
      <trkpt lat="43.14306" lon="3.14735">
        <ele>1</ele>
        <time>2021-07-20T10:04:27Z</time>
      </trkpt>
      <trkpt lat="43.14302" lon="3.14738">
        <ele>1</ele>
        <time>2021-07-20T10:04:28Z</time>
      </trkpt>
      <trkpt lat="43.14299" lon="3.14741">
        <ele>1</ele>
        <time>2021-07-20T10:04:29Z</time>
      </trkpt>
      <trkpt lat="43.14296" lon="3.14744">
        <ele>1</ele>
        <time>2021-07-20T10:04:30Z</time>
      </trkpt>
      <trkpt lat="43.14293" lon="3.14747">
        <ele>1</ele>
        <time>2021-07-20T10:04:31Z</time>
      </trkpt>
      <trkpt lat="43.1429" lon="3.1475">
        <ele>1</ele>
        <time>2021-07-20T10:04:32Z</time>
      </trkpt>
      <trkpt lat="43.14286" lon="3.14753">
        <ele>1</ele>
        <time>2021-07-20T10:04:33Z</time>
      </trkpt>
      <trkpt lat="43.14283" lon="3.14756">
        <ele>1</ele>
        <time>2021-07-20T10:04:34Z</time>
      </trkpt>
      <trkpt lat="43.1428" lon="3.14759">
        <ele>-4.9043202</ele>
        <time>2021-07-20T10:04:35Z</time>
      </trkpt>
      <trkpt lat="43.14277" lon="3.14762">
        <ele>1</ele>
        <time>2021-07-20T10:04:36Z</time>
      </trkpt>
      <trkpt lat="43.14273" lon="3.14765">
        <ele>1.1</ele>
        <time>2021-07-20T10:04:37Z</time>
      </trkpt>
      <trkpt lat="43.1427" lon="3.14768">
        <ele>1.1</ele>
        <time>2021-07-20T10:04:38Z</time>
      </trkpt>
      <trkpt lat="43.14267" lon="3.14771">
        <ele>1.1</ele>
        <time>2021-07-20T10:04:39Z</time>
      </trkpt>
      <trkpt lat="43.14264" lon="3.14774">
        <ele>1</ele>
        <time>2021-07-20T10:04:40Z</time>
      </trkpt>
      <trkpt lat="43.1426" lon="3.14777">
        <ele>1</ele>
        <time>2021-07-20T10:04:41Z</time>
      </trkpt>
      <trkpt lat="43.14257" lon="3.1478">
        <ele>1</ele>
        <time>2021-07-20T10:04:42Z</time>
      </trkpt>
      <trkpt lat="43.14254" lon="3.14783">
        <ele>1</ele>
        <time>2021-07-20T10:04:43Z</time>
      </trkpt>
      <trkpt lat="43.14251" lon="3.14785">
        <ele>1</ele>
        <time>2021-07-20T10:04:44Z</time>
      </trkpt>
      <trkpt lat="43.14248" lon="3.14788">
        <ele>-4.785018</ele>
        <time>2021-07-20T10:04:45Z</time>
      </trkpt>
      <trkpt lat="43.14245" lon="3.14791">
        <ele>1</ele>
        <time>2021-07-20T10:04:46Z</time>
      </trkpt>
      <trkpt lat="43.14242" lon="3.14794">
        <ele>1</ele>
        <time>2021-07-20T10:04:47Z</time>
      </trkpt>
      <trkpt lat="43.14239" lon="3.14796">
        <ele>1</ele>
        <time>2021-07-20T10:04:48Z</time>
      </trkpt>
      <trkpt lat="43.14236" lon="3.14799">
        <ele>1</ele>
        <time>2021-07-20T10:04:49Z</time>
      </trkpt>
      <trkpt lat="43.14233" lon="3.14802">
        <ele>1</ele>
        <time>2021-07-20T10:04:50Z</time>
      </trkpt>
      <trkpt lat="43.1423" lon="3.14805">
        <ele>1</ele>
        <time>2021-07-20T10:04:51Z</time>
      </trkpt>
      <trkpt lat="43.14227" lon="3.14807">
        <ele>1</ele>
        <time>2021-07-20T10:04:52Z</time>
      </trkpt>
      <trkpt lat="43.14225" lon="3.1481">
        <ele>1</ele>
        <time>2021-07-20T10:04:53Z</time>
      </trkpt>
      <trkpt lat="43.14222" lon="3.14812">
        <ele>1</ele>
        <time>2021-07-20T10:04:54Z</time>
      </trkpt>
      <trkpt lat="43.14219" lon="3.14815">
        <ele>-5.0983157</ele>
        <time>2021-07-20T10:04:55Z</time>
      </trkpt>
      <trkpt lat="43.14217" lon="3.14817">
        <ele>1</ele>
        <time>2021-07-20T10:04:56Z</time>
      </trkpt>
      <trkpt lat="43.14215" lon="3.1482">
        <ele>1</ele>
        <time>2021-07-20T10:04:57Z</time>
      </trkpt>
      <trkpt lat="43.14212" lon="3.14822">
        <ele>1</ele>
        <time>2021-07-20T10:04:58Z</time>
      </trkpt>
      <trkpt lat="43.14209" lon="3.14825">
        <ele>1</ele>
        <time>2021-07-20T10:04:59Z</time>
      </trkpt>
      <trkpt lat="43.14207" lon="3.14827">
        <ele>1</ele>
        <time>2021-07-20T10:05:00Z</time>
      </trkpt>
      <trkpt lat="43.14204" lon="3.1483">
        <ele>1</ele>
        <time>2021-07-20T10:05:01Z</time>
      </trkpt>
      <trkpt lat="43.14201" lon="3.14832">
        <ele>1</ele>
        <time>2021-07-20T10:05:02Z</time>
      </trkpt>
      <trkpt lat="43.14198" lon="3.14835">
        <ele>1</ele>
        <time>2021-07-20T10:05:03Z</time>
      </trkpt>
      <trkpt lat="43.14195" lon="3.14838">
        <ele>1</ele>
        <time>2021-07-20T10:05:04Z</time>
      </trkpt>
      <trkpt lat="43.14192" lon="3.14841">
        <ele>-5.262224</ele>
        <time>2021-07-20T10:05:05Z</time>
      </trkpt>
      <trkpt lat="43.1419" lon="3.14844">
        <ele>1.1</ele>
        <time>2021-07-20T10:05:06Z</time>
      </trkpt>
      <trkpt lat="43.14187" lon="3.14846">
        <ele>1.1</ele>
        <time>2021-07-20T10:05:07Z</time>
      </trkpt>
      <trkpt lat="43.14184" lon="3.14849">
        <ele>1.1</ele>
        <time>2021-07-20T10:05:08Z</time>
      </trkpt>
      <trkpt lat="43.14181" lon="3.14851">
        <ele>1.2</ele>
        <time>2021-07-20T10:05:09Z</time>
      </trkpt>
      <trkpt lat="43.14179" lon="3.14854">
        <ele>1.2</ele>
        <time>2021-07-20T10:05:10Z</time>
      </trkpt>
      <trkpt lat="43.14175" lon="3.14856">
        <ele>1.2</ele>
        <time>2021-07-20T10:05:11Z</time>
      </trkpt>
      <trkpt lat="43.14172" lon="3.14859">
        <ele>1.3</ele>
        <time>2021-07-20T10:05:12Z</time>
      </trkpt>
      <trkpt lat="43.1417" lon="3.14861">
        <ele>1.3</ele>
        <time>2021-07-20T10:05:13Z</time>
      </trkpt>
      <trkpt lat="43.14168" lon="3.14863">
        <ele>1.4</ele>
        <time>2021-07-20T10:05:14Z</time>
      </trkpt>
      <trkpt lat="43.14166" lon="3.14865">
        <ele>1.4</ele>
        <time>2021-07-20T10:05:15Z</time>
      </trkpt>
      <trkpt lat="43.14163" lon="3.14868">
        <ele>-5.426132</ele>
        <time>2021-07-20T10:05:16Z</time>
      </trkpt>
      <trkpt lat="43.1416" lon="3.14869">
        <ele>1.4</ele>
        <time>2021-07-20T10:05:17Z</time>
      </trkpt>
      <trkpt lat="43.14158" lon="3.1487">
        <ele>1.4</ele>
        <time>2021-07-20T10:05:18Z</time>
      </trkpt>
      <trkpt lat="43.14155" lon="3.1487">
        <ele>1.4</ele>
        <time>2021-07-20T10:05:19Z</time>
      </trkpt>
      <trkpt lat="43.14152" lon="3.1487">
        <ele>1.4</ele>
        <time>2021-07-20T10:05:20Z</time>
      </trkpt>
      <trkpt lat="43.1415" lon="3.14868">
        <ele>1.4</ele>
        <time>2021-07-20T10:05:21Z</time>
      </trkpt>
      <trkpt lat="43.14147" lon="3.14866">
        <ele>1.4</ele>
        <time>2021-07-20T10:05:22Z</time>
      </trkpt>
      <trkpt lat="43.14145" lon="3.14864">
        <ele>1.4</ele>
        <time>2021-07-20T10:05:23Z</time>
      </trkpt>
      <trkpt lat="43.14143" lon="3.14862">
        <ele>1.3</ele>
        <time>2021-07-20T10:05:24Z</time>
      </trkpt>
      <trkpt lat="43.14142" lon="3.1486">
        <ele>1.3</ele>
        <time>2021-07-20T10:05:25Z</time>
      </trkpt>
      <trkpt lat="43.1414" lon="3.14858">
        <ele>-5.35559</ele>
        <time>2021-07-20T10:05:26Z</time>
      </trkpt>
      <trkpt lat="43.14139" lon="3.14856">
        <ele>1.3</ele>
        <time>2021-07-20T10:05:27Z</time>
      </trkpt>
      <trkpt lat="43.14138" lon="3.14855">
        <ele>1.3</ele>
        <time>2021-07-20T10:05:28Z</time>
      </trkpt>
      <trkpt lat="43.14137" lon="3.14853">
        <ele>1.2</ele>
        <time>2021-07-20T10:05:29Z</time>
      </trkpt>
      <trkpt lat="43.14136" lon="3.14852">
        <ele>1.2</ele>
        <time>2021-07-20T10:05:30Z</time>
      </trkpt>
      <trkpt lat="43.14136" lon="3.14852">
        <ele>1.2</ele>
        <time>2021-07-20T10:05:31Z</time>
      </trkpt>
      <trkpt lat="43.14136" lon="3.14852">
        <ele>1.2</ele>
        <time>2021-07-20T10:05:32Z</time>
      </trkpt>
      <trkpt lat="43.14136" lon="3.14852">
        <ele>1.2</ele>
        <time>2021-07-20T10:05:33Z</time>
      </trkpt>
      <trkpt lat="43.14136" lon="3.14852">
        <ele>1.2</ele>
        <time>2021-07-20T10:05:34Z</time>
      </trkpt>
      <trkpt lat="43.14136" lon="3.14852">
        <ele>1.2</ele>
        <time>2021-07-20T10:05:35Z</time>
      </trkpt>
      <trkpt lat="43.14136" lon="3.14852">
        <ele>-6.2332053</ele>
        <time>2021-07-20T10:05:36Z</time>
      </trkpt>
      <trkpt lat="43.14135" lon="3.14851">
        <ele>1.2</ele>
        <time>2021-07-20T10:05:39Z</time>
      </trkpt>
      <trkpt lat="43.14135" lon="3.14851">
        <ele>1.2</ele>
        <time>2021-07-20T10:05:40Z</time>
      </trkpt>
      <trkpt lat="43.14134" lon="3.1485">
        <ele>1.2</ele>
        <time>2021-07-20T10:05:41Z</time>
      </trkpt>
      <trkpt lat="43.14133" lon="3.14849">
        <ele>1.2</ele>
        <time>2021-07-20T10:05:42Z</time>
      </trkpt>
      <trkpt lat="43.14132" lon="3.14848">
        <ele>1.2</ele>
        <time>2021-07-20T10:05:43Z</time>
      </trkpt>
      <trkpt lat="43.14132" lon="3.14847">
        <ele>1.2</ele>
        <time>2021-07-20T10:05:44Z</time>
      </trkpt>
      <trkpt lat="43.14131" lon="3.14846">
        <ele>1.2</ele>
        <time>2021-07-20T10:05:45Z</time>
      </trkpt>
      <trkpt lat="43.1413" lon="3.14845">
        <ele>1.1</ele>
        <time>2021-07-20T10:05:46Z</time>
      </trkpt>
      <trkpt lat="43.14129" lon="3.14844">
        <ele>1.1</ele>
        <time>2021-07-20T10:05:47Z</time>
      </trkpt>
      <trkpt lat="43.14128" lon="3.14843">
        <ele>1.1</ele>
        <time>2021-07-20T10:05:48Z</time>
      </trkpt>
      <trkpt lat="43.14127" lon="3.14842">
        <ele>1.1</ele>
        <time>2021-07-20T10:05:49Z</time>
      </trkpt>
      <trkpt lat="43.14127" lon="3.14841">
        <ele>-6.332791</ele>
        <time>2021-07-20T10:05:50Z</time>
      </trkpt>
      <trkpt lat="43.14125" lon="3.1484">
        <ele>1.1</ele>
        <time>2021-07-20T10:05:51Z</time>
      </trkpt>
      <trkpt lat="43.14125" lon="3.14839">
        <ele>1.1</ele>
        <time>2021-07-20T10:05:52Z</time>
      </trkpt>
      <trkpt lat="43.14124" lon="3.14838">
        <ele>1.1</ele>
        <time>2021-07-20T10:05:53Z</time>
      </trkpt>
      <trkpt lat="43.14123" lon="3.14837">
        <ele>1</ele>
        <time>2021-07-20T10:05:54Z</time>
      </trkpt>
      <trkpt lat="43.14122" lon="3.14836">
        <ele>1</ele>
        <time>2021-07-20T10:05:55Z</time>
      </trkpt>
      <trkpt lat="43.14122" lon="3.14835">
        <ele>1</ele>
        <time>2021-07-20T10:05:56Z</time>
      </trkpt>
      <trkpt lat="43.14121" lon="3.14834">
        <ele>1</ele>
        <time>2021-07-20T10:05:57Z</time>
      </trkpt>
      <trkpt lat="43.1412" lon="3.14833">
        <ele>1</ele>
        <time>2021-07-20T10:05:58Z</time>
      </trkpt>
      <trkpt lat="43.14119" lon="3.14831">
        <ele>1</ele>
        <time>2021-07-20T10:05:59Z</time>
      </trkpt>
      <trkpt lat="43.14118" lon="3.1483">
        <ele>1</ele>
        <time>2021-07-20T10:06:00Z</time>
      </trkpt>
      <trkpt lat="43.14117" lon="3.14829">
        <ele>-6.460384</ele>
        <time>2021-07-20T10:06:01Z</time>
      </trkpt>
      <trkpt lat="43.14116" lon="3.14828">
        <ele>1</ele>
        <time>2021-07-20T10:06:02Z</time>
      </trkpt>
      <trkpt lat="43.14115" lon="3.14828">
        <ele>1</ele>
        <time>2021-07-20T10:06:03Z</time>
      </trkpt>
      <trkpt lat="43.14114" lon="3.14827">
        <ele>1</ele>
        <time>2021-07-20T10:06:04Z</time>
      </trkpt>
      <trkpt lat="43.14113" lon="3.14826">
        <ele>1</ele>
        <time>2021-07-20T10:06:05Z</time>
      </trkpt>
      <trkpt lat="43.14112" lon="3.14825">
        <ele>1</ele>
        <time>2021-07-20T10:06:06Z</time>
      </trkpt>
      <trkpt lat="43.14111" lon="3.14824">
        <ele>1</ele>
        <time>2021-07-20T10:06:07Z</time>
      </trkpt>
      <trkpt lat="43.14111" lon="3.14822">
        <ele>1</ele>
        <time>2021-07-20T10:06:08Z</time>
      </trkpt>
      <trkpt lat="43.1411" lon="3.14821">
        <ele>1</ele>
        <time>2021-07-20T10:06:09Z</time>
      </trkpt>
      <trkpt lat="43.14109" lon="3.1482">
        <ele>1</ele>
        <time>2021-07-20T10:06:10Z</time>
      </trkpt>
      <trkpt lat="43.14109" lon="3.14818">
        <ele>-6.300633</ele>
        <time>2021-07-20T10:06:11Z</time>
      </trkpt>
      <trkpt lat="43.14108" lon="3.14817">
        <ele>1</ele>
        <time>2021-07-20T10:06:12Z</time>
      </trkpt>
      <trkpt lat="43.14107" lon="3.14816">
        <ele>1</ele>
        <time>2021-07-20T10:06:13Z</time>
      </trkpt>
      <trkpt lat="43.14106" lon="3.14815">
        <ele>1</ele>
        <time>2021-07-20T10:06:14Z</time>
      </trkpt>
      <trkpt lat="43.14105" lon="3.14813">
        <ele>1</ele>
        <time>2021-07-20T10:06:15Z</time>
      </trkpt>
      <trkpt lat="43.14104" lon="3.14812">
        <ele>1</ele>
        <time>2021-07-20T10:06:16Z</time>
      </trkpt>
      <trkpt lat="43.14103" lon="3.14811">
        <ele>1</ele>
        <time>2021-07-20T10:06:17Z</time>
      </trkpt>
      <trkpt lat="43.14102" lon="3.1481">
        <ele>1</ele>
        <time>2021-07-20T10:06:18Z</time>
      </trkpt>
      <trkpt lat="43.14101" lon="3.14809">
        <ele>1</ele>
        <time>2021-07-20T10:06:19Z</time>
      </trkpt>
      <trkpt lat="43.141" lon="3.14808">
        <ele>1</ele>
        <time>2021-07-20T10:06:20Z</time>
      </trkpt>
      <trkpt lat="43.14098" lon="3.14808">
        <ele>-6.196898</ele>
        <time>2021-07-20T10:06:21Z</time>
      </trkpt>
      <trkpt lat="43.14097" lon="3.14807">
        <ele>1</ele>
        <time>2021-07-20T10:06:22Z</time>
      </trkpt>
      <trkpt lat="43.14096" lon="3.14806">
        <ele>1</ele>
        <time>2021-07-20T10:06:23Z</time>
      </trkpt>
      <trkpt lat="43.14095" lon="3.14806">
        <ele>1</ele>
        <time>2021-07-20T10:06:24Z</time>
      </trkpt>
      <trkpt lat="43.14094" lon="3.14805">
        <ele>1</ele>
        <time>2021-07-20T10:06:25Z</time>
      </trkpt>
      <trkpt lat="43.14092" lon="3.14804">
        <ele>1</ele>
        <time>2021-07-20T10:06:26Z</time>
      </trkpt>
      <trkpt lat="43.14091" lon="3.14803">
        <ele>1</ele>
        <time>2021-07-20T10:06:27Z</time>
      </trkpt>
      <trkpt lat="43.1409" lon="3.14803">
        <ele>1</ele>
        <time>2021-07-20T10:06:28Z</time>
      </trkpt>
      <trkpt lat="43.1409" lon="3.14803">
        <ele>1</ele>
        <time>2021-07-20T10:06:29Z</time>
      </trkpt>
      <trkpt lat="43.14089" lon="3.14802">
        <ele>1</ele>
        <time>2021-07-20T10:06:30Z</time>
      </trkpt>
      <trkpt lat="43.14088" lon="3.14802">
        <ele>-6.0184727</ele>
        <time>2021-07-20T10:06:31Z</time>
      </trkpt>
      <trkpt lat="43.14088" lon="3.14802">
        <ele>1</ele>
        <time>2021-07-20T10:06:32Z</time>
      </trkpt>
      <trkpt lat="43.14087" lon="3.14801">
        <ele>1</ele>
        <time>2021-07-20T10:06:33Z</time>
      </trkpt>
      <trkpt lat="43.14086" lon="3.14801">
        <ele>1</ele>
        <time>2021-07-20T10:06:34Z</time>
      </trkpt>
      <trkpt lat="43.14086" lon="3.14801">
        <ele>1</ele>
        <time>2021-07-20T10:06:35Z</time>
      </trkpt>
      <trkpt lat="43.14086" lon="3.14801">
        <ele>1</ele>
        <time>2021-07-20T10:06:36Z</time>
      </trkpt>
      <trkpt lat="43.14085" lon="3.14801">
        <ele>1</ele>
        <time>2021-07-20T10:06:37Z</time>
      </trkpt>
      <trkpt lat="43.14085" lon="3.148">
        <ele>1</ele>
        <time>2021-07-20T10:06:38Z</time>
      </trkpt>
      <trkpt lat="43.14085" lon="3.148">
        <ele>1</ele>
        <time>2021-07-20T10:06:39Z</time>
      </trkpt>
      <trkpt lat="43.14084" lon="3.148">
        <ele>1</ele>
        <time>2021-07-20T10:06:40Z</time>
      </trkpt>
      <trkpt lat="43.14084" lon="3.148">
        <ele>-6.2456536</ele>
        <time>2021-07-20T10:06:41Z</time>
      </trkpt>
      <trkpt lat="43.14084" lon="3.148">
        <ele>1</ele>
        <time>2021-07-20T10:06:42Z</time>
      </trkpt>
      <trkpt lat="43.14084" lon="3.148">
        <ele>1</ele>
        <time>2021-07-20T10:06:43Z</time>
      </trkpt>
      <trkpt lat="43.14083" lon="3.148">
        <ele>1</ele>
        <time>2021-07-20T10:06:44Z</time>
      </trkpt>
      <trkpt lat="43.14083" lon="3.14799">
        <ele>1</ele>
        <time>2021-07-20T10:06:45Z</time>
      </trkpt>
      <trkpt lat="43.14082" lon="3.14799">
        <ele>1</ele>
        <time>2021-07-20T10:06:46Z</time>
      </trkpt>
      <trkpt lat="43.14082" lon="3.14799">
        <ele>1</ele>
        <time>2021-07-20T10:06:47Z</time>
      </trkpt>
      <trkpt lat="43.14082" lon="3.14799">
        <ele>1</ele>
        <time>2021-07-20T10:06:48Z</time>
      </trkpt>
      <trkpt lat="43.14081" lon="3.14799">
        <ele>1</ele>
        <time>2021-07-20T10:06:49Z</time>
      </trkpt>
      <trkpt lat="43.1408" lon="3.14799">
        <ele>1</ele>
        <time>2021-07-20T10:06:50Z</time>
      </trkpt>
      <trkpt lat="43.1408" lon="3.14798">
        <ele>-6.3078947</ele>
        <time>2021-07-20T10:06:51Z</time>
      </trkpt>
      <trkpt lat="43.14079" lon="3.14798">
        <ele>1</ele>
        <time>2021-07-20T10:06:52Z</time>
      </trkpt>
      <trkpt lat="43.14078" lon="3.14798">
        <ele>1</ele>
        <time>2021-07-20T10:06:53Z</time>
      </trkpt>
      <trkpt lat="43.14077" lon="3.14797">
        <ele>1</ele>
        <time>2021-07-20T10:06:54Z</time>
      </trkpt>
      <trkpt lat="43.14077" lon="3.14797">
        <ele>1</ele>
        <time>2021-07-20T10:06:55Z</time>
      </trkpt>
      <trkpt lat="43.14076" lon="3.14797">
        <ele>1</ele>
        <time>2021-07-20T10:06:56Z</time>
      </trkpt>
      <trkpt lat="43.14075" lon="3.14796">
        <ele>1</ele>
        <time>2021-07-20T10:06:57Z</time>
      </trkpt>
      <trkpt lat="43.14074" lon="3.14796">
        <ele>1</ele>
        <time>2021-07-20T10:06:58Z</time>
      </trkpt>
      <trkpt lat="43.14074" lon="3.14795">
        <ele>1</ele>
        <time>2021-07-20T10:06:59Z</time>
      </trkpt>
      <trkpt lat="43.14073" lon="3.14795">
        <ele>-6.1989727</ele>
        <time>2021-07-20T10:07:00Z</time>
      </trkpt>
      <trkpt lat="43.14072" lon="3.14794">
        <ele>1</ele>
        <time>2021-07-20T10:07:01Z</time>
      </trkpt>
      <trkpt lat="43.14071" lon="3.14794">
        <ele>1</ele>
        <time>2021-07-20T10:07:02Z</time>
      </trkpt>
      <trkpt lat="43.1407" lon="3.14793">
        <ele>1</ele>
        <time>2021-07-20T10:07:03Z</time>
      </trkpt>
      <trkpt lat="43.14069" lon="3.14793">
        <ele>1</ele>
        <time>2021-07-20T10:07:04Z</time>
      </trkpt>
      <trkpt lat="43.14069" lon="3.14793">
        <ele>1</ele>
        <time>2021-07-20T10:07:05Z</time>
      </trkpt>
      <trkpt lat="43.14068" lon="3.14792">
        <ele>1</ele>
        <time>2021-07-20T10:07:06Z</time>
      </trkpt>
      <trkpt lat="43.14068" lon="3.14792">
        <ele>1</ele>
        <time>2021-07-20T10:07:07Z</time>
      </trkpt>
      <trkpt lat="43.14067" lon="3.14792">
        <ele>1</ele>
        <time>2021-07-20T10:07:08Z</time>
      </trkpt>
      <trkpt lat="43.14067" lon="3.14792">
        <ele>1</ele>
        <time>2021-07-20T10:07:09Z</time>
      </trkpt>
      <trkpt lat="43.14066" lon="3.14791">
        <ele>-5.8576813</ele>
        <time>2021-07-20T10:07:10Z</time>
      </trkpt>
      <trkpt lat="43.14066" lon="3.14791">
        <ele>1</ele>
        <time>2021-07-20T10:07:11Z</time>
      </trkpt>
      <trkpt lat="43.14066" lon="3.14791">
        <ele>1</ele>
        <time>2021-07-20T10:07:12Z</time>
      </trkpt>
      <trkpt lat="43.14065" lon="3.1479">
        <ele>1</ele>
        <time>2021-07-20T10:07:13Z</time>
      </trkpt>
      <trkpt lat="43.14064" lon="3.14789">
        <ele>1</ele>
        <time>2021-07-20T10:07:14Z</time>
      </trkpt>
      <trkpt lat="43.14063" lon="3.14789">
        <ele>1</ele>
        <time>2021-07-20T10:07:15Z</time>
      </trkpt>
      <trkpt lat="43.14062" lon="3.14788">
        <ele>1</ele>
        <time>2021-07-20T10:07:16Z</time>
      </trkpt>
      <trkpt lat="43.14061" lon="3.14787">
        <ele>1</ele>
        <time>2021-07-20T10:07:17Z</time>
      </trkpt>
      <trkpt lat="43.1406" lon="3.14787">
        <ele>1</ele>
        <time>2021-07-20T10:07:18Z</time>
      </trkpt>
      <trkpt lat="43.14059" lon="3.14786">
        <ele>1</ele>
        <time>2021-07-20T10:07:19Z</time>
      </trkpt>
      <trkpt lat="43.14058" lon="3.14785">
        <ele>-6.102499</ele>
        <time>2021-07-20T10:07:20Z</time>
      </trkpt>
      <trkpt lat="43.14056" lon="3.14784">
        <ele>1</ele>
        <time>2021-07-20T10:07:21Z</time>
      </trkpt>
      <trkpt lat="43.14055" lon="3.14782">
        <ele>1</ele>
        <time>2021-07-20T10:07:22Z</time>
      </trkpt>
      <trkpt lat="43.14054" lon="3.14781">
        <ele>1</ele>
        <time>2021-07-20T10:07:23Z</time>
      </trkpt>
      <trkpt lat="43.14053" lon="3.1478">
        <ele>1</ele>
        <time>2021-07-20T10:07:24Z</time>
      </trkpt>
      <trkpt lat="43.14052" lon="3.14779">
        <ele>1</ele>
        <time>2021-07-20T10:07:25Z</time>
      </trkpt>
      <trkpt lat="43.14051" lon="3.14778">
        <ele>1</ele>
        <time>2021-07-20T10:07:26Z</time>
      </trkpt>
      <trkpt lat="43.14051" lon="3.14777">
        <ele>1</ele>
        <time>2021-07-20T10:07:27Z</time>
      </trkpt>
      <trkpt lat="43.1405" lon="3.14776">
        <ele>1</ele>
        <time>2021-07-20T10:07:28Z</time>
      </trkpt>
      <trkpt lat="43.1405" lon="3.14775">
        <ele>1</ele>
        <time>2021-07-20T10:07:29Z</time>
      </trkpt>
      <trkpt lat="43.14048" lon="3.14774">
        <ele>-6.1097603</ele>
        <time>2021-07-20T10:07:30Z</time>
      </trkpt>
      <trkpt lat="43.14048" lon="3.14773">
        <ele>1</ele>
        <time>2021-07-20T10:07:31Z</time>
      </trkpt>
      <trkpt lat="43.14048" lon="3.14772">
        <ele>1</ele>
        <time>2021-07-20T10:07:32Z</time>
      </trkpt>
      <trkpt lat="43.14047" lon="3.14771">
        <ele>1</ele>
        <time>2021-07-20T10:07:33Z</time>
      </trkpt>
      <trkpt lat="43.14047" lon="3.1477">
        <ele>1</ele>
        <time>2021-07-20T10:07:34Z</time>
      </trkpt>
      <trkpt lat="43.14046" lon="3.14768">
        <ele>1</ele>
        <time>2021-07-20T10:07:35Z</time>
      </trkpt>
      <trkpt lat="43.14046" lon="3.14767">
        <ele>1</ele>
        <time>2021-07-20T10:07:36Z</time>
      </trkpt>
      <trkpt lat="43.14045" lon="3.14766">
        <ele>1</ele>
        <time>2021-07-20T10:07:37Z</time>
      </trkpt>
      <trkpt lat="43.14045" lon="3.14765">
        <ele>1</ele>
        <time>2021-07-20T10:07:38Z</time>
      </trkpt>
      <trkpt lat="43.14044" lon="3.14763">
        <ele>1</ele>
        <time>2021-07-20T10:07:39Z</time>
      </trkpt>
      <trkpt lat="43.14043" lon="3.14762">
        <ele>1</ele>
        <time>2021-07-20T10:07:40Z</time>
      </trkpt>
      <trkpt lat="43.14043" lon="3.1476">
        <ele>-6.298558</ele>
        <time>2021-07-20T10:07:41Z</time>
      </trkpt>
      <trkpt lat="43.14042" lon="3.14759">
        <ele>1</ele>
        <time>2021-07-20T10:07:42Z</time>
      </trkpt>
      <trkpt lat="43.14042" lon="3.14758">
        <ele>1</ele>
        <time>2021-07-20T10:07:43Z</time>
      </trkpt>
      <trkpt lat="43.14042" lon="3.14756">
        <ele>1</ele>
        <time>2021-07-20T10:07:44Z</time>
      </trkpt>
      <trkpt lat="43.14041" lon="3.14755">
        <ele>1</ele>
        <time>2021-07-20T10:07:45Z</time>
      </trkpt>
      <trkpt lat="43.14041" lon="3.14753">
        <ele>1</ele>
        <time>2021-07-20T10:07:46Z</time>
      </trkpt>
      <trkpt lat="43.1404" lon="3.14752">
        <ele>1</ele>
        <time>2021-07-20T10:07:47Z</time>
      </trkpt>
      <trkpt lat="43.1404" lon="3.1475">
        <ele>1</ele>
        <time>2021-07-20T10:07:48Z</time>
      </trkpt>
      <trkpt lat="43.1404" lon="3.14749">
        <ele>1</ele>
        <time>2021-07-20T10:07:49Z</time>
      </trkpt>
      <trkpt lat="43.14039" lon="3.14748">
        <ele>1</ele>
        <time>2021-07-20T10:07:50Z</time>
      </trkpt>
      <trkpt lat="43.14039" lon="3.14746">
        <ele>-6.25084</ele>
        <time>2021-07-20T10:07:51Z</time>
      </trkpt>
      <trkpt lat="43.14039" lon="3.14745">
        <ele>1</ele>
        <time>2021-07-20T10:07:52Z</time>
      </trkpt>
      <trkpt lat="43.14039" lon="3.14745">
        <ele>1</ele>
        <time>2021-07-20T10:07:53Z</time>
      </trkpt>
      <trkpt lat="43.14039" lon="3.14745">
        <ele>1</ele>
        <time>2021-07-20T10:07:54Z</time>
      </trkpt>
      <trkpt lat="43.14039" lon="3.14745">
        <ele>1</ele>
        <time>2021-07-20T10:07:55Z</time>
      </trkpt>
      <trkpt lat="43.14039" lon="3.14745">
        <ele>1</ele>
        <time>2021-07-20T10:07:56Z</time>
      </trkpt>
      <trkpt lat="43.14039" lon="3.14745">
        <ele>1</ele>
        <time>2021-07-20T10:07:57Z</time>
      </trkpt>
      <trkpt lat="43.14039" lon="3.14745">
        <ele>1</ele>
        <time>2021-07-20T10:07:58Z</time>
      </trkpt>
      <trkpt lat="43.14039" lon="3.14745">
        <ele>1</ele>
        <time>2021-07-20T10:07:59Z</time>
      </trkpt>
      <trkpt lat="43.14039" lon="3.14744">
        <ele>1</ele>
        <time>2021-07-20T10:08:00Z</time>
      </trkpt>
      <trkpt lat="43.14039" lon="3.14743">
        <ele>-6.196898</ele>
        <time>2021-07-20T10:08:01Z</time>
      </trkpt>
      <trkpt lat="43.14039" lon="3.14743">
        <ele>1</ele>
        <time>2021-07-20T10:08:02Z</time>
      </trkpt>
      <trkpt lat="43.14039" lon="3.14742">
        <ele>1</ele>
        <time>2021-07-20T10:08:03Z</time>
      </trkpt>
      <trkpt lat="43.14039" lon="3.14741">
        <ele>1</ele>
        <time>2021-07-20T10:08:04Z</time>
      </trkpt>
      <trkpt lat="43.14039" lon="3.1474">
        <ele>1</ele>
        <time>2021-07-20T10:08:05Z</time>
      </trkpt>
      <trkpt lat="43.14039" lon="3.14739">
        <ele>1</ele>
        <time>2021-07-20T10:08:06Z</time>
      </trkpt>
      <trkpt lat="43.14039" lon="3.14737">
        <ele>1</ele>
        <time>2021-07-20T10:08:07Z</time>
      </trkpt>
      <trkpt lat="43.14039" lon="3.14736">
        <ele>1</ele>
        <time>2021-07-20T10:08:08Z</time>
      </trkpt>
      <trkpt lat="43.14039" lon="3.14735">
        <ele>1</ele>
        <time>2021-07-20T10:08:09Z</time>
      </trkpt>
      <trkpt lat="43.14039" lon="3.14733">
        <ele>1</ele>
        <time>2021-07-20T10:08:10Z</time>
      </trkpt>
      <trkpt lat="43.14039" lon="3.14732">
        <ele>-6.030921</ele>
        <time>2021-07-20T10:08:11Z</time>
      </trkpt>
      <trkpt lat="43.14039" lon="3.1473">
        <ele>1</ele>
        <time>2021-07-20T10:08:12Z</time>
      </trkpt>
      <trkpt lat="43.14039" lon="3.14728">
        <ele>1</ele>
        <time>2021-07-20T10:08:13Z</time>
      </trkpt>
      <trkpt lat="43.14039" lon="3.14727">
        <ele>1</ele>
        <time>2021-07-20T10:08:14Z</time>
      </trkpt>
      <trkpt lat="43.14039" lon="3.14725">
        <ele>1</ele>
        <time>2021-07-20T10:08:15Z</time>
      </trkpt>
      <trkpt lat="43.14039" lon="3.14724">
        <ele>1</ele>
        <time>2021-07-20T10:08:16Z</time>
      </trkpt>
      <trkpt lat="43.14039" lon="3.14723">
        <ele>1</ele>
        <time>2021-07-20T10:08:17Z</time>
      </trkpt>
      <trkpt lat="43.14039" lon="3.14722">
        <ele>1</ele>
        <time>2021-07-20T10:08:18Z</time>
      </trkpt>
      <trkpt lat="43.14039" lon="3.1472">
        <ele>1</ele>
        <time>2021-07-20T10:08:19Z</time>
      </trkpt>
      <trkpt lat="43.14039" lon="3.14719">
        <ele>1</ele>
        <time>2021-07-20T10:08:20Z</time>
      </trkpt>
      <trkpt lat="43.14039" lon="3.14718">
        <ele>-5.706225</ele>
        <time>2021-07-20T10:08:21Z</time>
      </trkpt>
      <trkpt lat="43.14039" lon="3.14717">
        <ele>1</ele>
        <time>2021-07-20T10:08:22Z</time>
      </trkpt>
      <trkpt lat="43.14039" lon="3.14715">
        <ele>1</ele>
        <time>2021-07-20T10:08:23Z</time>
      </trkpt>
      <trkpt lat="43.14039" lon="3.14714">
        <ele>1</ele>
        <time>2021-07-20T10:08:24Z</time>
      </trkpt>
      <trkpt lat="43.14039" lon="3.14712">
        <ele>1</ele>
        <time>2021-07-20T10:08:25Z</time>
      </trkpt>
      <trkpt lat="43.14039" lon="3.14711">
        <ele>1</ele>
        <time>2021-07-20T10:08:26Z</time>
      </trkpt>
      <trkpt lat="43.14039" lon="3.14709">
        <ele>1</ele>
        <time>2021-07-20T10:08:27Z</time>
      </trkpt>
      <trkpt lat="43.14039" lon="3.14708">
        <ele>1</ele>
        <time>2021-07-20T10:08:28Z</time>
      </trkpt>
      <trkpt lat="43.14039" lon="3.14706">
        <ele>1</ele>
        <time>2021-07-20T10:08:29Z</time>
      </trkpt>
      <trkpt lat="43.14039" lon="3.14705">
        <ele>1</ele>
        <time>2021-07-20T10:08:30Z</time>
      </trkpt>
      <trkpt lat="43.14039" lon="3.14703">
        <ele>-5.874279</ele>
        <time>2021-07-20T10:08:31Z</time>
      </trkpt>
      <trkpt lat="43.1404" lon="3.14701">
        <ele>1</ele>
        <time>2021-07-20T10:08:32Z</time>
      </trkpt>
      <trkpt lat="43.1404" lon="3.14699">
        <ele>1</ele>
        <time>2021-07-20T10:08:33Z</time>
      </trkpt>
      <trkpt lat="43.1404" lon="3.14698">
        <ele>1</ele>
        <time>2021-07-20T10:08:34Z</time>
      </trkpt>
      <trkpt lat="43.1404" lon="3.14696">
        <ele>1</ele>
        <time>2021-07-20T10:08:35Z</time>
      </trkpt>
      <trkpt lat="43.1404" lon="3.14695">
        <ele>1</ele>
        <time>2021-07-20T10:08:36Z</time>
      </trkpt>
      <trkpt lat="43.14041" lon="3.14693">
        <ele>1</ele>
        <time>2021-07-20T10:08:37Z</time>
      </trkpt>
      <trkpt lat="43.14041" lon="3.14692">
        <ele>1</ele>
        <time>2021-07-20T10:08:38Z</time>
      </trkpt>
      <trkpt lat="43.14042" lon="3.1469">
        <ele>1</ele>
        <time>2021-07-20T10:08:39Z</time>
      </trkpt>
      <trkpt lat="43.14041" lon="3.1469">
        <ele>-5.901251</ele>
        <time>2021-07-20T10:08:40Z</time>
      </trkpt>
      <trkpt lat="43.14041" lon="3.14689">
        <ele>1</ele>
        <time>2021-07-20T10:08:41Z</time>
      </trkpt>
      <trkpt lat="43.14042" lon="3.14688">
        <ele>1</ele>
        <time>2021-07-20T10:08:42Z</time>
      </trkpt>
      <trkpt lat="43.14041" lon="3.14687">
        <ele>1</ele>
        <time>2021-07-20T10:08:43Z</time>
      </trkpt>
      <trkpt lat="43.14041" lon="3.14687">
        <ele>1</ele>
        <time>2021-07-20T10:08:44Z</time>
      </trkpt>
      <trkpt lat="43.14041" lon="3.14687">
        <ele>1</ele>
        <time>2021-07-20T10:08:45Z</time>
      </trkpt>
      <trkpt lat="43.14042" lon="3.14687">
        <ele>1</ele>
        <time>2021-07-20T10:08:46Z</time>
      </trkpt>
      <trkpt lat="43.14042" lon="3.14685">
        <ele>1</ele>
        <time>2021-07-20T10:08:47Z</time>
      </trkpt>
      <trkpt lat="43.14042" lon="3.14683">
        <ele>1</ele>
        <time>2021-07-20T10:08:48Z</time>
      </trkpt>
      <trkpt lat="43.14043" lon="3.1468">
        <ele>1</ele>
        <time>2021-07-20T10:08:49Z</time>
      </trkpt>
      <trkpt lat="43.14043" lon="3.14677">
        <ele>-6.0755277</ele>
        <time>2021-07-20T10:08:50Z</time>
      </trkpt>
      <trkpt lat="43.14044" lon="3.14674">
        <ele>1</ele>
        <time>2021-07-20T10:08:51Z</time>
      </trkpt>
      <trkpt lat="43.14045" lon="3.14671">
        <ele>1</ele>
        <time>2021-07-20T10:08:52Z</time>
      </trkpt>
      <trkpt lat="43.14045" lon="3.14668">
        <ele>1</ele>
        <time>2021-07-20T10:08:53Z</time>
      </trkpt>
      <trkpt lat="43.14047" lon="3.14665">
        <ele>1</ele>
        <time>2021-07-20T10:08:54Z</time>
      </trkpt>
      <trkpt lat="43.14048" lon="3.14662">
        <ele>1.1</ele>
        <time>2021-07-20T10:08:55Z</time>
      </trkpt>
      <trkpt lat="43.14049" lon="3.1466">
        <ele>1.1</ele>
        <time>2021-07-20T10:08:56Z</time>
      </trkpt>
      <trkpt lat="43.14051" lon="3.14657">
        <ele>1.1</ele>
        <time>2021-07-20T10:08:57Z</time>
      </trkpt>
      <trkpt lat="43.14053" lon="3.14655">
        <ele>1.1</ele>
        <time>2021-07-20T10:08:58Z</time>
      </trkpt>
      <trkpt lat="43.14055" lon="3.14652">
        <ele>1.2</ele>
        <time>2021-07-20T10:08:59Z</time>
      </trkpt>
      <trkpt lat="43.14056" lon="3.14649">
        <ele>-6.357687</ele>
        <time>2021-07-20T10:09:00Z</time>
      </trkpt>
      <trkpt lat="43.14058" lon="3.14646">
        <ele>1.2</ele>
        <time>2021-07-20T10:09:01Z</time>
      </trkpt>
      <trkpt lat="43.14059" lon="3.14643">
        <ele>1.3</ele>
        <time>2021-07-20T10:09:02Z</time>
      </trkpt>
      <trkpt lat="43.14061" lon="3.1464">
        <ele>1.3</ele>
        <time>2021-07-20T10:09:03Z</time>
      </trkpt>
      <trkpt lat="43.14063" lon="3.14637">
        <ele>1.4</ele>
        <time>2021-07-20T10:09:04Z</time>
      </trkpt>
      <trkpt lat="43.14064" lon="3.14634">
        <ele>1.4</ele>
        <time>2021-07-20T10:09:05Z</time>
      </trkpt>
      <trkpt lat="43.14065" lon="3.1463">
        <ele>1.4</ele>
        <time>2021-07-20T10:09:06Z</time>
      </trkpt>
      <trkpt lat="43.14066" lon="3.14627">
        <ele>1.5</ele>
        <time>2021-07-20T10:09:07Z</time>
      </trkpt>
      <trkpt lat="43.14068" lon="3.14623">
        <ele>1.5</ele>
        <time>2021-07-20T10:09:08Z</time>
      </trkpt>
      <trkpt lat="43.14068" lon="3.14619">
        <ele>1.6</ele>
        <time>2021-07-20T10:09:09Z</time>
      </trkpt>
      <trkpt lat="43.14069" lon="3.14615">
        <ele>-6.362874</ele>
        <time>2021-07-20T10:09:10Z</time>
      </trkpt>
      <trkpt lat="43.14069" lon="3.14611">
        <ele>1.7</ele>
        <time>2021-07-20T10:09:11Z</time>
      </trkpt>
      <trkpt lat="43.14069" lon="3.14606">
        <ele>1.7</ele>
        <time>2021-07-20T10:09:12Z</time>
      </trkpt>
      <trkpt lat="43.14069" lon="3.14602">
        <ele>1.8</ele>
        <time>2021-07-20T10:09:13Z</time>
      </trkpt>
      <trkpt lat="43.14069" lon="3.14598">
        <ele>1.8</ele>
        <time>2021-07-20T10:09:14Z</time>
      </trkpt>
      <trkpt lat="43.1407" lon="3.14595">
        <ele>1.9</ele>
        <time>2021-07-20T10:09:15Z</time>
      </trkpt>
      <trkpt lat="43.1407" lon="3.14591">
        <ele>1.9</ele>
        <time>2021-07-20T10:09:16Z</time>
      </trkpt>
      <trkpt lat="43.1407" lon="3.14588">
        <ele>1.9</ele>
        <time>2021-07-20T10:09:17Z</time>
      </trkpt>
      <trkpt lat="43.1407" lon="3.14586">
        <ele>2</ele>
        <time>2021-07-20T10:09:18Z</time>
      </trkpt>
      <trkpt lat="43.14069" lon="3.14584">
        <ele>2</ele>
        <time>2021-07-20T10:09:19Z</time>
      </trkpt>
      <trkpt lat="43.14067" lon="3.14583">
        <ele>2</ele>
        <time>2021-07-20T10:09:20Z</time>
      </trkpt>
      <trkpt lat="43.14064" lon="3.14583">
        <ele>-6.5962753</ele>
        <time>2021-07-20T10:09:21Z</time>
      </trkpt>
      <trkpt lat="43.14062" lon="3.14583">
        <ele>2</ele>
        <time>2021-07-20T10:09:22Z</time>
      </trkpt>
      <trkpt lat="43.1406" lon="3.14584">
        <ele>2</ele>
        <time>2021-07-20T10:09:23Z</time>
      </trkpt>
      <trkpt lat="43.14058" lon="3.14583">
        <ele>2</ele>
        <time>2021-07-20T10:09:24Z</time>
      </trkpt>
      <trkpt lat="43.14056" lon="3.14582">
        <ele>2</ele>
        <time>2021-07-20T10:09:25Z</time>
      </trkpt>
      <trkpt lat="43.14054" lon="3.14579">
        <ele>2</ele>
        <time>2021-07-20T10:09:26Z</time>
      </trkpt>
      <trkpt lat="43.14053" lon="3.14577">
        <ele>2.1</ele>
        <time>2021-07-20T10:09:27Z</time>
      </trkpt>
      <trkpt lat="43.14052" lon="3.14575">
        <ele>2.1</ele>
        <time>2021-07-20T10:09:28Z</time>
      </trkpt>
      <trkpt lat="43.14052" lon="3.14574">
        <ele>2.1</ele>
        <time>2021-07-20T10:09:29Z</time>
      </trkpt>
      <trkpt lat="43.14051" lon="3.14574">
        <ele>2.1</ele>
        <time>2021-07-20T10:09:30Z</time>
      </trkpt>
      <trkpt lat="43.14051" lon="3.14574">
        <ele>-6.2871475</ele>
        <time>2021-07-20T10:09:31Z</time>
      </trkpt>
      <trkpt lat="43.14051" lon="3.14574">
        <ele>2.1</ele>
        <time>2021-07-20T10:09:32Z</time>
      </trkpt>
      <trkpt lat="43.14052" lon="3.14574">
        <ele>2.1</ele>
        <time>2021-07-20T10:09:33Z</time>
      </trkpt>
      <trkpt lat="43.14052" lon="3.14574">
        <ele>2.1</ele>
        <time>2021-07-20T10:09:34Z</time>
      </trkpt>
      <trkpt lat="43.14052" lon="3.14574">
        <ele>2.1</ele>
        <time>2021-07-20T10:09:35Z</time>
      </trkpt>
      <trkpt lat="43.14052" lon="3.14574">
        <ele>2.1</ele>
        <time>2021-07-20T10:09:36Z</time>
      </trkpt>
      <trkpt lat="43.14052" lon="3.14574">
        <ele>2.1</ele>
        <time>2021-07-20T10:09:37Z</time>
      </trkpt>
      <trkpt lat="43.14052" lon="3.14574">
        <ele>2.1</ele>
        <time>2021-07-20T10:09:38Z</time>
      </trkpt>
      <trkpt lat="43.14052" lon="3.14574">
        <ele>2.1</ele>
        <time>2021-07-20T10:09:39Z</time>
      </trkpt>
      <trkpt lat="43.14052" lon="3.14574">
        <ele>2.1</ele>
        <time>2021-07-20T10:09:40Z</time>
      </trkpt>
      <trkpt lat="43.14052" lon="3.14574">
        <ele>-6.243579</ele>
        <time>2021-07-20T10:09:41Z</time>
      </trkpt>
      <trkpt lat="43.14052" lon="3.14574">
        <ele>2.1</ele>
        <time>2021-07-20T10:09:42Z</time>
      </trkpt>
      <trkpt lat="43.14052" lon="3.14574">
        <ele>2.1</ele>
        <time>2021-07-20T10:09:43Z</time>
      </trkpt>
      <trkpt lat="43.14052" lon="3.14574">
        <ele>2.1</ele>
        <time>2021-07-20T10:09:44Z</time>
      </trkpt>
      <trkpt lat="43.14052" lon="3.14574">
        <ele>2.1</ele>
        <time>2021-07-20T10:09:45Z</time>
      </trkpt>
      <trkpt lat="43.14052" lon="3.14574">
        <ele>2.1</ele>
        <time>2021-07-20T10:09:46Z</time>
      </trkpt>
      <trkpt lat="43.14052" lon="3.14574">
        <ele>2.1</ele>
        <time>2021-07-20T10:09:47Z</time>
      </trkpt>
      <trkpt lat="43.14052" lon="3.14574">
        <ele>2.1</ele>
        <time>2021-07-20T10:09:48Z</time>
      </trkpt>
      <trkpt lat="43.14052" lon="3.14574">
        <ele>2.1</ele>
        <time>2021-07-20T10:09:49Z</time>
      </trkpt>
      <trkpt lat="43.14052" lon="3.14574">
        <ele>2.1</ele>
        <time>2021-07-20T10:09:50Z</time>
      </trkpt>
      <trkpt lat="43.14052" lon="3.14574">
        <ele>-6.089013</ele>
        <time>2021-07-20T10:09:51Z</time>
      </trkpt>
      <trkpt lat="43.14052" lon="3.14574">
        <ele>2.1</ele>
        <time>2021-07-20T10:09:52Z</time>
      </trkpt>
      <trkpt lat="43.14052" lon="3.14574">
        <ele>2.1</ele>
        <time>2021-07-20T10:09:53Z</time>
      </trkpt>
      <trkpt lat="43.14052" lon="3.14574">
        <ele>2.1</ele>
        <time>2021-07-20T10:09:54Z</time>
      </trkpt>
      <trkpt lat="43.14052" lon="3.14574">
        <ele>2.1</ele>
        <time>2021-07-20T10:09:55Z</time>
      </trkpt>
      <trkpt lat="43.14052" lon="3.14574">
        <ele>2.1</ele>
        <time>2021-07-20T10:09:56Z</time>
      </trkpt>
      <trkpt lat="43.14052" lon="3.14574">
        <ele>2.1</ele>
        <time>2021-07-20T10:09:57Z</time>
      </trkpt>
      <trkpt lat="43.14051" lon="3.14574">
        <ele>2.1</ele>
        <time>2021-07-20T10:09:58Z</time>
      </trkpt>
      <trkpt lat="43.14051" lon="3.14574">
        <ele>2.1</ele>
        <time>2021-07-20T10:09:59Z</time>
      </trkpt>
      <trkpt lat="43.14051" lon="3.14574">
        <ele>2.1</ele>
        <time>2021-07-20T10:10:00Z</time>
      </trkpt>
      <trkpt lat="43.14051" lon="3.14574">
        <ele>-6.000838</ele>
        <time>2021-07-20T10:10:01Z</time>
      </trkpt>
      <trkpt lat="43.14051" lon="3.14574">
        <ele>2.1</ele>
        <time>2021-07-20T10:10:02Z</time>
      </trkpt>
      <trkpt lat="43.14051" lon="3.14574">
        <ele>2.1</ele>
        <time>2021-07-20T10:10:03Z</time>
      </trkpt>
      <trkpt lat="43.14051" lon="3.14575">
        <ele>2.1</ele>
        <time>2021-07-20T10:10:04Z</time>
      </trkpt>
      <trkpt lat="43.14051" lon="3.14575">
        <ele>2.1</ele>
        <time>2021-07-20T10:10:05Z</time>
      </trkpt>
      <trkpt lat="43.14051" lon="3.14575">
        <ele>2.1</ele>
        <time>2021-07-20T10:10:06Z</time>
      </trkpt>
      <trkpt lat="43.14051" lon="3.14575">
        <ele>2.1</ele>
        <time>2021-07-20T10:10:07Z</time>
      </trkpt>
      <trkpt lat="43.14051" lon="3.14575">
        <ele>2.1</ele>
        <time>2021-07-20T10:10:08Z</time>
      </trkpt>
      <trkpt lat="43.14051" lon="3.14575">
        <ele>2.1</ele>
        <time>2021-07-20T10:10:09Z</time>
      </trkpt>
      <trkpt lat="43.14051" lon="3.14575">
        <ele>2.1</ele>
        <time>2021-07-20T10:10:10Z</time>
      </trkpt>
      <trkpt lat="43.14051" lon="3.14575">
        <ele>-6.0630794</ele>
        <time>2021-07-20T10:10:11Z</time>
      </trkpt>
      <trkpt lat="43.14051" lon="3.14575">
        <ele>2.1</ele>
        <time>2021-07-20T10:10:12Z</time>
      </trkpt>
      <trkpt lat="43.14051" lon="3.14575">
        <ele>2.1</ele>
        <time>2021-07-20T10:10:13Z</time>
      </trkpt>
      <trkpt lat="43.14051" lon="3.14575">
        <ele>2.1</ele>
        <time>2021-07-20T10:10:14Z</time>
      </trkpt>
      <trkpt lat="43.14051" lon="3.14575">
        <ele>2.1</ele>
        <time>2021-07-20T10:10:15Z</time>
      </trkpt>
      <trkpt lat="43.14051" lon="3.14575">
        <ele>2.1</ele>
        <time>2021-07-20T10:10:16Z</time>
      </trkpt>
      <trkpt lat="43.14051" lon="3.14575">
        <ele>2.1</ele>
        <time>2021-07-20T10:10:17Z</time>
      </trkpt>
      <trkpt lat="43.14051" lon="3.14575">
        <ele>2.1</ele>
        <time>2021-07-20T10:10:18Z</time>
      </trkpt>
      <trkpt lat="43.14051" lon="3.14575">
        <ele>2.1</ele>
        <time>2021-07-20T10:10:19Z</time>
      </trkpt>
      <trkpt lat="43.14051" lon="3.14575">
        <ele>-5.631534</ele>
        <time>2021-07-20T10:10:20Z</time>
      </trkpt>
      <trkpt lat="43.14051" lon="3.14575">
        <ele>2.1</ele>
        <time>2021-07-20T10:10:21Z</time>
      </trkpt>
      <trkpt lat="43.14051" lon="3.14575">
        <ele>2.1</ele>
        <time>2021-07-20T10:10:22Z</time>
      </trkpt>
      <trkpt lat="43.14051" lon="3.14575">
        <ele>2.1</ele>
        <time>2021-07-20T10:10:23Z</time>
      </trkpt>
      <trkpt lat="43.14051" lon="3.14575">
        <ele>2.1</ele>
        <time>2021-07-20T10:10:24Z</time>
      </trkpt>
      <trkpt lat="43.14051" lon="3.14575">
        <ele>2.1</ele>
        <time>2021-07-20T10:10:25Z</time>
      </trkpt>
      <trkpt lat="43.14051" lon="3.14574">
        <ele>2.1</ele>
        <time>2021-07-20T10:10:26Z</time>
      </trkpt>
      <trkpt lat="43.14051" lon="3.14574">
        <ele>2.1</ele>
        <time>2021-07-20T10:10:27Z</time>
      </trkpt>
      <trkpt lat="43.14051" lon="3.14574">
        <ele>2.1</ele>
        <time>2021-07-20T10:10:28Z</time>
      </trkpt>
      <trkpt lat="43.14051" lon="3.14574">
        <ele>2.1</ele>
        <time>2021-07-20T10:10:29Z</time>
      </trkpt>
      <trkpt lat="43.14051" lon="3.14574">
        <ele>-5.7217855</ele>
        <time>2021-07-20T10:10:30Z</time>
      </trkpt>
      <trkpt lat="43.14051" lon="3.14574">
        <ele>2.1</ele>
        <time>2021-07-20T10:10:31Z</time>
      </trkpt>
      <trkpt lat="43.14051" lon="3.14574">
        <ele>2.1</ele>
        <time>2021-07-20T10:10:32Z</time>
      </trkpt>
      <trkpt lat="43.14051" lon="3.14574">
        <ele>2.1</ele>
        <time>2021-07-20T10:10:33Z</time>
      </trkpt>
      <trkpt lat="43.14051" lon="3.14574">
        <ele>2.1</ele>
        <time>2021-07-20T10:10:34Z</time>
      </trkpt>
      <trkpt lat="43.14051" lon="3.14574">
        <ele>2.1</ele>
        <time>2021-07-20T10:10:35Z</time>
      </trkpt>
      <trkpt lat="43.14051" lon="3.14574">
        <ele>2.1</ele>
        <time>2021-07-20T10:10:36Z</time>
      </trkpt>
      <trkpt lat="43.14051" lon="3.14574">
        <ele>2.1</ele>
        <time>2021-07-20T10:10:37Z</time>
      </trkpt>
      <trkpt lat="43.14051" lon="3.14574">
        <ele>2.1</ele>
        <time>2021-07-20T10:10:38Z</time>
      </trkpt>
      <trkpt lat="43.14051" lon="3.14574">
        <ele>2.1</ele>
        <time>2021-07-20T10:10:39Z</time>
      </trkpt>
      <trkpt lat="43.14051" lon="3.14574">
        <ele>-6.0641165</ele>
        <time>2021-07-20T10:10:40Z</time>
      </trkpt>
      <trkpt lat="43.14051" lon="3.14574">
        <ele>2.1</ele>
        <time>2021-07-20T10:10:41Z</time>
      </trkpt>
      <trkpt lat="43.14052" lon="3.14574">
        <ele>2.1</ele>
        <time>2021-07-20T10:10:42Z</time>
      </trkpt>
      <trkpt lat="43.14052" lon="3.14574">
        <ele>2.1</ele>
        <time>2021-07-20T10:10:43Z</time>
      </trkpt>
      <trkpt lat="43.14052" lon="3.14574">
        <ele>2.1</ele>
        <time>2021-07-20T10:10:44Z</time>
      </trkpt>
      <trkpt lat="43.14052" lon="3.14574">
        <ele>2.1</ele>
        <time>2021-07-20T10:10:45Z</time>
      </trkpt>
      <trkpt lat="43.14052" lon="3.14574">
        <ele>2.1</ele>
        <time>2021-07-20T10:10:46Z</time>
      </trkpt>
      <trkpt lat="43.14052" lon="3.14574">
        <ele>2.1</ele>
        <time>2021-07-20T10:10:47Z</time>
      </trkpt>
      <trkpt lat="43.14052" lon="3.14574">
        <ele>2.1</ele>
        <time>2021-07-20T10:10:48Z</time>
      </trkpt>
      <trkpt lat="43.14052" lon="3.14574">
        <ele>2.1</ele>
        <time>2021-07-20T10:10:49Z</time>
      </trkpt>
      <trkpt lat="43.14052" lon="3.14574">
        <ele>-6.268475</ele>
        <time>2021-07-20T10:10:50Z</time>
      </trkpt>
      <trkpt lat="43.14052" lon="3.14574">
        <ele>2.1</ele>
        <time>2021-07-20T10:10:51Z</time>
      </trkpt>
      <trkpt lat="43.14051" lon="3.14574">
        <ele>2.1</ele>
        <time>2021-07-20T10:10:52Z</time>
      </trkpt>
      <trkpt lat="43.14052" lon="3.14573">
        <ele>2.1</ele>
        <time>2021-07-20T10:10:53Z</time>
      </trkpt>
      <trkpt lat="43.14052" lon="3.14573">
        <ele>2.1</ele>
        <time>2021-07-20T10:10:54Z</time>
      </trkpt>
      <trkpt lat="43.14052" lon="3.14573">
        <ele>2.1</ele>
        <time>2021-07-20T10:10:55Z</time>
      </trkpt>
      <trkpt lat="43.14052" lon="3.14573">
        <ele>2.1</ele>
        <time>2021-07-20T10:10:56Z</time>
      </trkpt>
      <trkpt lat="43.14053" lon="3.14573">
        <ele>2.1</ele>
        <time>2021-07-20T10:10:57Z</time>
      </trkpt>
      <trkpt lat="43.14053" lon="3.14573">
        <ele>2.1</ele>
        <time>2021-07-20T10:10:58Z</time>
      </trkpt>
      <trkpt lat="43.14053" lon="3.14573">
        <ele>2.1</ele>
        <time>2021-07-20T10:10:59Z</time>
      </trkpt>
      <trkpt lat="43.14053" lon="3.14573">
        <ele>2.1</ele>
        <time>2021-07-20T10:11:00Z</time>
      </trkpt>
      <trkpt lat="43.14053" lon="3.14573">
        <ele>-5.92511</ele>
        <time>2021-07-20T10:11:01Z</time>
      </trkpt>
      <trkpt lat="43.14053" lon="3.14573">
        <ele>2.1</ele>
        <time>2021-07-20T10:11:02Z</time>
      </trkpt>
      <trkpt lat="43.14053" lon="3.14573">
        <ele>2.1</ele>
        <time>2021-07-20T10:11:03Z</time>
      </trkpt>
      <trkpt lat="43.14053" lon="3.14573">
        <ele>2.1</ele>
        <time>2021-07-20T10:11:04Z</time>
      </trkpt>
      <trkpt lat="43.14053" lon="3.14573">
        <ele>2.1</ele>
        <time>2021-07-20T10:11:05Z</time>
      </trkpt>
      <trkpt lat="43.14053" lon="3.14573">
        <ele>2.1</ele>
        <time>2021-07-20T10:11:06Z</time>
      </trkpt>
      <trkpt lat="43.14053" lon="3.14573">
        <ele>2.1</ele>
        <time>2021-07-20T10:11:07Z</time>
      </trkpt>
      <trkpt lat="43.14053" lon="3.14573">
        <ele>2.1</ele>
        <time>2021-07-20T10:11:08Z</time>
      </trkpt>
      <trkpt lat="43.14053" lon="3.14573">
        <ele>2.1</ele>
        <time>2021-07-20T10:11:09Z</time>
      </trkpt>
      <trkpt lat="43.14053" lon="3.14573">
        <ele>2.1</ele>
        <time>2021-07-20T10:11:10Z</time>
      </trkpt>
      <trkpt lat="43.14053" lon="3.14573">
        <ele>-5.817224</ele>
        <time>2021-07-20T10:11:11Z</time>
      </trkpt>
      <trkpt lat="43.14053" lon="3.14573">
        <ele>2.1</ele>
        <time>2021-07-20T10:11:12Z</time>
      </trkpt>
      <trkpt lat="43.14053" lon="3.14573">
        <ele>2.1</ele>
        <time>2021-07-20T10:11:13Z</time>
      </trkpt>
      <trkpt lat="43.14053" lon="3.14573">
        <ele>2.1</ele>
        <time>2021-07-20T10:11:14Z</time>
      </trkpt>
      <trkpt lat="43.14053" lon="3.14573">
        <ele>2.1</ele>
        <time>2021-07-20T10:11:15Z</time>
      </trkpt>
      <trkpt lat="43.14053" lon="3.14573">
        <ele>2.1</ele>
        <time>2021-07-20T10:11:16Z</time>
      </trkpt>
      <trkpt lat="43.14053" lon="3.14573">
        <ele>2.1</ele>
        <time>2021-07-20T10:11:17Z</time>
      </trkpt>
      <trkpt lat="43.14053" lon="3.14573">
        <ele>2.1</ele>
        <time>2021-07-20T10:11:18Z</time>
      </trkpt>
      <trkpt lat="43.14052" lon="3.14574">
        <ele>2.1</ele>
        <time>2021-07-20T10:11:19Z</time>
      </trkpt>
      <trkpt lat="43.14052" lon="3.14575">
        <ele>2.1</ele>
        <time>2021-07-20T10:11:20Z</time>
      </trkpt>
      <trkpt lat="43.14052" lon="3.14575">
        <ele>-5.908512</ele>
        <time>2021-07-20T10:11:21Z</time>
      </trkpt>
      <trkpt lat="43.14052" lon="3.14575">
        <ele>2.1</ele>
        <time>2021-07-20T10:11:22Z</time>
      </trkpt>
      <trkpt lat="43.14052" lon="3.14575">
        <ele>2.1</ele>
        <time>2021-07-20T10:11:23Z</time>
      </trkpt>
      <trkpt lat="43.14052" lon="3.14575">
        <ele>2.1</ele>
        <time>2021-07-20T10:11:24Z</time>
      </trkpt>
      <trkpt lat="43.14052" lon="3.14575">
        <ele>2.1</ele>
        <time>2021-07-20T10:11:25Z</time>
      </trkpt>
      <trkpt lat="43.14052" lon="3.14575">
        <ele>2.1</ele>
        <time>2021-07-20T10:11:26Z</time>
      </trkpt>
      <trkpt lat="43.14052" lon="3.14575">
        <ele>2.1</ele>
        <time>2021-07-20T10:11:27Z</time>
      </trkpt>
      <trkpt lat="43.14052" lon="3.14575">
        <ele>2.1</ele>
        <time>2021-07-20T10:11:28Z</time>
      </trkpt>
      <trkpt lat="43.14052" lon="3.14575">
        <ele>2.1</ele>
        <time>2021-07-20T10:11:29Z</time>
      </trkpt>
      <trkpt lat="43.14052" lon="3.14575">
        <ele>2.1</ele>
        <time>2021-07-20T10:11:30Z</time>
      </trkpt>
      <trkpt lat="43.14052" lon="3.14575">
        <ele>-5.879466</ele>
        <time>2021-07-20T10:11:31Z</time>
      </trkpt>
      <trkpt lat="43.14052" lon="3.14575">
        <ele>2.1</ele>
        <time>2021-07-20T10:11:32Z</time>
      </trkpt>
      <trkpt lat="43.14052" lon="3.14575">
        <ele>2.1</ele>
        <time>2021-07-20T10:11:33Z</time>
      </trkpt>
      <trkpt lat="43.14052" lon="3.14574">
        <ele>2.1</ele>
        <time>2021-07-20T10:11:34Z</time>
      </trkpt>
      <trkpt lat="43.14052" lon="3.14574">
        <ele>2.1</ele>
        <time>2021-07-20T10:11:35Z</time>
      </trkpt>
      <trkpt lat="43.14053" lon="3.14574">
        <ele>2.1</ele>
        <time>2021-07-20T10:11:36Z</time>
      </trkpt>
      <trkpt lat="43.14053" lon="3.14574">
        <ele>2.1</ele>
        <time>2021-07-20T10:11:37Z</time>
      </trkpt>
      <trkpt lat="43.14053" lon="3.14574">
        <ele>2.1</ele>
        <time>2021-07-20T10:11:38Z</time>
      </trkpt>
      <trkpt lat="43.14053" lon="3.14574">
        <ele>2.1</ele>
        <time>2021-07-20T10:11:39Z</time>
      </trkpt>
      <trkpt lat="43.14053" lon="3.14574">
        <ele>2.1</ele>
        <time>2021-07-20T10:11:40Z</time>
      </trkpt>
      <trkpt lat="43.14053" lon="3.14574">
        <ele>-6.082789</ele>
        <time>2021-07-20T10:11:41Z</time>
      </trkpt>
      <trkpt lat="43.14053" lon="3.14574">
        <ele>2.1</ele>
        <time>2021-07-20T10:11:42Z</time>
      </trkpt>
      <trkpt lat="43.14053" lon="3.14574">
        <ele>2.1</ele>
        <time>2021-07-20T10:11:43Z</time>
      </trkpt>
      <trkpt lat="43.14053" lon="3.14574">
        <ele>2.1</ele>
        <time>2021-07-20T10:11:44Z</time>
      </trkpt>
      <trkpt lat="43.14053" lon="3.14574">
        <ele>2.1</ele>
        <time>2021-07-20T10:11:45Z</time>
      </trkpt>
      <trkpt lat="43.14053" lon="3.14574">
        <ele>2.1</ele>
        <time>2021-07-20T10:11:46Z</time>
      </trkpt>
      <trkpt lat="43.14053" lon="3.14574">
        <ele>2.1</ele>
        <time>2021-07-20T10:11:47Z</time>
      </trkpt>
      <trkpt lat="43.14053" lon="3.14574">
        <ele>2.1</ele>
        <time>2021-07-20T10:11:48Z</time>
      </trkpt>
      <trkpt lat="43.14053" lon="3.14574">
        <ele>2.1</ele>
        <time>2021-07-20T10:11:49Z</time>
      </trkpt>
      <trkpt lat="43.14053" lon="3.14574">
        <ele>2.1</ele>
        <time>2021-07-20T10:11:50Z</time>
      </trkpt>
      <trkpt lat="43.14053" lon="3.14574">
        <ele>-6.2010474</ele>
        <time>2021-07-20T10:11:51Z</time>
      </trkpt>
      <trkpt lat="43.14053" lon="3.14574">
        <ele>2.1</ele>
        <time>2021-07-20T10:11:52Z</time>
      </trkpt>
      <trkpt lat="43.14053" lon="3.14574">
        <ele>2.1</ele>
        <time>2021-07-20T10:11:53Z</time>
      </trkpt>
      <trkpt lat="43.14053" lon="3.14574">
        <ele>2.1</ele>
        <time>2021-07-20T10:11:54Z</time>
      </trkpt>
      <trkpt lat="43.14053" lon="3.14574">
        <ele>2.1</ele>
        <time>2021-07-20T10:11:55Z</time>
      </trkpt>
      <trkpt lat="43.14053" lon="3.14574">
        <ele>2.1</ele>
        <time>2021-07-20T10:11:56Z</time>
      </trkpt>
      <trkpt lat="43.14053" lon="3.14574">
        <ele>2.1</ele>
        <time>2021-07-20T10:11:57Z</time>
      </trkpt>
      <trkpt lat="43.14053" lon="3.14574">
        <ele>2.1</ele>
        <time>2021-07-20T10:11:58Z</time>
      </trkpt>
      <trkpt lat="43.14053" lon="3.14574">
        <ele>2.1</ele>
        <time>2021-07-20T10:12:15Z</time>
      </trkpt>
      <trkpt lat="43.14053" lon="3.14574">
        <ele>2.1</ele>
        <time>2021-07-20T10:12:16Z</time>
      </trkpt>
      <trkpt lat="43.14053" lon="3.14574">
        <ele>-5.716599</ele>
        <time>2021-07-20T10:12:17Z</time>
      </trkpt>
      <trkpt lat="43.14053" lon="3.14574">
        <ele>2.1</ele>
        <time>2021-07-20T10:12:18Z</time>
      </trkpt>
      <trkpt lat="43.14053" lon="3.14574">
        <ele>2.1</ele>
        <time>2021-07-20T10:12:19Z</time>
      </trkpt>
      <trkpt lat="43.14053" lon="3.14574">
        <ele>2.1</ele>
        <time>2021-07-20T10:12:20Z</time>
      </trkpt>
      <trkpt lat="43.14053" lon="3.14574">
        <ele>2.1</ele>
        <time>2021-07-20T10:12:21Z</time>
      </trkpt>
      <trkpt lat="43.14053" lon="3.14574">
        <ele>2.1</ele>
        <time>2021-07-20T10:12:22Z</time>
      </trkpt>
      <trkpt lat="43.14053" lon="3.14574">
        <ele>2.1</ele>
        <time>2021-07-20T10:12:23Z</time>
      </trkpt>
      <trkpt lat="43.14053" lon="3.14574">
        <ele>2.1</ele>
        <time>2021-07-20T10:12:24Z</time>
      </trkpt>
      <trkpt lat="43.14053" lon="3.14574">
        <ele>2.1</ele>
        <time>2021-07-20T10:12:25Z</time>
      </trkpt>
      <trkpt lat="43.14053" lon="3.14574">
        <ele>2.1</ele>
        <time>2021-07-20T10:12:26Z</time>
      </trkpt>
      <trkpt lat="43.14053" lon="3.14574">
        <ele>-5.805813</ele>
        <time>2021-07-20T10:12:27Z</time>
      </trkpt>
      <trkpt lat="43.14053" lon="3.14574">
        <ele>2.1</ele>
        <time>2021-07-20T10:12:28Z</time>
      </trkpt>
      <trkpt lat="43.14053" lon="3.14574">
        <ele>2.1</ele>
        <time>2021-07-20T10:12:29Z</time>
      </trkpt>
      <trkpt lat="43.14053" lon="3.14574">
        <ele>2.1</ele>
        <time>2021-07-20T10:12:30Z</time>
      </trkpt>
      <trkpt lat="43.14053" lon="3.14574">
        <ele>2.1</ele>
        <time>2021-07-20T10:12:31Z</time>
      </trkpt>
      <trkpt lat="43.14053" lon="3.14574">
        <ele>2.1</ele>
        <time>2021-07-20T10:12:32Z</time>
      </trkpt>
      <trkpt lat="43.14053" lon="3.14574">
        <ele>2.1</ele>
        <time>2021-07-20T10:12:33Z</time>
      </trkpt>
      <trkpt lat="43.14053" lon="3.14574">
        <ele>2.1</ele>
        <time>2021-07-20T10:12:34Z</time>
      </trkpt>
      <trkpt lat="43.14053" lon="3.14574">
        <ele>2.1</ele>
        <time>2021-07-20T10:12:35Z</time>
      </trkpt>
      <trkpt lat="43.14053" lon="3.14574">
        <ele>2.1</ele>
        <time>2021-07-20T10:12:36Z</time>
      </trkpt>
      <trkpt lat="43.14053" lon="3.14574">
        <ele>-5.831747</ele>
        <time>2021-07-20T10:12:37Z</time>
      </trkpt>
      <trkpt lat="43.14053" lon="3.14574">
        <ele>2.1</ele>
        <time>2021-07-20T10:12:38Z</time>
      </trkpt>
      <trkpt lat="43.14053" lon="3.14574">
        <ele>2.1</ele>
        <time>2021-07-20T10:12:39Z</time>
      </trkpt>
      <trkpt lat="43.14053" lon="3.14574">
        <ele>2.1</ele>
        <time>2021-07-20T10:12:40Z</time>
      </trkpt>
      <trkpt lat="43.14053" lon="3.14574">
        <ele>2.1</ele>
        <time>2021-07-20T10:12:41Z</time>
      </trkpt>
      <trkpt lat="43.14053" lon="3.14574">
        <ele>2.1</ele>
        <time>2021-07-20T10:12:42Z</time>
      </trkpt>
      <trkpt lat="43.14053" lon="3.14574">
        <ele>2.1</ele>
        <time>2021-07-20T10:12:43Z</time>
      </trkpt>
      <trkpt lat="43.14053" lon="3.14574">
        <ele>2.1</ele>
        <time>2021-07-20T10:12:44Z</time>
      </trkpt>
      <trkpt lat="43.14053" lon="3.14574">
        <ele>2.1</ele>
        <time>2021-07-20T10:12:45Z</time>
      </trkpt>
      <trkpt lat="43.14053" lon="3.14574">
        <ele>-6.156441</ele>
        <time>2021-07-20T10:12:46Z</time>
      </trkpt>
      <trkpt lat="43.14053" lon="3.14574">
        <ele>2.1</ele>
        <time>2021-07-20T10:12:47Z</time>
      </trkpt>
      <trkpt lat="43.14053" lon="3.14574">
        <ele>2.1</ele>
        <time>2021-07-20T10:12:48Z</time>
      </trkpt>
      <trkpt lat="43.14053" lon="3.14574">
        <ele>2.1</ele>
        <time>2021-07-20T10:12:49Z</time>
      </trkpt>
      <trkpt lat="43.14053" lon="3.14574">
        <ele>2.1</ele>
        <time>2021-07-20T10:12:50Z</time>
      </trkpt>
      <trkpt lat="43.14053" lon="3.14574">
        <ele>2.1</ele>
        <time>2021-07-20T10:12:51Z</time>
      </trkpt>
      <trkpt lat="43.14053" lon="3.14574">
        <ele>2.1</ele>
        <time>2021-07-20T10:12:52Z</time>
      </trkpt>
      <trkpt lat="43.14053" lon="3.14574">
        <ele>2.1</ele>
        <time>2021-07-20T10:12:53Z</time>
      </trkpt>
      <trkpt lat="43.14053" lon="3.14574">
        <ele>2.1</ele>
        <time>2021-07-20T10:12:54Z</time>
      </trkpt>
      <trkpt lat="43.14053" lon="3.14574">
        <ele>2.1</ele>
        <time>2021-07-20T10:12:55Z</time>
      </trkpt>
      <trkpt lat="43.14053" lon="3.14574">
        <ele>-5.92511</ele>
        <time>2021-07-20T10:12:56Z</time>
      </trkpt>
      <trkpt lat="43.14053" lon="3.14574">
        <ele>2.1</ele>
        <time>2021-07-20T10:12:57Z</time>
      </trkpt>
      <trkpt lat="43.14053" lon="3.14574">
        <ele>2.1</ele>
        <time>2021-07-20T10:12:58Z</time>
      </trkpt>
      <trkpt lat="43.14053" lon="3.14574">
        <ele>2.1</ele>
        <time>2021-07-20T10:12:59Z</time>
      </trkpt>
      <trkpt lat="43.14053" lon="3.14574">
        <ele>2.1</ele>
        <time>2021-07-20T10:13:00Z</time>
      </trkpt>
      <trkpt lat="43.14053" lon="3.14574">
        <ele>2.1</ele>
        <time>2021-07-20T10:13:01Z</time>
      </trkpt>
      <trkpt lat="43.14053" lon="3.14574">
        <ele>2.1</ele>
        <time>2021-07-20T10:13:02Z</time>
      </trkpt>
      <trkpt lat="43.14053" lon="3.14574">
        <ele>2.1</ele>
        <time>2021-07-20T10:13:03Z</time>
      </trkpt>
      <trkpt lat="43.14053" lon="3.14574">
        <ele>2.1</ele>
        <time>2021-07-20T10:13:04Z</time>
      </trkpt>
      <trkpt lat="43.14053" lon="3.14574">
        <ele>2.1</ele>
        <time>2021-07-20T10:13:05Z</time>
      </trkpt>
      <trkpt lat="43.14053" lon="3.14574">
        <ele>-5.7954392</ele>
        <time>2021-07-20T10:13:06Z</time>
      </trkpt>
      <trkpt lat="43.14053" lon="3.14574">
        <ele>2.1</ele>
        <time>2021-07-20T10:13:07Z</time>
      </trkpt>
      <trkpt lat="43.14053" lon="3.14574">
        <ele>2.1</ele>
        <time>2021-07-20T10:13:08Z</time>
      </trkpt>
      <trkpt lat="43.14053" lon="3.14574">
        <ele>2.1</ele>
        <time>2021-07-20T10:13:09Z</time>
      </trkpt>
      <trkpt lat="43.14053" lon="3.14574">
        <ele>2.1</ele>
        <time>2021-07-20T10:13:10Z</time>
      </trkpt>
      <trkpt lat="43.14053" lon="3.14574">
        <ele>2.1</ele>
        <time>2021-07-20T10:13:11Z</time>
      </trkpt>
      <trkpt lat="43.14053" lon="3.14574">
        <ele>2.1</ele>
        <time>2021-07-20T10:13:12Z</time>
      </trkpt>
      <trkpt lat="43.14053" lon="3.14574">
        <ele>2.1</ele>
        <time>2021-07-20T10:13:13Z</time>
      </trkpt>
      <trkpt lat="43.14053" lon="3.14574">
        <ele>2.1</ele>
        <time>2021-07-20T10:13:14Z</time>
      </trkpt>
      <trkpt lat="43.14053" lon="3.14574">
        <ele>2.1</ele>
        <time>2021-07-20T10:13:15Z</time>
      </trkpt>
      <trkpt lat="43.14053" lon="3.14574">
        <ele>-6.0288463</ele>
        <time>2021-07-20T10:13:16Z</time>
      </trkpt>
      <trkpt lat="43.14053" lon="3.14574">
        <ele>2.1</ele>
        <time>2021-07-20T10:13:17Z</time>
      </trkpt>
      <trkpt lat="43.14053" lon="3.14574">
        <ele>2.1</ele>
        <time>2021-07-20T10:13:18Z</time>
      </trkpt>
      <trkpt lat="43.14053" lon="3.14574">
        <ele>2.1</ele>
        <time>2021-07-20T10:13:19Z</time>
      </trkpt>
      <trkpt lat="43.14053" lon="3.14574">
        <ele>2.1</ele>
        <time>2021-07-20T10:13:20Z</time>
      </trkpt>
      <trkpt lat="43.14053" lon="3.14574">
        <ele>2.1</ele>
        <time>2021-07-20T10:13:21Z</time>
      </trkpt>
      <trkpt lat="43.14053" lon="3.14574">
        <ele>2.1</ele>
        <time>2021-07-20T10:13:22Z</time>
      </trkpt>
      <trkpt lat="43.14053" lon="3.14574">
        <ele>2.1</ele>
        <time>2021-07-20T10:13:23Z</time>
      </trkpt>
      <trkpt lat="43.14053" lon="3.14574">
        <ele>2.1</ele>
        <time>2021-07-20T10:13:24Z</time>
      </trkpt>
      <trkpt lat="43.14053" lon="3.14574">
        <ele>2.1</ele>
        <time>2021-07-20T10:13:25Z</time>
      </trkpt>
      <trkpt lat="43.14053" lon="3.14574">
        <ele>2.1</ele>
        <time>2021-07-20T10:13:26Z</time>
      </trkpt>
      <trkpt lat="43.14053" lon="3.14574">
        <ele>-5.9479322</ele>
        <time>2021-07-20T10:13:27Z</time>
      </trkpt>
      <trkpt lat="43.14053" lon="3.14574">
        <ele>2.1</ele>
        <time>2021-07-20T10:13:28Z</time>
      </trkpt>
      <trkpt lat="43.14053" lon="3.14574">
        <ele>2.1</ele>
        <time>2021-07-20T10:13:29Z</time>
      </trkpt>
      <trkpt lat="43.14053" lon="3.14574">
        <ele>2.1</ele>
        <time>2021-07-20T10:13:30Z</time>
      </trkpt>
      <trkpt lat="43.14053" lon="3.14574">
        <ele>2.1</ele>
        <time>2021-07-20T10:13:31Z</time>
      </trkpt>
      <trkpt lat="43.14053" lon="3.14574">
        <ele>2.1</ele>
        <time>2021-07-20T10:13:32Z</time>
      </trkpt>
      <trkpt lat="43.14053" lon="3.14574">
        <ele>2.1</ele>
        <time>2021-07-20T10:13:33Z</time>
      </trkpt>
      <trkpt lat="43.14053" lon="3.14574">
        <ele>2.1</ele>
        <time>2021-07-20T10:13:34Z</time>
      </trkpt>
      <trkpt lat="43.14053" lon="3.14574">
        <ele>2.1</ele>
        <time>2021-07-20T10:13:35Z</time>
      </trkpt>
      <trkpt lat="43.14053" lon="3.14574">
        <ele>2.1</ele>
        <time>2021-07-20T10:13:36Z</time>
      </trkpt>
      <trkpt lat="43.14053" lon="3.14574">
        <ele>-5.993576</ele>
        <time>2021-07-20T10:13:37Z</time>
      </trkpt>
      <trkpt lat="43.14053" lon="3.14574">
        <ele>2.1</ele>
        <time>2021-07-20T10:13:38Z</time>
      </trkpt>
      <trkpt lat="43.14053" lon="3.14574">
        <ele>2.1</ele>
        <time>2021-07-20T10:13:39Z</time>
      </trkpt>
      <trkpt lat="43.14053" lon="3.14574">
        <ele>2.1</ele>
        <time>2021-07-20T10:13:40Z</time>
      </trkpt>
      <trkpt lat="43.14053" lon="3.14574">
        <ele>2.1</ele>
        <time>2021-07-20T10:13:41Z</time>
      </trkpt>
      <trkpt lat="43.14053" lon="3.14574">
        <ele>2.1</ele>
        <time>2021-07-20T10:13:42Z</time>
      </trkpt>
      <trkpt lat="43.14053" lon="3.14574">
        <ele>2.1</ele>
        <time>2021-07-20T10:13:43Z</time>
      </trkpt>
      <trkpt lat="43.14053" lon="3.14574">
        <ele>2.1</ele>
        <time>2021-07-20T10:13:44Z</time>
      </trkpt>
      <trkpt lat="43.14053" lon="3.14574">
        <ele>2.1</ele>
        <time>2021-07-20T10:13:45Z</time>
      </trkpt>
      <trkpt lat="43.14053" lon="3.14574">
        <ele>2.1</ele>
        <time>2021-07-20T10:13:46Z</time>
      </trkpt>
      <trkpt lat="43.14053" lon="3.14574">
        <ele>-5.665767</ele>
        <time>2021-07-20T10:13:47Z</time>
      </trkpt>
      <trkpt lat="43.14053" lon="3.14574">
        <ele>2.1</ele>
        <time>2021-07-20T10:13:48Z</time>
      </trkpt>
      <trkpt lat="43.14053" lon="3.14574">
        <ele>2.1</ele>
        <time>2021-07-20T10:13:49Z</time>
      </trkpt>
      <trkpt lat="43.14053" lon="3.14574">
        <ele>2.1</ele>
        <time>2021-07-20T10:13:50Z</time>
      </trkpt>
      <trkpt lat="43.14053" lon="3.14574">
        <ele>2.1</ele>
        <time>2021-07-20T10:13:51Z</time>
      </trkpt>
      <trkpt lat="43.14053" lon="3.14574">
        <ele>2.1</ele>
        <time>2021-07-20T10:13:52Z</time>
      </trkpt>
      <trkpt lat="43.14053" lon="3.14574">
        <ele>2.1</ele>
        <time>2021-07-20T10:13:53Z</time>
      </trkpt>
      <trkpt lat="43.14053" lon="3.14574">
        <ele>2.1</ele>
        <time>2021-07-20T10:13:54Z</time>
      </trkpt>
      <trkpt lat="43.14053" lon="3.14574">
        <ele>2.1</ele>
        <time>2021-07-20T10:13:55Z</time>
      </trkpt>
      <trkpt lat="43.14053" lon="3.14574">
        <ele>2.1</ele>
        <time>2021-07-20T10:13:56Z</time>
      </trkpt>
      <trkpt lat="43.14053" lon="3.14574">
        <ele>-6.0257344</ele>
        <time>2021-07-20T10:13:57Z</time>
      </trkpt>
      <trkpt lat="43.14053" lon="3.14574">
        <ele>2.1</ele>
        <time>2021-07-20T10:13:58Z</time>
      </trkpt>
      <trkpt lat="43.14053" lon="3.14574">
        <ele>2.1</ele>
        <time>2021-07-20T10:13:59Z</time>
      </trkpt>
      <trkpt lat="43.14053" lon="3.14574">
        <ele>2.1</ele>
        <time>2021-07-20T10:14:00Z</time>
      </trkpt>
      <trkpt lat="43.14053" lon="3.14574">
        <ele>2.1</ele>
        <time>2021-07-20T10:14:01Z</time>
      </trkpt>
      <trkpt lat="43.14053" lon="3.14574">
        <ele>2.1</ele>
        <time>2021-07-20T10:14:02Z</time>
      </trkpt>
      <trkpt lat="43.14053" lon="3.14574">
        <ele>2.1</ele>
        <time>2021-07-20T10:14:03Z</time>
      </trkpt>
      <trkpt lat="43.14053" lon="3.14574">
        <ele>2.1</ele>
        <time>2021-07-20T10:14:04Z</time>
      </trkpt>
      <trkpt lat="43.14053" lon="3.14574">
        <ele>2.1</ele>
        <time>2021-07-20T10:14:05Z</time>
      </trkpt>
      <trkpt lat="43.14053" lon="3.14574">
        <ele>2.1</ele>
        <time>2021-07-20T10:14:06Z</time>
      </trkpt>
      <trkpt lat="43.14053" lon="3.14574">
        <ele>-5.902288</ele>
        <time>2021-07-20T10:14:07Z</time>
      </trkpt>
      <trkpt lat="43.14053" lon="3.14574">
        <ele>2.1</ele>
        <time>2021-07-20T10:14:08Z</time>
      </trkpt>
      <trkpt lat="43.14053" lon="3.14574">
        <ele>2.1</ele>
        <time>2021-07-20T10:14:09Z</time>
      </trkpt>
      <trkpt lat="43.14053" lon="3.14574">
        <ele>2.1</ele>
        <time>2021-07-20T10:14:10Z</time>
      </trkpt>
      <trkpt lat="43.14053" lon="3.14574">
        <ele>2.1</ele>
        <time>2021-07-20T10:14:11Z</time>
      </trkpt>
      <trkpt lat="43.14053" lon="3.14574">
        <ele>2.1</ele>
        <time>2021-07-20T10:14:12Z</time>
      </trkpt>
      <trkpt lat="43.14053" lon="3.14574">
        <ele>2.1</ele>
        <time>2021-07-20T10:14:13Z</time>
      </trkpt>
      <trkpt lat="43.14053" lon="3.14574">
        <ele>2.1</ele>
        <time>2021-07-20T10:14:14Z</time>
      </trkpt>
      <trkpt lat="43.14053" lon="3.14574">
        <ele>2.1</ele>
        <time>2021-07-20T10:14:15Z</time>
      </trkpt>
      <trkpt lat="43.14053" lon="3.14574">
        <ele>2.1</ele>
        <time>2021-07-20T10:14:16Z</time>
      </trkpt>
      <trkpt lat="43.14053" lon="3.14574">
        <ele>-5.738384</ele>
        <time>2021-07-20T10:14:17Z</time>
      </trkpt>
      <trkpt lat="43.14053" lon="3.14574">
        <ele>2.1</ele>
        <time>2021-07-20T10:14:18Z</time>
      </trkpt>
      <trkpt lat="43.14053" lon="3.14574">
        <ele>2.1</ele>
        <time>2021-07-20T10:14:19Z</time>
      </trkpt>
      <trkpt lat="43.14053" lon="3.14574">
        <ele>2.1</ele>
        <time>2021-07-20T10:14:20Z</time>
      </trkpt>
      <trkpt lat="43.14053" lon="3.14574">
        <ele>2.1</ele>
        <time>2021-07-20T10:14:21Z</time>
      </trkpt>
      <trkpt lat="43.14053" lon="3.14574">
        <ele>2.1</ele>
        <time>2021-07-20T10:14:22Z</time>
      </trkpt>
      <trkpt lat="43.14053" lon="3.14574">
        <ele>2.1</ele>
        <time>2021-07-20T10:14:23Z</time>
      </trkpt>
      <trkpt lat="43.14053" lon="3.14574">
        <ele>2.1</ele>
        <time>2021-07-20T10:14:24Z</time>
      </trkpt>
      <trkpt lat="43.14053" lon="3.14574">
        <ele>2.1</ele>
        <time>2021-07-20T10:14:25Z</time>
      </trkpt>
      <trkpt lat="43.14053" lon="3.14574">
        <ele>-5.938596</ele>
        <time>2021-07-20T10:14:26Z</time>
      </trkpt>
      <trkpt lat="43.14053" lon="3.14574">
        <ele>2.1</ele>
        <time>2021-07-20T10:14:27Z</time>
      </trkpt>
      <trkpt lat="43.14053" lon="3.14574">
        <ele>2.1</ele>
        <time>2021-07-20T10:14:28Z</time>
      </trkpt>
      <trkpt lat="43.14053" lon="3.14574">
        <ele>2.1</ele>
        <time>2021-07-20T10:14:29Z</time>
      </trkpt>
      <trkpt lat="43.14053" lon="3.14574">
        <ele>2.1</ele>
        <time>2021-07-20T10:14:30Z</time>
      </trkpt>
      <trkpt lat="43.14053" lon="3.14574">
        <ele>2.1</ele>
        <time>2021-07-20T10:14:31Z</time>
      </trkpt>
      <trkpt lat="43.14053" lon="3.14574">
        <ele>2.1</ele>
        <time>2021-07-20T10:14:32Z</time>
      </trkpt>
      <trkpt lat="43.14053" lon="3.14574">
        <ele>2.1</ele>
        <time>2021-07-20T10:14:33Z</time>
      </trkpt>
      <trkpt lat="43.14053" lon="3.14574">
        <ele>2.1</ele>
        <time>2021-07-20T10:14:34Z</time>
      </trkpt>
      <trkpt lat="43.14053" lon="3.14574">
        <ele>2.1</ele>
        <time>2021-07-20T10:14:35Z</time>
      </trkpt>
      <trkpt lat="43.14053" lon="3.14574">
        <ele>-6.056855</ele>
        <time>2021-07-20T10:14:36Z</time>
      </trkpt>
      <trkpt lat="43.14053" lon="3.14574">
        <ele>2.1</ele>
        <time>2021-07-20T10:14:37Z</time>
      </trkpt>
      <trkpt lat="43.14053" lon="3.14574">
        <ele>2.1</ele>
        <time>2021-07-20T10:14:38Z</time>
      </trkpt>
      <trkpt lat="43.14053" lon="3.14574">
        <ele>2.1</ele>
        <time>2021-07-20T10:14:39Z</time>
      </trkpt>
      <trkpt lat="43.14053" lon="3.14574">
        <ele>2.1</ele>
        <time>2021-07-20T10:14:40Z</time>
      </trkpt>
      <trkpt lat="43.14053" lon="3.14574">
        <ele>2.1</ele>
        <time>2021-07-20T10:14:41Z</time>
      </trkpt>
      <trkpt lat="43.14053" lon="3.14574">
        <ele>2.1</ele>
        <time>2021-07-20T10:14:42Z</time>
      </trkpt>
      <trkpt lat="43.14053" lon="3.14574">
        <ele>2.1</ele>
        <time>2021-07-20T10:14:43Z</time>
      </trkpt>
      <trkpt lat="43.14053" lon="3.14574">
        <ele>2.1</ele>
        <time>2021-07-20T10:14:44Z</time>
      </trkpt>
      <trkpt lat="43.14053" lon="3.14574">
        <ele>2.1</ele>
        <time>2021-07-20T10:14:45Z</time>
      </trkpt>
      <trkpt lat="43.14053" lon="3.14574">
        <ele>-5.9261475</ele>
        <time>2021-07-20T10:14:46Z</time>
      </trkpt>
      <trkpt lat="43.14053" lon="3.14574">
        <ele>2.1</ele>
        <time>2021-07-20T10:14:47Z</time>
      </trkpt>
      <trkpt lat="43.14053" lon="3.14574">
        <ele>2.1</ele>
        <time>2021-07-20T10:14:48Z</time>
      </trkpt>
      <trkpt lat="43.14053" lon="3.14574">
        <ele>2.1</ele>
        <time>2021-07-20T10:14:49Z</time>
      </trkpt>
      <trkpt lat="43.14053" lon="3.14574">
        <ele>2.1</ele>
        <time>2021-07-20T10:14:50Z</time>
      </trkpt>
      <trkpt lat="43.14053" lon="3.14574">
        <ele>2.1</ele>
        <time>2021-07-20T10:14:51Z</time>
      </trkpt>
      <trkpt lat="43.14053" lon="3.14574">
        <ele>2.1</ele>
        <time>2021-07-20T10:14:52Z</time>
      </trkpt>
      <trkpt lat="43.14053" lon="3.14574">
        <ele>2.1</ele>
        <time>2021-07-20T10:14:53Z</time>
      </trkpt>
      <trkpt lat="43.14053" lon="3.14574">
        <ele>2.1</ele>
        <time>2021-07-20T10:14:54Z</time>
      </trkpt>
      <trkpt lat="43.14053" lon="3.14574">
        <ele>2.1</ele>
        <time>2021-07-20T10:14:55Z</time>
      </trkpt>
      <trkpt lat="43.14053" lon="3.14574">
        <ele>-6.1834126</ele>
        <time>2021-07-20T10:14:56Z</time>
      </trkpt>
      <trkpt lat="43.14053" lon="3.14574">
        <ele>2.1</ele>
        <time>2021-07-20T10:14:57Z</time>
      </trkpt>
      <trkpt lat="43.14053" lon="3.14574">
        <ele>2.1</ele>
        <time>2021-07-20T10:14:58Z</time>
      </trkpt>
      <trkpt lat="43.14053" lon="3.14574">
        <ele>2.1</ele>
        <time>2021-07-20T10:14:59Z</time>
      </trkpt>
      <trkpt lat="43.14053" lon="3.14574">
        <ele>2.1</ele>
        <time>2021-07-20T10:15:00Z</time>
      </trkpt>
      <trkpt lat="43.14053" lon="3.14574">
        <ele>2.1</ele>
        <time>2021-07-20T10:15:01Z</time>
      </trkpt>
      <trkpt lat="43.14053" lon="3.14574">
        <ele>2.1</ele>
        <time>2021-07-20T10:15:02Z</time>
      </trkpt>
      <trkpt lat="43.14053" lon="3.14574">
        <ele>2.1</ele>
        <time>2021-07-20T10:15:03Z</time>
      </trkpt>
      <trkpt lat="43.14053" lon="3.14574">
        <ele>2.1</ele>
        <time>2021-07-20T10:15:04Z</time>
      </trkpt>
      <trkpt lat="43.14053" lon="3.14574">
        <ele>2.1</ele>
        <time>2021-07-20T10:15:05Z</time>
      </trkpt>
      <trkpt lat="43.14053" lon="3.14574">
        <ele>2.1</ele>
        <time>2021-07-20T10:15:06Z</time>
      </trkpt>
      <trkpt lat="43.14053" lon="3.14574">
        <ele>-6.214533</ele>
        <time>2021-07-20T10:15:07Z</time>
      </trkpt>
      <trkpt lat="43.14053" lon="3.14574">
        <ele>2.1</ele>
        <time>2021-07-20T10:15:08Z</time>
      </trkpt>
      <trkpt lat="43.14053" lon="3.14574">
        <ele>2.1</ele>
        <time>2021-07-20T10:15:09Z</time>
      </trkpt>
      <trkpt lat="43.14053" lon="3.14574">
        <ele>2.1</ele>
        <time>2021-07-20T10:15:10Z</time>
      </trkpt>
      <trkpt lat="43.14053" lon="3.14574">
        <ele>2.1</ele>
        <time>2021-07-20T10:15:11Z</time>
      </trkpt>
      <trkpt lat="43.14051" lon="3.14575">
        <ele>2.1</ele>
        <time>2021-07-20T10:15:12Z</time>
      </trkpt>
      <trkpt lat="43.14051" lon="3.14574">
        <ele>2.1</ele>
        <time>2021-07-20T10:15:13Z</time>
      </trkpt>
      <trkpt lat="43.14051" lon="3.14574">
        <ele>2.1</ele>
        <time>2021-07-20T10:15:14Z</time>
      </trkpt>
      <trkpt lat="43.14051" lon="3.14574">
        <ele>2.1</ele>
        <time>2021-07-20T10:15:15Z</time>
      </trkpt>
      <trkpt lat="43.14051" lon="3.14574">
        <ele>2.1</ele>
        <time>2021-07-20T10:15:16Z</time>
      </trkpt>
      <trkpt lat="43.14051" lon="3.14574">
        <ele>-6.2394295</ele>
        <time>2021-07-20T10:15:17Z</time>
      </trkpt>
      <trkpt lat="43.14051" lon="3.14574">
        <ele>2.1</ele>
        <time>2021-07-20T10:15:18Z</time>
      </trkpt>
      <trkpt lat="43.14051" lon="3.14574">
        <ele>2.1</ele>
        <time>2021-07-20T10:15:19Z</time>
      </trkpt>
      <trkpt lat="43.14051" lon="3.14574">
        <ele>2.1</ele>
        <time>2021-07-20T10:15:20Z</time>
      </trkpt>
      <trkpt lat="43.14051" lon="3.14574">
        <ele>2.1</ele>
        <time>2021-07-20T10:15:21Z</time>
      </trkpt>
      <trkpt lat="43.14051" lon="3.14574">
        <ele>2.1</ele>
        <time>2021-07-20T10:15:22Z</time>
      </trkpt>
      <trkpt lat="43.14051" lon="3.14574">
        <ele>2.1</ele>
        <time>2021-07-20T10:15:23Z</time>
      </trkpt>
      <trkpt lat="43.14051" lon="3.14574">
        <ele>2.1</ele>
        <time>2021-07-20T10:15:24Z</time>
      </trkpt>
      <trkpt lat="43.14051" lon="3.14574">
        <ele>2.1</ele>
        <time>2021-07-20T10:15:25Z</time>
      </trkpt>
      <trkpt lat="43.14051" lon="3.14574">
        <ele>2.1</ele>
        <time>2021-07-20T10:15:26Z</time>
      </trkpt>
      <trkpt lat="43.14051" lon="3.14574">
        <ele>-6.3773966</ele>
        <time>2021-07-20T10:15:27Z</time>
      </trkpt>
      <trkpt lat="43.14051" lon="3.14574">
        <ele>2.1</ele>
        <time>2021-07-20T10:15:28Z</time>
      </trkpt>
      <trkpt lat="43.14051" lon="3.14574">
        <ele>2.1</ele>
        <time>2021-07-20T10:15:29Z</time>
      </trkpt>
      <trkpt lat="43.14051" lon="3.14574">
        <ele>2.1</ele>
        <time>2021-07-20T10:15:30Z</time>
      </trkpt>
      <trkpt lat="43.14051" lon="3.14574">
        <ele>2.1</ele>
        <time>2021-07-20T10:15:31Z</time>
      </trkpt>
      <trkpt lat="43.14051" lon="3.14574">
        <ele>2.1</ele>
        <time>2021-07-20T10:15:32Z</time>
      </trkpt>
      <trkpt lat="43.14078" lon="3.14503">
        <ele>3</ele>
      </trkpt>
      <trkpt lat="43.14063" lon="3.14434">
        <ele>1.4</ele>
      </trkpt>
      <trkpt lat="43.14105" lon="3.14228">
        <ele>2.3</ele>
      </trkpt>
      <trkpt lat="43.14086" lon="3.14176">
        <ele>2.9</ele>
      </trkpt>
      <trkpt lat="43.14009" lon="3.14139">
        <ele>1</ele>
      </trkpt>
      <trkpt lat="43.13847" lon="3.14123">
        <ele>2.16</ele>
      </trkpt>
      <trkpt lat="43.13785" lon="3.14102">
        <ele>1.42</ele>
      </trkpt>
      <trkpt lat="43.13689" lon="3.14049">
        <ele>1</ele>
      </trkpt>
      <trkpt lat="43.13669" lon="3.14017">
        <ele>1</ele>
      </trkpt>
      <trkpt lat="43.13646" lon="3.13959">
        <ele>1</ele>
      </trkpt>
      <trkpt lat="43.13635" lon="3.13937">
        <ele>1</ele>
      </trkpt>
      <trkpt lat="43.13581" lon="3.13911">
        <ele>1</ele>
      </trkpt>
      <trkpt lat="43.1355" lon="3.13893">
        <ele>1</ele>
      </trkpt>
      <trkpt lat="43.13524" lon="3.13829">
        <ele>1.1</ele>
      </trkpt>
      <trkpt lat="43.13501" lon="3.13812">
        <ele>1.5</ele>
      </trkpt>
      <trkpt lat="43.1348" lon="3.13795">
        <ele>1.9</ele>
      </trkpt>
      <trkpt lat="43.13442" lon="3.13801">
        <ele>1.8</ele>
      </trkpt>
      <trkpt lat="43.13395" lon="3.13743">
        <ele>2.8</ele>
      </trkpt>
      <trkpt lat="43.13373" lon="3.13718">
        <ele>2.7</ele>
      </trkpt>
      <trkpt lat="43.13366" lon="3.13722">
        <ele>2.6</ele>
      </trkpt>
      <trkpt lat="43.13341" lon="3.13743">
        <ele>2.2</ele>
      </trkpt>
      <trkpt lat="43.13326" lon="3.13739">
        <ele>2.1</ele>
      </trkpt>
      <trkpt lat="43.13314" lon="3.13729">
        <ele>2.2</ele>
      </trkpt>
      <trkpt lat="43.13306" lon="3.13709">
        <ele>2.5</ele>
      </trkpt>
      <trkpt lat="43.13314" lon="3.13683">
        <ele>2.8</ele>
      </trkpt>
      <trkpt lat="43.13314" lon="3.13662">
        <ele>2.9</ele>
      </trkpt>
      <trkpt lat="43.13314" lon="3.1363">
        <ele>2.6</ele>
      </trkpt>
      <trkpt lat="43.13303" lon="3.13612">
        <ele>2.3</ele>
      </trkpt>
      <trkpt lat="43.13281" lon="3.13593">
        <ele>2.1</ele>
      </trkpt>
      <trkpt lat="43.13266" lon="3.13586">
        <ele>2</ele>
      </trkpt>
      <trkpt lat="43.13257" lon="3.13571">
        <ele>2</ele>
      </trkpt>
      <trkpt lat="43.13215" lon="3.13601">
        <ele>2.4</ele>
      </trkpt>
      <trkpt lat="43.1319" lon="3.13612">
        <ele>2.7</ele>
      </trkpt>
      <trkpt lat="43.13172" lon="3.13612">
        <ele>2.7</ele>
      </trkpt>
      <trkpt lat="43.13149" lon="3.13591">
        <ele>4</ele>
      </trkpt>
      <trkpt lat="43.13106" lon="3.13563">
        <ele>3.3</ele>
      </trkpt>
      <trkpt lat="43.13035" lon="3.13497">
        <ele>1</ele>
      </trkpt>
      <trkpt lat="43.13015" lon="3.13472">
        <ele>1</ele>
      </trkpt>
      <trkpt lat="43.13005" lon="3.13465">
        <ele>1</ele>
      </trkpt>
      <trkpt lat="43.12945" lon="3.1347">
        <ele>1</ele>
      </trkpt>
      <trkpt lat="43.12873" lon="3.13502">
        <ele>1</ele>
      </trkpt>
      <trkpt lat="43.12855" lon="3.13483">
        <ele>1.2</ele>
      </trkpt>
      <trkpt lat="43.12775" lon="3.13401">
        <ele>1.9</ele>
      </trkpt>
      <trkpt lat="43.12691" lon="3.13317">
        <ele>2.8</ele>
      </trkpt>
      <trkpt lat="43.12646" lon="3.13248">
        <ele>2.5</ele>
      </trkpt>
      <trkpt lat="43.1262" lon="3.13196">
        <ele>1.6</ele>
      </trkpt>
      <trkpt lat="43.12573" lon="3.13185">
        <ele>1</ele>
      </trkpt>
      <trkpt lat="43.12459" lon="3.13093">
        <ele>1.1</ele>
      </trkpt>
      <trkpt lat="43.12399" lon="3.1305">
        <ele>1.7</ele>
      </trkpt>
      <trkpt lat="43.1237" lon="3.1299">
        <ele>2</ele>
      </trkpt>
      <trkpt lat="43.12339" lon="3.12901">
        <ele>2</ele>
      </trkpt>
      <trkpt lat="43.12315" lon="3.12773">
        <ele>2</ele>
      </trkpt>
      <trkpt lat="43.12253" lon="3.12704">
        <ele>2</ele>
      </trkpt>
      <trkpt lat="43.1216" lon="3.12596">
        <ele>1</ele>
      </trkpt>
      <trkpt lat="43.1197" lon="3.1238">
        <ele>1</ele>
      </trkpt>
      <trkpt lat="43.11836" lon="3.12244">
      </trkpt>
      <trkpt lat="43.1173" lon="3.12226">
        <ele>1.24</ele>
      </trkpt>
      <trkpt lat="43.11692" lon="3.12132">
        <ele>1.8</ele>
      </trkpt>
      <trkpt lat="43.11692" lon="3.12108">
        <ele>1.9</ele>
      </trkpt>
      <trkpt lat="43.11692" lon="3.12076">
        <ele>2.1</ele>
      </trkpt>
      <trkpt lat="43.117" lon="3.12054">
        <ele>2.4</ele>
      </trkpt>
      <trkpt lat="43.11699" lon="3.11975">
        <ele>2.7</ele>
      </trkpt>
      <trkpt lat="43.11692" lon="3.11957">
        <ele>2.5</ele>
      </trkpt>
      <trkpt lat="43.11692" lon="3.11946">
        <ele>2.3</ele>
      </trkpt>
      <trkpt lat="43.117" lon="3.11923">
        <ele>2.1</ele>
      </trkpt>
      <trkpt lat="43.11696" lon="3.11856">
        <ele>2.5</ele>
      </trkpt>
      <trkpt lat="43.11617" lon="3.1185">
        <ele>3.8</ele>
      </trkpt>
      <trkpt lat="43.11594" lon="3.11833">
        <ele>4.8</ele>
      </trkpt>
      <trkpt lat="43.11534" lon="3.11792">
        <ele>2.8</ele>
      </trkpt>
      <trkpt lat="43.11528" lon="3.11784">
        <ele>2.7</ele>
      </trkpt>
      <trkpt lat="43.11549" lon="3.11741">
        <ele>2.9</ele>
      </trkpt>
      <trkpt lat="43.11529" lon="3.11725">
        <ele>2.7</ele>
      </trkpt>
      <trkpt lat="43.11515" lon="3.11719">
        <ele>2.6</ele>
      </trkpt>
      <trkpt lat="43.11488" lon="3.11697">
        <ele>2</ele>
      </trkpt>
      <trkpt lat="43.11438" lon="3.11696">
        <ele>2</ele>
      </trkpt>
      <trkpt lat="43.11385" lon="3.11695">
        <ele>1.86</ele>
      </trkpt>
      <trkpt lat="43.11381" lon="3.1169">
        <ele>1.8</ele>
      </trkpt>
      <trkpt lat="43.11387" lon="3.11624">
        <ele>1</ele>
      </trkpt>
      <trkpt lat="43.11399" lon="3.11516">
        <ele>1</ele>
      </trkpt>
      <trkpt lat="43.11402" lon="3.11483">
        <ele>2</ele>
      </trkpt>
      <trkpt lat="43.1142" lon="3.11402">
        <ele>2.6</ele>
      </trkpt>
      <trkpt lat="43.11424" lon="3.11389">
        <ele>2.3</ele>
      </trkpt>
      <trkpt lat="43.11426" lon="3.11365">
        <ele>1.8</ele>
      </trkpt>
      <trkpt lat="43.11416" lon="3.11354">
        <ele>1.7</ele>
      </trkpt>
      <trkpt lat="43.11413" lon="3.11325">
        <ele>1</ele>
      </trkpt>
      <trkpt lat="43.11417" lon="3.11246">
        <ele>1.1</ele>
      </trkpt>
      <trkpt lat="43.11416" lon="3.11219">
        <ele>1.7</ele>
      </trkpt>
      <trkpt lat="43.11395" lon="3.11163">
        <ele>3</ele>
      </trkpt>
      <trkpt lat="43.11377" lon="3.11073">
        <ele>2.8</ele>
      </trkpt>
      <trkpt lat="43.11366" lon="3.11028">
        <ele>3.7</ele>
      </trkpt>
      <trkpt lat="43.11347" lon="3.1096">
        <ele>4.2</ele>
      </trkpt>
      <trkpt lat="43.11325" lon="3.1091">
        <ele>4</ele>
      </trkpt>
      <trkpt lat="43.1126" lon="3.10769">
        <ele>2.4</ele>
      </trkpt>
      <trkpt lat="43.11203" lon="3.10649">
        <ele>3.9</ele>
      </trkpt>
      <trkpt lat="43.11179" lon="3.10593">
        <ele>4.9</ele>
      </trkpt>
      <trkpt lat="43.11148" lon="3.10536">
        <ele>4.6</ele>
      </trkpt>
      <trkpt lat="43.11129" lon="3.10489">
        <ele>4.5</ele>
      </trkpt>
      <trkpt lat="43.11126" lon="3.10478">
        <ele>4.5</ele>
      </trkpt>
      <trkpt lat="43.11127" lon="3.10459">
        <ele>4.5</ele>
      </trkpt>
      <trkpt lat="43.11116" lon="3.10455">
        <ele>4.6</ele>
      </trkpt>
      <trkpt lat="43.11108" lon="3.10461">
        <ele>4.7</ele>
      </trkpt>
      <trkpt lat="43.11108" lon="3.10467">
        <ele>4.7</ele>
      </trkpt>
      <trkpt lat="43.11092" lon="3.10461">
        <ele>4.9</ele>
      </trkpt>
      <trkpt lat="43.11082" lon="3.1045">
        <ele>5</ele>
      </trkpt>
      <trkpt lat="43.11026" lon="3.1036">
        <ele>5.7</ele>
      </trkpt>
      <trkpt lat="43.10985" lon="3.10315">
        <ele>6.2</ele>
      </trkpt>
      <trkpt lat="43.10962" lon="3.10334">
        <ele>6</ele>
      </trkpt>
      <trkpt lat="43.10925" lon="3.1032">
        <ele>6.2</ele>
      </trkpt>
      <trkpt lat="43.10903" lon="3.10304">
        <ele>6.36</ele>
      </trkpt>
      <trkpt lat="43.10931" lon="3.10141">
        <ele>6</ele>
      </trkpt>
      <trkpt lat="43.10945" lon="3.10125">
        <ele>6.2</ele>
      </trkpt>
      <trkpt lat="43.10961" lon="3.10114">
        <ele>6.6</ele>
      </trkpt>
      <trkpt lat="43.10976" lon="3.09986">
        <ele>5.9</ele>
      </trkpt>
      <trkpt lat="43.1096" lon="3.09975">
        <ele>5.1</ele>
      </trkpt>
      <trkpt lat="43.10959" lon="3.09931">
        <ele>4.3</ele>
      </trkpt>
      <trkpt lat="43.1096" lon="3.09889">
        <ele>3.8</ele>
      </trkpt>
      <trkpt lat="43.1096" lon="3.09862">
        <ele>3.4</ele>
      </trkpt>
      <trkpt lat="43.10963" lon="3.09849">
        <ele>3.4</ele>
      </trkpt>
      <trkpt lat="43.10983" lon="3.09812">
        <ele>4</ele>
      </trkpt>
    </trkseg>
  </trk>
</gpx>